<?xml version="1.0" encoding="UTF-8" standalone="no" ?>
<gpx xmlns="http://www.topografix.com/GPX/1/1" xmlns:xsi="http://www.w3.org/2001/XMLSchema-instance" xsi:schemaLocation="http://www.topografix.com/GPX/1/1 http://www.topografix.com/GPX/1/1/gpx.xsd" version="1.1" creator="VisuGPX - https://www.visugpx.com">
  <metadata>
    <name>Sortie ASV VTT 2017-01-15</name>
    <desc><![CDATA[Balade de 8 guerriers Viennois dans le froid Solognot !]]></desc>
  </metadata>
  <trk>
    <name><![CDATA[Sortie ASV VTT 2017-01-15_1]]></name>
    <trkseg>
      <trkpt lat="47.80175" lon="2.13625">
        <ele>103</ele>
        <time>2017-01-15T08:00:14.659Z</time>
      </trkpt>
      <trkpt lat="47.80175" lon="2.13625">
        <ele>103</ele>
        <time>2017-01-15T08:00:15.639Z</time>
      </trkpt>
      <trkpt lat="47.80175" lon="2.13625">
        <ele>103</ele>
        <time>2017-01-15T08:00:16.648Z</time>
      </trkpt>
      <trkpt lat="47.80175" lon="2.13625">
        <ele>103</ele>
        <time>2017-01-15T08:00:17.644Z</time>
      </trkpt>
      <trkpt lat="47.8017" lon="2.13622">
        <ele>104</ele>
        <time>2017-01-15T08:00:18.644Z</time>
      </trkpt>
      <trkpt lat="47.8017" lon="2.13622">
        <ele>104</ele>
        <time>2017-01-15T08:00:19.639Z</time>
      </trkpt>
      <trkpt lat="47.80169" lon="2.13622">
        <ele>104</ele>
        <time>2017-01-15T08:00:20.655Z</time>
      </trkpt>
      <trkpt lat="47.80169" lon="2.13622">
        <ele>104</ele>
        <time>2017-01-15T08:00:21.657Z</time>
      </trkpt>
      <trkpt lat="47.80169" lon="2.13622">
        <ele>104</ele>
        <time>2017-01-15T08:00:22.661Z</time>
      </trkpt>
      <trkpt lat="47.80165" lon="2.13623">
        <ele>103</ele>
        <time>2017-01-15T08:00:23.662Z</time>
      </trkpt>
      <trkpt lat="47.80164" lon="2.13625">
        <ele>103</ele>
        <time>2017-01-15T08:00:24.656Z</time>
      </trkpt>
      <trkpt lat="47.80164" lon="2.13625">
        <ele>103</ele>
        <time>2017-01-15T08:00:25.653Z</time>
      </trkpt>
      <trkpt lat="47.80161" lon="2.1363">
        <ele>103</ele>
        <time>2017-01-15T08:00:26.637Z</time>
      </trkpt>
      <trkpt lat="47.80161" lon="2.1363">
        <ele>103</ele>
        <time>2017-01-15T08:00:27.644Z</time>
      </trkpt>
      <trkpt lat="47.80158" lon="2.13635">
        <ele>103</ele>
        <time>2017-01-15T08:00:28.657Z</time>
      </trkpt>
      <trkpt lat="47.80157" lon="2.13638">
        <ele>103</ele>
        <time>2017-01-15T08:00:29.657Z</time>
      </trkpt>
      <trkpt lat="47.80157" lon="2.13638">
        <ele>103</ele>
        <time>2017-01-15T08:00:30.657Z</time>
      </trkpt>
      <trkpt lat="47.80155" lon="2.13643">
        <ele>103</ele>
        <time>2017-01-15T08:00:31.661Z</time>
      </trkpt>
      <trkpt lat="47.80155" lon="2.13643">
        <ele>103</ele>
        <time>2017-01-15T08:00:32.655Z</time>
      </trkpt>
      <trkpt lat="47.80152" lon="2.13649">
        <ele>102</ele>
        <time>2017-01-15T08:00:33.640Z</time>
      </trkpt>
      <trkpt lat="47.80151" lon="2.13652">
        <ele>102</ele>
        <time>2017-01-15T08:00:34.653Z</time>
      </trkpt>
      <trkpt lat="47.80151" lon="2.13652">
        <ele>102</ele>
        <time>2017-01-15T08:00:35.649Z</time>
      </trkpt>
      <trkpt lat="47.80148" lon="2.13656">
        <ele>102</ele>
        <time>2017-01-15T08:00:36.665Z</time>
      </trkpt>
      <trkpt lat="47.80146" lon="2.13658">
        <ele>102</ele>
        <time>2017-01-15T08:00:37.628Z</time>
      </trkpt>
      <trkpt lat="47.80146" lon="2.13658">
        <ele>102</ele>
        <time>2017-01-15T08:00:38.651Z</time>
      </trkpt>
      <trkpt lat="47.80142" lon="2.13657">
        <ele>102</ele>
        <time>2017-01-15T08:00:39.647Z</time>
      </trkpt>
      <trkpt lat="47.8014" lon="2.13656">
        <ele>101</ele>
        <time>2017-01-15T08:00:40.651Z</time>
      </trkpt>
      <trkpt lat="47.80138" lon="2.13655">
        <ele>101</ele>
        <time>2017-01-15T08:00:41.654Z</time>
      </trkpt>
      <trkpt lat="47.80138" lon="2.13655">
        <ele>101</ele>
        <time>2017-01-15T08:00:42.648Z</time>
      </trkpt>
      <trkpt lat="47.80134" lon="2.13652">
        <ele>101</ele>
        <time>2017-01-15T08:00:43.655Z</time>
      </trkpt>
      <trkpt lat="47.80134" lon="2.13652">
        <ele>101</ele>
        <time>2017-01-15T08:00:44.649Z</time>
      </trkpt>
      <trkpt lat="47.8013" lon="2.13649">
        <ele>101</ele>
        <time>2017-01-15T08:00:45.651Z</time>
      </trkpt>
      <trkpt lat="47.8013" lon="2.13649">
        <ele>101</ele>
        <time>2017-01-15T08:00:46.646Z</time>
      </trkpt>
      <trkpt lat="47.80125" lon="2.13647">
        <ele>101</ele>
        <time>2017-01-15T08:00:47.652Z</time>
      </trkpt>
      <trkpt lat="47.80125" lon="2.13647">
        <ele>101</ele>
        <time>2017-01-15T08:00:48.647Z</time>
      </trkpt>
      <trkpt lat="47.8012" lon="2.13644">
        <ele>101</ele>
        <time>2017-01-15T08:00:49.651Z</time>
      </trkpt>
      <trkpt lat="47.8012" lon="2.13644">
        <ele>101</ele>
        <time>2017-01-15T08:00:50.643Z</time>
      </trkpt>
      <trkpt lat="47.80115" lon="2.1364">
        <ele>101</ele>
        <time>2017-01-15T08:00:51.653Z</time>
      </trkpt>
      <trkpt lat="47.80115" lon="2.1364">
        <ele>101</ele>
        <time>2017-01-15T08:00:52.667Z</time>
      </trkpt>
      <trkpt lat="47.80109" lon="2.13637">
        <ele>101</ele>
        <time>2017-01-15T08:00:53.658Z</time>
      </trkpt>
      <trkpt lat="47.80107" lon="2.13636">
        <ele>101</ele>
        <time>2017-01-15T08:00:54.659Z</time>
      </trkpt>
      <trkpt lat="47.80107" lon="2.13636">
        <ele>101</ele>
        <time>2017-01-15T08:00:55.650Z</time>
      </trkpt>
      <trkpt lat="47.80102" lon="2.13634">
        <ele>101</ele>
        <time>2017-01-15T08:00:56.663Z</time>
      </trkpt>
      <trkpt lat="47.80102" lon="2.13634">
        <ele>101</ele>
        <time>2017-01-15T08:00:57.654Z</time>
      </trkpt>
      <trkpt lat="47.80097" lon="2.13632">
        <ele>101</ele>
        <time>2017-01-15T08:00:58.648Z</time>
      </trkpt>
      <trkpt lat="47.80094" lon="2.13631">
        <ele>100</ele>
        <time>2017-01-15T08:00:59.657Z</time>
      </trkpt>
      <trkpt lat="47.80094" lon="2.13631">
        <ele>100</ele>
        <time>2017-01-15T08:01:00.648Z</time>
      </trkpt>
      <trkpt lat="47.8009" lon="2.13629">
        <ele>100</ele>
        <time>2017-01-15T08:01:01.653Z</time>
      </trkpt>
      <trkpt lat="47.8009" lon="2.13629">
        <ele>100</ele>
        <time>2017-01-15T08:01:02.649Z</time>
      </trkpt>
      <trkpt lat="47.80085" lon="2.13626">
        <ele>101</ele>
        <time>2017-01-15T08:01:03.657Z</time>
      </trkpt>
      <trkpt lat="47.80085" lon="2.13626">
        <ele>101</ele>
        <time>2017-01-15T08:01:04.649Z</time>
      </trkpt>
      <trkpt lat="47.80083" lon="2.1362">
        <ele>100</ele>
        <time>2017-01-15T08:01:05.654Z</time>
      </trkpt>
      <trkpt lat="47.80083" lon="2.1362">
        <ele>100</ele>
        <time>2017-01-15T08:01:06.667Z</time>
      </trkpt>
      <trkpt lat="47.80083" lon="2.13611">
        <ele>100</ele>
        <time>2017-01-15T08:01:07.659Z</time>
      </trkpt>
      <trkpt lat="47.80083" lon="2.13611">
        <ele>100</ele>
        <time>2017-01-15T08:01:08.649Z</time>
      </trkpt>
      <trkpt lat="47.80082" lon="2.13602">
        <ele>100</ele>
        <time>2017-01-15T08:01:09.654Z</time>
      </trkpt>
      <trkpt lat="47.80082" lon="2.13602">
        <ele>100</ele>
        <time>2017-01-15T08:01:10.647Z</time>
      </trkpt>
      <trkpt lat="47.80082" lon="2.13593">
        <ele>100</ele>
        <time>2017-01-15T08:01:11.654Z</time>
      </trkpt>
      <trkpt lat="47.80082" lon="2.13593">
        <ele>100</ele>
        <time>2017-01-15T08:01:12.648Z</time>
      </trkpt>
      <trkpt lat="47.80081" lon="2.13584">
        <ele>100</ele>
        <time>2017-01-15T08:01:13.657Z</time>
      </trkpt>
      <trkpt lat="47.80081" lon="2.13584">
        <ele>100</ele>
        <time>2017-01-15T08:01:14.647Z</time>
      </trkpt>
      <trkpt lat="47.80081" lon="2.13575">
        <ele>100</ele>
        <time>2017-01-15T08:01:15.652Z</time>
      </trkpt>
      <trkpt lat="47.80081" lon="2.13575">
        <ele>100</ele>
        <time>2017-01-15T08:01:16.628Z</time>
      </trkpt>
      <trkpt lat="47.80082" lon="2.13566">
        <ele>100</ele>
        <time>2017-01-15T08:01:17.658Z</time>
      </trkpt>
      <trkpt lat="47.80082" lon="2.13566">
        <ele>100</ele>
        <time>2017-01-15T08:01:18.649Z</time>
      </trkpt>
      <trkpt lat="47.80082" lon="2.13556">
        <ele>100</ele>
        <time>2017-01-15T08:01:19.651Z</time>
      </trkpt>
      <trkpt lat="47.80082" lon="2.13556">
        <ele>100</ele>
        <time>2017-01-15T08:01:20.648Z</time>
      </trkpt>
      <trkpt lat="47.80083" lon="2.13547">
        <ele>100</ele>
        <time>2017-01-15T08:01:21.654Z</time>
      </trkpt>
      <trkpt lat="47.80083" lon="2.13547">
        <ele>100</ele>
        <time>2017-01-15T08:01:22.647Z</time>
      </trkpt>
      <trkpt lat="47.80084" lon="2.13537">
        <ele>100</ele>
        <time>2017-01-15T08:01:23.662Z</time>
      </trkpt>
      <trkpt lat="47.80084" lon="2.13537">
        <ele>100</ele>
        <time>2017-01-15T08:01:24.652Z</time>
      </trkpt>
      <trkpt lat="47.80084" lon="2.13528">
        <ele>100</ele>
        <time>2017-01-15T08:01:25.651Z</time>
      </trkpt>
      <trkpt lat="47.80084" lon="2.13528">
        <ele>100</ele>
        <time>2017-01-15T08:01:26.648Z</time>
      </trkpt>
      <trkpt lat="47.80081" lon="2.1352">
        <ele>100</ele>
        <time>2017-01-15T08:01:27.656Z</time>
      </trkpt>
      <trkpt lat="47.80081" lon="2.1352">
        <ele>100</ele>
        <time>2017-01-15T08:01:28.646Z</time>
      </trkpt>
      <trkpt lat="47.80077" lon="2.13514">
        <ele>100</ele>
        <time>2017-01-15T08:01:29.650Z</time>
      </trkpt>
      <trkpt lat="47.80077" lon="2.13514">
        <ele>100</ele>
        <time>2017-01-15T08:01:30.649Z</time>
      </trkpt>
      <trkpt lat="47.80073" lon="2.13508">
        <ele>100</ele>
        <time>2017-01-15T08:01:31.652Z</time>
      </trkpt>
      <trkpt lat="47.80073" lon="2.13508">
        <ele>100</ele>
        <time>2017-01-15T08:01:32.645Z</time>
      </trkpt>
      <trkpt lat="47.80068" lon="2.13503">
        <ele>99</ele>
        <time>2017-01-15T08:01:33.656Z</time>
      </trkpt>
      <trkpt lat="47.80068" lon="2.13503">
        <ele>99</ele>
        <time>2017-01-15T08:01:34.642Z</time>
      </trkpt>
      <trkpt lat="47.80062" lon="2.13501">
        <ele>99</ele>
        <time>2017-01-15T08:01:35.652Z</time>
      </trkpt>
      <trkpt lat="47.80062" lon="2.13501">
        <ele>99</ele>
        <time>2017-01-15T08:01:36.657Z</time>
      </trkpt>
      <trkpt lat="47.80055" lon="2.135">
        <ele>99</ele>
        <time>2017-01-15T08:01:37.638Z</time>
      </trkpt>
      <trkpt lat="47.80055" lon="2.135">
        <ele>99</ele>
        <time>2017-01-15T08:01:38.631Z</time>
      </trkpt>
      <trkpt lat="47.80048" lon="2.135">
        <ele>99</ele>
        <time>2017-01-15T08:01:39.662Z</time>
      </trkpt>
      <trkpt lat="47.80048" lon="2.135">
        <ele>99</ele>
        <time>2017-01-15T08:01:40.650Z</time>
      </trkpt>
      <trkpt lat="47.80042" lon="2.13499">
        <ele>99</ele>
        <time>2017-01-15T08:01:41.660Z</time>
      </trkpt>
      <trkpt lat="47.80042" lon="2.13499">
        <ele>99</ele>
        <time>2017-01-15T08:01:42.653Z</time>
      </trkpt>
      <trkpt lat="47.80035" lon="2.13499">
        <ele>99</ele>
        <time>2017-01-15T08:01:43.662Z</time>
      </trkpt>
      <trkpt lat="47.80035" lon="2.13499">
        <ele>99</ele>
        <time>2017-01-15T08:01:44.649Z</time>
      </trkpt>
      <trkpt lat="47.80028" lon="2.13498">
        <ele>99</ele>
        <time>2017-01-15T08:01:45.652Z</time>
      </trkpt>
      <trkpt lat="47.80028" lon="2.13498">
        <ele>99</ele>
        <time>2017-01-15T08:01:46.661Z</time>
      </trkpt>
      <trkpt lat="47.80021" lon="2.13498">
        <ele>100</ele>
        <time>2017-01-15T08:01:47.653Z</time>
      </trkpt>
      <trkpt lat="47.80021" lon="2.13498">
        <ele>100</ele>
        <time>2017-01-15T08:01:48.654Z</time>
      </trkpt>
      <trkpt lat="47.80015" lon="2.13498">
        <ele>100</ele>
        <time>2017-01-15T08:01:49.649Z</time>
      </trkpt>
      <trkpt lat="47.80015" lon="2.13498">
        <ele>100</ele>
        <time>2017-01-15T08:01:50.649Z</time>
      </trkpt>
      <trkpt lat="47.80008" lon="2.13498">
        <ele>100</ele>
        <time>2017-01-15T08:01:51.651Z</time>
      </trkpt>
      <trkpt lat="47.80008" lon="2.13498">
        <ele>100</ele>
        <time>2017-01-15T08:01:52.647Z</time>
      </trkpt>
      <trkpt lat="47.80001" lon="2.13499">
        <ele>101</ele>
        <time>2017-01-15T08:01:53.653Z</time>
      </trkpt>
      <trkpt lat="47.80001" lon="2.13499">
        <ele>101</ele>
        <time>2017-01-15T08:01:54.646Z</time>
      </trkpt>
      <trkpt lat="47.79994" lon="2.13499">
        <ele>101</ele>
        <time>2017-01-15T08:01:55.652Z</time>
      </trkpt>
      <trkpt lat="47.79992" lon="2.13499">
        <ele>102</ele>
        <time>2017-01-15T08:01:56.664Z</time>
      </trkpt>
      <trkpt lat="47.79992" lon="2.13499">
        <ele>102</ele>
        <time>2017-01-15T08:01:57.653Z</time>
      </trkpt>
      <trkpt lat="47.79985" lon="2.13499">
        <ele>102</ele>
        <time>2017-01-15T08:01:58.651Z</time>
      </trkpt>
      <trkpt lat="47.79982" lon="2.13499">
        <ele>102</ele>
        <time>2017-01-15T08:01:59.654Z</time>
      </trkpt>
      <trkpt lat="47.79982" lon="2.13499">
        <ele>102</ele>
        <time>2017-01-15T08:02:00.647Z</time>
      </trkpt>
      <trkpt lat="47.79975" lon="2.13499">
        <ele>101</ele>
        <time>2017-01-15T08:02:01.652Z</time>
      </trkpt>
      <trkpt lat="47.79975" lon="2.13499">
        <ele>101</ele>
        <time>2017-01-15T08:02:02.658Z</time>
      </trkpt>
      <trkpt lat="47.79968" lon="2.135">
        <ele>101</ele>
        <time>2017-01-15T08:02:03.652Z</time>
      </trkpt>
      <trkpt lat="47.79968" lon="2.135">
        <ele>101</ele>
        <time>2017-01-15T08:02:04.644Z</time>
      </trkpt>
      <trkpt lat="47.79962" lon="2.135">
        <ele>101</ele>
        <time>2017-01-15T08:02:05.655Z</time>
      </trkpt>
      <trkpt lat="47.79962" lon="2.135">
        <ele>101</ele>
        <time>2017-01-15T08:02:06.646Z</time>
      </trkpt>
      <trkpt lat="47.79954" lon="2.13501">
        <ele>102</ele>
        <time>2017-01-15T08:02:07.652Z</time>
      </trkpt>
      <trkpt lat="47.79954" lon="2.13501">
        <ele>102</ele>
        <time>2017-01-15T08:02:08.646Z</time>
      </trkpt>
      <trkpt lat="47.79948" lon="2.13502">
        <ele>102</ele>
        <time>2017-01-15T08:02:09.650Z</time>
      </trkpt>
      <trkpt lat="47.79948" lon="2.13502">
        <ele>102</ele>
        <time>2017-01-15T08:02:10.648Z</time>
      </trkpt>
      <trkpt lat="47.79941" lon="2.13504">
        <ele>103</ele>
        <time>2017-01-15T08:02:11.652Z</time>
      </trkpt>
      <trkpt lat="47.79941" lon="2.13504">
        <ele>103</ele>
        <time>2017-01-15T08:02:12.649Z</time>
      </trkpt>
      <trkpt lat="47.79934" lon="2.13506">
        <ele>103</ele>
        <time>2017-01-15T08:02:13.652Z</time>
      </trkpt>
      <trkpt lat="47.79934" lon="2.13506">
        <ele>103</ele>
        <time>2017-01-15T08:02:14.633Z</time>
      </trkpt>
      <trkpt lat="47.79928" lon="2.13509">
        <ele>104</ele>
        <time>2017-01-15T08:02:15.663Z</time>
      </trkpt>
      <trkpt lat="47.79924" lon="2.1351">
        <ele>104</ele>
        <time>2017-01-15T08:02:16.628Z</time>
      </trkpt>
      <trkpt lat="47.79924" lon="2.1351">
        <ele>104</ele>
        <time>2017-01-15T08:02:17.658Z</time>
      </trkpt>
      <trkpt lat="47.79918" lon="2.13513">
        <ele>105</ele>
        <time>2017-01-15T08:02:18.648Z</time>
      </trkpt>
      <trkpt lat="47.79914" lon="2.13514">
        <ele>105</ele>
        <time>2017-01-15T08:02:19.651Z</time>
      </trkpt>
      <trkpt lat="47.79914" lon="2.13514">
        <ele>105</ele>
        <time>2017-01-15T08:02:20.646Z</time>
      </trkpt>
      <trkpt lat="47.79907" lon="2.13517">
        <ele>105</ele>
        <time>2017-01-15T08:02:21.651Z</time>
      </trkpt>
      <trkpt lat="47.79907" lon="2.13517">
        <ele>105</ele>
        <time>2017-01-15T08:02:22.648Z</time>
      </trkpt>
      <trkpt lat="47.79901" lon="2.13521">
        <ele>106</ele>
        <time>2017-01-15T08:02:23.648Z</time>
      </trkpt>
      <trkpt lat="47.79901" lon="2.13521">
        <ele>106</ele>
        <time>2017-01-15T08:02:24.652Z</time>
      </trkpt>
      <trkpt lat="47.79894" lon="2.13526">
        <ele>106</ele>
        <time>2017-01-15T08:02:25.652Z</time>
      </trkpt>
      <trkpt lat="47.79894" lon="2.13526">
        <ele>106</ele>
        <time>2017-01-15T08:02:26.662Z</time>
      </trkpt>
      <trkpt lat="47.79888" lon="2.1353">
        <ele>106</ele>
        <time>2017-01-15T08:02:27.652Z</time>
      </trkpt>
      <trkpt lat="47.79888" lon="2.1353">
        <ele>106</ele>
        <time>2017-01-15T08:02:28.646Z</time>
      </trkpt>
      <trkpt lat="47.79882" lon="2.13534">
        <ele>107</ele>
        <time>2017-01-15T08:02:29.655Z</time>
      </trkpt>
      <trkpt lat="47.79882" lon="2.13534">
        <ele>107</ele>
        <time>2017-01-15T08:02:30.648Z</time>
      </trkpt>
      <trkpt lat="47.79875" lon="2.13538">
        <ele>107</ele>
        <time>2017-01-15T08:02:31.654Z</time>
      </trkpt>
      <trkpt lat="47.79875" lon="2.13538">
        <ele>107</ele>
        <time>2017-01-15T08:02:32.646Z</time>
      </trkpt>
      <trkpt lat="47.79869" lon="2.13543">
        <ele>107</ele>
        <time>2017-01-15T08:02:33.651Z</time>
      </trkpt>
      <trkpt lat="47.79869" lon="2.13543">
        <ele>107</ele>
        <time>2017-01-15T08:02:34.653Z</time>
      </trkpt>
      <trkpt lat="47.79863" lon="2.13547">
        <ele>107</ele>
        <time>2017-01-15T08:02:35.655Z</time>
      </trkpt>
      <trkpt lat="47.79863" lon="2.13547">
        <ele>107</ele>
        <time>2017-01-15T08:02:36.628Z</time>
      </trkpt>
      <trkpt lat="47.79857" lon="2.13552">
        <ele>108</ele>
        <time>2017-01-15T08:02:37.657Z</time>
      </trkpt>
      <trkpt lat="47.79857" lon="2.13552">
        <ele>108</ele>
        <time>2017-01-15T08:02:38.649Z</time>
      </trkpt>
      <trkpt lat="47.79851" lon="2.13557">
        <ele>109</ele>
        <time>2017-01-15T08:02:39.651Z</time>
      </trkpt>
      <trkpt lat="47.79848" lon="2.13559">
        <ele>109</ele>
        <time>2017-01-15T08:02:40.653Z</time>
      </trkpt>
      <trkpt lat="47.79848" lon="2.13559">
        <ele>109</ele>
        <time>2017-01-15T08:02:41.649Z</time>
      </trkpt>
      <trkpt lat="47.79842" lon="2.13562">
        <ele>110</ele>
        <time>2017-01-15T08:02:42.652Z</time>
      </trkpt>
      <trkpt lat="47.79839" lon="2.13563">
        <ele>110</ele>
        <time>2017-01-15T08:02:43.653Z</time>
      </trkpt>
      <trkpt lat="47.79839" lon="2.13563">
        <ele>110</ele>
        <time>2017-01-15T08:02:44.655Z</time>
      </trkpt>
      <trkpt lat="47.79832" lon="2.13565">
        <ele>110</ele>
        <time>2017-01-15T08:02:45.656Z</time>
      </trkpt>
      <trkpt lat="47.79832" lon="2.13565">
        <ele>110</ele>
        <time>2017-01-15T08:02:46.628Z</time>
      </trkpt>
      <trkpt lat="47.79826" lon="2.13567">
        <ele>111</ele>
        <time>2017-01-15T08:02:47.660Z</time>
      </trkpt>
      <trkpt lat="47.79826" lon="2.13567">
        <ele>111</ele>
        <time>2017-01-15T08:02:48.628Z</time>
      </trkpt>
      <trkpt lat="47.79819" lon="2.13567">
        <ele>111</ele>
        <time>2017-01-15T08:02:49.660Z</time>
      </trkpt>
      <trkpt lat="47.79819" lon="2.13567">
        <ele>111</ele>
        <time>2017-01-15T08:02:50.651Z</time>
      </trkpt>
      <trkpt lat="47.79813" lon="2.13566">
        <ele>111</ele>
        <time>2017-01-15T08:02:51.652Z</time>
      </trkpt>
      <trkpt lat="47.7981" lon="2.13565">
        <ele>112</ele>
        <time>2017-01-15T08:02:52.629Z</time>
      </trkpt>
      <trkpt lat="47.7981" lon="2.13565">
        <ele>112</ele>
        <time>2017-01-15T08:02:53.651Z</time>
      </trkpt>
      <trkpt lat="47.79804" lon="2.13563">
        <ele>112</ele>
        <time>2017-01-15T08:02:54.660Z</time>
      </trkpt>
      <trkpt lat="47.79804" lon="2.13563">
        <ele>112</ele>
        <time>2017-01-15T08:02:55.649Z</time>
      </trkpt>
      <trkpt lat="47.79798" lon="2.1356">
        <ele>112</ele>
        <time>2017-01-15T08:02:56.661Z</time>
      </trkpt>
      <trkpt lat="47.79798" lon="2.1356">
        <ele>112</ele>
        <time>2017-01-15T08:02:57.650Z</time>
      </trkpt>
      <trkpt lat="47.79791" lon="2.13557">
        <ele>113</ele>
        <time>2017-01-15T08:02:58.653Z</time>
      </trkpt>
      <trkpt lat="47.79788" lon="2.13555">
        <ele>113</ele>
        <time>2017-01-15T08:02:59.654Z</time>
      </trkpt>
      <trkpt lat="47.79788" lon="2.13555">
        <ele>113</ele>
        <time>2017-01-15T08:03:00.649Z</time>
      </trkpt>
      <trkpt lat="47.79782" lon="2.13551">
        <ele>113</ele>
        <time>2017-01-15T08:03:01.651Z</time>
      </trkpt>
      <trkpt lat="47.79782" lon="2.13551">
        <ele>113</ele>
        <time>2017-01-15T08:03:02.646Z</time>
      </trkpt>
      <trkpt lat="47.79776" lon="2.13547">
        <ele>113</ele>
        <time>2017-01-15T08:03:03.650Z</time>
      </trkpt>
      <trkpt lat="47.79776" lon="2.13547">
        <ele>113</ele>
        <time>2017-01-15T08:03:04.653Z</time>
      </trkpt>
      <trkpt lat="47.79769" lon="2.13544">
        <ele>113</ele>
        <time>2017-01-15T08:03:05.654Z</time>
      </trkpt>
      <trkpt lat="47.79769" lon="2.13544">
        <ele>113</ele>
        <time>2017-01-15T08:03:06.662Z</time>
      </trkpt>
      <trkpt lat="47.79763" lon="2.1354">
        <ele>114</ele>
        <time>2017-01-15T08:03:07.654Z</time>
      </trkpt>
      <trkpt lat="47.79763" lon="2.1354">
        <ele>114</ele>
        <time>2017-01-15T08:03:08.648Z</time>
      </trkpt>
      <trkpt lat="47.79757" lon="2.13536">
        <ele>114</ele>
        <time>2017-01-15T08:03:09.651Z</time>
      </trkpt>
      <trkpt lat="47.79757" lon="2.13536">
        <ele>114</ele>
        <time>2017-01-15T08:03:10.645Z</time>
      </trkpt>
      <trkpt lat="47.79751" lon="2.13532">
        <ele>115</ele>
        <time>2017-01-15T08:03:11.655Z</time>
      </trkpt>
      <trkpt lat="47.79751" lon="2.13532">
        <ele>115</ele>
        <time>2017-01-15T08:03:12.648Z</time>
      </trkpt>
      <trkpt lat="47.79744" lon="2.13528">
        <ele>115</ele>
        <time>2017-01-15T08:03:13.649Z</time>
      </trkpt>
      <trkpt lat="47.79744" lon="2.13528">
        <ele>115</ele>
        <time>2017-01-15T08:03:14.652Z</time>
      </trkpt>
      <trkpt lat="47.79738" lon="2.13524">
        <ele>115</ele>
        <time>2017-01-15T08:03:15.651Z</time>
      </trkpt>
      <trkpt lat="47.79738" lon="2.13524">
        <ele>115</ele>
        <time>2017-01-15T08:03:16.648Z</time>
      </trkpt>
      <trkpt lat="47.79732" lon="2.13521">
        <ele>116</ele>
        <time>2017-01-15T08:03:17.654Z</time>
      </trkpt>
      <trkpt lat="47.79732" lon="2.13521">
        <ele>116</ele>
        <time>2017-01-15T08:03:18.648Z</time>
      </trkpt>
      <trkpt lat="47.79726" lon="2.13517">
        <ele>116</ele>
        <time>2017-01-15T08:03:19.651Z</time>
      </trkpt>
      <trkpt lat="47.79726" lon="2.13517">
        <ele>116</ele>
        <time>2017-01-15T08:03:20.648Z</time>
      </trkpt>
      <trkpt lat="47.79721" lon="2.13513">
        <ele>116</ele>
        <time>2017-01-15T08:03:21.653Z</time>
      </trkpt>
      <trkpt lat="47.79718" lon="2.13511">
        <ele>116</ele>
        <time>2017-01-15T08:03:22.629Z</time>
      </trkpt>
      <trkpt lat="47.79718" lon="2.13511">
        <ele>116</ele>
        <time>2017-01-15T08:03:23.658Z</time>
      </trkpt>
      <trkpt lat="47.79712" lon="2.13508">
        <ele>117</ele>
        <time>2017-01-15T08:03:24.635Z</time>
      </trkpt>
      <trkpt lat="47.79712" lon="2.13508">
        <ele>117</ele>
        <time>2017-01-15T08:03:25.645Z</time>
      </trkpt>
      <trkpt lat="47.79706" lon="2.13505">
        <ele>117</ele>
        <time>2017-01-15T08:03:26.652Z</time>
      </trkpt>
      <trkpt lat="47.79706" lon="2.13505">
        <ele>117</ele>
        <time>2017-01-15T08:03:27.658Z</time>
      </trkpt>
      <trkpt lat="47.797" lon="2.13501">
        <ele>117</ele>
        <time>2017-01-15T08:03:28.652Z</time>
      </trkpt>
      <trkpt lat="47.79697" lon="2.13499">
        <ele>117</ele>
        <time>2017-01-15T08:03:29.658Z</time>
      </trkpt>
      <trkpt lat="47.79697" lon="2.13499">
        <ele>117</ele>
        <time>2017-01-15T08:03:30.649Z</time>
      </trkpt>
      <trkpt lat="47.79691" lon="2.13496">
        <ele>118</ele>
        <time>2017-01-15T08:03:31.651Z</time>
      </trkpt>
      <trkpt lat="47.79691" lon="2.13496">
        <ele>118</ele>
        <time>2017-01-15T08:03:32.650Z</time>
      </trkpt>
      <trkpt lat="47.79684" lon="2.13492">
        <ele>118</ele>
        <time>2017-01-15T08:03:33.651Z</time>
      </trkpt>
      <trkpt lat="47.79684" lon="2.13492">
        <ele>118</ele>
        <time>2017-01-15T08:03:34.649Z</time>
      </trkpt>
      <trkpt lat="47.79678" lon="2.13489">
        <ele>118</ele>
        <time>2017-01-15T08:03:35.650Z</time>
      </trkpt>
      <trkpt lat="47.79678" lon="2.13489">
        <ele>118</ele>
        <time>2017-01-15T08:03:36.665Z</time>
      </trkpt>
      <trkpt lat="47.79672" lon="2.13485">
        <ele>118</ele>
        <time>2017-01-15T08:03:37.654Z</time>
      </trkpt>
      <trkpt lat="47.79672" lon="2.13485">
        <ele>118</ele>
        <time>2017-01-15T08:03:38.656Z</time>
      </trkpt>
      <trkpt lat="47.79665" lon="2.13481">
        <ele>119</ele>
        <time>2017-01-15T08:03:39.652Z</time>
      </trkpt>
      <trkpt lat="47.79665" lon="2.13481">
        <ele>119</ele>
        <time>2017-01-15T08:03:40.648Z</time>
      </trkpt>
      <trkpt lat="47.79659" lon="2.13478">
        <ele>119</ele>
        <time>2017-01-15T08:03:41.654Z</time>
      </trkpt>
      <trkpt lat="47.79659" lon="2.13478">
        <ele>119</ele>
        <time>2017-01-15T08:03:42.650Z</time>
      </trkpt>
      <trkpt lat="47.79652" lon="2.13475">
        <ele>119</ele>
        <time>2017-01-15T08:03:43.651Z</time>
      </trkpt>
      <trkpt lat="47.79652" lon="2.13475">
        <ele>119</ele>
        <time>2017-01-15T08:03:44.650Z</time>
      </trkpt>
      <trkpt lat="47.79646" lon="2.13471">
        <ele>119</ele>
        <time>2017-01-15T08:03:45.650Z</time>
      </trkpt>
      <trkpt lat="47.79642" lon="2.1347">
        <ele>119</ele>
        <time>2017-01-15T08:03:46.659Z</time>
      </trkpt>
      <trkpt lat="47.79639" lon="2.13468">
        <ele>119</ele>
        <time>2017-01-15T08:03:47.653Z</time>
      </trkpt>
      <trkpt lat="47.79639" lon="2.13468">
        <ele>119</ele>
        <time>2017-01-15T08:03:48.649Z</time>
      </trkpt>
      <trkpt lat="47.79632" lon="2.13464">
        <ele>119</ele>
        <time>2017-01-15T08:03:49.654Z</time>
      </trkpt>
      <trkpt lat="47.79632" lon="2.13464">
        <ele>119</ele>
        <time>2017-01-15T08:03:50.649Z</time>
      </trkpt>
      <trkpt lat="47.79625" lon="2.13461">
        <ele>119</ele>
        <time>2017-01-15T08:03:51.659Z</time>
      </trkpt>
      <trkpt lat="47.79625" lon="2.13461">
        <ele>119</ele>
        <time>2017-01-15T08:03:52.632Z</time>
      </trkpt>
      <trkpt lat="47.79619" lon="2.13457">
        <ele>119</ele>
        <time>2017-01-15T08:03:53.660Z</time>
      </trkpt>
      <trkpt lat="47.79619" lon="2.13457">
        <ele>119</ele>
        <time>2017-01-15T08:03:54.649Z</time>
      </trkpt>
      <trkpt lat="47.79612" lon="2.13454">
        <ele>119</ele>
        <time>2017-01-15T08:03:55.653Z</time>
      </trkpt>
      <trkpt lat="47.79612" lon="2.13454">
        <ele>119</ele>
        <time>2017-01-15T08:03:56.665Z</time>
      </trkpt>
      <trkpt lat="47.79605" lon="2.1345">
        <ele>119</ele>
        <time>2017-01-15T08:03:57.655Z</time>
      </trkpt>
      <trkpt lat="47.79605" lon="2.1345">
        <ele>119</ele>
        <time>2017-01-15T08:03:58.649Z</time>
      </trkpt>
      <trkpt lat="47.79598" lon="2.13447">
        <ele>119</ele>
        <time>2017-01-15T08:03:59.654Z</time>
      </trkpt>
      <trkpt lat="47.79598" lon="2.13447">
        <ele>119</ele>
        <time>2017-01-15T08:04:00.648Z</time>
      </trkpt>
      <trkpt lat="47.79591" lon="2.13443">
        <ele>119</ele>
        <time>2017-01-15T08:04:01.651Z</time>
      </trkpt>
      <trkpt lat="47.79591" lon="2.13443">
        <ele>119</ele>
        <time>2017-01-15T08:04:02.654Z</time>
      </trkpt>
      <trkpt lat="47.79583" lon="2.13439">
        <ele>118</ele>
        <time>2017-01-15T08:04:03.653Z</time>
      </trkpt>
      <trkpt lat="47.79583" lon="2.13439">
        <ele>118</ele>
        <time>2017-01-15T08:04:04.649Z</time>
      </trkpt>
      <trkpt lat="47.79576" lon="2.13436">
        <ele>118</ele>
        <time>2017-01-15T08:04:05.652Z</time>
      </trkpt>
      <trkpt lat="47.79576" lon="2.13436">
        <ele>118</ele>
        <time>2017-01-15T08:04:06.663Z</time>
      </trkpt>
      <trkpt lat="47.79569" lon="2.13432">
        <ele>118</ele>
        <time>2017-01-15T08:04:07.654Z</time>
      </trkpt>
      <trkpt lat="47.79569" lon="2.13432">
        <ele>118</ele>
        <time>2017-01-15T08:04:08.641Z</time>
      </trkpt>
      <trkpt lat="47.79561" lon="2.13428">
        <ele>118</ele>
        <time>2017-01-15T08:04:09.652Z</time>
      </trkpt>
      <trkpt lat="47.79561" lon="2.13428">
        <ele>118</ele>
        <time>2017-01-15T08:04:10.649Z</time>
      </trkpt>
      <trkpt lat="47.79553" lon="2.13424">
        <ele>118</ele>
        <time>2017-01-15T08:04:11.655Z</time>
      </trkpt>
      <trkpt lat="47.79553" lon="2.13424">
        <ele>118</ele>
        <time>2017-01-15T08:04:12.649Z</time>
      </trkpt>
      <trkpt lat="47.79546" lon="2.1342">
        <ele>118</ele>
        <time>2017-01-15T08:04:13.653Z</time>
      </trkpt>
      <trkpt lat="47.79546" lon="2.1342">
        <ele>118</ele>
        <time>2017-01-15T08:04:14.643Z</time>
      </trkpt>
      <trkpt lat="47.79538" lon="2.13416">
        <ele>118</ele>
        <time>2017-01-15T08:04:15.652Z</time>
      </trkpt>
      <trkpt lat="47.79538" lon="2.13416">
        <ele>118</ele>
        <time>2017-01-15T08:04:16.663Z</time>
      </trkpt>
      <trkpt lat="47.7953" lon="2.13411">
        <ele>118</ele>
        <time>2017-01-15T08:04:17.654Z</time>
      </trkpt>
      <trkpt lat="47.7953" lon="2.13411">
        <ele>118</ele>
        <time>2017-01-15T08:04:18.650Z</time>
      </trkpt>
      <trkpt lat="47.79522" lon="2.13408">
        <ele>118</ele>
        <time>2017-01-15T08:04:19.652Z</time>
      </trkpt>
      <trkpt lat="47.79522" lon="2.13408">
        <ele>118</ele>
        <time>2017-01-15T08:04:20.649Z</time>
      </trkpt>
      <trkpt lat="47.79514" lon="2.13404">
        <ele>119</ele>
        <time>2017-01-15T08:04:21.652Z</time>
      </trkpt>
      <trkpt lat="47.7951" lon="2.13402">
        <ele>118</ele>
        <time>2017-01-15T08:04:22.652Z</time>
      </trkpt>
      <trkpt lat="47.79506" lon="2.134">
        <ele>118</ele>
        <time>2017-01-15T08:04:23.653Z</time>
      </trkpt>
      <trkpt lat="47.79506" lon="2.134">
        <ele>118</ele>
        <time>2017-01-15T08:04:24.649Z</time>
      </trkpt>
      <trkpt lat="47.79498" lon="2.13397">
        <ele>119</ele>
        <time>2017-01-15T08:04:25.631Z</time>
      </trkpt>
      <trkpt lat="47.79494" lon="2.13395">
        <ele>118</ele>
        <time>2017-01-15T08:04:26.629Z</time>
      </trkpt>
      <trkpt lat="47.79494" lon="2.13395">
        <ele>118</ele>
        <time>2017-01-15T08:04:27.659Z</time>
      </trkpt>
      <trkpt lat="47.79486" lon="2.13391">
        <ele>119</ele>
        <time>2017-01-15T08:04:28.652Z</time>
      </trkpt>
      <trkpt lat="47.79486" lon="2.13391">
        <ele>119</ele>
        <time>2017-01-15T08:04:29.650Z</time>
      </trkpt>
      <trkpt lat="47.79478" lon="2.13386">
        <ele>119</ele>
        <time>2017-01-15T08:04:30.654Z</time>
      </trkpt>
      <trkpt lat="47.79474" lon="2.13384">
        <ele>118</ele>
        <time>2017-01-15T08:04:31.654Z</time>
      </trkpt>
      <trkpt lat="47.79474" lon="2.13384">
        <ele>118</ele>
        <time>2017-01-15T08:04:32.651Z</time>
      </trkpt>
      <trkpt lat="47.79465" lon="2.13379">
        <ele>118</ele>
        <time>2017-01-15T08:04:33.653Z</time>
      </trkpt>
      <trkpt lat="47.79465" lon="2.13379">
        <ele>118</ele>
        <time>2017-01-15T08:04:34.647Z</time>
      </trkpt>
      <trkpt lat="47.79456" lon="2.13375">
        <ele>118</ele>
        <time>2017-01-15T08:04:35.628Z</time>
      </trkpt>
      <trkpt lat="47.79456" lon="2.13375">
        <ele>118</ele>
        <time>2017-01-15T08:04:36.667Z</time>
      </trkpt>
      <trkpt lat="47.79448" lon="2.1337">
        <ele>118</ele>
        <time>2017-01-15T08:04:37.634Z</time>
      </trkpt>
      <trkpt lat="47.79448" lon="2.1337">
        <ele>118</ele>
        <time>2017-01-15T08:04:38.628Z</time>
      </trkpt>
      <trkpt lat="47.79439" lon="2.13366">
        <ele>118</ele>
        <time>2017-01-15T08:04:39.659Z</time>
      </trkpt>
      <trkpt lat="47.79439" lon="2.13366">
        <ele>118</ele>
        <time>2017-01-15T08:04:40.649Z</time>
      </trkpt>
      <trkpt lat="47.79431" lon="2.13362">
        <ele>118</ele>
        <time>2017-01-15T08:04:41.654Z</time>
      </trkpt>
      <trkpt lat="47.79431" lon="2.13362">
        <ele>118</ele>
        <time>2017-01-15T08:04:42.646Z</time>
      </trkpt>
      <trkpt lat="47.79423" lon="2.13357">
        <ele>118</ele>
        <time>2017-01-15T08:04:43.651Z</time>
      </trkpt>
      <trkpt lat="47.79423" lon="2.13357">
        <ele>118</ele>
        <time>2017-01-15T08:04:44.649Z</time>
      </trkpt>
      <trkpt lat="47.79414" lon="2.13353">
        <ele>118</ele>
        <time>2017-01-15T08:04:45.652Z</time>
      </trkpt>
      <trkpt lat="47.79414" lon="2.13353">
        <ele>118</ele>
        <time>2017-01-15T08:04:46.663Z</time>
      </trkpt>
      <trkpt lat="47.79405" lon="2.13348">
        <ele>118</ele>
        <time>2017-01-15T08:04:47.653Z</time>
      </trkpt>
      <trkpt lat="47.79405" lon="2.13348">
        <ele>118</ele>
        <time>2017-01-15T08:04:48.649Z</time>
      </trkpt>
      <trkpt lat="47.79397" lon="2.13344">
        <ele>118</ele>
        <time>2017-01-15T08:04:49.652Z</time>
      </trkpt>
      <trkpt lat="47.79397" lon="2.13344">
        <ele>118</ele>
        <time>2017-01-15T08:04:50.647Z</time>
      </trkpt>
      <trkpt lat="47.79389" lon="2.1334">
        <ele>119</ele>
        <time>2017-01-15T08:04:51.652Z</time>
      </trkpt>
      <trkpt lat="47.79389" lon="2.1334">
        <ele>119</ele>
        <time>2017-01-15T08:04:52.630Z</time>
      </trkpt>
      <trkpt lat="47.79381" lon="2.13335">
        <ele>118</ele>
        <time>2017-01-15T08:04:53.654Z</time>
      </trkpt>
      <trkpt lat="47.79381" lon="2.13335">
        <ele>118</ele>
        <time>2017-01-15T08:04:54.649Z</time>
      </trkpt>
      <trkpt lat="47.79373" lon="2.13331">
        <ele>118</ele>
        <time>2017-01-15T08:04:55.653Z</time>
      </trkpt>
      <trkpt lat="47.79369" lon="2.13328">
        <ele>118</ele>
        <time>2017-01-15T08:04:56.663Z</time>
      </trkpt>
      <trkpt lat="47.79365" lon="2.13327">
        <ele>118</ele>
        <time>2017-01-15T08:04:57.652Z</time>
      </trkpt>
      <trkpt lat="47.79365" lon="2.13327">
        <ele>118</ele>
        <time>2017-01-15T08:04:58.650Z</time>
      </trkpt>
      <trkpt lat="47.79357" lon="2.13324">
        <ele>118</ele>
        <time>2017-01-15T08:04:59.650Z</time>
      </trkpt>
      <trkpt lat="47.79357" lon="2.13324">
        <ele>118</ele>
        <time>2017-01-15T08:05:00.647Z</time>
      </trkpt>
      <trkpt lat="47.79349" lon="2.1332">
        <ele>119</ele>
        <time>2017-01-15T08:05:01.653Z</time>
      </trkpt>
      <trkpt lat="47.79349" lon="2.1332">
        <ele>119</ele>
        <time>2017-01-15T08:05:02.650Z</time>
      </trkpt>
      <trkpt lat="47.7934" lon="2.13316">
        <ele>119</ele>
        <time>2017-01-15T08:05:03.653Z</time>
      </trkpt>
      <trkpt lat="47.7934" lon="2.13316">
        <ele>119</ele>
        <time>2017-01-15T08:05:04.647Z</time>
      </trkpt>
      <trkpt lat="47.79332" lon="2.13312">
        <ele>120</ele>
        <time>2017-01-15T08:05:05.652Z</time>
      </trkpt>
      <trkpt lat="47.79332" lon="2.13312">
        <ele>120</ele>
        <time>2017-01-15T08:05:06.667Z</time>
      </trkpt>
      <trkpt lat="47.79324" lon="2.13308">
        <ele>120</ele>
        <time>2017-01-15T08:05:07.657Z</time>
      </trkpt>
      <trkpt lat="47.79324" lon="2.13308">
        <ele>120</ele>
        <time>2017-01-15T08:05:08.650Z</time>
      </trkpt>
      <trkpt lat="47.79315" lon="2.13303">
        <ele>120</ele>
        <time>2017-01-15T08:05:09.653Z</time>
      </trkpt>
      <trkpt lat="47.79315" lon="2.13303">
        <ele>120</ele>
        <time>2017-01-15T08:05:10.649Z</time>
      </trkpt>
      <trkpt lat="47.79308" lon="2.133">
        <ele>121</ele>
        <time>2017-01-15T08:05:11.652Z</time>
      </trkpt>
      <trkpt lat="47.79308" lon="2.133">
        <ele>121</ele>
        <time>2017-01-15T08:05:12.644Z</time>
      </trkpt>
      <trkpt lat="47.793" lon="2.13295">
        <ele>121</ele>
        <time>2017-01-15T08:05:13.652Z</time>
      </trkpt>
      <trkpt lat="47.793" lon="2.13295">
        <ele>121</ele>
        <time>2017-01-15T08:05:14.650Z</time>
      </trkpt>
      <trkpt lat="47.79292" lon="2.13291">
        <ele>121</ele>
        <time>2017-01-15T08:05:15.643Z</time>
      </trkpt>
      <trkpt lat="47.79292" lon="2.13291">
        <ele>121</ele>
        <time>2017-01-15T08:05:16.643Z</time>
      </trkpt>
      <trkpt lat="47.79284" lon="2.13288">
        <ele>121</ele>
        <time>2017-01-15T08:05:17.651Z</time>
      </trkpt>
      <trkpt lat="47.79284" lon="2.13288">
        <ele>121</ele>
        <time>2017-01-15T08:05:18.647Z</time>
      </trkpt>
      <trkpt lat="47.79276" lon="2.13284">
        <ele>121</ele>
        <time>2017-01-15T08:05:19.652Z</time>
      </trkpt>
      <trkpt lat="47.79276" lon="2.13284">
        <ele>121</ele>
        <time>2017-01-15T08:05:20.664Z</time>
      </trkpt>
      <trkpt lat="47.79269" lon="2.1328">
        <ele>121</ele>
        <time>2017-01-15T08:05:21.654Z</time>
      </trkpt>
      <trkpt lat="47.79269" lon="2.1328">
        <ele>121</ele>
        <time>2017-01-15T08:05:22.649Z</time>
      </trkpt>
      <trkpt lat="47.79262" lon="2.13277">
        <ele>121</ele>
        <time>2017-01-15T08:05:23.653Z</time>
      </trkpt>
      <trkpt lat="47.79262" lon="2.13277">
        <ele>121</ele>
        <time>2017-01-15T08:05:24.649Z</time>
      </trkpt>
      <trkpt lat="47.79255" lon="2.13274">
        <ele>121</ele>
        <time>2017-01-15T08:05:25.653Z</time>
      </trkpt>
      <trkpt lat="47.79252" lon="2.13273">
        <ele>121</ele>
        <time>2017-01-15T08:05:26.657Z</time>
      </trkpt>
      <trkpt lat="47.79252" lon="2.13273">
        <ele>121</ele>
        <time>2017-01-15T08:05:27.649Z</time>
      </trkpt>
      <trkpt lat="47.79246" lon="2.13271">
        <ele>121</ele>
        <time>2017-01-15T08:05:28.652Z</time>
      </trkpt>
      <trkpt lat="47.79242" lon="2.13269">
        <ele>121</ele>
        <time>2017-01-15T08:05:29.654Z</time>
      </trkpt>
      <trkpt lat="47.79242" lon="2.13269">
        <ele>121</ele>
        <time>2017-01-15T08:05:30.650Z</time>
      </trkpt>
      <trkpt lat="47.79235" lon="2.13267">
        <ele>121</ele>
        <time>2017-01-15T08:05:31.653Z</time>
      </trkpt>
      <trkpt lat="47.79235" lon="2.13267">
        <ele>121</ele>
        <time>2017-01-15T08:05:32.649Z</time>
      </trkpt>
      <trkpt lat="47.79227" lon="2.13264">
        <ele>121</ele>
        <time>2017-01-15T08:05:33.653Z</time>
      </trkpt>
      <trkpt lat="47.79227" lon="2.13264">
        <ele>121</ele>
        <time>2017-01-15T08:05:34.647Z</time>
      </trkpt>
      <trkpt lat="47.7922" lon="2.13262">
        <ele>121</ele>
        <time>2017-01-15T08:05:35.653Z</time>
      </trkpt>
      <trkpt lat="47.7922" lon="2.13262">
        <ele>121</ele>
        <time>2017-01-15T08:05:36.650Z</time>
      </trkpt>
      <trkpt lat="47.79212" lon="2.1326">
        <ele>121</ele>
        <time>2017-01-15T08:05:37.653Z</time>
      </trkpt>
      <trkpt lat="47.79208" lon="2.13259">
        <ele>121</ele>
        <time>2017-01-15T08:05:38.652Z</time>
      </trkpt>
      <trkpt lat="47.79208" lon="2.13259">
        <ele>121</ele>
        <time>2017-01-15T08:05:39.650Z</time>
      </trkpt>
      <trkpt lat="47.792" lon="2.13257">
        <ele>122</ele>
        <time>2017-01-15T08:05:40.652Z</time>
      </trkpt>
      <trkpt lat="47.79196" lon="2.13257">
        <ele>122</ele>
        <time>2017-01-15T08:05:41.652Z</time>
      </trkpt>
      <trkpt lat="47.79196" lon="2.13257">
        <ele>122</ele>
        <time>2017-01-15T08:05:42.651Z</time>
      </trkpt>
      <trkpt lat="47.79189" lon="2.13255">
        <ele>122</ele>
        <time>2017-01-15T08:05:43.653Z</time>
      </trkpt>
      <trkpt lat="47.79189" lon="2.13255">
        <ele>122</ele>
        <time>2017-01-15T08:05:44.648Z</time>
      </trkpt>
      <trkpt lat="47.79181" lon="2.13253">
        <ele>122</ele>
        <time>2017-01-15T08:05:45.652Z</time>
      </trkpt>
      <trkpt lat="47.79181" lon="2.13253">
        <ele>122</ele>
        <time>2017-01-15T08:05:46.665Z</time>
      </trkpt>
      <trkpt lat="47.79173" lon="2.13252">
        <ele>122</ele>
        <time>2017-01-15T08:05:47.655Z</time>
      </trkpt>
      <trkpt lat="47.79173" lon="2.13252">
        <ele>122</ele>
        <time>2017-01-15T08:05:48.650Z</time>
      </trkpt>
      <trkpt lat="47.79165" lon="2.13251">
        <ele>123</ele>
        <time>2017-01-15T08:05:49.652Z</time>
      </trkpt>
      <trkpt lat="47.79165" lon="2.13251">
        <ele>123</ele>
        <time>2017-01-15T08:05:50.647Z</time>
      </trkpt>
      <trkpt lat="47.79157" lon="2.13251">
        <ele>123</ele>
        <time>2017-01-15T08:05:51.651Z</time>
      </trkpt>
      <trkpt lat="47.79157" lon="2.13251">
        <ele>123</ele>
        <time>2017-01-15T08:05:52.631Z</time>
      </trkpt>
      <trkpt lat="47.79149" lon="2.1325">
        <ele>123</ele>
        <time>2017-01-15T08:05:53.654Z</time>
      </trkpt>
      <trkpt lat="47.79149" lon="2.1325">
        <ele>123</ele>
        <time>2017-01-15T08:05:54.651Z</time>
      </trkpt>
      <trkpt lat="47.79141" lon="2.1325">
        <ele>123</ele>
        <time>2017-01-15T08:05:55.653Z</time>
      </trkpt>
      <trkpt lat="47.79141" lon="2.1325">
        <ele>123</ele>
        <time>2017-01-15T08:05:56.657Z</time>
      </trkpt>
      <trkpt lat="47.79132" lon="2.1325">
        <ele>123</ele>
        <time>2017-01-15T08:05:57.653Z</time>
      </trkpt>
      <trkpt lat="47.79132" lon="2.1325">
        <ele>123</ele>
        <time>2017-01-15T08:05:58.649Z</time>
      </trkpt>
      <trkpt lat="47.79123" lon="2.13249">
        <ele>124</ele>
        <time>2017-01-15T08:05:59.646Z</time>
      </trkpt>
      <trkpt lat="47.79123" lon="2.13249">
        <ele>124</ele>
        <time>2017-01-15T08:06:00.647Z</time>
      </trkpt>
      <trkpt lat="47.79115" lon="2.13249">
        <ele>124</ele>
        <time>2017-01-15T08:06:01.652Z</time>
      </trkpt>
      <trkpt lat="47.79115" lon="2.13249">
        <ele>124</ele>
        <time>2017-01-15T08:06:02.650Z</time>
      </trkpt>
      <trkpt lat="47.79106" lon="2.13249">
        <ele>124</ele>
        <time>2017-01-15T08:06:03.653Z</time>
      </trkpt>
      <trkpt lat="47.79106" lon="2.13249">
        <ele>124</ele>
        <time>2017-01-15T08:06:04.645Z</time>
      </trkpt>
      <trkpt lat="47.79098" lon="2.13249">
        <ele>124</ele>
        <time>2017-01-15T08:06:05.654Z</time>
      </trkpt>
      <trkpt lat="47.79098" lon="2.13249">
        <ele>124</ele>
        <time>2017-01-15T08:06:06.658Z</time>
      </trkpt>
      <trkpt lat="47.79088" lon="2.13249">
        <ele>124</ele>
        <time>2017-01-15T08:06:07.652Z</time>
      </trkpt>
      <trkpt lat="47.79088" lon="2.13249">
        <ele>124</ele>
        <time>2017-01-15T08:06:08.650Z</time>
      </trkpt>
      <trkpt lat="47.79079" lon="2.13249">
        <ele>124</ele>
        <time>2017-01-15T08:06:09.652Z</time>
      </trkpt>
      <trkpt lat="47.79079" lon="2.13249">
        <ele>124</ele>
        <time>2017-01-15T08:06:10.647Z</time>
      </trkpt>
      <trkpt lat="47.79069" lon="2.1325">
        <ele>124</ele>
        <time>2017-01-15T08:06:11.654Z</time>
      </trkpt>
      <trkpt lat="47.79069" lon="2.1325">
        <ele>124</ele>
        <time>2017-01-15T08:06:12.651Z</time>
      </trkpt>
      <trkpt lat="47.79059" lon="2.1325">
        <ele>123</ele>
        <time>2017-01-15T08:06:13.652Z</time>
      </trkpt>
      <trkpt lat="47.79059" lon="2.1325">
        <ele>123</ele>
        <time>2017-01-15T08:06:14.647Z</time>
      </trkpt>
      <trkpt lat="47.7905" lon="2.1325">
        <ele>123</ele>
        <time>2017-01-15T08:06:15.652Z</time>
      </trkpt>
      <trkpt lat="47.7905" lon="2.1325">
        <ele>123</ele>
        <time>2017-01-15T08:06:16.664Z</time>
      </trkpt>
      <trkpt lat="47.7904" lon="2.1325">
        <ele>123</ele>
        <time>2017-01-15T08:06:17.655Z</time>
      </trkpt>
      <trkpt lat="47.7904" lon="2.1325">
        <ele>123</ele>
        <time>2017-01-15T08:06:18.650Z</time>
      </trkpt>
      <trkpt lat="47.7903" lon="2.1325">
        <ele>123</ele>
        <time>2017-01-15T08:06:19.652Z</time>
      </trkpt>
      <trkpt lat="47.79024" lon="2.1325">
        <ele>123</ele>
        <time>2017-01-15T08:06:20.653Z</time>
      </trkpt>
      <trkpt lat="47.79024" lon="2.1325">
        <ele>123</ele>
        <time>2017-01-15T08:06:21.651Z</time>
      </trkpt>
      <trkpt lat="47.79014" lon="2.1325">
        <ele>122</ele>
        <time>2017-01-15T08:06:22.653Z</time>
      </trkpt>
      <trkpt lat="47.79009" lon="2.13251">
        <ele>122</ele>
        <time>2017-01-15T08:06:23.630Z</time>
      </trkpt>
      <trkpt lat="47.79009" lon="2.13251">
        <ele>122</ele>
        <time>2017-01-15T08:06:24.658Z</time>
      </trkpt>
      <trkpt lat="47.78998" lon="2.1325">
        <ele>122</ele>
        <time>2017-01-15T08:06:25.658Z</time>
      </trkpt>
      <trkpt lat="47.78998" lon="2.1325">
        <ele>122</ele>
        <time>2017-01-15T08:06:26.647Z</time>
      </trkpt>
      <trkpt lat="47.78987" lon="2.1325">
        <ele>122</ele>
        <time>2017-01-15T08:06:27.629Z</time>
      </trkpt>
      <trkpt lat="47.78987" lon="2.1325">
        <ele>122</ele>
        <time>2017-01-15T08:06:28.659Z</time>
      </trkpt>
      <trkpt lat="47.78976" lon="2.13251">
        <ele>122</ele>
        <time>2017-01-15T08:06:29.654Z</time>
      </trkpt>
      <trkpt lat="47.78976" lon="2.13251">
        <ele>122</ele>
        <time>2017-01-15T08:06:30.649Z</time>
      </trkpt>
      <trkpt lat="47.78965" lon="2.13251">
        <ele>122</ele>
        <time>2017-01-15T08:06:31.652Z</time>
      </trkpt>
      <trkpt lat="47.78965" lon="2.13251">
        <ele>122</ele>
        <time>2017-01-15T08:06:32.648Z</time>
      </trkpt>
      <trkpt lat="47.78954" lon="2.13251">
        <ele>122</ele>
        <time>2017-01-15T08:06:33.652Z</time>
      </trkpt>
      <trkpt lat="47.78949" lon="2.13251">
        <ele>122</ele>
        <time>2017-01-15T08:06:34.653Z</time>
      </trkpt>
      <trkpt lat="47.78943" lon="2.13251">
        <ele>121</ele>
        <time>2017-01-15T08:06:35.653Z</time>
      </trkpt>
      <trkpt lat="47.78943" lon="2.13251">
        <ele>121</ele>
        <time>2017-01-15T08:06:36.662Z</time>
      </trkpt>
      <trkpt lat="47.78932" lon="2.13251">
        <ele>121</ele>
        <time>2017-01-15T08:06:37.633Z</time>
      </trkpt>
      <trkpt lat="47.78926" lon="2.13251">
        <ele>121</ele>
        <time>2017-01-15T08:06:38.658Z</time>
      </trkpt>
      <trkpt lat="47.78921" lon="2.13251">
        <ele>121</ele>
        <time>2017-01-15T08:06:39.652Z</time>
      </trkpt>
      <trkpt lat="47.78921" lon="2.13251">
        <ele>121</ele>
        <time>2017-01-15T08:06:40.649Z</time>
      </trkpt>
      <trkpt lat="47.7891" lon="2.13252">
        <ele>121</ele>
        <time>2017-01-15T08:06:41.656Z</time>
      </trkpt>
      <trkpt lat="47.7891" lon="2.13252">
        <ele>121</ele>
        <time>2017-01-15T08:06:42.650Z</time>
      </trkpt>
      <trkpt lat="47.78899" lon="2.13252">
        <ele>121</ele>
        <time>2017-01-15T08:06:43.658Z</time>
      </trkpt>
      <trkpt lat="47.78899" lon="2.13252">
        <ele>121</ele>
        <time>2017-01-15T08:06:44.649Z</time>
      </trkpt>
      <trkpt lat="47.78889" lon="2.13252">
        <ele>121</ele>
        <time>2017-01-15T08:06:45.653Z</time>
      </trkpt>
      <trkpt lat="47.78889" lon="2.13252">
        <ele>121</ele>
        <time>2017-01-15T08:06:46.649Z</time>
      </trkpt>
      <trkpt lat="47.78878" lon="2.13252">
        <ele>121</ele>
        <time>2017-01-15T08:06:47.647Z</time>
      </trkpt>
      <trkpt lat="47.78873" lon="2.13252">
        <ele>121</ele>
        <time>2017-01-15T08:06:48.653Z</time>
      </trkpt>
      <trkpt lat="47.78873" lon="2.13252">
        <ele>121</ele>
        <time>2017-01-15T08:06:49.650Z</time>
      </trkpt>
      <trkpt lat="47.78862" lon="2.13252">
        <ele>121</ele>
        <time>2017-01-15T08:06:50.652Z</time>
      </trkpt>
      <trkpt lat="47.78857" lon="2.13252">
        <ele>121</ele>
        <time>2017-01-15T08:06:51.650Z</time>
      </trkpt>
      <trkpt lat="47.78857" lon="2.13252">
        <ele>121</ele>
        <time>2017-01-15T08:06:52.648Z</time>
      </trkpt>
      <trkpt lat="47.78847" lon="2.13252">
        <ele>121</ele>
        <time>2017-01-15T08:06:53.635Z</time>
      </trkpt>
      <trkpt lat="47.78847" lon="2.13252">
        <ele>121</ele>
        <time>2017-01-15T08:06:54.663Z</time>
      </trkpt>
      <trkpt lat="47.78836" lon="2.13252">
        <ele>121</ele>
        <time>2017-01-15T08:06:55.654Z</time>
      </trkpt>
      <trkpt lat="47.78836" lon="2.13252">
        <ele>121</ele>
        <time>2017-01-15T08:06:56.649Z</time>
      </trkpt>
      <trkpt lat="47.78826" lon="2.13252">
        <ele>122</ele>
        <time>2017-01-15T08:06:57.647Z</time>
      </trkpt>
      <trkpt lat="47.78821" lon="2.13252">
        <ele>122</ele>
        <time>2017-01-15T08:06:58.652Z</time>
      </trkpt>
      <trkpt lat="47.78816" lon="2.13253">
        <ele>122</ele>
        <time>2017-01-15T08:06:59.654Z</time>
      </trkpt>
      <trkpt lat="47.78816" lon="2.13253">
        <ele>122</ele>
        <time>2017-01-15T08:07:00.629Z</time>
      </trkpt>
      <trkpt lat="47.78805" lon="2.13253">
        <ele>122</ele>
        <time>2017-01-15T08:07:01.660Z</time>
      </trkpt>
      <trkpt lat="47.78805" lon="2.13253">
        <ele>122</ele>
        <time>2017-01-15T08:07:02.662Z</time>
      </trkpt>
      <trkpt lat="47.78795" lon="2.13253">
        <ele>122</ele>
        <time>2017-01-15T08:07:03.654Z</time>
      </trkpt>
      <trkpt lat="47.78795" lon="2.13253">
        <ele>122</ele>
        <time>2017-01-15T08:07:04.648Z</time>
      </trkpt>
      <trkpt lat="47.78784" lon="2.13253">
        <ele>122</ele>
        <time>2017-01-15T08:07:05.655Z</time>
      </trkpt>
      <trkpt lat="47.78784" lon="2.13253">
        <ele>122</ele>
        <time>2017-01-15T08:07:06.666Z</time>
      </trkpt>
      <trkpt lat="47.78774" lon="2.13254">
        <ele>122</ele>
        <time>2017-01-15T08:07:07.629Z</time>
      </trkpt>
      <trkpt lat="47.78774" lon="2.13254">
        <ele>122</ele>
        <time>2017-01-15T08:07:08.664Z</time>
      </trkpt>
      <trkpt lat="47.78764" lon="2.13254">
        <ele>122</ele>
        <time>2017-01-15T08:07:09.652Z</time>
      </trkpt>
      <trkpt lat="47.78758" lon="2.13254">
        <ele>122</ele>
        <time>2017-01-15T08:07:10.653Z</time>
      </trkpt>
      <trkpt lat="47.78753" lon="2.13254">
        <ele>122</ele>
        <time>2017-01-15T08:07:11.654Z</time>
      </trkpt>
      <trkpt lat="47.78753" lon="2.13254">
        <ele>122</ele>
        <time>2017-01-15T08:07:12.650Z</time>
      </trkpt>
      <trkpt lat="47.78743" lon="2.13254">
        <ele>122</ele>
        <time>2017-01-15T08:07:13.653Z</time>
      </trkpt>
      <trkpt lat="47.78743" lon="2.13254">
        <ele>122</ele>
        <time>2017-01-15T08:07:14.647Z</time>
      </trkpt>
      <trkpt lat="47.78733" lon="2.13254">
        <ele>122</ele>
        <time>2017-01-15T08:07:15.652Z</time>
      </trkpt>
      <trkpt lat="47.78733" lon="2.13254">
        <ele>122</ele>
        <time>2017-01-15T08:07:16.663Z</time>
      </trkpt>
      <trkpt lat="47.78722" lon="2.13254">
        <ele>122</ele>
        <time>2017-01-15T08:07:17.666Z</time>
      </trkpt>
      <trkpt lat="47.78722" lon="2.13254">
        <ele>122</ele>
        <time>2017-01-15T08:07:18.648Z</time>
      </trkpt>
      <trkpt lat="47.78712" lon="2.13254">
        <ele>122</ele>
        <time>2017-01-15T08:07:19.654Z</time>
      </trkpt>
      <trkpt lat="47.78712" lon="2.13254">
        <ele>122</ele>
        <time>2017-01-15T08:07:20.651Z</time>
      </trkpt>
      <trkpt lat="47.78701" lon="2.13254">
        <ele>122</ele>
        <time>2017-01-15T08:07:21.657Z</time>
      </trkpt>
      <trkpt lat="47.78696" lon="2.13254">
        <ele>122</ele>
        <time>2017-01-15T08:07:22.655Z</time>
      </trkpt>
      <trkpt lat="47.78691" lon="2.13254">
        <ele>122</ele>
        <time>2017-01-15T08:07:23.656Z</time>
      </trkpt>
      <trkpt lat="47.78691" lon="2.13254">
        <ele>122</ele>
        <time>2017-01-15T08:07:24.651Z</time>
      </trkpt>
      <trkpt lat="47.78681" lon="2.13254">
        <ele>122</ele>
        <time>2017-01-15T08:07:25.654Z</time>
      </trkpt>
      <trkpt lat="47.78681" lon="2.13254">
        <ele>122</ele>
        <time>2017-01-15T08:07:26.650Z</time>
      </trkpt>
      <trkpt lat="47.7867" lon="2.13254">
        <ele>122</ele>
        <time>2017-01-15T08:07:27.653Z</time>
      </trkpt>
      <trkpt lat="47.7867" lon="2.13254">
        <ele>122</ele>
        <time>2017-01-15T08:07:28.649Z</time>
      </trkpt>
      <trkpt lat="47.7866" lon="2.13254">
        <ele>122</ele>
        <time>2017-01-15T08:07:29.655Z</time>
      </trkpt>
      <trkpt lat="47.7866" lon="2.13254">
        <ele>122</ele>
        <time>2017-01-15T08:07:30.650Z</time>
      </trkpt>
      <trkpt lat="47.7865" lon="2.13254">
        <ele>122</ele>
        <time>2017-01-15T08:07:31.653Z</time>
      </trkpt>
      <trkpt lat="47.78645" lon="2.13254">
        <ele>122</ele>
        <time>2017-01-15T08:07:32.663Z</time>
      </trkpt>
      <trkpt lat="47.78645" lon="2.13254">
        <ele>122</ele>
        <time>2017-01-15T08:07:33.650Z</time>
      </trkpt>
      <trkpt lat="47.78635" lon="2.13254">
        <ele>123</ele>
        <time>2017-01-15T08:07:34.653Z</time>
      </trkpt>
      <trkpt lat="47.78629" lon="2.13254">
        <ele>123</ele>
        <time>2017-01-15T08:07:35.654Z</time>
      </trkpt>
      <trkpt lat="47.78629" lon="2.13254">
        <ele>123</ele>
        <time>2017-01-15T08:07:36.647Z</time>
      </trkpt>
      <trkpt lat="47.78619" lon="2.13254">
        <ele>123</ele>
        <time>2017-01-15T08:07:37.656Z</time>
      </trkpt>
      <trkpt lat="47.78614" lon="2.13253">
        <ele>123</ele>
        <time>2017-01-15T08:07:38.653Z</time>
      </trkpt>
      <trkpt lat="47.78614" lon="2.13253">
        <ele>123</ele>
        <time>2017-01-15T08:07:39.662Z</time>
      </trkpt>
      <trkpt lat="47.78603" lon="2.13252">
        <ele>123</ele>
        <time>2017-01-15T08:07:40.653Z</time>
      </trkpt>
      <trkpt lat="47.78598" lon="2.13252">
        <ele>123</ele>
        <time>2017-01-15T08:07:41.654Z</time>
      </trkpt>
      <trkpt lat="47.78598" lon="2.13252">
        <ele>123</ele>
        <time>2017-01-15T08:07:42.651Z</time>
      </trkpt>
      <trkpt lat="47.78588" lon="2.13251">
        <ele>123</ele>
        <time>2017-01-15T08:07:43.653Z</time>
      </trkpt>
      <trkpt lat="47.78588" lon="2.13251">
        <ele>123</ele>
        <time>2017-01-15T08:07:44.651Z</time>
      </trkpt>
      <trkpt lat="47.78578" lon="2.13249">
        <ele>123</ele>
        <time>2017-01-15T08:07:45.654Z</time>
      </trkpt>
      <trkpt lat="47.78578" lon="2.13249">
        <ele>123</ele>
        <time>2017-01-15T08:07:46.656Z</time>
      </trkpt>
      <trkpt lat="47.78568" lon="2.13247">
        <ele>123</ele>
        <time>2017-01-15T08:07:47.654Z</time>
      </trkpt>
      <trkpt lat="47.78568" lon="2.13247">
        <ele>123</ele>
        <time>2017-01-15T08:07:48.662Z</time>
      </trkpt>
      <trkpt lat="47.78558" lon="2.13245">
        <ele>123</ele>
        <time>2017-01-15T08:07:49.654Z</time>
      </trkpt>
      <trkpt lat="47.78558" lon="2.13245">
        <ele>123</ele>
        <time>2017-01-15T08:07:50.650Z</time>
      </trkpt>
      <trkpt lat="47.78548" lon="2.13244">
        <ele>124</ele>
        <time>2017-01-15T08:07:51.653Z</time>
      </trkpt>
      <trkpt lat="47.78548" lon="2.13244">
        <ele>124</ele>
        <time>2017-01-15T08:07:52.666Z</time>
      </trkpt>
      <trkpt lat="47.78538" lon="2.13242">
        <ele>124</ele>
        <time>2017-01-15T08:07:53.653Z</time>
      </trkpt>
      <trkpt lat="47.78538" lon="2.13242">
        <ele>124</ele>
        <time>2017-01-15T08:07:54.651Z</time>
      </trkpt>
      <trkpt lat="47.78528" lon="2.1324">
        <ele>124</ele>
        <time>2017-01-15T08:07:55.650Z</time>
      </trkpt>
      <trkpt lat="47.78528" lon="2.1324">
        <ele>124</ele>
        <time>2017-01-15T08:07:56.645Z</time>
      </trkpt>
      <trkpt lat="47.78518" lon="2.13238">
        <ele>124</ele>
        <time>2017-01-15T08:07:57.652Z</time>
      </trkpt>
      <trkpt lat="47.78518" lon="2.13238">
        <ele>124</ele>
        <time>2017-01-15T08:07:58.650Z</time>
      </trkpt>
      <trkpt lat="47.78508" lon="2.13236">
        <ele>124</ele>
        <time>2017-01-15T08:07:59.651Z</time>
      </trkpt>
      <trkpt lat="47.78508" lon="2.13236">
        <ele>124</ele>
        <time>2017-01-15T08:08:00.647Z</time>
      </trkpt>
      <trkpt lat="47.78498" lon="2.13234">
        <ele>124</ele>
        <time>2017-01-15T08:08:01.630Z</time>
      </trkpt>
      <trkpt lat="47.78498" lon="2.13234">
        <ele>124</ele>
        <time>2017-01-15T08:08:02.660Z</time>
      </trkpt>
      <trkpt lat="47.78488" lon="2.13232">
        <ele>124</ele>
        <time>2017-01-15T08:08:03.654Z</time>
      </trkpt>
      <trkpt lat="47.78488" lon="2.13232">
        <ele>124</ele>
        <time>2017-01-15T08:08:04.646Z</time>
      </trkpt>
      <trkpt lat="47.78477" lon="2.13231">
        <ele>124</ele>
        <time>2017-01-15T08:08:05.654Z</time>
      </trkpt>
      <trkpt lat="47.78477" lon="2.13231">
        <ele>124</ele>
        <time>2017-01-15T08:08:06.663Z</time>
      </trkpt>
      <trkpt lat="47.78467" lon="2.13229">
        <ele>124</ele>
        <time>2017-01-15T08:08:07.655Z</time>
      </trkpt>
      <trkpt lat="47.78467" lon="2.13229">
        <ele>124</ele>
        <time>2017-01-15T08:08:08.651Z</time>
      </trkpt>
      <trkpt lat="47.78457" lon="2.13227">
        <ele>125</ele>
        <time>2017-01-15T08:08:09.653Z</time>
      </trkpt>
      <trkpt lat="47.78452" lon="2.13226">
        <ele>125</ele>
        <time>2017-01-15T08:08:10.654Z</time>
      </trkpt>
      <trkpt lat="47.78452" lon="2.13226">
        <ele>125</ele>
        <time>2017-01-15T08:08:11.652Z</time>
      </trkpt>
      <trkpt lat="47.78441" lon="2.13225">
        <ele>125</ele>
        <time>2017-01-15T08:08:12.653Z</time>
      </trkpt>
      <trkpt lat="47.78436" lon="2.13224">
        <ele>125</ele>
        <time>2017-01-15T08:08:13.651Z</time>
      </trkpt>
      <trkpt lat="47.78436" lon="2.13224">
        <ele>125</ele>
        <time>2017-01-15T08:08:14.653Z</time>
      </trkpt>
      <trkpt lat="47.78426" lon="2.13222">
        <ele>125</ele>
        <time>2017-01-15T08:08:15.653Z</time>
      </trkpt>
      <trkpt lat="47.78426" lon="2.13222">
        <ele>125</ele>
        <time>2017-01-15T08:08:16.647Z</time>
      </trkpt>
      <trkpt lat="47.78416" lon="2.13221">
        <ele>125</ele>
        <time>2017-01-15T08:08:17.654Z</time>
      </trkpt>
      <trkpt lat="47.78416" lon="2.13221">
        <ele>125</ele>
        <time>2017-01-15T08:08:18.653Z</time>
      </trkpt>
      <trkpt lat="47.78405" lon="2.13219">
        <ele>125</ele>
        <time>2017-01-15T08:08:19.653Z</time>
      </trkpt>
      <trkpt lat="47.784" lon="2.13218">
        <ele>125</ele>
        <time>2017-01-15T08:08:20.653Z</time>
      </trkpt>
      <trkpt lat="47.784" lon="2.13218">
        <ele>125</ele>
        <time>2017-01-15T08:08:21.648Z</time>
      </trkpt>
      <trkpt lat="47.7839" lon="2.13216">
        <ele>125</ele>
        <time>2017-01-15T08:08:22.653Z</time>
      </trkpt>
      <trkpt lat="47.78385" lon="2.13215">
        <ele>125</ele>
        <time>2017-01-15T08:08:23.654Z</time>
      </trkpt>
      <trkpt lat="47.78385" lon="2.13215">
        <ele>125</ele>
        <time>2017-01-15T08:08:24.650Z</time>
      </trkpt>
      <trkpt lat="47.78375" lon="2.13214">
        <ele>125</ele>
        <time>2017-01-15T08:08:25.652Z</time>
      </trkpt>
      <trkpt lat="47.78375" lon="2.13214">
        <ele>125</ele>
        <time>2017-01-15T08:08:26.647Z</time>
      </trkpt>
      <trkpt lat="47.78364" lon="2.13212">
        <ele>126</ele>
        <time>2017-01-15T08:08:27.653Z</time>
      </trkpt>
      <trkpt lat="47.78364" lon="2.13212">
        <ele>126</ele>
        <time>2017-01-15T08:08:28.654Z</time>
      </trkpt>
      <trkpt lat="47.78354" lon="2.1321">
        <ele>125</ele>
        <time>2017-01-15T08:08:29.651Z</time>
      </trkpt>
      <trkpt lat="47.78354" lon="2.1321">
        <ele>125</ele>
        <time>2017-01-15T08:08:30.648Z</time>
      </trkpt>
      <trkpt lat="47.78343" lon="2.13209">
        <ele>126</ele>
        <time>2017-01-15T08:08:31.653Z</time>
      </trkpt>
      <trkpt lat="47.78343" lon="2.13209">
        <ele>126</ele>
        <time>2017-01-15T08:08:32.650Z</time>
      </trkpt>
      <trkpt lat="47.78333" lon="2.13207">
        <ele>126</ele>
        <time>2017-01-15T08:08:33.653Z</time>
      </trkpt>
      <trkpt lat="47.78333" lon="2.13207">
        <ele>126</ele>
        <time>2017-01-15T08:08:34.647Z</time>
      </trkpt>
      <trkpt lat="47.78323" lon="2.13205">
        <ele>126</ele>
        <time>2017-01-15T08:08:35.654Z</time>
      </trkpt>
      <trkpt lat="47.78323" lon="2.13205">
        <ele>126</ele>
        <time>2017-01-15T08:08:36.664Z</time>
      </trkpt>
      <trkpt lat="47.78312" lon="2.13204">
        <ele>126</ele>
        <time>2017-01-15T08:08:37.654Z</time>
      </trkpt>
      <trkpt lat="47.78312" lon="2.13204">
        <ele>126</ele>
        <time>2017-01-15T08:08:38.651Z</time>
      </trkpt>
      <trkpt lat="47.78302" lon="2.13202">
        <ele>126</ele>
        <time>2017-01-15T08:08:39.653Z</time>
      </trkpt>
      <trkpt lat="47.78302" lon="2.13202">
        <ele>126</ele>
        <time>2017-01-15T08:08:40.656Z</time>
      </trkpt>
      <trkpt lat="47.78291" lon="2.132">
        <ele>126</ele>
        <time>2017-01-15T08:08:41.655Z</time>
      </trkpt>
      <trkpt lat="47.78291" lon="2.132">
        <ele>126</ele>
        <time>2017-01-15T08:08:42.651Z</time>
      </trkpt>
      <trkpt lat="47.78281" lon="2.13198">
        <ele>126</ele>
        <time>2017-01-15T08:08:43.654Z</time>
      </trkpt>
      <trkpt lat="47.78281" lon="2.13198">
        <ele>126</ele>
        <time>2017-01-15T08:08:44.648Z</time>
      </trkpt>
      <trkpt lat="47.7827" lon="2.13197">
        <ele>126</ele>
        <time>2017-01-15T08:08:45.653Z</time>
      </trkpt>
      <trkpt lat="47.7827" lon="2.13197">
        <ele>126</ele>
        <time>2017-01-15T08:08:46.654Z</time>
      </trkpt>
      <trkpt lat="47.7826" lon="2.13195">
        <ele>127</ele>
        <time>2017-01-15T08:08:47.656Z</time>
      </trkpt>
      <trkpt lat="47.7826" lon="2.13195">
        <ele>127</ele>
        <time>2017-01-15T08:08:48.648Z</time>
      </trkpt>
      <trkpt lat="47.78249" lon="2.13193">
        <ele>127</ele>
        <time>2017-01-15T08:08:49.653Z</time>
      </trkpt>
      <trkpt lat="47.78244" lon="2.13192">
        <ele>127</ele>
        <time>2017-01-15T08:08:50.656Z</time>
      </trkpt>
      <trkpt lat="47.78244" lon="2.13192">
        <ele>127</ele>
        <time>2017-01-15T08:08:51.651Z</time>
      </trkpt>
      <trkpt lat="47.78234" lon="2.13191">
        <ele>127</ele>
        <time>2017-01-15T08:08:52.664Z</time>
      </trkpt>
      <trkpt lat="47.78229" lon="2.1319">
        <ele>127</ele>
        <time>2017-01-15T08:08:53.653Z</time>
      </trkpt>
      <trkpt lat="47.78229" lon="2.1319">
        <ele>127</ele>
        <time>2017-01-15T08:08:54.648Z</time>
      </trkpt>
      <trkpt lat="47.78219" lon="2.13188">
        <ele>127</ele>
        <time>2017-01-15T08:08:55.653Z</time>
      </trkpt>
      <trkpt lat="47.78219" lon="2.13188">
        <ele>127</ele>
        <time>2017-01-15T08:08:56.662Z</time>
      </trkpt>
      <trkpt lat="47.78208" lon="2.13186">
        <ele>127</ele>
        <time>2017-01-15T08:08:57.654Z</time>
      </trkpt>
      <trkpt lat="47.78203" lon="2.13186">
        <ele>127</ele>
        <time>2017-01-15T08:08:58.651Z</time>
      </trkpt>
      <trkpt lat="47.78198" lon="2.13185">
        <ele>127</ele>
        <time>2017-01-15T08:08:59.653Z</time>
      </trkpt>
      <trkpt lat="47.78198" lon="2.13185">
        <ele>127</ele>
        <time>2017-01-15T08:09:00.650Z</time>
      </trkpt>
      <trkpt lat="47.78188" lon="2.13183">
        <ele>127</ele>
        <time>2017-01-15T08:09:01.653Z</time>
      </trkpt>
      <trkpt lat="47.78188" lon="2.13183">
        <ele>127</ele>
        <time>2017-01-15T08:09:02.634Z</time>
      </trkpt>
      <trkpt lat="47.78177" lon="2.13182">
        <ele>127</ele>
        <time>2017-01-15T08:09:03.663Z</time>
      </trkpt>
      <trkpt lat="47.78177" lon="2.13182">
        <ele>127</ele>
        <time>2017-01-15T08:09:04.651Z</time>
      </trkpt>
      <trkpt lat="47.78167" lon="2.1318">
        <ele>127</ele>
        <time>2017-01-15T08:09:05.655Z</time>
      </trkpt>
      <trkpt lat="47.78167" lon="2.1318">
        <ele>127</ele>
        <time>2017-01-15T08:09:06.664Z</time>
      </trkpt>
      <trkpt lat="47.78156" lon="2.13178">
        <ele>127</ele>
        <time>2017-01-15T08:09:07.657Z</time>
      </trkpt>
      <trkpt lat="47.78156" lon="2.13178">
        <ele>127</ele>
        <time>2017-01-15T08:09:08.648Z</time>
      </trkpt>
      <trkpt lat="47.78145" lon="2.13176">
        <ele>127</ele>
        <time>2017-01-15T08:09:09.653Z</time>
      </trkpt>
      <trkpt lat="47.78145" lon="2.13176">
        <ele>127</ele>
        <time>2017-01-15T08:09:10.650Z</time>
      </trkpt>
      <trkpt lat="47.78135" lon="2.13175">
        <ele>127</ele>
        <time>2017-01-15T08:09:11.655Z</time>
      </trkpt>
      <trkpt lat="47.78135" lon="2.13175">
        <ele>127</ele>
        <time>2017-01-15T08:09:12.650Z</time>
      </trkpt>
      <trkpt lat="47.78124" lon="2.13173">
        <ele>127</ele>
        <time>2017-01-15T08:09:13.650Z</time>
      </trkpt>
      <trkpt lat="47.78124" lon="2.13173">
        <ele>127</ele>
        <time>2017-01-15T08:09:14.654Z</time>
      </trkpt>
      <trkpt lat="47.78114" lon="2.13171">
        <ele>127</ele>
        <time>2017-01-15T08:09:15.654Z</time>
      </trkpt>
      <trkpt lat="47.78108" lon="2.1317">
        <ele>127</ele>
        <time>2017-01-15T08:09:16.659Z</time>
      </trkpt>
      <trkpt lat="47.78108" lon="2.1317">
        <ele>127</ele>
        <time>2017-01-15T08:09:17.652Z</time>
      </trkpt>
      <trkpt lat="47.78098" lon="2.13168">
        <ele>127</ele>
        <time>2017-01-15T08:09:18.653Z</time>
      </trkpt>
      <trkpt lat="47.78098" lon="2.13168">
        <ele>127</ele>
        <time>2017-01-15T08:09:19.648Z</time>
      </trkpt>
      <trkpt lat="47.78088" lon="2.13166">
        <ele>127</ele>
        <time>2017-01-15T08:09:20.656Z</time>
      </trkpt>
      <trkpt lat="47.78088" lon="2.13166">
        <ele>127</ele>
        <time>2017-01-15T08:09:21.650Z</time>
      </trkpt>
      <trkpt lat="47.78077" lon="2.13164">
        <ele>127</ele>
        <time>2017-01-15T08:09:22.658Z</time>
      </trkpt>
      <trkpt lat="47.78072" lon="2.13163">
        <ele>127</ele>
        <time>2017-01-15T08:09:23.656Z</time>
      </trkpt>
      <trkpt lat="47.78072" lon="2.13163">
        <ele>127</ele>
        <time>2017-01-15T08:09:24.648Z</time>
      </trkpt>
      <trkpt lat="47.78062" lon="2.13162">
        <ele>127</ele>
        <time>2017-01-15T08:09:25.653Z</time>
      </trkpt>
      <trkpt lat="47.78062" lon="2.13162">
        <ele>127</ele>
        <time>2017-01-15T08:09:26.651Z</time>
      </trkpt>
      <trkpt lat="47.78052" lon="2.1316">
        <ele>127</ele>
        <time>2017-01-15T08:09:27.653Z</time>
      </trkpt>
      <trkpt lat="47.78047" lon="2.13159">
        <ele>127</ele>
        <time>2017-01-15T08:09:28.651Z</time>
      </trkpt>
      <trkpt lat="47.78042" lon="2.13158">
        <ele>127</ele>
        <time>2017-01-15T08:09:29.652Z</time>
      </trkpt>
      <trkpt lat="47.78042" lon="2.13158">
        <ele>127</ele>
        <time>2017-01-15T08:09:30.651Z</time>
      </trkpt>
      <trkpt lat="47.78031" lon="2.13157">
        <ele>127</ele>
        <time>2017-01-15T08:09:31.654Z</time>
      </trkpt>
      <trkpt lat="47.78031" lon="2.13157">
        <ele>127</ele>
        <time>2017-01-15T08:09:32.651Z</time>
      </trkpt>
      <trkpt lat="47.78021" lon="2.13155">
        <ele>127</ele>
        <time>2017-01-15T08:09:33.654Z</time>
      </trkpt>
      <trkpt lat="47.78021" lon="2.13155">
        <ele>127</ele>
        <time>2017-01-15T08:09:34.650Z</time>
      </trkpt>
      <trkpt lat="47.7801" lon="2.13153">
        <ele>127</ele>
        <time>2017-01-15T08:09:35.655Z</time>
      </trkpt>
      <trkpt lat="47.7801" lon="2.13153">
        <ele>127</ele>
        <time>2017-01-15T08:09:36.664Z</time>
      </trkpt>
      <trkpt lat="47.78" lon="2.13151">
        <ele>128</ele>
        <time>2017-01-15T08:09:37.654Z</time>
      </trkpt>
      <trkpt lat="47.78" lon="2.13151">
        <ele>128</ele>
        <time>2017-01-15T08:09:38.650Z</time>
      </trkpt>
      <trkpt lat="47.77989" lon="2.13149">
        <ele>128</ele>
        <time>2017-01-15T08:09:39.653Z</time>
      </trkpt>
      <trkpt lat="47.77989" lon="2.13149">
        <ele>128</ele>
        <time>2017-01-15T08:09:40.651Z</time>
      </trkpt>
      <trkpt lat="47.77978" lon="2.13148">
        <ele>128</ele>
        <time>2017-01-15T08:09:41.656Z</time>
      </trkpt>
      <trkpt lat="47.77978" lon="2.13148">
        <ele>128</ele>
        <time>2017-01-15T08:09:42.638Z</time>
      </trkpt>
      <trkpt lat="47.77967" lon="2.13146">
        <ele>128</ele>
        <time>2017-01-15T08:09:43.630Z</time>
      </trkpt>
      <trkpt lat="47.77962" lon="2.13145">
        <ele>128</ele>
        <time>2017-01-15T08:09:44.660Z</time>
      </trkpt>
      <trkpt lat="47.77962" lon="2.13145">
        <ele>128</ele>
        <time>2017-01-15T08:09:45.649Z</time>
      </trkpt>
      <trkpt lat="47.77951" lon="2.13143">
        <ele>128</ele>
        <time>2017-01-15T08:09:46.659Z</time>
      </trkpt>
      <trkpt lat="47.77945" lon="2.13142">
        <ele>128</ele>
        <time>2017-01-15T08:09:47.656Z</time>
      </trkpt>
      <trkpt lat="47.77945" lon="2.13142">
        <ele>128</ele>
        <time>2017-01-15T08:09:48.651Z</time>
      </trkpt>
      <trkpt lat="47.77934" lon="2.13141">
        <ele>128</ele>
        <time>2017-01-15T08:09:49.665Z</time>
      </trkpt>
      <trkpt lat="47.77934" lon="2.13141">
        <ele>128</ele>
        <time>2017-01-15T08:09:50.653Z</time>
      </trkpt>
      <trkpt lat="47.77923" lon="2.13139">
        <ele>129</ele>
        <time>2017-01-15T08:09:51.653Z</time>
      </trkpt>
      <trkpt lat="47.77923" lon="2.13139">
        <ele>129</ele>
        <time>2017-01-15T08:09:52.665Z</time>
      </trkpt>
      <trkpt lat="47.77912" lon="2.13138">
        <ele>129</ele>
        <time>2017-01-15T08:09:53.654Z</time>
      </trkpt>
      <trkpt lat="47.77912" lon="2.13138">
        <ele>129</ele>
        <time>2017-01-15T08:09:54.651Z</time>
      </trkpt>
      <trkpt lat="47.77901" lon="2.13136">
        <ele>129</ele>
        <time>2017-01-15T08:09:55.636Z</time>
      </trkpt>
      <trkpt lat="47.77901" lon="2.13136">
        <ele>129</ele>
        <time>2017-01-15T08:09:56.663Z</time>
      </trkpt>
      <trkpt lat="47.7789" lon="2.13134">
        <ele>129</ele>
        <time>2017-01-15T08:09:57.651Z</time>
      </trkpt>
      <trkpt lat="47.7789" lon="2.13134">
        <ele>129</ele>
        <time>2017-01-15T08:09:58.650Z</time>
      </trkpt>
      <trkpt lat="47.77879" lon="2.13132">
        <ele>129</ele>
        <time>2017-01-15T08:09:59.646Z</time>
      </trkpt>
      <trkpt lat="47.77873" lon="2.13131">
        <ele>128</ele>
        <time>2017-01-15T08:10:00.652Z</time>
      </trkpt>
      <trkpt lat="47.77873" lon="2.13131">
        <ele>128</ele>
        <time>2017-01-15T08:10:01.648Z</time>
      </trkpt>
      <trkpt lat="47.77862" lon="2.13129">
        <ele>129</ele>
        <time>2017-01-15T08:10:02.653Z</time>
      </trkpt>
      <trkpt lat="47.77857" lon="2.13128">
        <ele>129</ele>
        <time>2017-01-15T08:10:03.654Z</time>
      </trkpt>
      <trkpt lat="47.77857" lon="2.13128">
        <ele>129</ele>
        <time>2017-01-15T08:10:04.651Z</time>
      </trkpt>
      <trkpt lat="47.77846" lon="2.13126">
        <ele>128</ele>
        <time>2017-01-15T08:10:05.659Z</time>
      </trkpt>
      <trkpt lat="47.77846" lon="2.13126">
        <ele>128</ele>
        <time>2017-01-15T08:10:06.657Z</time>
      </trkpt>
      <trkpt lat="47.77835" lon="2.13124">
        <ele>128</ele>
        <time>2017-01-15T08:10:07.654Z</time>
      </trkpt>
      <trkpt lat="47.77835" lon="2.13124">
        <ele>128</ele>
        <time>2017-01-15T08:10:08.651Z</time>
      </trkpt>
      <trkpt lat="47.77824" lon="2.13123">
        <ele>128</ele>
        <time>2017-01-15T08:10:09.653Z</time>
      </trkpt>
      <trkpt lat="47.77819" lon="2.13122">
        <ele>129</ele>
        <time>2017-01-15T08:10:10.651Z</time>
      </trkpt>
      <trkpt lat="47.77814" lon="2.13121">
        <ele>129</ele>
        <time>2017-01-15T08:10:11.657Z</time>
      </trkpt>
      <trkpt lat="47.77814" lon="2.13121">
        <ele>129</ele>
        <time>2017-01-15T08:10:12.652Z</time>
      </trkpt>
      <trkpt lat="47.77803" lon="2.13119">
        <ele>128</ele>
        <time>2017-01-15T08:10:13.655Z</time>
      </trkpt>
      <trkpt lat="47.77803" lon="2.13119">
        <ele>128</ele>
        <time>2017-01-15T08:10:14.649Z</time>
      </trkpt>
      <trkpt lat="47.77792" lon="2.13119">
        <ele>128</ele>
        <time>2017-01-15T08:10:15.653Z</time>
      </trkpt>
      <trkpt lat="47.77792" lon="2.13119">
        <ele>128</ele>
        <time>2017-01-15T08:10:16.664Z</time>
      </trkpt>
      <trkpt lat="47.77782" lon="2.13117">
        <ele>128</ele>
        <time>2017-01-15T08:10:17.655Z</time>
      </trkpt>
      <trkpt lat="47.77777" lon="2.13116">
        <ele>128</ele>
        <time>2017-01-15T08:10:18.653Z</time>
      </trkpt>
      <trkpt lat="47.77777" lon="2.13116">
        <ele>128</ele>
        <time>2017-01-15T08:10:19.651Z</time>
      </trkpt>
      <trkpt lat="47.77766" lon="2.13115">
        <ele>128</ele>
        <time>2017-01-15T08:10:20.653Z</time>
      </trkpt>
      <trkpt lat="47.77766" lon="2.13115">
        <ele>128</ele>
        <time>2017-01-15T08:10:21.642Z</time>
      </trkpt>
      <trkpt lat="47.77755" lon="2.13113">
        <ele>128</ele>
        <time>2017-01-15T08:10:22.651Z</time>
      </trkpt>
      <trkpt lat="47.77755" lon="2.13113">
        <ele>128</ele>
        <time>2017-01-15T08:10:23.664Z</time>
      </trkpt>
      <trkpt lat="47.77744" lon="2.13111">
        <ele>127</ele>
        <time>2017-01-15T08:10:24.654Z</time>
      </trkpt>
      <trkpt lat="47.77744" lon="2.13111">
        <ele>127</ele>
        <time>2017-01-15T08:10:25.651Z</time>
      </trkpt>
      <trkpt lat="47.77734" lon="2.1311">
        <ele>127</ele>
        <time>2017-01-15T08:10:26.661Z</time>
      </trkpt>
      <trkpt lat="47.77728" lon="2.13109">
        <ele>127</ele>
        <time>2017-01-15T08:10:27.654Z</time>
      </trkpt>
      <trkpt lat="47.77728" lon="2.13109">
        <ele>127</ele>
        <time>2017-01-15T08:10:28.651Z</time>
      </trkpt>
      <trkpt lat="47.77718" lon="2.13107">
        <ele>128</ele>
        <time>2017-01-15T08:10:29.655Z</time>
      </trkpt>
      <trkpt lat="47.77718" lon="2.13107">
        <ele>128</ele>
        <time>2017-01-15T08:10:30.649Z</time>
      </trkpt>
      <trkpt lat="47.77707" lon="2.13106">
        <ele>128</ele>
        <time>2017-01-15T08:10:31.654Z</time>
      </trkpt>
      <trkpt lat="47.77707" lon="2.13106">
        <ele>128</ele>
        <time>2017-01-15T08:10:32.652Z</time>
      </trkpt>
      <trkpt lat="47.77696" lon="2.13105">
        <ele>128</ele>
        <time>2017-01-15T08:10:33.654Z</time>
      </trkpt>
      <trkpt lat="47.77696" lon="2.13105">
        <ele>128</ele>
        <time>2017-01-15T08:10:34.654Z</time>
      </trkpt>
      <trkpt lat="47.77684" lon="2.13105">
        <ele>128</ele>
        <time>2017-01-15T08:10:35.655Z</time>
      </trkpt>
      <trkpt lat="47.77684" lon="2.13105">
        <ele>128</ele>
        <time>2017-01-15T08:10:36.657Z</time>
      </trkpt>
      <trkpt lat="47.77673" lon="2.13102">
        <ele>128</ele>
        <time>2017-01-15T08:10:37.653Z</time>
      </trkpt>
      <trkpt lat="47.77673" lon="2.13102">
        <ele>128</ele>
        <time>2017-01-15T08:10:38.651Z</time>
      </trkpt>
      <trkpt lat="47.77662" lon="2.13102">
        <ele>128</ele>
        <time>2017-01-15T08:10:39.653Z</time>
      </trkpt>
      <trkpt lat="47.77657" lon="2.13101">
        <ele>129</ele>
        <time>2017-01-15T08:10:40.654Z</time>
      </trkpt>
      <trkpt lat="47.77651" lon="2.131">
        <ele>129</ele>
        <time>2017-01-15T08:10:41.655Z</time>
      </trkpt>
      <trkpt lat="47.77651" lon="2.131">
        <ele>129</ele>
        <time>2017-01-15T08:10:42.651Z</time>
      </trkpt>
      <trkpt lat="47.7764" lon="2.13099">
        <ele>129</ele>
        <time>2017-01-15T08:10:43.662Z</time>
      </trkpt>
      <trkpt lat="47.7764" lon="2.13099">
        <ele>129</ele>
        <time>2017-01-15T08:10:44.652Z</time>
      </trkpt>
      <trkpt lat="47.77628" lon="2.13098">
        <ele>129</ele>
        <time>2017-01-15T08:10:45.654Z</time>
      </trkpt>
      <trkpt lat="47.77628" lon="2.13098">
        <ele>129</ele>
        <time>2017-01-15T08:10:46.664Z</time>
      </trkpt>
      <trkpt lat="47.77616" lon="2.13095">
        <ele>130</ele>
        <time>2017-01-15T08:10:47.664Z</time>
      </trkpt>
      <trkpt lat="47.77616" lon="2.13095">
        <ele>130</ele>
        <time>2017-01-15T08:10:48.654Z</time>
      </trkpt>
      <trkpt lat="47.77605" lon="2.13092">
        <ele>131</ele>
        <time>2017-01-15T08:10:49.653Z</time>
      </trkpt>
      <trkpt lat="47.77605" lon="2.13092">
        <ele>131</ele>
        <time>2017-01-15T08:10:50.651Z</time>
      </trkpt>
      <trkpt lat="47.77594" lon="2.13087">
        <ele>132</ele>
        <time>2017-01-15T08:10:51.654Z</time>
      </trkpt>
      <trkpt lat="47.77594" lon="2.13087">
        <ele>132</ele>
        <time>2017-01-15T08:10:52.662Z</time>
      </trkpt>
      <trkpt lat="47.77583" lon="2.13086">
        <ele>133</ele>
        <time>2017-01-15T08:10:53.655Z</time>
      </trkpt>
      <trkpt lat="47.77577" lon="2.13085">
        <ele>133</ele>
        <time>2017-01-15T08:10:54.654Z</time>
      </trkpt>
      <trkpt lat="47.77577" lon="2.13085">
        <ele>133</ele>
        <time>2017-01-15T08:10:55.651Z</time>
      </trkpt>
      <trkpt lat="47.77566" lon="2.13084">
        <ele>133</ele>
        <time>2017-01-15T08:10:56.662Z</time>
      </trkpt>
      <trkpt lat="47.77566" lon="2.13084">
        <ele>133</ele>
        <time>2017-01-15T08:10:57.651Z</time>
      </trkpt>
      <trkpt lat="47.77555" lon="2.13083">
        <ele>133</ele>
        <time>2017-01-15T08:10:58.654Z</time>
      </trkpt>
      <trkpt lat="47.7755" lon="2.13082">
        <ele>132</ele>
        <time>2017-01-15T08:10:59.655Z</time>
      </trkpt>
      <trkpt lat="47.7755" lon="2.13082">
        <ele>132</ele>
        <time>2017-01-15T08:11:00.652Z</time>
      </trkpt>
      <trkpt lat="47.77539" lon="2.13082">
        <ele>132</ele>
        <time>2017-01-15T08:11:01.654Z</time>
      </trkpt>
      <trkpt lat="47.77539" lon="2.13082">
        <ele>132</ele>
        <time>2017-01-15T08:11:02.649Z</time>
      </trkpt>
      <trkpt lat="47.77528" lon="2.1308">
        <ele>132</ele>
        <time>2017-01-15T08:11:03.655Z</time>
      </trkpt>
      <trkpt lat="47.77528" lon="2.1308">
        <ele>132</ele>
        <time>2017-01-15T08:11:04.651Z</time>
      </trkpt>
      <trkpt lat="47.77517" lon="2.13074">
        <ele>132</ele>
        <time>2017-01-15T08:11:05.635Z</time>
      </trkpt>
      <trkpt lat="47.77517" lon="2.13074">
        <ele>132</ele>
        <time>2017-01-15T08:11:06.665Z</time>
      </trkpt>
      <trkpt lat="47.77507" lon="2.13067">
        <ele>132</ele>
        <time>2017-01-15T08:11:07.640Z</time>
      </trkpt>
      <trkpt lat="47.77502" lon="2.13064">
        <ele>132</ele>
        <time>2017-01-15T08:11:08.631Z</time>
      </trkpt>
      <trkpt lat="47.77502" lon="2.13064">
        <ele>132</ele>
        <time>2017-01-15T08:11:09.659Z</time>
      </trkpt>
      <trkpt lat="47.77491" lon="2.13058">
        <ele>132</ele>
        <time>2017-01-15T08:11:10.649Z</time>
      </trkpt>
      <trkpt lat="47.77486" lon="2.13056">
        <ele>132</ele>
        <time>2017-01-15T08:11:11.654Z</time>
      </trkpt>
      <trkpt lat="47.77486" lon="2.13056">
        <ele>132</ele>
        <time>2017-01-15T08:11:12.652Z</time>
      </trkpt>
      <trkpt lat="47.77475" lon="2.13052">
        <ele>132</ele>
        <time>2017-01-15T08:11:13.655Z</time>
      </trkpt>
      <trkpt lat="47.77475" lon="2.13052">
        <ele>132</ele>
        <time>2017-01-15T08:11:14.644Z</time>
      </trkpt>
      <trkpt lat="47.77464" lon="2.13049">
        <ele>132</ele>
        <time>2017-01-15T08:11:15.632Z</time>
      </trkpt>
      <trkpt lat="47.77464" lon="2.13049">
        <ele>132</ele>
        <time>2017-01-15T08:11:16.664Z</time>
      </trkpt>
      <trkpt lat="47.77454" lon="2.13045">
        <ele>131</ele>
        <time>2017-01-15T08:11:17.658Z</time>
      </trkpt>
      <trkpt lat="47.77454" lon="2.13045">
        <ele>131</ele>
        <time>2017-01-15T08:11:18.649Z</time>
      </trkpt>
      <trkpt lat="47.77444" lon="2.13043">
        <ele>131</ele>
        <time>2017-01-15T08:11:19.654Z</time>
      </trkpt>
      <trkpt lat="47.77444" lon="2.13043">
        <ele>131</ele>
        <time>2017-01-15T08:11:20.652Z</time>
      </trkpt>
      <trkpt lat="47.77435" lon="2.1304">
        <ele>130</ele>
        <time>2017-01-15T08:11:21.654Z</time>
      </trkpt>
      <trkpt lat="47.77435" lon="2.1304">
        <ele>130</ele>
        <time>2017-01-15T08:11:22.662Z</time>
      </trkpt>
      <trkpt lat="47.77426" lon="2.13037">
        <ele>130</ele>
        <time>2017-01-15T08:11:23.656Z</time>
      </trkpt>
      <trkpt lat="47.77426" lon="2.13037">
        <ele>130</ele>
        <time>2017-01-15T08:11:24.651Z</time>
      </trkpt>
      <trkpt lat="47.77416" lon="2.13034">
        <ele>130</ele>
        <time>2017-01-15T08:11:25.655Z</time>
      </trkpt>
      <trkpt lat="47.77416" lon="2.13034">
        <ele>130</ele>
        <time>2017-01-15T08:11:26.650Z</time>
      </trkpt>
      <trkpt lat="47.77404" lon="2.1303">
        <ele>129</ele>
        <time>2017-01-15T08:11:27.655Z</time>
      </trkpt>
      <trkpt lat="47.77404" lon="2.1303">
        <ele>129</ele>
        <time>2017-01-15T08:11:28.651Z</time>
      </trkpt>
      <trkpt lat="47.77393" lon="2.13026">
        <ele>129</ele>
        <time>2017-01-15T08:11:29.657Z</time>
      </trkpt>
      <trkpt lat="47.77393" lon="2.13026">
        <ele>129</ele>
        <time>2017-01-15T08:11:30.645Z</time>
      </trkpt>
      <trkpt lat="47.77383" lon="2.1302">
        <ele>128</ele>
        <time>2017-01-15T08:11:31.655Z</time>
      </trkpt>
      <trkpt lat="47.77383" lon="2.1302">
        <ele>128</ele>
        <time>2017-01-15T08:11:32.651Z</time>
      </trkpt>
      <trkpt lat="47.77374" lon="2.13017">
        <ele>129</ele>
        <time>2017-01-15T08:11:33.653Z</time>
      </trkpt>
      <trkpt lat="47.77374" lon="2.13017">
        <ele>129</ele>
        <time>2017-01-15T08:11:34.652Z</time>
      </trkpt>
      <trkpt lat="47.77365" lon="2.13011">
        <ele>129</ele>
        <time>2017-01-15T08:11:35.658Z</time>
      </trkpt>
      <trkpt lat="47.7736" lon="2.13008">
        <ele>129</ele>
        <time>2017-01-15T08:11:36.660Z</time>
      </trkpt>
      <trkpt lat="47.7736" lon="2.13008">
        <ele>129</ele>
        <time>2017-01-15T08:11:37.651Z</time>
      </trkpt>
      <trkpt lat="47.77351" lon="2.13003">
        <ele>128</ele>
        <time>2017-01-15T08:11:38.654Z</time>
      </trkpt>
      <trkpt lat="47.77351" lon="2.13003">
        <ele>128</ele>
        <time>2017-01-15T08:11:39.651Z</time>
      </trkpt>
      <trkpt lat="47.77342" lon="2.12996">
        <ele>128</ele>
        <time>2017-01-15T08:11:40.653Z</time>
      </trkpt>
      <trkpt lat="47.77336" lon="2.12992">
        <ele>128</ele>
        <time>2017-01-15T08:11:41.653Z</time>
      </trkpt>
      <trkpt lat="47.77336" lon="2.12992">
        <ele>128</ele>
        <time>2017-01-15T08:11:42.652Z</time>
      </trkpt>
      <trkpt lat="47.77323" lon="2.12987">
        <ele>128</ele>
        <time>2017-01-15T08:11:43.655Z</time>
      </trkpt>
      <trkpt lat="47.77323" lon="2.12987">
        <ele>128</ele>
        <time>2017-01-15T08:11:44.649Z</time>
      </trkpt>
      <trkpt lat="47.77311" lon="2.1298">
        <ele>128</ele>
        <time>2017-01-15T08:11:45.647Z</time>
      </trkpt>
      <trkpt lat="47.77305" lon="2.12976">
        <ele>129</ele>
        <time>2017-01-15T08:11:46.663Z</time>
      </trkpt>
      <trkpt lat="47.77299" lon="2.12974">
        <ele>129</ele>
        <time>2017-01-15T08:11:47.660Z</time>
      </trkpt>
      <trkpt lat="47.77299" lon="2.12974">
        <ele>129</ele>
        <time>2017-01-15T08:11:48.649Z</time>
      </trkpt>
      <trkpt lat="47.77288" lon="2.12967">
        <ele>129</ele>
        <time>2017-01-15T08:11:49.653Z</time>
      </trkpt>
      <trkpt lat="47.77288" lon="2.12967">
        <ele>129</ele>
        <time>2017-01-15T08:11:50.650Z</time>
      </trkpt>
      <trkpt lat="47.77277" lon="2.1296">
        <ele>128</ele>
        <time>2017-01-15T08:11:51.654Z</time>
      </trkpt>
      <trkpt lat="47.77277" lon="2.1296">
        <ele>128</ele>
        <time>2017-01-15T08:11:52.663Z</time>
      </trkpt>
      <trkpt lat="47.77266" lon="2.12953">
        <ele>129</ele>
        <time>2017-01-15T08:11:53.653Z</time>
      </trkpt>
      <trkpt lat="47.77266" lon="2.12953">
        <ele>129</ele>
        <time>2017-01-15T08:11:54.649Z</time>
      </trkpt>
      <trkpt lat="47.77255" lon="2.12944">
        <ele>129</ele>
        <time>2017-01-15T08:11:55.654Z</time>
      </trkpt>
      <trkpt lat="47.7725" lon="2.12939">
        <ele>129</ele>
        <time>2017-01-15T08:11:56.662Z</time>
      </trkpt>
      <trkpt lat="47.7725" lon="2.12939">
        <ele>129</ele>
        <time>2017-01-15T08:11:57.652Z</time>
      </trkpt>
      <trkpt lat="47.77239" lon="2.1293">
        <ele>129</ele>
        <time>2017-01-15T08:11:58.652Z</time>
      </trkpt>
      <trkpt lat="47.77234" lon="2.12925">
        <ele>129</ele>
        <time>2017-01-15T08:11:59.657Z</time>
      </trkpt>
      <trkpt lat="47.77234" lon="2.12925">
        <ele>129</ele>
        <time>2017-01-15T08:12:00.651Z</time>
      </trkpt>
      <trkpt lat="47.77223" lon="2.12917">
        <ele>130</ele>
        <time>2017-01-15T08:12:01.662Z</time>
      </trkpt>
      <trkpt lat="47.77223" lon="2.12917">
        <ele>130</ele>
        <time>2017-01-15T08:12:02.651Z</time>
      </trkpt>
      <trkpt lat="47.77212" lon="2.12907">
        <ele>130</ele>
        <time>2017-01-15T08:12:03.655Z</time>
      </trkpt>
      <trkpt lat="47.77212" lon="2.12907">
        <ele>130</ele>
        <time>2017-01-15T08:12:04.651Z</time>
      </trkpt>
      <trkpt lat="47.77201" lon="2.12898">
        <ele>130</ele>
        <time>2017-01-15T08:12:05.656Z</time>
      </trkpt>
      <trkpt lat="47.77201" lon="2.12898">
        <ele>130</ele>
        <time>2017-01-15T08:12:06.662Z</time>
      </trkpt>
      <trkpt lat="47.7719" lon="2.1289">
        <ele>130</ele>
        <time>2017-01-15T08:12:07.665Z</time>
      </trkpt>
      <trkpt lat="47.77184" lon="2.12885">
        <ele>130</ele>
        <time>2017-01-15T08:12:08.653Z</time>
      </trkpt>
      <trkpt lat="47.77184" lon="2.12885">
        <ele>130</ele>
        <time>2017-01-15T08:12:09.651Z</time>
      </trkpt>
      <trkpt lat="47.77173" lon="2.12877">
        <ele>131</ele>
        <time>2017-01-15T08:12:10.656Z</time>
      </trkpt>
      <trkpt lat="47.77173" lon="2.12877">
        <ele>131</ele>
        <time>2017-01-15T08:12:11.653Z</time>
      </trkpt>
      <trkpt lat="47.77162" lon="2.12868">
        <ele>131</ele>
        <time>2017-01-15T08:12:12.655Z</time>
      </trkpt>
      <trkpt lat="47.77162" lon="2.12868">
        <ele>131</ele>
        <time>2017-01-15T08:12:13.654Z</time>
      </trkpt>
      <trkpt lat="47.77151" lon="2.1286">
        <ele>131</ele>
        <time>2017-01-15T08:12:14.654Z</time>
      </trkpt>
      <trkpt lat="47.77151" lon="2.1286">
        <ele>131</ele>
        <time>2017-01-15T08:12:15.652Z</time>
      </trkpt>
      <trkpt lat="47.7714" lon="2.12852">
        <ele>131</ele>
        <time>2017-01-15T08:12:16.663Z</time>
      </trkpt>
      <trkpt lat="47.77134" lon="2.12848">
        <ele>131</ele>
        <time>2017-01-15T08:12:17.656Z</time>
      </trkpt>
      <trkpt lat="47.77134" lon="2.12848">
        <ele>131</ele>
        <time>2017-01-15T08:12:18.651Z</time>
      </trkpt>
      <trkpt lat="47.77123" lon="2.12841">
        <ele>131</ele>
        <time>2017-01-15T08:12:19.664Z</time>
      </trkpt>
      <trkpt lat="47.77123" lon="2.12841">
        <ele>131</ele>
        <time>2017-01-15T08:12:20.652Z</time>
      </trkpt>
      <trkpt lat="47.77113" lon="2.12833">
        <ele>131</ele>
        <time>2017-01-15T08:12:21.654Z</time>
      </trkpt>
      <trkpt lat="47.77107" lon="2.12829">
        <ele>130</ele>
        <time>2017-01-15T08:12:22.653Z</time>
      </trkpt>
      <trkpt lat="47.77102" lon="2.12826">
        <ele>130</ele>
        <time>2017-01-15T08:12:23.657Z</time>
      </trkpt>
      <trkpt lat="47.77102" lon="2.12826">
        <ele>130</ele>
        <time>2017-01-15T08:12:24.644Z</time>
      </trkpt>
      <trkpt lat="47.77091" lon="2.12817">
        <ele>130</ele>
        <time>2017-01-15T08:12:25.655Z</time>
      </trkpt>
      <trkpt lat="47.77091" lon="2.12817">
        <ele>130</ele>
        <time>2017-01-15T08:12:26.665Z</time>
      </trkpt>
      <trkpt lat="47.77083" lon="2.12806">
        <ele>129</ele>
        <time>2017-01-15T08:12:27.666Z</time>
      </trkpt>
      <trkpt lat="47.77083" lon="2.12806">
        <ele>129</ele>
        <time>2017-01-15T08:12:28.655Z</time>
      </trkpt>
      <trkpt lat="47.77075" lon="2.12792">
        <ele>129</ele>
        <time>2017-01-15T08:12:29.654Z</time>
      </trkpt>
      <trkpt lat="47.77075" lon="2.12792">
        <ele>129</ele>
        <time>2017-01-15T08:12:30.653Z</time>
      </trkpt>
      <trkpt lat="47.77068" lon="2.12778">
        <ele>129</ele>
        <time>2017-01-15T08:12:31.655Z</time>
      </trkpt>
      <trkpt lat="47.77068" lon="2.12778">
        <ele>129</ele>
        <time>2017-01-15T08:12:32.652Z</time>
      </trkpt>
      <trkpt lat="47.77061" lon="2.12763">
        <ele>128</ele>
        <time>2017-01-15T08:12:33.655Z</time>
      </trkpt>
      <trkpt lat="47.77061" lon="2.12763">
        <ele>128</ele>
        <time>2017-01-15T08:12:34.652Z</time>
      </trkpt>
      <trkpt lat="47.77055" lon="2.12749">
        <ele>127</ele>
        <time>2017-01-15T08:12:35.656Z</time>
      </trkpt>
      <trkpt lat="47.77055" lon="2.12749">
        <ele>127</ele>
        <time>2017-01-15T08:12:36.662Z</time>
      </trkpt>
      <trkpt lat="47.77049" lon="2.12734">
        <ele>127</ele>
        <time>2017-01-15T08:12:37.655Z</time>
      </trkpt>
      <trkpt lat="47.77049" lon="2.12734">
        <ele>127</ele>
        <time>2017-01-15T08:12:38.649Z</time>
      </trkpt>
      <trkpt lat="47.77043" lon="2.1272">
        <ele>127</ele>
        <time>2017-01-15T08:12:39.654Z</time>
      </trkpt>
      <trkpt lat="47.77043" lon="2.1272">
        <ele>127</ele>
        <time>2017-01-15T08:12:40.652Z</time>
      </trkpt>
      <trkpt lat="47.77036" lon="2.12706">
        <ele>126</ele>
        <time>2017-01-15T08:12:41.637Z</time>
      </trkpt>
      <trkpt lat="47.77036" lon="2.12706">
        <ele>126</ele>
        <time>2017-01-15T08:12:42.632Z</time>
      </trkpt>
      <trkpt lat="47.77028" lon="2.1269">
        <ele>126</ele>
        <time>2017-01-15T08:12:43.661Z</time>
      </trkpt>
      <trkpt lat="47.77028" lon="2.1269">
        <ele>126</ele>
        <time>2017-01-15T08:12:44.652Z</time>
      </trkpt>
      <trkpt lat="47.77021" lon="2.12675">
        <ele>125</ele>
        <time>2017-01-15T08:12:45.654Z</time>
      </trkpt>
      <trkpt lat="47.77021" lon="2.12675">
        <ele>125</ele>
        <time>2017-01-15T08:12:46.628Z</time>
      </trkpt>
      <trkpt lat="47.77013" lon="2.12661">
        <ele>125</ele>
        <time>2017-01-15T08:12:47.658Z</time>
      </trkpt>
      <trkpt lat="47.77013" lon="2.12661">
        <ele>125</ele>
        <time>2017-01-15T08:12:48.651Z</time>
      </trkpt>
      <trkpt lat="47.77006" lon="2.12647">
        <ele>124</ele>
        <time>2017-01-15T08:12:49.653Z</time>
      </trkpt>
      <trkpt lat="47.77006" lon="2.12647">
        <ele>124</ele>
        <time>2017-01-15T08:12:50.652Z</time>
      </trkpt>
      <trkpt lat="47.76998" lon="2.12632">
        <ele>124</ele>
        <time>2017-01-15T08:12:51.654Z</time>
      </trkpt>
      <trkpt lat="47.76994" lon="2.12625">
        <ele>123</ele>
        <time>2017-01-15T08:12:52.632Z</time>
      </trkpt>
      <trkpt lat="47.7699" lon="2.12618">
        <ele>123</ele>
        <time>2017-01-15T08:12:53.657Z</time>
      </trkpt>
      <trkpt lat="47.7699" lon="2.12618">
        <ele>123</ele>
        <time>2017-01-15T08:12:54.652Z</time>
      </trkpt>
      <trkpt lat="47.76982" lon="2.12603">
        <ele>123</ele>
        <time>2017-01-15T08:12:55.655Z</time>
      </trkpt>
      <trkpt lat="47.76978" lon="2.12596">
        <ele>123</ele>
        <time>2017-01-15T08:12:56.662Z</time>
      </trkpt>
      <trkpt lat="47.76978" lon="2.12596">
        <ele>123</ele>
        <time>2017-01-15T08:12:57.653Z</time>
      </trkpt>
      <trkpt lat="47.7697" lon="2.12581">
        <ele>123</ele>
        <time>2017-01-15T08:12:58.655Z</time>
      </trkpt>
      <trkpt lat="47.76966" lon="2.12574">
        <ele>123</ele>
        <time>2017-01-15T08:12:59.658Z</time>
      </trkpt>
      <trkpt lat="47.76966" lon="2.12574">
        <ele>123</ele>
        <time>2017-01-15T08:13:00.653Z</time>
      </trkpt>
      <trkpt lat="47.76958" lon="2.12559">
        <ele>123</ele>
        <time>2017-01-15T08:13:01.647Z</time>
      </trkpt>
      <trkpt lat="47.76954" lon="2.12552">
        <ele>123</ele>
        <time>2017-01-15T08:13:02.654Z</time>
      </trkpt>
      <trkpt lat="47.76951" lon="2.12544">
        <ele>123</ele>
        <time>2017-01-15T08:13:03.655Z</time>
      </trkpt>
      <trkpt lat="47.76951" lon="2.12544">
        <ele>123</ele>
        <time>2017-01-15T08:13:04.652Z</time>
      </trkpt>
      <trkpt lat="47.76945" lon="2.12528">
        <ele>123</ele>
        <time>2017-01-15T08:13:05.658Z</time>
      </trkpt>
      <trkpt lat="47.76945" lon="2.12528">
        <ele>123</ele>
        <time>2017-01-15T08:13:06.663Z</time>
      </trkpt>
      <trkpt lat="47.76938" lon="2.1251">
        <ele>125</ele>
        <time>2017-01-15T08:13:07.656Z</time>
      </trkpt>
      <trkpt lat="47.76938" lon="2.1251">
        <ele>125</ele>
        <time>2017-01-15T08:13:08.664Z</time>
      </trkpt>
      <trkpt lat="47.76932" lon="2.12493">
        <ele>126</ele>
        <time>2017-01-15T08:13:09.654Z</time>
      </trkpt>
      <trkpt lat="47.76932" lon="2.12493">
        <ele>126</ele>
        <time>2017-01-15T08:13:10.652Z</time>
      </trkpt>
      <trkpt lat="47.76928" lon="2.12475">
        <ele>127</ele>
        <time>2017-01-15T08:13:11.649Z</time>
      </trkpt>
      <trkpt lat="47.76926" lon="2.12466">
        <ele>128</ele>
        <time>2017-01-15T08:13:12.656Z</time>
      </trkpt>
      <trkpt lat="47.76923" lon="2.12457">
        <ele>128</ele>
        <time>2017-01-15T08:13:13.655Z</time>
      </trkpt>
      <trkpt lat="47.76923" lon="2.12457">
        <ele>128</ele>
        <time>2017-01-15T08:13:14.647Z</time>
      </trkpt>
      <trkpt lat="47.76919" lon="2.1244">
        <ele>129</ele>
        <time>2017-01-15T08:13:15.654Z</time>
      </trkpt>
      <trkpt lat="47.76919" lon="2.1244">
        <ele>129</ele>
        <time>2017-01-15T08:13:16.651Z</time>
      </trkpt>
      <trkpt lat="47.76915" lon="2.12423">
        <ele>129</ele>
        <time>2017-01-15T08:13:17.657Z</time>
      </trkpt>
      <trkpt lat="47.76913" lon="2.12415">
        <ele>129</ele>
        <time>2017-01-15T08:13:18.631Z</time>
      </trkpt>
      <trkpt lat="47.76913" lon="2.12415">
        <ele>129</ele>
        <time>2017-01-15T08:13:19.660Z</time>
      </trkpt>
      <trkpt lat="47.76909" lon="2.12399">
        <ele>130</ele>
        <time>2017-01-15T08:13:20.654Z</time>
      </trkpt>
      <trkpt lat="47.76909" lon="2.12399">
        <ele>130</ele>
        <time>2017-01-15T08:13:21.658Z</time>
      </trkpt>
      <trkpt lat="47.76905" lon="2.12383">
        <ele>130</ele>
        <time>2017-01-15T08:13:22.654Z</time>
      </trkpt>
      <trkpt lat="47.76903" lon="2.12375">
        <ele>130</ele>
        <time>2017-01-15T08:13:23.657Z</time>
      </trkpt>
      <trkpt lat="47.76903" lon="2.12375">
        <ele>130</ele>
        <time>2017-01-15T08:13:24.652Z</time>
      </trkpt>
      <trkpt lat="47.76899" lon="2.12358">
        <ele>130</ele>
        <time>2017-01-15T08:13:25.634Z</time>
      </trkpt>
      <trkpt lat="47.76897" lon="2.1235">
        <ele>130</ele>
        <time>2017-01-15T08:13:26.665Z</time>
      </trkpt>
      <trkpt lat="47.76897" lon="2.1235">
        <ele>130</ele>
        <time>2017-01-15T08:13:27.655Z</time>
      </trkpt>
      <trkpt lat="47.76893" lon="2.12335">
        <ele>130</ele>
        <time>2017-01-15T08:13:28.652Z</time>
      </trkpt>
      <trkpt lat="47.76891" lon="2.12327">
        <ele>130</ele>
        <time>2017-01-15T08:13:29.668Z</time>
      </trkpt>
      <trkpt lat="47.76891" lon="2.12327">
        <ele>130</ele>
        <time>2017-01-15T08:13:30.664Z</time>
      </trkpt>
      <trkpt lat="47.76888" lon="2.12311">
        <ele>130</ele>
        <time>2017-01-15T08:13:31.656Z</time>
      </trkpt>
      <trkpt lat="47.76886" lon="2.12304">
        <ele>130</ele>
        <time>2017-01-15T08:13:32.656Z</time>
      </trkpt>
      <trkpt lat="47.76886" lon="2.12304">
        <ele>130</ele>
        <time>2017-01-15T08:13:33.652Z</time>
      </trkpt>
      <trkpt lat="47.76882" lon="2.12288">
        <ele>130</ele>
        <time>2017-01-15T08:13:34.656Z</time>
      </trkpt>
      <trkpt lat="47.76881" lon="2.12281">
        <ele>130</ele>
        <time>2017-01-15T08:13:35.658Z</time>
      </trkpt>
      <trkpt lat="47.76881" lon="2.12281">
        <ele>130</ele>
        <time>2017-01-15T08:13:36.666Z</time>
      </trkpt>
      <trkpt lat="47.76877" lon="2.12266">
        <ele>130</ele>
        <time>2017-01-15T08:13:37.656Z</time>
      </trkpt>
      <trkpt lat="47.76875" lon="2.12258">
        <ele>130</ele>
        <time>2017-01-15T08:13:38.654Z</time>
      </trkpt>
      <trkpt lat="47.76875" lon="2.12258">
        <ele>130</ele>
        <time>2017-01-15T08:13:39.650Z</time>
      </trkpt>
      <trkpt lat="47.76872" lon="2.12242">
        <ele>130</ele>
        <time>2017-01-15T08:13:40.653Z</time>
      </trkpt>
      <trkpt lat="47.7687" lon="2.12235">
        <ele>130</ele>
        <time>2017-01-15T08:13:41.657Z</time>
      </trkpt>
      <trkpt lat="47.7687" lon="2.12235">
        <ele>130</ele>
        <time>2017-01-15T08:13:42.652Z</time>
      </trkpt>
      <trkpt lat="47.76866" lon="2.12219">
        <ele>130</ele>
        <time>2017-01-15T08:13:43.655Z</time>
      </trkpt>
      <trkpt lat="47.76864" lon="2.12211">
        <ele>130</ele>
        <time>2017-01-15T08:13:44.655Z</time>
      </trkpt>
      <trkpt lat="47.76864" lon="2.12211">
        <ele>130</ele>
        <time>2017-01-15T08:13:45.650Z</time>
      </trkpt>
      <trkpt lat="47.7686" lon="2.12196">
        <ele>130</ele>
        <time>2017-01-15T08:13:46.663Z</time>
      </trkpt>
      <trkpt lat="47.76858" lon="2.12188">
        <ele>130</ele>
        <time>2017-01-15T08:13:47.644Z</time>
      </trkpt>
      <trkpt lat="47.76858" lon="2.12188">
        <ele>130</ele>
        <time>2017-01-15T08:13:48.648Z</time>
      </trkpt>
      <trkpt lat="47.76853" lon="2.12173">
        <ele>130</ele>
        <time>2017-01-15T08:13:49.655Z</time>
      </trkpt>
      <trkpt lat="47.76851" lon="2.12166">
        <ele>130</ele>
        <time>2017-01-15T08:13:50.654Z</time>
      </trkpt>
      <trkpt lat="47.76847" lon="2.1216">
        <ele>130</ele>
        <time>2017-01-15T08:13:51.654Z</time>
      </trkpt>
      <trkpt lat="47.76847" lon="2.1216">
        <ele>130</ele>
        <time>2017-01-15T08:13:52.667Z</time>
      </trkpt>
      <trkpt lat="47.76838" lon="2.12149">
        <ele>130</ele>
        <time>2017-01-15T08:13:53.654Z</time>
      </trkpt>
      <trkpt lat="47.76838" lon="2.12149">
        <ele>130</ele>
        <time>2017-01-15T08:13:54.652Z</time>
      </trkpt>
      <trkpt lat="47.76829" lon="2.1214">
        <ele>130</ele>
        <time>2017-01-15T08:13:55.655Z</time>
      </trkpt>
      <trkpt lat="47.76829" lon="2.1214">
        <ele>130</ele>
        <time>2017-01-15T08:13:56.659Z</time>
      </trkpt>
      <trkpt lat="47.7682" lon="2.1213">
        <ele>130</ele>
        <time>2017-01-15T08:13:57.655Z</time>
      </trkpt>
      <trkpt lat="47.7682" lon="2.1213">
        <ele>130</ele>
        <time>2017-01-15T08:13:58.653Z</time>
      </trkpt>
      <trkpt lat="47.76813" lon="2.12117">
        <ele>129</ele>
        <time>2017-01-15T08:13:59.657Z</time>
      </trkpt>
      <trkpt lat="47.76813" lon="2.12117">
        <ele>129</ele>
        <time>2017-01-15T08:14:00.649Z</time>
      </trkpt>
      <trkpt lat="47.76807" lon="2.12102">
        <ele>129</ele>
        <time>2017-01-15T08:14:01.657Z</time>
      </trkpt>
      <trkpt lat="47.76807" lon="2.12102">
        <ele>129</ele>
        <time>2017-01-15T08:14:02.653Z</time>
      </trkpt>
      <trkpt lat="47.76802" lon="2.12087">
        <ele>129</ele>
        <time>2017-01-15T08:14:03.654Z</time>
      </trkpt>
      <trkpt lat="47.76802" lon="2.12087">
        <ele>129</ele>
        <time>2017-01-15T08:14:04.650Z</time>
      </trkpt>
      <trkpt lat="47.76798" lon="2.12071">
        <ele>129</ele>
        <time>2017-01-15T08:14:05.654Z</time>
      </trkpt>
      <trkpt lat="47.76798" lon="2.12071">
        <ele>129</ele>
        <time>2017-01-15T08:14:06.655Z</time>
      </trkpt>
      <trkpt lat="47.76793" lon="2.12057">
        <ele>128</ele>
        <time>2017-01-15T08:14:07.655Z</time>
      </trkpt>
      <trkpt lat="47.76793" lon="2.12057">
        <ele>128</ele>
        <time>2017-01-15T08:14:08.653Z</time>
      </trkpt>
      <trkpt lat="47.76787" lon="2.12043">
        <ele>128</ele>
        <time>2017-01-15T08:14:09.654Z</time>
      </trkpt>
      <trkpt lat="47.76787" lon="2.12043">
        <ele>128</ele>
        <time>2017-01-15T08:14:10.644Z</time>
      </trkpt>
      <trkpt lat="47.76783" lon="2.12028">
        <ele>128</ele>
        <time>2017-01-15T08:14:11.653Z</time>
      </trkpt>
      <trkpt lat="47.76783" lon="2.12028">
        <ele>128</ele>
        <time>2017-01-15T08:14:12.654Z</time>
      </trkpt>
      <trkpt lat="47.76778" lon="2.12013">
        <ele>128</ele>
        <time>2017-01-15T08:14:13.655Z</time>
      </trkpt>
      <trkpt lat="47.76778" lon="2.12013">
        <ele>128</ele>
        <time>2017-01-15T08:14:14.663Z</time>
      </trkpt>
      <trkpt lat="47.76773" lon="2.11997">
        <ele>127</ele>
        <time>2017-01-15T08:14:15.655Z</time>
      </trkpt>
      <trkpt lat="47.76773" lon="2.11997">
        <ele>127</ele>
        <time>2017-01-15T08:14:16.665Z</time>
      </trkpt>
      <trkpt lat="47.76768" lon="2.11982">
        <ele>127</ele>
        <time>2017-01-15T08:14:17.653Z</time>
      </trkpt>
      <trkpt lat="47.76768" lon="2.11982">
        <ele>127</ele>
        <time>2017-01-15T08:14:18.652Z</time>
      </trkpt>
      <trkpt lat="47.76762" lon="2.11969">
        <ele>126</ele>
        <time>2017-01-15T08:14:19.655Z</time>
      </trkpt>
      <trkpt lat="47.76762" lon="2.11969">
        <ele>126</ele>
        <time>2017-01-15T08:14:20.653Z</time>
      </trkpt>
      <trkpt lat="47.76756" lon="2.11955">
        <ele>126</ele>
        <time>2017-01-15T08:14:21.654Z</time>
      </trkpt>
      <trkpt lat="47.76756" lon="2.11955">
        <ele>126</ele>
        <time>2017-01-15T08:14:22.654Z</time>
      </trkpt>
      <trkpt lat="47.76749" lon="2.11941">
        <ele>126</ele>
        <time>2017-01-15T08:14:23.656Z</time>
      </trkpt>
      <trkpt lat="47.76749" lon="2.11941">
        <ele>126</ele>
        <time>2017-01-15T08:14:24.655Z</time>
      </trkpt>
      <trkpt lat="47.76742" lon="2.11928">
        <ele>126</ele>
        <time>2017-01-15T08:14:25.655Z</time>
      </trkpt>
      <trkpt lat="47.76742" lon="2.11928">
        <ele>126</ele>
        <time>2017-01-15T08:14:26.658Z</time>
      </trkpt>
      <trkpt lat="47.76736" lon="2.11913">
        <ele>125</ele>
        <time>2017-01-15T08:14:27.666Z</time>
      </trkpt>
      <trkpt lat="47.76736" lon="2.11913">
        <ele>125</ele>
        <time>2017-01-15T08:14:28.654Z</time>
      </trkpt>
      <trkpt lat="47.76729" lon="2.11899">
        <ele>125</ele>
        <time>2017-01-15T08:14:29.658Z</time>
      </trkpt>
      <trkpt lat="47.76729" lon="2.11899">
        <ele>125</ele>
        <time>2017-01-15T08:14:30.652Z</time>
      </trkpt>
      <trkpt lat="47.76722" lon="2.11885">
        <ele>125</ele>
        <time>2017-01-15T08:14:31.653Z</time>
      </trkpt>
      <trkpt lat="47.76722" lon="2.11885">
        <ele>125</ele>
        <time>2017-01-15T08:14:32.654Z</time>
      </trkpt>
      <trkpt lat="47.76715" lon="2.11872">
        <ele>124</ele>
        <time>2017-01-15T08:14:33.655Z</time>
      </trkpt>
      <trkpt lat="47.76712" lon="2.11865">
        <ele>124</ele>
        <time>2017-01-15T08:14:34.656Z</time>
      </trkpt>
      <trkpt lat="47.76712" lon="2.11865">
        <ele>124</ele>
        <time>2017-01-15T08:14:35.654Z</time>
      </trkpt>
      <trkpt lat="47.76704" lon="2.11851">
        <ele>124</ele>
        <time>2017-01-15T08:14:36.660Z</time>
      </trkpt>
      <trkpt lat="47.767" lon="2.11843">
        <ele>124</ele>
        <time>2017-01-15T08:14:37.655Z</time>
      </trkpt>
      <trkpt lat="47.767" lon="2.11843">
        <ele>124</ele>
        <time>2017-01-15T08:14:38.647Z</time>
      </trkpt>
      <trkpt lat="47.76693" lon="2.11829">
        <ele>124</ele>
        <time>2017-01-15T08:14:39.665Z</time>
      </trkpt>
      <trkpt lat="47.76693" lon="2.11829">
        <ele>124</ele>
        <time>2017-01-15T08:14:40.654Z</time>
      </trkpt>
      <trkpt lat="47.76687" lon="2.11815">
        <ele>123</ele>
        <time>2017-01-15T08:14:41.664Z</time>
      </trkpt>
      <trkpt lat="47.76687" lon="2.11815">
        <ele>123</ele>
        <time>2017-01-15T08:14:42.666Z</time>
      </trkpt>
      <trkpt lat="47.76679" lon="2.11801">
        <ele>123</ele>
        <time>2017-01-15T08:14:43.656Z</time>
      </trkpt>
      <trkpt lat="47.76679" lon="2.11801">
        <ele>123</ele>
        <time>2017-01-15T08:14:44.656Z</time>
      </trkpt>
      <trkpt lat="47.76672" lon="2.11787">
        <ele>122</ele>
        <time>2017-01-15T08:14:45.655Z</time>
      </trkpt>
      <trkpt lat="47.76668" lon="2.11779">
        <ele>122</ele>
        <time>2017-01-15T08:14:46.662Z</time>
      </trkpt>
      <trkpt lat="47.76668" lon="2.11779">
        <ele>122</ele>
        <time>2017-01-15T08:14:47.654Z</time>
      </trkpt>
      <trkpt lat="47.76661" lon="2.11766">
        <ele>121</ele>
        <time>2017-01-15T08:14:48.654Z</time>
      </trkpt>
      <trkpt lat="47.76661" lon="2.11766">
        <ele>121</ele>
        <time>2017-01-15T08:14:49.651Z</time>
      </trkpt>
      <trkpt lat="47.76654" lon="2.11753">
        <ele>121</ele>
        <time>2017-01-15T08:14:50.654Z</time>
      </trkpt>
      <trkpt lat="47.76654" lon="2.11753">
        <ele>121</ele>
        <time>2017-01-15T08:14:51.654Z</time>
      </trkpt>
      <trkpt lat="47.76647" lon="2.11739">
        <ele>120</ele>
        <time>2017-01-15T08:14:52.663Z</time>
      </trkpt>
      <trkpt lat="47.76643" lon="2.11731">
        <ele>120</ele>
        <time>2017-01-15T08:14:53.658Z</time>
      </trkpt>
      <trkpt lat="47.76643" lon="2.11731">
        <ele>120</ele>
        <time>2017-01-15T08:14:54.663Z</time>
      </trkpt>
      <trkpt lat="47.76635" lon="2.11716">
        <ele>120</ele>
        <time>2017-01-15T08:14:55.656Z</time>
      </trkpt>
      <trkpt lat="47.76631" lon="2.11708">
        <ele>120</ele>
        <time>2017-01-15T08:14:56.665Z</time>
      </trkpt>
      <trkpt lat="47.76631" lon="2.11708">
        <ele>120</ele>
        <time>2017-01-15T08:14:57.654Z</time>
      </trkpt>
      <trkpt lat="47.76624" lon="2.11693">
        <ele>120</ele>
        <time>2017-01-15T08:14:58.655Z</time>
      </trkpt>
      <trkpt lat="47.76621" lon="2.11685">
        <ele>120</ele>
        <time>2017-01-15T08:14:59.656Z</time>
      </trkpt>
      <trkpt lat="47.76621" lon="2.11685">
        <ele>120</ele>
        <time>2017-01-15T08:15:00.652Z</time>
      </trkpt>
      <trkpt lat="47.76613" lon="2.11668">
        <ele>119</ele>
        <time>2017-01-15T08:15:01.656Z</time>
      </trkpt>
      <trkpt lat="47.76609" lon="2.1166">
        <ele>119</ele>
        <time>2017-01-15T08:15:02.655Z</time>
      </trkpt>
      <trkpt lat="47.76609" lon="2.1166">
        <ele>119</ele>
        <time>2017-01-15T08:15:03.644Z</time>
      </trkpt>
      <trkpt lat="47.766" lon="2.11643">
        <ele>120</ele>
        <time>2017-01-15T08:15:04.653Z</time>
      </trkpt>
      <trkpt lat="47.76596" lon="2.11635">
        <ele>120</ele>
        <time>2017-01-15T08:15:05.658Z</time>
      </trkpt>
      <trkpt lat="47.76596" lon="2.11635">
        <ele>120</ele>
        <time>2017-01-15T08:15:06.650Z</time>
      </trkpt>
      <trkpt lat="47.76588" lon="2.11616">
        <ele>120</ele>
        <time>2017-01-15T08:15:07.656Z</time>
      </trkpt>
      <trkpt lat="47.76588" lon="2.11616">
        <ele>120</ele>
        <time>2017-01-15T08:15:08.654Z</time>
      </trkpt>
      <trkpt lat="47.7658" lon="2.11597">
        <ele>121</ele>
        <time>2017-01-15T08:15:09.654Z</time>
      </trkpt>
      <trkpt lat="47.7658" lon="2.11597">
        <ele>121</ele>
        <time>2017-01-15T08:15:10.654Z</time>
      </trkpt>
      <trkpt lat="47.76573" lon="2.1158">
        <ele>122</ele>
        <time>2017-01-15T08:15:11.665Z</time>
      </trkpt>
      <trkpt lat="47.76573" lon="2.1158">
        <ele>122</ele>
        <time>2017-01-15T08:15:12.656Z</time>
      </trkpt>
      <trkpt lat="47.76568" lon="2.11561">
        <ele>122</ele>
        <time>2017-01-15T08:15:13.655Z</time>
      </trkpt>
      <trkpt lat="47.76568" lon="2.11561">
        <ele>122</ele>
        <time>2017-01-15T08:15:14.646Z</time>
      </trkpt>
      <trkpt lat="47.76564" lon="2.11541">
        <ele>122</ele>
        <time>2017-01-15T08:15:15.656Z</time>
      </trkpt>
      <trkpt lat="47.76564" lon="2.11541">
        <ele>122</ele>
        <time>2017-01-15T08:15:16.662Z</time>
      </trkpt>
      <trkpt lat="47.7656" lon="2.11521">
        <ele>122</ele>
        <time>2017-01-15T08:15:17.655Z</time>
      </trkpt>
      <trkpt lat="47.7656" lon="2.11521">
        <ele>122</ele>
        <time>2017-01-15T08:15:18.653Z</time>
      </trkpt>
      <trkpt lat="47.76556" lon="2.115">
        <ele>122</ele>
        <time>2017-01-15T08:15:19.656Z</time>
      </trkpt>
      <trkpt lat="47.76556" lon="2.115">
        <ele>122</ele>
        <time>2017-01-15T08:15:20.654Z</time>
      </trkpt>
      <trkpt lat="47.76552" lon="2.11478">
        <ele>122</ele>
        <time>2017-01-15T08:15:21.654Z</time>
      </trkpt>
      <trkpt lat="47.76552" lon="2.11478">
        <ele>122</ele>
        <time>2017-01-15T08:15:22.654Z</time>
      </trkpt>
      <trkpt lat="47.76547" lon="2.11456">
        <ele>121</ele>
        <time>2017-01-15T08:15:23.657Z</time>
      </trkpt>
      <trkpt lat="47.76547" lon="2.11456">
        <ele>121</ele>
        <time>2017-01-15T08:15:24.655Z</time>
      </trkpt>
      <trkpt lat="47.76542" lon="2.11433">
        <ele>120</ele>
        <time>2017-01-15T08:15:25.654Z</time>
      </trkpt>
      <trkpt lat="47.76542" lon="2.11433">
        <ele>120</ele>
        <time>2017-01-15T08:15:26.661Z</time>
      </trkpt>
      <trkpt lat="47.76538" lon="2.11411">
        <ele>119</ele>
        <time>2017-01-15T08:15:27.654Z</time>
      </trkpt>
      <trkpt lat="47.76538" lon="2.11411">
        <ele>119</ele>
        <time>2017-01-15T08:15:28.650Z</time>
      </trkpt>
      <trkpt lat="47.76534" lon="2.11389">
        <ele>118</ele>
        <time>2017-01-15T08:15:29.659Z</time>
      </trkpt>
      <trkpt lat="47.76534" lon="2.11389">
        <ele>118</ele>
        <time>2017-01-15T08:15:30.653Z</time>
      </trkpt>
      <trkpt lat="47.76529" lon="2.11366">
        <ele>117</ele>
        <time>2017-01-15T08:15:31.656Z</time>
      </trkpt>
      <trkpt lat="47.76529" lon="2.11366">
        <ele>117</ele>
        <time>2017-01-15T08:15:32.654Z</time>
      </trkpt>
      <trkpt lat="47.76524" lon="2.11342">
        <ele>117</ele>
        <time>2017-01-15T08:15:33.654Z</time>
      </trkpt>
      <trkpt lat="47.76524" lon="2.11342">
        <ele>117</ele>
        <time>2017-01-15T08:15:34.654Z</time>
      </trkpt>
      <trkpt lat="47.7652" lon="2.11318">
        <ele>117</ele>
        <time>2017-01-15T08:15:35.657Z</time>
      </trkpt>
      <trkpt lat="47.7652" lon="2.11318">
        <ele>117</ele>
        <time>2017-01-15T08:15:36.658Z</time>
      </trkpt>
      <trkpt lat="47.76515" lon="2.11294">
        <ele>117</ele>
        <time>2017-01-15T08:15:37.657Z</time>
      </trkpt>
      <trkpt lat="47.76512" lon="2.11281">
        <ele>117</ele>
        <time>2017-01-15T08:15:38.655Z</time>
      </trkpt>
      <trkpt lat="47.76512" lon="2.11281">
        <ele>117</ele>
        <time>2017-01-15T08:15:39.654Z</time>
      </trkpt>
      <trkpt lat="47.76507" lon="2.11257">
        <ele>116</ele>
        <time>2017-01-15T08:15:40.656Z</time>
      </trkpt>
      <trkpt lat="47.76504" lon="2.11244">
        <ele>116</ele>
        <time>2017-01-15T08:15:41.656Z</time>
      </trkpt>
      <trkpt lat="47.76504" lon="2.11244">
        <ele>116</ele>
        <time>2017-01-15T08:15:42.654Z</time>
      </trkpt>
      <trkpt lat="47.76498" lon="2.11219">
        <ele>116</ele>
        <time>2017-01-15T08:15:43.656Z</time>
      </trkpt>
      <trkpt lat="47.76498" lon="2.11219">
        <ele>116</ele>
        <time>2017-01-15T08:15:44.649Z</time>
      </trkpt>
      <trkpt lat="47.76493" lon="2.11196">
        <ele>117</ele>
        <time>2017-01-15T08:15:45.656Z</time>
      </trkpt>
      <trkpt lat="47.76493" lon="2.11196">
        <ele>117</ele>
        <time>2017-01-15T08:15:46.657Z</time>
      </trkpt>
      <trkpt lat="47.76489" lon="2.11174">
        <ele>117</ele>
        <time>2017-01-15T08:15:47.655Z</time>
      </trkpt>
      <trkpt lat="47.76489" lon="2.11174">
        <ele>117</ele>
        <time>2017-01-15T08:15:48.655Z</time>
      </trkpt>
      <trkpt lat="47.76485" lon="2.11154">
        <ele>117</ele>
        <time>2017-01-15T08:15:49.656Z</time>
      </trkpt>
      <trkpt lat="47.76485" lon="2.11154">
        <ele>117</ele>
        <time>2017-01-15T08:15:50.650Z</time>
      </trkpt>
      <trkpt lat="47.76481" lon="2.11134">
        <ele>117</ele>
        <time>2017-01-15T08:15:51.650Z</time>
      </trkpt>
      <trkpt lat="47.76481" lon="2.11134">
        <ele>117</ele>
        <time>2017-01-15T08:15:52.662Z</time>
      </trkpt>
      <trkpt lat="47.76477" lon="2.11115">
        <ele>118</ele>
        <time>2017-01-15T08:15:53.655Z</time>
      </trkpt>
      <trkpt lat="47.76477" lon="2.11115">
        <ele>118</ele>
        <time>2017-01-15T08:15:54.651Z</time>
      </trkpt>
      <trkpt lat="47.76473" lon="2.11096">
        <ele>118</ele>
        <time>2017-01-15T08:15:55.656Z</time>
      </trkpt>
      <trkpt lat="47.76471" lon="2.11087">
        <ele>118</ele>
        <time>2017-01-15T08:15:56.660Z</time>
      </trkpt>
      <trkpt lat="47.76471" lon="2.11087">
        <ele>118</ele>
        <time>2017-01-15T08:15:57.650Z</time>
      </trkpt>
      <trkpt lat="47.76467" lon="2.11069">
        <ele>118</ele>
        <time>2017-01-15T08:15:58.653Z</time>
      </trkpt>
      <trkpt lat="47.76466" lon="2.1106">
        <ele>118</ele>
        <time>2017-01-15T08:15:59.657Z</time>
      </trkpt>
      <trkpt lat="47.76466" lon="2.1106">
        <ele>118</ele>
        <time>2017-01-15T08:16:00.651Z</time>
      </trkpt>
      <trkpt lat="47.76462" lon="2.11042">
        <ele>118</ele>
        <time>2017-01-15T08:16:01.657Z</time>
      </trkpt>
      <trkpt lat="47.76462" lon="2.11042">
        <ele>118</ele>
        <time>2017-01-15T08:16:02.650Z</time>
      </trkpt>
      <trkpt lat="47.76458" lon="2.11025">
        <ele>118</ele>
        <time>2017-01-15T08:16:03.666Z</time>
      </trkpt>
      <trkpt lat="47.76456" lon="2.11016">
        <ele>118</ele>
        <time>2017-01-15T08:16:04.657Z</time>
      </trkpt>
      <trkpt lat="47.76455" lon="2.11007">
        <ele>117</ele>
        <time>2017-01-15T08:16:05.657Z</time>
      </trkpt>
      <trkpt lat="47.76455" lon="2.11007">
        <ele>117</ele>
        <time>2017-01-15T08:16:06.666Z</time>
      </trkpt>
      <trkpt lat="47.76451" lon="2.10991">
        <ele>117</ele>
        <time>2017-01-15T08:16:07.656Z</time>
      </trkpt>
      <trkpt lat="47.7645" lon="2.10982">
        <ele>117</ele>
        <time>2017-01-15T08:16:08.657Z</time>
      </trkpt>
      <trkpt lat="47.76449" lon="2.10971">
        <ele>117</ele>
        <time>2017-01-15T08:16:09.655Z</time>
      </trkpt>
      <trkpt lat="47.76449" lon="2.10971">
        <ele>117</ele>
        <time>2017-01-15T08:16:10.654Z</time>
      </trkpt>
      <trkpt lat="47.76446" lon="2.10955">
        <ele>116</ele>
        <time>2017-01-15T08:16:11.658Z</time>
      </trkpt>
      <trkpt lat="47.76446" lon="2.10955">
        <ele>116</ele>
        <time>2017-01-15T08:16:12.650Z</time>
      </trkpt>
      <trkpt lat="47.76443" lon="2.10941">
        <ele>116</ele>
        <time>2017-01-15T08:16:13.644Z</time>
      </trkpt>
      <trkpt lat="47.76442" lon="2.10936">
        <ele>116</ele>
        <time>2017-01-15T08:16:14.665Z</time>
      </trkpt>
      <trkpt lat="47.76442" lon="2.10936">
        <ele>116</ele>
        <time>2017-01-15T08:16:15.654Z</time>
      </trkpt>
      <trkpt lat="47.76441" lon="2.1093">
        <ele>116</ele>
        <time>2017-01-15T08:16:16.661Z</time>
      </trkpt>
      <trkpt lat="47.76441" lon="2.10927">
        <ele>117</ele>
        <time>2017-01-15T08:16:17.658Z</time>
      </trkpt>
      <trkpt lat="47.76441" lon="2.10927">
        <ele>117</ele>
        <time>2017-01-15T08:16:18.654Z</time>
      </trkpt>
      <trkpt lat="47.76438" lon="2.10928">
        <ele>117</ele>
        <time>2017-01-15T08:16:19.657Z</time>
      </trkpt>
      <trkpt lat="47.76438" lon="2.10928">
        <ele>117</ele>
        <time>2017-01-15T08:16:20.654Z</time>
      </trkpt>
      <trkpt lat="47.76438" lon="2.10927">
        <ele>117</ele>
        <time>2017-01-15T08:16:21.658Z</time>
      </trkpt>
      <trkpt lat="47.76438" lon="2.10927">
        <ele>117</ele>
        <time>2017-01-15T08:16:22.654Z</time>
      </trkpt>
      <trkpt lat="47.76434" lon="2.10924">
        <ele>120</ele>
        <time>2017-01-15T08:16:23.652Z</time>
      </trkpt>
      <trkpt lat="47.76434" lon="2.10924">
        <ele>120</ele>
        <time>2017-01-15T08:16:24.642Z</time>
      </trkpt>
      <trkpt lat="47.76432" lon="2.10925">
        <ele>120</ele>
        <time>2017-01-15T08:16:25.652Z</time>
      </trkpt>
      <trkpt lat="47.76432" lon="2.10925">
        <ele>120</ele>
        <time>2017-01-15T08:16:26.652Z</time>
      </trkpt>
      <trkpt lat="47.76429" lon="2.10928">
        <ele>120</ele>
        <time>2017-01-15T08:16:27.645Z</time>
      </trkpt>
      <trkpt lat="47.76429" lon="2.10928">
        <ele>120</ele>
        <time>2017-01-15T08:16:28.638Z</time>
      </trkpt>
      <trkpt lat="47.76426" lon="2.1093">
        <ele>120</ele>
        <time>2017-01-15T08:16:29.644Z</time>
      </trkpt>
      <trkpt lat="47.76426" lon="2.1093">
        <ele>120</ele>
        <time>2017-01-15T08:16:30.654Z</time>
      </trkpt>
      <trkpt lat="47.76424" lon="2.10933">
        <ele>121</ele>
        <time>2017-01-15T08:16:31.644Z</time>
      </trkpt>
      <trkpt lat="47.76424" lon="2.10933">
        <ele>121</ele>
        <time>2017-01-15T08:16:32.648Z</time>
      </trkpt>
      <trkpt lat="47.7642" lon="2.10938">
        <ele>121</ele>
        <time>2017-01-15T08:16:33.644Z</time>
      </trkpt>
      <trkpt lat="47.7642" lon="2.10938">
        <ele>121</ele>
        <time>2017-01-15T08:16:34.643Z</time>
      </trkpt>
      <trkpt lat="47.76416" lon="2.10942">
        <ele>121</ele>
        <time>2017-01-15T08:16:35.647Z</time>
      </trkpt>
      <trkpt lat="47.76416" lon="2.10942">
        <ele>121</ele>
        <time>2017-01-15T08:16:36.641Z</time>
      </trkpt>
      <trkpt lat="47.76413" lon="2.10946">
        <ele>122</ele>
        <time>2017-01-15T08:16:37.646Z</time>
      </trkpt>
      <trkpt lat="47.76413" lon="2.10946">
        <ele>122</ele>
        <time>2017-01-15T08:16:38.643Z</time>
      </trkpt>
      <trkpt lat="47.76409" lon="2.10949">
        <ele>122</ele>
        <time>2017-01-15T08:16:39.644Z</time>
      </trkpt>
      <trkpt lat="47.76407" lon="2.10951">
        <ele>122</ele>
        <time>2017-01-15T08:16:40.649Z</time>
      </trkpt>
      <trkpt lat="47.76407" lon="2.10951">
        <ele>122</ele>
        <time>2017-01-15T08:16:41.643Z</time>
      </trkpt>
      <trkpt lat="47.76403" lon="2.10956">
        <ele>122</ele>
        <time>2017-01-15T08:16:42.642Z</time>
      </trkpt>
      <trkpt lat="47.764" lon="2.10958">
        <ele>122</ele>
        <time>2017-01-15T08:16:43.645Z</time>
      </trkpt>
      <trkpt lat="47.764" lon="2.10958">
        <ele>122</ele>
        <time>2017-01-15T08:16:44.643Z</time>
      </trkpt>
      <trkpt lat="47.76396" lon="2.10962">
        <ele>122</ele>
        <time>2017-01-15T08:16:45.644Z</time>
      </trkpt>
      <trkpt lat="47.76396" lon="2.10962">
        <ele>122</ele>
        <time>2017-01-15T08:16:46.644Z</time>
      </trkpt>
      <trkpt lat="47.76392" lon="2.10967">
        <ele>123</ele>
        <time>2017-01-15T08:16:47.645Z</time>
      </trkpt>
      <trkpt lat="47.76392" lon="2.10967">
        <ele>123</ele>
        <time>2017-01-15T08:16:48.644Z</time>
      </trkpt>
      <trkpt lat="47.76388" lon="2.10972">
        <ele>123</ele>
        <time>2017-01-15T08:16:49.644Z</time>
      </trkpt>
      <trkpt lat="47.76388" lon="2.10972">
        <ele>123</ele>
        <time>2017-01-15T08:16:50.638Z</time>
      </trkpt>
      <trkpt lat="47.76383" lon="2.10977">
        <ele>123</ele>
        <time>2017-01-15T08:16:51.644Z</time>
      </trkpt>
      <trkpt lat="47.7638" lon="2.10979">
        <ele>123</ele>
        <time>2017-01-15T08:16:52.645Z</time>
      </trkpt>
      <trkpt lat="47.76377" lon="2.10982">
        <ele>123</ele>
        <time>2017-01-15T08:16:53.646Z</time>
      </trkpt>
      <trkpt lat="47.76377" lon="2.10982">
        <ele>123</ele>
        <time>2017-01-15T08:16:54.638Z</time>
      </trkpt>
      <trkpt lat="47.76371" lon="2.10988">
        <ele>124</ele>
        <time>2017-01-15T08:16:55.635Z</time>
      </trkpt>
      <trkpt lat="47.76368" lon="2.10991">
        <ele>124</ele>
        <time>2017-01-15T08:16:56.642Z</time>
      </trkpt>
      <trkpt lat="47.76368" lon="2.10991">
        <ele>124</ele>
        <time>2017-01-15T08:16:57.643Z</time>
      </trkpt>
      <trkpt lat="47.76362" lon="2.10998">
        <ele>124</ele>
        <time>2017-01-15T08:16:58.653Z</time>
      </trkpt>
      <trkpt lat="47.76359" lon="2.11001">
        <ele>123</ele>
        <time>2017-01-15T08:16:59.645Z</time>
      </trkpt>
      <trkpt lat="47.76359" lon="2.11001">
        <ele>123</ele>
        <time>2017-01-15T08:17:00.649Z</time>
      </trkpt>
      <trkpt lat="47.76354" lon="2.11007">
        <ele>123</ele>
        <time>2017-01-15T08:17:01.644Z</time>
      </trkpt>
      <trkpt lat="47.76351" lon="2.1101">
        <ele>123</ele>
        <time>2017-01-15T08:17:02.643Z</time>
      </trkpt>
      <trkpt lat="47.76351" lon="2.1101">
        <ele>123</ele>
        <time>2017-01-15T08:17:03.638Z</time>
      </trkpt>
      <trkpt lat="47.76345" lon="2.11016">
        <ele>123</ele>
        <time>2017-01-15T08:17:04.644Z</time>
      </trkpt>
      <trkpt lat="47.76341" lon="2.11019">
        <ele>123</ele>
        <time>2017-01-15T08:17:05.644Z</time>
      </trkpt>
      <trkpt lat="47.76341" lon="2.11019">
        <ele>123</ele>
        <time>2017-01-15T08:17:06.639Z</time>
      </trkpt>
      <trkpt lat="47.76335" lon="2.11026">
        <ele>122</ele>
        <time>2017-01-15T08:17:07.642Z</time>
      </trkpt>
      <trkpt lat="47.76335" lon="2.11026">
        <ele>122</ele>
        <time>2017-01-15T08:17:08.634Z</time>
      </trkpt>
      <trkpt lat="47.76327" lon="2.11034">
        <ele>122</ele>
        <time>2017-01-15T08:17:09.642Z</time>
      </trkpt>
      <trkpt lat="47.76324" lon="2.11038">
        <ele>122</ele>
        <time>2017-01-15T08:17:10.653Z</time>
      </trkpt>
      <trkpt lat="47.76324" lon="2.11038">
        <ele>122</ele>
        <time>2017-01-15T08:17:11.643Z</time>
      </trkpt>
      <trkpt lat="47.76316" lon="2.11047">
        <ele>122</ele>
        <time>2017-01-15T08:17:12.644Z</time>
      </trkpt>
      <trkpt lat="47.76312" lon="2.11051">
        <ele>122</ele>
        <time>2017-01-15T08:17:13.644Z</time>
      </trkpt>
      <trkpt lat="47.76312" lon="2.11051">
        <ele>122</ele>
        <time>2017-01-15T08:17:14.650Z</time>
      </trkpt>
      <trkpt lat="47.76303" lon="2.1106">
        <ele>121</ele>
        <time>2017-01-15T08:17:15.644Z</time>
      </trkpt>
      <trkpt lat="47.76303" lon="2.1106">
        <ele>121</ele>
        <time>2017-01-15T08:17:16.660Z</time>
      </trkpt>
      <trkpt lat="47.76294" lon="2.11069">
        <ele>120</ele>
        <time>2017-01-15T08:17:17.646Z</time>
      </trkpt>
      <trkpt lat="47.76294" lon="2.11069">
        <ele>120</ele>
        <time>2017-01-15T08:17:18.642Z</time>
      </trkpt>
      <trkpt lat="47.76284" lon="2.1108">
        <ele>120</ele>
        <time>2017-01-15T08:17:19.632Z</time>
      </trkpt>
      <trkpt lat="47.76284" lon="2.1108">
        <ele>120</ele>
        <time>2017-01-15T08:17:20.660Z</time>
      </trkpt>
      <trkpt lat="47.76274" lon="2.11091">
        <ele>119</ele>
        <time>2017-01-15T08:17:21.652Z</time>
      </trkpt>
      <trkpt lat="47.76274" lon="2.11091">
        <ele>119</ele>
        <time>2017-01-15T08:17:22.643Z</time>
      </trkpt>
      <trkpt lat="47.76263" lon="2.11102">
        <ele>119</ele>
        <time>2017-01-15T08:17:23.644Z</time>
      </trkpt>
      <trkpt lat="47.76263" lon="2.11102">
        <ele>119</ele>
        <time>2017-01-15T08:17:24.640Z</time>
      </trkpt>
      <trkpt lat="47.76252" lon="2.11114">
        <ele>118</ele>
        <time>2017-01-15T08:17:25.644Z</time>
      </trkpt>
      <trkpt lat="47.76252" lon="2.11114">
        <ele>118</ele>
        <time>2017-01-15T08:17:26.638Z</time>
      </trkpt>
      <trkpt lat="47.7624" lon="2.11126">
        <ele>117</ele>
        <time>2017-01-15T08:17:27.644Z</time>
      </trkpt>
      <trkpt lat="47.7624" lon="2.11126">
        <ele>117</ele>
        <time>2017-01-15T08:17:28.643Z</time>
      </trkpt>
      <trkpt lat="47.76228" lon="2.11139">
        <ele>117</ele>
        <time>2017-01-15T08:17:29.645Z</time>
      </trkpt>
      <trkpt lat="47.76228" lon="2.11139">
        <ele>117</ele>
        <time>2017-01-15T08:17:30.640Z</time>
      </trkpt>
      <trkpt lat="47.76217" lon="2.11151">
        <ele>117</ele>
        <time>2017-01-15T08:17:31.642Z</time>
      </trkpt>
      <trkpt lat="47.76217" lon="2.11151">
        <ele>117</ele>
        <time>2017-01-15T08:17:32.643Z</time>
      </trkpt>
      <trkpt lat="47.76206" lon="2.11162">
        <ele>116</ele>
        <time>2017-01-15T08:17:33.644Z</time>
      </trkpt>
      <trkpt lat="47.76206" lon="2.11162">
        <ele>116</ele>
        <time>2017-01-15T08:17:34.651Z</time>
      </trkpt>
      <trkpt lat="47.76196" lon="2.11173">
        <ele>116</ele>
        <time>2017-01-15T08:17:35.647Z</time>
      </trkpt>
      <trkpt lat="47.76196" lon="2.11173">
        <ele>116</ele>
        <time>2017-01-15T08:17:36.638Z</time>
      </trkpt>
      <trkpt lat="47.76187" lon="2.11182">
        <ele>116</ele>
        <time>2017-01-15T08:17:37.645Z</time>
      </trkpt>
      <trkpt lat="47.76183" lon="2.11187">
        <ele>116</ele>
        <time>2017-01-15T08:17:38.662Z</time>
      </trkpt>
      <trkpt lat="47.76183" lon="2.11187">
        <ele>116</ele>
        <time>2017-01-15T08:17:39.651Z</time>
      </trkpt>
      <trkpt lat="47.76175" lon="2.11195">
        <ele>116</ele>
        <time>2017-01-15T08:17:40.656Z</time>
      </trkpt>
      <trkpt lat="47.76172" lon="2.11199">
        <ele>116</ele>
        <time>2017-01-15T08:17:41.646Z</time>
      </trkpt>
      <trkpt lat="47.76168" lon="2.11203">
        <ele>116</ele>
        <time>2017-01-15T08:17:42.645Z</time>
      </trkpt>
      <trkpt lat="47.76165" lon="2.11206">
        <ele>116</ele>
        <time>2017-01-15T08:17:43.643Z</time>
      </trkpt>
      <trkpt lat="47.76165" lon="2.11206">
        <ele>116</ele>
        <time>2017-01-15T08:17:44.643Z</time>
      </trkpt>
      <trkpt lat="47.76159" lon="2.11214">
        <ele>117</ele>
        <time>2017-01-15T08:17:45.645Z</time>
      </trkpt>
      <trkpt lat="47.76159" lon="2.11214">
        <ele>117</ele>
        <time>2017-01-15T08:17:46.646Z</time>
      </trkpt>
      <trkpt lat="47.76152" lon="2.11221">
        <ele>117</ele>
        <time>2017-01-15T08:17:47.654Z</time>
      </trkpt>
      <trkpt lat="47.76152" lon="2.11221">
        <ele>117</ele>
        <time>2017-01-15T08:17:48.644Z</time>
      </trkpt>
      <trkpt lat="47.76145" lon="2.11228">
        <ele>117</ele>
        <time>2017-01-15T08:17:49.645Z</time>
      </trkpt>
      <trkpt lat="47.76142" lon="2.11231">
        <ele>118</ele>
        <time>2017-01-15T08:17:50.650Z</time>
      </trkpt>
      <trkpt lat="47.76139" lon="2.11234">
        <ele>118</ele>
        <time>2017-01-15T08:17:51.645Z</time>
      </trkpt>
      <trkpt lat="47.76139" lon="2.11234">
        <ele>118</ele>
        <time>2017-01-15T08:17:52.639Z</time>
      </trkpt>
      <trkpt lat="47.76132" lon="2.11241">
        <ele>118</ele>
        <time>2017-01-15T08:17:53.645Z</time>
      </trkpt>
      <trkpt lat="47.76132" lon="2.11241">
        <ele>118</ele>
        <time>2017-01-15T08:17:54.639Z</time>
      </trkpt>
      <trkpt lat="47.76126" lon="2.11248">
        <ele>118</ele>
        <time>2017-01-15T08:17:55.645Z</time>
      </trkpt>
      <trkpt lat="47.76126" lon="2.11248">
        <ele>118</ele>
        <time>2017-01-15T08:17:56.643Z</time>
      </trkpt>
      <trkpt lat="47.76119" lon="2.11255">
        <ele>118</ele>
        <time>2017-01-15T08:17:57.635Z</time>
      </trkpt>
      <trkpt lat="47.76115" lon="2.11259">
        <ele>118</ele>
        <time>2017-01-15T08:17:58.645Z</time>
      </trkpt>
      <trkpt lat="47.76115" lon="2.11259">
        <ele>118</ele>
        <time>2017-01-15T08:17:59.643Z</time>
      </trkpt>
      <trkpt lat="47.76109" lon="2.11266">
        <ele>118</ele>
        <time>2017-01-15T08:18:00.651Z</time>
      </trkpt>
      <trkpt lat="47.76106" lon="2.11269">
        <ele>119</ele>
        <time>2017-01-15T08:18:01.644Z</time>
      </trkpt>
      <trkpt lat="47.76106" lon="2.11269">
        <ele>119</ele>
        <time>2017-01-15T08:18:02.643Z</time>
      </trkpt>
      <trkpt lat="47.76098" lon="2.11274">
        <ele>119</ele>
        <time>2017-01-15T08:18:03.643Z</time>
      </trkpt>
      <trkpt lat="47.76098" lon="2.11274">
        <ele>119</ele>
        <time>2017-01-15T08:18:04.638Z</time>
      </trkpt>
      <trkpt lat="47.7609" lon="2.11276">
        <ele>120</ele>
        <time>2017-01-15T08:18:05.648Z</time>
      </trkpt>
      <trkpt lat="47.7609" lon="2.11276">
        <ele>120</ele>
        <time>2017-01-15T08:18:06.647Z</time>
      </trkpt>
      <trkpt lat="47.76082" lon="2.11273">
        <ele>121</ele>
        <time>2017-01-15T08:18:07.645Z</time>
      </trkpt>
      <trkpt lat="47.76082" lon="2.11273">
        <ele>121</ele>
        <time>2017-01-15T08:18:08.643Z</time>
      </trkpt>
      <trkpt lat="47.76075" lon="2.1127">
        <ele>121</ele>
        <time>2017-01-15T08:18:09.645Z</time>
      </trkpt>
      <trkpt lat="47.76075" lon="2.1127">
        <ele>121</ele>
        <time>2017-01-15T08:18:10.639Z</time>
      </trkpt>
      <trkpt lat="47.76067" lon="2.11269">
        <ele>121</ele>
        <time>2017-01-15T08:18:11.666Z</time>
      </trkpt>
      <trkpt lat="47.76067" lon="2.11269">
        <ele>121</ele>
        <time>2017-01-15T08:18:12.662Z</time>
      </trkpt>
      <trkpt lat="47.76059" lon="2.11267">
        <ele>121</ele>
        <time>2017-01-15T08:18:13.651Z</time>
      </trkpt>
      <trkpt lat="47.76055" lon="2.11266">
        <ele>121</ele>
        <time>2017-01-15T08:18:14.637Z</time>
      </trkpt>
      <trkpt lat="47.76055" lon="2.11266">
        <ele>121</ele>
        <time>2017-01-15T08:18:15.635Z</time>
      </trkpt>
      <trkpt lat="47.76047" lon="2.11264">
        <ele>121</ele>
        <time>2017-01-15T08:18:16.658Z</time>
      </trkpt>
      <trkpt lat="47.76043" lon="2.11263">
        <ele>121</ele>
        <time>2017-01-15T08:18:17.649Z</time>
      </trkpt>
      <trkpt lat="47.76043" lon="2.11263">
        <ele>121</ele>
        <time>2017-01-15T08:18:18.644Z</time>
      </trkpt>
      <trkpt lat="47.76033" lon="2.1126">
        <ele>121</ele>
        <time>2017-01-15T08:18:19.645Z</time>
      </trkpt>
      <trkpt lat="47.76029" lon="2.11259">
        <ele>121</ele>
        <time>2017-01-15T08:18:20.653Z</time>
      </trkpt>
      <trkpt lat="47.76029" lon="2.11259">
        <ele>121</ele>
        <time>2017-01-15T08:18:21.643Z</time>
      </trkpt>
      <trkpt lat="47.76019" lon="2.11256">
        <ele>121</ele>
        <time>2017-01-15T08:18:22.645Z</time>
      </trkpt>
      <trkpt lat="47.76015" lon="2.11254">
        <ele>121</ele>
        <time>2017-01-15T08:18:23.646Z</time>
      </trkpt>
      <trkpt lat="47.76015" lon="2.11254">
        <ele>121</ele>
        <time>2017-01-15T08:18:24.644Z</time>
      </trkpt>
      <trkpt lat="47.76005" lon="2.1125">
        <ele>121</ele>
        <time>2017-01-15T08:18:25.646Z</time>
      </trkpt>
      <trkpt lat="47.76001" lon="2.11247">
        <ele>121</ele>
        <time>2017-01-15T08:18:26.645Z</time>
      </trkpt>
      <trkpt lat="47.76001" lon="2.11247">
        <ele>121</ele>
        <time>2017-01-15T08:18:27.643Z</time>
      </trkpt>
      <trkpt lat="47.75991" lon="2.11243">
        <ele>121</ele>
        <time>2017-01-15T08:18:28.646Z</time>
      </trkpt>
      <trkpt lat="47.75991" lon="2.11243">
        <ele>121</ele>
        <time>2017-01-15T08:18:29.643Z</time>
      </trkpt>
      <trkpt lat="47.7598" lon="2.11239">
        <ele>121</ele>
        <time>2017-01-15T08:18:30.650Z</time>
      </trkpt>
      <trkpt lat="47.7598" lon="2.11239">
        <ele>121</ele>
        <time>2017-01-15T08:18:31.643Z</time>
      </trkpt>
      <trkpt lat="47.7597" lon="2.11236">
        <ele>122</ele>
        <time>2017-01-15T08:18:32.644Z</time>
      </trkpt>
      <trkpt lat="47.7597" lon="2.11236">
        <ele>122</ele>
        <time>2017-01-15T08:18:33.638Z</time>
      </trkpt>
      <trkpt lat="47.7596" lon="2.11232">
        <ele>122</ele>
        <time>2017-01-15T08:18:34.643Z</time>
      </trkpt>
      <trkpt lat="47.75955" lon="2.11231">
        <ele>122</ele>
        <time>2017-01-15T08:18:35.646Z</time>
      </trkpt>
      <trkpt lat="47.75955" lon="2.11231">
        <ele>122</ele>
        <time>2017-01-15T08:18:36.644Z</time>
      </trkpt>
      <trkpt lat="47.75944" lon="2.11227">
        <ele>122</ele>
        <time>2017-01-15T08:18:37.661Z</time>
      </trkpt>
      <trkpt lat="47.75939" lon="2.11225">
        <ele>122</ele>
        <time>2017-01-15T08:18:38.651Z</time>
      </trkpt>
      <trkpt lat="47.75939" lon="2.11225">
        <ele>122</ele>
        <time>2017-01-15T08:18:39.643Z</time>
      </trkpt>
      <trkpt lat="47.75929" lon="2.11222">
        <ele>121</ele>
        <time>2017-01-15T08:18:40.650Z</time>
      </trkpt>
      <trkpt lat="47.75924" lon="2.1122">
        <ele>121</ele>
        <time>2017-01-15T08:18:41.647Z</time>
      </trkpt>
      <trkpt lat="47.75924" lon="2.1122">
        <ele>121</ele>
        <time>2017-01-15T08:18:42.648Z</time>
      </trkpt>
      <trkpt lat="47.75914" lon="2.11217">
        <ele>121</ele>
        <time>2017-01-15T08:18:43.644Z</time>
      </trkpt>
      <trkpt lat="47.75914" lon="2.11217">
        <ele>121</ele>
        <time>2017-01-15T08:18:44.643Z</time>
      </trkpt>
      <trkpt lat="47.75903" lon="2.11214">
        <ele>121</ele>
        <time>2017-01-15T08:18:45.647Z</time>
      </trkpt>
      <trkpt lat="47.75903" lon="2.11214">
        <ele>121</ele>
        <time>2017-01-15T08:18:46.639Z</time>
      </trkpt>
      <trkpt lat="47.75893" lon="2.1121">
        <ele>121</ele>
        <time>2017-01-15T08:18:47.647Z</time>
      </trkpt>
      <trkpt lat="47.75893" lon="2.1121">
        <ele>121</ele>
        <time>2017-01-15T08:18:48.645Z</time>
      </trkpt>
      <trkpt lat="47.75883" lon="2.11207">
        <ele>121</ele>
        <time>2017-01-15T08:18:49.637Z</time>
      </trkpt>
      <trkpt lat="47.75878" lon="2.11206">
        <ele>121</ele>
        <time>2017-01-15T08:18:50.651Z</time>
      </trkpt>
      <trkpt lat="47.75878" lon="2.11206">
        <ele>121</ele>
        <time>2017-01-15T08:18:51.644Z</time>
      </trkpt>
      <trkpt lat="47.75868" lon="2.11203">
        <ele>122</ele>
        <time>2017-01-15T08:18:52.645Z</time>
      </trkpt>
      <trkpt lat="47.75863" lon="2.11202">
        <ele>122</ele>
        <time>2017-01-15T08:18:53.647Z</time>
      </trkpt>
      <trkpt lat="47.75863" lon="2.11202">
        <ele>122</ele>
        <time>2017-01-15T08:18:54.638Z</time>
      </trkpt>
      <trkpt lat="47.75853" lon="2.11199">
        <ele>122</ele>
        <time>2017-01-15T08:18:55.644Z</time>
      </trkpt>
      <trkpt lat="47.75853" lon="2.11199">
        <ele>122</ele>
        <time>2017-01-15T08:18:56.639Z</time>
      </trkpt>
      <trkpt lat="47.75843" lon="2.11195">
        <ele>122</ele>
        <time>2017-01-15T08:18:57.645Z</time>
      </trkpt>
      <trkpt lat="47.75838" lon="2.11193">
        <ele>122</ele>
        <time>2017-01-15T08:18:58.646Z</time>
      </trkpt>
      <trkpt lat="47.75838" lon="2.11193">
        <ele>122</ele>
        <time>2017-01-15T08:18:59.655Z</time>
      </trkpt>
      <trkpt lat="47.75828" lon="2.1119">
        <ele>122</ele>
        <time>2017-01-15T08:19:00.665Z</time>
      </trkpt>
      <trkpt lat="47.75823" lon="2.11187">
        <ele>122</ele>
        <time>2017-01-15T08:19:01.657Z</time>
      </trkpt>
      <trkpt lat="47.75823" lon="2.11187">
        <ele>122</ele>
        <time>2017-01-15T08:19:02.645Z</time>
      </trkpt>
      <trkpt lat="47.75813" lon="2.11184">
        <ele>121</ele>
        <time>2017-01-15T08:19:03.646Z</time>
      </trkpt>
      <trkpt lat="47.75807" lon="2.11182">
        <ele>121</ele>
        <time>2017-01-15T08:19:04.645Z</time>
      </trkpt>
      <trkpt lat="47.75807" lon="2.11182">
        <ele>121</ele>
        <time>2017-01-15T08:19:05.652Z</time>
      </trkpt>
      <trkpt lat="47.75797" lon="2.11178">
        <ele>121</ele>
        <time>2017-01-15T08:19:06.658Z</time>
      </trkpt>
      <trkpt lat="47.75792" lon="2.11176">
        <ele>121</ele>
        <time>2017-01-15T08:19:07.646Z</time>
      </trkpt>
      <trkpt lat="47.75792" lon="2.11176">
        <ele>121</ele>
        <time>2017-01-15T08:19:08.638Z</time>
      </trkpt>
      <trkpt lat="47.75781" lon="2.11173">
        <ele>120</ele>
        <time>2017-01-15T08:19:09.645Z</time>
      </trkpt>
      <trkpt lat="47.75777" lon="2.11172">
        <ele>120</ele>
        <time>2017-01-15T08:19:10.650Z</time>
      </trkpt>
      <trkpt lat="47.75777" lon="2.11172">
        <ele>120</ele>
        <time>2017-01-15T08:19:11.644Z</time>
      </trkpt>
      <trkpt lat="47.75766" lon="2.11169">
        <ele>120</ele>
        <time>2017-01-15T08:19:12.646Z</time>
      </trkpt>
      <trkpt lat="47.75761" lon="2.11167">
        <ele>120</ele>
        <time>2017-01-15T08:19:13.645Z</time>
      </trkpt>
      <trkpt lat="47.75761" lon="2.11167">
        <ele>120</ele>
        <time>2017-01-15T08:19:14.635Z</time>
      </trkpt>
      <trkpt lat="47.75751" lon="2.11164">
        <ele>121</ele>
        <time>2017-01-15T08:19:15.649Z</time>
      </trkpt>
      <trkpt lat="47.75751" lon="2.11164">
        <ele>121</ele>
        <time>2017-01-15T08:19:16.660Z</time>
      </trkpt>
      <trkpt lat="47.7574" lon="2.1116">
        <ele>121</ele>
        <time>2017-01-15T08:19:17.647Z</time>
      </trkpt>
      <trkpt lat="47.7574" lon="2.1116">
        <ele>121</ele>
        <time>2017-01-15T08:19:18.639Z</time>
      </trkpt>
      <trkpt lat="47.7573" lon="2.11157">
        <ele>120</ele>
        <time>2017-01-15T08:19:19.646Z</time>
      </trkpt>
      <trkpt lat="47.7573" lon="2.11157">
        <ele>120</ele>
        <time>2017-01-15T08:19:20.639Z</time>
      </trkpt>
      <trkpt lat="47.75719" lon="2.11153">
        <ele>120</ele>
        <time>2017-01-15T08:19:21.646Z</time>
      </trkpt>
      <trkpt lat="47.75714" lon="2.11152">
        <ele>120</ele>
        <time>2017-01-15T08:19:22.647Z</time>
      </trkpt>
      <trkpt lat="47.75709" lon="2.1115">
        <ele>120</ele>
        <time>2017-01-15T08:19:23.646Z</time>
      </trkpt>
      <trkpt lat="47.75709" lon="2.1115">
        <ele>120</ele>
        <time>2017-01-15T08:19:24.645Z</time>
      </trkpt>
      <trkpt lat="47.75699" lon="2.11146">
        <ele>120</ele>
        <time>2017-01-15T08:19:25.646Z</time>
      </trkpt>
      <trkpt lat="47.75693" lon="2.11145">
        <ele>120</ele>
        <time>2017-01-15T08:19:26.646Z</time>
      </trkpt>
      <trkpt lat="47.75688" lon="2.11143">
        <ele>120</ele>
        <time>2017-01-15T08:19:27.644Z</time>
      </trkpt>
      <trkpt lat="47.75688" lon="2.11143">
        <ele>120</ele>
        <time>2017-01-15T08:19:28.640Z</time>
      </trkpt>
      <trkpt lat="47.75677" lon="2.1114">
        <ele>121</ele>
        <time>2017-01-15T08:19:29.646Z</time>
      </trkpt>
      <trkpt lat="47.75677" lon="2.1114">
        <ele>121</ele>
        <time>2017-01-15T08:19:30.653Z</time>
      </trkpt>
      <trkpt lat="47.75667" lon="2.11137">
        <ele>121</ele>
        <time>2017-01-15T08:19:31.645Z</time>
      </trkpt>
      <trkpt lat="47.75667" lon="2.11137">
        <ele>121</ele>
        <time>2017-01-15T08:19:32.639Z</time>
      </trkpt>
      <trkpt lat="47.75656" lon="2.11134">
        <ele>121</ele>
        <time>2017-01-15T08:19:33.645Z</time>
      </trkpt>
      <trkpt lat="47.75656" lon="2.11134">
        <ele>121</ele>
        <time>2017-01-15T08:19:34.638Z</time>
      </trkpt>
      <trkpt lat="47.75646" lon="2.11131">
        <ele>121</ele>
        <time>2017-01-15T08:19:35.646Z</time>
      </trkpt>
      <trkpt lat="47.75646" lon="2.11131">
        <ele>121</ele>
        <time>2017-01-15T08:19:36.639Z</time>
      </trkpt>
      <trkpt lat="47.75635" lon="2.11128">
        <ele>121</ele>
        <time>2017-01-15T08:19:37.658Z</time>
      </trkpt>
      <trkpt lat="47.75629" lon="2.11127">
        <ele>121</ele>
        <time>2017-01-15T08:19:38.647Z</time>
      </trkpt>
      <trkpt lat="47.75629" lon="2.11127">
        <ele>121</ele>
        <time>2017-01-15T08:19:39.639Z</time>
      </trkpt>
      <trkpt lat="47.75618" lon="2.11123">
        <ele>121</ele>
        <time>2017-01-15T08:19:40.647Z</time>
      </trkpt>
      <trkpt lat="47.75613" lon="2.11121">
        <ele>120</ele>
        <time>2017-01-15T08:19:41.646Z</time>
      </trkpt>
      <trkpt lat="47.75607" lon="2.1112">
        <ele>121</ele>
        <time>2017-01-15T08:19:42.646Z</time>
      </trkpt>
      <trkpt lat="47.75602" lon="2.11118">
        <ele>121</ele>
        <time>2017-01-15T08:19:43.646Z</time>
      </trkpt>
      <trkpt lat="47.75602" lon="2.11118">
        <ele>121</ele>
        <time>2017-01-15T08:19:44.644Z</time>
      </trkpt>
      <trkpt lat="47.75591" lon="2.11114">
        <ele>121</ele>
        <time>2017-01-15T08:19:45.645Z</time>
      </trkpt>
      <trkpt lat="47.75591" lon="2.11114">
        <ele>121</ele>
        <time>2017-01-15T08:19:46.639Z</time>
      </trkpt>
      <trkpt lat="47.75581" lon="2.1111">
        <ele>121</ele>
        <time>2017-01-15T08:19:47.645Z</time>
      </trkpt>
      <trkpt lat="47.75581" lon="2.1111">
        <ele>121</ele>
        <time>2017-01-15T08:19:48.645Z</time>
      </trkpt>
      <trkpt lat="47.7557" lon="2.11106">
        <ele>121</ele>
        <time>2017-01-15T08:19:49.645Z</time>
      </trkpt>
      <trkpt lat="47.75565" lon="2.11104">
        <ele>121</ele>
        <time>2017-01-15T08:19:50.650Z</time>
      </trkpt>
      <trkpt lat="47.75565" lon="2.11104">
        <ele>121</ele>
        <time>2017-01-15T08:19:51.639Z</time>
      </trkpt>
      <trkpt lat="47.75554" lon="2.111">
        <ele>121</ele>
        <time>2017-01-15T08:19:52.643Z</time>
      </trkpt>
      <trkpt lat="47.75549" lon="2.11098">
        <ele>121</ele>
        <time>2017-01-15T08:19:53.652Z</time>
      </trkpt>
      <trkpt lat="47.75549" lon="2.11098">
        <ele>121</ele>
        <time>2017-01-15T08:19:54.639Z</time>
      </trkpt>
      <trkpt lat="47.75538" lon="2.11094">
        <ele>121</ele>
        <time>2017-01-15T08:19:55.645Z</time>
      </trkpt>
      <trkpt lat="47.75538" lon="2.11094">
        <ele>121</ele>
        <time>2017-01-15T08:19:56.639Z</time>
      </trkpt>
      <trkpt lat="47.75527" lon="2.11091">
        <ele>121</ele>
        <time>2017-01-15T08:19:57.645Z</time>
      </trkpt>
      <trkpt lat="47.75527" lon="2.11091">
        <ele>121</ele>
        <time>2017-01-15T08:19:58.639Z</time>
      </trkpt>
      <trkpt lat="47.75517" lon="2.11088">
        <ele>121</ele>
        <time>2017-01-15T08:19:59.662Z</time>
      </trkpt>
      <trkpt lat="47.75517" lon="2.11088">
        <ele>121</ele>
        <time>2017-01-15T08:20:00.654Z</time>
      </trkpt>
      <trkpt lat="47.75506" lon="2.11085">
        <ele>122</ele>
        <time>2017-01-15T08:20:01.647Z</time>
      </trkpt>
      <trkpt lat="47.75506" lon="2.11085">
        <ele>122</ele>
        <time>2017-01-15T08:20:02.639Z</time>
      </trkpt>
      <trkpt lat="47.75495" lon="2.11081">
        <ele>122</ele>
        <time>2017-01-15T08:20:03.647Z</time>
      </trkpt>
      <trkpt lat="47.75495" lon="2.11081">
        <ele>122</ele>
        <time>2017-01-15T08:20:04.649Z</time>
      </trkpt>
      <trkpt lat="47.75485" lon="2.11078">
        <ele>122</ele>
        <time>2017-01-15T08:20:05.645Z</time>
      </trkpt>
      <trkpt lat="47.75485" lon="2.11078">
        <ele>122</ele>
        <time>2017-01-15T08:20:06.640Z</time>
      </trkpt>
      <trkpt lat="47.75474" lon="2.11075">
        <ele>122</ele>
        <time>2017-01-15T08:20:07.646Z</time>
      </trkpt>
      <trkpt lat="47.75474" lon="2.11075">
        <ele>122</ele>
        <time>2017-01-15T08:20:08.638Z</time>
      </trkpt>
      <trkpt lat="47.75463" lon="2.11072">
        <ele>122</ele>
        <time>2017-01-15T08:20:09.646Z</time>
      </trkpt>
      <trkpt lat="47.75463" lon="2.11072">
        <ele>122</ele>
        <time>2017-01-15T08:20:10.651Z</time>
      </trkpt>
      <trkpt lat="47.75452" lon="2.11069">
        <ele>123</ele>
        <time>2017-01-15T08:20:11.648Z</time>
      </trkpt>
      <trkpt lat="47.75452" lon="2.11069">
        <ele>123</ele>
        <time>2017-01-15T08:20:12.645Z</time>
      </trkpt>
      <trkpt lat="47.75441" lon="2.11065">
        <ele>123</ele>
        <time>2017-01-15T08:20:13.645Z</time>
      </trkpt>
      <trkpt lat="47.75441" lon="2.11065">
        <ele>123</ele>
        <time>2017-01-15T08:20:14.644Z</time>
      </trkpt>
      <trkpt lat="47.7543" lon="2.11061">
        <ele>123</ele>
        <time>2017-01-15T08:20:15.644Z</time>
      </trkpt>
      <trkpt lat="47.75425" lon="2.11059">
        <ele>123</ele>
        <time>2017-01-15T08:20:16.633Z</time>
      </trkpt>
      <trkpt lat="47.75425" lon="2.11059">
        <ele>123</ele>
        <time>2017-01-15T08:20:17.655Z</time>
      </trkpt>
      <trkpt lat="47.75414" lon="2.11056">
        <ele>122</ele>
        <time>2017-01-15T08:20:18.647Z</time>
      </trkpt>
      <trkpt lat="47.75409" lon="2.11054">
        <ele>122</ele>
        <time>2017-01-15T08:20:19.646Z</time>
      </trkpt>
      <trkpt lat="47.75409" lon="2.11054">
        <ele>122</ele>
        <time>2017-01-15T08:20:20.638Z</time>
      </trkpt>
      <trkpt lat="47.75399" lon="2.11051">
        <ele>122</ele>
        <time>2017-01-15T08:20:21.633Z</time>
      </trkpt>
      <trkpt lat="47.75399" lon="2.11051">
        <ele>122</ele>
        <time>2017-01-15T08:20:22.661Z</time>
      </trkpt>
      <trkpt lat="47.75389" lon="2.11047">
        <ele>122</ele>
        <time>2017-01-15T08:20:23.649Z</time>
      </trkpt>
      <trkpt lat="47.75389" lon="2.11047">
        <ele>122</ele>
        <time>2017-01-15T08:20:24.645Z</time>
      </trkpt>
      <trkpt lat="47.75379" lon="2.11043">
        <ele>123</ele>
        <time>2017-01-15T08:20:25.646Z</time>
      </trkpt>
      <trkpt lat="47.75373" lon="2.11042">
        <ele>123</ele>
        <time>2017-01-15T08:20:26.646Z</time>
      </trkpt>
      <trkpt lat="47.75373" lon="2.11042">
        <ele>123</ele>
        <time>2017-01-15T08:20:27.644Z</time>
      </trkpt>
      <trkpt lat="47.75363" lon="2.11039">
        <ele>123</ele>
        <time>2017-01-15T08:20:28.646Z</time>
      </trkpt>
      <trkpt lat="47.75358" lon="2.11037">
        <ele>123</ele>
        <time>2017-01-15T08:20:29.646Z</time>
      </trkpt>
      <trkpt lat="47.75358" lon="2.11037">
        <ele>123</ele>
        <time>2017-01-15T08:20:30.650Z</time>
      </trkpt>
      <trkpt lat="47.75348" lon="2.11033">
        <ele>124</ele>
        <time>2017-01-15T08:20:31.646Z</time>
      </trkpt>
      <trkpt lat="47.75348" lon="2.11033">
        <ele>124</ele>
        <time>2017-01-15T08:20:32.639Z</time>
      </trkpt>
      <trkpt lat="47.75338" lon="2.11031">
        <ele>124</ele>
        <time>2017-01-15T08:20:33.652Z</time>
      </trkpt>
      <trkpt lat="47.75338" lon="2.11031">
        <ele>124</ele>
        <time>2017-01-15T08:20:34.644Z</time>
      </trkpt>
      <trkpt lat="47.75327" lon="2.11028">
        <ele>124</ele>
        <time>2017-01-15T08:20:35.646Z</time>
      </trkpt>
      <trkpt lat="47.75327" lon="2.11028">
        <ele>124</ele>
        <time>2017-01-15T08:20:36.639Z</time>
      </trkpt>
      <trkpt lat="47.75318" lon="2.11024">
        <ele>124</ele>
        <time>2017-01-15T08:20:37.644Z</time>
      </trkpt>
      <trkpt lat="47.75318" lon="2.11024">
        <ele>124</ele>
        <time>2017-01-15T08:20:38.644Z</time>
      </trkpt>
      <trkpt lat="47.75307" lon="2.11021">
        <ele>124</ele>
        <time>2017-01-15T08:20:39.666Z</time>
      </trkpt>
      <trkpt lat="47.75307" lon="2.11021">
        <ele>124</ele>
        <time>2017-01-15T08:20:40.630Z</time>
      </trkpt>
      <trkpt lat="47.75297" lon="2.11017">
        <ele>124</ele>
        <time>2017-01-15T08:20:41.659Z</time>
      </trkpt>
      <trkpt lat="47.75297" lon="2.11017">
        <ele>124</ele>
        <time>2017-01-15T08:20:42.647Z</time>
      </trkpt>
      <trkpt lat="47.75287" lon="2.11014">
        <ele>124</ele>
        <time>2017-01-15T08:20:43.645Z</time>
      </trkpt>
      <trkpt lat="47.75287" lon="2.11014">
        <ele>124</ele>
        <time>2017-01-15T08:20:44.650Z</time>
      </trkpt>
      <trkpt lat="47.75277" lon="2.11011">
        <ele>124</ele>
        <time>2017-01-15T08:20:45.646Z</time>
      </trkpt>
      <trkpt lat="47.75277" lon="2.11011">
        <ele>124</ele>
        <time>2017-01-15T08:20:46.641Z</time>
      </trkpt>
      <trkpt lat="47.75269" lon="2.11009">
        <ele>124</ele>
        <time>2017-01-15T08:20:47.648Z</time>
      </trkpt>
      <trkpt lat="47.75269" lon="2.11009">
        <ele>124</ele>
        <time>2017-01-15T08:20:48.645Z</time>
      </trkpt>
      <trkpt lat="47.75263" lon="2.11007">
        <ele>125</ele>
        <time>2017-01-15T08:20:49.645Z</time>
      </trkpt>
      <trkpt lat="47.75259" lon="2.11006">
        <ele>125</ele>
        <time>2017-01-15T08:20:50.650Z</time>
      </trkpt>
      <trkpt lat="47.75259" lon="2.11006">
        <ele>125</ele>
        <time>2017-01-15T08:20:51.644Z</time>
      </trkpt>
      <trkpt lat="47.75253" lon="2.11003">
        <ele>126</ele>
        <time>2017-01-15T08:20:52.646Z</time>
      </trkpt>
      <trkpt lat="47.75253" lon="2.11003">
        <ele>126</ele>
        <time>2017-01-15T08:20:53.644Z</time>
      </trkpt>
      <trkpt lat="47.75245" lon="2.11006">
        <ele>126</ele>
        <time>2017-01-15T08:20:54.645Z</time>
      </trkpt>
      <trkpt lat="47.75242" lon="2.11011">
        <ele>125</ele>
        <time>2017-01-15T08:20:55.646Z</time>
      </trkpt>
      <trkpt lat="47.75242" lon="2.11011">
        <ele>125</ele>
        <time>2017-01-15T08:20:56.644Z</time>
      </trkpt>
      <trkpt lat="47.75237" lon="2.11025">
        <ele>126</ele>
        <time>2017-01-15T08:20:57.645Z</time>
      </trkpt>
      <trkpt lat="47.75235" lon="2.11033">
        <ele>127</ele>
        <time>2017-01-15T08:20:58.645Z</time>
      </trkpt>
      <trkpt lat="47.75233" lon="2.1104">
        <ele>127</ele>
        <time>2017-01-15T08:20:59.647Z</time>
      </trkpt>
      <trkpt lat="47.75233" lon="2.1104">
        <ele>127</ele>
        <time>2017-01-15T08:21:00.645Z</time>
      </trkpt>
      <trkpt lat="47.75229" lon="2.11055">
        <ele>127</ele>
        <time>2017-01-15T08:21:01.646Z</time>
      </trkpt>
      <trkpt lat="47.75229" lon="2.11055">
        <ele>127</ele>
        <time>2017-01-15T08:21:02.661Z</time>
      </trkpt>
      <trkpt lat="47.75226" lon="2.1107">
        <ele>127</ele>
        <time>2017-01-15T08:21:03.662Z</time>
      </trkpt>
      <trkpt lat="47.75226" lon="2.1107">
        <ele>127</ele>
        <time>2017-01-15T08:21:04.650Z</time>
      </trkpt>
      <trkpt lat="47.7522" lon="2.11085">
        <ele>128</ele>
        <time>2017-01-15T08:21:05.647Z</time>
      </trkpt>
      <trkpt lat="47.7522" lon="2.11085">
        <ele>128</ele>
        <time>2017-01-15T08:21:06.645Z</time>
      </trkpt>
      <trkpt lat="47.75217" lon="2.111">
        <ele>128</ele>
        <time>2017-01-15T08:21:07.665Z</time>
      </trkpt>
      <trkpt lat="47.75217" lon="2.111">
        <ele>128</ele>
        <time>2017-01-15T08:21:08.653Z</time>
      </trkpt>
      <trkpt lat="47.75214" lon="2.11115">
        <ele>129</ele>
        <time>2017-01-15T08:21:09.647Z</time>
      </trkpt>
      <trkpt lat="47.75214" lon="2.11115">
        <ele>129</ele>
        <time>2017-01-15T08:21:10.644Z</time>
      </trkpt>
      <trkpt lat="47.75212" lon="2.11131">
        <ele>130</ele>
        <time>2017-01-15T08:21:11.647Z</time>
      </trkpt>
      <trkpt lat="47.75212" lon="2.11131">
        <ele>130</ele>
        <time>2017-01-15T08:21:12.647Z</time>
      </trkpt>
      <trkpt lat="47.75213" lon="2.11146">
        <ele>131</ele>
        <time>2017-01-15T08:21:13.645Z</time>
      </trkpt>
      <trkpt lat="47.75213" lon="2.11146">
        <ele>131</ele>
        <time>2017-01-15T08:21:14.639Z</time>
      </trkpt>
      <trkpt lat="47.75214" lon="2.11161">
        <ele>132</ele>
        <time>2017-01-15T08:21:15.652Z</time>
      </trkpt>
      <trkpt lat="47.75214" lon="2.11161">
        <ele>132</ele>
        <time>2017-01-15T08:21:16.660Z</time>
      </trkpt>
      <trkpt lat="47.75218" lon="2.11176">
        <ele>131</ele>
        <time>2017-01-15T08:21:17.648Z</time>
      </trkpt>
      <trkpt lat="47.75218" lon="2.11176">
        <ele>131</ele>
        <time>2017-01-15T08:21:18.646Z</time>
      </trkpt>
      <trkpt lat="47.75224" lon="2.11191">
        <ele>132</ele>
        <time>2017-01-15T08:21:19.645Z</time>
      </trkpt>
      <trkpt lat="47.75224" lon="2.11191">
        <ele>132</ele>
        <time>2017-01-15T08:21:20.666Z</time>
      </trkpt>
      <trkpt lat="47.75229" lon="2.11207">
        <ele>131</ele>
        <time>2017-01-15T08:21:21.648Z</time>
      </trkpt>
      <trkpt lat="47.75229" lon="2.11207">
        <ele>131</ele>
        <time>2017-01-15T08:21:22.644Z</time>
      </trkpt>
      <trkpt lat="47.75234" lon="2.11224">
        <ele>131</ele>
        <time>2017-01-15T08:21:23.648Z</time>
      </trkpt>
      <trkpt lat="47.75234" lon="2.11224">
        <ele>131</ele>
        <time>2017-01-15T08:21:24.640Z</time>
      </trkpt>
      <trkpt lat="47.75239" lon="2.1124">
        <ele>131</ele>
        <time>2017-01-15T08:21:25.646Z</time>
      </trkpt>
      <trkpt lat="47.75242" lon="2.11247">
        <ele>132</ele>
        <time>2017-01-15T08:21:26.645Z</time>
      </trkpt>
      <trkpt lat="47.75244" lon="2.11255">
        <ele>131</ele>
        <time>2017-01-15T08:21:27.647Z</time>
      </trkpt>
      <trkpt lat="47.75244" lon="2.11255">
        <ele>131</ele>
        <time>2017-01-15T08:21:28.639Z</time>
      </trkpt>
      <trkpt lat="47.75248" lon="2.11271">
        <ele>131</ele>
        <time>2017-01-15T08:21:29.647Z</time>
      </trkpt>
      <trkpt lat="47.75248" lon="2.11271">
        <ele>131</ele>
        <time>2017-01-15T08:21:30.640Z</time>
      </trkpt>
      <trkpt lat="47.75253" lon="2.11287">
        <ele>131</ele>
        <time>2017-01-15T08:21:31.660Z</time>
      </trkpt>
      <trkpt lat="47.75256" lon="2.11295">
        <ele>131</ele>
        <time>2017-01-15T08:21:32.648Z</time>
      </trkpt>
      <trkpt lat="47.75256" lon="2.11295">
        <ele>131</ele>
        <time>2017-01-15T08:21:33.639Z</time>
      </trkpt>
      <trkpt lat="47.75261" lon="2.11311">
        <ele>131</ele>
        <time>2017-01-15T08:21:34.646Z</time>
      </trkpt>
      <trkpt lat="47.75263" lon="2.1132">
        <ele>131</ele>
        <time>2017-01-15T08:21:35.647Z</time>
      </trkpt>
      <trkpt lat="47.75265" lon="2.11328">
        <ele>131</ele>
        <time>2017-01-15T08:21:36.647Z</time>
      </trkpt>
      <trkpt lat="47.75267" lon="2.11337">
        <ele>131</ele>
        <time>2017-01-15T08:21:37.645Z</time>
      </trkpt>
      <trkpt lat="47.75267" lon="2.11337">
        <ele>131</ele>
        <time>2017-01-15T08:21:38.644Z</time>
      </trkpt>
      <trkpt lat="47.75272" lon="2.11352">
        <ele>130</ele>
        <time>2017-01-15T08:21:39.646Z</time>
      </trkpt>
      <trkpt lat="47.75272" lon="2.11352">
        <ele>130</ele>
        <time>2017-01-15T08:21:40.650Z</time>
      </trkpt>
      <trkpt lat="47.75276" lon="2.11367">
        <ele>130</ele>
        <time>2017-01-15T08:21:41.648Z</time>
      </trkpt>
      <trkpt lat="47.75278" lon="2.11375">
        <ele>130</ele>
        <time>2017-01-15T08:21:42.647Z</time>
      </trkpt>
      <trkpt lat="47.7528" lon="2.11382">
        <ele>130</ele>
        <time>2017-01-15T08:21:43.646Z</time>
      </trkpt>
      <trkpt lat="47.7528" lon="2.11382">
        <ele>130</ele>
        <time>2017-01-15T08:21:44.639Z</time>
      </trkpt>
      <trkpt lat="47.75284" lon="2.11396">
        <ele>129</ele>
        <time>2017-01-15T08:21:45.646Z</time>
      </trkpt>
      <trkpt lat="47.75284" lon="2.11396">
        <ele>129</ele>
        <time>2017-01-15T08:21:46.645Z</time>
      </trkpt>
      <trkpt lat="47.75287" lon="2.11409">
        <ele>128</ele>
        <time>2017-01-15T08:21:47.647Z</time>
      </trkpt>
      <trkpt lat="47.75287" lon="2.11409">
        <ele>128</ele>
        <time>2017-01-15T08:21:48.646Z</time>
      </trkpt>
      <trkpt lat="47.75289" lon="2.11422">
        <ele>128</ele>
        <time>2017-01-15T08:21:49.647Z</time>
      </trkpt>
      <trkpt lat="47.75289" lon="2.11427">
        <ele>128</ele>
        <time>2017-01-15T08:21:50.648Z</time>
      </trkpt>
      <trkpt lat="47.75289" lon="2.11427">
        <ele>128</ele>
        <time>2017-01-15T08:21:51.638Z</time>
      </trkpt>
      <trkpt lat="47.75284" lon="2.11435">
        <ele>128</ele>
        <time>2017-01-15T08:21:52.645Z</time>
      </trkpt>
      <trkpt lat="47.75279" lon="2.11437">
        <ele>129</ele>
        <time>2017-01-15T08:21:53.648Z</time>
      </trkpt>
      <trkpt lat="47.75279" lon="2.11437">
        <ele>129</ele>
        <time>2017-01-15T08:21:54.646Z</time>
      </trkpt>
      <trkpt lat="47.75269" lon="2.1144">
        <ele>129</ele>
        <time>2017-01-15T08:21:55.646Z</time>
      </trkpt>
      <trkpt lat="47.75269" lon="2.1144">
        <ele>129</ele>
        <time>2017-01-15T08:21:56.644Z</time>
      </trkpt>
      <trkpt lat="47.75258" lon="2.11442">
        <ele>129</ele>
        <time>2017-01-15T08:21:57.647Z</time>
      </trkpt>
      <trkpt lat="47.75258" lon="2.11442">
        <ele>129</ele>
        <time>2017-01-15T08:21:58.644Z</time>
      </trkpt>
      <trkpt lat="47.75248" lon="2.11445">
        <ele>129</ele>
        <time>2017-01-15T08:21:59.647Z</time>
      </trkpt>
      <trkpt lat="47.75248" lon="2.11445">
        <ele>129</ele>
        <time>2017-01-15T08:22:00.638Z</time>
      </trkpt>
      <trkpt lat="47.75237" lon="2.11449">
        <ele>128</ele>
        <time>2017-01-15T08:22:01.650Z</time>
      </trkpt>
      <trkpt lat="47.75231" lon="2.1145">
        <ele>128</ele>
        <time>2017-01-15T08:22:02.646Z</time>
      </trkpt>
      <trkpt lat="47.75231" lon="2.1145">
        <ele>128</ele>
        <time>2017-01-15T08:22:03.640Z</time>
      </trkpt>
      <trkpt lat="47.75221" lon="2.11452">
        <ele>128</ele>
        <time>2017-01-15T08:22:04.645Z</time>
      </trkpt>
      <trkpt lat="47.75216" lon="2.11454">
        <ele>128</ele>
        <time>2017-01-15T08:22:05.648Z</time>
      </trkpt>
      <trkpt lat="47.75216" lon="2.11454">
        <ele>128</ele>
        <time>2017-01-15T08:22:06.646Z</time>
      </trkpt>
      <trkpt lat="47.75203" lon="2.11455">
        <ele>128</ele>
        <time>2017-01-15T08:22:07.646Z</time>
      </trkpt>
      <trkpt lat="47.75203" lon="2.11455">
        <ele>128</ele>
        <time>2017-01-15T08:22:08.640Z</time>
      </trkpt>
      <trkpt lat="47.75192" lon="2.11456">
        <ele>127</ele>
        <time>2017-01-15T08:22:09.646Z</time>
      </trkpt>
      <trkpt lat="47.75192" lon="2.11456">
        <ele>127</ele>
        <time>2017-01-15T08:22:10.650Z</time>
      </trkpt>
      <trkpt lat="47.7518" lon="2.11458">
        <ele>127</ele>
        <time>2017-01-15T08:22:11.646Z</time>
      </trkpt>
      <trkpt lat="47.7518" lon="2.11458">
        <ele>127</ele>
        <time>2017-01-15T08:22:12.642Z</time>
      </trkpt>
      <trkpt lat="47.75168" lon="2.11459">
        <ele>128</ele>
        <time>2017-01-15T08:22:13.646Z</time>
      </trkpt>
      <trkpt lat="47.75168" lon="2.11459">
        <ele>128</ele>
        <time>2017-01-15T08:22:14.640Z</time>
      </trkpt>
      <trkpt lat="47.75157" lon="2.1146">
        <ele>128</ele>
        <time>2017-01-15T08:22:15.656Z</time>
      </trkpt>
      <trkpt lat="47.75157" lon="2.1146">
        <ele>128</ele>
        <time>2017-01-15T08:22:16.660Z</time>
      </trkpt>
      <trkpt lat="47.75147" lon="2.11459">
        <ele>128</ele>
        <time>2017-01-15T08:22:17.648Z</time>
      </trkpt>
      <trkpt lat="47.75147" lon="2.11459">
        <ele>128</ele>
        <time>2017-01-15T08:22:18.640Z</time>
      </trkpt>
      <trkpt lat="47.75136" lon="2.11459">
        <ele>128</ele>
        <time>2017-01-15T08:22:19.646Z</time>
      </trkpt>
      <trkpt lat="47.75136" lon="2.11459">
        <ele>128</ele>
        <time>2017-01-15T08:22:20.651Z</time>
      </trkpt>
      <trkpt lat="47.75126" lon="2.11459">
        <ele>128</ele>
        <time>2017-01-15T08:22:21.650Z</time>
      </trkpt>
      <trkpt lat="47.75126" lon="2.11459">
        <ele>128</ele>
        <time>2017-01-15T08:22:22.645Z</time>
      </trkpt>
      <trkpt lat="47.75117" lon="2.1146">
        <ele>129</ele>
        <time>2017-01-15T08:22:23.648Z</time>
      </trkpt>
      <trkpt lat="47.75117" lon="2.1146">
        <ele>129</ele>
        <time>2017-01-15T08:22:24.642Z</time>
      </trkpt>
      <trkpt lat="47.75107" lon="2.11461">
        <ele>129</ele>
        <time>2017-01-15T08:22:25.647Z</time>
      </trkpt>
      <trkpt lat="47.75107" lon="2.11461">
        <ele>129</ele>
        <time>2017-01-15T08:22:26.645Z</time>
      </trkpt>
      <trkpt lat="47.75097" lon="2.11462">
        <ele>129</ele>
        <time>2017-01-15T08:22:27.646Z</time>
      </trkpt>
      <trkpt lat="47.75097" lon="2.11462">
        <ele>129</ele>
        <time>2017-01-15T08:22:28.645Z</time>
      </trkpt>
      <trkpt lat="47.75087" lon="2.11463">
        <ele>129</ele>
        <time>2017-01-15T08:22:29.647Z</time>
      </trkpt>
      <trkpt lat="47.75082" lon="2.11463">
        <ele>129</ele>
        <time>2017-01-15T08:22:30.650Z</time>
      </trkpt>
      <trkpt lat="47.75082" lon="2.11463">
        <ele>129</ele>
        <time>2017-01-15T08:22:31.645Z</time>
      </trkpt>
      <trkpt lat="47.75072" lon="2.11463">
        <ele>129</ele>
        <time>2017-01-15T08:22:32.645Z</time>
      </trkpt>
      <trkpt lat="47.75072" lon="2.11463">
        <ele>129</ele>
        <time>2017-01-15T08:22:33.645Z</time>
      </trkpt>
      <trkpt lat="47.75063" lon="2.11464">
        <ele>128</ele>
        <time>2017-01-15T08:22:34.646Z</time>
      </trkpt>
      <trkpt lat="47.75058" lon="2.11463">
        <ele>128</ele>
        <time>2017-01-15T08:22:35.646Z</time>
      </trkpt>
      <trkpt lat="47.75058" lon="2.11463">
        <ele>128</ele>
        <time>2017-01-15T08:22:36.659Z</time>
      </trkpt>
      <trkpt lat="47.75048" lon="2.11461">
        <ele>128</ele>
        <time>2017-01-15T08:22:37.648Z</time>
      </trkpt>
      <trkpt lat="47.75048" lon="2.11461">
        <ele>128</ele>
        <time>2017-01-15T08:22:38.645Z</time>
      </trkpt>
      <trkpt lat="47.75037" lon="2.11459">
        <ele>127</ele>
        <time>2017-01-15T08:22:39.647Z</time>
      </trkpt>
      <trkpt lat="47.75037" lon="2.11459">
        <ele>127</ele>
        <time>2017-01-15T08:22:40.645Z</time>
      </trkpt>
      <trkpt lat="47.75028" lon="2.11456">
        <ele>126</ele>
        <time>2017-01-15T08:22:41.649Z</time>
      </trkpt>
      <trkpt lat="47.75028" lon="2.11456">
        <ele>126</ele>
        <time>2017-01-15T08:22:42.642Z</time>
      </trkpt>
      <trkpt lat="47.75019" lon="2.11451">
        <ele>126</ele>
        <time>2017-01-15T08:22:43.646Z</time>
      </trkpt>
      <trkpt lat="47.75015" lon="2.11449">
        <ele>126</ele>
        <time>2017-01-15T08:22:44.644Z</time>
      </trkpt>
      <trkpt lat="47.75015" lon="2.11449">
        <ele>126</ele>
        <time>2017-01-15T08:22:45.640Z</time>
      </trkpt>
      <trkpt lat="47.75005" lon="2.11444">
        <ele>126</ele>
        <time>2017-01-15T08:22:46.647Z</time>
      </trkpt>
      <trkpt lat="47.75" lon="2.11442">
        <ele>126</ele>
        <time>2017-01-15T08:22:47.648Z</time>
      </trkpt>
      <trkpt lat="47.75" lon="2.11442">
        <ele>126</ele>
        <time>2017-01-15T08:22:48.642Z</time>
      </trkpt>
      <trkpt lat="47.7499" lon="2.11439">
        <ele>126</ele>
        <time>2017-01-15T08:22:49.646Z</time>
      </trkpt>
      <trkpt lat="47.7499" lon="2.11439">
        <ele>126</ele>
        <time>2017-01-15T08:22:50.650Z</time>
      </trkpt>
      <trkpt lat="47.7498" lon="2.11433">
        <ele>125</ele>
        <time>2017-01-15T08:22:51.646Z</time>
      </trkpt>
      <trkpt lat="47.7498" lon="2.11433">
        <ele>125</ele>
        <time>2017-01-15T08:22:52.645Z</time>
      </trkpt>
      <trkpt lat="47.7497" lon="2.11428">
        <ele>124</ele>
        <time>2017-01-15T08:22:53.648Z</time>
      </trkpt>
      <trkpt lat="47.7497" lon="2.11428">
        <ele>124</ele>
        <time>2017-01-15T08:22:54.642Z</time>
      </trkpt>
      <trkpt lat="47.7496" lon="2.11422">
        <ele>124</ele>
        <time>2017-01-15T08:22:55.647Z</time>
      </trkpt>
      <trkpt lat="47.7496" lon="2.11422">
        <ele>124</ele>
        <time>2017-01-15T08:22:56.645Z</time>
      </trkpt>
      <trkpt lat="47.7495" lon="2.11415">
        <ele>124</ele>
        <time>2017-01-15T08:22:57.647Z</time>
      </trkpt>
      <trkpt lat="47.7495" lon="2.11415">
        <ele>124</ele>
        <time>2017-01-15T08:22:58.641Z</time>
      </trkpt>
      <trkpt lat="47.74941" lon="2.11409">
        <ele>123</ele>
        <time>2017-01-15T08:22:59.648Z</time>
      </trkpt>
      <trkpt lat="47.74941" lon="2.11409">
        <ele>123</ele>
        <time>2017-01-15T08:23:00.655Z</time>
      </trkpt>
      <trkpt lat="47.7493" lon="2.11403">
        <ele>123</ele>
        <time>2017-01-15T08:23:01.647Z</time>
      </trkpt>
      <trkpt lat="47.74925" lon="2.114">
        <ele>123</ele>
        <time>2017-01-15T08:23:02.646Z</time>
      </trkpt>
      <trkpt lat="47.74925" lon="2.114">
        <ele>123</ele>
        <time>2017-01-15T08:23:03.645Z</time>
      </trkpt>
      <trkpt lat="47.74915" lon="2.11393">
        <ele>123</ele>
        <time>2017-01-15T08:23:04.651Z</time>
      </trkpt>
      <trkpt lat="47.7491" lon="2.1139">
        <ele>122</ele>
        <time>2017-01-15T08:23:05.648Z</time>
      </trkpt>
      <trkpt lat="47.7491" lon="2.1139">
        <ele>122</ele>
        <time>2017-01-15T08:23:06.643Z</time>
      </trkpt>
      <trkpt lat="47.74899" lon="2.11385">
        <ele>122</ele>
        <time>2017-01-15T08:23:07.646Z</time>
      </trkpt>
      <trkpt lat="47.74899" lon="2.11385">
        <ele>122</ele>
        <time>2017-01-15T08:23:08.645Z</time>
      </trkpt>
      <trkpt lat="47.74887" lon="2.1138">
        <ele>121</ele>
        <time>2017-01-15T08:23:09.647Z</time>
      </trkpt>
      <trkpt lat="47.74887" lon="2.1138">
        <ele>121</ele>
        <time>2017-01-15T08:23:10.645Z</time>
      </trkpt>
      <trkpt lat="47.74874" lon="2.11377">
        <ele>120</ele>
        <time>2017-01-15T08:23:11.649Z</time>
      </trkpt>
      <trkpt lat="47.74874" lon="2.11377">
        <ele>120</ele>
        <time>2017-01-15T08:23:12.648Z</time>
      </trkpt>
      <trkpt lat="47.74863" lon="2.11376">
        <ele>119</ele>
        <time>2017-01-15T08:23:13.644Z</time>
      </trkpt>
      <trkpt lat="47.74863" lon="2.11376">
        <ele>119</ele>
        <time>2017-01-15T08:23:14.652Z</time>
      </trkpt>
      <trkpt lat="47.74852" lon="2.11374">
        <ele>120</ele>
        <time>2017-01-15T08:23:15.648Z</time>
      </trkpt>
      <trkpt lat="47.74852" lon="2.11374">
        <ele>120</ele>
        <time>2017-01-15T08:23:16.657Z</time>
      </trkpt>
      <trkpt lat="47.74841" lon="2.11375">
        <ele>120</ele>
        <time>2017-01-15T08:23:17.648Z</time>
      </trkpt>
      <trkpt lat="47.74841" lon="2.11375">
        <ele>120</ele>
        <time>2017-01-15T08:23:18.646Z</time>
      </trkpt>
      <trkpt lat="47.74829" lon="2.11377">
        <ele>120</ele>
        <time>2017-01-15T08:23:19.647Z</time>
      </trkpt>
      <trkpt lat="47.74829" lon="2.11377">
        <ele>120</ele>
        <time>2017-01-15T08:23:20.661Z</time>
      </trkpt>
      <trkpt lat="47.74818" lon="2.11377">
        <ele>119</ele>
        <time>2017-01-15T08:23:21.653Z</time>
      </trkpt>
      <trkpt lat="47.74818" lon="2.11377">
        <ele>119</ele>
        <time>2017-01-15T08:23:22.653Z</time>
      </trkpt>
      <trkpt lat="47.74806" lon="2.11377">
        <ele>118</ele>
        <time>2017-01-15T08:23:23.649Z</time>
      </trkpt>
      <trkpt lat="47.74806" lon="2.11377">
        <ele>118</ele>
        <time>2017-01-15T08:23:24.643Z</time>
      </trkpt>
      <trkpt lat="47.74794" lon="2.1138">
        <ele>118</ele>
        <time>2017-01-15T08:23:25.647Z</time>
      </trkpt>
      <trkpt lat="47.74794" lon="2.1138">
        <ele>118</ele>
        <time>2017-01-15T08:23:26.645Z</time>
      </trkpt>
      <trkpt lat="47.74783" lon="2.11382">
        <ele>118</ele>
        <time>2017-01-15T08:23:27.651Z</time>
      </trkpt>
      <trkpt lat="47.74783" lon="2.11382">
        <ele>118</ele>
        <time>2017-01-15T08:23:28.645Z</time>
      </trkpt>
      <trkpt lat="47.74772" lon="2.11383">
        <ele>118</ele>
        <time>2017-01-15T08:23:29.650Z</time>
      </trkpt>
      <trkpt lat="47.74772" lon="2.11383">
        <ele>118</ele>
        <time>2017-01-15T08:23:30.650Z</time>
      </trkpt>
      <trkpt lat="47.74761" lon="2.11385">
        <ele>119</ele>
        <time>2017-01-15T08:23:31.657Z</time>
      </trkpt>
      <trkpt lat="47.74761" lon="2.11385">
        <ele>119</ele>
        <time>2017-01-15T08:23:32.644Z</time>
      </trkpt>
      <trkpt lat="47.74749" lon="2.11387">
        <ele>118</ele>
        <time>2017-01-15T08:23:33.660Z</time>
      </trkpt>
      <trkpt lat="47.74744" lon="2.11389">
        <ele>118</ele>
        <time>2017-01-15T08:23:34.648Z</time>
      </trkpt>
      <trkpt lat="47.74737" lon="2.1139">
        <ele>118</ele>
        <time>2017-01-15T08:23:35.648Z</time>
      </trkpt>
      <trkpt lat="47.74737" lon="2.1139">
        <ele>118</ele>
        <time>2017-01-15T08:23:36.643Z</time>
      </trkpt>
      <trkpt lat="47.74726" lon="2.11394">
        <ele>118</ele>
        <time>2017-01-15T08:23:37.646Z</time>
      </trkpt>
      <trkpt lat="47.7472" lon="2.11396">
        <ele>119</ele>
        <time>2017-01-15T08:23:38.648Z</time>
      </trkpt>
      <trkpt lat="47.7472" lon="2.11396">
        <ele>119</ele>
        <time>2017-01-15T08:23:39.645Z</time>
      </trkpt>
      <trkpt lat="47.74707" lon="2.11398">
        <ele>118</ele>
        <time>2017-01-15T08:23:40.648Z</time>
      </trkpt>
      <trkpt lat="47.74707" lon="2.11398">
        <ele>118</ele>
        <time>2017-01-15T08:23:41.647Z</time>
      </trkpt>
      <trkpt lat="47.74695" lon="2.11398">
        <ele>118</ele>
        <time>2017-01-15T08:23:42.662Z</time>
      </trkpt>
      <trkpt lat="47.74695" lon="2.11398">
        <ele>118</ele>
        <time>2017-01-15T08:23:43.649Z</time>
      </trkpt>
      <trkpt lat="47.74685" lon="2.11397">
        <ele>118</ele>
        <time>2017-01-15T08:23:44.646Z</time>
      </trkpt>
      <trkpt lat="47.74685" lon="2.11397">
        <ele>118</ele>
        <time>2017-01-15T08:23:45.645Z</time>
      </trkpt>
      <trkpt lat="47.74673" lon="2.11395">
        <ele>118</ele>
        <time>2017-01-15T08:23:46.647Z</time>
      </trkpt>
      <trkpt lat="47.74668" lon="2.11394">
        <ele>118</ele>
        <time>2017-01-15T08:23:47.650Z</time>
      </trkpt>
      <trkpt lat="47.74668" lon="2.11394">
        <ele>118</ele>
        <time>2017-01-15T08:23:48.646Z</time>
      </trkpt>
      <trkpt lat="47.74657" lon="2.11392">
        <ele>118</ele>
        <time>2017-01-15T08:23:49.648Z</time>
      </trkpt>
      <trkpt lat="47.74657" lon="2.11392">
        <ele>118</ele>
        <time>2017-01-15T08:23:50.663Z</time>
      </trkpt>
      <trkpt lat="47.74646" lon="2.11389">
        <ele>117</ele>
        <time>2017-01-15T08:23:51.654Z</time>
      </trkpt>
      <trkpt lat="47.74646" lon="2.11389">
        <ele>117</ele>
        <time>2017-01-15T08:23:52.647Z</time>
      </trkpt>
      <trkpt lat="47.74634" lon="2.11388">
        <ele>117</ele>
        <time>2017-01-15T08:23:53.650Z</time>
      </trkpt>
      <trkpt lat="47.74634" lon="2.11388">
        <ele>117</ele>
        <time>2017-01-15T08:23:54.642Z</time>
      </trkpt>
      <trkpt lat="47.74623" lon="2.11387">
        <ele>117</ele>
        <time>2017-01-15T08:23:55.654Z</time>
      </trkpt>
      <trkpt lat="47.74623" lon="2.11387">
        <ele>117</ele>
        <time>2017-01-15T08:23:56.646Z</time>
      </trkpt>
      <trkpt lat="47.74611" lon="2.11384">
        <ele>117</ele>
        <time>2017-01-15T08:23:57.649Z</time>
      </trkpt>
      <trkpt lat="47.74611" lon="2.11384">
        <ele>117</ele>
        <time>2017-01-15T08:23:58.645Z</time>
      </trkpt>
      <trkpt lat="47.746" lon="2.1138">
        <ele>117</ele>
        <time>2017-01-15T08:23:59.650Z</time>
      </trkpt>
      <trkpt lat="47.746" lon="2.1138">
        <ele>117</ele>
        <time>2017-01-15T08:24:00.662Z</time>
      </trkpt>
      <trkpt lat="47.74589" lon="2.11377">
        <ele>117</ele>
        <time>2017-01-15T08:24:01.652Z</time>
      </trkpt>
      <trkpt lat="47.74589" lon="2.11377">
        <ele>117</ele>
        <time>2017-01-15T08:24:02.646Z</time>
      </trkpt>
      <trkpt lat="47.74578" lon="2.11374">
        <ele>116</ele>
        <time>2017-01-15T08:24:03.648Z</time>
      </trkpt>
      <trkpt lat="47.74578" lon="2.11374">
        <ele>116</ele>
        <time>2017-01-15T08:24:04.645Z</time>
      </trkpt>
      <trkpt lat="47.74567" lon="2.11372">
        <ele>117</ele>
        <time>2017-01-15T08:24:05.650Z</time>
      </trkpt>
      <trkpt lat="47.74567" lon="2.11372">
        <ele>117</ele>
        <time>2017-01-15T08:24:06.647Z</time>
      </trkpt>
      <trkpt lat="47.74557" lon="2.11369">
        <ele>117</ele>
        <time>2017-01-15T08:24:07.648Z</time>
      </trkpt>
      <trkpt lat="47.74557" lon="2.11369">
        <ele>117</ele>
        <time>2017-01-15T08:24:08.645Z</time>
      </trkpt>
      <trkpt lat="47.74545" lon="2.11366">
        <ele>116</ele>
        <time>2017-01-15T08:24:09.648Z</time>
      </trkpt>
      <trkpt lat="47.74545" lon="2.11366">
        <ele>116</ele>
        <time>2017-01-15T08:24:10.664Z</time>
      </trkpt>
      <trkpt lat="47.74532" lon="2.11365">
        <ele>116</ele>
        <time>2017-01-15T08:24:11.653Z</time>
      </trkpt>
      <trkpt lat="47.74532" lon="2.11365">
        <ele>116</ele>
        <time>2017-01-15T08:24:12.643Z</time>
      </trkpt>
      <trkpt lat="47.74521" lon="2.11363">
        <ele>116</ele>
        <time>2017-01-15T08:24:13.648Z</time>
      </trkpt>
      <trkpt lat="47.74521" lon="2.11363">
        <ele>116</ele>
        <time>2017-01-15T08:24:14.658Z</time>
      </trkpt>
      <trkpt lat="47.7451" lon="2.11361">
        <ele>116</ele>
        <time>2017-01-15T08:24:15.647Z</time>
      </trkpt>
      <trkpt lat="47.7451" lon="2.11361">
        <ele>116</ele>
        <time>2017-01-15T08:24:16.656Z</time>
      </trkpt>
      <trkpt lat="47.74499" lon="2.11358">
        <ele>116</ele>
        <time>2017-01-15T08:24:17.644Z</time>
      </trkpt>
      <trkpt lat="47.74499" lon="2.11358">
        <ele>116</ele>
        <time>2017-01-15T08:24:18.644Z</time>
      </trkpt>
      <trkpt lat="47.74488" lon="2.11355">
        <ele>116</ele>
        <time>2017-01-15T08:24:19.648Z</time>
      </trkpt>
      <trkpt lat="47.74488" lon="2.11355">
        <ele>116</ele>
        <time>2017-01-15T08:24:20.650Z</time>
      </trkpt>
      <trkpt lat="47.74478" lon="2.11353">
        <ele>116</ele>
        <time>2017-01-15T08:24:21.648Z</time>
      </trkpt>
      <trkpt lat="47.74473" lon="2.11352">
        <ele>116</ele>
        <time>2017-01-15T08:24:22.648Z</time>
      </trkpt>
      <trkpt lat="47.74468" lon="2.1135">
        <ele>117</ele>
        <time>2017-01-15T08:24:23.649Z</time>
      </trkpt>
      <trkpt lat="47.74468" lon="2.1135">
        <ele>117</ele>
        <time>2017-01-15T08:24:24.643Z</time>
      </trkpt>
      <trkpt lat="47.74457" lon="2.11348">
        <ele>117</ele>
        <time>2017-01-15T08:24:25.648Z</time>
      </trkpt>
      <trkpt lat="47.74457" lon="2.11348">
        <ele>117</ele>
        <time>2017-01-15T08:24:26.646Z</time>
      </trkpt>
      <trkpt lat="47.74446" lon="2.11346">
        <ele>118</ele>
        <time>2017-01-15T08:24:27.648Z</time>
      </trkpt>
      <trkpt lat="47.74446" lon="2.11346">
        <ele>118</ele>
        <time>2017-01-15T08:24:28.645Z</time>
      </trkpt>
      <trkpt lat="47.74435" lon="2.11343">
        <ele>118</ele>
        <time>2017-01-15T08:24:29.651Z</time>
      </trkpt>
      <trkpt lat="47.74435" lon="2.11343">
        <ele>118</ele>
        <time>2017-01-15T08:24:30.647Z</time>
      </trkpt>
      <trkpt lat="47.74423" lon="2.11341">
        <ele>119</ele>
        <time>2017-01-15T08:24:31.648Z</time>
      </trkpt>
      <trkpt lat="47.74423" lon="2.11341">
        <ele>119</ele>
        <time>2017-01-15T08:24:32.646Z</time>
      </trkpt>
      <trkpt lat="47.74412" lon="2.11339">
        <ele>119</ele>
        <time>2017-01-15T08:24:33.648Z</time>
      </trkpt>
      <trkpt lat="47.74412" lon="2.11339">
        <ele>119</ele>
        <time>2017-01-15T08:24:34.646Z</time>
      </trkpt>
      <trkpt lat="47.74401" lon="2.11338">
        <ele>119</ele>
        <time>2017-01-15T08:24:35.650Z</time>
      </trkpt>
      <trkpt lat="47.74401" lon="2.11338">
        <ele>119</ele>
        <time>2017-01-15T08:24:36.645Z</time>
      </trkpt>
      <trkpt lat="47.7439" lon="2.11338">
        <ele>120</ele>
        <time>2017-01-15T08:24:37.649Z</time>
      </trkpt>
      <trkpt lat="47.7439" lon="2.11338">
        <ele>120</ele>
        <time>2017-01-15T08:24:38.646Z</time>
      </trkpt>
      <trkpt lat="47.74378" lon="2.11343">
        <ele>121</ele>
        <time>2017-01-15T08:24:39.649Z</time>
      </trkpt>
      <trkpt lat="47.74378" lon="2.11343">
        <ele>121</ele>
        <time>2017-01-15T08:24:40.650Z</time>
      </trkpt>
      <trkpt lat="47.74368" lon="2.11351">
        <ele>122</ele>
        <time>2017-01-15T08:24:41.657Z</time>
      </trkpt>
      <trkpt lat="47.74368" lon="2.11351">
        <ele>122</ele>
        <time>2017-01-15T08:24:42.650Z</time>
      </trkpt>
      <trkpt lat="47.74357" lon="2.1136">
        <ele>122</ele>
        <time>2017-01-15T08:24:43.649Z</time>
      </trkpt>
      <trkpt lat="47.74352" lon="2.11364">
        <ele>121</ele>
        <time>2017-01-15T08:24:44.648Z</time>
      </trkpt>
      <trkpt lat="47.74352" lon="2.11364">
        <ele>121</ele>
        <time>2017-01-15T08:24:45.646Z</time>
      </trkpt>
      <trkpt lat="47.74342" lon="2.11371">
        <ele>122</ele>
        <time>2017-01-15T08:24:46.649Z</time>
      </trkpt>
      <trkpt lat="47.74337" lon="2.11376">
        <ele>122</ele>
        <time>2017-01-15T08:24:47.661Z</time>
      </trkpt>
      <trkpt lat="47.74337" lon="2.11376">
        <ele>122</ele>
        <time>2017-01-15T08:24:48.650Z</time>
      </trkpt>
      <trkpt lat="47.74328" lon="2.11385">
        <ele>122</ele>
        <time>2017-01-15T08:24:49.648Z</time>
      </trkpt>
      <trkpt lat="47.74323" lon="2.1139">
        <ele>122</ele>
        <time>2017-01-15T08:24:50.656Z</time>
      </trkpt>
      <trkpt lat="47.74323" lon="2.1139">
        <ele>122</ele>
        <time>2017-01-15T08:24:51.646Z</time>
      </trkpt>
      <trkpt lat="47.74316" lon="2.11401">
        <ele>122</ele>
        <time>2017-01-15T08:24:52.649Z</time>
      </trkpt>
      <trkpt lat="47.74316" lon="2.11401">
        <ele>122</ele>
        <time>2017-01-15T08:24:53.649Z</time>
      </trkpt>
      <trkpt lat="47.74308" lon="2.11413">
        <ele>122</ele>
        <time>2017-01-15T08:24:54.646Z</time>
      </trkpt>
      <trkpt lat="47.74308" lon="2.11413">
        <ele>122</ele>
        <time>2017-01-15T08:24:55.646Z</time>
      </trkpt>
      <trkpt lat="47.743" lon="2.11424">
        <ele>122</ele>
        <time>2017-01-15T08:24:56.649Z</time>
      </trkpt>
      <trkpt lat="47.743" lon="2.11424">
        <ele>122</ele>
        <time>2017-01-15T08:24:57.646Z</time>
      </trkpt>
      <trkpt lat="47.74292" lon="2.11436">
        <ele>122</ele>
        <time>2017-01-15T08:24:58.647Z</time>
      </trkpt>
      <trkpt lat="47.74288" lon="2.11442">
        <ele>122</ele>
        <time>2017-01-15T08:24:59.650Z</time>
      </trkpt>
      <trkpt lat="47.74288" lon="2.11442">
        <ele>122</ele>
        <time>2017-01-15T08:25:00.648Z</time>
      </trkpt>
      <trkpt lat="47.74281" lon="2.11455">
        <ele>122</ele>
        <time>2017-01-15T08:25:01.650Z</time>
      </trkpt>
      <trkpt lat="47.74281" lon="2.11455">
        <ele>122</ele>
        <time>2017-01-15T08:25:02.648Z</time>
      </trkpt>
      <trkpt lat="47.74273" lon="2.11466">
        <ele>122</ele>
        <time>2017-01-15T08:25:03.639Z</time>
      </trkpt>
      <trkpt lat="47.74269" lon="2.11472">
        <ele>122</ele>
        <time>2017-01-15T08:25:04.648Z</time>
      </trkpt>
      <trkpt lat="47.74266" lon="2.11479">
        <ele>122</ele>
        <time>2017-01-15T08:25:05.651Z</time>
      </trkpt>
      <trkpt lat="47.74266" lon="2.11479">
        <ele>122</ele>
        <time>2017-01-15T08:25:06.647Z</time>
      </trkpt>
      <trkpt lat="47.74258" lon="2.11491">
        <ele>121</ele>
        <time>2017-01-15T08:25:07.646Z</time>
      </trkpt>
      <trkpt lat="47.74258" lon="2.11491">
        <ele>121</ele>
        <time>2017-01-15T08:25:08.646Z</time>
      </trkpt>
      <trkpt lat="47.74252" lon="2.11503">
        <ele>121</ele>
        <time>2017-01-15T08:25:09.649Z</time>
      </trkpt>
      <trkpt lat="47.74252" lon="2.11503">
        <ele>121</ele>
        <time>2017-01-15T08:25:10.650Z</time>
      </trkpt>
      <trkpt lat="47.74245" lon="2.11516">
        <ele>121</ele>
        <time>2017-01-15T08:25:11.649Z</time>
      </trkpt>
      <trkpt lat="47.74245" lon="2.11516">
        <ele>121</ele>
        <time>2017-01-15T08:25:12.647Z</time>
      </trkpt>
      <trkpt lat="47.74238" lon="2.11529">
        <ele>121</ele>
        <time>2017-01-15T08:25:13.651Z</time>
      </trkpt>
      <trkpt lat="47.74234" lon="2.11536">
        <ele>121</ele>
        <time>2017-01-15T08:25:14.647Z</time>
      </trkpt>
      <trkpt lat="47.74234" lon="2.11536">
        <ele>121</ele>
        <time>2017-01-15T08:25:15.661Z</time>
      </trkpt>
      <trkpt lat="47.74227" lon="2.11548">
        <ele>121</ele>
        <time>2017-01-15T08:25:16.652Z</time>
      </trkpt>
      <trkpt lat="47.74227" lon="2.11548">
        <ele>121</ele>
        <time>2017-01-15T08:25:17.642Z</time>
      </trkpt>
      <trkpt lat="47.74219" lon="2.1156">
        <ele>121</ele>
        <time>2017-01-15T08:25:18.646Z</time>
      </trkpt>
      <trkpt lat="47.74215" lon="2.11566">
        <ele>121</ele>
        <time>2017-01-15T08:25:19.649Z</time>
      </trkpt>
      <trkpt lat="47.74215" lon="2.11566">
        <ele>121</ele>
        <time>2017-01-15T08:25:20.650Z</time>
      </trkpt>
      <trkpt lat="47.74207" lon="2.11576">
        <ele>121</ele>
        <time>2017-01-15T08:25:21.662Z</time>
      </trkpt>
      <trkpt lat="47.74203" lon="2.11581">
        <ele>121</ele>
        <time>2017-01-15T08:25:22.650Z</time>
      </trkpt>
      <trkpt lat="47.74198" lon="2.11586">
        <ele>121</ele>
        <time>2017-01-15T08:25:23.650Z</time>
      </trkpt>
      <trkpt lat="47.74198" lon="2.11586">
        <ele>121</ele>
        <time>2017-01-15T08:25:24.647Z</time>
      </trkpt>
      <trkpt lat="47.74189" lon="2.11595">
        <ele>121</ele>
        <time>2017-01-15T08:25:25.650Z</time>
      </trkpt>
      <trkpt lat="47.74189" lon="2.11595">
        <ele>121</ele>
        <time>2017-01-15T08:25:26.646Z</time>
      </trkpt>
      <trkpt lat="47.7418" lon="2.11605">
        <ele>121</ele>
        <time>2017-01-15T08:25:27.647Z</time>
      </trkpt>
      <trkpt lat="47.74176" lon="2.1161">
        <ele>121</ele>
        <time>2017-01-15T08:25:28.650Z</time>
      </trkpt>
      <trkpt lat="47.74176" lon="2.1161">
        <ele>121</ele>
        <time>2017-01-15T08:25:29.646Z</time>
      </trkpt>
      <trkpt lat="47.74167" lon="2.11621">
        <ele>121</ele>
        <time>2017-01-15T08:25:30.649Z</time>
      </trkpt>
      <trkpt lat="47.74163" lon="2.11626">
        <ele>121</ele>
        <time>2017-01-15T08:25:31.649Z</time>
      </trkpt>
      <trkpt lat="47.7416" lon="2.11633">
        <ele>122</ele>
        <time>2017-01-15T08:25:32.657Z</time>
      </trkpt>
      <trkpt lat="47.7416" lon="2.11633">
        <ele>122</ele>
        <time>2017-01-15T08:25:33.646Z</time>
      </trkpt>
      <trkpt lat="47.74155" lon="2.11647">
        <ele>122</ele>
        <time>2017-01-15T08:25:34.648Z</time>
      </trkpt>
      <trkpt lat="47.74152" lon="2.11654">
        <ele>122</ele>
        <time>2017-01-15T08:25:35.649Z</time>
      </trkpt>
      <trkpt lat="47.7415" lon="2.11662">
        <ele>122</ele>
        <time>2017-01-15T08:25:36.654Z</time>
      </trkpt>
      <trkpt lat="47.74148" lon="2.1167">
        <ele>122</ele>
        <time>2017-01-15T08:25:37.649Z</time>
      </trkpt>
      <trkpt lat="47.74148" lon="2.1167">
        <ele>122</ele>
        <time>2017-01-15T08:25:38.646Z</time>
      </trkpt>
      <trkpt lat="47.74145" lon="2.11686">
        <ele>122</ele>
        <time>2017-01-15T08:25:39.648Z</time>
      </trkpt>
      <trkpt lat="47.74143" lon="2.11693">
        <ele>122</ele>
        <time>2017-01-15T08:25:40.657Z</time>
      </trkpt>
      <trkpt lat="47.74143" lon="2.11693">
        <ele>122</ele>
        <time>2017-01-15T08:25:41.648Z</time>
      </trkpt>
      <trkpt lat="47.7414" lon="2.11708">
        <ele>123</ele>
        <time>2017-01-15T08:25:42.647Z</time>
      </trkpt>
      <trkpt lat="47.7414" lon="2.11708">
        <ele>123</ele>
        <time>2017-01-15T08:25:43.647Z</time>
      </trkpt>
      <trkpt lat="47.74138" lon="2.11721">
        <ele>123</ele>
        <time>2017-01-15T08:25:44.649Z</time>
      </trkpt>
      <trkpt lat="47.74138" lon="2.11721">
        <ele>123</ele>
        <time>2017-01-15T08:25:45.646Z</time>
      </trkpt>
      <trkpt lat="47.74136" lon="2.11734">
        <ele>124</ele>
        <time>2017-01-15T08:25:46.657Z</time>
      </trkpt>
      <trkpt lat="47.74135" lon="2.11741">
        <ele>124</ele>
        <time>2017-01-15T08:25:47.652Z</time>
      </trkpt>
      <trkpt lat="47.74135" lon="2.11741">
        <ele>124</ele>
        <time>2017-01-15T08:25:48.647Z</time>
      </trkpt>
      <trkpt lat="47.74132" lon="2.11751">
        <ele>124</ele>
        <time>2017-01-15T08:25:49.649Z</time>
      </trkpt>
      <trkpt lat="47.74129" lon="2.11755">
        <ele>124</ele>
        <time>2017-01-15T08:25:50.651Z</time>
      </trkpt>
      <trkpt lat="47.74129" lon="2.11755">
        <ele>124</ele>
        <time>2017-01-15T08:25:51.650Z</time>
      </trkpt>
      <trkpt lat="47.7412" lon="2.11758">
        <ele>124</ele>
        <time>2017-01-15T08:25:52.649Z</time>
      </trkpt>
      <trkpt lat="47.74115" lon="2.11758">
        <ele>124</ele>
        <time>2017-01-15T08:25:53.632Z</time>
      </trkpt>
      <trkpt lat="47.74115" lon="2.11758">
        <ele>124</ele>
        <time>2017-01-15T08:25:54.659Z</time>
      </trkpt>
      <trkpt lat="47.74105" lon="2.11758">
        <ele>124</ele>
        <time>2017-01-15T08:25:55.650Z</time>
      </trkpt>
      <trkpt lat="47.741" lon="2.11759">
        <ele>124</ele>
        <time>2017-01-15T08:25:56.647Z</time>
      </trkpt>
      <trkpt lat="47.741" lon="2.11759">
        <ele>124</ele>
        <time>2017-01-15T08:25:57.645Z</time>
      </trkpt>
      <trkpt lat="47.7409" lon="2.11759">
        <ele>124</ele>
        <time>2017-01-15T08:25:58.652Z</time>
      </trkpt>
      <trkpt lat="47.74085" lon="2.1176">
        <ele>123</ele>
        <time>2017-01-15T08:25:59.642Z</time>
      </trkpt>
      <trkpt lat="47.74085" lon="2.1176">
        <ele>123</ele>
        <time>2017-01-15T08:26:00.650Z</time>
      </trkpt>
      <trkpt lat="47.74075" lon="2.11761">
        <ele>123</ele>
        <time>2017-01-15T08:26:01.650Z</time>
      </trkpt>
      <trkpt lat="47.74075" lon="2.11761">
        <ele>123</ele>
        <time>2017-01-15T08:26:02.647Z</time>
      </trkpt>
      <trkpt lat="47.74066" lon="2.11763">
        <ele>123</ele>
        <time>2017-01-15T08:26:03.649Z</time>
      </trkpt>
      <trkpt lat="47.74061" lon="2.11763">
        <ele>123</ele>
        <time>2017-01-15T08:26:04.649Z</time>
      </trkpt>
      <trkpt lat="47.74056" lon="2.11764">
        <ele>123</ele>
        <time>2017-01-15T08:26:05.650Z</time>
      </trkpt>
      <trkpt lat="47.74056" lon="2.11764">
        <ele>123</ele>
        <time>2017-01-15T08:26:06.647Z</time>
      </trkpt>
      <trkpt lat="47.74047" lon="2.11763">
        <ele>124</ele>
        <time>2017-01-15T08:26:07.650Z</time>
      </trkpt>
      <trkpt lat="47.74043" lon="2.11761">
        <ele>124</ele>
        <time>2017-01-15T08:26:08.656Z</time>
      </trkpt>
      <trkpt lat="47.74038" lon="2.11759">
        <ele>124</ele>
        <time>2017-01-15T08:26:09.648Z</time>
      </trkpt>
      <trkpt lat="47.74038" lon="2.11759">
        <ele>124</ele>
        <time>2017-01-15T08:26:10.650Z</time>
      </trkpt>
      <trkpt lat="47.74027" lon="2.11755">
        <ele>124</ele>
        <time>2017-01-15T08:26:11.649Z</time>
      </trkpt>
      <trkpt lat="47.74022" lon="2.11753">
        <ele>124</ele>
        <time>2017-01-15T08:26:12.648Z</time>
      </trkpt>
      <trkpt lat="47.74022" lon="2.11753">
        <ele>124</ele>
        <time>2017-01-15T08:26:13.646Z</time>
      </trkpt>
      <trkpt lat="47.7401" lon="2.1175">
        <ele>124</ele>
        <time>2017-01-15T08:26:14.648Z</time>
      </trkpt>
      <trkpt lat="47.74005" lon="2.1175">
        <ele>123</ele>
        <time>2017-01-15T08:26:15.663Z</time>
      </trkpt>
      <trkpt lat="47.74001" lon="2.1175">
        <ele>124</ele>
        <time>2017-01-15T08:26:16.660Z</time>
      </trkpt>
      <trkpt lat="47.73996" lon="2.11749">
        <ele>124</ele>
        <time>2017-01-15T08:26:17.652Z</time>
      </trkpt>
      <trkpt lat="47.73996" lon="2.11749">
        <ele>124</ele>
        <time>2017-01-15T08:26:18.647Z</time>
      </trkpt>
      <trkpt lat="47.73986" lon="2.11751">
        <ele>124</ele>
        <time>2017-01-15T08:26:19.649Z</time>
      </trkpt>
      <trkpt lat="47.73986" lon="2.11751">
        <ele>124</ele>
        <time>2017-01-15T08:26:20.648Z</time>
      </trkpt>
      <trkpt lat="47.73978" lon="2.11759">
        <ele>125</ele>
        <time>2017-01-15T08:26:21.649Z</time>
      </trkpt>
      <trkpt lat="47.73978" lon="2.11759">
        <ele>125</ele>
        <time>2017-01-15T08:26:22.647Z</time>
      </trkpt>
      <trkpt lat="47.73972" lon="2.11771">
        <ele>125</ele>
        <time>2017-01-15T08:26:23.649Z</time>
      </trkpt>
      <trkpt lat="47.73972" lon="2.11771">
        <ele>125</ele>
        <time>2017-01-15T08:26:24.647Z</time>
      </trkpt>
      <trkpt lat="47.73968" lon="2.11785">
        <ele>125</ele>
        <time>2017-01-15T08:26:25.650Z</time>
      </trkpt>
      <trkpt lat="47.73966" lon="2.11792">
        <ele>124</ele>
        <time>2017-01-15T08:26:26.650Z</time>
      </trkpt>
      <trkpt lat="47.73966" lon="2.11792">
        <ele>124</ele>
        <time>2017-01-15T08:26:27.647Z</time>
      </trkpt>
      <trkpt lat="47.73963" lon="2.11805">
        <ele>124</ele>
        <time>2017-01-15T08:26:28.650Z</time>
      </trkpt>
      <trkpt lat="47.73962" lon="2.11812">
        <ele>124</ele>
        <time>2017-01-15T08:26:29.651Z</time>
      </trkpt>
      <trkpt lat="47.73962" lon="2.11812">
        <ele>124</ele>
        <time>2017-01-15T08:26:30.650Z</time>
      </trkpt>
      <trkpt lat="47.7396" lon="2.11827">
        <ele>125</ele>
        <time>2017-01-15T08:26:31.648Z</time>
      </trkpt>
      <trkpt lat="47.7396" lon="2.11827">
        <ele>125</ele>
        <time>2017-01-15T08:26:32.646Z</time>
      </trkpt>
      <trkpt lat="47.7396" lon="2.11841">
        <ele>125</ele>
        <time>2017-01-15T08:26:33.649Z</time>
      </trkpt>
      <trkpt lat="47.7396" lon="2.11841">
        <ele>125</ele>
        <time>2017-01-15T08:26:34.641Z</time>
      </trkpt>
      <trkpt lat="47.7396" lon="2.11855">
        <ele>126</ele>
        <time>2017-01-15T08:26:35.650Z</time>
      </trkpt>
      <trkpt lat="47.7396" lon="2.11855">
        <ele>126</ele>
        <time>2017-01-15T08:26:36.648Z</time>
      </trkpt>
      <trkpt lat="47.73961" lon="2.1187">
        <ele>127</ele>
        <time>2017-01-15T08:26:37.642Z</time>
      </trkpt>
      <trkpt lat="47.73962" lon="2.11877">
        <ele>127</ele>
        <time>2017-01-15T08:26:38.649Z</time>
      </trkpt>
      <trkpt lat="47.73962" lon="2.11877">
        <ele>127</ele>
        <time>2017-01-15T08:26:39.646Z</time>
      </trkpt>
      <trkpt lat="47.73964" lon="2.1189">
        <ele>128</ele>
        <time>2017-01-15T08:26:40.658Z</time>
      </trkpt>
      <trkpt lat="47.73965" lon="2.11898">
        <ele>128</ele>
        <time>2017-01-15T08:26:41.649Z</time>
      </trkpt>
      <trkpt lat="47.73965" lon="2.11898">
        <ele>128</ele>
        <time>2017-01-15T08:26:42.647Z</time>
      </trkpt>
      <trkpt lat="47.73966" lon="2.11912">
        <ele>129</ele>
        <time>2017-01-15T08:26:43.656Z</time>
      </trkpt>
      <trkpt lat="47.73966" lon="2.11912">
        <ele>129</ele>
        <time>2017-01-15T08:26:44.646Z</time>
      </trkpt>
      <trkpt lat="47.73966" lon="2.11927">
        <ele>129</ele>
        <time>2017-01-15T08:26:45.650Z</time>
      </trkpt>
      <trkpt lat="47.73966" lon="2.11927">
        <ele>129</ele>
        <time>2017-01-15T08:26:46.647Z</time>
      </trkpt>
      <trkpt lat="47.73964" lon="2.1194">
        <ele>130</ele>
        <time>2017-01-15T08:26:47.651Z</time>
      </trkpt>
      <trkpt lat="47.73964" lon="2.1194">
        <ele>130</ele>
        <time>2017-01-15T08:26:48.647Z</time>
      </trkpt>
      <trkpt lat="47.73962" lon="2.11954">
        <ele>130</ele>
        <time>2017-01-15T08:26:49.649Z</time>
      </trkpt>
      <trkpt lat="47.73962" lon="2.11954">
        <ele>130</ele>
        <time>2017-01-15T08:26:50.647Z</time>
      </trkpt>
      <trkpt lat="47.73958" lon="2.11968">
        <ele>130</ele>
        <time>2017-01-15T08:26:51.646Z</time>
      </trkpt>
      <trkpt lat="47.73955" lon="2.11975">
        <ele>131</ele>
        <time>2017-01-15T08:26:52.650Z</time>
      </trkpt>
      <trkpt lat="47.73953" lon="2.11981">
        <ele>131</ele>
        <time>2017-01-15T08:26:53.651Z</time>
      </trkpt>
      <trkpt lat="47.73953" lon="2.11981">
        <ele>131</ele>
        <time>2017-01-15T08:26:54.648Z</time>
      </trkpt>
      <trkpt lat="47.73949" lon="2.11994">
        <ele>132</ele>
        <time>2017-01-15T08:26:55.651Z</time>
      </trkpt>
      <trkpt lat="47.73948" lon="2.11999">
        <ele>132</ele>
        <time>2017-01-15T08:26:56.649Z</time>
      </trkpt>
      <trkpt lat="47.73948" lon="2.12005">
        <ele>132</ele>
        <time>2017-01-15T08:26:57.647Z</time>
      </trkpt>
      <trkpt lat="47.73948" lon="2.12005">
        <ele>132</ele>
        <time>2017-01-15T08:26:58.646Z</time>
      </trkpt>
      <trkpt lat="47.73947" lon="2.12019">
        <ele>133</ele>
        <time>2017-01-15T08:26:59.656Z</time>
      </trkpt>
      <trkpt lat="47.73947" lon="2.12019">
        <ele>133</ele>
        <time>2017-01-15T08:27:00.650Z</time>
      </trkpt>
      <trkpt lat="47.73947" lon="2.12033">
        <ele>134</ele>
        <time>2017-01-15T08:27:01.635Z</time>
      </trkpt>
      <trkpt lat="47.73947" lon="2.12033">
        <ele>134</ele>
        <time>2017-01-15T08:27:02.663Z</time>
      </trkpt>
      <trkpt lat="47.73947" lon="2.12046">
        <ele>135</ele>
        <time>2017-01-15T08:27:03.651Z</time>
      </trkpt>
      <trkpt lat="47.73947" lon="2.12054">
        <ele>135</ele>
        <time>2017-01-15T08:27:04.652Z</time>
      </trkpt>
      <trkpt lat="47.73947" lon="2.12054">
        <ele>135</ele>
        <time>2017-01-15T08:27:05.648Z</time>
      </trkpt>
      <trkpt lat="47.73947" lon="2.12068">
        <ele>135</ele>
        <time>2017-01-15T08:27:06.636Z</time>
      </trkpt>
      <trkpt lat="47.73946" lon="2.12075">
        <ele>135</ele>
        <time>2017-01-15T08:27:07.664Z</time>
      </trkpt>
      <trkpt lat="47.73946" lon="2.12075">
        <ele>135</ele>
        <time>2017-01-15T08:27:08.652Z</time>
      </trkpt>
      <trkpt lat="47.73946" lon="2.1209">
        <ele>136</ele>
        <time>2017-01-15T08:27:09.650Z</time>
      </trkpt>
      <trkpt lat="47.73946" lon="2.1209">
        <ele>136</ele>
        <time>2017-01-15T08:27:10.647Z</time>
      </trkpt>
      <trkpt lat="47.73946" lon="2.12106">
        <ele>137</ele>
        <time>2017-01-15T08:27:11.649Z</time>
      </trkpt>
      <trkpt lat="47.73946" lon="2.12106">
        <ele>137</ele>
        <time>2017-01-15T08:27:12.644Z</time>
      </trkpt>
      <trkpt lat="47.73946" lon="2.12119">
        <ele>138</ele>
        <time>2017-01-15T08:27:13.651Z</time>
      </trkpt>
      <trkpt lat="47.73946" lon="2.12119">
        <ele>138</ele>
        <time>2017-01-15T08:27:14.640Z</time>
      </trkpt>
      <trkpt lat="47.73946" lon="2.12133">
        <ele>138</ele>
        <time>2017-01-15T08:27:15.657Z</time>
      </trkpt>
      <trkpt lat="47.73945" lon="2.12141">
        <ele>138</ele>
        <time>2017-01-15T08:27:16.654Z</time>
      </trkpt>
      <trkpt lat="47.73945" lon="2.12141">
        <ele>138</ele>
        <time>2017-01-15T08:27:17.646Z</time>
      </trkpt>
      <trkpt lat="47.73943" lon="2.12156">
        <ele>138</ele>
        <time>2017-01-15T08:27:18.649Z</time>
      </trkpt>
      <trkpt lat="47.73943" lon="2.12156">
        <ele>138</ele>
        <time>2017-01-15T08:27:19.647Z</time>
      </trkpt>
      <trkpt lat="47.7394" lon="2.12168">
        <ele>138</ele>
        <time>2017-01-15T08:27:20.649Z</time>
      </trkpt>
      <trkpt lat="47.7394" lon="2.12168">
        <ele>138</ele>
        <time>2017-01-15T08:27:21.646Z</time>
      </trkpt>
      <trkpt lat="47.73936" lon="2.12181">
        <ele>138</ele>
        <time>2017-01-15T08:27:22.650Z</time>
      </trkpt>
      <trkpt lat="47.73936" lon="2.12181">
        <ele>138</ele>
        <time>2017-01-15T08:27:23.653Z</time>
      </trkpt>
      <trkpt lat="47.7393" lon="2.12192">
        <ele>138</ele>
        <time>2017-01-15T08:27:24.651Z</time>
      </trkpt>
      <trkpt lat="47.7393" lon="2.12192">
        <ele>138</ele>
        <time>2017-01-15T08:27:25.647Z</time>
      </trkpt>
      <trkpt lat="47.73923" lon="2.12201">
        <ele>139</ele>
        <time>2017-01-15T08:27:26.651Z</time>
      </trkpt>
      <trkpt lat="47.73923" lon="2.12201">
        <ele>139</ele>
        <time>2017-01-15T08:27:27.648Z</time>
      </trkpt>
      <trkpt lat="47.73916" lon="2.12209">
        <ele>138</ele>
        <time>2017-01-15T08:27:28.650Z</time>
      </trkpt>
      <trkpt lat="47.73914" lon="2.12214">
        <ele>138</ele>
        <time>2017-01-15T08:27:29.651Z</time>
      </trkpt>
      <trkpt lat="47.73914" lon="2.12214">
        <ele>138</ele>
        <time>2017-01-15T08:27:30.660Z</time>
      </trkpt>
      <trkpt lat="47.73909" lon="2.12223">
        <ele>138</ele>
        <time>2017-01-15T08:27:31.649Z</time>
      </trkpt>
      <trkpt lat="47.73906" lon="2.12228">
        <ele>138</ele>
        <time>2017-01-15T08:27:32.648Z</time>
      </trkpt>
      <trkpt lat="47.73906" lon="2.12228">
        <ele>138</ele>
        <time>2017-01-15T08:27:33.647Z</time>
      </trkpt>
      <trkpt lat="47.739" lon="2.12238">
        <ele>137</ele>
        <time>2017-01-15T08:27:34.657Z</time>
      </trkpt>
      <trkpt lat="47.73897" lon="2.12243">
        <ele>137</ele>
        <time>2017-01-15T08:27:35.650Z</time>
      </trkpt>
      <trkpt lat="47.73897" lon="2.12243">
        <ele>137</ele>
        <time>2017-01-15T08:27:36.631Z</time>
      </trkpt>
      <trkpt lat="47.73891" lon="2.12251">
        <ele>137</ele>
        <time>2017-01-15T08:27:37.660Z</time>
      </trkpt>
      <trkpt lat="47.73891" lon="2.12251">
        <ele>137</ele>
        <time>2017-01-15T08:27:38.648Z</time>
      </trkpt>
      <trkpt lat="47.73885" lon="2.12259">
        <ele>137</ele>
        <time>2017-01-15T08:27:39.647Z</time>
      </trkpt>
      <trkpt lat="47.73882" lon="2.12263">
        <ele>137</ele>
        <time>2017-01-15T08:27:40.636Z</time>
      </trkpt>
      <trkpt lat="47.73882" lon="2.12263">
        <ele>137</ele>
        <time>2017-01-15T08:27:41.662Z</time>
      </trkpt>
      <trkpt lat="47.73876" lon="2.12273">
        <ele>137</ele>
        <time>2017-01-15T08:27:42.652Z</time>
      </trkpt>
      <trkpt lat="47.73876" lon="2.12273">
        <ele>137</ele>
        <time>2017-01-15T08:27:43.647Z</time>
      </trkpt>
      <trkpt lat="47.7387" lon="2.12282">
        <ele>137</ele>
        <time>2017-01-15T08:27:44.650Z</time>
      </trkpt>
      <trkpt lat="47.7387" lon="2.12282">
        <ele>137</ele>
        <time>2017-01-15T08:27:45.647Z</time>
      </trkpt>
      <trkpt lat="47.73864" lon="2.12292">
        <ele>137</ele>
        <time>2017-01-15T08:27:46.647Z</time>
      </trkpt>
      <trkpt lat="47.73864" lon="2.12292">
        <ele>137</ele>
        <time>2017-01-15T08:27:47.649Z</time>
      </trkpt>
      <trkpt lat="47.73859" lon="2.12303">
        <ele>136</ele>
        <time>2017-01-15T08:27:48.649Z</time>
      </trkpt>
      <trkpt lat="47.73859" lon="2.12303">
        <ele>136</ele>
        <time>2017-01-15T08:27:49.647Z</time>
      </trkpt>
      <trkpt lat="47.73856" lon="2.12313">
        <ele>135</ele>
        <time>2017-01-15T08:27:50.651Z</time>
      </trkpt>
      <trkpt lat="47.73856" lon="2.12313">
        <ele>135</ele>
        <time>2017-01-15T08:27:51.646Z</time>
      </trkpt>
      <trkpt lat="47.73852" lon="2.12321">
        <ele>135</ele>
        <time>2017-01-15T08:27:52.649Z</time>
      </trkpt>
      <trkpt lat="47.73852" lon="2.12327">
        <ele>135</ele>
        <time>2017-01-15T08:27:53.652Z</time>
      </trkpt>
      <trkpt lat="47.73852" lon="2.12327">
        <ele>135</ele>
        <time>2017-01-15T08:27:54.649Z</time>
      </trkpt>
      <trkpt lat="47.7385" lon="2.12337">
        <ele>134</ele>
        <time>2017-01-15T08:27:55.650Z</time>
      </trkpt>
      <trkpt lat="47.7385" lon="2.12337">
        <ele>134</ele>
        <time>2017-01-15T08:27:56.646Z</time>
      </trkpt>
      <trkpt lat="47.73847" lon="2.12349">
        <ele>134</ele>
        <time>2017-01-15T08:27:57.650Z</time>
      </trkpt>
      <trkpt lat="47.73847" lon="2.12349">
        <ele>134</ele>
        <time>2017-01-15T08:27:58.647Z</time>
      </trkpt>
      <trkpt lat="47.73847" lon="2.1236">
        <ele>134</ele>
        <time>2017-01-15T08:27:59.648Z</time>
      </trkpt>
      <trkpt lat="47.73846" lon="2.12366">
        <ele>134</ele>
        <time>2017-01-15T08:28:00.651Z</time>
      </trkpt>
      <trkpt lat="47.73846" lon="2.12366">
        <ele>134</ele>
        <time>2017-01-15T08:28:01.648Z</time>
      </trkpt>
      <trkpt lat="47.73847" lon="2.12377">
        <ele>134</ele>
        <time>2017-01-15T08:28:02.650Z</time>
      </trkpt>
      <trkpt lat="47.73847" lon="2.12383">
        <ele>134</ele>
        <time>2017-01-15T08:28:03.651Z</time>
      </trkpt>
      <trkpt lat="47.73847" lon="2.12389">
        <ele>135</ele>
        <time>2017-01-15T08:28:04.650Z</time>
      </trkpt>
      <trkpt lat="47.73847" lon="2.12389">
        <ele>135</ele>
        <time>2017-01-15T08:28:05.653Z</time>
      </trkpt>
      <trkpt lat="47.73847" lon="2.12402">
        <ele>135</ele>
        <time>2017-01-15T08:28:06.650Z</time>
      </trkpt>
      <trkpt lat="47.73846" lon="2.12408">
        <ele>135</ele>
        <time>2017-01-15T08:28:07.650Z</time>
      </trkpt>
      <trkpt lat="47.73846" lon="2.12408">
        <ele>135</ele>
        <time>2017-01-15T08:28:08.645Z</time>
      </trkpt>
      <trkpt lat="47.73845" lon="2.12421">
        <ele>136</ele>
        <time>2017-01-15T08:28:09.649Z</time>
      </trkpt>
      <trkpt lat="47.73845" lon="2.12421">
        <ele>136</ele>
        <time>2017-01-15T08:28:10.648Z</time>
      </trkpt>
      <trkpt lat="47.73842" lon="2.12432">
        <ele>137</ele>
        <time>2017-01-15T08:28:11.652Z</time>
      </trkpt>
      <trkpt lat="47.73842" lon="2.12438">
        <ele>137</ele>
        <time>2017-01-15T08:28:12.662Z</time>
      </trkpt>
      <trkpt lat="47.73842" lon="2.12438">
        <ele>137</ele>
        <time>2017-01-15T08:28:13.651Z</time>
      </trkpt>
      <trkpt lat="47.7384" lon="2.12451">
        <ele>137</ele>
        <time>2017-01-15T08:28:14.642Z</time>
      </trkpt>
      <trkpt lat="47.7384" lon="2.12451">
        <ele>137</ele>
        <time>2017-01-15T08:28:15.659Z</time>
      </trkpt>
      <trkpt lat="47.73838" lon="2.12464">
        <ele>138</ele>
        <time>2017-01-15T08:28:16.657Z</time>
      </trkpt>
      <trkpt lat="47.73838" lon="2.12464">
        <ele>138</ele>
        <time>2017-01-15T08:28:17.652Z</time>
      </trkpt>
      <trkpt lat="47.73835" lon="2.12479">
        <ele>138</ele>
        <time>2017-01-15T08:28:18.651Z</time>
      </trkpt>
      <trkpt lat="47.73835" lon="2.12479">
        <ele>138</ele>
        <time>2017-01-15T08:28:19.647Z</time>
      </trkpt>
      <trkpt lat="47.73834" lon="2.12492">
        <ele>138</ele>
        <time>2017-01-15T08:28:20.651Z</time>
      </trkpt>
      <trkpt lat="47.73834" lon="2.12492">
        <ele>138</ele>
        <time>2017-01-15T08:28:21.648Z</time>
      </trkpt>
      <trkpt lat="47.73832" lon="2.12505">
        <ele>139</ele>
        <time>2017-01-15T08:28:22.651Z</time>
      </trkpt>
      <trkpt lat="47.73831" lon="2.12512">
        <ele>139</ele>
        <time>2017-01-15T08:28:23.652Z</time>
      </trkpt>
      <trkpt lat="47.7383" lon="2.12518">
        <ele>139</ele>
        <time>2017-01-15T08:28:24.650Z</time>
      </trkpt>
      <trkpt lat="47.7383" lon="2.12518">
        <ele>139</ele>
        <time>2017-01-15T08:28:25.646Z</time>
      </trkpt>
      <trkpt lat="47.7383" lon="2.1253">
        <ele>139</ele>
        <time>2017-01-15T08:28:26.653Z</time>
      </trkpt>
      <trkpt lat="47.7383" lon="2.12536">
        <ele>139</ele>
        <time>2017-01-15T08:28:27.650Z</time>
      </trkpt>
      <trkpt lat="47.7383" lon="2.12541">
        <ele>139</ele>
        <time>2017-01-15T08:28:28.650Z</time>
      </trkpt>
      <trkpt lat="47.7383" lon="2.12541">
        <ele>139</ele>
        <time>2017-01-15T08:28:29.648Z</time>
      </trkpt>
      <trkpt lat="47.7383" lon="2.12552">
        <ele>140</ele>
        <time>2017-01-15T08:28:30.650Z</time>
      </trkpt>
      <trkpt lat="47.73829" lon="2.12558">
        <ele>140</ele>
        <time>2017-01-15T08:28:31.649Z</time>
      </trkpt>
      <trkpt lat="47.73829" lon="2.12558">
        <ele>140</ele>
        <time>2017-01-15T08:28:32.662Z</time>
      </trkpt>
      <trkpt lat="47.73827" lon="2.1257">
        <ele>140</ele>
        <time>2017-01-15T08:28:33.653Z</time>
      </trkpt>
      <trkpt lat="47.73827" lon="2.1257">
        <ele>140</ele>
        <time>2017-01-15T08:28:34.647Z</time>
      </trkpt>
      <trkpt lat="47.73825" lon="2.12583">
        <ele>140</ele>
        <time>2017-01-15T08:28:35.651Z</time>
      </trkpt>
      <trkpt lat="47.73825" lon="2.12589">
        <ele>140</ele>
        <time>2017-01-15T08:28:36.637Z</time>
      </trkpt>
      <trkpt lat="47.73825" lon="2.12589">
        <ele>140</ele>
        <time>2017-01-15T08:28:37.647Z</time>
      </trkpt>
      <trkpt lat="47.73823" lon="2.12604">
        <ele>140</ele>
        <time>2017-01-15T08:28:38.650Z</time>
      </trkpt>
      <trkpt lat="47.73823" lon="2.12604">
        <ele>140</ele>
        <time>2017-01-15T08:28:39.641Z</time>
      </trkpt>
      <trkpt lat="47.7382" lon="2.12617">
        <ele>140</ele>
        <time>2017-01-15T08:28:40.657Z</time>
      </trkpt>
      <trkpt lat="47.7382" lon="2.12617">
        <ele>140</ele>
        <time>2017-01-15T08:28:41.647Z</time>
      </trkpt>
      <trkpt lat="47.73817" lon="2.1263">
        <ele>139</ele>
        <time>2017-01-15T08:28:42.650Z</time>
      </trkpt>
      <trkpt lat="47.73817" lon="2.1263">
        <ele>139</ele>
        <time>2017-01-15T08:28:43.659Z</time>
      </trkpt>
      <trkpt lat="47.73814" lon="2.12642">
        <ele>139</ele>
        <time>2017-01-15T08:28:44.653Z</time>
      </trkpt>
      <trkpt lat="47.73812" lon="2.12647">
        <ele>139</ele>
        <time>2017-01-15T08:28:45.654Z</time>
      </trkpt>
      <trkpt lat="47.73812" lon="2.12647">
        <ele>139</ele>
        <time>2017-01-15T08:28:46.647Z</time>
      </trkpt>
      <trkpt lat="47.7381" lon="2.12658">
        <ele>139</ele>
        <time>2017-01-15T08:28:47.650Z</time>
      </trkpt>
      <trkpt lat="47.73809" lon="2.12664">
        <ele>138</ele>
        <time>2017-01-15T08:28:48.650Z</time>
      </trkpt>
      <trkpt lat="47.73809" lon="2.12664">
        <ele>138</ele>
        <time>2017-01-15T08:28:49.648Z</time>
      </trkpt>
      <trkpt lat="47.73805" lon="2.12676">
        <ele>137</ele>
        <time>2017-01-15T08:28:50.651Z</time>
      </trkpt>
      <trkpt lat="47.73805" lon="2.12676">
        <ele>137</ele>
        <time>2017-01-15T08:28:51.647Z</time>
      </trkpt>
      <trkpt lat="47.73801" lon="2.12687">
        <ele>136</ele>
        <time>2017-01-15T08:28:52.651Z</time>
      </trkpt>
      <trkpt lat="47.73801" lon="2.12687">
        <ele>136</ele>
        <time>2017-01-15T08:28:53.648Z</time>
      </trkpt>
      <trkpt lat="47.73798" lon="2.12698">
        <ele>136</ele>
        <time>2017-01-15T08:28:54.651Z</time>
      </trkpt>
      <trkpt lat="47.73798" lon="2.12704">
        <ele>135</ele>
        <time>2017-01-15T08:28:55.650Z</time>
      </trkpt>
      <trkpt lat="47.73798" lon="2.12704">
        <ele>135</ele>
        <time>2017-01-15T08:28:56.648Z</time>
      </trkpt>
      <trkpt lat="47.73796" lon="2.12713">
        <ele>135</ele>
        <time>2017-01-15T08:28:57.651Z</time>
      </trkpt>
      <trkpt lat="47.73796" lon="2.12713">
        <ele>135</ele>
        <time>2017-01-15T08:28:58.647Z</time>
      </trkpt>
      <trkpt lat="47.73794" lon="2.12724">
        <ele>135</ele>
        <time>2017-01-15T08:28:59.629Z</time>
      </trkpt>
      <trkpt lat="47.73794" lon="2.12724">
        <ele>135</ele>
        <time>2017-01-15T08:29:00.660Z</time>
      </trkpt>
      <trkpt lat="47.73792" lon="2.12737">
        <ele>135</ele>
        <time>2017-01-15T08:29:01.650Z</time>
      </trkpt>
      <trkpt lat="47.73791" lon="2.12743">
        <ele>135</ele>
        <time>2017-01-15T08:29:02.648Z</time>
      </trkpt>
      <trkpt lat="47.73791" lon="2.12743">
        <ele>135</ele>
        <time>2017-01-15T08:29:03.647Z</time>
      </trkpt>
      <trkpt lat="47.73788" lon="2.12756">
        <ele>135</ele>
        <time>2017-01-15T08:29:04.650Z</time>
      </trkpt>
      <trkpt lat="47.73788" lon="2.12756">
        <ele>135</ele>
        <time>2017-01-15T08:29:05.648Z</time>
      </trkpt>
      <trkpt lat="47.73785" lon="2.12768">
        <ele>135</ele>
        <time>2017-01-15T08:29:06.650Z</time>
      </trkpt>
      <trkpt lat="47.73783" lon="2.12774">
        <ele>135</ele>
        <time>2017-01-15T08:29:07.650Z</time>
      </trkpt>
      <trkpt lat="47.73782" lon="2.12781">
        <ele>135</ele>
        <time>2017-01-15T08:29:08.651Z</time>
      </trkpt>
      <trkpt lat="47.73782" lon="2.12781">
        <ele>135</ele>
        <time>2017-01-15T08:29:09.647Z</time>
      </trkpt>
      <trkpt lat="47.73779" lon="2.12794">
        <ele>135</ele>
        <time>2017-01-15T08:29:10.650Z</time>
      </trkpt>
      <trkpt lat="47.73777" lon="2.128">
        <ele>134</ele>
        <time>2017-01-15T08:29:11.650Z</time>
      </trkpt>
      <trkpt lat="47.73775" lon="2.12807">
        <ele>134</ele>
        <time>2017-01-15T08:29:12.651Z</time>
      </trkpt>
      <trkpt lat="47.73775" lon="2.12807">
        <ele>134</ele>
        <time>2017-01-15T08:29:13.647Z</time>
      </trkpt>
      <trkpt lat="47.73772" lon="2.1282">
        <ele>133</ele>
        <time>2017-01-15T08:29:14.647Z</time>
      </trkpt>
      <trkpt lat="47.7377" lon="2.12827">
        <ele>132</ele>
        <time>2017-01-15T08:29:15.662Z</time>
      </trkpt>
      <trkpt lat="47.7377" lon="2.12827">
        <ele>132</ele>
        <time>2017-01-15T08:29:16.709Z</time>
      </trkpt>
      <trkpt lat="47.73767" lon="2.1284">
        <ele>132</ele>
        <time>2017-01-15T08:29:17.667Z</time>
      </trkpt>
      <trkpt lat="47.73765" lon="2.12846">
        <ele>132</ele>
        <time>2017-01-15T08:29:18.656Z</time>
      </trkpt>
      <trkpt lat="47.73765" lon="2.12846">
        <ele>132</ele>
        <time>2017-01-15T08:29:19.647Z</time>
      </trkpt>
      <trkpt lat="47.73762" lon="2.12857">
        <ele>132</ele>
        <time>2017-01-15T08:29:20.650Z</time>
      </trkpt>
      <trkpt lat="47.7376" lon="2.12863">
        <ele>132</ele>
        <time>2017-01-15T08:29:21.659Z</time>
      </trkpt>
      <trkpt lat="47.7376" lon="2.12863">
        <ele>132</ele>
        <time>2017-01-15T08:29:22.658Z</time>
      </trkpt>
      <trkpt lat="47.73758" lon="2.12876">
        <ele>132</ele>
        <time>2017-01-15T08:29:23.652Z</time>
      </trkpt>
      <trkpt lat="47.73758" lon="2.12876">
        <ele>132</ele>
        <time>2017-01-15T08:29:24.649Z</time>
      </trkpt>
      <trkpt lat="47.73756" lon="2.12889">
        <ele>132</ele>
        <time>2017-01-15T08:29:25.648Z</time>
      </trkpt>
      <trkpt lat="47.73756" lon="2.12889">
        <ele>132</ele>
        <time>2017-01-15T08:29:26.648Z</time>
      </trkpt>
      <trkpt lat="47.73754" lon="2.12901">
        <ele>131</ele>
        <time>2017-01-15T08:29:27.652Z</time>
      </trkpt>
      <trkpt lat="47.73754" lon="2.12901">
        <ele>131</ele>
        <time>2017-01-15T08:29:28.648Z</time>
      </trkpt>
      <trkpt lat="47.73753" lon="2.12913">
        <ele>131</ele>
        <time>2017-01-15T08:29:29.651Z</time>
      </trkpt>
      <trkpt lat="47.73753" lon="2.12913">
        <ele>131</ele>
        <time>2017-01-15T08:29:30.654Z</time>
      </trkpt>
      <trkpt lat="47.73751" lon="2.12926">
        <ele>131</ele>
        <time>2017-01-15T08:29:31.650Z</time>
      </trkpt>
      <trkpt lat="47.73751" lon="2.12926">
        <ele>131</ele>
        <time>2017-01-15T08:29:32.647Z</time>
      </trkpt>
      <trkpt lat="47.73749" lon="2.12938">
        <ele>131</ele>
        <time>2017-01-15T08:29:33.651Z</time>
      </trkpt>
      <trkpt lat="47.73749" lon="2.12938">
        <ele>131</ele>
        <time>2017-01-15T08:29:34.647Z</time>
      </trkpt>
      <trkpt lat="47.73747" lon="2.12949">
        <ele>131</ele>
        <time>2017-01-15T08:29:35.653Z</time>
      </trkpt>
      <trkpt lat="47.73747" lon="2.12949">
        <ele>131</ele>
        <time>2017-01-15T08:29:36.628Z</time>
      </trkpt>
      <trkpt lat="47.73746" lon="2.12962">
        <ele>131</ele>
        <time>2017-01-15T08:29:37.659Z</time>
      </trkpt>
      <trkpt lat="47.73745" lon="2.12968">
        <ele>131</ele>
        <time>2017-01-15T08:29:38.651Z</time>
      </trkpt>
      <trkpt lat="47.73745" lon="2.12968">
        <ele>131</ele>
        <time>2017-01-15T08:29:39.647Z</time>
      </trkpt>
      <trkpt lat="47.73744" lon="2.12981">
        <ele>131</ele>
        <time>2017-01-15T08:29:40.650Z</time>
      </trkpt>
      <trkpt lat="47.73744" lon="2.12981">
        <ele>131</ele>
        <time>2017-01-15T08:29:41.652Z</time>
      </trkpt>
      <trkpt lat="47.73743" lon="2.12994">
        <ele>132</ele>
        <time>2017-01-15T08:29:42.651Z</time>
      </trkpt>
      <trkpt lat="47.73743" lon="2.12994">
        <ele>132</ele>
        <time>2017-01-15T08:29:43.647Z</time>
      </trkpt>
      <trkpt lat="47.73741" lon="2.13005">
        <ele>132</ele>
        <time>2017-01-15T08:29:44.647Z</time>
      </trkpt>
      <trkpt lat="47.73741" lon="2.13005">
        <ele>132</ele>
        <time>2017-01-15T08:29:45.653Z</time>
      </trkpt>
      <trkpt lat="47.73741" lon="2.13018">
        <ele>133</ele>
        <time>2017-01-15T08:29:46.664Z</time>
      </trkpt>
      <trkpt lat="47.7374" lon="2.13024">
        <ele>133</ele>
        <time>2017-01-15T08:29:47.656Z</time>
      </trkpt>
      <trkpt lat="47.7374" lon="2.13024">
        <ele>133</ele>
        <time>2017-01-15T08:29:48.649Z</time>
      </trkpt>
      <trkpt lat="47.73739" lon="2.13033">
        <ele>134</ele>
        <time>2017-01-15T08:29:49.649Z</time>
      </trkpt>
      <trkpt lat="47.73739" lon="2.13033">
        <ele>134</ele>
        <time>2017-01-15T08:29:50.650Z</time>
      </trkpt>
      <trkpt lat="47.73737" lon="2.13044">
        <ele>134</ele>
        <time>2017-01-15T08:29:51.651Z</time>
      </trkpt>
      <trkpt lat="47.73736" lon="2.1305">
        <ele>134</ele>
        <time>2017-01-15T08:29:52.651Z</time>
      </trkpt>
      <trkpt lat="47.73736" lon="2.1305">
        <ele>134</ele>
        <time>2017-01-15T08:29:53.647Z</time>
      </trkpt>
      <trkpt lat="47.73735" lon="2.13058">
        <ele>135</ele>
        <time>2017-01-15T08:29:54.652Z</time>
      </trkpt>
      <trkpt lat="47.73735" lon="2.13058">
        <ele>135</ele>
        <time>2017-01-15T08:29:55.648Z</time>
      </trkpt>
      <trkpt lat="47.73734" lon="2.13066">
        <ele>135</ele>
        <time>2017-01-15T08:29:56.659Z</time>
      </trkpt>
      <trkpt lat="47.73733" lon="2.1307">
        <ele>135</ele>
        <time>2017-01-15T08:29:57.650Z</time>
      </trkpt>
      <trkpt lat="47.73733" lon="2.1307">
        <ele>135</ele>
        <time>2017-01-15T08:29:58.647Z</time>
      </trkpt>
      <trkpt lat="47.73732" lon="2.13079">
        <ele>135</ele>
        <time>2017-01-15T08:29:59.653Z</time>
      </trkpt>
      <trkpt lat="47.73732" lon="2.13083">
        <ele>134</ele>
        <time>2017-01-15T08:30:00.651Z</time>
      </trkpt>
      <trkpt lat="47.73732" lon="2.13083">
        <ele>134</ele>
        <time>2017-01-15T08:30:01.647Z</time>
      </trkpt>
      <trkpt lat="47.73731" lon="2.13089">
        <ele>135</ele>
        <time>2017-01-15T08:30:02.652Z</time>
      </trkpt>
      <trkpt lat="47.73731" lon="2.13089">
        <ele>135</ele>
        <time>2017-01-15T08:30:03.648Z</time>
      </trkpt>
      <trkpt lat="47.73731" lon="2.13095">
        <ele>135</ele>
        <time>2017-01-15T08:30:04.662Z</time>
      </trkpt>
      <trkpt lat="47.7373" lon="2.13099">
        <ele>135</ele>
        <time>2017-01-15T08:30:05.653Z</time>
      </trkpt>
      <trkpt lat="47.7373" lon="2.13099">
        <ele>135</ele>
        <time>2017-01-15T08:30:06.649Z</time>
      </trkpt>
      <trkpt lat="47.73729" lon="2.13104">
        <ele>134</ele>
        <time>2017-01-15T08:30:07.654Z</time>
      </trkpt>
      <trkpt lat="47.73729" lon="2.13104">
        <ele>134</ele>
        <time>2017-01-15T08:30:08.648Z</time>
      </trkpt>
      <trkpt lat="47.73728" lon="2.13108">
        <ele>134</ele>
        <time>2017-01-15T08:30:09.651Z</time>
      </trkpt>
      <trkpt lat="47.73728" lon="2.13108">
        <ele>134</ele>
        <time>2017-01-15T08:30:10.661Z</time>
      </trkpt>
      <trkpt lat="47.73728" lon="2.13109">
        <ele>134</ele>
        <time>2017-01-15T08:30:11.650Z</time>
      </trkpt>
      <trkpt lat="47.73728" lon="2.13109">
        <ele>134</ele>
        <time>2017-01-15T08:30:12.643Z</time>
      </trkpt>
      <trkpt lat="47.73728" lon="2.13109">
        <ele>134</ele>
        <time>2017-01-15T08:30:13.632Z</time>
      </trkpt>
      <trkpt lat="47.73724" lon="2.13116">
        <ele>128</ele>
        <time>2017-01-15T08:30:14.663Z</time>
      </trkpt>
      <trkpt lat="47.73724" lon="2.13116">
        <ele>128</ele>
        <time>2017-01-15T08:30:15.661Z</time>
      </trkpt>
      <trkpt lat="47.73721" lon="2.13116">
        <ele>128</ele>
        <time>2017-01-15T08:30:16.630Z</time>
      </trkpt>
      <trkpt lat="47.73719" lon="2.13115">
        <ele>128</ele>
        <time>2017-01-15T08:30:17.629Z</time>
      </trkpt>
      <trkpt lat="47.73719" lon="2.13115">
        <ele>128</ele>
        <time>2017-01-15T08:30:18.628Z</time>
      </trkpt>
      <trkpt lat="47.73715" lon="2.13113">
        <ele>127</ele>
        <time>2017-01-15T08:30:19.640Z</time>
      </trkpt>
      <trkpt lat="47.73715" lon="2.13113">
        <ele>127</ele>
        <time>2017-01-15T08:30:20.628Z</time>
      </trkpt>
      <trkpt lat="47.73709" lon="2.1311">
        <ele>128</ele>
        <time>2017-01-15T08:30:21.630Z</time>
      </trkpt>
      <trkpt lat="47.73709" lon="2.1311">
        <ele>128</ele>
        <time>2017-01-15T08:30:22.667Z</time>
      </trkpt>
      <trkpt lat="47.73703" lon="2.13107">
        <ele>127</ele>
        <time>2017-01-15T08:30:23.628Z</time>
      </trkpt>
      <trkpt lat="47.737" lon="2.13105">
        <ele>127</ele>
        <time>2017-01-15T08:30:24.630Z</time>
      </trkpt>
      <trkpt lat="47.737" lon="2.13105">
        <ele>127</ele>
        <time>2017-01-15T08:30:25.668Z</time>
      </trkpt>
      <trkpt lat="47.73692" lon="2.13103">
        <ele>127</ele>
        <time>2017-01-15T08:30:26.667Z</time>
      </trkpt>
      <trkpt lat="47.73688" lon="2.13102">
        <ele>128</ele>
        <time>2017-01-15T08:30:27.667Z</time>
      </trkpt>
      <trkpt lat="47.73685" lon="2.131">
        <ele>128</ele>
        <time>2017-01-15T08:30:28.639Z</time>
      </trkpt>
      <trkpt lat="47.73685" lon="2.131">
        <ele>128</ele>
        <time>2017-01-15T08:30:29.667Z</time>
      </trkpt>
      <trkpt lat="47.73677" lon="2.13097">
        <ele>128</ele>
        <time>2017-01-15T08:30:30.630Z</time>
      </trkpt>
      <trkpt lat="47.73674" lon="2.13096">
        <ele>128</ele>
        <time>2017-01-15T08:30:31.631Z</time>
      </trkpt>
      <trkpt lat="47.7367" lon="2.13095">
        <ele>129</ele>
        <time>2017-01-15T08:30:32.630Z</time>
      </trkpt>
      <trkpt lat="47.7367" lon="2.13095">
        <ele>129</ele>
        <time>2017-01-15T08:30:33.667Z</time>
      </trkpt>
      <trkpt lat="47.73662" lon="2.13092">
        <ele>129</ele>
        <time>2017-01-15T08:30:34.630Z</time>
      </trkpt>
      <trkpt lat="47.73662" lon="2.13092">
        <ele>129</ele>
        <time>2017-01-15T08:30:35.647Z</time>
      </trkpt>
      <trkpt lat="47.73655" lon="2.13089">
        <ele>129</ele>
        <time>2017-01-15T08:30:36.636Z</time>
      </trkpt>
      <trkpt lat="47.73655" lon="2.13089">
        <ele>129</ele>
        <time>2017-01-15T08:30:37.668Z</time>
      </trkpt>
      <trkpt lat="47.73647" lon="2.13086">
        <ele>129</ele>
        <time>2017-01-15T08:30:38.667Z</time>
      </trkpt>
      <trkpt lat="47.73642" lon="2.13084">
        <ele>129</ele>
        <time>2017-01-15T08:30:39.630Z</time>
      </trkpt>
      <trkpt lat="47.73642" lon="2.13084">
        <ele>129</ele>
        <time>2017-01-15T08:30:40.631Z</time>
      </trkpt>
      <trkpt lat="47.73634" lon="2.13081">
        <ele>129</ele>
        <time>2017-01-15T08:30:41.631Z</time>
      </trkpt>
      <trkpt lat="47.73634" lon="2.13081">
        <ele>129</ele>
        <time>2017-01-15T08:30:42.629Z</time>
      </trkpt>
      <trkpt lat="47.73626" lon="2.13079">
        <ele>129</ele>
        <time>2017-01-15T08:30:43.630Z</time>
      </trkpt>
      <trkpt lat="47.73626" lon="2.13079">
        <ele>129</ele>
        <time>2017-01-15T08:30:44.628Z</time>
      </trkpt>
      <trkpt lat="47.73618" lon="2.13076">
        <ele>129</ele>
        <time>2017-01-15T08:30:45.630Z</time>
      </trkpt>
      <trkpt lat="47.73618" lon="2.13076">
        <ele>129</ele>
        <time>2017-01-15T08:30:46.628Z</time>
      </trkpt>
      <trkpt lat="47.7361" lon="2.13072">
        <ele>129</ele>
        <time>2017-01-15T08:30:47.631Z</time>
      </trkpt>
      <trkpt lat="47.7361" lon="2.13072">
        <ele>129</ele>
        <time>2017-01-15T08:30:48.628Z</time>
      </trkpt>
      <trkpt lat="47.73602" lon="2.13068">
        <ele>130</ele>
        <time>2017-01-15T08:30:49.631Z</time>
      </trkpt>
      <trkpt lat="47.73598" lon="2.13067">
        <ele>129</ele>
        <time>2017-01-15T08:30:50.630Z</time>
      </trkpt>
      <trkpt lat="47.73598" lon="2.13067">
        <ele>129</ele>
        <time>2017-01-15T08:30:51.667Z</time>
      </trkpt>
      <trkpt lat="47.7359" lon="2.13063">
        <ele>130</ele>
        <time>2017-01-15T08:30:52.630Z</time>
      </trkpt>
      <trkpt lat="47.7359" lon="2.13063">
        <ele>130</ele>
        <time>2017-01-15T08:30:53.628Z</time>
      </trkpt>
      <trkpt lat="47.73581" lon="2.1306">
        <ele>130</ele>
        <time>2017-01-15T08:30:54.629Z</time>
      </trkpt>
      <trkpt lat="47.73581" lon="2.1306">
        <ele>130</ele>
        <time>2017-01-15T08:30:55.668Z</time>
      </trkpt>
      <trkpt lat="47.73572" lon="2.13057">
        <ele>130</ele>
        <time>2017-01-15T08:30:56.667Z</time>
      </trkpt>
      <trkpt lat="47.73572" lon="2.13057">
        <ele>130</ele>
        <time>2017-01-15T08:30:57.668Z</time>
      </trkpt>
      <trkpt lat="47.73564" lon="2.13053">
        <ele>130</ele>
        <time>2017-01-15T08:30:58.629Z</time>
      </trkpt>
      <trkpt lat="47.7356" lon="2.13051">
        <ele>130</ele>
        <time>2017-01-15T08:30:59.637Z</time>
      </trkpt>
      <trkpt lat="47.7356" lon="2.13051">
        <ele>130</ele>
        <time>2017-01-15T08:31:00.629Z</time>
      </trkpt>
      <trkpt lat="47.73551" lon="2.13047">
        <ele>129</ele>
        <time>2017-01-15T08:31:01.631Z</time>
      </trkpt>
      <trkpt lat="47.73547" lon="2.13045">
        <ele>130</ele>
        <time>2017-01-15T08:31:02.646Z</time>
      </trkpt>
      <trkpt lat="47.73547" lon="2.13045">
        <ele>130</ele>
        <time>2017-01-15T08:31:03.629Z</time>
      </trkpt>
      <trkpt lat="47.73538" lon="2.13041">
        <ele>129</ele>
        <time>2017-01-15T08:31:04.629Z</time>
      </trkpt>
      <trkpt lat="47.73534" lon="2.1304">
        <ele>129</ele>
        <time>2017-01-15T08:31:05.631Z</time>
      </trkpt>
      <trkpt lat="47.73534" lon="2.1304">
        <ele>129</ele>
        <time>2017-01-15T08:31:06.629Z</time>
      </trkpt>
      <trkpt lat="47.73525" lon="2.13037">
        <ele>129</ele>
        <time>2017-01-15T08:31:07.639Z</time>
      </trkpt>
      <trkpt lat="47.73525" lon="2.13037">
        <ele>129</ele>
        <time>2017-01-15T08:31:08.628Z</time>
      </trkpt>
      <trkpt lat="47.73516" lon="2.13034">
        <ele>129</ele>
        <time>2017-01-15T08:31:09.630Z</time>
      </trkpt>
      <trkpt lat="47.73516" lon="2.13034">
        <ele>129</ele>
        <time>2017-01-15T08:31:10.628Z</time>
      </trkpt>
      <trkpt lat="47.73507" lon="2.13031">
        <ele>128</ele>
        <time>2017-01-15T08:31:11.628Z</time>
      </trkpt>
      <trkpt lat="47.73507" lon="2.13031">
        <ele>128</ele>
        <time>2017-01-15T08:31:12.629Z</time>
      </trkpt>
      <trkpt lat="47.73498" lon="2.13028">
        <ele>128</ele>
        <time>2017-01-15T08:31:13.628Z</time>
      </trkpt>
      <trkpt lat="47.73498" lon="2.13028">
        <ele>128</ele>
        <time>2017-01-15T08:31:14.641Z</time>
      </trkpt>
      <trkpt lat="47.73489" lon="2.13025">
        <ele>128</ele>
        <time>2017-01-15T08:31:15.664Z</time>
      </trkpt>
      <trkpt lat="47.73485" lon="2.13023">
        <ele>128</ele>
        <time>2017-01-15T08:31:16.667Z</time>
      </trkpt>
      <trkpt lat="47.73481" lon="2.13022">
        <ele>128</ele>
        <time>2017-01-15T08:31:17.629Z</time>
      </trkpt>
      <trkpt lat="47.73481" lon="2.13022">
        <ele>128</ele>
        <time>2017-01-15T08:31:18.629Z</time>
      </trkpt>
      <trkpt lat="47.73472" lon="2.13019">
        <ele>127</ele>
        <time>2017-01-15T08:31:19.630Z</time>
      </trkpt>
      <trkpt lat="47.73468" lon="2.13017">
        <ele>128</ele>
        <time>2017-01-15T08:31:20.628Z</time>
      </trkpt>
      <trkpt lat="47.73468" lon="2.13017">
        <ele>128</ele>
        <time>2017-01-15T08:31:21.628Z</time>
      </trkpt>
      <trkpt lat="47.73459" lon="2.13014">
        <ele>128</ele>
        <time>2017-01-15T08:31:22.637Z</time>
      </trkpt>
      <trkpt lat="47.73459" lon="2.13014">
        <ele>128</ele>
        <time>2017-01-15T08:31:23.628Z</time>
      </trkpt>
      <trkpt lat="47.73451" lon="2.1301">
        <ele>128</ele>
        <time>2017-01-15T08:31:24.631Z</time>
      </trkpt>
      <trkpt lat="47.73451" lon="2.1301">
        <ele>128</ele>
        <time>2017-01-15T08:31:25.628Z</time>
      </trkpt>
      <trkpt lat="47.73441" lon="2.13006">
        <ele>128</ele>
        <time>2017-01-15T08:31:26.631Z</time>
      </trkpt>
      <trkpt lat="47.73441" lon="2.13006">
        <ele>128</ele>
        <time>2017-01-15T08:31:27.628Z</time>
      </trkpt>
      <trkpt lat="47.73431" lon="2.13003">
        <ele>128</ele>
        <time>2017-01-15T08:31:28.629Z</time>
      </trkpt>
      <trkpt lat="47.73431" lon="2.13003">
        <ele>128</ele>
        <time>2017-01-15T08:31:29.628Z</time>
      </trkpt>
      <trkpt lat="47.73423" lon="2.13">
        <ele>128</ele>
        <time>2017-01-15T08:31:30.631Z</time>
      </trkpt>
      <trkpt lat="47.73418" lon="2.12999">
        <ele>128</ele>
        <time>2017-01-15T08:31:31.632Z</time>
      </trkpt>
      <trkpt lat="47.73418" lon="2.12999">
        <ele>128</ele>
        <time>2017-01-15T08:31:32.639Z</time>
      </trkpt>
      <trkpt lat="47.73409" lon="2.12997">
        <ele>128</ele>
        <time>2017-01-15T08:31:33.632Z</time>
      </trkpt>
      <trkpt lat="47.73405" lon="2.12995">
        <ele>128</ele>
        <time>2017-01-15T08:31:34.630Z</time>
      </trkpt>
      <trkpt lat="47.734" lon="2.12994">
        <ele>129</ele>
        <time>2017-01-15T08:31:35.633Z</time>
      </trkpt>
      <trkpt lat="47.734" lon="2.12994">
        <ele>129</ele>
        <time>2017-01-15T08:31:36.629Z</time>
      </trkpt>
      <trkpt lat="47.73392" lon="2.12992">
        <ele>130</ele>
        <time>2017-01-15T08:31:37.662Z</time>
      </trkpt>
      <trkpt lat="47.73387" lon="2.12991">
        <ele>130</ele>
        <time>2017-01-15T08:31:38.631Z</time>
      </trkpt>
      <trkpt lat="47.73383" lon="2.1299">
        <ele>130</ele>
        <time>2017-01-15T08:31:39.630Z</time>
      </trkpt>
      <trkpt lat="47.73383" lon="2.1299">
        <ele>130</ele>
        <time>2017-01-15T08:31:40.640Z</time>
      </trkpt>
      <trkpt lat="47.73374" lon="2.12988">
        <ele>130</ele>
        <time>2017-01-15T08:31:41.631Z</time>
      </trkpt>
      <trkpt lat="47.73374" lon="2.12988">
        <ele>130</ele>
        <time>2017-01-15T08:31:42.629Z</time>
      </trkpt>
      <trkpt lat="47.73364" lon="2.12985">
        <ele>130</ele>
        <time>2017-01-15T08:31:43.630Z</time>
      </trkpt>
      <trkpt lat="47.73359" lon="2.12984">
        <ele>130</ele>
        <time>2017-01-15T08:31:44.630Z</time>
      </trkpt>
      <trkpt lat="47.73359" lon="2.12984">
        <ele>130</ele>
        <time>2017-01-15T08:31:45.628Z</time>
      </trkpt>
      <trkpt lat="47.7335" lon="2.12981">
        <ele>131</ele>
        <time>2017-01-15T08:31:46.630Z</time>
      </trkpt>
      <trkpt lat="47.7335" lon="2.12981">
        <ele>131</ele>
        <time>2017-01-15T08:31:47.628Z</time>
      </trkpt>
      <trkpt lat="47.7334" lon="2.1298">
        <ele>131</ele>
        <time>2017-01-15T08:31:48.641Z</time>
      </trkpt>
      <trkpt lat="47.73335" lon="2.12979">
        <ele>131</ele>
        <time>2017-01-15T08:31:49.632Z</time>
      </trkpt>
      <trkpt lat="47.73335" lon="2.12979">
        <ele>131</ele>
        <time>2017-01-15T08:31:50.661Z</time>
      </trkpt>
      <trkpt lat="47.73325" lon="2.12977">
        <ele>131</ele>
        <time>2017-01-15T08:31:51.631Z</time>
      </trkpt>
      <trkpt lat="47.7332" lon="2.12977">
        <ele>132</ele>
        <time>2017-01-15T08:31:52.631Z</time>
      </trkpt>
      <trkpt lat="47.7332" lon="2.12977">
        <ele>132</ele>
        <time>2017-01-15T08:31:53.628Z</time>
      </trkpt>
      <trkpt lat="47.73311" lon="2.12974">
        <ele>133</ele>
        <time>2017-01-15T08:31:54.630Z</time>
      </trkpt>
      <trkpt lat="47.73311" lon="2.12974">
        <ele>133</ele>
        <time>2017-01-15T08:31:55.628Z</time>
      </trkpt>
      <trkpt lat="47.73303" lon="2.12971">
        <ele>133</ele>
        <time>2017-01-15T08:31:56.630Z</time>
      </trkpt>
      <trkpt lat="47.73298" lon="2.1297">
        <ele>134</ele>
        <time>2017-01-15T08:31:57.630Z</time>
      </trkpt>
      <trkpt lat="47.73298" lon="2.1297">
        <ele>134</ele>
        <time>2017-01-15T08:31:58.628Z</time>
      </trkpt>
      <trkpt lat="47.73289" lon="2.12967">
        <ele>134</ele>
        <time>2017-01-15T08:31:59.630Z</time>
      </trkpt>
      <trkpt lat="47.73289" lon="2.12967">
        <ele>134</ele>
        <time>2017-01-15T08:32:00.661Z</time>
      </trkpt>
      <trkpt lat="47.73282" lon="2.12963">
        <ele>135</ele>
        <time>2017-01-15T08:32:01.629Z</time>
      </trkpt>
      <trkpt lat="47.73282" lon="2.12963">
        <ele>135</ele>
        <time>2017-01-15T08:32:02.638Z</time>
      </trkpt>
      <trkpt lat="47.73274" lon="2.12959">
        <ele>135</ele>
        <time>2017-01-15T08:32:03.641Z</time>
      </trkpt>
      <trkpt lat="47.73274" lon="2.12959">
        <ele>135</ele>
        <time>2017-01-15T08:32:04.629Z</time>
      </trkpt>
      <trkpt lat="47.73265" lon="2.12955">
        <ele>135</ele>
        <time>2017-01-15T08:32:05.631Z</time>
      </trkpt>
      <trkpt lat="47.73265" lon="2.12955">
        <ele>135</ele>
        <time>2017-01-15T08:32:06.629Z</time>
      </trkpt>
      <trkpt lat="47.73257" lon="2.12951">
        <ele>136</ele>
        <time>2017-01-15T08:32:07.629Z</time>
      </trkpt>
      <trkpt lat="47.73253" lon="2.12949">
        <ele>136</ele>
        <time>2017-01-15T08:32:08.630Z</time>
      </trkpt>
      <trkpt lat="47.73253" lon="2.12949">
        <ele>136</ele>
        <time>2017-01-15T08:32:09.628Z</time>
      </trkpt>
      <trkpt lat="47.73245" lon="2.12945">
        <ele>137</ele>
        <time>2017-01-15T08:32:10.634Z</time>
      </trkpt>
      <trkpt lat="47.73241" lon="2.12943">
        <ele>137</ele>
        <time>2017-01-15T08:32:11.631Z</time>
      </trkpt>
      <trkpt lat="47.73241" lon="2.12943">
        <ele>137</ele>
        <time>2017-01-15T08:32:12.629Z</time>
      </trkpt>
      <trkpt lat="47.73231" lon="2.1294">
        <ele>137</ele>
        <time>2017-01-15T08:32:13.651Z</time>
      </trkpt>
      <trkpt lat="47.73231" lon="2.1294">
        <ele>137</ele>
        <time>2017-01-15T08:32:14.641Z</time>
      </trkpt>
      <trkpt lat="47.73223" lon="2.12936">
        <ele>137</ele>
        <time>2017-01-15T08:32:15.663Z</time>
      </trkpt>
      <trkpt lat="47.73219" lon="2.12934">
        <ele>137</ele>
        <time>2017-01-15T08:32:16.668Z</time>
      </trkpt>
      <trkpt lat="47.73214" lon="2.12932">
        <ele>137</ele>
        <time>2017-01-15T08:32:17.629Z</time>
      </trkpt>
      <trkpt lat="47.73214" lon="2.12932">
        <ele>137</ele>
        <time>2017-01-15T08:32:18.631Z</time>
      </trkpt>
      <trkpt lat="47.73204" lon="2.12927">
        <ele>138</ele>
        <time>2017-01-15T08:32:19.628Z</time>
      </trkpt>
      <trkpt lat="47.732" lon="2.12925">
        <ele>138</ele>
        <time>2017-01-15T08:32:20.632Z</time>
      </trkpt>
      <trkpt lat="47.732" lon="2.12925">
        <ele>138</ele>
        <time>2017-01-15T08:32:21.628Z</time>
      </trkpt>
      <trkpt lat="47.73191" lon="2.1292">
        <ele>137</ele>
        <time>2017-01-15T08:32:22.631Z</time>
      </trkpt>
      <trkpt lat="47.73186" lon="2.12918">
        <ele>137</ele>
        <time>2017-01-15T08:32:23.632Z</time>
      </trkpt>
      <trkpt lat="47.73186" lon="2.12918">
        <ele>137</ele>
        <time>2017-01-15T08:32:24.629Z</time>
      </trkpt>
      <trkpt lat="47.73177" lon="2.12913">
        <ele>137</ele>
        <time>2017-01-15T08:32:25.631Z</time>
      </trkpt>
      <trkpt lat="47.73177" lon="2.12913">
        <ele>137</ele>
        <time>2017-01-15T08:32:26.628Z</time>
      </trkpt>
      <trkpt lat="47.73167" lon="2.12908">
        <ele>138</ele>
        <time>2017-01-15T08:32:27.630Z</time>
      </trkpt>
      <trkpt lat="47.73167" lon="2.12908">
        <ele>138</ele>
        <time>2017-01-15T08:32:28.630Z</time>
      </trkpt>
      <trkpt lat="47.73158" lon="2.12902">
        <ele>138</ele>
        <time>2017-01-15T08:32:29.633Z</time>
      </trkpt>
      <trkpt lat="47.73158" lon="2.12902">
        <ele>138</ele>
        <time>2017-01-15T08:32:30.629Z</time>
      </trkpt>
      <trkpt lat="47.73149" lon="2.12899">
        <ele>137</ele>
        <time>2017-01-15T08:32:31.629Z</time>
      </trkpt>
      <trkpt lat="47.73144" lon="2.12897">
        <ele>137</ele>
        <time>2017-01-15T08:32:32.630Z</time>
      </trkpt>
      <trkpt lat="47.73144" lon="2.12897">
        <ele>137</ele>
        <time>2017-01-15T08:32:33.628Z</time>
      </trkpt>
      <trkpt lat="47.73136" lon="2.12894">
        <ele>137</ele>
        <time>2017-01-15T08:32:34.630Z</time>
      </trkpt>
      <trkpt lat="47.73136" lon="2.12894">
        <ele>137</ele>
        <time>2017-01-15T08:32:35.628Z</time>
      </trkpt>
      <trkpt lat="47.73127" lon="2.12892">
        <ele>137</ele>
        <time>2017-01-15T08:32:36.628Z</time>
      </trkpt>
      <trkpt lat="47.73127" lon="2.12892">
        <ele>137</ele>
        <time>2017-01-15T08:32:37.628Z</time>
      </trkpt>
      <trkpt lat="47.73117" lon="2.12894">
        <ele>138</ele>
        <time>2017-01-15T08:32:38.630Z</time>
      </trkpt>
      <trkpt lat="47.73112" lon="2.12895">
        <ele>138</ele>
        <time>2017-01-15T08:32:39.631Z</time>
      </trkpt>
      <trkpt lat="47.73107" lon="2.12896">
        <ele>138</ele>
        <time>2017-01-15T08:32:40.631Z</time>
      </trkpt>
      <trkpt lat="47.73107" lon="2.12896">
        <ele>138</ele>
        <time>2017-01-15T08:32:41.628Z</time>
      </trkpt>
      <trkpt lat="47.73097" lon="2.12898">
        <ele>138</ele>
        <time>2017-01-15T08:32:42.640Z</time>
      </trkpt>
      <trkpt lat="47.73097" lon="2.12898">
        <ele>138</ele>
        <time>2017-01-15T08:32:43.629Z</time>
      </trkpt>
      <trkpt lat="47.73088" lon="2.12902">
        <ele>138</ele>
        <time>2017-01-15T08:32:44.632Z</time>
      </trkpt>
      <trkpt lat="47.73088" lon="2.12902">
        <ele>138</ele>
        <time>2017-01-15T08:32:45.628Z</time>
      </trkpt>
      <trkpt lat="47.7308" lon="2.12907">
        <ele>138</ele>
        <time>2017-01-15T08:32:46.631Z</time>
      </trkpt>
      <trkpt lat="47.7308" lon="2.12907">
        <ele>138</ele>
        <time>2017-01-15T08:32:47.629Z</time>
      </trkpt>
      <trkpt lat="47.73071" lon="2.12911">
        <ele>139</ele>
        <time>2017-01-15T08:32:48.631Z</time>
      </trkpt>
      <trkpt lat="47.73071" lon="2.12911">
        <ele>139</ele>
        <time>2017-01-15T08:32:49.628Z</time>
      </trkpt>
      <trkpt lat="47.73061" lon="2.12915">
        <ele>139</ele>
        <time>2017-01-15T08:32:50.630Z</time>
      </trkpt>
      <trkpt lat="47.73061" lon="2.12915">
        <ele>139</ele>
        <time>2017-01-15T08:32:51.628Z</time>
      </trkpt>
      <trkpt lat="47.73052" lon="2.12919">
        <ele>138</ele>
        <time>2017-01-15T08:32:52.641Z</time>
      </trkpt>
      <trkpt lat="47.73052" lon="2.12919">
        <ele>138</ele>
        <time>2017-01-15T08:32:53.629Z</time>
      </trkpt>
      <trkpt lat="47.73044" lon="2.12924">
        <ele>138</ele>
        <time>2017-01-15T08:32:54.630Z</time>
      </trkpt>
      <trkpt lat="47.73044" lon="2.12924">
        <ele>138</ele>
        <time>2017-01-15T08:32:55.628Z</time>
      </trkpt>
      <trkpt lat="47.73035" lon="2.12928">
        <ele>138</ele>
        <time>2017-01-15T08:32:56.631Z</time>
      </trkpt>
      <trkpt lat="47.73035" lon="2.12928">
        <ele>138</ele>
        <time>2017-01-15T08:32:57.628Z</time>
      </trkpt>
      <trkpt lat="47.73026" lon="2.12932">
        <ele>138</ele>
        <time>2017-01-15T08:32:58.628Z</time>
      </trkpt>
      <trkpt lat="47.73026" lon="2.12932">
        <ele>138</ele>
        <time>2017-01-15T08:32:59.645Z</time>
      </trkpt>
      <trkpt lat="47.73017" lon="2.12936">
        <ele>139</ele>
        <time>2017-01-15T08:33:00.636Z</time>
      </trkpt>
      <trkpt lat="47.73017" lon="2.12936">
        <ele>139</ele>
        <time>2017-01-15T08:33:01.628Z</time>
      </trkpt>
      <trkpt lat="47.73009" lon="2.1294">
        <ele>139</ele>
        <time>2017-01-15T08:33:02.632Z</time>
      </trkpt>
      <trkpt lat="47.73009" lon="2.1294">
        <ele>139</ele>
        <time>2017-01-15T08:33:03.630Z</time>
      </trkpt>
      <trkpt lat="47.73" lon="2.12944">
        <ele>139</ele>
        <time>2017-01-15T08:33:04.633Z</time>
      </trkpt>
      <trkpt lat="47.73" lon="2.12944">
        <ele>139</ele>
        <time>2017-01-15T08:33:05.628Z</time>
      </trkpt>
      <trkpt lat="47.72993" lon="2.12947">
        <ele>139</ele>
        <time>2017-01-15T08:33:06.629Z</time>
      </trkpt>
      <trkpt lat="47.72993" lon="2.12947">
        <ele>139</ele>
        <time>2017-01-15T08:33:07.628Z</time>
      </trkpt>
      <trkpt lat="47.72987" lon="2.1295">
        <ele>138</ele>
        <time>2017-01-15T08:33:08.629Z</time>
      </trkpt>
      <trkpt lat="47.72987" lon="2.1295">
        <ele>138</ele>
        <time>2017-01-15T08:33:09.628Z</time>
      </trkpt>
      <trkpt lat="47.72984" lon="2.12951">
        <ele>139</ele>
        <time>2017-01-15T08:33:10.629Z</time>
      </trkpt>
      <trkpt lat="47.72984" lon="2.12951">
        <ele>139</ele>
        <time>2017-01-15T08:33:11.628Z</time>
      </trkpt>
      <trkpt lat="47.72982" lon="2.12951">
        <ele>139</ele>
        <time>2017-01-15T08:33:12.639Z</time>
      </trkpt>
      <trkpt lat="47.72982" lon="2.12951">
        <ele>139</ele>
        <time>2017-01-15T08:33:13.629Z</time>
      </trkpt>
      <trkpt lat="47.7298" lon="2.12951">
        <ele>139</ele>
        <time>2017-01-15T08:33:14.646Z</time>
      </trkpt>
      <trkpt lat="47.7298" lon="2.12951">
        <ele>139</ele>
        <time>2017-01-15T08:33:15.664Z</time>
      </trkpt>
      <trkpt lat="47.72979" lon="2.12951">
        <ele>140</ele>
        <time>2017-01-15T08:33:16.631Z</time>
      </trkpt>
      <trkpt lat="47.72979" lon="2.12951">
        <ele>140</ele>
        <time>2017-01-15T08:33:17.628Z</time>
      </trkpt>
      <trkpt lat="47.72976" lon="2.12949">
        <ele>140</ele>
        <time>2017-01-15T08:33:18.630Z</time>
      </trkpt>
      <trkpt lat="47.72976" lon="2.12948">
        <ele>140</ele>
        <time>2017-01-15T08:33:19.630Z</time>
      </trkpt>
      <trkpt lat="47.72976" lon="2.12948">
        <ele>140</ele>
        <time>2017-01-15T08:33:20.628Z</time>
      </trkpt>
      <trkpt lat="47.72975" lon="2.12945">
        <ele>141</ele>
        <time>2017-01-15T08:33:21.628Z</time>
      </trkpt>
      <trkpt lat="47.72975" lon="2.12945">
        <ele>141</ele>
        <time>2017-01-15T08:33:22.640Z</time>
      </trkpt>
      <trkpt lat="47.72975" lon="2.12943">
        <ele>141</ele>
        <time>2017-01-15T08:33:23.632Z</time>
      </trkpt>
      <trkpt lat="47.72974" lon="2.12943">
        <ele>141</ele>
        <time>2017-01-15T08:33:24.631Z</time>
      </trkpt>
      <trkpt lat="47.72973" lon="2.12943">
        <ele>141</ele>
        <time>2017-01-15T08:33:25.633Z</time>
      </trkpt>
      <trkpt lat="47.72973" lon="2.12943">
        <ele>141</ele>
        <time>2017-01-15T08:33:26.638Z</time>
      </trkpt>
      <trkpt lat="47.72972" lon="2.12946">
        <ele>141</ele>
        <time>2017-01-15T08:33:27.641Z</time>
      </trkpt>
      <trkpt lat="47.72972" lon="2.12948">
        <ele>141</ele>
        <time>2017-01-15T08:33:28.631Z</time>
      </trkpt>
      <trkpt lat="47.72972" lon="2.1295">
        <ele>141</ele>
        <time>2017-01-15T08:33:29.633Z</time>
      </trkpt>
      <trkpt lat="47.72972" lon="2.1295">
        <ele>141</ele>
        <time>2017-01-15T08:33:30.629Z</time>
      </trkpt>
      <trkpt lat="47.72973" lon="2.12954">
        <ele>141</ele>
        <time>2017-01-15T08:33:31.667Z</time>
      </trkpt>
      <trkpt lat="47.72973" lon="2.12954">
        <ele>141</ele>
        <time>2017-01-15T08:33:32.631Z</time>
      </trkpt>
      <trkpt lat="47.72974" lon="2.12958">
        <ele>141</ele>
        <time>2017-01-15T08:33:33.631Z</time>
      </trkpt>
      <trkpt lat="47.72974" lon="2.12958">
        <ele>141</ele>
        <time>2017-01-15T08:33:34.629Z</time>
      </trkpt>
      <trkpt lat="47.72976" lon="2.12959">
        <ele>141</ele>
        <time>2017-01-15T08:33:35.632Z</time>
      </trkpt>
      <trkpt lat="47.72977" lon="2.12957">
        <ele>141</ele>
        <time>2017-01-15T08:33:36.641Z</time>
      </trkpt>
      <trkpt lat="47.72977" lon="2.12955">
        <ele>141</ele>
        <time>2017-01-15T08:33:37.632Z</time>
      </trkpt>
      <trkpt lat="47.72976" lon="2.12951">
        <ele>142</ele>
        <time>2017-01-15T08:33:38.630Z</time>
      </trkpt>
      <trkpt lat="47.72976" lon="2.12951">
        <ele>142</ele>
        <time>2017-01-15T08:33:39.629Z</time>
      </trkpt>
      <trkpt lat="47.72973" lon="2.12942">
        <ele>142</ele>
        <time>2017-01-15T08:33:40.631Z</time>
      </trkpt>
      <trkpt lat="47.72973" lon="2.12942">
        <ele>142</ele>
        <time>2017-01-15T08:33:41.655Z</time>
      </trkpt>
      <trkpt lat="47.7297" lon="2.12932">
        <ele>142</ele>
        <time>2017-01-15T08:33:42.644Z</time>
      </trkpt>
      <trkpt lat="47.72969" lon="2.12927">
        <ele>142</ele>
        <time>2017-01-15T08:33:43.636Z</time>
      </trkpt>
      <trkpt lat="47.72969" lon="2.12927">
        <ele>142</ele>
        <time>2017-01-15T08:33:44.629Z</time>
      </trkpt>
      <trkpt lat="47.72965" lon="2.12916">
        <ele>141</ele>
        <time>2017-01-15T08:33:45.631Z</time>
      </trkpt>
      <trkpt lat="47.72965" lon="2.12916">
        <ele>141</ele>
        <time>2017-01-15T08:33:46.629Z</time>
      </trkpt>
      <trkpt lat="47.72962" lon="2.12904">
        <ele>141</ele>
        <time>2017-01-15T08:33:47.631Z</time>
      </trkpt>
      <trkpt lat="47.72962" lon="2.12898">
        <ele>141</ele>
        <time>2017-01-15T08:33:48.632Z</time>
      </trkpt>
      <trkpt lat="47.72962" lon="2.12898">
        <ele>141</ele>
        <time>2017-01-15T08:33:49.629Z</time>
      </trkpt>
      <trkpt lat="47.72959" lon="2.12886">
        <ele>141</ele>
        <time>2017-01-15T08:33:50.631Z</time>
      </trkpt>
      <trkpt lat="47.72959" lon="2.12886">
        <ele>141</ele>
        <time>2017-01-15T08:33:51.629Z</time>
      </trkpt>
      <trkpt lat="47.72956" lon="2.12874">
        <ele>141</ele>
        <time>2017-01-15T08:33:52.635Z</time>
      </trkpt>
      <trkpt lat="47.72954" lon="2.12868">
        <ele>141</ele>
        <time>2017-01-15T08:33:53.631Z</time>
      </trkpt>
      <trkpt lat="47.72953" lon="2.12862">
        <ele>140</ele>
        <time>2017-01-15T08:33:54.631Z</time>
      </trkpt>
      <trkpt lat="47.72953" lon="2.12862">
        <ele>140</ele>
        <time>2017-01-15T08:33:55.636Z</time>
      </trkpt>
      <trkpt lat="47.7295" lon="2.12849">
        <ele>140</ele>
        <time>2017-01-15T08:33:56.630Z</time>
      </trkpt>
      <trkpt lat="47.7295" lon="2.12849">
        <ele>140</ele>
        <time>2017-01-15T08:33:57.629Z</time>
      </trkpt>
      <trkpt lat="47.72947" lon="2.12837">
        <ele>139</ele>
        <time>2017-01-15T08:33:58.631Z</time>
      </trkpt>
      <trkpt lat="47.72947" lon="2.12837">
        <ele>139</ele>
        <time>2017-01-15T08:33:59.629Z</time>
      </trkpt>
      <trkpt lat="47.72943" lon="2.12826">
        <ele>139</ele>
        <time>2017-01-15T08:34:00.663Z</time>
      </trkpt>
      <trkpt lat="47.72943" lon="2.12826">
        <ele>139</ele>
        <time>2017-01-15T08:34:01.628Z</time>
      </trkpt>
      <trkpt lat="47.72939" lon="2.12814">
        <ele>139</ele>
        <time>2017-01-15T08:34:02.632Z</time>
      </trkpt>
      <trkpt lat="47.72939" lon="2.12814">
        <ele>139</ele>
        <time>2017-01-15T08:34:03.629Z</time>
      </trkpt>
      <trkpt lat="47.72934" lon="2.12803">
        <ele>138</ele>
        <time>2017-01-15T08:34:04.631Z</time>
      </trkpt>
      <trkpt lat="47.72934" lon="2.12803">
        <ele>138</ele>
        <time>2017-01-15T08:34:05.629Z</time>
      </trkpt>
      <trkpt lat="47.72932" lon="2.1279">
        <ele>138</ele>
        <time>2017-01-15T08:34:06.631Z</time>
      </trkpt>
      <trkpt lat="47.72931" lon="2.12783">
        <ele>138</ele>
        <time>2017-01-15T08:34:07.631Z</time>
      </trkpt>
      <trkpt lat="47.72931" lon="2.12783">
        <ele>138</ele>
        <time>2017-01-15T08:34:08.629Z</time>
      </trkpt>
      <trkpt lat="47.7293" lon="2.1277">
        <ele>138</ele>
        <time>2017-01-15T08:34:09.631Z</time>
      </trkpt>
      <trkpt lat="47.7293" lon="2.1277">
        <ele>138</ele>
        <time>2017-01-15T08:34:10.629Z</time>
      </trkpt>
      <trkpt lat="47.72931" lon="2.12756">
        <ele>138</ele>
        <time>2017-01-15T08:34:11.632Z</time>
      </trkpt>
      <trkpt lat="47.72931" lon="2.12756">
        <ele>138</ele>
        <time>2017-01-15T08:34:12.636Z</time>
      </trkpt>
      <trkpt lat="47.7293" lon="2.12742">
        <ele>139</ele>
        <time>2017-01-15T08:34:13.634Z</time>
      </trkpt>
      <trkpt lat="47.7293" lon="2.12742">
        <ele>139</ele>
        <time>2017-01-15T08:34:14.630Z</time>
      </trkpt>
      <trkpt lat="47.72931" lon="2.12728">
        <ele>139</ele>
        <time>2017-01-15T08:34:15.628Z</time>
      </trkpt>
      <trkpt lat="47.7293" lon="2.12721">
        <ele>139</ele>
        <time>2017-01-15T08:34:16.631Z</time>
      </trkpt>
      <trkpt lat="47.7293" lon="2.12721">
        <ele>139</ele>
        <time>2017-01-15T08:34:17.629Z</time>
      </trkpt>
      <trkpt lat="47.7293" lon="2.12707">
        <ele>140</ele>
        <time>2017-01-15T08:34:18.631Z</time>
      </trkpt>
      <trkpt lat="47.7293" lon="2.12707">
        <ele>140</ele>
        <time>2017-01-15T08:34:19.629Z</time>
      </trkpt>
      <trkpt lat="47.72928" lon="2.12693">
        <ele>140</ele>
        <time>2017-01-15T08:34:20.631Z</time>
      </trkpt>
      <trkpt lat="47.72928" lon="2.12693">
        <ele>140</ele>
        <time>2017-01-15T08:34:21.662Z</time>
      </trkpt>
      <trkpt lat="47.72927" lon="2.12679">
        <ele>140</ele>
        <time>2017-01-15T08:34:22.634Z</time>
      </trkpt>
      <trkpt lat="47.72926" lon="2.12672">
        <ele>140</ele>
        <time>2017-01-15T08:34:23.631Z</time>
      </trkpt>
      <trkpt lat="47.72926" lon="2.12672">
        <ele>140</ele>
        <time>2017-01-15T08:34:24.630Z</time>
      </trkpt>
      <trkpt lat="47.72925" lon="2.12658">
        <ele>139</ele>
        <time>2017-01-15T08:34:25.632Z</time>
      </trkpt>
      <trkpt lat="47.72925" lon="2.12658">
        <ele>139</ele>
        <time>2017-01-15T08:34:26.629Z</time>
      </trkpt>
      <trkpt lat="47.72924" lon="2.12645">
        <ele>139</ele>
        <time>2017-01-15T08:34:27.629Z</time>
      </trkpt>
      <trkpt lat="47.72924" lon="2.12645">
        <ele>139</ele>
        <time>2017-01-15T08:34:28.629Z</time>
      </trkpt>
      <trkpt lat="47.72924" lon="2.12632">
        <ele>140</ele>
        <time>2017-01-15T08:34:29.628Z</time>
      </trkpt>
      <trkpt lat="47.72923" lon="2.12626">
        <ele>140</ele>
        <time>2017-01-15T08:34:30.631Z</time>
      </trkpt>
      <trkpt lat="47.72923" lon="2.12626">
        <ele>140</ele>
        <time>2017-01-15T08:34:31.629Z</time>
      </trkpt>
      <trkpt lat="47.72923" lon="2.12613">
        <ele>140</ele>
        <time>2017-01-15T08:34:32.637Z</time>
      </trkpt>
      <trkpt lat="47.72923" lon="2.12613">
        <ele>140</ele>
        <time>2017-01-15T08:34:33.629Z</time>
      </trkpt>
      <trkpt lat="47.72923" lon="2.126">
        <ele>140</ele>
        <time>2017-01-15T08:34:34.630Z</time>
      </trkpt>
      <trkpt lat="47.72923" lon="2.12594">
        <ele>139</ele>
        <time>2017-01-15T08:34:35.631Z</time>
      </trkpt>
      <trkpt lat="47.72923" lon="2.12594">
        <ele>139</ele>
        <time>2017-01-15T08:34:36.632Z</time>
      </trkpt>
      <trkpt lat="47.72923" lon="2.12582">
        <ele>140</ele>
        <time>2017-01-15T08:34:37.661Z</time>
      </trkpt>
      <trkpt lat="47.72923" lon="2.12582">
        <ele>140</ele>
        <time>2017-01-15T08:34:38.629Z</time>
      </trkpt>
      <trkpt lat="47.72922" lon="2.1257">
        <ele>140</ele>
        <time>2017-01-15T08:34:39.631Z</time>
      </trkpt>
      <trkpt lat="47.72922" lon="2.1257">
        <ele>140</ele>
        <time>2017-01-15T08:34:40.629Z</time>
      </trkpt>
      <trkpt lat="47.72922" lon="2.12558">
        <ele>140</ele>
        <time>2017-01-15T08:34:41.629Z</time>
      </trkpt>
      <trkpt lat="47.72922" lon="2.12558">
        <ele>140</ele>
        <time>2017-01-15T08:34:42.649Z</time>
      </trkpt>
      <trkpt lat="47.72922" lon="2.12546">
        <ele>140</ele>
        <time>2017-01-15T08:34:43.639Z</time>
      </trkpt>
      <trkpt lat="47.72921" lon="2.1254">
        <ele>140</ele>
        <time>2017-01-15T08:34:44.628Z</time>
      </trkpt>
      <trkpt lat="47.72921" lon="2.1254">
        <ele>140</ele>
        <time>2017-01-15T08:34:45.629Z</time>
      </trkpt>
      <trkpt lat="47.7292" lon="2.12527">
        <ele>140</ele>
        <time>2017-01-15T08:34:46.630Z</time>
      </trkpt>
      <trkpt lat="47.7292" lon="2.12527">
        <ele>140</ele>
        <time>2017-01-15T08:34:47.629Z</time>
      </trkpt>
      <trkpt lat="47.7292" lon="2.12514">
        <ele>140</ele>
        <time>2017-01-15T08:34:48.629Z</time>
      </trkpt>
      <trkpt lat="47.7292" lon="2.12514">
        <ele>140</ele>
        <time>2017-01-15T08:34:49.629Z</time>
      </trkpt>
      <trkpt lat="47.72919" lon="2.125">
        <ele>140</ele>
        <time>2017-01-15T08:34:50.629Z</time>
      </trkpt>
      <trkpt lat="47.72919" lon="2.125">
        <ele>140</ele>
        <time>2017-01-15T08:34:51.629Z</time>
      </trkpt>
      <trkpt lat="47.72918" lon="2.12487">
        <ele>140</ele>
        <time>2017-01-15T08:34:52.630Z</time>
      </trkpt>
      <trkpt lat="47.72918" lon="2.12487">
        <ele>140</ele>
        <time>2017-01-15T08:34:53.640Z</time>
      </trkpt>
      <trkpt lat="47.72919" lon="2.12474">
        <ele>140</ele>
        <time>2017-01-15T08:34:54.631Z</time>
      </trkpt>
      <trkpt lat="47.72919" lon="2.12474">
        <ele>140</ele>
        <time>2017-01-15T08:34:55.629Z</time>
      </trkpt>
      <trkpt lat="47.72918" lon="2.12461">
        <ele>140</ele>
        <time>2017-01-15T08:34:56.631Z</time>
      </trkpt>
      <trkpt lat="47.72918" lon="2.12456">
        <ele>139</ele>
        <time>2017-01-15T08:34:57.629Z</time>
      </trkpt>
      <trkpt lat="47.72918" lon="2.12456">
        <ele>139</ele>
        <time>2017-01-15T08:34:58.629Z</time>
      </trkpt>
      <trkpt lat="47.72918" lon="2.12444">
        <ele>139</ele>
        <time>2017-01-15T08:34:59.641Z</time>
      </trkpt>
      <trkpt lat="47.72918" lon="2.12444">
        <ele>139</ele>
        <time>2017-01-15T08:35:00.630Z</time>
      </trkpt>
      <trkpt lat="47.72918" lon="2.12432">
        <ele>139</ele>
        <time>2017-01-15T08:35:01.633Z</time>
      </trkpt>
      <trkpt lat="47.72918" lon="2.12432">
        <ele>139</ele>
        <time>2017-01-15T08:35:02.642Z</time>
      </trkpt>
      <trkpt lat="47.72917" lon="2.12419">
        <ele>139</ele>
        <time>2017-01-15T08:35:03.631Z</time>
      </trkpt>
      <trkpt lat="47.72917" lon="2.12419">
        <ele>139</ele>
        <time>2017-01-15T08:35:04.629Z</time>
      </trkpt>
      <trkpt lat="47.72916" lon="2.12407">
        <ele>139</ele>
        <time>2017-01-15T08:35:05.632Z</time>
      </trkpt>
      <trkpt lat="47.72916" lon="2.12407">
        <ele>139</ele>
        <time>2017-01-15T08:35:06.630Z</time>
      </trkpt>
      <trkpt lat="47.72914" lon="2.12395">
        <ele>139</ele>
        <time>2017-01-15T08:35:07.631Z</time>
      </trkpt>
      <trkpt lat="47.72914" lon="2.12395">
        <ele>139</ele>
        <time>2017-01-15T08:35:08.629Z</time>
      </trkpt>
      <trkpt lat="47.72911" lon="2.12383">
        <ele>139</ele>
        <time>2017-01-15T08:35:09.631Z</time>
      </trkpt>
      <trkpt lat="47.72909" lon="2.12378">
        <ele>139</ele>
        <time>2017-01-15T08:35:10.632Z</time>
      </trkpt>
      <trkpt lat="47.72907" lon="2.12373">
        <ele>139</ele>
        <time>2017-01-15T08:35:11.632Z</time>
      </trkpt>
      <trkpt lat="47.72907" lon="2.12373">
        <ele>139</ele>
        <time>2017-01-15T08:35:12.634Z</time>
      </trkpt>
      <trkpt lat="47.72901" lon="2.12363">
        <ele>139</ele>
        <time>2017-01-15T08:35:13.630Z</time>
      </trkpt>
      <trkpt lat="47.72901" lon="2.12363">
        <ele>139</ele>
        <time>2017-01-15T08:35:14.629Z</time>
      </trkpt>
      <trkpt lat="47.72897" lon="2.12354">
        <ele>139</ele>
        <time>2017-01-15T08:35:15.666Z</time>
      </trkpt>
      <trkpt lat="47.72895" lon="2.1235">
        <ele>139</ele>
        <time>2017-01-15T08:35:16.631Z</time>
      </trkpt>
      <trkpt lat="47.72895" lon="2.1235">
        <ele>139</ele>
        <time>2017-01-15T08:35:17.629Z</time>
      </trkpt>
      <trkpt lat="47.7289" lon="2.12342">
        <ele>139</ele>
        <time>2017-01-15T08:35:18.631Z</time>
      </trkpt>
      <trkpt lat="47.72888" lon="2.12337">
        <ele>139</ele>
        <time>2017-01-15T08:35:19.632Z</time>
      </trkpt>
      <trkpt lat="47.72888" lon="2.12337">
        <ele>139</ele>
        <time>2017-01-15T08:35:20.629Z</time>
      </trkpt>
      <trkpt lat="47.72884" lon="2.12329">
        <ele>139</ele>
        <time>2017-01-15T08:35:21.630Z</time>
      </trkpt>
      <trkpt lat="47.72884" lon="2.12329">
        <ele>139</ele>
        <time>2017-01-15T08:35:22.637Z</time>
      </trkpt>
      <trkpt lat="47.7288" lon="2.12321">
        <ele>138</ele>
        <time>2017-01-15T08:35:23.629Z</time>
      </trkpt>
      <trkpt lat="47.7288" lon="2.12321">
        <ele>138</ele>
        <time>2017-01-15T08:35:24.630Z</time>
      </trkpt>
      <trkpt lat="47.72876" lon="2.12314">
        <ele>138</ele>
        <time>2017-01-15T08:35:25.632Z</time>
      </trkpt>
      <trkpt lat="47.72876" lon="2.12314">
        <ele>138</ele>
        <time>2017-01-15T08:35:26.640Z</time>
      </trkpt>
      <trkpt lat="47.72873" lon="2.12305">
        <ele>138</ele>
        <time>2017-01-15T08:35:27.629Z</time>
      </trkpt>
      <trkpt lat="47.72873" lon="2.12305">
        <ele>138</ele>
        <time>2017-01-15T08:35:28.639Z</time>
      </trkpt>
      <trkpt lat="47.72868" lon="2.12298">
        <ele>137</ele>
        <time>2017-01-15T08:35:29.628Z</time>
      </trkpt>
      <trkpt lat="47.72865" lon="2.12294">
        <ele>137</ele>
        <time>2017-01-15T08:35:30.632Z</time>
      </trkpt>
      <trkpt lat="47.72863" lon="2.1229">
        <ele>137</ele>
        <time>2017-01-15T08:35:31.633Z</time>
      </trkpt>
      <trkpt lat="47.72863" lon="2.1229">
        <ele>137</ele>
        <time>2017-01-15T08:35:32.651Z</time>
      </trkpt>
      <trkpt lat="47.72856" lon="2.1228">
        <ele>138</ele>
        <time>2017-01-15T08:35:33.640Z</time>
      </trkpt>
      <trkpt lat="47.72856" lon="2.1228">
        <ele>138</ele>
        <time>2017-01-15T08:35:34.629Z</time>
      </trkpt>
      <trkpt lat="47.72852" lon="2.12269">
        <ele>138</ele>
        <time>2017-01-15T08:35:35.633Z</time>
      </trkpt>
      <trkpt lat="47.72852" lon="2.12269">
        <ele>138</ele>
        <time>2017-01-15T08:35:36.637Z</time>
      </trkpt>
      <trkpt lat="47.72847" lon="2.12259">
        <ele>138</ele>
        <time>2017-01-15T08:35:37.632Z</time>
      </trkpt>
      <trkpt lat="47.72847" lon="2.12259">
        <ele>138</ele>
        <time>2017-01-15T08:35:38.665Z</time>
      </trkpt>
      <trkpt lat="47.72843" lon="2.12249">
        <ele>138</ele>
        <time>2017-01-15T08:35:39.628Z</time>
      </trkpt>
      <trkpt lat="47.7284" lon="2.12243">
        <ele>138</ele>
        <time>2017-01-15T08:35:40.630Z</time>
      </trkpt>
      <trkpt lat="47.7284" lon="2.12243">
        <ele>138</ele>
        <time>2017-01-15T08:35:41.629Z</time>
      </trkpt>
      <trkpt lat="47.72835" lon="2.12233">
        <ele>138</ele>
        <time>2017-01-15T08:35:42.639Z</time>
      </trkpt>
      <trkpt lat="47.72833" lon="2.12228">
        <ele>137</ele>
        <time>2017-01-15T08:35:43.632Z</time>
      </trkpt>
      <trkpt lat="47.7283" lon="2.12223">
        <ele>137</ele>
        <time>2017-01-15T08:35:44.629Z</time>
      </trkpt>
      <trkpt lat="47.7283" lon="2.12223">
        <ele>137</ele>
        <time>2017-01-15T08:35:45.629Z</time>
      </trkpt>
      <trkpt lat="47.72825" lon="2.12215">
        <ele>137</ele>
        <time>2017-01-15T08:35:46.631Z</time>
      </trkpt>
      <trkpt lat="47.72825" lon="2.12215">
        <ele>137</ele>
        <time>2017-01-15T08:35:47.629Z</time>
      </trkpt>
      <trkpt lat="47.72821" lon="2.12206">
        <ele>137</ele>
        <time>2017-01-15T08:35:48.632Z</time>
      </trkpt>
      <trkpt lat="47.72819" lon="2.12201">
        <ele>136</ele>
        <time>2017-01-15T08:35:49.643Z</time>
      </trkpt>
      <trkpt lat="47.72819" lon="2.12201">
        <ele>136</ele>
        <time>2017-01-15T08:35:50.631Z</time>
      </trkpt>
      <trkpt lat="47.72815" lon="2.12193">
        <ele>136</ele>
        <time>2017-01-15T08:35:51.631Z</time>
      </trkpt>
      <trkpt lat="47.72815" lon="2.12193">
        <ele>136</ele>
        <time>2017-01-15T08:35:52.640Z</time>
      </trkpt>
      <trkpt lat="47.72812" lon="2.12184">
        <ele>135</ele>
        <time>2017-01-15T08:35:53.631Z</time>
      </trkpt>
      <trkpt lat="47.72812" lon="2.12184">
        <ele>135</ele>
        <time>2017-01-15T08:35:54.631Z</time>
      </trkpt>
      <trkpt lat="47.72808" lon="2.12174">
        <ele>135</ele>
        <time>2017-01-15T08:35:55.630Z</time>
      </trkpt>
      <trkpt lat="47.72808" lon="2.12174">
        <ele>135</ele>
        <time>2017-01-15T08:35:56.629Z</time>
      </trkpt>
      <trkpt lat="47.72802" lon="2.12164">
        <ele>134</ele>
        <time>2017-01-15T08:35:57.634Z</time>
      </trkpt>
      <trkpt lat="47.72802" lon="2.12164">
        <ele>134</ele>
        <time>2017-01-15T08:35:58.630Z</time>
      </trkpt>
      <trkpt lat="47.72796" lon="2.12154">
        <ele>134</ele>
        <time>2017-01-15T08:35:59.647Z</time>
      </trkpt>
      <trkpt lat="47.72796" lon="2.12154">
        <ele>134</ele>
        <time>2017-01-15T08:36:00.635Z</time>
      </trkpt>
      <trkpt lat="47.72792" lon="2.12143">
        <ele>134</ele>
        <time>2017-01-15T08:36:01.633Z</time>
      </trkpt>
      <trkpt lat="47.72792" lon="2.12143">
        <ele>134</ele>
        <time>2017-01-15T08:36:02.630Z</time>
      </trkpt>
      <trkpt lat="47.72788" lon="2.12133">
        <ele>135</ele>
        <time>2017-01-15T08:36:03.642Z</time>
      </trkpt>
      <trkpt lat="47.72788" lon="2.12133">
        <ele>135</ele>
        <time>2017-01-15T08:36:04.630Z</time>
      </trkpt>
      <trkpt lat="47.72783" lon="2.12125">
        <ele>135</ele>
        <time>2017-01-15T08:36:05.630Z</time>
      </trkpt>
      <trkpt lat="47.7278" lon="2.1212">
        <ele>135</ele>
        <time>2017-01-15T08:36:06.630Z</time>
      </trkpt>
      <trkpt lat="47.7278" lon="2.1212">
        <ele>135</ele>
        <time>2017-01-15T08:36:07.630Z</time>
      </trkpt>
      <trkpt lat="47.72775" lon="2.12111">
        <ele>136</ele>
        <time>2017-01-15T08:36:08.631Z</time>
      </trkpt>
      <trkpt lat="47.72775" lon="2.12111">
        <ele>136</ele>
        <time>2017-01-15T08:36:09.630Z</time>
      </trkpt>
      <trkpt lat="47.72771" lon="2.12102">
        <ele>136</ele>
        <time>2017-01-15T08:36:10.633Z</time>
      </trkpt>
      <trkpt lat="47.72771" lon="2.12102">
        <ele>136</ele>
        <time>2017-01-15T08:36:11.635Z</time>
      </trkpt>
      <trkpt lat="47.72766" lon="2.1209">
        <ele>136</ele>
        <time>2017-01-15T08:36:12.633Z</time>
      </trkpt>
      <trkpt lat="47.72763" lon="2.12085">
        <ele>137</ele>
        <time>2017-01-15T08:36:13.632Z</time>
      </trkpt>
      <trkpt lat="47.72763" lon="2.12085">
        <ele>137</ele>
        <time>2017-01-15T08:36:14.662Z</time>
      </trkpt>
      <trkpt lat="47.72758" lon="2.12074">
        <ele>137</ele>
        <time>2017-01-15T08:36:15.641Z</time>
      </trkpt>
      <trkpt lat="47.72758" lon="2.12074">
        <ele>137</ele>
        <time>2017-01-15T08:36:16.630Z</time>
      </trkpt>
      <trkpt lat="47.72752" lon="2.12063">
        <ele>137</ele>
        <time>2017-01-15T08:36:17.631Z</time>
      </trkpt>
      <trkpt lat="47.72752" lon="2.12063">
        <ele>137</ele>
        <time>2017-01-15T08:36:18.631Z</time>
      </trkpt>
      <trkpt lat="47.72747" lon="2.12053">
        <ele>137</ele>
        <time>2017-01-15T08:36:19.633Z</time>
      </trkpt>
      <trkpt lat="47.72747" lon="2.12053">
        <ele>137</ele>
        <time>2017-01-15T08:36:20.630Z</time>
      </trkpt>
      <trkpt lat="47.72743" lon="2.12043">
        <ele>138</ele>
        <time>2017-01-15T08:36:21.632Z</time>
      </trkpt>
      <trkpt lat="47.72743" lon="2.12043">
        <ele>138</ele>
        <time>2017-01-15T08:36:22.643Z</time>
      </trkpt>
      <trkpt lat="47.72738" lon="2.12031">
        <ele>138</ele>
        <time>2017-01-15T08:36:23.643Z</time>
      </trkpt>
      <trkpt lat="47.72738" lon="2.12031">
        <ele>138</ele>
        <time>2017-01-15T08:36:24.631Z</time>
      </trkpt>
      <trkpt lat="47.72732" lon="2.12019">
        <ele>137</ele>
        <time>2017-01-15T08:36:25.632Z</time>
      </trkpt>
      <trkpt lat="47.72732" lon="2.12019">
        <ele>137</ele>
        <time>2017-01-15T08:36:26.630Z</time>
      </trkpt>
      <trkpt lat="47.72726" lon="2.12007">
        <ele>137</ele>
        <time>2017-01-15T08:36:27.632Z</time>
      </trkpt>
      <trkpt lat="47.72726" lon="2.12007">
        <ele>137</ele>
        <time>2017-01-15T08:36:28.629Z</time>
      </trkpt>
      <trkpt lat="47.7272" lon="2.11995">
        <ele>137</ele>
        <time>2017-01-15T08:36:29.630Z</time>
      </trkpt>
      <trkpt lat="47.7272" lon="2.11995">
        <ele>137</ele>
        <time>2017-01-15T08:36:30.631Z</time>
      </trkpt>
      <trkpt lat="47.72713" lon="2.11984">
        <ele>137</ele>
        <time>2017-01-15T08:36:31.631Z</time>
      </trkpt>
      <trkpt lat="47.72713" lon="2.11984">
        <ele>137</ele>
        <time>2017-01-15T08:36:32.630Z</time>
      </trkpt>
      <trkpt lat="47.72707" lon="2.11974">
        <ele>137</ele>
        <time>2017-01-15T08:36:33.634Z</time>
      </trkpt>
      <trkpt lat="47.72704" lon="2.11969">
        <ele>136</ele>
        <time>2017-01-15T08:36:34.630Z</time>
      </trkpt>
      <trkpt lat="47.72704" lon="2.11969">
        <ele>136</ele>
        <time>2017-01-15T08:36:35.630Z</time>
      </trkpt>
      <trkpt lat="47.72699" lon="2.1196">
        <ele>137</ele>
        <time>2017-01-15T08:36:36.632Z</time>
      </trkpt>
      <trkpt lat="47.72697" lon="2.11955">
        <ele>137</ele>
        <time>2017-01-15T08:36:37.632Z</time>
      </trkpt>
      <trkpt lat="47.72697" lon="2.11955">
        <ele>137</ele>
        <time>2017-01-15T08:36:38.630Z</time>
      </trkpt>
      <trkpt lat="47.72691" lon="2.11944">
        <ele>137</ele>
        <time>2017-01-15T08:36:39.631Z</time>
      </trkpt>
      <trkpt lat="47.72688" lon="2.11938">
        <ele>137</ele>
        <time>2017-01-15T08:36:40.631Z</time>
      </trkpt>
      <trkpt lat="47.72688" lon="2.11938">
        <ele>137</ele>
        <time>2017-01-15T08:36:41.630Z</time>
      </trkpt>
      <trkpt lat="47.7268" lon="2.11928">
        <ele>137</ele>
        <time>2017-01-15T08:36:42.633Z</time>
      </trkpt>
      <trkpt lat="47.72676" lon="2.11924">
        <ele>137</ele>
        <time>2017-01-15T08:36:43.631Z</time>
      </trkpt>
      <trkpt lat="47.72676" lon="2.11924">
        <ele>137</ele>
        <time>2017-01-15T08:36:44.630Z</time>
      </trkpt>
      <trkpt lat="47.72669" lon="2.11916">
        <ele>137</ele>
        <time>2017-01-15T08:36:45.631Z</time>
      </trkpt>
      <trkpt lat="47.72669" lon="2.11916">
        <ele>137</ele>
        <time>2017-01-15T08:36:46.630Z</time>
      </trkpt>
      <trkpt lat="47.72663" lon="2.11909">
        <ele>137</ele>
        <time>2017-01-15T08:36:47.630Z</time>
      </trkpt>
      <trkpt lat="47.72663" lon="2.11909">
        <ele>137</ele>
        <time>2017-01-15T08:36:48.631Z</time>
      </trkpt>
      <trkpt lat="47.72657" lon="2.11901">
        <ele>137</ele>
        <time>2017-01-15T08:36:49.647Z</time>
      </trkpt>
      <trkpt lat="47.72657" lon="2.11901">
        <ele>137</ele>
        <time>2017-01-15T08:36:50.635Z</time>
      </trkpt>
      <trkpt lat="47.72649" lon="2.11892">
        <ele>137</ele>
        <time>2017-01-15T08:36:51.630Z</time>
      </trkpt>
      <trkpt lat="47.72649" lon="2.11892">
        <ele>137</ele>
        <time>2017-01-15T08:36:52.645Z</time>
      </trkpt>
      <trkpt lat="47.72642" lon="2.11884">
        <ele>137</ele>
        <time>2017-01-15T08:36:53.632Z</time>
      </trkpt>
      <trkpt lat="47.72642" lon="2.11884">
        <ele>137</ele>
        <time>2017-01-15T08:36:54.631Z</time>
      </trkpt>
      <trkpt lat="47.72633" lon="2.11874">
        <ele>137</ele>
        <time>2017-01-15T08:36:55.630Z</time>
      </trkpt>
      <trkpt lat="47.72633" lon="2.11874">
        <ele>137</ele>
        <time>2017-01-15T08:36:56.643Z</time>
      </trkpt>
      <trkpt lat="47.72626" lon="2.11864">
        <ele>138</ele>
        <time>2017-01-15T08:36:57.631Z</time>
      </trkpt>
      <trkpt lat="47.72622" lon="2.1186">
        <ele>138</ele>
        <time>2017-01-15T08:36:58.634Z</time>
      </trkpt>
      <trkpt lat="47.72618" lon="2.11855">
        <ele>138</ele>
        <time>2017-01-15T08:36:59.646Z</time>
      </trkpt>
      <trkpt lat="47.72618" lon="2.11855">
        <ele>138</ele>
        <time>2017-01-15T08:37:00.634Z</time>
      </trkpt>
      <trkpt lat="47.7261" lon="2.11847">
        <ele>138</ele>
        <time>2017-01-15T08:37:01.632Z</time>
      </trkpt>
      <trkpt lat="47.7261" lon="2.11847">
        <ele>138</ele>
        <time>2017-01-15T08:37:02.630Z</time>
      </trkpt>
      <trkpt lat="47.72602" lon="2.1184">
        <ele>139</ele>
        <time>2017-01-15T08:37:03.631Z</time>
      </trkpt>
      <trkpt lat="47.72598" lon="2.11837">
        <ele>139</ele>
        <time>2017-01-15T08:37:04.662Z</time>
      </trkpt>
      <trkpt lat="47.72594" lon="2.11833">
        <ele>139</ele>
        <time>2017-01-15T08:37:05.630Z</time>
      </trkpt>
      <trkpt lat="47.72594" lon="2.11833">
        <ele>139</ele>
        <time>2017-01-15T08:37:06.631Z</time>
      </trkpt>
      <trkpt lat="47.72587" lon="2.11824">
        <ele>139</ele>
        <time>2017-01-15T08:37:07.633Z</time>
      </trkpt>
      <trkpt lat="47.72587" lon="2.11824">
        <ele>139</ele>
        <time>2017-01-15T08:37:08.630Z</time>
      </trkpt>
      <trkpt lat="47.72578" lon="2.11815">
        <ele>139</ele>
        <time>2017-01-15T08:37:09.632Z</time>
      </trkpt>
      <trkpt lat="47.72578" lon="2.11815">
        <ele>139</ele>
        <time>2017-01-15T08:37:10.630Z</time>
      </trkpt>
      <trkpt lat="47.7257" lon="2.11806">
        <ele>140</ele>
        <time>2017-01-15T08:37:11.633Z</time>
      </trkpt>
      <trkpt lat="47.7257" lon="2.11806">
        <ele>140</ele>
        <time>2017-01-15T08:37:12.639Z</time>
      </trkpt>
      <trkpt lat="47.72561" lon="2.11797">
        <ele>139</ele>
        <time>2017-01-15T08:37:13.636Z</time>
      </trkpt>
      <trkpt lat="47.72561" lon="2.11797">
        <ele>139</ele>
        <time>2017-01-15T08:37:14.630Z</time>
      </trkpt>
      <trkpt lat="47.72552" lon="2.11787">
        <ele>139</ele>
        <time>2017-01-15T08:37:15.665Z</time>
      </trkpt>
      <trkpt lat="47.72552" lon="2.11787">
        <ele>139</ele>
        <time>2017-01-15T08:37:16.665Z</time>
      </trkpt>
      <trkpt lat="47.72544" lon="2.11777">
        <ele>139</ele>
        <time>2017-01-15T08:37:17.632Z</time>
      </trkpt>
      <trkpt lat="47.72544" lon="2.11777">
        <ele>139</ele>
        <time>2017-01-15T08:37:18.631Z</time>
      </trkpt>
      <trkpt lat="47.72535" lon="2.11768">
        <ele>138</ele>
        <time>2017-01-15T08:37:19.633Z</time>
      </trkpt>
      <trkpt lat="47.72535" lon="2.11768">
        <ele>138</ele>
        <time>2017-01-15T08:37:20.630Z</time>
      </trkpt>
      <trkpt lat="47.72527" lon="2.11759">
        <ele>138</ele>
        <time>2017-01-15T08:37:21.631Z</time>
      </trkpt>
      <trkpt lat="47.72527" lon="2.11759">
        <ele>138</ele>
        <time>2017-01-15T08:37:22.634Z</time>
      </trkpt>
      <trkpt lat="47.72519" lon="2.1175">
        <ele>138</ele>
        <time>2017-01-15T08:37:23.631Z</time>
      </trkpt>
      <trkpt lat="47.72515" lon="2.11745">
        <ele>138</ele>
        <time>2017-01-15T08:37:24.633Z</time>
      </trkpt>
      <trkpt lat="47.7251" lon="2.1174">
        <ele>138</ele>
        <time>2017-01-15T08:37:25.631Z</time>
      </trkpt>
      <trkpt lat="47.7251" lon="2.1174">
        <ele>138</ele>
        <time>2017-01-15T08:37:26.631Z</time>
      </trkpt>
      <trkpt lat="47.725" lon="2.1173">
        <ele>138</ele>
        <time>2017-01-15T08:37:27.633Z</time>
      </trkpt>
      <trkpt lat="47.725" lon="2.1173">
        <ele>138</ele>
        <time>2017-01-15T08:37:28.631Z</time>
      </trkpt>
      <trkpt lat="47.72491" lon="2.1172">
        <ele>138</ele>
        <time>2017-01-15T08:37:29.635Z</time>
      </trkpt>
      <trkpt lat="47.72491" lon="2.1172">
        <ele>138</ele>
        <time>2017-01-15T08:37:30.631Z</time>
      </trkpt>
      <trkpt lat="47.72481" lon="2.1171">
        <ele>137</ele>
        <time>2017-01-15T08:37:31.632Z</time>
      </trkpt>
      <trkpt lat="47.72481" lon="2.1171">
        <ele>137</ele>
        <time>2017-01-15T08:37:32.630Z</time>
      </trkpt>
      <trkpt lat="47.72472" lon="2.11699">
        <ele>138</ele>
        <time>2017-01-15T08:37:33.629Z</time>
      </trkpt>
      <trkpt lat="47.72467" lon="2.11693">
        <ele>137</ele>
        <time>2017-01-15T08:37:34.632Z</time>
      </trkpt>
      <trkpt lat="47.72462" lon="2.11687">
        <ele>137</ele>
        <time>2017-01-15T08:37:35.630Z</time>
      </trkpt>
      <trkpt lat="47.72462" lon="2.11687">
        <ele>137</ele>
        <time>2017-01-15T08:37:36.631Z</time>
      </trkpt>
      <trkpt lat="47.72452" lon="2.11676">
        <ele>137</ele>
        <time>2017-01-15T08:37:37.633Z</time>
      </trkpt>
      <trkpt lat="47.72452" lon="2.11676">
        <ele>137</ele>
        <time>2017-01-15T08:37:38.630Z</time>
      </trkpt>
      <trkpt lat="47.72442" lon="2.11665">
        <ele>137</ele>
        <time>2017-01-15T08:37:39.633Z</time>
      </trkpt>
      <trkpt lat="47.72442" lon="2.11665">
        <ele>137</ele>
        <time>2017-01-15T08:37:40.630Z</time>
      </trkpt>
      <trkpt lat="47.72432" lon="2.11654">
        <ele>136</ele>
        <time>2017-01-15T08:37:41.631Z</time>
      </trkpt>
      <trkpt lat="47.72432" lon="2.11654">
        <ele>136</ele>
        <time>2017-01-15T08:37:42.634Z</time>
      </trkpt>
      <trkpt lat="47.72422" lon="2.11644">
        <ele>136</ele>
        <time>2017-01-15T08:37:43.632Z</time>
      </trkpt>
      <trkpt lat="47.72417" lon="2.11638">
        <ele>136</ele>
        <time>2017-01-15T08:37:44.633Z</time>
      </trkpt>
      <trkpt lat="47.72417" lon="2.11638">
        <ele>136</ele>
        <time>2017-01-15T08:37:45.630Z</time>
      </trkpt>
      <trkpt lat="47.72408" lon="2.11628">
        <ele>136</ele>
        <time>2017-01-15T08:37:46.632Z</time>
      </trkpt>
      <trkpt lat="47.72403" lon="2.11623">
        <ele>136</ele>
        <time>2017-01-15T08:37:47.631Z</time>
      </trkpt>
      <trkpt lat="47.72403" lon="2.11623">
        <ele>136</ele>
        <time>2017-01-15T08:37:48.631Z</time>
      </trkpt>
      <trkpt lat="47.72392" lon="2.11613">
        <ele>135</ele>
        <time>2017-01-15T08:37:49.632Z</time>
      </trkpt>
      <trkpt lat="47.72387" lon="2.11608">
        <ele>136</ele>
        <time>2017-01-15T08:37:50.632Z</time>
      </trkpt>
      <trkpt lat="47.72387" lon="2.11608">
        <ele>136</ele>
        <time>2017-01-15T08:37:51.630Z</time>
      </trkpt>
      <trkpt lat="47.72378" lon="2.11597">
        <ele>136</ele>
        <time>2017-01-15T08:37:52.641Z</time>
      </trkpt>
      <trkpt lat="47.72374" lon="2.11591">
        <ele>136</ele>
        <time>2017-01-15T08:37:53.634Z</time>
      </trkpt>
      <trkpt lat="47.72374" lon="2.11591">
        <ele>136</ele>
        <time>2017-01-15T08:37:54.631Z</time>
      </trkpt>
      <trkpt lat="47.72364" lon="2.1158">
        <ele>136</ele>
        <time>2017-01-15T08:37:55.630Z</time>
      </trkpt>
      <trkpt lat="47.72364" lon="2.1158">
        <ele>136</ele>
        <time>2017-01-15T08:37:56.631Z</time>
      </trkpt>
      <trkpt lat="47.72354" lon="2.11569">
        <ele>136</ele>
        <time>2017-01-15T08:37:57.633Z</time>
      </trkpt>
      <trkpt lat="47.7235" lon="2.11562">
        <ele>137</ele>
        <time>2017-01-15T08:37:58.634Z</time>
      </trkpt>
      <trkpt lat="47.7235" lon="2.11562">
        <ele>137</ele>
        <time>2017-01-15T08:37:59.650Z</time>
      </trkpt>
      <trkpt lat="47.72339" lon="2.1155">
        <ele>137</ele>
        <time>2017-01-15T08:38:00.641Z</time>
      </trkpt>
      <trkpt lat="47.72335" lon="2.11544">
        <ele>137</ele>
        <time>2017-01-15T08:38:01.632Z</time>
      </trkpt>
      <trkpt lat="47.72335" lon="2.11544">
        <ele>137</ele>
        <time>2017-01-15T08:38:02.630Z</time>
      </trkpt>
      <trkpt lat="47.72326" lon="2.11533">
        <ele>138</ele>
        <time>2017-01-15T08:38:03.633Z</time>
      </trkpt>
      <trkpt lat="47.72326" lon="2.11533">
        <ele>138</ele>
        <time>2017-01-15T08:38:04.640Z</time>
      </trkpt>
      <trkpt lat="47.72316" lon="2.11523">
        <ele>138</ele>
        <time>2017-01-15T08:38:05.634Z</time>
      </trkpt>
      <trkpt lat="47.72316" lon="2.11523">
        <ele>138</ele>
        <time>2017-01-15T08:38:06.631Z</time>
      </trkpt>
      <trkpt lat="47.72306" lon="2.11513">
        <ele>138</ele>
        <time>2017-01-15T08:38:07.633Z</time>
      </trkpt>
      <trkpt lat="47.72306" lon="2.11513">
        <ele>138</ele>
        <time>2017-01-15T08:38:08.630Z</time>
      </trkpt>
      <trkpt lat="47.72296" lon="2.11505">
        <ele>138</ele>
        <time>2017-01-15T08:38:09.632Z</time>
      </trkpt>
      <trkpt lat="47.72296" lon="2.11505">
        <ele>138</ele>
        <time>2017-01-15T08:38:10.630Z</time>
      </trkpt>
      <trkpt lat="47.72287" lon="2.11496">
        <ele>139</ele>
        <time>2017-01-15T08:38:11.634Z</time>
      </trkpt>
      <trkpt lat="47.72287" lon="2.11496">
        <ele>139</ele>
        <time>2017-01-15T08:38:12.637Z</time>
      </trkpt>
      <trkpt lat="47.72277" lon="2.11488">
        <ele>139</ele>
        <time>2017-01-15T08:38:13.633Z</time>
      </trkpt>
      <trkpt lat="47.72273" lon="2.11484">
        <ele>139</ele>
        <time>2017-01-15T08:38:14.650Z</time>
      </trkpt>
      <trkpt lat="47.72268" lon="2.1148">
        <ele>139</ele>
        <time>2017-01-15T08:38:15.632Z</time>
      </trkpt>
      <trkpt lat="47.72268" lon="2.1148">
        <ele>139</ele>
        <time>2017-01-15T08:38:16.630Z</time>
      </trkpt>
      <trkpt lat="47.72257" lon="2.11474">
        <ele>140</ele>
        <time>2017-01-15T08:38:17.647Z</time>
      </trkpt>
      <trkpt lat="47.72257" lon="2.11474">
        <ele>140</ele>
        <time>2017-01-15T08:38:18.652Z</time>
      </trkpt>
      <trkpt lat="47.72247" lon="2.11473">
        <ele>139</ele>
        <time>2017-01-15T08:38:19.641Z</time>
      </trkpt>
      <trkpt lat="47.72241" lon="2.11475">
        <ele>139</ele>
        <time>2017-01-15T08:38:20.632Z</time>
      </trkpt>
      <trkpt lat="47.72236" lon="2.11476">
        <ele>139</ele>
        <time>2017-01-15T08:38:21.633Z</time>
      </trkpt>
      <trkpt lat="47.72236" lon="2.11476">
        <ele>139</ele>
        <time>2017-01-15T08:38:22.631Z</time>
      </trkpt>
      <trkpt lat="47.72225" lon="2.11481">
        <ele>138</ele>
        <time>2017-01-15T08:38:23.635Z</time>
      </trkpt>
      <trkpt lat="47.72225" lon="2.11481">
        <ele>138</ele>
        <time>2017-01-15T08:38:24.629Z</time>
      </trkpt>
      <trkpt lat="47.72214" lon="2.11485">
        <ele>138</ele>
        <time>2017-01-15T08:38:25.635Z</time>
      </trkpt>
      <trkpt lat="47.72214" lon="2.11485">
        <ele>138</ele>
        <time>2017-01-15T08:38:26.631Z</time>
      </trkpt>
      <trkpt lat="47.72203" lon="2.11489">
        <ele>138</ele>
        <time>2017-01-15T08:38:27.634Z</time>
      </trkpt>
      <trkpt lat="47.72198" lon="2.11491">
        <ele>137</ele>
        <time>2017-01-15T08:38:28.636Z</time>
      </trkpt>
      <trkpt lat="47.72198" lon="2.11491">
        <ele>137</ele>
        <time>2017-01-15T08:38:29.630Z</time>
      </trkpt>
      <trkpt lat="47.72187" lon="2.11495">
        <ele>137</ele>
        <time>2017-01-15T08:38:30.631Z</time>
      </trkpt>
      <trkpt lat="47.72187" lon="2.11495">
        <ele>137</ele>
        <time>2017-01-15T08:38:31.630Z</time>
      </trkpt>
      <trkpt lat="47.72177" lon="2.11499">
        <ele>137</ele>
        <time>2017-01-15T08:38:32.641Z</time>
      </trkpt>
      <trkpt lat="47.72172" lon="2.11502">
        <ele>137</ele>
        <time>2017-01-15T08:38:33.634Z</time>
      </trkpt>
      <trkpt lat="47.72172" lon="2.11502">
        <ele>137</ele>
        <time>2017-01-15T08:38:34.630Z</time>
      </trkpt>
      <trkpt lat="47.72162" lon="2.11506">
        <ele>136</ele>
        <time>2017-01-15T08:38:35.635Z</time>
      </trkpt>
      <trkpt lat="47.72162" lon="2.11506">
        <ele>136</ele>
        <time>2017-01-15T08:38:36.632Z</time>
      </trkpt>
      <trkpt lat="47.72152" lon="2.11513">
        <ele>136</ele>
        <time>2017-01-15T08:38:37.641Z</time>
      </trkpt>
      <trkpt lat="47.72146" lon="2.11516">
        <ele>135</ele>
        <time>2017-01-15T08:38:38.642Z</time>
      </trkpt>
      <trkpt lat="47.72146" lon="2.11516">
        <ele>135</ele>
        <time>2017-01-15T08:38:39.631Z</time>
      </trkpt>
      <trkpt lat="47.72134" lon="2.11522">
        <ele>134</ele>
        <time>2017-01-15T08:38:40.633Z</time>
      </trkpt>
      <trkpt lat="47.72129" lon="2.11526">
        <ele>134</ele>
        <time>2017-01-15T08:38:41.631Z</time>
      </trkpt>
      <trkpt lat="47.72129" lon="2.11526">
        <ele>134</ele>
        <time>2017-01-15T08:38:42.640Z</time>
      </trkpt>
      <trkpt lat="47.72116" lon="2.11534">
        <ele>132</ele>
        <time>2017-01-15T08:38:43.633Z</time>
      </trkpt>
      <trkpt lat="47.72109" lon="2.11538">
        <ele>132</ele>
        <time>2017-01-15T08:38:44.632Z</time>
      </trkpt>
      <trkpt lat="47.72101" lon="2.11542">
        <ele>132</ele>
        <time>2017-01-15T08:38:45.633Z</time>
      </trkpt>
      <trkpt lat="47.72101" lon="2.11542">
        <ele>132</ele>
        <time>2017-01-15T08:38:46.631Z</time>
      </trkpt>
      <trkpt lat="47.72086" lon="2.11548">
        <ele>131</ele>
        <time>2017-01-15T08:38:47.634Z</time>
      </trkpt>
      <trkpt lat="47.72086" lon="2.11548">
        <ele>131</ele>
        <time>2017-01-15T08:38:48.632Z</time>
      </trkpt>
      <trkpt lat="47.7207" lon="2.1155">
        <ele>130</ele>
        <time>2017-01-15T08:38:49.632Z</time>
      </trkpt>
      <trkpt lat="47.72062" lon="2.11549">
        <ele>130</ele>
        <time>2017-01-15T08:38:50.631Z</time>
      </trkpt>
      <trkpt lat="47.72062" lon="2.11549">
        <ele>130</ele>
        <time>2017-01-15T08:38:51.630Z</time>
      </trkpt>
      <trkpt lat="47.72047" lon="2.11541">
        <ele>129</ele>
        <time>2017-01-15T08:38:52.638Z</time>
      </trkpt>
      <trkpt lat="47.72047" lon="2.11541">
        <ele>129</ele>
        <time>2017-01-15T08:38:53.631Z</time>
      </trkpt>
      <trkpt lat="47.72032" lon="2.11533">
        <ele>129</ele>
        <time>2017-01-15T08:38:54.635Z</time>
      </trkpt>
      <trkpt lat="47.72024" lon="2.11529">
        <ele>129</ele>
        <time>2017-01-15T08:38:55.635Z</time>
      </trkpt>
      <trkpt lat="47.72024" lon="2.11529">
        <ele>129</ele>
        <time>2017-01-15T08:38:56.631Z</time>
      </trkpt>
      <trkpt lat="47.72009" lon="2.11523">
        <ele>128</ele>
        <time>2017-01-15T08:38:57.634Z</time>
      </trkpt>
      <trkpt lat="47.72009" lon="2.11523">
        <ele>128</ele>
        <time>2017-01-15T08:38:58.631Z</time>
      </trkpt>
      <trkpt lat="47.71994" lon="2.11517">
        <ele>128</ele>
        <time>2017-01-15T08:38:59.633Z</time>
      </trkpt>
      <trkpt lat="47.71994" lon="2.11517">
        <ele>128</ele>
        <time>2017-01-15T08:39:00.632Z</time>
      </trkpt>
      <trkpt lat="47.7198" lon="2.11511">
        <ele>128</ele>
        <time>2017-01-15T08:39:01.664Z</time>
      </trkpt>
      <trkpt lat="47.71974" lon="2.11508">
        <ele>128</ele>
        <time>2017-01-15T08:39:02.633Z</time>
      </trkpt>
      <trkpt lat="47.71974" lon="2.11508">
        <ele>128</ele>
        <time>2017-01-15T08:39:03.631Z</time>
      </trkpt>
      <trkpt lat="47.71961" lon="2.11503">
        <ele>127</ele>
        <time>2017-01-15T08:39:04.666Z</time>
      </trkpt>
      <trkpt lat="47.71954" lon="2.11501">
        <ele>127</ele>
        <time>2017-01-15T08:39:05.634Z</time>
      </trkpt>
      <trkpt lat="47.71954" lon="2.11501">
        <ele>127</ele>
        <time>2017-01-15T08:39:06.632Z</time>
      </trkpt>
      <trkpt lat="47.71942" lon="2.11496">
        <ele>126</ele>
        <time>2017-01-15T08:39:07.632Z</time>
      </trkpt>
      <trkpt lat="47.71942" lon="2.11496">
        <ele>126</ele>
        <time>2017-01-15T08:39:08.631Z</time>
      </trkpt>
      <trkpt lat="47.71931" lon="2.11491">
        <ele>126</ele>
        <time>2017-01-15T08:39:09.633Z</time>
      </trkpt>
      <trkpt lat="47.71931" lon="2.11491">
        <ele>126</ele>
        <time>2017-01-15T08:39:10.631Z</time>
      </trkpt>
      <trkpt lat="47.7192" lon="2.11484">
        <ele>125</ele>
        <time>2017-01-15T08:39:11.634Z</time>
      </trkpt>
      <trkpt lat="47.7192" lon="2.11484">
        <ele>125</ele>
        <time>2017-01-15T08:39:12.632Z</time>
      </trkpt>
      <trkpt lat="47.71908" lon="2.11477">
        <ele>125</ele>
        <time>2017-01-15T08:39:13.633Z</time>
      </trkpt>
      <trkpt lat="47.71908" lon="2.11477">
        <ele>125</ele>
        <time>2017-01-15T08:39:14.631Z</time>
      </trkpt>
      <trkpt lat="47.71896" lon="2.11472">
        <ele>124</ele>
        <time>2017-01-15T08:39:15.666Z</time>
      </trkpt>
      <trkpt lat="47.71889" lon="2.11469">
        <ele>124</ele>
        <time>2017-01-15T08:39:16.630Z</time>
      </trkpt>
      <trkpt lat="47.71883" lon="2.11467">
        <ele>123</ele>
        <time>2017-01-15T08:39:17.634Z</time>
      </trkpt>
      <trkpt lat="47.71883" lon="2.11467">
        <ele>123</ele>
        <time>2017-01-15T08:39:18.628Z</time>
      </trkpt>
      <trkpt lat="47.71872" lon="2.11463">
        <ele>123</ele>
        <time>2017-01-15T08:39:19.630Z</time>
      </trkpt>
      <trkpt lat="47.71868" lon="2.11461">
        <ele>123</ele>
        <time>2017-01-15T08:39:20.634Z</time>
      </trkpt>
      <trkpt lat="47.71868" lon="2.11461">
        <ele>123</ele>
        <time>2017-01-15T08:39:21.631Z</time>
      </trkpt>
      <trkpt lat="47.71858" lon="2.11457">
        <ele>122</ele>
        <time>2017-01-15T08:39:22.635Z</time>
      </trkpt>
      <trkpt lat="47.71854" lon="2.11456">
        <ele>122</ele>
        <time>2017-01-15T08:39:23.635Z</time>
      </trkpt>
      <trkpt lat="47.71854" lon="2.11456">
        <ele>122</ele>
        <time>2017-01-15T08:39:24.664Z</time>
      </trkpt>
      <trkpt lat="47.71844" lon="2.11453">
        <ele>122</ele>
        <time>2017-01-15T08:39:25.634Z</time>
      </trkpt>
      <trkpt lat="47.71844" lon="2.11453">
        <ele>122</ele>
        <time>2017-01-15T08:39:26.642Z</time>
      </trkpt>
      <trkpt lat="47.71837" lon="2.11449">
        <ele>122</ele>
        <time>2017-01-15T08:39:27.635Z</time>
      </trkpt>
      <trkpt lat="47.71837" lon="2.11449">
        <ele>122</ele>
        <time>2017-01-15T08:39:28.649Z</time>
      </trkpt>
      <trkpt lat="47.71832" lon="2.11445">
        <ele>122</ele>
        <time>2017-01-15T08:39:29.630Z</time>
      </trkpt>
      <trkpt lat="47.71832" lon="2.11445">
        <ele>122</ele>
        <time>2017-01-15T08:39:30.635Z</time>
      </trkpt>
      <trkpt lat="47.71826" lon="2.11438">
        <ele>123</ele>
        <time>2017-01-15T08:39:31.633Z</time>
      </trkpt>
      <trkpt lat="47.71826" lon="2.11438">
        <ele>123</ele>
        <time>2017-01-15T08:39:32.640Z</time>
      </trkpt>
      <trkpt lat="47.7182" lon="2.11435">
        <ele>123</ele>
        <time>2017-01-15T08:39:33.635Z</time>
      </trkpt>
      <trkpt lat="47.7182" lon="2.11435">
        <ele>123</ele>
        <time>2017-01-15T08:39:34.632Z</time>
      </trkpt>
      <trkpt lat="47.71814" lon="2.11433">
        <ele>123</ele>
        <time>2017-01-15T08:39:35.634Z</time>
      </trkpt>
      <trkpt lat="47.71814" lon="2.11433">
        <ele>123</ele>
        <time>2017-01-15T08:39:36.629Z</time>
      </trkpt>
      <trkpt lat="47.71806" lon="2.11428">
        <ele>124</ele>
        <time>2017-01-15T08:39:37.633Z</time>
      </trkpt>
      <trkpt lat="47.71806" lon="2.11428">
        <ele>124</ele>
        <time>2017-01-15T08:39:38.631Z</time>
      </trkpt>
      <trkpt lat="47.71798" lon="2.11423">
        <ele>124</ele>
        <time>2017-01-15T08:39:39.634Z</time>
      </trkpt>
      <trkpt lat="47.71798" lon="2.11423">
        <ele>124</ele>
        <time>2017-01-15T08:39:40.631Z</time>
      </trkpt>
      <trkpt lat="47.7179" lon="2.11419">
        <ele>124</ele>
        <time>2017-01-15T08:39:41.635Z</time>
      </trkpt>
      <trkpt lat="47.7179" lon="2.11419">
        <ele>124</ele>
        <time>2017-01-15T08:39:42.640Z</time>
      </trkpt>
      <trkpt lat="47.7178" lon="2.11415">
        <ele>124</ele>
        <time>2017-01-15T08:39:43.636Z</time>
      </trkpt>
      <trkpt lat="47.7178" lon="2.11415">
        <ele>124</ele>
        <time>2017-01-15T08:39:44.631Z</time>
      </trkpt>
      <trkpt lat="47.7177" lon="2.1141">
        <ele>124</ele>
        <time>2017-01-15T08:39:45.634Z</time>
      </trkpt>
      <trkpt lat="47.7177" lon="2.1141">
        <ele>124</ele>
        <time>2017-01-15T08:39:46.631Z</time>
      </trkpt>
      <trkpt lat="47.71761" lon="2.11406">
        <ele>125</ele>
        <time>2017-01-15T08:39:47.635Z</time>
      </trkpt>
      <trkpt lat="47.71761" lon="2.11406">
        <ele>125</ele>
        <time>2017-01-15T08:39:48.632Z</time>
      </trkpt>
      <trkpt lat="47.7175" lon="2.11402">
        <ele>125</ele>
        <time>2017-01-15T08:39:49.635Z</time>
      </trkpt>
      <trkpt lat="47.71745" lon="2.114">
        <ele>125</ele>
        <time>2017-01-15T08:39:50.636Z</time>
      </trkpt>
      <trkpt lat="47.71745" lon="2.114">
        <ele>125</ele>
        <time>2017-01-15T08:39:51.631Z</time>
      </trkpt>
      <trkpt lat="47.71735" lon="2.11395">
        <ele>125</ele>
        <time>2017-01-15T08:39:52.636Z</time>
      </trkpt>
      <trkpt lat="47.71735" lon="2.11395">
        <ele>125</ele>
        <time>2017-01-15T08:39:53.632Z</time>
      </trkpt>
      <trkpt lat="47.71724" lon="2.11392">
        <ele>125</ele>
        <time>2017-01-15T08:39:54.636Z</time>
      </trkpt>
      <trkpt lat="47.7172" lon="2.11389">
        <ele>124</ele>
        <time>2017-01-15T08:39:55.634Z</time>
      </trkpt>
      <trkpt lat="47.7172" lon="2.11389">
        <ele>124</ele>
        <time>2017-01-15T08:39:56.631Z</time>
      </trkpt>
      <trkpt lat="47.71711" lon="2.11385">
        <ele>125</ele>
        <time>2017-01-15T08:39:57.634Z</time>
      </trkpt>
      <trkpt lat="47.71711" lon="2.11385">
        <ele>125</ele>
        <time>2017-01-15T08:39:58.631Z</time>
      </trkpt>
      <trkpt lat="47.71701" lon="2.1138">
        <ele>125</ele>
        <time>2017-01-15T08:39:59.656Z</time>
      </trkpt>
      <trkpt lat="47.71696" lon="2.11378">
        <ele>125</ele>
        <time>2017-01-15T08:40:00.644Z</time>
      </trkpt>
      <trkpt lat="47.71691" lon="2.11374">
        <ele>125</ele>
        <time>2017-01-15T08:40:01.634Z</time>
      </trkpt>
      <trkpt lat="47.71691" lon="2.11374">
        <ele>125</ele>
        <time>2017-01-15T08:40:02.640Z</time>
      </trkpt>
      <trkpt lat="47.7168" lon="2.1137">
        <ele>126</ele>
        <time>2017-01-15T08:40:03.634Z</time>
      </trkpt>
      <trkpt lat="47.71676" lon="2.11367">
        <ele>125</ele>
        <time>2017-01-15T08:40:04.633Z</time>
      </trkpt>
      <trkpt lat="47.71676" lon="2.11367">
        <ele>125</ele>
        <time>2017-01-15T08:40:05.631Z</time>
      </trkpt>
      <trkpt lat="47.71666" lon="2.11363">
        <ele>123</ele>
        <time>2017-01-15T08:40:06.634Z</time>
      </trkpt>
      <trkpt lat="47.71666" lon="2.11363">
        <ele>123</ele>
        <time>2017-01-15T08:40:07.631Z</time>
      </trkpt>
      <trkpt lat="47.71657" lon="2.11358">
        <ele>123</ele>
        <time>2017-01-15T08:40:08.634Z</time>
      </trkpt>
      <trkpt lat="47.71657" lon="2.11358">
        <ele>123</ele>
        <time>2017-01-15T08:40:09.631Z</time>
      </trkpt>
      <trkpt lat="47.71649" lon="2.11355">
        <ele>123</ele>
        <time>2017-01-15T08:40:10.635Z</time>
      </trkpt>
      <trkpt lat="47.71649" lon="2.11355">
        <ele>123</ele>
        <time>2017-01-15T08:40:11.631Z</time>
      </trkpt>
      <trkpt lat="47.71641" lon="2.11352">
        <ele>122</ele>
        <time>2017-01-15T08:40:12.633Z</time>
      </trkpt>
      <trkpt lat="47.71636" lon="2.1135">
        <ele>123</ele>
        <time>2017-01-15T08:40:13.634Z</time>
      </trkpt>
      <trkpt lat="47.71636" lon="2.1135">
        <ele>123</ele>
        <time>2017-01-15T08:40:14.651Z</time>
      </trkpt>
      <trkpt lat="47.71628" lon="2.11346">
        <ele>122</ele>
        <time>2017-01-15T08:40:15.665Z</time>
      </trkpt>
      <trkpt lat="47.71624" lon="2.11344">
        <ele>123</ele>
        <time>2017-01-15T08:40:16.633Z</time>
      </trkpt>
      <trkpt lat="47.7162" lon="2.11342">
        <ele>122</ele>
        <time>2017-01-15T08:40:17.634Z</time>
      </trkpt>
      <trkpt lat="47.7162" lon="2.11342">
        <ele>122</ele>
        <time>2017-01-15T08:40:18.632Z</time>
      </trkpt>
      <trkpt lat="47.71613" lon="2.1134">
        <ele>122</ele>
        <time>2017-01-15T08:40:19.633Z</time>
      </trkpt>
      <trkpt lat="47.71609" lon="2.11338">
        <ele>122</ele>
        <time>2017-01-15T08:40:20.635Z</time>
      </trkpt>
      <trkpt lat="47.71609" lon="2.11338">
        <ele>122</ele>
        <time>2017-01-15T08:40:21.631Z</time>
      </trkpt>
      <trkpt lat="47.71602" lon="2.11335">
        <ele>122</ele>
        <time>2017-01-15T08:40:22.643Z</time>
      </trkpt>
      <trkpt lat="47.71599" lon="2.11334">
        <ele>121</ele>
        <time>2017-01-15T08:40:23.635Z</time>
      </trkpt>
      <trkpt lat="47.71599" lon="2.11334">
        <ele>121</ele>
        <time>2017-01-15T08:40:24.632Z</time>
      </trkpt>
      <trkpt lat="47.71594" lon="2.11332">
        <ele>121</ele>
        <time>2017-01-15T08:40:25.634Z</time>
      </trkpt>
      <trkpt lat="47.71591" lon="2.11331">
        <ele>120</ele>
        <time>2017-01-15T08:40:26.635Z</time>
      </trkpt>
      <trkpt lat="47.71591" lon="2.11331">
        <ele>120</ele>
        <time>2017-01-15T08:40:27.631Z</time>
      </trkpt>
      <trkpt lat="47.71587" lon="2.11329">
        <ele>121</ele>
        <time>2017-01-15T08:40:28.637Z</time>
      </trkpt>
      <trkpt lat="47.71585" lon="2.11328">
        <ele>121</ele>
        <time>2017-01-15T08:40:29.635Z</time>
      </trkpt>
      <trkpt lat="47.71585" lon="2.11328">
        <ele>121</ele>
        <time>2017-01-15T08:40:30.632Z</time>
      </trkpt>
      <trkpt lat="47.71583" lon="2.11329">
        <ele>121</ele>
        <time>2017-01-15T08:40:31.634Z</time>
      </trkpt>
      <trkpt lat="47.71583" lon="2.11329">
        <ele>121</ele>
        <time>2017-01-15T08:40:32.631Z</time>
      </trkpt>
      <trkpt lat="47.71583" lon="2.11329">
        <ele>121</ele>
        <time>2017-01-15T08:40:33.636Z</time>
      </trkpt>
      <trkpt lat="47.71575" lon="2.11326">
        <ele>120</ele>
        <time>2017-01-15T08:40:34.667Z</time>
      </trkpt>
      <trkpt lat="47.71575" lon="2.11326">
        <ele>120</ele>
        <time>2017-01-15T08:40:35.668Z</time>
      </trkpt>
      <trkpt lat="47.7157" lon="2.11324">
        <ele>120</ele>
        <time>2017-01-15T08:40:36.666Z</time>
      </trkpt>
      <trkpt lat="47.7157" lon="2.11324">
        <ele>120</ele>
        <time>2017-01-15T08:40:37.661Z</time>
      </trkpt>
      <trkpt lat="47.71565" lon="2.11321">
        <ele>120</ele>
        <time>2017-01-15T08:40:38.661Z</time>
      </trkpt>
      <trkpt lat="47.71562" lon="2.1132">
        <ele>120</ele>
        <time>2017-01-15T08:40:39.662Z</time>
      </trkpt>
      <trkpt lat="47.71562" lon="2.1132">
        <ele>120</ele>
        <time>2017-01-15T08:40:40.663Z</time>
      </trkpt>
      <trkpt lat="47.71556" lon="2.11317">
        <ele>120</ele>
        <time>2017-01-15T08:40:41.661Z</time>
      </trkpt>
      <trkpt lat="47.71553" lon="2.11316">
        <ele>120</ele>
        <time>2017-01-15T08:40:42.663Z</time>
      </trkpt>
      <trkpt lat="47.71553" lon="2.11316">
        <ele>120</ele>
        <time>2017-01-15T08:40:43.658Z</time>
      </trkpt>
      <trkpt lat="47.71546" lon="2.11312">
        <ele>120</ele>
        <time>2017-01-15T08:40:44.663Z</time>
      </trkpt>
      <trkpt lat="47.71543" lon="2.11311">
        <ele>120</ele>
        <time>2017-01-15T08:40:45.663Z</time>
      </trkpt>
      <trkpt lat="47.71543" lon="2.11311">
        <ele>120</ele>
        <time>2017-01-15T08:40:46.660Z</time>
      </trkpt>
      <trkpt lat="47.71537" lon="2.11308">
        <ele>120</ele>
        <time>2017-01-15T08:40:47.666Z</time>
      </trkpt>
      <trkpt lat="47.71537" lon="2.11308">
        <ele>120</ele>
        <time>2017-01-15T08:40:48.660Z</time>
      </trkpt>
      <trkpt lat="47.7153" lon="2.11305">
        <ele>120</ele>
        <time>2017-01-15T08:40:49.662Z</time>
      </trkpt>
      <trkpt lat="47.7153" lon="2.11305">
        <ele>120</ele>
        <time>2017-01-15T08:40:50.660Z</time>
      </trkpt>
      <trkpt lat="47.71522" lon="2.11302">
        <ele>120</ele>
        <time>2017-01-15T08:40:51.653Z</time>
      </trkpt>
      <trkpt lat="47.71519" lon="2.11301">
        <ele>120</ele>
        <time>2017-01-15T08:40:52.660Z</time>
      </trkpt>
      <trkpt lat="47.71519" lon="2.11301">
        <ele>120</ele>
        <time>2017-01-15T08:40:53.660Z</time>
      </trkpt>
      <trkpt lat="47.71512" lon="2.11298">
        <ele>121</ele>
        <time>2017-01-15T08:40:54.631Z</time>
      </trkpt>
      <trkpt lat="47.71512" lon="2.11298">
        <ele>121</ele>
        <time>2017-01-15T08:40:55.661Z</time>
      </trkpt>
      <trkpt lat="47.71505" lon="2.11295">
        <ele>121</ele>
        <time>2017-01-15T08:40:56.662Z</time>
      </trkpt>
      <trkpt lat="47.71505" lon="2.11295">
        <ele>121</ele>
        <time>2017-01-15T08:40:57.660Z</time>
      </trkpt>
      <trkpt lat="47.71499" lon="2.11292">
        <ele>121</ele>
        <time>2017-01-15T08:40:58.663Z</time>
      </trkpt>
      <trkpt lat="47.71496" lon="2.1129">
        <ele>121</ele>
        <time>2017-01-15T08:40:59.635Z</time>
      </trkpt>
      <trkpt lat="47.71496" lon="2.1129">
        <ele>121</ele>
        <time>2017-01-15T08:41:00.664Z</time>
      </trkpt>
      <trkpt lat="47.71489" lon="2.11287">
        <ele>122</ele>
        <time>2017-01-15T08:41:01.654Z</time>
      </trkpt>
      <trkpt lat="47.71484" lon="2.11285">
        <ele>122</ele>
        <time>2017-01-15T08:41:02.662Z</time>
      </trkpt>
      <trkpt lat="47.71484" lon="2.11285">
        <ele>122</ele>
        <time>2017-01-15T08:41:03.660Z</time>
      </trkpt>
      <trkpt lat="47.71476" lon="2.11282">
        <ele>121</ele>
        <time>2017-01-15T08:41:04.662Z</time>
      </trkpt>
      <trkpt lat="47.71476" lon="2.11282">
        <ele>121</ele>
        <time>2017-01-15T08:41:05.660Z</time>
      </trkpt>
      <trkpt lat="47.71468" lon="2.11277">
        <ele>121</ele>
        <time>2017-01-15T08:41:06.634Z</time>
      </trkpt>
      <trkpt lat="47.71468" lon="2.11277">
        <ele>121</ele>
        <time>2017-01-15T08:41:07.664Z</time>
      </trkpt>
      <trkpt lat="47.7146" lon="2.11273">
        <ele>121</ele>
        <time>2017-01-15T08:41:08.662Z</time>
      </trkpt>
      <trkpt lat="47.7146" lon="2.11273">
        <ele>121</ele>
        <time>2017-01-15T08:41:09.660Z</time>
      </trkpt>
      <trkpt lat="47.71451" lon="2.11269">
        <ele>121</ele>
        <time>2017-01-15T08:41:10.662Z</time>
      </trkpt>
      <trkpt lat="47.71451" lon="2.11269">
        <ele>121</ele>
        <time>2017-01-15T08:41:11.652Z</time>
      </trkpt>
      <trkpt lat="47.71443" lon="2.11265">
        <ele>121</ele>
        <time>2017-01-15T08:41:12.664Z</time>
      </trkpt>
      <trkpt lat="47.71443" lon="2.11265">
        <ele>121</ele>
        <time>2017-01-15T08:41:13.661Z</time>
      </trkpt>
      <trkpt lat="47.71434" lon="2.11261">
        <ele>121</ele>
        <time>2017-01-15T08:41:14.630Z</time>
      </trkpt>
      <trkpt lat="47.7143" lon="2.1126">
        <ele>121</ele>
        <time>2017-01-15T08:41:15.632Z</time>
      </trkpt>
      <trkpt lat="47.7143" lon="2.1126">
        <ele>121</ele>
        <time>2017-01-15T08:41:16.663Z</time>
      </trkpt>
      <trkpt lat="47.71423" lon="2.11257">
        <ele>121</ele>
        <time>2017-01-15T08:41:17.661Z</time>
      </trkpt>
      <trkpt lat="47.71419" lon="2.11255">
        <ele>121</ele>
        <time>2017-01-15T08:41:18.665Z</time>
      </trkpt>
      <trkpt lat="47.71419" lon="2.11255">
        <ele>121</ele>
        <time>2017-01-15T08:41:19.661Z</time>
      </trkpt>
      <trkpt lat="47.71411" lon="2.11251">
        <ele>121</ele>
        <time>2017-01-15T08:41:20.663Z</time>
      </trkpt>
      <trkpt lat="47.71411" lon="2.11251">
        <ele>121</ele>
        <time>2017-01-15T08:41:21.661Z</time>
      </trkpt>
      <trkpt lat="47.71404" lon="2.11248">
        <ele>121</ele>
        <time>2017-01-15T08:41:22.662Z</time>
      </trkpt>
      <trkpt lat="47.71404" lon="2.11248">
        <ele>121</ele>
        <time>2017-01-15T08:41:23.660Z</time>
      </trkpt>
      <trkpt lat="47.71395" lon="2.11245">
        <ele>120</ele>
        <time>2017-01-15T08:41:24.665Z</time>
      </trkpt>
      <trkpt lat="47.71395" lon="2.11245">
        <ele>120</ele>
        <time>2017-01-15T08:41:25.661Z</time>
      </trkpt>
      <trkpt lat="47.71387" lon="2.11242">
        <ele>120</ele>
        <time>2017-01-15T08:41:26.661Z</time>
      </trkpt>
      <trkpt lat="47.71387" lon="2.11242">
        <ele>120</ele>
        <time>2017-01-15T08:41:27.660Z</time>
      </trkpt>
      <trkpt lat="47.71379" lon="2.11239">
        <ele>119</ele>
        <time>2017-01-15T08:41:28.664Z</time>
      </trkpt>
      <trkpt lat="47.71375" lon="2.11237">
        <ele>119</ele>
        <time>2017-01-15T08:41:29.662Z</time>
      </trkpt>
      <trkpt lat="47.71375" lon="2.11237">
        <ele>119</ele>
        <time>2017-01-15T08:41:30.660Z</time>
      </trkpt>
      <trkpt lat="47.71366" lon="2.11234">
        <ele>119</ele>
        <time>2017-01-15T08:41:31.662Z</time>
      </trkpt>
      <trkpt lat="47.71366" lon="2.11234">
        <ele>119</ele>
        <time>2017-01-15T08:41:32.660Z</time>
      </trkpt>
      <trkpt lat="47.71358" lon="2.1123">
        <ele>118</ele>
        <time>2017-01-15T08:41:33.663Z</time>
      </trkpt>
      <trkpt lat="47.71353" lon="2.11229">
        <ele>118</ele>
        <time>2017-01-15T08:41:34.662Z</time>
      </trkpt>
      <trkpt lat="47.71353" lon="2.11229">
        <ele>118</ele>
        <time>2017-01-15T08:41:35.660Z</time>
      </trkpt>
      <trkpt lat="47.71345" lon="2.11226">
        <ele>118</ele>
        <time>2017-01-15T08:41:36.663Z</time>
      </trkpt>
      <trkpt lat="47.71345" lon="2.11226">
        <ele>118</ele>
        <time>2017-01-15T08:41:37.661Z</time>
      </trkpt>
      <trkpt lat="47.71336" lon="2.11222">
        <ele>118</ele>
        <time>2017-01-15T08:41:38.662Z</time>
      </trkpt>
      <trkpt lat="47.71332" lon="2.11219">
        <ele>118</ele>
        <time>2017-01-15T08:41:39.660Z</time>
      </trkpt>
      <trkpt lat="47.71332" lon="2.11219">
        <ele>118</ele>
        <time>2017-01-15T08:41:40.660Z</time>
      </trkpt>
      <trkpt lat="47.71323" lon="2.11215">
        <ele>118</ele>
        <time>2017-01-15T08:41:41.663Z</time>
      </trkpt>
      <trkpt lat="47.71319" lon="2.11213">
        <ele>118</ele>
        <time>2017-01-15T08:41:42.664Z</time>
      </trkpt>
      <trkpt lat="47.71319" lon="2.11213">
        <ele>118</ele>
        <time>2017-01-15T08:41:43.661Z</time>
      </trkpt>
      <trkpt lat="47.71311" lon="2.1121">
        <ele>118</ele>
        <time>2017-01-15T08:41:44.664Z</time>
      </trkpt>
      <trkpt lat="47.71311" lon="2.1121">
        <ele>118</ele>
        <time>2017-01-15T08:41:45.660Z</time>
      </trkpt>
      <trkpt lat="47.71301" lon="2.11207">
        <ele>119</ele>
        <time>2017-01-15T08:41:46.663Z</time>
      </trkpt>
      <trkpt lat="47.71301" lon="2.11207">
        <ele>119</ele>
        <time>2017-01-15T08:41:47.660Z</time>
      </trkpt>
      <trkpt lat="47.71294" lon="2.11203">
        <ele>118</ele>
        <time>2017-01-15T08:41:48.664Z</time>
      </trkpt>
      <trkpt lat="47.71294" lon="2.11203">
        <ele>118</ele>
        <time>2017-01-15T08:41:49.661Z</time>
      </trkpt>
      <trkpt lat="47.71286" lon="2.112">
        <ele>118</ele>
        <time>2017-01-15T08:41:50.662Z</time>
      </trkpt>
      <trkpt lat="47.71282" lon="2.11198">
        <ele>118</ele>
        <time>2017-01-15T08:41:51.662Z</time>
      </trkpt>
      <trkpt lat="47.71282" lon="2.11198">
        <ele>118</ele>
        <time>2017-01-15T08:41:52.660Z</time>
      </trkpt>
      <trkpt lat="47.71275" lon="2.11195">
        <ele>118</ele>
        <time>2017-01-15T08:41:53.662Z</time>
      </trkpt>
      <trkpt lat="47.71271" lon="2.11192">
        <ele>118</ele>
        <time>2017-01-15T08:41:54.663Z</time>
      </trkpt>
      <trkpt lat="47.71271" lon="2.11192">
        <ele>118</ele>
        <time>2017-01-15T08:41:55.661Z</time>
      </trkpt>
      <trkpt lat="47.71263" lon="2.11188">
        <ele>118</ele>
        <time>2017-01-15T08:41:56.662Z</time>
      </trkpt>
      <trkpt lat="47.71259" lon="2.11187">
        <ele>118</ele>
        <time>2017-01-15T08:41:57.660Z</time>
      </trkpt>
      <trkpt lat="47.71259" lon="2.11187">
        <ele>118</ele>
        <time>2017-01-15T08:41:58.667Z</time>
      </trkpt>
      <trkpt lat="47.71251" lon="2.11184">
        <ele>118</ele>
        <time>2017-01-15T08:41:59.662Z</time>
      </trkpt>
      <trkpt lat="47.71246" lon="2.11182">
        <ele>118</ele>
        <time>2017-01-15T08:42:00.663Z</time>
      </trkpt>
      <trkpt lat="47.71246" lon="2.11182">
        <ele>118</ele>
        <time>2017-01-15T08:42:01.668Z</time>
      </trkpt>
      <trkpt lat="47.71238" lon="2.11181">
        <ele>118</ele>
        <time>2017-01-15T08:42:02.634Z</time>
      </trkpt>
      <trkpt lat="47.71238" lon="2.11181">
        <ele>118</ele>
        <time>2017-01-15T08:42:03.664Z</time>
      </trkpt>
      <trkpt lat="47.71229" lon="2.11181">
        <ele>117</ele>
        <time>2017-01-15T08:42:04.662Z</time>
      </trkpt>
      <trkpt lat="47.71229" lon="2.11181">
        <ele>117</ele>
        <time>2017-01-15T08:42:05.660Z</time>
      </trkpt>
      <trkpt lat="47.71223" lon="2.11181">
        <ele>116</ele>
        <time>2017-01-15T08:42:06.633Z</time>
      </trkpt>
      <trkpt lat="47.71223" lon="2.11181">
        <ele>116</ele>
        <time>2017-01-15T08:42:07.661Z</time>
      </trkpt>
      <trkpt lat="47.71217" lon="2.11181">
        <ele>116</ele>
        <time>2017-01-15T08:42:08.662Z</time>
      </trkpt>
      <trkpt lat="47.71214" lon="2.11181">
        <ele>116</ele>
        <time>2017-01-15T08:42:09.662Z</time>
      </trkpt>
      <trkpt lat="47.71214" lon="2.11181">
        <ele>116</ele>
        <time>2017-01-15T08:42:10.660Z</time>
      </trkpt>
      <trkpt lat="47.71212" lon="2.11182">
        <ele>116</ele>
        <time>2017-01-15T08:42:11.663Z</time>
      </trkpt>
      <trkpt lat="47.71212" lon="2.11182">
        <ele>116</ele>
        <time>2017-01-15T08:42:12.660Z</time>
      </trkpt>
      <trkpt lat="47.71211" lon="2.11182">
        <ele>117</ele>
        <time>2017-01-15T08:42:13.662Z</time>
      </trkpt>
      <trkpt lat="47.71211" lon="2.11182">
        <ele>117</ele>
        <time>2017-01-15T08:42:14.664Z</time>
      </trkpt>
      <trkpt lat="47.71211" lon="2.11182">
        <ele>117</ele>
        <time>2017-01-15T08:42:15.647Z</time>
      </trkpt>
      <trkpt lat="47.71206" lon="2.11175">
        <ele>119</ele>
        <time>2017-01-15T08:42:16.639Z</time>
      </trkpt>
      <trkpt lat="47.71205" lon="2.11176">
        <ele>120</ele>
        <time>2017-01-15T08:42:17.637Z</time>
      </trkpt>
      <trkpt lat="47.71204" lon="2.11177">
        <ele>120</ele>
        <time>2017-01-15T08:42:18.640Z</time>
      </trkpt>
      <trkpt lat="47.71204" lon="2.11177">
        <ele>120</ele>
        <time>2017-01-15T08:42:19.637Z</time>
      </trkpt>
      <trkpt lat="47.71202" lon="2.11181">
        <ele>120</ele>
        <time>2017-01-15T08:42:20.639Z</time>
      </trkpt>
      <trkpt lat="47.71202" lon="2.11181">
        <ele>120</ele>
        <time>2017-01-15T08:42:21.663Z</time>
      </trkpt>
      <trkpt lat="47.71198" lon="2.11185">
        <ele>120</ele>
        <time>2017-01-15T08:42:22.650Z</time>
      </trkpt>
      <trkpt lat="47.71198" lon="2.11185">
        <ele>120</ele>
        <time>2017-01-15T08:42:23.639Z</time>
      </trkpt>
      <trkpt lat="47.71193" lon="2.11191">
        <ele>120</ele>
        <time>2017-01-15T08:42:24.639Z</time>
      </trkpt>
      <trkpt lat="47.71193" lon="2.11191">
        <ele>120</ele>
        <time>2017-01-15T08:42:25.637Z</time>
      </trkpt>
      <trkpt lat="47.71188" lon="2.11199">
        <ele>120</ele>
        <time>2017-01-15T08:42:26.640Z</time>
      </trkpt>
      <trkpt lat="47.71188" lon="2.11199">
        <ele>120</ele>
        <time>2017-01-15T08:42:27.636Z</time>
      </trkpt>
      <trkpt lat="47.71184" lon="2.1121">
        <ele>120</ele>
        <time>2017-01-15T08:42:28.638Z</time>
      </trkpt>
      <trkpt lat="47.71184" lon="2.1121">
        <ele>120</ele>
        <time>2017-01-15T08:42:29.640Z</time>
      </trkpt>
      <trkpt lat="47.71181" lon="2.11221">
        <ele>119</ele>
        <time>2017-01-15T08:42:30.639Z</time>
      </trkpt>
      <trkpt lat="47.71181" lon="2.11221">
        <ele>119</ele>
        <time>2017-01-15T08:42:31.637Z</time>
      </trkpt>
      <trkpt lat="47.71178" lon="2.11233">
        <ele>119</ele>
        <time>2017-01-15T08:42:32.639Z</time>
      </trkpt>
      <trkpt lat="47.71178" lon="2.11233">
        <ele>119</ele>
        <time>2017-01-15T08:42:33.636Z</time>
      </trkpt>
      <trkpt lat="47.71175" lon="2.11246">
        <ele>120</ele>
        <time>2017-01-15T08:42:34.638Z</time>
      </trkpt>
      <trkpt lat="47.71175" lon="2.11246">
        <ele>120</ele>
        <time>2017-01-15T08:42:35.636Z</time>
      </trkpt>
      <trkpt lat="47.71172" lon="2.11258">
        <ele>120</ele>
        <time>2017-01-15T08:42:36.640Z</time>
      </trkpt>
      <trkpt lat="47.71172" lon="2.11258">
        <ele>120</ele>
        <time>2017-01-15T08:42:37.637Z</time>
      </trkpt>
      <trkpt lat="47.71169" lon="2.1127">
        <ele>120</ele>
        <time>2017-01-15T08:42:38.638Z</time>
      </trkpt>
      <trkpt lat="47.71169" lon="2.1127">
        <ele>120</ele>
        <time>2017-01-15T08:42:39.636Z</time>
      </trkpt>
      <trkpt lat="47.71167" lon="2.11282">
        <ele>120</ele>
        <time>2017-01-15T08:42:40.636Z</time>
      </trkpt>
      <trkpt lat="47.71166" lon="2.11288">
        <ele>120</ele>
        <time>2017-01-15T08:42:41.638Z</time>
      </trkpt>
      <trkpt lat="47.71166" lon="2.11288">
        <ele>120</ele>
        <time>2017-01-15T08:42:42.636Z</time>
      </trkpt>
      <trkpt lat="47.71165" lon="2.11301">
        <ele>120</ele>
        <time>2017-01-15T08:42:43.637Z</time>
      </trkpt>
      <trkpt lat="47.71164" lon="2.11307">
        <ele>120</ele>
        <time>2017-01-15T08:42:44.638Z</time>
      </trkpt>
      <trkpt lat="47.71164" lon="2.11307">
        <ele>120</ele>
        <time>2017-01-15T08:42:45.636Z</time>
      </trkpt>
      <trkpt lat="47.71162" lon="2.11319">
        <ele>120</ele>
        <time>2017-01-15T08:42:46.639Z</time>
      </trkpt>
      <trkpt lat="47.71161" lon="2.11325">
        <ele>120</ele>
        <time>2017-01-15T08:42:47.639Z</time>
      </trkpt>
      <trkpt lat="47.7116" lon="2.1133">
        <ele>120</ele>
        <time>2017-01-15T08:42:48.641Z</time>
      </trkpt>
      <trkpt lat="47.7116" lon="2.1133">
        <ele>120</ele>
        <time>2017-01-15T08:42:49.631Z</time>
      </trkpt>
      <trkpt lat="47.71158" lon="2.1134">
        <ele>120</ele>
        <time>2017-01-15T08:42:50.639Z</time>
      </trkpt>
      <trkpt lat="47.71158" lon="2.1134">
        <ele>120</ele>
        <time>2017-01-15T08:42:51.636Z</time>
      </trkpt>
      <trkpt lat="47.71157" lon="2.11353">
        <ele>120</ele>
        <time>2017-01-15T08:42:52.639Z</time>
      </trkpt>
      <trkpt lat="47.71157" lon="2.1136">
        <ele>120</ele>
        <time>2017-01-15T08:42:53.640Z</time>
      </trkpt>
      <trkpt lat="47.71156" lon="2.11365">
        <ele>121</ele>
        <time>2017-01-15T08:42:54.640Z</time>
      </trkpt>
      <trkpt lat="47.71156" lon="2.11365">
        <ele>121</ele>
        <time>2017-01-15T08:42:55.637Z</time>
      </trkpt>
      <trkpt lat="47.71154" lon="2.11376">
        <ele>121</ele>
        <time>2017-01-15T08:42:56.638Z</time>
      </trkpt>
      <trkpt lat="47.71154" lon="2.11376">
        <ele>121</ele>
        <time>2017-01-15T08:42:57.636Z</time>
      </trkpt>
      <trkpt lat="47.71152" lon="2.11388">
        <ele>122</ele>
        <time>2017-01-15T08:42:58.639Z</time>
      </trkpt>
      <trkpt lat="47.71152" lon="2.11388">
        <ele>122</ele>
        <time>2017-01-15T08:42:59.629Z</time>
      </trkpt>
      <trkpt lat="47.71151" lon="2.11401">
        <ele>122</ele>
        <time>2017-01-15T08:43:00.640Z</time>
      </trkpt>
      <trkpt lat="47.71151" lon="2.11401">
        <ele>122</ele>
        <time>2017-01-15T08:43:01.637Z</time>
      </trkpt>
      <trkpt lat="47.71151" lon="2.11413">
        <ele>123</ele>
        <time>2017-01-15T08:43:02.640Z</time>
      </trkpt>
      <trkpt lat="47.71151" lon="2.11413">
        <ele>123</ele>
        <time>2017-01-15T08:43:03.636Z</time>
      </trkpt>
      <trkpt lat="47.71149" lon="2.11425">
        <ele>123</ele>
        <time>2017-01-15T08:43:04.638Z</time>
      </trkpt>
      <trkpt lat="47.71148" lon="2.11432">
        <ele>123</ele>
        <time>2017-01-15T08:43:05.638Z</time>
      </trkpt>
      <trkpt lat="47.71147" lon="2.11438">
        <ele>124</ele>
        <time>2017-01-15T08:43:06.640Z</time>
      </trkpt>
      <trkpt lat="47.71147" lon="2.11438">
        <ele>124</ele>
        <time>2017-01-15T08:43:07.637Z</time>
      </trkpt>
      <trkpt lat="47.71145" lon="2.11451">
        <ele>124</ele>
        <time>2017-01-15T08:43:08.638Z</time>
      </trkpt>
      <trkpt lat="47.71145" lon="2.11451">
        <ele>124</ele>
        <time>2017-01-15T08:43:09.636Z</time>
      </trkpt>
      <trkpt lat="47.71143" lon="2.11464">
        <ele>125</ele>
        <time>2017-01-15T08:43:10.639Z</time>
      </trkpt>
      <trkpt lat="47.71143" lon="2.11464">
        <ele>125</ele>
        <time>2017-01-15T08:43:11.636Z</time>
      </trkpt>
      <trkpt lat="47.71141" lon="2.11476">
        <ele>126</ele>
        <time>2017-01-15T08:43:12.639Z</time>
      </trkpt>
      <trkpt lat="47.71141" lon="2.11476">
        <ele>126</ele>
        <time>2017-01-15T08:43:13.637Z</time>
      </trkpt>
      <trkpt lat="47.71138" lon="2.1149">
        <ele>126</ele>
        <time>2017-01-15T08:43:14.660Z</time>
      </trkpt>
      <trkpt lat="47.71138" lon="2.1149">
        <ele>126</ele>
        <time>2017-01-15T08:43:15.658Z</time>
      </trkpt>
      <trkpt lat="47.71136" lon="2.11503">
        <ele>127</ele>
        <time>2017-01-15T08:43:16.649Z</time>
      </trkpt>
      <trkpt lat="47.71136" lon="2.11503">
        <ele>127</ele>
        <time>2017-01-15T08:43:17.639Z</time>
      </trkpt>
      <trkpt lat="47.71132" lon="2.11516">
        <ele>128</ele>
        <time>2017-01-15T08:43:18.639Z</time>
      </trkpt>
      <trkpt lat="47.71132" lon="2.11516">
        <ele>128</ele>
        <time>2017-01-15T08:43:19.640Z</time>
      </trkpt>
      <trkpt lat="47.71129" lon="2.1153">
        <ele>128</ele>
        <time>2017-01-15T08:43:20.639Z</time>
      </trkpt>
      <trkpt lat="47.71129" lon="2.1153">
        <ele>128</ele>
        <time>2017-01-15T08:43:21.636Z</time>
      </trkpt>
      <trkpt lat="47.71129" lon="2.11546">
        <ele>129</ele>
        <time>2017-01-15T08:43:22.640Z</time>
      </trkpt>
      <trkpt lat="47.71129" lon="2.11546">
        <ele>129</ele>
        <time>2017-01-15T08:43:23.636Z</time>
      </trkpt>
      <trkpt lat="47.71127" lon="2.11561">
        <ele>129</ele>
        <time>2017-01-15T08:43:24.639Z</time>
      </trkpt>
      <trkpt lat="47.71127" lon="2.11561">
        <ele>129</ele>
        <time>2017-01-15T08:43:25.638Z</time>
      </trkpt>
      <trkpt lat="47.71127" lon="2.11574">
        <ele>129</ele>
        <time>2017-01-15T08:43:26.639Z</time>
      </trkpt>
      <trkpt lat="47.71125" lon="2.11581">
        <ele>129</ele>
        <time>2017-01-15T08:43:27.639Z</time>
      </trkpt>
      <trkpt lat="47.71125" lon="2.11581">
        <ele>129</ele>
        <time>2017-01-15T08:43:28.637Z</time>
      </trkpt>
      <trkpt lat="47.71123" lon="2.11595">
        <ele>130</ele>
        <time>2017-01-15T08:43:29.638Z</time>
      </trkpt>
      <trkpt lat="47.71121" lon="2.11602">
        <ele>130</ele>
        <time>2017-01-15T08:43:30.640Z</time>
      </trkpt>
      <trkpt lat="47.71121" lon="2.11602">
        <ele>130</ele>
        <time>2017-01-15T08:43:31.637Z</time>
      </trkpt>
      <trkpt lat="47.7112" lon="2.11615">
        <ele>131</ele>
        <time>2017-01-15T08:43:32.639Z</time>
      </trkpt>
      <trkpt lat="47.7112" lon="2.11615">
        <ele>131</ele>
        <time>2017-01-15T08:43:33.636Z</time>
      </trkpt>
      <trkpt lat="47.71118" lon="2.11629">
        <ele>131</ele>
        <time>2017-01-15T08:43:34.636Z</time>
      </trkpt>
      <trkpt lat="47.71116" lon="2.11636">
        <ele>132</ele>
        <time>2017-01-15T08:43:35.649Z</time>
      </trkpt>
      <trkpt lat="47.71115" lon="2.11642">
        <ele>132</ele>
        <time>2017-01-15T08:43:36.640Z</time>
      </trkpt>
      <trkpt lat="47.71115" lon="2.11642">
        <ele>132</ele>
        <time>2017-01-15T08:43:37.638Z</time>
      </trkpt>
      <trkpt lat="47.71111" lon="2.11655">
        <ele>132</ele>
        <time>2017-01-15T08:43:38.637Z</time>
      </trkpt>
      <trkpt lat="47.71111" lon="2.11655">
        <ele>132</ele>
        <time>2017-01-15T08:43:39.637Z</time>
      </trkpt>
      <trkpt lat="47.71109" lon="2.11668">
        <ele>133</ele>
        <time>2017-01-15T08:43:40.639Z</time>
      </trkpt>
      <trkpt lat="47.71109" lon="2.11668">
        <ele>133</ele>
        <time>2017-01-15T08:43:41.637Z</time>
      </trkpt>
      <trkpt lat="47.71106" lon="2.1168">
        <ele>134</ele>
        <time>2017-01-15T08:43:42.641Z</time>
      </trkpt>
      <trkpt lat="47.71106" lon="2.1168">
        <ele>134</ele>
        <time>2017-01-15T08:43:43.638Z</time>
      </trkpt>
      <trkpt lat="47.71104" lon="2.11691">
        <ele>135</ele>
        <time>2017-01-15T08:43:44.648Z</time>
      </trkpt>
      <trkpt lat="47.71104" lon="2.11691">
        <ele>135</ele>
        <time>2017-01-15T08:43:45.637Z</time>
      </trkpt>
      <trkpt lat="47.71101" lon="2.11701">
        <ele>135</ele>
        <time>2017-01-15T08:43:46.641Z</time>
      </trkpt>
      <trkpt lat="47.71101" lon="2.11701">
        <ele>135</ele>
        <time>2017-01-15T08:43:47.637Z</time>
      </trkpt>
      <trkpt lat="47.71099" lon="2.11713">
        <ele>136</ele>
        <time>2017-01-15T08:43:48.640Z</time>
      </trkpt>
      <trkpt lat="47.71099" lon="2.11713">
        <ele>136</ele>
        <time>2017-01-15T08:43:49.639Z</time>
      </trkpt>
      <trkpt lat="47.71096" lon="2.11727">
        <ele>137</ele>
        <time>2017-01-15T08:43:50.638Z</time>
      </trkpt>
      <trkpt lat="47.71094" lon="2.11736">
        <ele>137</ele>
        <time>2017-01-15T08:43:51.640Z</time>
      </trkpt>
      <trkpt lat="47.71094" lon="2.11736">
        <ele>137</ele>
        <time>2017-01-15T08:43:52.637Z</time>
      </trkpt>
      <trkpt lat="47.71092" lon="2.11751">
        <ele>138</ele>
        <time>2017-01-15T08:43:53.639Z</time>
      </trkpt>
      <trkpt lat="47.71091" lon="2.11759">
        <ele>139</ele>
        <time>2017-01-15T08:43:54.640Z</time>
      </trkpt>
      <trkpt lat="47.71091" lon="2.11759">
        <ele>139</ele>
        <time>2017-01-15T08:43:55.638Z</time>
      </trkpt>
      <trkpt lat="47.71088" lon="2.11773">
        <ele>139</ele>
        <time>2017-01-15T08:43:56.639Z</time>
      </trkpt>
      <trkpt lat="47.71088" lon="2.1178">
        <ele>140</ele>
        <time>2017-01-15T08:43:57.639Z</time>
      </trkpt>
      <trkpt lat="47.71088" lon="2.1178">
        <ele>140</ele>
        <time>2017-01-15T08:43:58.637Z</time>
      </trkpt>
      <trkpt lat="47.71086" lon="2.11794">
        <ele>140</ele>
        <time>2017-01-15T08:43:59.639Z</time>
      </trkpt>
      <trkpt lat="47.71086" lon="2.11801">
        <ele>140</ele>
        <time>2017-01-15T08:44:00.640Z</time>
      </trkpt>
      <trkpt lat="47.71086" lon="2.11801">
        <ele>140</ele>
        <time>2017-01-15T08:44:01.638Z</time>
      </trkpt>
      <trkpt lat="47.71085" lon="2.11816">
        <ele>141</ele>
        <time>2017-01-15T08:44:02.638Z</time>
      </trkpt>
      <trkpt lat="47.71084" lon="2.11822">
        <ele>141</ele>
        <time>2017-01-15T08:44:03.639Z</time>
      </trkpt>
      <trkpt lat="47.71083" lon="2.1183">
        <ele>141</ele>
        <time>2017-01-15T08:44:04.640Z</time>
      </trkpt>
      <trkpt lat="47.71083" lon="2.1183">
        <ele>141</ele>
        <time>2017-01-15T08:44:05.637Z</time>
      </trkpt>
      <trkpt lat="47.71082" lon="2.11843">
        <ele>140</ele>
        <time>2017-01-15T08:44:06.640Z</time>
      </trkpt>
      <trkpt lat="47.71082" lon="2.11843">
        <ele>140</ele>
        <time>2017-01-15T08:44:07.638Z</time>
      </trkpt>
      <trkpt lat="47.71079" lon="2.11858">
        <ele>139</ele>
        <time>2017-01-15T08:44:08.639Z</time>
      </trkpt>
      <trkpt lat="47.71079" lon="2.11858">
        <ele>139</ele>
        <time>2017-01-15T08:44:09.635Z</time>
      </trkpt>
      <trkpt lat="47.71077" lon="2.11872">
        <ele>139</ele>
        <time>2017-01-15T08:44:10.638Z</time>
      </trkpt>
      <trkpt lat="47.71075" lon="2.11879">
        <ele>139</ele>
        <time>2017-01-15T08:44:11.639Z</time>
      </trkpt>
      <trkpt lat="47.71074" lon="2.11886">
        <ele>139</ele>
        <time>2017-01-15T08:44:12.638Z</time>
      </trkpt>
      <trkpt lat="47.71074" lon="2.11886">
        <ele>139</ele>
        <time>2017-01-15T08:44:13.638Z</time>
      </trkpt>
      <trkpt lat="47.71072" lon="2.119">
        <ele>138</ele>
        <time>2017-01-15T08:44:14.647Z</time>
      </trkpt>
      <trkpt lat="47.71072" lon="2.119">
        <ele>138</ele>
        <time>2017-01-15T08:44:15.649Z</time>
      </trkpt>
      <trkpt lat="47.7107" lon="2.11914">
        <ele>138</ele>
        <time>2017-01-15T08:44:16.637Z</time>
      </trkpt>
      <trkpt lat="47.71069" lon="2.1192">
        <ele>138</ele>
        <time>2017-01-15T08:44:17.640Z</time>
      </trkpt>
      <trkpt lat="47.71067" lon="2.11927">
        <ele>138</ele>
        <time>2017-01-15T08:44:18.641Z</time>
      </trkpt>
      <trkpt lat="47.71067" lon="2.11927">
        <ele>138</ele>
        <time>2017-01-15T08:44:19.635Z</time>
      </trkpt>
      <trkpt lat="47.71064" lon="2.11941">
        <ele>138</ele>
        <time>2017-01-15T08:44:20.639Z</time>
      </trkpt>
      <trkpt lat="47.71064" lon="2.11941">
        <ele>138</ele>
        <time>2017-01-15T08:44:21.637Z</time>
      </trkpt>
      <trkpt lat="47.71061" lon="2.11954">
        <ele>137</ele>
        <time>2017-01-15T08:44:22.639Z</time>
      </trkpt>
      <trkpt lat="47.71061" lon="2.11954">
        <ele>137</ele>
        <time>2017-01-15T08:44:23.637Z</time>
      </trkpt>
      <trkpt lat="47.71058" lon="2.11968">
        <ele>137</ele>
        <time>2017-01-15T08:44:24.640Z</time>
      </trkpt>
      <trkpt lat="47.71057" lon="2.11974">
        <ele>137</ele>
        <time>2017-01-15T08:44:25.640Z</time>
      </trkpt>
      <trkpt lat="47.71055" lon="2.11981">
        <ele>136</ele>
        <time>2017-01-15T08:44:26.640Z</time>
      </trkpt>
      <trkpt lat="47.71055" lon="2.11981">
        <ele>136</ele>
        <time>2017-01-15T08:44:27.637Z</time>
      </trkpt>
      <trkpt lat="47.71052" lon="2.11995">
        <ele>136</ele>
        <time>2017-01-15T08:44:28.639Z</time>
      </trkpt>
      <trkpt lat="47.71052" lon="2.11995">
        <ele>136</ele>
        <time>2017-01-15T08:44:29.637Z</time>
      </trkpt>
      <trkpt lat="47.71049" lon="2.12009">
        <ele>134</ele>
        <time>2017-01-15T08:44:30.651Z</time>
      </trkpt>
      <trkpt lat="47.71049" lon="2.12009">
        <ele>134</ele>
        <time>2017-01-15T08:44:31.639Z</time>
      </trkpt>
      <trkpt lat="47.71045" lon="2.12023">
        <ele>133</ele>
        <time>2017-01-15T08:44:32.639Z</time>
      </trkpt>
      <trkpt lat="47.71045" lon="2.12023">
        <ele>133</ele>
        <time>2017-01-15T08:44:33.637Z</time>
      </trkpt>
      <trkpt lat="47.71042" lon="2.12037">
        <ele>132</ele>
        <time>2017-01-15T08:44:34.638Z</time>
      </trkpt>
      <trkpt lat="47.71041" lon="2.12044">
        <ele>132</ele>
        <time>2017-01-15T08:44:35.638Z</time>
      </trkpt>
      <trkpt lat="47.71039" lon="2.12051">
        <ele>131</ele>
        <time>2017-01-15T08:44:36.640Z</time>
      </trkpt>
      <trkpt lat="47.71039" lon="2.12051">
        <ele>131</ele>
        <time>2017-01-15T08:44:37.635Z</time>
      </trkpt>
      <trkpt lat="47.71035" lon="2.12065">
        <ele>130</ele>
        <time>2017-01-15T08:44:38.639Z</time>
      </trkpt>
      <trkpt lat="47.71033" lon="2.12073">
        <ele>129</ele>
        <time>2017-01-15T08:44:39.640Z</time>
      </trkpt>
      <trkpt lat="47.71033" lon="2.12073">
        <ele>129</ele>
        <time>2017-01-15T08:44:40.637Z</time>
      </trkpt>
      <trkpt lat="47.7103" lon="2.12088">
        <ele>128</ele>
        <time>2017-01-15T08:44:41.639Z</time>
      </trkpt>
      <trkpt lat="47.71029" lon="2.12097">
        <ele>128</ele>
        <time>2017-01-15T08:44:42.641Z</time>
      </trkpt>
      <trkpt lat="47.71029" lon="2.12097">
        <ele>128</ele>
        <time>2017-01-15T08:44:43.635Z</time>
      </trkpt>
      <trkpt lat="47.71026" lon="2.12113">
        <ele>127</ele>
        <time>2017-01-15T08:44:44.642Z</time>
      </trkpt>
      <trkpt lat="47.71026" lon="2.12113">
        <ele>127</ele>
        <time>2017-01-15T08:44:45.637Z</time>
      </trkpt>
      <trkpt lat="47.71023" lon="2.1213">
        <ele>127</ele>
        <time>2017-01-15T08:44:46.640Z</time>
      </trkpt>
      <trkpt lat="47.71023" lon="2.1213">
        <ele>127</ele>
        <time>2017-01-15T08:44:47.637Z</time>
      </trkpt>
      <trkpt lat="47.7102" lon="2.12146">
        <ele>126</ele>
        <time>2017-01-15T08:44:48.641Z</time>
      </trkpt>
      <trkpt lat="47.7102" lon="2.12146">
        <ele>126</ele>
        <time>2017-01-15T08:44:49.638Z</time>
      </trkpt>
      <trkpt lat="47.71018" lon="2.12163">
        <ele>126</ele>
        <time>2017-01-15T08:44:50.638Z</time>
      </trkpt>
      <trkpt lat="47.71017" lon="2.12171">
        <ele>126</ele>
        <time>2017-01-15T08:44:51.639Z</time>
      </trkpt>
      <trkpt lat="47.71017" lon="2.12171">
        <ele>126</ele>
        <time>2017-01-15T08:44:52.637Z</time>
      </trkpt>
      <trkpt lat="47.71015" lon="2.12185">
        <ele>127</ele>
        <time>2017-01-15T08:44:53.643Z</time>
      </trkpt>
      <trkpt lat="47.71014" lon="2.12193">
        <ele>128</ele>
        <time>2017-01-15T08:44:54.640Z</time>
      </trkpt>
      <trkpt lat="47.71014" lon="2.12193">
        <ele>128</ele>
        <time>2017-01-15T08:44:55.637Z</time>
      </trkpt>
      <trkpt lat="47.71011" lon="2.1221">
        <ele>129</ele>
        <time>2017-01-15T08:44:56.639Z</time>
      </trkpt>
      <trkpt lat="47.71011" lon="2.12218">
        <ele>129</ele>
        <time>2017-01-15T08:44:57.638Z</time>
      </trkpt>
      <trkpt lat="47.71011" lon="2.12218">
        <ele>129</ele>
        <time>2017-01-15T08:44:58.641Z</time>
      </trkpt>
      <trkpt lat="47.71011" lon="2.12234">
        <ele>130</ele>
        <time>2017-01-15T08:44:59.636Z</time>
      </trkpt>
      <trkpt lat="47.71011" lon="2.12234">
        <ele>130</ele>
        <time>2017-01-15T08:45:00.629Z</time>
      </trkpt>
      <trkpt lat="47.71011" lon="2.12247">
        <ele>131</ele>
        <time>2017-01-15T08:45:01.629Z</time>
      </trkpt>
      <trkpt lat="47.71012" lon="2.12254">
        <ele>131</ele>
        <time>2017-01-15T08:45:02.637Z</time>
      </trkpt>
      <trkpt lat="47.71012" lon="2.12254">
        <ele>131</ele>
        <time>2017-01-15T08:45:03.637Z</time>
      </trkpt>
      <trkpt lat="47.71013" lon="2.12269">
        <ele>133</ele>
        <time>2017-01-15T08:45:04.640Z</time>
      </trkpt>
      <trkpt lat="47.71013" lon="2.12269">
        <ele>133</ele>
        <time>2017-01-15T08:45:05.637Z</time>
      </trkpt>
      <trkpt lat="47.71012" lon="2.12283">
        <ele>134</ele>
        <time>2017-01-15T08:45:06.639Z</time>
      </trkpt>
      <trkpt lat="47.71012" lon="2.1229">
        <ele>135</ele>
        <time>2017-01-15T08:45:07.639Z</time>
      </trkpt>
      <trkpt lat="47.71012" lon="2.12297">
        <ele>135</ele>
        <time>2017-01-15T08:45:08.641Z</time>
      </trkpt>
      <trkpt lat="47.71012" lon="2.12297">
        <ele>135</ele>
        <time>2017-01-15T08:45:09.637Z</time>
      </trkpt>
      <trkpt lat="47.71012" lon="2.12312">
        <ele>136</ele>
        <time>2017-01-15T08:45:10.652Z</time>
      </trkpt>
      <trkpt lat="47.71013" lon="2.12319">
        <ele>136</ele>
        <time>2017-01-15T08:45:11.641Z</time>
      </trkpt>
      <trkpt lat="47.71013" lon="2.12326">
        <ele>137</ele>
        <time>2017-01-15T08:45:12.641Z</time>
      </trkpt>
      <trkpt lat="47.71013" lon="2.12326">
        <ele>137</ele>
        <time>2017-01-15T08:45:13.638Z</time>
      </trkpt>
      <trkpt lat="47.71013" lon="2.12339">
        <ele>137</ele>
        <time>2017-01-15T08:45:14.648Z</time>
      </trkpt>
      <trkpt lat="47.71013" lon="2.12339">
        <ele>137</ele>
        <time>2017-01-15T08:45:15.644Z</time>
      </trkpt>
      <trkpt lat="47.71014" lon="2.12354">
        <ele>138</ele>
        <time>2017-01-15T08:45:16.640Z</time>
      </trkpt>
      <trkpt lat="47.71013" lon="2.12361">
        <ele>138</ele>
        <time>2017-01-15T08:45:17.638Z</time>
      </trkpt>
      <trkpt lat="47.71013" lon="2.12369">
        <ele>138</ele>
        <time>2017-01-15T08:45:18.639Z</time>
      </trkpt>
      <trkpt lat="47.71013" lon="2.12369">
        <ele>138</ele>
        <time>2017-01-15T08:45:19.638Z</time>
      </trkpt>
      <trkpt lat="47.71013" lon="2.12384">
        <ele>139</ele>
        <time>2017-01-15T08:45:20.641Z</time>
      </trkpt>
      <trkpt lat="47.71013" lon="2.12391">
        <ele>140</ele>
        <time>2017-01-15T08:45:21.641Z</time>
      </trkpt>
      <trkpt lat="47.71013" lon="2.12391">
        <ele>140</ele>
        <time>2017-01-15T08:45:22.637Z</time>
      </trkpt>
      <trkpt lat="47.71013" lon="2.12405">
        <ele>141</ele>
        <time>2017-01-15T08:45:23.640Z</time>
      </trkpt>
      <trkpt lat="47.71013" lon="2.12405">
        <ele>141</ele>
        <time>2017-01-15T08:45:24.637Z</time>
      </trkpt>
      <trkpt lat="47.71013" lon="2.12422">
        <ele>141</ele>
        <time>2017-01-15T08:45:25.640Z</time>
      </trkpt>
      <trkpt lat="47.71012" lon="2.12429">
        <ele>141</ele>
        <time>2017-01-15T08:45:26.637Z</time>
      </trkpt>
      <trkpt lat="47.71012" lon="2.12429">
        <ele>141</ele>
        <time>2017-01-15T08:45:27.637Z</time>
      </trkpt>
      <trkpt lat="47.71011" lon="2.12443">
        <ele>142</ele>
        <time>2017-01-15T08:45:28.642Z</time>
      </trkpt>
      <trkpt lat="47.71011" lon="2.12443">
        <ele>142</ele>
        <time>2017-01-15T08:45:29.637Z</time>
      </trkpt>
      <trkpt lat="47.71011" lon="2.12457">
        <ele>142</ele>
        <time>2017-01-15T08:45:30.640Z</time>
      </trkpt>
      <trkpt lat="47.71011" lon="2.12457">
        <ele>142</ele>
        <time>2017-01-15T08:45:31.638Z</time>
      </trkpt>
      <trkpt lat="47.71011" lon="2.12471">
        <ele>143</ele>
        <time>2017-01-15T08:45:32.638Z</time>
      </trkpt>
      <trkpt lat="47.71011" lon="2.12471">
        <ele>143</ele>
        <time>2017-01-15T08:45:33.639Z</time>
      </trkpt>
      <trkpt lat="47.71011" lon="2.12486">
        <ele>143</ele>
        <time>2017-01-15T08:45:34.639Z</time>
      </trkpt>
      <trkpt lat="47.71011" lon="2.12486">
        <ele>143</ele>
        <time>2017-01-15T08:45:35.639Z</time>
      </trkpt>
      <trkpt lat="47.71011" lon="2.12501">
        <ele>144</ele>
        <time>2017-01-15T08:45:36.641Z</time>
      </trkpt>
      <trkpt lat="47.71011" lon="2.12501">
        <ele>144</ele>
        <time>2017-01-15T08:45:37.638Z</time>
      </trkpt>
      <trkpt lat="47.7101" lon="2.12516">
        <ele>144</ele>
        <time>2017-01-15T08:45:38.641Z</time>
      </trkpt>
      <trkpt lat="47.7101" lon="2.12516">
        <ele>144</ele>
        <time>2017-01-15T08:45:39.637Z</time>
      </trkpt>
      <trkpt lat="47.71009" lon="2.1253">
        <ele>143</ele>
        <time>2017-01-15T08:45:40.640Z</time>
      </trkpt>
      <trkpt lat="47.71007" lon="2.12537">
        <ele>143</ele>
        <time>2017-01-15T08:45:41.642Z</time>
      </trkpt>
      <trkpt lat="47.71007" lon="2.12537">
        <ele>143</ele>
        <time>2017-01-15T08:45:42.637Z</time>
      </trkpt>
      <trkpt lat="47.71005" lon="2.12551">
        <ele>143</ele>
        <time>2017-01-15T08:45:43.641Z</time>
      </trkpt>
      <trkpt lat="47.71005" lon="2.12551">
        <ele>143</ele>
        <time>2017-01-15T08:45:44.637Z</time>
      </trkpt>
      <trkpt lat="47.71003" lon="2.12565">
        <ele>143</ele>
        <time>2017-01-15T08:45:45.642Z</time>
      </trkpt>
      <trkpt lat="47.71002" lon="2.12572">
        <ele>143</ele>
        <time>2017-01-15T08:45:46.640Z</time>
      </trkpt>
      <trkpt lat="47.71002" lon="2.12572">
        <ele>143</ele>
        <time>2017-01-15T08:45:47.637Z</time>
      </trkpt>
      <trkpt lat="47.70999" lon="2.12585">
        <ele>143</ele>
        <time>2017-01-15T08:45:48.641Z</time>
      </trkpt>
      <trkpt lat="47.70999" lon="2.12585">
        <ele>143</ele>
        <time>2017-01-15T08:45:49.638Z</time>
      </trkpt>
      <trkpt lat="47.70996" lon="2.126">
        <ele>143</ele>
        <time>2017-01-15T08:45:50.637Z</time>
      </trkpt>
      <trkpt lat="47.70995" lon="2.12607">
        <ele>143</ele>
        <time>2017-01-15T08:45:51.639Z</time>
      </trkpt>
      <trkpt lat="47.70994" lon="2.12614">
        <ele>142</ele>
        <time>2017-01-15T08:45:52.639Z</time>
      </trkpt>
      <trkpt lat="47.70994" lon="2.12614">
        <ele>142</ele>
        <time>2017-01-15T08:45:53.637Z</time>
      </trkpt>
      <trkpt lat="47.70991" lon="2.12628">
        <ele>143</ele>
        <time>2017-01-15T08:45:54.645Z</time>
      </trkpt>
      <trkpt lat="47.7099" lon="2.12635">
        <ele>143</ele>
        <time>2017-01-15T08:45:55.640Z</time>
      </trkpt>
      <trkpt lat="47.7099" lon="2.12635">
        <ele>143</ele>
        <time>2017-01-15T08:45:56.637Z</time>
      </trkpt>
      <trkpt lat="47.70988" lon="2.12651">
        <ele>143</ele>
        <time>2017-01-15T08:45:57.641Z</time>
      </trkpt>
      <trkpt lat="47.70988" lon="2.12651">
        <ele>143</ele>
        <time>2017-01-15T08:45:58.637Z</time>
      </trkpt>
      <trkpt lat="47.70985" lon="2.12666">
        <ele>144</ele>
        <time>2017-01-15T08:45:59.638Z</time>
      </trkpt>
      <trkpt lat="47.70983" lon="2.12674">
        <ele>144</ele>
        <time>2017-01-15T08:46:00.641Z</time>
      </trkpt>
      <trkpt lat="47.70983" lon="2.12674">
        <ele>144</ele>
        <time>2017-01-15T08:46:01.662Z</time>
      </trkpt>
      <trkpt lat="47.70979" lon="2.12689">
        <ele>144</ele>
        <time>2017-01-15T08:46:02.660Z</time>
      </trkpt>
      <trkpt lat="47.70979" lon="2.12689">
        <ele>144</ele>
        <time>2017-01-15T08:46:03.649Z</time>
      </trkpt>
      <trkpt lat="47.70975" lon="2.12703">
        <ele>145</ele>
        <time>2017-01-15T08:46:04.640Z</time>
      </trkpt>
      <trkpt lat="47.70975" lon="2.12703">
        <ele>145</ele>
        <time>2017-01-15T08:46:05.637Z</time>
      </trkpt>
      <trkpt lat="47.70971" lon="2.12716">
        <ele>144</ele>
        <time>2017-01-15T08:46:06.643Z</time>
      </trkpt>
      <trkpt lat="47.70971" lon="2.12716">
        <ele>144</ele>
        <time>2017-01-15T08:46:07.639Z</time>
      </trkpt>
      <trkpt lat="47.70969" lon="2.12733">
        <ele>144</ele>
        <time>2017-01-15T08:46:08.640Z</time>
      </trkpt>
      <trkpt lat="47.70969" lon="2.12733">
        <ele>144</ele>
        <time>2017-01-15T08:46:09.637Z</time>
      </trkpt>
      <trkpt lat="47.70967" lon="2.1275">
        <ele>143</ele>
        <time>2017-01-15T08:46:10.640Z</time>
      </trkpt>
      <trkpt lat="47.70967" lon="2.1275">
        <ele>143</ele>
        <time>2017-01-15T08:46:11.637Z</time>
      </trkpt>
      <trkpt lat="47.70964" lon="2.12766">
        <ele>143</ele>
        <time>2017-01-15T08:46:12.639Z</time>
      </trkpt>
      <trkpt lat="47.70964" lon="2.12766">
        <ele>143</ele>
        <time>2017-01-15T08:46:13.639Z</time>
      </trkpt>
      <trkpt lat="47.70962" lon="2.12782">
        <ele>143</ele>
        <time>2017-01-15T08:46:14.649Z</time>
      </trkpt>
      <trkpt lat="47.70962" lon="2.12791">
        <ele>142</ele>
        <time>2017-01-15T08:46:15.652Z</time>
      </trkpt>
      <trkpt lat="47.70962" lon="2.12791">
        <ele>142</ele>
        <time>2017-01-15T08:46:16.641Z</time>
      </trkpt>
      <trkpt lat="47.70958" lon="2.12806">
        <ele>142</ele>
        <time>2017-01-15T08:46:17.641Z</time>
      </trkpt>
      <trkpt lat="47.70957" lon="2.12814">
        <ele>142</ele>
        <time>2017-01-15T08:46:18.642Z</time>
      </trkpt>
      <trkpt lat="47.70957" lon="2.12814">
        <ele>142</ele>
        <time>2017-01-15T08:46:19.640Z</time>
      </trkpt>
      <trkpt lat="47.70954" lon="2.1283">
        <ele>141</ele>
        <time>2017-01-15T08:46:20.641Z</time>
      </trkpt>
      <trkpt lat="47.70954" lon="2.1283">
        <ele>141</ele>
        <time>2017-01-15T08:46:21.637Z</time>
      </trkpt>
      <trkpt lat="47.70951" lon="2.12846">
        <ele>140</ele>
        <time>2017-01-15T08:46:22.640Z</time>
      </trkpt>
      <trkpt lat="47.7095" lon="2.12854">
        <ele>140</ele>
        <time>2017-01-15T08:46:23.640Z</time>
      </trkpt>
      <trkpt lat="47.7095" lon="2.12854">
        <ele>140</ele>
        <time>2017-01-15T08:46:24.643Z</time>
      </trkpt>
      <trkpt lat="47.70947" lon="2.12869">
        <ele>138</ele>
        <time>2017-01-15T08:46:25.640Z</time>
      </trkpt>
      <trkpt lat="47.70946" lon="2.12877">
        <ele>138</ele>
        <time>2017-01-15T08:46:26.641Z</time>
      </trkpt>
      <trkpt lat="47.70946" lon="2.12877">
        <ele>138</ele>
        <time>2017-01-15T08:46:27.637Z</time>
      </trkpt>
      <trkpt lat="47.70942" lon="2.12893">
        <ele>138</ele>
        <time>2017-01-15T08:46:28.640Z</time>
      </trkpt>
      <trkpt lat="47.70942" lon="2.12893">
        <ele>138</ele>
        <time>2017-01-15T08:46:29.637Z</time>
      </trkpt>
      <trkpt lat="47.7094" lon="2.12909">
        <ele>137</ele>
        <time>2017-01-15T08:46:30.641Z</time>
      </trkpt>
      <trkpt lat="47.7094" lon="2.12909">
        <ele>137</ele>
        <time>2017-01-15T08:46:31.639Z</time>
      </trkpt>
      <trkpt lat="47.70937" lon="2.12924">
        <ele>137</ele>
        <time>2017-01-15T08:46:32.641Z</time>
      </trkpt>
      <trkpt lat="47.70936" lon="2.12932">
        <ele>137</ele>
        <time>2017-01-15T08:46:33.641Z</time>
      </trkpt>
      <trkpt lat="47.70936" lon="2.12932">
        <ele>137</ele>
        <time>2017-01-15T08:46:34.637Z</time>
      </trkpt>
      <trkpt lat="47.70933" lon="2.12948">
        <ele>136</ele>
        <time>2017-01-15T08:46:35.639Z</time>
      </trkpt>
      <trkpt lat="47.70932" lon="2.12955">
        <ele>136</ele>
        <time>2017-01-15T08:46:36.642Z</time>
      </trkpt>
      <trkpt lat="47.70932" lon="2.12955">
        <ele>136</ele>
        <time>2017-01-15T08:46:37.653Z</time>
      </trkpt>
      <trkpt lat="47.70929" lon="2.1297">
        <ele>136</ele>
        <time>2017-01-15T08:46:38.640Z</time>
      </trkpt>
      <trkpt lat="47.70929" lon="2.1297">
        <ele>136</ele>
        <time>2017-01-15T08:46:39.638Z</time>
      </trkpt>
      <trkpt lat="47.70926" lon="2.12985">
        <ele>136</ele>
        <time>2017-01-15T08:46:40.640Z</time>
      </trkpt>
      <trkpt lat="47.70926" lon="2.12985">
        <ele>136</ele>
        <time>2017-01-15T08:46:41.630Z</time>
      </trkpt>
      <trkpt lat="47.70923" lon="2.12999">
        <ele>135</ele>
        <time>2017-01-15T08:46:42.653Z</time>
      </trkpt>
      <trkpt lat="47.70923" lon="2.12999">
        <ele>135</ele>
        <time>2017-01-15T08:46:43.642Z</time>
      </trkpt>
      <trkpt lat="47.7092" lon="2.13013">
        <ele>136</ele>
        <time>2017-01-15T08:46:44.641Z</time>
      </trkpt>
      <trkpt lat="47.70918" lon="2.1302">
        <ele>136</ele>
        <time>2017-01-15T08:46:45.641Z</time>
      </trkpt>
      <trkpt lat="47.70917" lon="2.13028">
        <ele>136</ele>
        <time>2017-01-15T08:46:46.643Z</time>
      </trkpt>
      <trkpt lat="47.70917" lon="2.13028">
        <ele>136</ele>
        <time>2017-01-15T08:46:47.638Z</time>
      </trkpt>
      <trkpt lat="47.70914" lon="2.13043">
        <ele>136</ele>
        <time>2017-01-15T08:46:48.641Z</time>
      </trkpt>
      <trkpt lat="47.70914" lon="2.13043">
        <ele>136</ele>
        <time>2017-01-15T08:46:49.638Z</time>
      </trkpt>
      <trkpt lat="47.70911" lon="2.13058">
        <ele>137</ele>
        <time>2017-01-15T08:46:50.641Z</time>
      </trkpt>
      <trkpt lat="47.70911" lon="2.13058">
        <ele>137</ele>
        <time>2017-01-15T08:46:51.631Z</time>
      </trkpt>
      <trkpt lat="47.70908" lon="2.13072">
        <ele>137</ele>
        <time>2017-01-15T08:46:52.640Z</time>
      </trkpt>
      <trkpt lat="47.70906" lon="2.13079">
        <ele>138</ele>
        <time>2017-01-15T08:46:53.641Z</time>
      </trkpt>
      <trkpt lat="47.70906" lon="2.13079">
        <ele>138</ele>
        <time>2017-01-15T08:46:54.639Z</time>
      </trkpt>
      <trkpt lat="47.70902" lon="2.13093">
        <ele>138</ele>
        <time>2017-01-15T08:46:55.640Z</time>
      </trkpt>
      <trkpt lat="47.70902" lon="2.13093">
        <ele>138</ele>
        <time>2017-01-15T08:46:56.638Z</time>
      </trkpt>
      <trkpt lat="47.70898" lon="2.13108">
        <ele>139</ele>
        <time>2017-01-15T08:46:57.640Z</time>
      </trkpt>
      <trkpt lat="47.70898" lon="2.13108">
        <ele>139</ele>
        <time>2017-01-15T08:46:58.638Z</time>
      </trkpt>
      <trkpt lat="47.70895" lon="2.13123">
        <ele>140</ele>
        <time>2017-01-15T08:46:59.639Z</time>
      </trkpt>
      <trkpt lat="47.70894" lon="2.13131">
        <ele>140</ele>
        <time>2017-01-15T08:47:00.642Z</time>
      </trkpt>
      <trkpt lat="47.70894" lon="2.13131">
        <ele>140</ele>
        <time>2017-01-15T08:47:01.634Z</time>
      </trkpt>
      <trkpt lat="47.70891" lon="2.13148">
        <ele>140</ele>
        <time>2017-01-15T08:47:02.641Z</time>
      </trkpt>
      <trkpt lat="47.70889" lon="2.13156">
        <ele>141</ele>
        <time>2017-01-15T08:47:03.640Z</time>
      </trkpt>
      <trkpt lat="47.70889" lon="2.13156">
        <ele>141</ele>
        <time>2017-01-15T08:47:04.638Z</time>
      </trkpt>
      <trkpt lat="47.70888" lon="2.13174">
        <ele>141</ele>
        <time>2017-01-15T08:47:05.640Z</time>
      </trkpt>
      <trkpt lat="47.70888" lon="2.13183">
        <ele>141</ele>
        <time>2017-01-15T08:47:06.642Z</time>
      </trkpt>
      <trkpt lat="47.70888" lon="2.13183">
        <ele>141</ele>
        <time>2017-01-15T08:47:07.639Z</time>
      </trkpt>
      <trkpt lat="47.70887" lon="2.132">
        <ele>142</ele>
        <time>2017-01-15T08:47:08.639Z</time>
      </trkpt>
      <trkpt lat="47.70887" lon="2.132">
        <ele>142</ele>
        <time>2017-01-15T08:47:09.638Z</time>
      </trkpt>
      <trkpt lat="47.70886" lon="2.13217">
        <ele>142</ele>
        <time>2017-01-15T08:47:10.642Z</time>
      </trkpt>
      <trkpt lat="47.70886" lon="2.13217">
        <ele>142</ele>
        <time>2017-01-15T08:47:11.639Z</time>
      </trkpt>
      <trkpt lat="47.70886" lon="2.13233">
        <ele>142</ele>
        <time>2017-01-15T08:47:12.643Z</time>
      </trkpt>
      <trkpt lat="47.70886" lon="2.13233">
        <ele>142</ele>
        <time>2017-01-15T08:47:13.639Z</time>
      </trkpt>
      <trkpt lat="47.70885" lon="2.1325">
        <ele>143</ele>
        <time>2017-01-15T08:47:14.641Z</time>
      </trkpt>
      <trkpt lat="47.70885" lon="2.1325">
        <ele>143</ele>
        <time>2017-01-15T08:47:15.642Z</time>
      </trkpt>
      <trkpt lat="47.70884" lon="2.13267">
        <ele>143</ele>
        <time>2017-01-15T08:47:16.638Z</time>
      </trkpt>
      <trkpt lat="47.70883" lon="2.13275">
        <ele>143</ele>
        <time>2017-01-15T08:47:17.640Z</time>
      </trkpt>
      <trkpt lat="47.70883" lon="2.13284">
        <ele>143</ele>
        <time>2017-01-15T08:47:18.641Z</time>
      </trkpt>
      <trkpt lat="47.70883" lon="2.13284">
        <ele>143</ele>
        <time>2017-01-15T08:47:19.639Z</time>
      </trkpt>
      <trkpt lat="47.70883" lon="2.13301">
        <ele>143</ele>
        <time>2017-01-15T08:47:20.641Z</time>
      </trkpt>
      <trkpt lat="47.70883" lon="2.13301">
        <ele>143</ele>
        <time>2017-01-15T08:47:21.639Z</time>
      </trkpt>
      <trkpt lat="47.70882" lon="2.13317">
        <ele>144</ele>
        <time>2017-01-15T08:47:22.639Z</time>
      </trkpt>
      <trkpt lat="47.70882" lon="2.13317">
        <ele>144</ele>
        <time>2017-01-15T08:47:23.638Z</time>
      </trkpt>
      <trkpt lat="47.7088" lon="2.13334">
        <ele>144</ele>
        <time>2017-01-15T08:47:24.642Z</time>
      </trkpt>
      <trkpt lat="47.7088" lon="2.13334">
        <ele>144</ele>
        <time>2017-01-15T08:47:25.639Z</time>
      </trkpt>
      <trkpt lat="47.70879" lon="2.13351">
        <ele>144</ele>
        <time>2017-01-15T08:47:26.640Z</time>
      </trkpt>
      <trkpt lat="47.70879" lon="2.13359">
        <ele>144</ele>
        <time>2017-01-15T08:47:27.640Z</time>
      </trkpt>
      <trkpt lat="47.70879" lon="2.13359">
        <ele>144</ele>
        <time>2017-01-15T08:47:28.638Z</time>
      </trkpt>
      <trkpt lat="47.70879" lon="2.13377">
        <ele>145</ele>
        <time>2017-01-15T08:47:29.638Z</time>
      </trkpt>
      <trkpt lat="47.70878" lon="2.13385">
        <ele>145</ele>
        <time>2017-01-15T08:47:30.642Z</time>
      </trkpt>
      <trkpt lat="47.70878" lon="2.13385">
        <ele>145</ele>
        <time>2017-01-15T08:47:31.639Z</time>
      </trkpt>
      <trkpt lat="47.70878" lon="2.13402">
        <ele>145</ele>
        <time>2017-01-15T08:47:32.642Z</time>
      </trkpt>
      <trkpt lat="47.70878" lon="2.13402">
        <ele>145</ele>
        <time>2017-01-15T08:47:33.638Z</time>
      </trkpt>
      <trkpt lat="47.70877" lon="2.13419">
        <ele>145</ele>
        <time>2017-01-15T08:47:34.646Z</time>
      </trkpt>
      <trkpt lat="47.70877" lon="2.13427">
        <ele>145</ele>
        <time>2017-01-15T08:47:35.640Z</time>
      </trkpt>
      <trkpt lat="47.70877" lon="2.13435">
        <ele>145</ele>
        <time>2017-01-15T08:47:36.642Z</time>
      </trkpt>
      <trkpt lat="47.70877" lon="2.13435">
        <ele>145</ele>
        <time>2017-01-15T08:47:37.636Z</time>
      </trkpt>
      <trkpt lat="47.70877" lon="2.13452">
        <ele>144</ele>
        <time>2017-01-15T08:47:38.641Z</time>
      </trkpt>
      <trkpt lat="47.70877" lon="2.13452">
        <ele>144</ele>
        <time>2017-01-15T08:47:39.638Z</time>
      </trkpt>
      <trkpt lat="47.70876" lon="2.1347">
        <ele>143</ele>
        <time>2017-01-15T08:47:40.639Z</time>
      </trkpt>
      <trkpt lat="47.70876" lon="2.1347">
        <ele>143</ele>
        <time>2017-01-15T08:47:41.638Z</time>
      </trkpt>
      <trkpt lat="47.70877" lon="2.13487">
        <ele>142</ele>
        <time>2017-01-15T08:47:42.642Z</time>
      </trkpt>
      <trkpt lat="47.70877" lon="2.13495">
        <ele>142</ele>
        <time>2017-01-15T08:47:43.642Z</time>
      </trkpt>
      <trkpt lat="47.70877" lon="2.13495">
        <ele>142</ele>
        <time>2017-01-15T08:47:44.638Z</time>
      </trkpt>
      <trkpt lat="47.70878" lon="2.13512">
        <ele>141</ele>
        <time>2017-01-15T08:47:45.642Z</time>
      </trkpt>
      <trkpt lat="47.70878" lon="2.13512">
        <ele>141</ele>
        <time>2017-01-15T08:47:46.639Z</time>
      </trkpt>
      <trkpt lat="47.70878" lon="2.13528">
        <ele>140</ele>
        <time>2017-01-15T08:47:47.641Z</time>
      </trkpt>
      <trkpt lat="47.70878" lon="2.13536">
        <ele>140</ele>
        <time>2017-01-15T08:47:48.641Z</time>
      </trkpt>
      <trkpt lat="47.70878" lon="2.13536">
        <ele>140</ele>
        <time>2017-01-15T08:47:49.639Z</time>
      </trkpt>
      <trkpt lat="47.70881" lon="2.13551">
        <ele>139</ele>
        <time>2017-01-15T08:47:50.640Z</time>
      </trkpt>
      <trkpt lat="47.70881" lon="2.13558">
        <ele>139</ele>
        <time>2017-01-15T08:47:51.641Z</time>
      </trkpt>
      <trkpt lat="47.70881" lon="2.13565">
        <ele>139</ele>
        <time>2017-01-15T08:47:52.641Z</time>
      </trkpt>
      <trkpt lat="47.70881" lon="2.13565">
        <ele>139</ele>
        <time>2017-01-15T08:47:53.638Z</time>
      </trkpt>
      <trkpt lat="47.70883" lon="2.13579">
        <ele>138</ele>
        <time>2017-01-15T08:47:54.642Z</time>
      </trkpt>
      <trkpt lat="47.70883" lon="2.13579">
        <ele>138</ele>
        <time>2017-01-15T08:47:55.639Z</time>
      </trkpt>
      <trkpt lat="47.70884" lon="2.13594">
        <ele>138</ele>
        <time>2017-01-15T08:47:56.641Z</time>
      </trkpt>
      <trkpt lat="47.70884" lon="2.13594">
        <ele>138</ele>
        <time>2017-01-15T08:47:57.638Z</time>
      </trkpt>
      <trkpt lat="47.70885" lon="2.13608">
        <ele>138</ele>
        <time>2017-01-15T08:47:58.641Z</time>
      </trkpt>
      <trkpt lat="47.70885" lon="2.13608">
        <ele>138</ele>
        <time>2017-01-15T08:47:59.638Z</time>
      </trkpt>
      <trkpt lat="47.70886" lon="2.13622">
        <ele>138</ele>
        <time>2017-01-15T08:48:00.642Z</time>
      </trkpt>
      <trkpt lat="47.70886" lon="2.13622">
        <ele>138</ele>
        <time>2017-01-15T08:48:01.637Z</time>
      </trkpt>
      <trkpt lat="47.70886" lon="2.13636">
        <ele>137</ele>
        <time>2017-01-15T08:48:02.641Z</time>
      </trkpt>
      <trkpt lat="47.70887" lon="2.13643">
        <ele>136</ele>
        <time>2017-01-15T08:48:03.641Z</time>
      </trkpt>
      <trkpt lat="47.70887" lon="2.13643">
        <ele>136</ele>
        <time>2017-01-15T08:48:04.638Z</time>
      </trkpt>
      <trkpt lat="47.70887" lon="2.13657">
        <ele>136</ele>
        <time>2017-01-15T08:48:05.638Z</time>
      </trkpt>
      <trkpt lat="47.70888" lon="2.13664">
        <ele>135</ele>
        <time>2017-01-15T08:48:06.640Z</time>
      </trkpt>
      <trkpt lat="47.70888" lon="2.13664">
        <ele>135</ele>
        <time>2017-01-15T08:48:07.638Z</time>
      </trkpt>
      <trkpt lat="47.70888" lon="2.13677">
        <ele>135</ele>
        <time>2017-01-15T08:48:08.641Z</time>
      </trkpt>
      <trkpt lat="47.70888" lon="2.13683">
        <ele>134</ele>
        <time>2017-01-15T08:48:09.641Z</time>
      </trkpt>
      <trkpt lat="47.70888" lon="2.13683">
        <ele>134</ele>
        <time>2017-01-15T08:48:10.639Z</time>
      </trkpt>
      <trkpt lat="47.70889" lon="2.13695">
        <ele>133</ele>
        <time>2017-01-15T08:48:11.641Z</time>
      </trkpt>
      <trkpt lat="47.70889" lon="2.13702">
        <ele>133</ele>
        <time>2017-01-15T08:48:12.642Z</time>
      </trkpt>
      <trkpt lat="47.70889" lon="2.13708">
        <ele>132</ele>
        <time>2017-01-15T08:48:13.642Z</time>
      </trkpt>
      <trkpt lat="47.70889" lon="2.13708">
        <ele>132</ele>
        <time>2017-01-15T08:48:14.653Z</time>
      </trkpt>
      <trkpt lat="47.70889" lon="2.13721">
        <ele>132</ele>
        <time>2017-01-15T08:48:15.657Z</time>
      </trkpt>
      <trkpt lat="47.70889" lon="2.13728">
        <ele>131</ele>
        <time>2017-01-15T08:48:16.664Z</time>
      </trkpt>
      <trkpt lat="47.70889" lon="2.13735">
        <ele>131</ele>
        <time>2017-01-15T08:48:17.632Z</time>
      </trkpt>
      <trkpt lat="47.70889" lon="2.13741">
        <ele>131</ele>
        <time>2017-01-15T08:48:18.642Z</time>
      </trkpt>
      <trkpt lat="47.70889" lon="2.13741">
        <ele>131</ele>
        <time>2017-01-15T08:48:19.639Z</time>
      </trkpt>
      <trkpt lat="47.70888" lon="2.13754">
        <ele>130</ele>
        <time>2017-01-15T08:48:20.640Z</time>
      </trkpt>
      <trkpt lat="47.70888" lon="2.13754">
        <ele>130</ele>
        <time>2017-01-15T08:48:21.638Z</time>
      </trkpt>
      <trkpt lat="47.70887" lon="2.13767">
        <ele>130</ele>
        <time>2017-01-15T08:48:22.639Z</time>
      </trkpt>
      <trkpt lat="47.70887" lon="2.13773">
        <ele>130</ele>
        <time>2017-01-15T08:48:23.653Z</time>
      </trkpt>
      <trkpt lat="47.70887" lon="2.13779">
        <ele>130</ele>
        <time>2017-01-15T08:48:24.651Z</time>
      </trkpt>
      <trkpt lat="47.70887" lon="2.13779">
        <ele>130</ele>
        <time>2017-01-15T08:48:25.640Z</time>
      </trkpt>
      <trkpt lat="47.70886" lon="2.13793">
        <ele>130</ele>
        <time>2017-01-15T08:48:26.641Z</time>
      </trkpt>
      <trkpt lat="47.70886" lon="2.13799">
        <ele>130</ele>
        <time>2017-01-15T08:48:27.639Z</time>
      </trkpt>
      <trkpt lat="47.70886" lon="2.13799">
        <ele>130</ele>
        <time>2017-01-15T08:48:28.638Z</time>
      </trkpt>
      <trkpt lat="47.70885" lon="2.13813">
        <ele>129</ele>
        <time>2017-01-15T08:48:29.641Z</time>
      </trkpt>
      <trkpt lat="47.70885" lon="2.1382">
        <ele>129</ele>
        <time>2017-01-15T08:48:30.641Z</time>
      </trkpt>
      <trkpt lat="47.70885" lon="2.1382">
        <ele>129</ele>
        <time>2017-01-15T08:48:31.639Z</time>
      </trkpt>
      <trkpt lat="47.70884" lon="2.13833">
        <ele>129</ele>
        <time>2017-01-15T08:48:32.639Z</time>
      </trkpt>
      <trkpt lat="47.70884" lon="2.1384">
        <ele>129</ele>
        <time>2017-01-15T08:48:33.641Z</time>
      </trkpt>
      <trkpt lat="47.70884" lon="2.1384">
        <ele>129</ele>
        <time>2017-01-15T08:48:34.638Z</time>
      </trkpt>
      <trkpt lat="47.70883" lon="2.13853">
        <ele>128</ele>
        <time>2017-01-15T08:48:35.641Z</time>
      </trkpt>
      <trkpt lat="47.70883" lon="2.13859">
        <ele>128</ele>
        <time>2017-01-15T08:48:36.642Z</time>
      </trkpt>
      <trkpt lat="47.70883" lon="2.13859">
        <ele>128</ele>
        <time>2017-01-15T08:48:37.639Z</time>
      </trkpt>
      <trkpt lat="47.70882" lon="2.13871">
        <ele>128</ele>
        <time>2017-01-15T08:48:38.640Z</time>
      </trkpt>
      <trkpt lat="47.70882" lon="2.13877">
        <ele>127</ele>
        <time>2017-01-15T08:48:39.642Z</time>
      </trkpt>
      <trkpt lat="47.70882" lon="2.13877">
        <ele>127</ele>
        <time>2017-01-15T08:48:40.634Z</time>
      </trkpt>
      <trkpt lat="47.70883" lon="2.13888">
        <ele>127</ele>
        <time>2017-01-15T08:48:41.642Z</time>
      </trkpt>
      <trkpt lat="47.70883" lon="2.13888">
        <ele>127</ele>
        <time>2017-01-15T08:48:42.638Z</time>
      </trkpt>
      <trkpt lat="47.70883" lon="2.13899">
        <ele>127</ele>
        <time>2017-01-15T08:48:43.642Z</time>
      </trkpt>
      <trkpt lat="47.70883" lon="2.13904">
        <ele>127</ele>
        <time>2017-01-15T08:48:44.642Z</time>
      </trkpt>
      <trkpt lat="47.70883" lon="2.13904">
        <ele>127</ele>
        <time>2017-01-15T08:48:45.640Z</time>
      </trkpt>
      <trkpt lat="47.70882" lon="2.13913">
        <ele>127</ele>
        <time>2017-01-15T08:48:46.642Z</time>
      </trkpt>
      <trkpt lat="47.70882" lon="2.13913">
        <ele>127</ele>
        <time>2017-01-15T08:48:47.639Z</time>
      </trkpt>
      <trkpt lat="47.70881" lon="2.13922">
        <ele>127</ele>
        <time>2017-01-15T08:48:48.642Z</time>
      </trkpt>
      <trkpt lat="47.70881" lon="2.13922">
        <ele>127</ele>
        <time>2017-01-15T08:48:49.639Z</time>
      </trkpt>
      <trkpt lat="47.7088" lon="2.13931">
        <ele>127</ele>
        <time>2017-01-15T08:48:50.638Z</time>
      </trkpt>
      <trkpt lat="47.7088" lon="2.13931">
        <ele>127</ele>
        <time>2017-01-15T08:48:51.639Z</time>
      </trkpt>
      <trkpt lat="47.7088" lon="2.13941">
        <ele>126</ele>
        <time>2017-01-15T08:48:52.655Z</time>
      </trkpt>
      <trkpt lat="47.70879" lon="2.13946">
        <ele>126</ele>
        <time>2017-01-15T08:48:53.646Z</time>
      </trkpt>
      <trkpt lat="47.70879" lon="2.13946">
        <ele>126</ele>
        <time>2017-01-15T08:48:54.645Z</time>
      </trkpt>
      <trkpt lat="47.70878" lon="2.13956">
        <ele>126</ele>
        <time>2017-01-15T08:48:55.641Z</time>
      </trkpt>
      <trkpt lat="47.70878" lon="2.1396">
        <ele>125</ele>
        <time>2017-01-15T08:48:56.641Z</time>
      </trkpt>
      <trkpt lat="47.70878" lon="2.1396">
        <ele>125</ele>
        <time>2017-01-15T08:48:57.640Z</time>
      </trkpt>
      <trkpt lat="47.70878" lon="2.1397">
        <ele>126</ele>
        <time>2017-01-15T08:48:58.642Z</time>
      </trkpt>
      <trkpt lat="47.70878" lon="2.1397">
        <ele>126</ele>
        <time>2017-01-15T08:48:59.639Z</time>
      </trkpt>
      <trkpt lat="47.70878" lon="2.13978">
        <ele>126</ele>
        <time>2017-01-15T08:49:00.640Z</time>
      </trkpt>
      <trkpt lat="47.70878" lon="2.13978">
        <ele>126</ele>
        <time>2017-01-15T08:49:01.640Z</time>
      </trkpt>
      <trkpt lat="47.70878" lon="2.13985">
        <ele>126</ele>
        <time>2017-01-15T08:49:02.644Z</time>
      </trkpt>
      <trkpt lat="47.70878" lon="2.13985">
        <ele>126</ele>
        <time>2017-01-15T08:49:03.640Z</time>
      </trkpt>
      <trkpt lat="47.70879" lon="2.13993">
        <ele>126</ele>
        <time>2017-01-15T08:49:04.639Z</time>
      </trkpt>
      <trkpt lat="47.70879" lon="2.13996">
        <ele>126</ele>
        <time>2017-01-15T08:49:05.643Z</time>
      </trkpt>
      <trkpt lat="47.70879" lon="2.13996">
        <ele>126</ele>
        <time>2017-01-15T08:49:06.640Z</time>
      </trkpt>
      <trkpt lat="47.70878" lon="2.14004">
        <ele>127</ele>
        <time>2017-01-15T08:49:07.642Z</time>
      </trkpt>
      <trkpt lat="47.70877" lon="2.14007">
        <ele>127</ele>
        <time>2017-01-15T08:49:08.642Z</time>
      </trkpt>
      <trkpt lat="47.70877" lon="2.14007">
        <ele>127</ele>
        <time>2017-01-15T08:49:09.638Z</time>
      </trkpt>
      <trkpt lat="47.70876" lon="2.14012">
        <ele>127</ele>
        <time>2017-01-15T08:49:10.642Z</time>
      </trkpt>
      <trkpt lat="47.70876" lon="2.14014">
        <ele>127</ele>
        <time>2017-01-15T08:49:11.643Z</time>
      </trkpt>
      <trkpt lat="47.70876" lon="2.14014">
        <ele>127</ele>
        <time>2017-01-15T08:49:12.645Z</time>
      </trkpt>
      <trkpt lat="47.70877" lon="2.14014">
        <ele>127</ele>
        <time>2017-01-15T08:49:13.643Z</time>
      </trkpt>
      <trkpt lat="47.70877" lon="2.14014">
        <ele>127</ele>
        <time>2017-01-15T08:49:14.628Z</time>
      </trkpt>
      <trkpt lat="47.70877" lon="2.14014">
        <ele>127</ele>
        <time>2017-01-15T08:49:15.660Z</time>
      </trkpt>
      <trkpt lat="47.70876" lon="2.14026">
        <ele>122</ele>
        <time>2017-01-15T08:49:16.630Z</time>
      </trkpt>
      <trkpt lat="47.70876" lon="2.14026">
        <ele>122</ele>
        <time>2017-01-15T08:49:17.632Z</time>
      </trkpt>
      <trkpt lat="47.70876" lon="2.14035">
        <ele>122</ele>
        <time>2017-01-15T08:49:18.638Z</time>
      </trkpt>
      <trkpt lat="47.70876" lon="2.14035">
        <ele>122</ele>
        <time>2017-01-15T08:49:19.633Z</time>
      </trkpt>
      <trkpt lat="47.70876" lon="2.14047">
        <ele>122</ele>
        <time>2017-01-15T08:49:20.634Z</time>
      </trkpt>
      <trkpt lat="47.70876" lon="2.14047">
        <ele>122</ele>
        <time>2017-01-15T08:49:21.629Z</time>
      </trkpt>
      <trkpt lat="47.70875" lon="2.1406">
        <ele>122</ele>
        <time>2017-01-15T08:49:22.635Z</time>
      </trkpt>
      <trkpt lat="47.70875" lon="2.1406">
        <ele>122</ele>
        <time>2017-01-15T08:49:23.633Z</time>
      </trkpt>
      <trkpt lat="47.70875" lon="2.14073">
        <ele>122</ele>
        <time>2017-01-15T08:49:24.630Z</time>
      </trkpt>
      <trkpt lat="47.70875" lon="2.14073">
        <ele>122</ele>
        <time>2017-01-15T08:49:25.636Z</time>
      </trkpt>
      <trkpt lat="47.70875" lon="2.14087">
        <ele>122</ele>
        <time>2017-01-15T08:49:26.631Z</time>
      </trkpt>
      <trkpt lat="47.70875" lon="2.14087">
        <ele>122</ele>
        <time>2017-01-15T08:49:27.666Z</time>
      </trkpt>
      <trkpt lat="47.70876" lon="2.141">
        <ele>123</ele>
        <time>2017-01-15T08:49:28.668Z</time>
      </trkpt>
      <trkpt lat="47.70877" lon="2.14107">
        <ele>123</ele>
        <time>2017-01-15T08:49:29.667Z</time>
      </trkpt>
      <trkpt lat="47.70877" lon="2.14107">
        <ele>123</ele>
        <time>2017-01-15T08:49:30.665Z</time>
      </trkpt>
      <trkpt lat="47.70878" lon="2.14121">
        <ele>124</ele>
        <time>2017-01-15T08:49:31.629Z</time>
      </trkpt>
      <trkpt lat="47.70878" lon="2.14121">
        <ele>124</ele>
        <time>2017-01-15T08:49:32.629Z</time>
      </trkpt>
      <trkpt lat="47.70879" lon="2.14134">
        <ele>125</ele>
        <time>2017-01-15T08:49:33.629Z</time>
      </trkpt>
      <trkpt lat="47.70879" lon="2.14134">
        <ele>125</ele>
        <time>2017-01-15T08:49:34.665Z</time>
      </trkpt>
      <trkpt lat="47.7088" lon="2.14148">
        <ele>125</ele>
        <time>2017-01-15T08:49:35.665Z</time>
      </trkpt>
      <trkpt lat="47.7088" lon="2.14155">
        <ele>126</ele>
        <time>2017-01-15T08:49:36.628Z</time>
      </trkpt>
      <trkpt lat="47.7088" lon="2.14155">
        <ele>126</ele>
        <time>2017-01-15T08:49:37.630Z</time>
      </trkpt>
      <trkpt lat="47.70881" lon="2.14169">
        <ele>127</ele>
        <time>2017-01-15T08:49:38.640Z</time>
      </trkpt>
      <trkpt lat="47.70881" lon="2.14176">
        <ele>128</ele>
        <time>2017-01-15T08:49:39.637Z</time>
      </trkpt>
      <trkpt lat="47.70881" lon="2.14183">
        <ele>128</ele>
        <time>2017-01-15T08:49:40.633Z</time>
      </trkpt>
      <trkpt lat="47.70881" lon="2.14183">
        <ele>128</ele>
        <time>2017-01-15T08:49:41.666Z</time>
      </trkpt>
      <trkpt lat="47.70881" lon="2.14198">
        <ele>129</ele>
        <time>2017-01-15T08:49:42.667Z</time>
      </trkpt>
      <trkpt lat="47.70881" lon="2.14198">
        <ele>129</ele>
        <time>2017-01-15T08:49:43.666Z</time>
      </trkpt>
      <trkpt lat="47.70884" lon="2.14212">
        <ele>129</ele>
        <time>2017-01-15T08:49:44.628Z</time>
      </trkpt>
      <trkpt lat="47.70884" lon="2.14212">
        <ele>129</ele>
        <time>2017-01-15T08:49:45.665Z</time>
      </trkpt>
      <trkpt lat="47.70885" lon="2.14228">
        <ele>130</ele>
        <time>2017-01-15T08:49:46.665Z</time>
      </trkpt>
      <trkpt lat="47.70886" lon="2.14236">
        <ele>130</ele>
        <time>2017-01-15T08:49:47.666Z</time>
      </trkpt>
      <trkpt lat="47.70886" lon="2.14236">
        <ele>130</ele>
        <time>2017-01-15T08:49:48.667Z</time>
      </trkpt>
      <trkpt lat="47.70887" lon="2.14253">
        <ele>130</ele>
        <time>2017-01-15T08:49:49.662Z</time>
      </trkpt>
      <trkpt lat="47.70887" lon="2.14253">
        <ele>130</ele>
        <time>2017-01-15T08:49:50.665Z</time>
      </trkpt>
      <trkpt lat="47.70889" lon="2.1427">
        <ele>130</ele>
        <time>2017-01-15T08:49:51.667Z</time>
      </trkpt>
      <trkpt lat="47.7089" lon="2.14278">
        <ele>131</ele>
        <time>2017-01-15T08:49:52.666Z</time>
      </trkpt>
      <trkpt lat="47.7089" lon="2.14278">
        <ele>131</ele>
        <time>2017-01-15T08:49:53.664Z</time>
      </trkpt>
      <trkpt lat="47.70891" lon="2.14294">
        <ele>131</ele>
        <time>2017-01-15T08:49:54.628Z</time>
      </trkpt>
      <trkpt lat="47.70892" lon="2.14302">
        <ele>131</ele>
        <time>2017-01-15T08:49:55.665Z</time>
      </trkpt>
      <trkpt lat="47.70892" lon="2.14302">
        <ele>131</ele>
        <time>2017-01-15T08:49:56.664Z</time>
      </trkpt>
      <trkpt lat="47.70894" lon="2.14319">
        <ele>131</ele>
        <time>2017-01-15T08:49:57.665Z</time>
      </trkpt>
      <trkpt lat="47.70894" lon="2.14319">
        <ele>131</ele>
        <time>2017-01-15T08:49:58.665Z</time>
      </trkpt>
      <trkpt lat="47.70895" lon="2.14335">
        <ele>132</ele>
        <time>2017-01-15T08:49:59.629Z</time>
      </trkpt>
      <trkpt lat="47.70895" lon="2.14335">
        <ele>132</ele>
        <time>2017-01-15T08:50:00.665Z</time>
      </trkpt>
      <trkpt lat="47.70896" lon="2.14351">
        <ele>132</ele>
        <time>2017-01-15T08:50:01.666Z</time>
      </trkpt>
      <trkpt lat="47.70896" lon="2.14351">
        <ele>132</ele>
        <time>2017-01-15T08:50:02.664Z</time>
      </trkpt>
      <trkpt lat="47.70897" lon="2.14366">
        <ele>132</ele>
        <time>2017-01-15T08:50:03.665Z</time>
      </trkpt>
      <trkpt lat="47.70897" lon="2.14374">
        <ele>132</ele>
        <time>2017-01-15T08:50:04.668Z</time>
      </trkpt>
      <trkpt lat="47.70897" lon="2.14374">
        <ele>132</ele>
        <time>2017-01-15T08:50:05.665Z</time>
      </trkpt>
      <trkpt lat="47.70899" lon="2.1439">
        <ele>132</ele>
        <time>2017-01-15T08:50:06.667Z</time>
      </trkpt>
      <trkpt lat="47.70899" lon="2.1439">
        <ele>132</ele>
        <time>2017-01-15T08:50:07.665Z</time>
      </trkpt>
      <trkpt lat="47.70901" lon="2.14405">
        <ele>133</ele>
        <time>2017-01-15T08:50:08.630Z</time>
      </trkpt>
      <trkpt lat="47.70901" lon="2.14405">
        <ele>133</ele>
        <time>2017-01-15T08:50:09.664Z</time>
      </trkpt>
      <trkpt lat="47.70902" lon="2.1442">
        <ele>133</ele>
        <time>2017-01-15T08:50:10.665Z</time>
      </trkpt>
      <trkpt lat="47.70902" lon="2.14428">
        <ele>134</ele>
        <time>2017-01-15T08:50:11.666Z</time>
      </trkpt>
      <trkpt lat="47.70902" lon="2.14428">
        <ele>134</ele>
        <time>2017-01-15T08:50:12.664Z</time>
      </trkpt>
      <trkpt lat="47.70904" lon="2.14443">
        <ele>134</ele>
        <time>2017-01-15T08:50:13.645Z</time>
      </trkpt>
      <trkpt lat="47.70904" lon="2.14451">
        <ele>134</ele>
        <time>2017-01-15T08:50:14.631Z</time>
      </trkpt>
      <trkpt lat="47.70904" lon="2.14451">
        <ele>134</ele>
        <time>2017-01-15T08:50:15.664Z</time>
      </trkpt>
      <trkpt lat="47.70905" lon="2.14467">
        <ele>134</ele>
        <time>2017-01-15T08:50:16.666Z</time>
      </trkpt>
      <trkpt lat="47.70905" lon="2.14467">
        <ele>134</ele>
        <time>2017-01-15T08:50:17.664Z</time>
      </trkpt>
      <trkpt lat="47.70905" lon="2.14483">
        <ele>134</ele>
        <time>2017-01-15T08:50:18.651Z</time>
      </trkpt>
      <trkpt lat="47.70905" lon="2.14483">
        <ele>134</ele>
        <time>2017-01-15T08:50:19.633Z</time>
      </trkpt>
      <trkpt lat="47.70906" lon="2.14499">
        <ele>135</ele>
        <time>2017-01-15T08:50:20.666Z</time>
      </trkpt>
      <trkpt lat="47.70906" lon="2.14499">
        <ele>135</ele>
        <time>2017-01-15T08:50:21.664Z</time>
      </trkpt>
      <trkpt lat="47.70907" lon="2.14514">
        <ele>136</ele>
        <time>2017-01-15T08:50:22.667Z</time>
      </trkpt>
      <trkpt lat="47.70907" lon="2.14514">
        <ele>136</ele>
        <time>2017-01-15T08:50:23.664Z</time>
      </trkpt>
      <trkpt lat="47.70908" lon="2.14529">
        <ele>137</ele>
        <time>2017-01-15T08:50:24.667Z</time>
      </trkpt>
      <trkpt lat="47.70908" lon="2.14537">
        <ele>137</ele>
        <time>2017-01-15T08:50:25.665Z</time>
      </trkpt>
      <trkpt lat="47.70908" lon="2.14537">
        <ele>137</ele>
        <time>2017-01-15T08:50:26.664Z</time>
      </trkpt>
      <trkpt lat="47.70908" lon="2.14553">
        <ele>137</ele>
        <time>2017-01-15T08:50:27.667Z</time>
      </trkpt>
      <trkpt lat="47.70908" lon="2.14553">
        <ele>137</ele>
        <time>2017-01-15T08:50:28.666Z</time>
      </trkpt>
      <trkpt lat="47.70909" lon="2.14568">
        <ele>138</ele>
        <time>2017-01-15T08:50:29.667Z</time>
      </trkpt>
      <trkpt lat="47.70909" lon="2.14568">
        <ele>138</ele>
        <time>2017-01-15T08:50:30.665Z</time>
      </trkpt>
      <trkpt lat="47.7091" lon="2.14585">
        <ele>139</ele>
        <time>2017-01-15T08:50:31.636Z</time>
      </trkpt>
      <trkpt lat="47.7091" lon="2.14593">
        <ele>139</ele>
        <time>2017-01-15T08:50:32.630Z</time>
      </trkpt>
      <trkpt lat="47.7091" lon="2.14593">
        <ele>139</ele>
        <time>2017-01-15T08:50:33.663Z</time>
      </trkpt>
      <trkpt lat="47.70911" lon="2.14608">
        <ele>140</ele>
        <time>2017-01-15T08:50:34.664Z</time>
      </trkpt>
      <trkpt lat="47.70912" lon="2.14616">
        <ele>140</ele>
        <time>2017-01-15T08:50:35.666Z</time>
      </trkpt>
      <trkpt lat="47.70912" lon="2.14616">
        <ele>140</ele>
        <time>2017-01-15T08:50:36.667Z</time>
      </trkpt>
      <trkpt lat="47.70913" lon="2.14632">
        <ele>140</ele>
        <time>2017-01-15T08:50:37.666Z</time>
      </trkpt>
      <trkpt lat="47.70914" lon="2.14639">
        <ele>140</ele>
        <time>2017-01-15T08:50:38.636Z</time>
      </trkpt>
      <trkpt lat="47.70914" lon="2.14639">
        <ele>140</ele>
        <time>2017-01-15T08:50:39.664Z</time>
      </trkpt>
      <trkpt lat="47.70915" lon="2.14654">
        <ele>141</ele>
        <time>2017-01-15T08:50:40.666Z</time>
      </trkpt>
      <trkpt lat="47.70915" lon="2.14654">
        <ele>141</ele>
        <time>2017-01-15T08:50:41.663Z</time>
      </trkpt>
      <trkpt lat="47.70917" lon="2.1467">
        <ele>141</ele>
        <time>2017-01-15T08:50:42.667Z</time>
      </trkpt>
      <trkpt lat="47.70917" lon="2.1467">
        <ele>141</ele>
        <time>2017-01-15T08:50:43.665Z</time>
      </trkpt>
      <trkpt lat="47.70918" lon="2.14687">
        <ele>140</ele>
        <time>2017-01-15T08:50:44.667Z</time>
      </trkpt>
      <trkpt lat="47.70918" lon="2.14687">
        <ele>140</ele>
        <time>2017-01-15T08:50:45.663Z</time>
      </trkpt>
      <trkpt lat="47.7092" lon="2.14703">
        <ele>140</ele>
        <time>2017-01-15T08:50:46.666Z</time>
      </trkpt>
      <trkpt lat="47.7092" lon="2.14703">
        <ele>140</ele>
        <time>2017-01-15T08:50:47.664Z</time>
      </trkpt>
      <trkpt lat="47.70921" lon="2.14719">
        <ele>140</ele>
        <time>2017-01-15T08:50:48.667Z</time>
      </trkpt>
      <trkpt lat="47.70921" lon="2.14719">
        <ele>140</ele>
        <time>2017-01-15T08:50:49.666Z</time>
      </trkpt>
      <trkpt lat="47.70921" lon="2.14734">
        <ele>140</ele>
        <time>2017-01-15T08:50:50.665Z</time>
      </trkpt>
      <trkpt lat="47.70921" lon="2.14741">
        <ele>139</ele>
        <time>2017-01-15T08:50:51.665Z</time>
      </trkpt>
      <trkpt lat="47.70921" lon="2.14741">
        <ele>139</ele>
        <time>2017-01-15T08:50:52.664Z</time>
      </trkpt>
      <trkpt lat="47.70921" lon="2.14757">
        <ele>139</ele>
        <time>2017-01-15T08:50:53.667Z</time>
      </trkpt>
      <trkpt lat="47.70921" lon="2.14757">
        <ele>139</ele>
        <time>2017-01-15T08:50:54.664Z</time>
      </trkpt>
      <trkpt lat="47.70922" lon="2.14772">
        <ele>139</ele>
        <time>2017-01-15T08:50:55.666Z</time>
      </trkpt>
      <trkpt lat="47.70922" lon="2.14772">
        <ele>139</ele>
        <time>2017-01-15T08:50:56.630Z</time>
      </trkpt>
      <trkpt lat="47.70924" lon="2.14787">
        <ele>138</ele>
        <time>2017-01-15T08:50:57.667Z</time>
      </trkpt>
      <trkpt lat="47.70924" lon="2.14787">
        <ele>138</ele>
        <time>2017-01-15T08:50:58.629Z</time>
      </trkpt>
      <trkpt lat="47.70924" lon="2.14803">
        <ele>137</ele>
        <time>2017-01-15T08:50:59.666Z</time>
      </trkpt>
      <trkpt lat="47.70924" lon="2.14803">
        <ele>137</ele>
        <time>2017-01-15T08:51:00.665Z</time>
      </trkpt>
      <trkpt lat="47.70924" lon="2.14819">
        <ele>135</ele>
        <time>2017-01-15T08:51:01.667Z</time>
      </trkpt>
      <trkpt lat="47.70924" lon="2.14819">
        <ele>135</ele>
        <time>2017-01-15T08:51:02.646Z</time>
      </trkpt>
      <trkpt lat="47.70925" lon="2.14835">
        <ele>135</ele>
        <time>2017-01-15T08:51:03.637Z</time>
      </trkpt>
      <trkpt lat="47.70925" lon="2.14835">
        <ele>135</ele>
        <time>2017-01-15T08:51:04.628Z</time>
      </trkpt>
      <trkpt lat="47.70925" lon="2.14852">
        <ele>135</ele>
        <time>2017-01-15T08:51:05.666Z</time>
      </trkpt>
      <trkpt lat="47.70925" lon="2.14852">
        <ele>135</ele>
        <time>2017-01-15T08:51:06.665Z</time>
      </trkpt>
      <trkpt lat="47.70926" lon="2.14868">
        <ele>135</ele>
        <time>2017-01-15T08:51:07.666Z</time>
      </trkpt>
      <trkpt lat="47.70926" lon="2.14868">
        <ele>135</ele>
        <time>2017-01-15T08:51:08.664Z</time>
      </trkpt>
      <trkpt lat="47.70927" lon="2.14883">
        <ele>134</ele>
        <time>2017-01-15T08:51:09.666Z</time>
      </trkpt>
      <trkpt lat="47.70928" lon="2.14891">
        <ele>134</ele>
        <time>2017-01-15T08:51:10.663Z</time>
      </trkpt>
      <trkpt lat="47.70928" lon="2.14891">
        <ele>134</ele>
        <time>2017-01-15T08:51:11.663Z</time>
      </trkpt>
      <trkpt lat="47.70928" lon="2.14906">
        <ele>133</ele>
        <time>2017-01-15T08:51:12.628Z</time>
      </trkpt>
      <trkpt lat="47.70928" lon="2.14906">
        <ele>133</ele>
        <time>2017-01-15T08:51:13.664Z</time>
      </trkpt>
      <trkpt lat="47.70928" lon="2.14922">
        <ele>133</ele>
        <time>2017-01-15T08:51:14.664Z</time>
      </trkpt>
      <trkpt lat="47.70928" lon="2.14931">
        <ele>133</ele>
        <time>2017-01-15T08:51:15.666Z</time>
      </trkpt>
      <trkpt lat="47.70927" lon="2.14938">
        <ele>133</ele>
        <time>2017-01-15T08:51:16.663Z</time>
      </trkpt>
      <trkpt lat="47.70927" lon="2.14938">
        <ele>133</ele>
        <time>2017-01-15T08:51:17.667Z</time>
      </trkpt>
      <trkpt lat="47.70927" lon="2.14954">
        <ele>134</ele>
        <time>2017-01-15T08:51:18.667Z</time>
      </trkpt>
      <trkpt lat="47.70927" lon="2.14954">
        <ele>134</ele>
        <time>2017-01-15T08:51:19.664Z</time>
      </trkpt>
      <trkpt lat="47.70924" lon="2.14971">
        <ele>134</ele>
        <time>2017-01-15T08:51:20.667Z</time>
      </trkpt>
      <trkpt lat="47.70922" lon="2.14978">
        <ele>133</ele>
        <time>2017-01-15T08:51:21.663Z</time>
      </trkpt>
      <trkpt lat="47.70922" lon="2.14978">
        <ele>133</ele>
        <time>2017-01-15T08:51:22.666Z</time>
      </trkpt>
      <trkpt lat="47.70919" lon="2.14994">
        <ele>133</ele>
        <time>2017-01-15T08:51:23.666Z</time>
      </trkpt>
      <trkpt lat="47.70919" lon="2.14994">
        <ele>133</ele>
        <time>2017-01-15T08:51:24.665Z</time>
      </trkpt>
      <trkpt lat="47.70915" lon="2.1501">
        <ele>133</ele>
        <time>2017-01-15T08:51:25.628Z</time>
      </trkpt>
      <trkpt lat="47.70915" lon="2.1501">
        <ele>133</ele>
        <time>2017-01-15T08:51:26.663Z</time>
      </trkpt>
      <trkpt lat="47.7091" lon="2.15025">
        <ele>133</ele>
        <time>2017-01-15T08:51:27.667Z</time>
      </trkpt>
      <trkpt lat="47.7091" lon="2.15025">
        <ele>133</ele>
        <time>2017-01-15T08:51:28.664Z</time>
      </trkpt>
      <trkpt lat="47.70906" lon="2.1504">
        <ele>132</ele>
        <time>2017-01-15T08:51:29.663Z</time>
      </trkpt>
      <trkpt lat="47.70903" lon="2.15047">
        <ele>132</ele>
        <time>2017-01-15T08:51:30.628Z</time>
      </trkpt>
      <trkpt lat="47.70903" lon="2.15047">
        <ele>132</ele>
        <time>2017-01-15T08:51:31.663Z</time>
      </trkpt>
      <trkpt lat="47.70897" lon="2.15059">
        <ele>131</ele>
        <time>2017-01-15T08:51:32.667Z</time>
      </trkpt>
      <trkpt lat="47.70897" lon="2.15059">
        <ele>131</ele>
        <time>2017-01-15T08:51:33.663Z</time>
      </trkpt>
      <trkpt lat="47.70888" lon="2.1507">
        <ele>130</ele>
        <time>2017-01-15T08:51:34.667Z</time>
      </trkpt>
      <trkpt lat="47.70888" lon="2.1507">
        <ele>130</ele>
        <time>2017-01-15T08:51:35.636Z</time>
      </trkpt>
      <trkpt lat="47.70879" lon="2.15078">
        <ele>127</ele>
        <time>2017-01-15T08:51:36.667Z</time>
      </trkpt>
      <trkpt lat="47.70874" lon="2.15082">
        <ele>127</ele>
        <time>2017-01-15T08:51:37.667Z</time>
      </trkpt>
      <trkpt lat="47.70874" lon="2.15082">
        <ele>127</ele>
        <time>2017-01-15T08:51:38.664Z</time>
      </trkpt>
      <trkpt lat="47.70865" lon="2.15089">
        <ele>125</ele>
        <time>2017-01-15T08:51:39.663Z</time>
      </trkpt>
      <trkpt lat="47.70861" lon="2.15094">
        <ele>125</ele>
        <time>2017-01-15T08:51:40.666Z</time>
      </trkpt>
      <trkpt lat="47.70861" lon="2.15094">
        <ele>125</ele>
        <time>2017-01-15T08:51:41.664Z</time>
      </trkpt>
      <trkpt lat="47.70854" lon="2.15106">
        <ele>125</ele>
        <time>2017-01-15T08:51:42.667Z</time>
      </trkpt>
      <trkpt lat="47.70854" lon="2.15106">
        <ele>125</ele>
        <time>2017-01-15T08:51:43.664Z</time>
      </trkpt>
      <trkpt lat="47.70849" lon="2.15121">
        <ele>125</ele>
        <time>2017-01-15T08:51:44.665Z</time>
      </trkpt>
      <trkpt lat="47.70847" lon="2.15128">
        <ele>125</ele>
        <time>2017-01-15T08:51:45.667Z</time>
      </trkpt>
      <trkpt lat="47.70847" lon="2.15128">
        <ele>125</ele>
        <time>2017-01-15T08:51:46.663Z</time>
      </trkpt>
      <trkpt lat="47.70846" lon="2.15144">
        <ele>126</ele>
        <time>2017-01-15T08:51:47.667Z</time>
      </trkpt>
      <trkpt lat="47.70846" lon="2.15144">
        <ele>126</ele>
        <time>2017-01-15T08:51:48.665Z</time>
      </trkpt>
      <trkpt lat="47.70847" lon="2.15159">
        <ele>126</ele>
        <time>2017-01-15T08:51:49.659Z</time>
      </trkpt>
      <trkpt lat="47.70848" lon="2.15168">
        <ele>126</ele>
        <time>2017-01-15T08:51:50.666Z</time>
      </trkpt>
      <trkpt lat="47.70848" lon="2.15168">
        <ele>126</ele>
        <time>2017-01-15T08:51:51.664Z</time>
      </trkpt>
      <trkpt lat="47.70849" lon="2.15183">
        <ele>128</ele>
        <time>2017-01-15T08:51:52.632Z</time>
      </trkpt>
      <trkpt lat="47.70849" lon="2.15183">
        <ele>128</ele>
        <time>2017-01-15T08:51:53.664Z</time>
      </trkpt>
      <trkpt lat="47.70851" lon="2.15199">
        <ele>129</ele>
        <time>2017-01-15T08:51:54.667Z</time>
      </trkpt>
      <trkpt lat="47.70851" lon="2.15199">
        <ele>129</ele>
        <time>2017-01-15T08:51:55.665Z</time>
      </trkpt>
      <trkpt lat="47.70852" lon="2.15215">
        <ele>129</ele>
        <time>2017-01-15T08:51:56.666Z</time>
      </trkpt>
      <trkpt lat="47.70852" lon="2.15215">
        <ele>129</ele>
        <time>2017-01-15T08:51:57.664Z</time>
      </trkpt>
      <trkpt lat="47.70853" lon="2.15231">
        <ele>131</ele>
        <time>2017-01-15T08:51:58.664Z</time>
      </trkpt>
      <trkpt lat="47.70853" lon="2.15231">
        <ele>131</ele>
        <time>2017-01-15T08:51:59.656Z</time>
      </trkpt>
      <trkpt lat="47.70854" lon="2.15247">
        <ele>132</ele>
        <time>2017-01-15T08:52:00.641Z</time>
      </trkpt>
      <trkpt lat="47.70854" lon="2.15247">
        <ele>132</ele>
        <time>2017-01-15T08:52:01.644Z</time>
      </trkpt>
      <trkpt lat="47.70855" lon="2.15264">
        <ele>132</ele>
        <time>2017-01-15T08:52:02.634Z</time>
      </trkpt>
      <trkpt lat="47.70855" lon="2.15272">
        <ele>133</ele>
        <time>2017-01-15T08:52:03.667Z</time>
      </trkpt>
      <trkpt lat="47.70856" lon="2.15279">
        <ele>134</ele>
        <time>2017-01-15T08:52:04.664Z</time>
      </trkpt>
      <trkpt lat="47.70856" lon="2.15279">
        <ele>134</ele>
        <time>2017-01-15T08:52:05.664Z</time>
      </trkpt>
      <trkpt lat="47.70856" lon="2.15296">
        <ele>134</ele>
        <time>2017-01-15T08:52:06.628Z</time>
      </trkpt>
      <trkpt lat="47.70856" lon="2.15296">
        <ele>134</ele>
        <time>2017-01-15T08:52:07.664Z</time>
      </trkpt>
      <trkpt lat="47.70857" lon="2.15313">
        <ele>135</ele>
        <time>2017-01-15T08:52:08.667Z</time>
      </trkpt>
      <trkpt lat="47.70857" lon="2.15313">
        <ele>135</ele>
        <time>2017-01-15T08:52:09.666Z</time>
      </trkpt>
      <trkpt lat="47.70858" lon="2.15329">
        <ele>134</ele>
        <time>2017-01-15T08:52:10.667Z</time>
      </trkpt>
      <trkpt lat="47.70858" lon="2.15329">
        <ele>134</ele>
        <time>2017-01-15T08:52:11.664Z</time>
      </trkpt>
      <trkpt lat="47.7086" lon="2.15345">
        <ele>134</ele>
        <time>2017-01-15T08:52:12.666Z</time>
      </trkpt>
      <trkpt lat="47.7086" lon="2.15345">
        <ele>134</ele>
        <time>2017-01-15T08:52:13.664Z</time>
      </trkpt>
      <trkpt lat="47.70862" lon="2.15361">
        <ele>134</ele>
        <time>2017-01-15T08:52:14.638Z</time>
      </trkpt>
      <trkpt lat="47.70862" lon="2.15361">
        <ele>134</ele>
        <time>2017-01-15T08:52:15.664Z</time>
      </trkpt>
      <trkpt lat="47.70864" lon="2.15378">
        <ele>134</ele>
        <time>2017-01-15T08:52:16.666Z</time>
      </trkpt>
      <trkpt lat="47.70864" lon="2.15378">
        <ele>134</ele>
        <time>2017-01-15T08:52:17.665Z</time>
      </trkpt>
      <trkpt lat="47.70866" lon="2.15393">
        <ele>134</ele>
        <time>2017-01-15T08:52:18.629Z</time>
      </trkpt>
      <trkpt lat="47.70867" lon="2.15401">
        <ele>134</ele>
        <time>2017-01-15T08:52:19.628Z</time>
      </trkpt>
      <trkpt lat="47.70867" lon="2.15401">
        <ele>134</ele>
        <time>2017-01-15T08:52:20.665Z</time>
      </trkpt>
      <trkpt lat="47.70869" lon="2.15417">
        <ele>134</ele>
        <time>2017-01-15T08:52:21.666Z</time>
      </trkpt>
      <trkpt lat="47.70869" lon="2.15417">
        <ele>134</ele>
        <time>2017-01-15T08:52:22.664Z</time>
      </trkpt>
      <trkpt lat="47.70871" lon="2.15434">
        <ele>134</ele>
        <time>2017-01-15T08:52:23.665Z</time>
      </trkpt>
      <trkpt lat="47.70872" lon="2.15442">
        <ele>134</ele>
        <time>2017-01-15T08:52:24.665Z</time>
      </trkpt>
      <trkpt lat="47.70872" lon="2.15442">
        <ele>134</ele>
        <time>2017-01-15T08:52:25.664Z</time>
      </trkpt>
      <trkpt lat="47.70875" lon="2.15458">
        <ele>135</ele>
        <time>2017-01-15T08:52:26.664Z</time>
      </trkpt>
      <trkpt lat="47.70875" lon="2.15458">
        <ele>135</ele>
        <time>2017-01-15T08:52:27.664Z</time>
      </trkpt>
      <trkpt lat="47.70877" lon="2.15474">
        <ele>135</ele>
        <time>2017-01-15T08:52:28.666Z</time>
      </trkpt>
      <trkpt lat="47.70878" lon="2.15482">
        <ele>136</ele>
        <time>2017-01-15T08:52:29.629Z</time>
      </trkpt>
      <trkpt lat="47.70878" lon="2.15482">
        <ele>136</ele>
        <time>2017-01-15T08:52:30.639Z</time>
      </trkpt>
      <trkpt lat="47.7088" lon="2.15499">
        <ele>136</ele>
        <time>2017-01-15T08:52:31.628Z</time>
      </trkpt>
      <trkpt lat="47.7088" lon="2.15499">
        <ele>136</ele>
        <time>2017-01-15T08:52:32.664Z</time>
      </trkpt>
      <trkpt lat="47.70881" lon="2.15515">
        <ele>137</ele>
        <time>2017-01-15T08:52:33.666Z</time>
      </trkpt>
      <trkpt lat="47.70881" lon="2.15515">
        <ele>137</ele>
        <time>2017-01-15T08:52:34.664Z</time>
      </trkpt>
      <trkpt lat="47.70883" lon="2.15531">
        <ele>137</ele>
        <time>2017-01-15T08:52:35.666Z</time>
      </trkpt>
      <trkpt lat="47.70883" lon="2.15531">
        <ele>137</ele>
        <time>2017-01-15T08:52:36.666Z</time>
      </trkpt>
      <trkpt lat="47.70885" lon="2.15548">
        <ele>137</ele>
        <time>2017-01-15T08:52:37.666Z</time>
      </trkpt>
      <trkpt lat="47.70885" lon="2.15548">
        <ele>137</ele>
        <time>2017-01-15T08:52:38.639Z</time>
      </trkpt>
      <trkpt lat="47.70887" lon="2.15565">
        <ele>137</ele>
        <time>2017-01-15T08:52:39.628Z</time>
      </trkpt>
      <trkpt lat="47.70887" lon="2.15565">
        <ele>137</ele>
        <time>2017-01-15T08:52:40.664Z</time>
      </trkpt>
      <trkpt lat="47.7089" lon="2.15581">
        <ele>138</ele>
        <time>2017-01-15T08:52:41.666Z</time>
      </trkpt>
      <trkpt lat="47.7089" lon="2.15581">
        <ele>138</ele>
        <time>2017-01-15T08:52:42.665Z</time>
      </trkpt>
      <trkpt lat="47.70892" lon="2.15597">
        <ele>138</ele>
        <time>2017-01-15T08:52:43.666Z</time>
      </trkpt>
      <trkpt lat="47.70892" lon="2.15597">
        <ele>138</ele>
        <time>2017-01-15T08:52:44.664Z</time>
      </trkpt>
      <trkpt lat="47.70894" lon="2.15614">
        <ele>139</ele>
        <time>2017-01-15T08:52:45.665Z</time>
      </trkpt>
      <trkpt lat="47.70894" lon="2.15614">
        <ele>139</ele>
        <time>2017-01-15T08:52:46.665Z</time>
      </trkpt>
      <trkpt lat="47.70895" lon="2.1563">
        <ele>138</ele>
        <time>2017-01-15T08:52:47.666Z</time>
      </trkpt>
      <trkpt lat="47.70895" lon="2.1563">
        <ele>138</ele>
        <time>2017-01-15T08:52:48.664Z</time>
      </trkpt>
      <trkpt lat="47.70897" lon="2.15646">
        <ele>139</ele>
        <time>2017-01-15T08:52:49.666Z</time>
      </trkpt>
      <trkpt lat="47.70897" lon="2.15646">
        <ele>139</ele>
        <time>2017-01-15T08:52:50.664Z</time>
      </trkpt>
      <trkpt lat="47.70899" lon="2.15662">
        <ele>140</ele>
        <time>2017-01-15T08:52:51.665Z</time>
      </trkpt>
      <trkpt lat="47.70899" lon="2.15662">
        <ele>140</ele>
        <time>2017-01-15T08:52:52.664Z</time>
      </trkpt>
      <trkpt lat="47.70902" lon="2.15677">
        <ele>140</ele>
        <time>2017-01-15T08:52:53.628Z</time>
      </trkpt>
      <trkpt lat="47.70902" lon="2.15677">
        <ele>140</ele>
        <time>2017-01-15T08:52:54.666Z</time>
      </trkpt>
      <trkpt lat="47.70905" lon="2.15693">
        <ele>141</ele>
        <time>2017-01-15T08:52:55.665Z</time>
      </trkpt>
      <trkpt lat="47.70905" lon="2.15693">
        <ele>141</ele>
        <time>2017-01-15T08:52:56.665Z</time>
      </trkpt>
      <trkpt lat="47.70907" lon="2.15709">
        <ele>141</ele>
        <time>2017-01-15T08:52:57.667Z</time>
      </trkpt>
      <trkpt lat="47.70907" lon="2.15709">
        <ele>141</ele>
        <time>2017-01-15T08:52:58.664Z</time>
      </trkpt>
      <trkpt lat="47.70909" lon="2.15724">
        <ele>142</ele>
        <time>2017-01-15T08:52:59.664Z</time>
      </trkpt>
      <trkpt lat="47.70909" lon="2.15724">
        <ele>142</ele>
        <time>2017-01-15T08:53:00.666Z</time>
      </trkpt>
      <trkpt lat="47.70911" lon="2.15739">
        <ele>141</ele>
        <time>2017-01-15T08:53:01.666Z</time>
      </trkpt>
      <trkpt lat="47.70911" lon="2.15739">
        <ele>141</ele>
        <time>2017-01-15T08:53:02.666Z</time>
      </trkpt>
      <trkpt lat="47.70912" lon="2.15755">
        <ele>142</ele>
        <time>2017-01-15T08:53:03.638Z</time>
      </trkpt>
      <trkpt lat="47.70913" lon="2.15762">
        <ele>142</ele>
        <time>2017-01-15T08:53:04.630Z</time>
      </trkpt>
      <trkpt lat="47.70913" lon="2.15762">
        <ele>142</ele>
        <time>2017-01-15T08:53:05.665Z</time>
      </trkpt>
      <trkpt lat="47.70914" lon="2.15778">
        <ele>142</ele>
        <time>2017-01-15T08:53:06.667Z</time>
      </trkpt>
      <trkpt lat="47.70914" lon="2.15778">
        <ele>142</ele>
        <time>2017-01-15T08:53:07.664Z</time>
      </trkpt>
      <trkpt lat="47.70916" lon="2.15795">
        <ele>143</ele>
        <time>2017-01-15T08:53:08.668Z</time>
      </trkpt>
      <trkpt lat="47.70916" lon="2.15795">
        <ele>143</ele>
        <time>2017-01-15T08:53:09.664Z</time>
      </trkpt>
      <trkpt lat="47.70919" lon="2.15811">
        <ele>143</ele>
        <time>2017-01-15T08:53:10.666Z</time>
      </trkpt>
      <trkpt lat="47.70919" lon="2.15811">
        <ele>143</ele>
        <time>2017-01-15T08:53:11.665Z</time>
      </trkpt>
      <trkpt lat="47.70921" lon="2.15826">
        <ele>143</ele>
        <time>2017-01-15T08:53:12.666Z</time>
      </trkpt>
      <trkpt lat="47.70921" lon="2.15835">
        <ele>144</ele>
        <time>2017-01-15T08:53:13.667Z</time>
      </trkpt>
      <trkpt lat="47.70921" lon="2.15835">
        <ele>144</ele>
        <time>2017-01-15T08:53:14.648Z</time>
      </trkpt>
      <trkpt lat="47.70922" lon="2.15851">
        <ele>144</ele>
        <time>2017-01-15T08:53:15.664Z</time>
      </trkpt>
      <trkpt lat="47.70924" lon="2.15859">
        <ele>145</ele>
        <time>2017-01-15T08:53:16.666Z</time>
      </trkpt>
      <trkpt lat="47.70924" lon="2.15859">
        <ele>145</ele>
        <time>2017-01-15T08:53:17.666Z</time>
      </trkpt>
      <trkpt lat="47.70926" lon="2.15874">
        <ele>145</ele>
        <time>2017-01-15T08:53:18.628Z</time>
      </trkpt>
      <trkpt lat="47.70926" lon="2.15874">
        <ele>145</ele>
        <time>2017-01-15T08:53:19.664Z</time>
      </trkpt>
      <trkpt lat="47.70928" lon="2.1589">
        <ele>146</ele>
        <time>2017-01-15T08:53:20.665Z</time>
      </trkpt>
      <trkpt lat="47.70929" lon="2.15897">
        <ele>146</ele>
        <time>2017-01-15T08:53:21.666Z</time>
      </trkpt>
      <trkpt lat="47.7093" lon="2.15905">
        <ele>146</ele>
        <time>2017-01-15T08:53:22.667Z</time>
      </trkpt>
      <trkpt lat="47.7093" lon="2.15905">
        <ele>146</ele>
        <time>2017-01-15T08:53:23.664Z</time>
      </trkpt>
      <trkpt lat="47.70933" lon="2.15921">
        <ele>147</ele>
        <time>2017-01-15T08:53:24.667Z</time>
      </trkpt>
      <trkpt lat="47.70933" lon="2.15929">
        <ele>148</ele>
        <time>2017-01-15T08:53:25.664Z</time>
      </trkpt>
      <trkpt lat="47.70933" lon="2.15929">
        <ele>148</ele>
        <time>2017-01-15T08:53:26.665Z</time>
      </trkpt>
      <trkpt lat="47.70935" lon="2.15944">
        <ele>149</ele>
        <time>2017-01-15T08:53:27.667Z</time>
      </trkpt>
      <trkpt lat="47.70935" lon="2.15951">
        <ele>149</ele>
        <time>2017-01-15T08:53:28.667Z</time>
      </trkpt>
      <trkpt lat="47.70935" lon="2.15951">
        <ele>149</ele>
        <time>2017-01-15T08:53:29.665Z</time>
      </trkpt>
      <trkpt lat="47.70936" lon="2.15968">
        <ele>149</ele>
        <time>2017-01-15T08:53:30.666Z</time>
      </trkpt>
      <trkpt lat="47.70936" lon="2.15968">
        <ele>149</ele>
        <time>2017-01-15T08:53:31.664Z</time>
      </trkpt>
      <trkpt lat="47.70936" lon="2.15984">
        <ele>150</ele>
        <time>2017-01-15T08:53:32.663Z</time>
      </trkpt>
      <trkpt lat="47.70936" lon="2.15991">
        <ele>150</ele>
        <time>2017-01-15T08:53:33.665Z</time>
      </trkpt>
      <trkpt lat="47.70936" lon="2.15991">
        <ele>150</ele>
        <time>2017-01-15T08:53:34.664Z</time>
      </trkpt>
      <trkpt lat="47.70936" lon="2.16006">
        <ele>150</ele>
        <time>2017-01-15T08:53:35.666Z</time>
      </trkpt>
      <trkpt lat="47.70936" lon="2.16006">
        <ele>150</ele>
        <time>2017-01-15T08:53:36.666Z</time>
      </trkpt>
      <trkpt lat="47.70935" lon="2.16021">
        <ele>150</ele>
        <time>2017-01-15T08:53:37.665Z</time>
      </trkpt>
      <trkpt lat="47.70935" lon="2.16021">
        <ele>150</ele>
        <time>2017-01-15T08:53:38.638Z</time>
      </trkpt>
      <trkpt lat="47.70935" lon="2.16037">
        <ele>151</ele>
        <time>2017-01-15T08:53:39.667Z</time>
      </trkpt>
      <trkpt lat="47.70935" lon="2.16037">
        <ele>151</ele>
        <time>2017-01-15T08:53:40.631Z</time>
      </trkpt>
      <trkpt lat="47.70934" lon="2.16055">
        <ele>151</ele>
        <time>2017-01-15T08:53:41.667Z</time>
      </trkpt>
      <trkpt lat="47.70934" lon="2.16055">
        <ele>151</ele>
        <time>2017-01-15T08:53:42.666Z</time>
      </trkpt>
      <trkpt lat="47.70933" lon="2.16072">
        <ele>151</ele>
        <time>2017-01-15T08:53:43.666Z</time>
      </trkpt>
      <trkpt lat="47.70933" lon="2.16072">
        <ele>151</ele>
        <time>2017-01-15T08:53:44.664Z</time>
      </trkpt>
      <trkpt lat="47.70932" lon="2.16089">
        <ele>151</ele>
        <time>2017-01-15T08:53:45.663Z</time>
      </trkpt>
      <trkpt lat="47.70932" lon="2.16089">
        <ele>151</ele>
        <time>2017-01-15T08:53:46.664Z</time>
      </trkpt>
      <trkpt lat="47.70934" lon="2.16104">
        <ele>151</ele>
        <time>2017-01-15T08:53:47.667Z</time>
      </trkpt>
      <trkpt lat="47.70934" lon="2.16104">
        <ele>151</ele>
        <time>2017-01-15T08:53:48.629Z</time>
      </trkpt>
      <trkpt lat="47.70934" lon="2.1612">
        <ele>152</ele>
        <time>2017-01-15T08:53:49.666Z</time>
      </trkpt>
      <trkpt lat="47.70934" lon="2.1612">
        <ele>152</ele>
        <time>2017-01-15T08:53:50.630Z</time>
      </trkpt>
      <trkpt lat="47.70936" lon="2.16137">
        <ele>152</ele>
        <time>2017-01-15T08:53:51.666Z</time>
      </trkpt>
      <trkpt lat="47.70936" lon="2.16137">
        <ele>152</ele>
        <time>2017-01-15T08:53:52.664Z</time>
      </trkpt>
      <trkpt lat="47.70938" lon="2.16152">
        <ele>152</ele>
        <time>2017-01-15T08:53:53.667Z</time>
      </trkpt>
      <trkpt lat="47.70938" lon="2.16152">
        <ele>152</ele>
        <time>2017-01-15T08:53:54.665Z</time>
      </trkpt>
      <trkpt lat="47.7094" lon="2.16168">
        <ele>151</ele>
        <time>2017-01-15T08:53:55.629Z</time>
      </trkpt>
      <trkpt lat="47.7094" lon="2.16168">
        <ele>151</ele>
        <time>2017-01-15T08:53:56.665Z</time>
      </trkpt>
      <trkpt lat="47.70941" lon="2.16185">
        <ele>151</ele>
        <time>2017-01-15T08:53:57.664Z</time>
      </trkpt>
      <trkpt lat="47.70941" lon="2.16185">
        <ele>151</ele>
        <time>2017-01-15T08:53:58.664Z</time>
      </trkpt>
      <trkpt lat="47.70941" lon="2.16201">
        <ele>151</ele>
        <time>2017-01-15T08:53:59.667Z</time>
      </trkpt>
      <trkpt lat="47.70941" lon="2.16201">
        <ele>151</ele>
        <time>2017-01-15T08:54:00.666Z</time>
      </trkpt>
      <trkpt lat="47.70942" lon="2.16217">
        <ele>150</ele>
        <time>2017-01-15T08:54:01.665Z</time>
      </trkpt>
      <trkpt lat="47.70942" lon="2.16217">
        <ele>150</ele>
        <time>2017-01-15T08:54:02.664Z</time>
      </trkpt>
      <trkpt lat="47.70943" lon="2.16233">
        <ele>149</ele>
        <time>2017-01-15T08:54:03.664Z</time>
      </trkpt>
      <trkpt lat="47.70942" lon="2.16241">
        <ele>149</ele>
        <time>2017-01-15T08:54:04.664Z</time>
      </trkpt>
      <trkpt lat="47.70941" lon="2.16249">
        <ele>149</ele>
        <time>2017-01-15T08:54:05.628Z</time>
      </trkpt>
      <trkpt lat="47.70941" lon="2.16249">
        <ele>149</ele>
        <time>2017-01-15T08:54:06.665Z</time>
      </trkpt>
      <trkpt lat="47.7094" lon="2.16264">
        <ele>149</ele>
        <time>2017-01-15T08:54:07.664Z</time>
      </trkpt>
      <trkpt lat="47.7094" lon="2.16264">
        <ele>149</ele>
        <time>2017-01-15T08:54:08.665Z</time>
      </trkpt>
      <trkpt lat="47.70938" lon="2.1628">
        <ele>149</ele>
        <time>2017-01-15T08:54:09.667Z</time>
      </trkpt>
      <trkpt lat="47.70938" lon="2.16288">
        <ele>149</ele>
        <time>2017-01-15T08:54:10.644Z</time>
      </trkpt>
      <trkpt lat="47.70938" lon="2.16288">
        <ele>149</ele>
        <time>2017-01-15T08:54:11.635Z</time>
      </trkpt>
      <trkpt lat="47.70937" lon="2.16305">
        <ele>149</ele>
        <time>2017-01-15T08:54:12.666Z</time>
      </trkpt>
      <trkpt lat="47.70937" lon="2.16312">
        <ele>149</ele>
        <time>2017-01-15T08:54:13.632Z</time>
      </trkpt>
      <trkpt lat="47.70937" lon="2.16312">
        <ele>149</ele>
        <time>2017-01-15T08:54:14.648Z</time>
      </trkpt>
      <trkpt lat="47.70937" lon="2.16328">
        <ele>150</ele>
        <time>2017-01-15T08:54:15.645Z</time>
      </trkpt>
      <trkpt lat="47.70937" lon="2.16328">
        <ele>150</ele>
        <time>2017-01-15T08:54:16.657Z</time>
      </trkpt>
      <trkpt lat="47.70938" lon="2.16343">
        <ele>150</ele>
        <time>2017-01-15T08:54:17.664Z</time>
      </trkpt>
      <trkpt lat="47.70938" lon="2.16343">
        <ele>150</ele>
        <time>2017-01-15T08:54:18.631Z</time>
      </trkpt>
      <trkpt lat="47.70938" lon="2.16359">
        <ele>150</ele>
        <time>2017-01-15T08:54:19.663Z</time>
      </trkpt>
      <trkpt lat="47.70938" lon="2.16359">
        <ele>150</ele>
        <time>2017-01-15T08:54:20.665Z</time>
      </trkpt>
      <trkpt lat="47.70937" lon="2.16376">
        <ele>150</ele>
        <time>2017-01-15T08:54:21.667Z</time>
      </trkpt>
      <trkpt lat="47.70937" lon="2.16376">
        <ele>150</ele>
        <time>2017-01-15T08:54:22.663Z</time>
      </trkpt>
      <trkpt lat="47.70937" lon="2.16392">
        <ele>150</ele>
        <time>2017-01-15T08:54:23.628Z</time>
      </trkpt>
      <trkpt lat="47.70937" lon="2.164">
        <ele>151</ele>
        <time>2017-01-15T08:54:24.628Z</time>
      </trkpt>
      <trkpt lat="47.70938" lon="2.16408">
        <ele>151</ele>
        <time>2017-01-15T08:54:25.667Z</time>
      </trkpt>
      <trkpt lat="47.70938" lon="2.16408">
        <ele>151</ele>
        <time>2017-01-15T08:54:26.664Z</time>
      </trkpt>
      <trkpt lat="47.70941" lon="2.16424">
        <ele>151</ele>
        <time>2017-01-15T08:54:27.665Z</time>
      </trkpt>
      <trkpt lat="47.70941" lon="2.16424">
        <ele>151</ele>
        <time>2017-01-15T08:54:28.631Z</time>
      </trkpt>
      <trkpt lat="47.70945" lon="2.16439">
        <ele>152</ele>
        <time>2017-01-15T08:54:29.667Z</time>
      </trkpt>
      <trkpt lat="47.70945" lon="2.16439">
        <ele>152</ele>
        <time>2017-01-15T08:54:30.666Z</time>
      </trkpt>
      <trkpt lat="47.70949" lon="2.16455">
        <ele>152</ele>
        <time>2017-01-15T08:54:31.666Z</time>
      </trkpt>
      <trkpt lat="47.70951" lon="2.16463">
        <ele>152</ele>
        <time>2017-01-15T08:54:32.664Z</time>
      </trkpt>
      <trkpt lat="47.70951" lon="2.16463">
        <ele>152</ele>
        <time>2017-01-15T08:54:33.664Z</time>
      </trkpt>
      <trkpt lat="47.70956" lon="2.16479">
        <ele>152</ele>
        <time>2017-01-15T08:54:34.666Z</time>
      </trkpt>
      <trkpt lat="47.70956" lon="2.16479">
        <ele>152</ele>
        <time>2017-01-15T08:54:35.665Z</time>
      </trkpt>
      <trkpt lat="47.7096" lon="2.16495">
        <ele>152</ele>
        <time>2017-01-15T08:54:36.667Z</time>
      </trkpt>
      <trkpt lat="47.7096" lon="2.16495">
        <ele>152</ele>
        <time>2017-01-15T08:54:37.664Z</time>
      </trkpt>
      <trkpt lat="47.70963" lon="2.16511">
        <ele>151</ele>
        <time>2017-01-15T08:54:38.635Z</time>
      </trkpt>
      <trkpt lat="47.70963" lon="2.16511">
        <ele>151</ele>
        <time>2017-01-15T08:54:39.665Z</time>
      </trkpt>
      <trkpt lat="47.70966" lon="2.16527">
        <ele>152</ele>
        <time>2017-01-15T08:54:40.666Z</time>
      </trkpt>
      <trkpt lat="47.70966" lon="2.16535">
        <ele>151</ele>
        <time>2017-01-15T08:54:41.667Z</time>
      </trkpt>
      <trkpt lat="47.70966" lon="2.16535">
        <ele>151</ele>
        <time>2017-01-15T08:54:42.666Z</time>
      </trkpt>
      <trkpt lat="47.7097" lon="2.16551">
        <ele>151</ele>
        <time>2017-01-15T08:54:43.664Z</time>
      </trkpt>
      <trkpt lat="47.70971" lon="2.16559">
        <ele>151</ele>
        <time>2017-01-15T08:54:44.664Z</time>
      </trkpt>
      <trkpt lat="47.70973" lon="2.16567">
        <ele>151</ele>
        <time>2017-01-15T08:54:45.664Z</time>
      </trkpt>
      <trkpt lat="47.70973" lon="2.16567">
        <ele>151</ele>
        <time>2017-01-15T08:54:46.665Z</time>
      </trkpt>
      <trkpt lat="47.70976" lon="2.16583">
        <ele>151</ele>
        <time>2017-01-15T08:54:47.667Z</time>
      </trkpt>
      <trkpt lat="47.70978" lon="2.16591">
        <ele>151</ele>
        <time>2017-01-15T08:54:48.667Z</time>
      </trkpt>
      <trkpt lat="47.70978" lon="2.16591">
        <ele>151</ele>
        <time>2017-01-15T08:54:49.665Z</time>
      </trkpt>
      <trkpt lat="47.70981" lon="2.16607">
        <ele>151</ele>
        <time>2017-01-15T08:54:50.666Z</time>
      </trkpt>
      <trkpt lat="47.70981" lon="2.16607">
        <ele>151</ele>
        <time>2017-01-15T08:54:51.665Z</time>
      </trkpt>
      <trkpt lat="47.70983" lon="2.16622">
        <ele>152</ele>
        <time>2017-01-15T08:54:52.628Z</time>
      </trkpt>
      <trkpt lat="47.70985" lon="2.1663">
        <ele>152</ele>
        <time>2017-01-15T08:54:53.631Z</time>
      </trkpt>
      <trkpt lat="47.70985" lon="2.1663">
        <ele>152</ele>
        <time>2017-01-15T08:54:54.666Z</time>
      </trkpt>
      <trkpt lat="47.70987" lon="2.16646">
        <ele>151</ele>
        <time>2017-01-15T08:54:55.667Z</time>
      </trkpt>
      <trkpt lat="47.70989" lon="2.16654">
        <ele>151</ele>
        <time>2017-01-15T08:54:56.667Z</time>
      </trkpt>
      <trkpt lat="47.70989" lon="2.16654">
        <ele>151</ele>
        <time>2017-01-15T08:54:57.657Z</time>
      </trkpt>
      <trkpt lat="47.70993" lon="2.16669">
        <ele>151</ele>
        <time>2017-01-15T08:54:58.645Z</time>
      </trkpt>
      <trkpt lat="47.70993" lon="2.16669">
        <ele>151</ele>
        <time>2017-01-15T08:54:59.633Z</time>
      </trkpt>
      <trkpt lat="47.70995" lon="2.16684">
        <ele>152</ele>
        <time>2017-01-15T08:55:00.666Z</time>
      </trkpt>
      <trkpt lat="47.70995" lon="2.16684">
        <ele>152</ele>
        <time>2017-01-15T08:55:01.665Z</time>
      </trkpt>
      <trkpt lat="47.70999" lon="2.167">
        <ele>152</ele>
        <time>2017-01-15T08:55:02.646Z</time>
      </trkpt>
      <trkpt lat="47.71001" lon="2.16708">
        <ele>152</ele>
        <time>2017-01-15T08:55:03.645Z</time>
      </trkpt>
      <trkpt lat="47.71001" lon="2.16708">
        <ele>152</ele>
        <time>2017-01-15T08:55:04.634Z</time>
      </trkpt>
      <trkpt lat="47.71004" lon="2.16723">
        <ele>152</ele>
        <time>2017-01-15T08:55:05.628Z</time>
      </trkpt>
      <trkpt lat="47.71004" lon="2.16723">
        <ele>152</ele>
        <time>2017-01-15T08:55:06.666Z</time>
      </trkpt>
      <trkpt lat="47.71008" lon="2.16738">
        <ele>152</ele>
        <time>2017-01-15T08:55:07.667Z</time>
      </trkpt>
      <trkpt lat="47.71009" lon="2.16746">
        <ele>152</ele>
        <time>2017-01-15T08:55:08.628Z</time>
      </trkpt>
      <trkpt lat="47.71009" lon="2.16746">
        <ele>152</ele>
        <time>2017-01-15T08:55:09.665Z</time>
      </trkpt>
      <trkpt lat="47.71013" lon="2.16762">
        <ele>152</ele>
        <time>2017-01-15T08:55:10.666Z</time>
      </trkpt>
      <trkpt lat="47.71013" lon="2.16762">
        <ele>152</ele>
        <time>2017-01-15T08:55:11.660Z</time>
      </trkpt>
      <trkpt lat="47.71016" lon="2.16778">
        <ele>152</ele>
        <time>2017-01-15T08:55:12.666Z</time>
      </trkpt>
      <trkpt lat="47.71016" lon="2.16778">
        <ele>152</ele>
        <time>2017-01-15T08:55:13.665Z</time>
      </trkpt>
      <trkpt lat="47.71019" lon="2.16793">
        <ele>152</ele>
        <time>2017-01-15T08:55:14.637Z</time>
      </trkpt>
      <trkpt lat="47.71019" lon="2.16793">
        <ele>152</ele>
        <time>2017-01-15T08:55:15.665Z</time>
      </trkpt>
      <trkpt lat="47.71022" lon="2.16809">
        <ele>151</ele>
        <time>2017-01-15T08:55:16.667Z</time>
      </trkpt>
      <trkpt lat="47.71022" lon="2.16809">
        <ele>151</ele>
        <time>2017-01-15T08:55:17.665Z</time>
      </trkpt>
      <trkpt lat="47.71024" lon="2.16826">
        <ele>150</ele>
        <time>2017-01-15T08:55:18.628Z</time>
      </trkpt>
      <trkpt lat="47.71026" lon="2.16834">
        <ele>150</ele>
        <time>2017-01-15T08:55:19.664Z</time>
      </trkpt>
      <trkpt lat="47.71026" lon="2.16834">
        <ele>150</ele>
        <time>2017-01-15T08:55:20.666Z</time>
      </trkpt>
      <trkpt lat="47.7103" lon="2.16849">
        <ele>150</ele>
        <time>2017-01-15T08:55:21.629Z</time>
      </trkpt>
      <trkpt lat="47.71031" lon="2.16857">
        <ele>150</ele>
        <time>2017-01-15T08:55:22.667Z</time>
      </trkpt>
      <trkpt lat="47.71031" lon="2.16857">
        <ele>150</ele>
        <time>2017-01-15T08:55:23.665Z</time>
      </trkpt>
      <trkpt lat="47.71035" lon="2.16872">
        <ele>149</ele>
        <time>2017-01-15T08:55:24.630Z</time>
      </trkpt>
      <trkpt lat="47.71035" lon="2.16872">
        <ele>149</ele>
        <time>2017-01-15T08:55:25.665Z</time>
      </trkpt>
      <trkpt lat="47.71038" lon="2.16887">
        <ele>149</ele>
        <time>2017-01-15T08:55:26.628Z</time>
      </trkpt>
      <trkpt lat="47.71038" lon="2.16887">
        <ele>149</ele>
        <time>2017-01-15T08:55:27.665Z</time>
      </trkpt>
      <trkpt lat="47.71042" lon="2.16902">
        <ele>149</ele>
        <time>2017-01-15T08:55:28.667Z</time>
      </trkpt>
      <trkpt lat="47.71044" lon="2.1691">
        <ele>149</ele>
        <time>2017-01-15T08:55:29.667Z</time>
      </trkpt>
      <trkpt lat="47.71044" lon="2.1691">
        <ele>149</ele>
        <time>2017-01-15T08:55:30.665Z</time>
      </trkpt>
      <trkpt lat="47.71047" lon="2.16926">
        <ele>149</ele>
        <time>2017-01-15T08:55:31.660Z</time>
      </trkpt>
      <trkpt lat="47.71049" lon="2.16934">
        <ele>149</ele>
        <time>2017-01-15T08:55:32.665Z</time>
      </trkpt>
      <trkpt lat="47.71049" lon="2.16934">
        <ele>149</ele>
        <time>2017-01-15T08:55:33.665Z</time>
      </trkpt>
      <trkpt lat="47.71052" lon="2.1695">
        <ele>148</ele>
        <time>2017-01-15T08:55:34.664Z</time>
      </trkpt>
      <trkpt lat="47.71052" lon="2.1695">
        <ele>148</ele>
        <time>2017-01-15T08:55:35.665Z</time>
      </trkpt>
      <trkpt lat="47.71056" lon="2.16965">
        <ele>148</ele>
        <time>2017-01-15T08:55:36.667Z</time>
      </trkpt>
      <trkpt lat="47.71057" lon="2.16973">
        <ele>149</ele>
        <time>2017-01-15T08:55:37.667Z</time>
      </trkpt>
      <trkpt lat="47.71057" lon="2.16973">
        <ele>149</ele>
        <time>2017-01-15T08:55:38.656Z</time>
      </trkpt>
      <trkpt lat="47.7106" lon="2.16989">
        <ele>149</ele>
        <time>2017-01-15T08:55:39.667Z</time>
      </trkpt>
      <trkpt lat="47.7106" lon="2.16989">
        <ele>149</ele>
        <time>2017-01-15T08:55:40.665Z</time>
      </trkpt>
      <trkpt lat="47.71063" lon="2.17005">
        <ele>149</ele>
        <time>2017-01-15T08:55:41.660Z</time>
      </trkpt>
      <trkpt lat="47.71064" lon="2.17012">
        <ele>149</ele>
        <time>2017-01-15T08:55:42.667Z</time>
      </trkpt>
      <trkpt lat="47.71064" lon="2.17012">
        <ele>149</ele>
        <time>2017-01-15T08:55:43.665Z</time>
      </trkpt>
      <trkpt lat="47.71068" lon="2.17027">
        <ele>149</ele>
        <time>2017-01-15T08:55:44.628Z</time>
      </trkpt>
      <trkpt lat="47.71068" lon="2.17027">
        <ele>149</ele>
        <time>2017-01-15T08:55:45.665Z</time>
      </trkpt>
      <trkpt lat="47.71071" lon="2.17043">
        <ele>150</ele>
        <time>2017-01-15T08:55:46.666Z</time>
      </trkpt>
      <trkpt lat="47.71071" lon="2.17043">
        <ele>150</ele>
        <time>2017-01-15T08:55:47.665Z</time>
      </trkpt>
      <trkpt lat="47.71074" lon="2.17058">
        <ele>150</ele>
        <time>2017-01-15T08:55:48.665Z</time>
      </trkpt>
      <trkpt lat="47.71074" lon="2.17058">
        <ele>150</ele>
        <time>2017-01-15T08:55:49.665Z</time>
      </trkpt>
      <trkpt lat="47.71078" lon="2.17073">
        <ele>150</ele>
        <time>2017-01-15T08:55:50.666Z</time>
      </trkpt>
      <trkpt lat="47.71078" lon="2.17073">
        <ele>150</ele>
        <time>2017-01-15T08:55:51.657Z</time>
      </trkpt>
      <trkpt lat="47.71082" lon="2.17087">
        <ele>150</ele>
        <time>2017-01-15T08:55:52.665Z</time>
      </trkpt>
      <trkpt lat="47.71082" lon="2.17087">
        <ele>150</ele>
        <time>2017-01-15T08:55:53.665Z</time>
      </trkpt>
      <trkpt lat="47.71085" lon="2.17102">
        <ele>150</ele>
        <time>2017-01-15T08:55:54.667Z</time>
      </trkpt>
      <trkpt lat="47.71086" lon="2.1711">
        <ele>150</ele>
        <time>2017-01-15T08:55:55.628Z</time>
      </trkpt>
      <trkpt lat="47.71086" lon="2.1711">
        <ele>150</ele>
        <time>2017-01-15T08:55:56.665Z</time>
      </trkpt>
      <trkpt lat="47.71089" lon="2.17126">
        <ele>149</ele>
        <time>2017-01-15T08:55:57.665Z</time>
      </trkpt>
      <trkpt lat="47.71089" lon="2.17126">
        <ele>149</ele>
        <time>2017-01-15T08:55:58.665Z</time>
      </trkpt>
      <trkpt lat="47.71092" lon="2.17142">
        <ele>149</ele>
        <time>2017-01-15T08:55:59.667Z</time>
      </trkpt>
      <trkpt lat="47.71092" lon="2.17142">
        <ele>149</ele>
        <time>2017-01-15T08:56:00.666Z</time>
      </trkpt>
      <trkpt lat="47.71095" lon="2.17158">
        <ele>149</ele>
        <time>2017-01-15T08:56:01.628Z</time>
      </trkpt>
      <trkpt lat="47.71097" lon="2.17167">
        <ele>149</ele>
        <time>2017-01-15T08:56:02.664Z</time>
      </trkpt>
      <trkpt lat="47.71097" lon="2.17167">
        <ele>149</ele>
        <time>2017-01-15T08:56:03.668Z</time>
      </trkpt>
      <trkpt lat="47.711" lon="2.17183">
        <ele>150</ele>
        <time>2017-01-15T08:56:04.667Z</time>
      </trkpt>
      <trkpt lat="47.71102" lon="2.17192">
        <ele>150</ele>
        <time>2017-01-15T08:56:05.665Z</time>
      </trkpt>
      <trkpt lat="47.71102" lon="2.17192">
        <ele>150</ele>
        <time>2017-01-15T08:56:06.667Z</time>
      </trkpt>
      <trkpt lat="47.71105" lon="2.17209">
        <ele>149</ele>
        <time>2017-01-15T08:56:07.668Z</time>
      </trkpt>
      <trkpt lat="47.71105" lon="2.17209">
        <ele>149</ele>
        <time>2017-01-15T08:56:08.666Z</time>
      </trkpt>
      <trkpt lat="47.71108" lon="2.17225">
        <ele>150</ele>
        <time>2017-01-15T08:56:09.666Z</time>
      </trkpt>
      <trkpt lat="47.71108" lon="2.17225">
        <ele>150</ele>
        <time>2017-01-15T08:56:10.666Z</time>
      </trkpt>
      <trkpt lat="47.7111" lon="2.17242">
        <ele>149</ele>
        <time>2017-01-15T08:56:11.667Z</time>
      </trkpt>
      <trkpt lat="47.71112" lon="2.1725">
        <ele>149</ele>
        <time>2017-01-15T08:56:12.628Z</time>
      </trkpt>
      <trkpt lat="47.71112" lon="2.1725">
        <ele>149</ele>
        <time>2017-01-15T08:56:13.665Z</time>
      </trkpt>
      <trkpt lat="47.71115" lon="2.17267">
        <ele>148</ele>
        <time>2017-01-15T08:56:14.638Z</time>
      </trkpt>
      <trkpt lat="47.71115" lon="2.17267">
        <ele>148</ele>
        <time>2017-01-15T08:56:15.665Z</time>
      </trkpt>
      <trkpt lat="47.71117" lon="2.17283">
        <ele>148</ele>
        <time>2017-01-15T08:56:16.667Z</time>
      </trkpt>
      <trkpt lat="47.71117" lon="2.17283">
        <ele>148</ele>
        <time>2017-01-15T08:56:17.665Z</time>
      </trkpt>
      <trkpt lat="47.71119" lon="2.173">
        <ele>147</ele>
        <time>2017-01-15T08:56:18.630Z</time>
      </trkpt>
      <trkpt lat="47.71119" lon="2.173">
        <ele>147</ele>
        <time>2017-01-15T08:56:19.665Z</time>
      </trkpt>
      <trkpt lat="47.71121" lon="2.17318">
        <ele>146</ele>
        <time>2017-01-15T08:56:20.667Z</time>
      </trkpt>
      <trkpt lat="47.71121" lon="2.17318">
        <ele>146</ele>
        <time>2017-01-15T08:56:21.665Z</time>
      </trkpt>
      <trkpt lat="47.71124" lon="2.17335">
        <ele>146</ele>
        <time>2017-01-15T08:56:22.667Z</time>
      </trkpt>
      <trkpt lat="47.71124" lon="2.17335">
        <ele>146</ele>
        <time>2017-01-15T08:56:23.632Z</time>
      </trkpt>
      <trkpt lat="47.71128" lon="2.17352">
        <ele>145</ele>
        <time>2017-01-15T08:56:24.630Z</time>
      </trkpt>
      <trkpt lat="47.71128" lon="2.17352">
        <ele>145</ele>
        <time>2017-01-15T08:56:25.665Z</time>
      </trkpt>
      <trkpt lat="47.7113" lon="2.17371">
        <ele>145</ele>
        <time>2017-01-15T08:56:26.628Z</time>
      </trkpt>
      <trkpt lat="47.7113" lon="2.17371">
        <ele>145</ele>
        <time>2017-01-15T08:56:27.665Z</time>
      </trkpt>
      <trkpt lat="47.71133" lon="2.17389">
        <ele>144</ele>
        <time>2017-01-15T08:56:28.628Z</time>
      </trkpt>
      <trkpt lat="47.71133" lon="2.17389">
        <ele>144</ele>
        <time>2017-01-15T08:56:29.665Z</time>
      </trkpt>
      <trkpt lat="47.71137" lon="2.17407">
        <ele>144</ele>
        <time>2017-01-15T08:56:30.628Z</time>
      </trkpt>
      <trkpt lat="47.71137" lon="2.17407">
        <ele>144</ele>
        <time>2017-01-15T08:56:31.666Z</time>
      </trkpt>
      <trkpt lat="47.7114" lon="2.17425">
        <ele>142</ele>
        <time>2017-01-15T08:56:32.667Z</time>
      </trkpt>
      <trkpt lat="47.7114" lon="2.17425">
        <ele>142</ele>
        <time>2017-01-15T08:56:33.665Z</time>
      </trkpt>
      <trkpt lat="47.71145" lon="2.17443">
        <ele>142</ele>
        <time>2017-01-15T08:56:34.667Z</time>
      </trkpt>
      <trkpt lat="47.71147" lon="2.17451">
        <ele>141</ele>
        <time>2017-01-15T08:56:35.661Z</time>
      </trkpt>
      <trkpt lat="47.71149" lon="2.1746">
        <ele>142</ele>
        <time>2017-01-15T08:56:36.628Z</time>
      </trkpt>
      <trkpt lat="47.71149" lon="2.1746">
        <ele>142</ele>
        <time>2017-01-15T08:56:37.665Z</time>
      </trkpt>
      <trkpt lat="47.71153" lon="2.17476">
        <ele>142</ele>
        <time>2017-01-15T08:56:38.644Z</time>
      </trkpt>
      <trkpt lat="47.71153" lon="2.17476">
        <ele>142</ele>
        <time>2017-01-15T08:56:39.648Z</time>
      </trkpt>
      <trkpt lat="47.71155" lon="2.17492">
        <ele>142</ele>
        <time>2017-01-15T08:56:40.636Z</time>
      </trkpt>
      <trkpt lat="47.71155" lon="2.17492">
        <ele>142</ele>
        <time>2017-01-15T08:56:41.665Z</time>
      </trkpt>
      <trkpt lat="47.71158" lon="2.17509">
        <ele>142</ele>
        <time>2017-01-15T08:56:42.628Z</time>
      </trkpt>
      <trkpt lat="47.71159" lon="2.17518">
        <ele>142</ele>
        <time>2017-01-15T08:56:43.667Z</time>
      </trkpt>
      <trkpt lat="47.7116" lon="2.17527">
        <ele>142</ele>
        <time>2017-01-15T08:56:44.664Z</time>
      </trkpt>
      <trkpt lat="47.7116" lon="2.17527">
        <ele>142</ele>
        <time>2017-01-15T08:56:45.665Z</time>
      </trkpt>
      <trkpt lat="47.7116" lon="2.17546">
        <ele>142</ele>
        <time>2017-01-15T08:56:46.667Z</time>
      </trkpt>
      <trkpt lat="47.7116" lon="2.17546">
        <ele>142</ele>
        <time>2017-01-15T08:56:47.665Z</time>
      </trkpt>
      <trkpt lat="47.71159" lon="2.17565">
        <ele>141</ele>
        <time>2017-01-15T08:56:48.629Z</time>
      </trkpt>
      <trkpt lat="47.71159" lon="2.17565">
        <ele>141</ele>
        <time>2017-01-15T08:56:49.665Z</time>
      </trkpt>
      <trkpt lat="47.71158" lon="2.17584">
        <ele>140</ele>
        <time>2017-01-15T08:56:50.628Z</time>
      </trkpt>
      <trkpt lat="47.71158" lon="2.17584">
        <ele>140</ele>
        <time>2017-01-15T08:56:51.665Z</time>
      </trkpt>
      <trkpt lat="47.71158" lon="2.17603">
        <ele>140</ele>
        <time>2017-01-15T08:56:52.629Z</time>
      </trkpt>
      <trkpt lat="47.71158" lon="2.17603">
        <ele>140</ele>
        <time>2017-01-15T08:56:53.666Z</time>
      </trkpt>
      <trkpt lat="47.71156" lon="2.17622">
        <ele>139</ele>
        <time>2017-01-15T08:56:54.629Z</time>
      </trkpt>
      <trkpt lat="47.71156" lon="2.17622">
        <ele>139</ele>
        <time>2017-01-15T08:56:55.666Z</time>
      </trkpt>
      <trkpt lat="47.71155" lon="2.17641">
        <ele>138</ele>
        <time>2017-01-15T08:56:56.628Z</time>
      </trkpt>
      <trkpt lat="47.71155" lon="2.17641">
        <ele>138</ele>
        <time>2017-01-15T08:56:57.665Z</time>
      </trkpt>
      <trkpt lat="47.71153" lon="2.17662">
        <ele>138</ele>
        <time>2017-01-15T08:56:58.667Z</time>
      </trkpt>
      <trkpt lat="47.71152" lon="2.17672">
        <ele>138</ele>
        <time>2017-01-15T08:56:59.628Z</time>
      </trkpt>
      <trkpt lat="47.71152" lon="2.17672">
        <ele>138</ele>
        <time>2017-01-15T08:57:00.667Z</time>
      </trkpt>
      <trkpt lat="47.7115" lon="2.17691">
        <ele>138</ele>
        <time>2017-01-15T08:57:01.667Z</time>
      </trkpt>
      <trkpt lat="47.7115" lon="2.177">
        <ele>137</ele>
        <time>2017-01-15T08:57:02.667Z</time>
      </trkpt>
      <trkpt lat="47.7115" lon="2.177">
        <ele>137</ele>
        <time>2017-01-15T08:57:03.648Z</time>
      </trkpt>
      <trkpt lat="47.7115" lon="2.17718">
        <ele>137</ele>
        <time>2017-01-15T08:57:04.637Z</time>
      </trkpt>
      <trkpt lat="47.71149" lon="2.17727">
        <ele>137</ele>
        <time>2017-01-15T08:57:05.629Z</time>
      </trkpt>
      <trkpt lat="47.71148" lon="2.17736">
        <ele>137</ele>
        <time>2017-01-15T08:57:06.628Z</time>
      </trkpt>
      <trkpt lat="47.71148" lon="2.17736">
        <ele>137</ele>
        <time>2017-01-15T08:57:07.666Z</time>
      </trkpt>
      <trkpt lat="47.71147" lon="2.17757">
        <ele>137</ele>
        <time>2017-01-15T08:57:08.667Z</time>
      </trkpt>
      <trkpt lat="47.71147" lon="2.17757">
        <ele>137</ele>
        <time>2017-01-15T08:57:09.665Z</time>
      </trkpt>
      <trkpt lat="47.71145" lon="2.17776">
        <ele>137</ele>
        <time>2017-01-15T08:57:10.667Z</time>
      </trkpt>
      <trkpt lat="47.71144" lon="2.17786">
        <ele>137</ele>
        <time>2017-01-15T08:57:11.667Z</time>
      </trkpt>
      <trkpt lat="47.71144" lon="2.17786">
        <ele>137</ele>
        <time>2017-01-15T08:57:12.667Z</time>
      </trkpt>
      <trkpt lat="47.71142" lon="2.17804">
        <ele>137</ele>
        <time>2017-01-15T08:57:13.667Z</time>
      </trkpt>
      <trkpt lat="47.71142" lon="2.17813">
        <ele>137</ele>
        <time>2017-01-15T08:57:14.639Z</time>
      </trkpt>
      <trkpt lat="47.71142" lon="2.17813">
        <ele>137</ele>
        <time>2017-01-15T08:57:15.644Z</time>
      </trkpt>
      <trkpt lat="47.7114" lon="2.1783">
        <ele>137</ele>
        <time>2017-01-15T08:57:16.656Z</time>
      </trkpt>
      <trkpt lat="47.7114" lon="2.1783">
        <ele>137</ele>
        <time>2017-01-15T08:57:17.662Z</time>
      </trkpt>
      <trkpt lat="47.71138" lon="2.17847">
        <ele>137</ele>
        <time>2017-01-15T08:57:18.629Z</time>
      </trkpt>
      <trkpt lat="47.71138" lon="2.17847">
        <ele>137</ele>
        <time>2017-01-15T08:57:19.666Z</time>
      </trkpt>
      <trkpt lat="47.71136" lon="2.17865">
        <ele>137</ele>
        <time>2017-01-15T08:57:20.666Z</time>
      </trkpt>
      <trkpt lat="47.71136" lon="2.17865">
        <ele>137</ele>
        <time>2017-01-15T08:57:21.635Z</time>
      </trkpt>
      <trkpt lat="47.71135" lon="2.17884">
        <ele>136</ele>
        <time>2017-01-15T08:57:22.665Z</time>
      </trkpt>
      <trkpt lat="47.71134" lon="2.17893">
        <ele>136</ele>
        <time>2017-01-15T08:57:23.666Z</time>
      </trkpt>
      <trkpt lat="47.71134" lon="2.17902">
        <ele>136</ele>
        <time>2017-01-15T08:57:24.629Z</time>
      </trkpt>
      <trkpt lat="47.71134" lon="2.17902">
        <ele>136</ele>
        <time>2017-01-15T08:57:25.666Z</time>
      </trkpt>
      <trkpt lat="47.71134" lon="2.17921">
        <ele>135</ele>
        <time>2017-01-15T08:57:26.667Z</time>
      </trkpt>
      <trkpt lat="47.71134" lon="2.17921">
        <ele>135</ele>
        <time>2017-01-15T08:57:27.664Z</time>
      </trkpt>
      <trkpt lat="47.71133" lon="2.17939">
        <ele>134</ele>
        <time>2017-01-15T08:57:28.629Z</time>
      </trkpt>
      <trkpt lat="47.71133" lon="2.17947">
        <ele>134</ele>
        <time>2017-01-15T08:57:29.628Z</time>
      </trkpt>
      <trkpt lat="47.71133" lon="2.17956">
        <ele>134</ele>
        <time>2017-01-15T08:57:30.666Z</time>
      </trkpt>
      <trkpt lat="47.71133" lon="2.17956">
        <ele>134</ele>
        <time>2017-01-15T08:57:31.666Z</time>
      </trkpt>
      <trkpt lat="47.71131" lon="2.17975">
        <ele>134</ele>
        <time>2017-01-15T08:57:32.659Z</time>
      </trkpt>
      <trkpt lat="47.71131" lon="2.17984">
        <ele>135</ele>
        <time>2017-01-15T08:57:33.628Z</time>
      </trkpt>
      <trkpt lat="47.71131" lon="2.17984">
        <ele>135</ele>
        <time>2017-01-15T08:57:34.666Z</time>
      </trkpt>
      <trkpt lat="47.7113" lon="2.18003">
        <ele>134</ele>
        <time>2017-01-15T08:57:35.667Z</time>
      </trkpt>
      <trkpt lat="47.71129" lon="2.18012">
        <ele>133</ele>
        <time>2017-01-15T08:57:36.630Z</time>
      </trkpt>
      <trkpt lat="47.71129" lon="2.18012">
        <ele>133</ele>
        <time>2017-01-15T08:57:37.666Z</time>
      </trkpt>
      <trkpt lat="47.71128" lon="2.18031">
        <ele>132</ele>
        <time>2017-01-15T08:57:38.635Z</time>
      </trkpt>
      <trkpt lat="47.71128" lon="2.18031">
        <ele>132</ele>
        <time>2017-01-15T08:57:39.666Z</time>
      </trkpt>
      <trkpt lat="47.71127" lon="2.1805">
        <ele>132</ele>
        <time>2017-01-15T08:57:40.667Z</time>
      </trkpt>
      <trkpt lat="47.71126" lon="2.18059">
        <ele>131</ele>
        <time>2017-01-15T08:57:41.665Z</time>
      </trkpt>
      <trkpt lat="47.71126" lon="2.18059">
        <ele>131</ele>
        <time>2017-01-15T08:57:42.634Z</time>
      </trkpt>
      <trkpt lat="47.71126" lon="2.18077">
        <ele>131</ele>
        <time>2017-01-15T08:57:43.628Z</time>
      </trkpt>
      <trkpt lat="47.71127" lon="2.18085">
        <ele>131</ele>
        <time>2017-01-15T08:57:44.634Z</time>
      </trkpt>
      <trkpt lat="47.71127" lon="2.18085">
        <ele>131</ele>
        <time>2017-01-15T08:57:45.666Z</time>
      </trkpt>
      <trkpt lat="47.71127" lon="2.18101">
        <ele>131</ele>
        <time>2017-01-15T08:57:46.628Z</time>
      </trkpt>
      <trkpt lat="47.71127" lon="2.18101">
        <ele>131</ele>
        <time>2017-01-15T08:57:47.666Z</time>
      </trkpt>
      <trkpt lat="47.71129" lon="2.18117">
        <ele>131</ele>
        <time>2017-01-15T08:57:48.630Z</time>
      </trkpt>
      <trkpt lat="47.71131" lon="2.18126">
        <ele>132</ele>
        <time>2017-01-15T08:57:49.628Z</time>
      </trkpt>
      <trkpt lat="47.71132" lon="2.18134">
        <ele>132</ele>
        <time>2017-01-15T08:57:50.628Z</time>
      </trkpt>
      <trkpt lat="47.71132" lon="2.18134">
        <ele>132</ele>
        <time>2017-01-15T08:57:51.666Z</time>
      </trkpt>
      <trkpt lat="47.71133" lon="2.1815">
        <ele>132</ele>
        <time>2017-01-15T08:57:52.628Z</time>
      </trkpt>
      <trkpt lat="47.71133" lon="2.18158">
        <ele>132</ele>
        <time>2017-01-15T08:57:53.629Z</time>
      </trkpt>
      <trkpt lat="47.71133" lon="2.18158">
        <ele>132</ele>
        <time>2017-01-15T08:57:54.667Z</time>
      </trkpt>
      <trkpt lat="47.71134" lon="2.18175">
        <ele>132</ele>
        <time>2017-01-15T08:57:55.629Z</time>
      </trkpt>
      <trkpt lat="47.71134" lon="2.18184">
        <ele>132</ele>
        <time>2017-01-15T08:57:56.628Z</time>
      </trkpt>
      <trkpt lat="47.71134" lon="2.18184">
        <ele>132</ele>
        <time>2017-01-15T08:57:57.666Z</time>
      </trkpt>
      <trkpt lat="47.71136" lon="2.182">
        <ele>134</ele>
        <time>2017-01-15T08:57:58.667Z</time>
      </trkpt>
      <trkpt lat="47.71136" lon="2.18209">
        <ele>134</ele>
        <time>2017-01-15T08:57:59.628Z</time>
      </trkpt>
      <trkpt lat="47.71136" lon="2.18209">
        <ele>134</ele>
        <time>2017-01-15T08:58:00.667Z</time>
      </trkpt>
      <trkpt lat="47.71136" lon="2.18227">
        <ele>134</ele>
        <time>2017-01-15T08:58:01.667Z</time>
      </trkpt>
      <trkpt lat="47.71137" lon="2.18236">
        <ele>135</ele>
        <time>2017-01-15T08:58:02.639Z</time>
      </trkpt>
      <trkpt lat="47.71137" lon="2.18236">
        <ele>135</ele>
        <time>2017-01-15T08:58:03.628Z</time>
      </trkpt>
      <trkpt lat="47.71137" lon="2.18253">
        <ele>135</ele>
        <time>2017-01-15T08:58:04.628Z</time>
      </trkpt>
      <trkpt lat="47.71137" lon="2.18253">
        <ele>135</ele>
        <time>2017-01-15T08:58:05.666Z</time>
      </trkpt>
      <trkpt lat="47.71135" lon="2.18269">
        <ele>136</ele>
        <time>2017-01-15T08:58:06.629Z</time>
      </trkpt>
      <trkpt lat="47.71135" lon="2.18269">
        <ele>136</ele>
        <time>2017-01-15T08:58:07.666Z</time>
      </trkpt>
      <trkpt lat="47.71134" lon="2.18285">
        <ele>137</ele>
        <time>2017-01-15T08:58:08.629Z</time>
      </trkpt>
      <trkpt lat="47.71134" lon="2.18285">
        <ele>137</ele>
        <time>2017-01-15T08:58:09.666Z</time>
      </trkpt>
      <trkpt lat="47.71134" lon="2.18302">
        <ele>138</ele>
        <time>2017-01-15T08:58:10.628Z</time>
      </trkpt>
      <trkpt lat="47.71135" lon="2.1831">
        <ele>138</ele>
        <time>2017-01-15T08:58:11.628Z</time>
      </trkpt>
      <trkpt lat="47.71135" lon="2.18318">
        <ele>139</ele>
        <time>2017-01-15T08:58:12.629Z</time>
      </trkpt>
      <trkpt lat="47.71135" lon="2.18318">
        <ele>139</ele>
        <time>2017-01-15T08:58:13.666Z</time>
      </trkpt>
      <trkpt lat="47.71136" lon="2.18334">
        <ele>139</ele>
        <time>2017-01-15T08:58:14.639Z</time>
      </trkpt>
      <trkpt lat="47.71136" lon="2.18334">
        <ele>139</ele>
        <time>2017-01-15T08:58:15.642Z</time>
      </trkpt>
      <trkpt lat="47.71137" lon="2.18349">
        <ele>141</ele>
        <time>2017-01-15T08:58:16.630Z</time>
      </trkpt>
      <trkpt lat="47.71137" lon="2.18349">
        <ele>141</ele>
        <time>2017-01-15T08:58:17.666Z</time>
      </trkpt>
      <trkpt lat="47.71137" lon="2.18365">
        <ele>141</ele>
        <time>2017-01-15T08:58:18.630Z</time>
      </trkpt>
      <trkpt lat="47.71137" lon="2.18365">
        <ele>141</ele>
        <time>2017-01-15T08:58:19.667Z</time>
      </trkpt>
      <trkpt lat="47.71137" lon="2.1838">
        <ele>142</ele>
        <time>2017-01-15T08:58:20.628Z</time>
      </trkpt>
      <trkpt lat="47.71137" lon="2.1838">
        <ele>142</ele>
        <time>2017-01-15T08:58:21.667Z</time>
      </trkpt>
      <trkpt lat="47.71137" lon="2.18395">
        <ele>143</ele>
        <time>2017-01-15T08:58:22.630Z</time>
      </trkpt>
      <trkpt lat="47.71137" lon="2.18395">
        <ele>143</ele>
        <time>2017-01-15T08:58:23.667Z</time>
      </trkpt>
      <trkpt lat="47.71138" lon="2.18411">
        <ele>143</ele>
        <time>2017-01-15T08:58:24.631Z</time>
      </trkpt>
      <trkpt lat="47.71138" lon="2.18411">
        <ele>143</ele>
        <time>2017-01-15T08:58:25.666Z</time>
      </trkpt>
      <trkpt lat="47.71138" lon="2.18427">
        <ele>143</ele>
        <time>2017-01-15T08:58:26.628Z</time>
      </trkpt>
      <trkpt lat="47.71138" lon="2.18427">
        <ele>143</ele>
        <time>2017-01-15T08:58:27.666Z</time>
      </trkpt>
      <trkpt lat="47.7114" lon="2.18443">
        <ele>144</ele>
        <time>2017-01-15T08:58:28.628Z</time>
      </trkpt>
      <trkpt lat="47.7114" lon="2.18451">
        <ele>144</ele>
        <time>2017-01-15T08:58:29.628Z</time>
      </trkpt>
      <trkpt lat="47.7114" lon="2.18451">
        <ele>144</ele>
        <time>2017-01-15T08:58:30.667Z</time>
      </trkpt>
      <trkpt lat="47.71139" lon="2.18468">
        <ele>144</ele>
        <time>2017-01-15T08:58:31.628Z</time>
      </trkpt>
      <trkpt lat="47.7114" lon="2.18477">
        <ele>144</ele>
        <time>2017-01-15T08:58:32.628Z</time>
      </trkpt>
      <trkpt lat="47.7114" lon="2.18477">
        <ele>144</ele>
        <time>2017-01-15T08:58:33.666Z</time>
      </trkpt>
      <trkpt lat="47.7114" lon="2.18494">
        <ele>144</ele>
        <time>2017-01-15T08:58:34.628Z</time>
      </trkpt>
      <trkpt lat="47.7114" lon="2.18494">
        <ele>144</ele>
        <time>2017-01-15T08:58:35.666Z</time>
      </trkpt>
      <trkpt lat="47.7114" lon="2.18511">
        <ele>144</ele>
        <time>2017-01-15T08:58:36.666Z</time>
      </trkpt>
      <trkpt lat="47.7114" lon="2.18511">
        <ele>144</ele>
        <time>2017-01-15T08:58:37.666Z</time>
      </trkpt>
      <trkpt lat="47.71139" lon="2.18527">
        <ele>143</ele>
        <time>2017-01-15T08:58:38.629Z</time>
      </trkpt>
      <trkpt lat="47.71139" lon="2.18527">
        <ele>143</ele>
        <time>2017-01-15T08:58:39.667Z</time>
      </trkpt>
      <trkpt lat="47.71139" lon="2.18543">
        <ele>143</ele>
        <time>2017-01-15T08:58:40.628Z</time>
      </trkpt>
      <trkpt lat="47.71139" lon="2.18543">
        <ele>143</ele>
        <time>2017-01-15T08:58:41.666Z</time>
      </trkpt>
      <trkpt lat="47.71138" lon="2.18559">
        <ele>143</ele>
        <time>2017-01-15T08:58:42.667Z</time>
      </trkpt>
      <trkpt lat="47.71138" lon="2.18559">
        <ele>143</ele>
        <time>2017-01-15T08:58:43.666Z</time>
      </trkpt>
      <trkpt lat="47.71138" lon="2.18575">
        <ele>143</ele>
        <time>2017-01-15T08:58:44.629Z</time>
      </trkpt>
      <trkpt lat="47.71138" lon="2.18575">
        <ele>143</ele>
        <time>2017-01-15T08:58:45.665Z</time>
      </trkpt>
      <trkpt lat="47.71137" lon="2.18591">
        <ele>143</ele>
        <time>2017-01-15T08:58:46.629Z</time>
      </trkpt>
      <trkpt lat="47.71137" lon="2.18599">
        <ele>143</ele>
        <time>2017-01-15T08:58:47.628Z</time>
      </trkpt>
      <trkpt lat="47.71137" lon="2.18599">
        <ele>143</ele>
        <time>2017-01-15T08:58:48.629Z</time>
      </trkpt>
      <trkpt lat="47.71136" lon="2.18615">
        <ele>143</ele>
        <time>2017-01-15T08:58:49.629Z</time>
      </trkpt>
      <trkpt lat="47.71136" lon="2.18615">
        <ele>143</ele>
        <time>2017-01-15T08:58:50.666Z</time>
      </trkpt>
      <trkpt lat="47.71135" lon="2.18631">
        <ele>143</ele>
        <time>2017-01-15T08:58:51.628Z</time>
      </trkpt>
      <trkpt lat="47.71135" lon="2.18631">
        <ele>143</ele>
        <time>2017-01-15T08:58:52.629Z</time>
      </trkpt>
      <trkpt lat="47.71135" lon="2.18648">
        <ele>142</ele>
        <time>2017-01-15T08:58:53.665Z</time>
      </trkpt>
      <trkpt lat="47.71135" lon="2.18656">
        <ele>142</ele>
        <time>2017-01-15T08:58:54.630Z</time>
      </trkpt>
      <trkpt lat="47.71135" lon="2.18656">
        <ele>142</ele>
        <time>2017-01-15T08:58:55.666Z</time>
      </trkpt>
      <trkpt lat="47.71136" lon="2.18672">
        <ele>142</ele>
        <time>2017-01-15T08:58:56.630Z</time>
      </trkpt>
      <trkpt lat="47.71136" lon="2.18672">
        <ele>142</ele>
        <time>2017-01-15T08:58:57.667Z</time>
      </trkpt>
      <trkpt lat="47.71136" lon="2.18687">
        <ele>142</ele>
        <time>2017-01-15T08:58:58.638Z</time>
      </trkpt>
      <trkpt lat="47.71136" lon="2.18687">
        <ele>142</ele>
        <time>2017-01-15T08:58:59.667Z</time>
      </trkpt>
      <trkpt lat="47.71136" lon="2.18702">
        <ele>143</ele>
        <time>2017-01-15T08:59:00.667Z</time>
      </trkpt>
      <trkpt lat="47.71136" lon="2.18702">
        <ele>143</ele>
        <time>2017-01-15T08:59:01.666Z</time>
      </trkpt>
      <trkpt lat="47.71137" lon="2.18717">
        <ele>143</ele>
        <time>2017-01-15T08:59:02.628Z</time>
      </trkpt>
      <trkpt lat="47.71137" lon="2.18717">
        <ele>143</ele>
        <time>2017-01-15T08:59:03.658Z</time>
      </trkpt>
      <trkpt lat="47.71139" lon="2.18733">
        <ele>143</ele>
        <time>2017-01-15T08:59:04.628Z</time>
      </trkpt>
      <trkpt lat="47.71139" lon="2.18733">
        <ele>143</ele>
        <time>2017-01-15T08:59:05.667Z</time>
      </trkpt>
      <trkpt lat="47.7114" lon="2.18749">
        <ele>143</ele>
        <time>2017-01-15T08:59:06.630Z</time>
      </trkpt>
      <trkpt lat="47.7114" lon="2.18749">
        <ele>143</ele>
        <time>2017-01-15T08:59:07.666Z</time>
      </trkpt>
      <trkpt lat="47.71142" lon="2.18764">
        <ele>144</ele>
        <time>2017-01-15T08:59:08.629Z</time>
      </trkpt>
      <trkpt lat="47.71143" lon="2.18772">
        <ele>144</ele>
        <time>2017-01-15T08:59:09.629Z</time>
      </trkpt>
      <trkpt lat="47.71143" lon="2.18772">
        <ele>144</ele>
        <time>2017-01-15T08:59:10.666Z</time>
      </trkpt>
      <trkpt lat="47.71143" lon="2.18787">
        <ele>145</ele>
        <time>2017-01-15T08:59:11.628Z</time>
      </trkpt>
      <trkpt lat="47.71143" lon="2.18787">
        <ele>145</ele>
        <time>2017-01-15T08:59:12.628Z</time>
      </trkpt>
      <trkpt lat="47.71143" lon="2.18802">
        <ele>145</ele>
        <time>2017-01-15T08:59:13.628Z</time>
      </trkpt>
      <trkpt lat="47.71143" lon="2.1881">
        <ele>145</ele>
        <time>2017-01-15T08:59:14.641Z</time>
      </trkpt>
      <trkpt lat="47.71143" lon="2.1881">
        <ele>145</ele>
        <time>2017-01-15T08:59:15.633Z</time>
      </trkpt>
      <trkpt lat="47.71143" lon="2.18825">
        <ele>145</ele>
        <time>2017-01-15T08:59:16.628Z</time>
      </trkpt>
      <trkpt lat="47.71143" lon="2.18825">
        <ele>145</ele>
        <time>2017-01-15T08:59:17.667Z</time>
      </trkpt>
      <trkpt lat="47.71144" lon="2.1884">
        <ele>145</ele>
        <time>2017-01-15T08:59:18.631Z</time>
      </trkpt>
      <trkpt lat="47.71144" lon="2.1884">
        <ele>145</ele>
        <time>2017-01-15T08:59:19.628Z</time>
      </trkpt>
      <trkpt lat="47.71144" lon="2.18855">
        <ele>144</ele>
        <time>2017-01-15T08:59:20.630Z</time>
      </trkpt>
      <trkpt lat="47.71143" lon="2.18862">
        <ele>144</ele>
        <time>2017-01-15T08:59:21.629Z</time>
      </trkpt>
      <trkpt lat="47.71143" lon="2.18862">
        <ele>144</ele>
        <time>2017-01-15T08:59:22.628Z</time>
      </trkpt>
      <trkpt lat="47.71144" lon="2.18877">
        <ele>144</ele>
        <time>2017-01-15T08:59:23.661Z</time>
      </trkpt>
      <trkpt lat="47.71145" lon="2.18884">
        <ele>143</ele>
        <time>2017-01-15T08:59:24.630Z</time>
      </trkpt>
      <trkpt lat="47.71145" lon="2.18884">
        <ele>143</ele>
        <time>2017-01-15T08:59:25.666Z</time>
      </trkpt>
      <trkpt lat="47.71146" lon="2.18898">
        <ele>143</ele>
        <time>2017-01-15T08:59:26.629Z</time>
      </trkpt>
      <trkpt lat="47.71146" lon="2.18898">
        <ele>143</ele>
        <time>2017-01-15T08:59:27.666Z</time>
      </trkpt>
      <trkpt lat="47.71147" lon="2.18914">
        <ele>144</ele>
        <time>2017-01-15T08:59:28.629Z</time>
      </trkpt>
      <trkpt lat="47.71147" lon="2.18914">
        <ele>144</ele>
        <time>2017-01-15T08:59:29.667Z</time>
      </trkpt>
      <trkpt lat="47.71145" lon="2.1893">
        <ele>143</ele>
        <time>2017-01-15T08:59:30.630Z</time>
      </trkpt>
      <trkpt lat="47.71145" lon="2.1893">
        <ele>143</ele>
        <time>2017-01-15T08:59:31.666Z</time>
      </trkpt>
      <trkpt lat="47.71144" lon="2.18945">
        <ele>142</ele>
        <time>2017-01-15T08:59:32.629Z</time>
      </trkpt>
      <trkpt lat="47.71144" lon="2.18945">
        <ele>142</ele>
        <time>2017-01-15T08:59:33.630Z</time>
      </trkpt>
      <trkpt lat="47.71143" lon="2.18961">
        <ele>142</ele>
        <time>2017-01-15T08:59:34.667Z</time>
      </trkpt>
      <trkpt lat="47.71143" lon="2.18961">
        <ele>142</ele>
        <time>2017-01-15T08:59:35.666Z</time>
      </trkpt>
      <trkpt lat="47.71142" lon="2.18977">
        <ele>142</ele>
        <time>2017-01-15T08:59:36.630Z</time>
      </trkpt>
      <trkpt lat="47.71142" lon="2.18977">
        <ele>142</ele>
        <time>2017-01-15T08:59:37.667Z</time>
      </trkpt>
      <trkpt lat="47.71142" lon="2.18992">
        <ele>142</ele>
        <time>2017-01-15T08:59:38.628Z</time>
      </trkpt>
      <trkpt lat="47.71141" lon="2.19">
        <ele>142</ele>
        <time>2017-01-15T08:59:39.630Z</time>
      </trkpt>
      <trkpt lat="47.71141" lon="2.19">
        <ele>142</ele>
        <time>2017-01-15T08:59:40.667Z</time>
      </trkpt>
      <trkpt lat="47.71141" lon="2.19015">
        <ele>142</ele>
        <time>2017-01-15T08:59:41.630Z</time>
      </trkpt>
      <trkpt lat="47.71141" lon="2.19023">
        <ele>142</ele>
        <time>2017-01-15T08:59:42.630Z</time>
      </trkpt>
      <trkpt lat="47.71141" lon="2.19023">
        <ele>142</ele>
        <time>2017-01-15T08:59:43.668Z</time>
      </trkpt>
      <trkpt lat="47.71141" lon="2.19038">
        <ele>141</ele>
        <time>2017-01-15T08:59:44.628Z</time>
      </trkpt>
      <trkpt lat="47.7114" lon="2.19045">
        <ele>141</ele>
        <time>2017-01-15T08:59:45.630Z</time>
      </trkpt>
      <trkpt lat="47.7114" lon="2.19045">
        <ele>141</ele>
        <time>2017-01-15T08:59:46.667Z</time>
      </trkpt>
      <trkpt lat="47.71139" lon="2.19059">
        <ele>141</ele>
        <time>2017-01-15T08:59:47.628Z</time>
      </trkpt>
      <trkpt lat="47.71138" lon="2.19066">
        <ele>141</ele>
        <time>2017-01-15T08:59:48.630Z</time>
      </trkpt>
      <trkpt lat="47.71138" lon="2.19066">
        <ele>141</ele>
        <time>2017-01-15T08:59:49.667Z</time>
      </trkpt>
      <trkpt lat="47.71137" lon="2.19081">
        <ele>141</ele>
        <time>2017-01-15T08:59:50.667Z</time>
      </trkpt>
      <trkpt lat="47.71138" lon="2.19088">
        <ele>141</ele>
        <time>2017-01-15T08:59:51.629Z</time>
      </trkpt>
      <trkpt lat="47.71138" lon="2.19088">
        <ele>141</ele>
        <time>2017-01-15T08:59:52.628Z</time>
      </trkpt>
      <trkpt lat="47.71137" lon="2.19101">
        <ele>141</ele>
        <time>2017-01-15T08:59:53.629Z</time>
      </trkpt>
      <trkpt lat="47.71136" lon="2.19108">
        <ele>141</ele>
        <time>2017-01-15T08:59:54.667Z</time>
      </trkpt>
      <trkpt lat="47.71136" lon="2.19108">
        <ele>141</ele>
        <time>2017-01-15T08:59:55.667Z</time>
      </trkpt>
      <trkpt lat="47.71136" lon="2.19122">
        <ele>141</ele>
        <time>2017-01-15T08:59:56.630Z</time>
      </trkpt>
      <trkpt lat="47.71136" lon="2.19122">
        <ele>141</ele>
        <time>2017-01-15T08:59:57.667Z</time>
      </trkpt>
      <trkpt lat="47.71136" lon="2.19135">
        <ele>140</ele>
        <time>2017-01-15T08:59:58.628Z</time>
      </trkpt>
      <trkpt lat="47.71136" lon="2.19143">
        <ele>141</ele>
        <time>2017-01-15T08:59:59.628Z</time>
      </trkpt>
      <trkpt lat="47.71135" lon="2.19151">
        <ele>140</ele>
        <time>2017-01-15T09:00:00.629Z</time>
      </trkpt>
      <trkpt lat="47.71135" lon="2.19151">
        <ele>140</ele>
        <time>2017-01-15T09:00:01.667Z</time>
      </trkpt>
      <trkpt lat="47.71135" lon="2.19167">
        <ele>140</ele>
        <time>2017-01-15T09:00:02.628Z</time>
      </trkpt>
      <trkpt lat="47.71135" lon="2.19167">
        <ele>140</ele>
        <time>2017-01-15T09:00:03.657Z</time>
      </trkpt>
      <trkpt lat="47.71135" lon="2.19182">
        <ele>140</ele>
        <time>2017-01-15T09:00:04.646Z</time>
      </trkpt>
      <trkpt lat="47.71135" lon="2.19182">
        <ele>140</ele>
        <time>2017-01-15T09:00:05.635Z</time>
      </trkpt>
      <trkpt lat="47.71134" lon="2.19195">
        <ele>140</ele>
        <time>2017-01-15T09:00:06.630Z</time>
      </trkpt>
      <trkpt lat="47.71134" lon="2.19195">
        <ele>140</ele>
        <time>2017-01-15T09:00:07.666Z</time>
      </trkpt>
      <trkpt lat="47.71133" lon="2.1921">
        <ele>140</ele>
        <time>2017-01-15T09:00:08.630Z</time>
      </trkpt>
      <trkpt lat="47.71132" lon="2.19218">
        <ele>139</ele>
        <time>2017-01-15T09:00:09.629Z</time>
      </trkpt>
      <trkpt lat="47.71132" lon="2.19218">
        <ele>139</ele>
        <time>2017-01-15T09:00:10.667Z</time>
      </trkpt>
      <trkpt lat="47.71132" lon="2.19233">
        <ele>139</ele>
        <time>2017-01-15T09:00:11.628Z</time>
      </trkpt>
      <trkpt lat="47.71132" lon="2.1924">
        <ele>139</ele>
        <time>2017-01-15T09:00:12.628Z</time>
      </trkpt>
      <trkpt lat="47.71132" lon="2.1924">
        <ele>139</ele>
        <time>2017-01-15T09:00:13.628Z</time>
      </trkpt>
      <trkpt lat="47.71132" lon="2.19255">
        <ele>139</ele>
        <time>2017-01-15T09:00:14.640Z</time>
      </trkpt>
      <trkpt lat="47.71132" lon="2.19255">
        <ele>139</ele>
        <time>2017-01-15T09:00:15.667Z</time>
      </trkpt>
      <trkpt lat="47.71132" lon="2.1927">
        <ele>138</ele>
        <time>2017-01-15T09:00:16.629Z</time>
      </trkpt>
      <trkpt lat="47.71132" lon="2.19277">
        <ele>138</ele>
        <time>2017-01-15T09:00:17.632Z</time>
      </trkpt>
      <trkpt lat="47.71132" lon="2.19285">
        <ele>138</ele>
        <time>2017-01-15T09:00:18.633Z</time>
      </trkpt>
      <trkpt lat="47.71132" lon="2.19285">
        <ele>138</ele>
        <time>2017-01-15T09:00:19.628Z</time>
      </trkpt>
      <trkpt lat="47.71133" lon="2.193">
        <ele>139</ele>
        <time>2017-01-15T09:00:20.630Z</time>
      </trkpt>
      <trkpt lat="47.71133" lon="2.193">
        <ele>139</ele>
        <time>2017-01-15T09:00:21.667Z</time>
      </trkpt>
      <trkpt lat="47.71132" lon="2.19315">
        <ele>139</ele>
        <time>2017-01-15T09:00:22.630Z</time>
      </trkpt>
      <trkpt lat="47.71132" lon="2.19315">
        <ele>139</ele>
        <time>2017-01-15T09:00:23.667Z</time>
      </trkpt>
      <trkpt lat="47.71132" lon="2.19329">
        <ele>140</ele>
        <time>2017-01-15T09:00:24.630Z</time>
      </trkpt>
      <trkpt lat="47.71132" lon="2.19337">
        <ele>140</ele>
        <time>2017-01-15T09:00:25.630Z</time>
      </trkpt>
      <trkpt lat="47.71132" lon="2.19344">
        <ele>140</ele>
        <time>2017-01-15T09:00:26.629Z</time>
      </trkpt>
      <trkpt lat="47.71132" lon="2.19344">
        <ele>140</ele>
        <time>2017-01-15T09:00:27.667Z</time>
      </trkpt>
      <trkpt lat="47.71131" lon="2.1936">
        <ele>140</ele>
        <time>2017-01-15T09:00:28.629Z</time>
      </trkpt>
      <trkpt lat="47.71131" lon="2.19368">
        <ele>140</ele>
        <time>2017-01-15T09:00:29.628Z</time>
      </trkpt>
      <trkpt lat="47.71131" lon="2.19375">
        <ele>140</ele>
        <time>2017-01-15T09:00:30.630Z</time>
      </trkpt>
      <trkpt lat="47.71131" lon="2.19375">
        <ele>140</ele>
        <time>2017-01-15T09:00:31.667Z</time>
      </trkpt>
      <trkpt lat="47.71133" lon="2.19392">
        <ele>140</ele>
        <time>2017-01-15T09:00:32.630Z</time>
      </trkpt>
      <trkpt lat="47.71133" lon="2.19392">
        <ele>140</ele>
        <time>2017-01-15T09:00:33.628Z</time>
      </trkpt>
      <trkpt lat="47.71132" lon="2.19408">
        <ele>140</ele>
        <time>2017-01-15T09:00:34.628Z</time>
      </trkpt>
      <trkpt lat="47.71132" lon="2.19417">
        <ele>140</ele>
        <time>2017-01-15T09:00:35.629Z</time>
      </trkpt>
      <trkpt lat="47.71131" lon="2.19425">
        <ele>140</ele>
        <time>2017-01-15T09:00:36.630Z</time>
      </trkpt>
      <trkpt lat="47.71131" lon="2.19425">
        <ele>140</ele>
        <time>2017-01-15T09:00:37.667Z</time>
      </trkpt>
      <trkpt lat="47.71133" lon="2.19441">
        <ele>141</ele>
        <time>2017-01-15T09:00:38.652Z</time>
      </trkpt>
      <trkpt lat="47.71133" lon="2.19441">
        <ele>141</ele>
        <time>2017-01-15T09:00:39.642Z</time>
      </trkpt>
      <trkpt lat="47.71132" lon="2.19458">
        <ele>141</ele>
        <time>2017-01-15T09:00:40.631Z</time>
      </trkpt>
      <trkpt lat="47.71132" lon="2.19458">
        <ele>141</ele>
        <time>2017-01-15T09:00:41.667Z</time>
      </trkpt>
      <trkpt lat="47.71132" lon="2.19473">
        <ele>141</ele>
        <time>2017-01-15T09:00:42.630Z</time>
      </trkpt>
      <trkpt lat="47.71132" lon="2.19473">
        <ele>141</ele>
        <time>2017-01-15T09:00:43.667Z</time>
      </trkpt>
      <trkpt lat="47.71131" lon="2.19488">
        <ele>141</ele>
        <time>2017-01-15T09:00:44.629Z</time>
      </trkpt>
      <trkpt lat="47.71131" lon="2.19496">
        <ele>141</ele>
        <time>2017-01-15T09:00:45.629Z</time>
      </trkpt>
      <trkpt lat="47.71131" lon="2.19496">
        <ele>141</ele>
        <time>2017-01-15T09:00:46.667Z</time>
      </trkpt>
      <trkpt lat="47.7113" lon="2.19511">
        <ele>141</ele>
        <time>2017-01-15T09:00:47.629Z</time>
      </trkpt>
      <trkpt lat="47.71131" lon="2.19518">
        <ele>141</ele>
        <time>2017-01-15T09:00:48.633Z</time>
      </trkpt>
      <trkpt lat="47.71131" lon="2.19518">
        <ele>141</ele>
        <time>2017-01-15T09:00:49.667Z</time>
      </trkpt>
      <trkpt lat="47.71132" lon="2.19533">
        <ele>142</ele>
        <time>2017-01-15T09:00:50.630Z</time>
      </trkpt>
      <trkpt lat="47.71131" lon="2.1954">
        <ele>142</ele>
        <time>2017-01-15T09:00:51.629Z</time>
      </trkpt>
      <trkpt lat="47.71131" lon="2.1954">
        <ele>142</ele>
        <time>2017-01-15T09:00:52.667Z</time>
      </trkpt>
      <trkpt lat="47.71132" lon="2.19554">
        <ele>143</ele>
        <time>2017-01-15T09:00:53.666Z</time>
      </trkpt>
      <trkpt lat="47.71132" lon="2.19554">
        <ele>143</ele>
        <time>2017-01-15T09:00:54.628Z</time>
      </trkpt>
      <trkpt lat="47.71132" lon="2.1957">
        <ele>142</ele>
        <time>2017-01-15T09:00:55.629Z</time>
      </trkpt>
      <trkpt lat="47.71132" lon="2.19578">
        <ele>142</ele>
        <time>2017-01-15T09:00:56.630Z</time>
      </trkpt>
      <trkpt lat="47.71132" lon="2.19578">
        <ele>142</ele>
        <time>2017-01-15T09:00:57.667Z</time>
      </trkpt>
      <trkpt lat="47.71132" lon="2.19593">
        <ele>142</ele>
        <time>2017-01-15T09:00:58.666Z</time>
      </trkpt>
      <trkpt lat="47.71132" lon="2.19601">
        <ele>142</ele>
        <time>2017-01-15T09:00:59.629Z</time>
      </trkpt>
      <trkpt lat="47.71132" lon="2.19601">
        <ele>142</ele>
        <time>2017-01-15T09:01:00.628Z</time>
      </trkpt>
      <trkpt lat="47.71132" lon="2.19616">
        <ele>142</ele>
        <time>2017-01-15T09:01:01.629Z</time>
      </trkpt>
      <trkpt lat="47.71132" lon="2.19624">
        <ele>142</ele>
        <time>2017-01-15T09:01:02.628Z</time>
      </trkpt>
      <trkpt lat="47.71132" lon="2.19624">
        <ele>142</ele>
        <time>2017-01-15T09:01:03.648Z</time>
      </trkpt>
      <trkpt lat="47.71132" lon="2.19639">
        <ele>141</ele>
        <time>2017-01-15T09:01:04.636Z</time>
      </trkpt>
      <trkpt lat="47.71132" lon="2.19647">
        <ele>142</ele>
        <time>2017-01-15T09:01:05.629Z</time>
      </trkpt>
      <trkpt lat="47.71132" lon="2.19655">
        <ele>142</ele>
        <time>2017-01-15T09:01:06.644Z</time>
      </trkpt>
      <trkpt lat="47.71132" lon="2.19662">
        <ele>141</ele>
        <time>2017-01-15T09:01:07.633Z</time>
      </trkpt>
      <trkpt lat="47.71132" lon="2.19662">
        <ele>141</ele>
        <time>2017-01-15T09:01:08.629Z</time>
      </trkpt>
      <trkpt lat="47.71132" lon="2.19678">
        <ele>141</ele>
        <time>2017-01-15T09:01:09.628Z</time>
      </trkpt>
      <trkpt lat="47.71131" lon="2.19685">
        <ele>140</ele>
        <time>2017-01-15T09:01:10.666Z</time>
      </trkpt>
      <trkpt lat="47.71131" lon="2.19685">
        <ele>140</ele>
        <time>2017-01-15T09:01:11.667Z</time>
      </trkpt>
      <trkpt lat="47.7113" lon="2.197">
        <ele>140</ele>
        <time>2017-01-15T09:01:12.629Z</time>
      </trkpt>
      <trkpt lat="47.7113" lon="2.197">
        <ele>140</ele>
        <time>2017-01-15T09:01:13.632Z</time>
      </trkpt>
      <trkpt lat="47.71131" lon="2.19716">
        <ele>140</ele>
        <time>2017-01-15T09:01:14.640Z</time>
      </trkpt>
      <trkpt lat="47.71131" lon="2.19724">
        <ele>139</ele>
        <time>2017-01-15T09:01:15.666Z</time>
      </trkpt>
      <trkpt lat="47.71131" lon="2.19724">
        <ele>139</ele>
        <time>2017-01-15T09:01:16.667Z</time>
      </trkpt>
      <trkpt lat="47.71131" lon="2.19739">
        <ele>140</ele>
        <time>2017-01-15T09:01:17.631Z</time>
      </trkpt>
      <trkpt lat="47.7113" lon="2.19746">
        <ele>140</ele>
        <time>2017-01-15T09:01:18.631Z</time>
      </trkpt>
      <trkpt lat="47.7113" lon="2.19746">
        <ele>140</ele>
        <time>2017-01-15T09:01:19.628Z</time>
      </trkpt>
      <trkpt lat="47.7113" lon="2.19761">
        <ele>140</ele>
        <time>2017-01-15T09:01:20.632Z</time>
      </trkpt>
      <trkpt lat="47.7113" lon="2.19761">
        <ele>140</ele>
        <time>2017-01-15T09:01:21.667Z</time>
      </trkpt>
      <trkpt lat="47.71131" lon="2.19777">
        <ele>141</ele>
        <time>2017-01-15T09:01:22.630Z</time>
      </trkpt>
      <trkpt lat="47.71131" lon="2.19777">
        <ele>141</ele>
        <time>2017-01-15T09:01:23.667Z</time>
      </trkpt>
      <trkpt lat="47.71131" lon="2.19793">
        <ele>142</ele>
        <time>2017-01-15T09:01:24.628Z</time>
      </trkpt>
      <trkpt lat="47.71131" lon="2.19801">
        <ele>142</ele>
        <time>2017-01-15T09:01:25.630Z</time>
      </trkpt>
      <trkpt lat="47.71131" lon="2.19809">
        <ele>142</ele>
        <time>2017-01-15T09:01:26.630Z</time>
      </trkpt>
      <trkpt lat="47.71131" lon="2.19809">
        <ele>142</ele>
        <time>2017-01-15T09:01:27.667Z</time>
      </trkpt>
      <trkpt lat="47.71131" lon="2.19826">
        <ele>142</ele>
        <time>2017-01-15T09:01:28.632Z</time>
      </trkpt>
      <trkpt lat="47.71131" lon="2.19826">
        <ele>142</ele>
        <time>2017-01-15T09:01:29.667Z</time>
      </trkpt>
      <trkpt lat="47.71131" lon="2.19842">
        <ele>141</ele>
        <time>2017-01-15T09:01:30.631Z</time>
      </trkpt>
      <trkpt lat="47.71131" lon="2.19842">
        <ele>141</ele>
        <time>2017-01-15T09:01:31.667Z</time>
      </trkpt>
      <trkpt lat="47.71132" lon="2.19858">
        <ele>141</ele>
        <time>2017-01-15T09:01:32.629Z</time>
      </trkpt>
      <trkpt lat="47.71132" lon="2.19858">
        <ele>141</ele>
        <time>2017-01-15T09:01:33.633Z</time>
      </trkpt>
      <trkpt lat="47.71132" lon="2.19874">
        <ele>141</ele>
        <time>2017-01-15T09:01:34.653Z</time>
      </trkpt>
      <trkpt lat="47.71132" lon="2.19882">
        <ele>140</ele>
        <time>2017-01-15T09:01:35.648Z</time>
      </trkpt>
      <trkpt lat="47.71132" lon="2.1989">
        <ele>140</ele>
        <time>2017-01-15T09:01:36.638Z</time>
      </trkpt>
      <trkpt lat="47.71132" lon="2.1989">
        <ele>140</ele>
        <time>2017-01-15T09:01:37.667Z</time>
      </trkpt>
      <trkpt lat="47.71132" lon="2.19907">
        <ele>139</ele>
        <time>2017-01-15T09:01:38.630Z</time>
      </trkpt>
      <trkpt lat="47.71132" lon="2.19907">
        <ele>139</ele>
        <time>2017-01-15T09:01:39.667Z</time>
      </trkpt>
      <trkpt lat="47.71131" lon="2.19922">
        <ele>137</ele>
        <time>2017-01-15T09:01:40.629Z</time>
      </trkpt>
      <trkpt lat="47.7113" lon="2.1993">
        <ele>137</ele>
        <time>2017-01-15T09:01:41.629Z</time>
      </trkpt>
      <trkpt lat="47.7113" lon="2.1993">
        <ele>137</ele>
        <time>2017-01-15T09:01:42.628Z</time>
      </trkpt>
      <trkpt lat="47.71131" lon="2.19945">
        <ele>137</ele>
        <time>2017-01-15T09:01:43.629Z</time>
      </trkpt>
      <trkpt lat="47.71132" lon="2.19952">
        <ele>137</ele>
        <time>2017-01-15T09:01:44.629Z</time>
      </trkpt>
      <trkpt lat="47.71132" lon="2.19952">
        <ele>137</ele>
        <time>2017-01-15T09:01:45.628Z</time>
      </trkpt>
      <trkpt lat="47.71133" lon="2.19966">
        <ele>136</ele>
        <time>2017-01-15T09:01:46.630Z</time>
      </trkpt>
      <trkpt lat="47.71133" lon="2.19966">
        <ele>136</ele>
        <time>2017-01-15T09:01:47.668Z</time>
      </trkpt>
      <trkpt lat="47.71132" lon="2.19982">
        <ele>135</ele>
        <time>2017-01-15T09:01:48.631Z</time>
      </trkpt>
      <trkpt lat="47.7113" lon="2.1999">
        <ele>134</ele>
        <time>2017-01-15T09:01:49.631Z</time>
      </trkpt>
      <trkpt lat="47.7113" lon="2.1999">
        <ele>134</ele>
        <time>2017-01-15T09:01:50.667Z</time>
      </trkpt>
      <trkpt lat="47.7113" lon="2.20006">
        <ele>133</ele>
        <time>2017-01-15T09:01:51.630Z</time>
      </trkpt>
      <trkpt lat="47.7113" lon="2.20006">
        <ele>133</ele>
        <time>2017-01-15T09:01:52.667Z</time>
      </trkpt>
      <trkpt lat="47.71128" lon="2.20022">
        <ele>131</ele>
        <time>2017-01-15T09:01:53.629Z</time>
      </trkpt>
      <trkpt lat="47.71128" lon="2.2003">
        <ele>131</ele>
        <time>2017-01-15T09:01:54.667Z</time>
      </trkpt>
      <trkpt lat="47.71128" lon="2.2003">
        <ele>131</ele>
        <time>2017-01-15T09:01:55.667Z</time>
      </trkpt>
      <trkpt lat="47.71126" lon="2.20047">
        <ele>130</ele>
        <time>2017-01-15T09:01:56.629Z</time>
      </trkpt>
      <trkpt lat="47.71126" lon="2.20047">
        <ele>130</ele>
        <time>2017-01-15T09:01:57.667Z</time>
      </trkpt>
      <trkpt lat="47.71126" lon="2.20064">
        <ele>129</ele>
        <time>2017-01-15T09:01:58.650Z</time>
      </trkpt>
      <trkpt lat="47.71126" lon="2.20064">
        <ele>129</ele>
        <time>2017-01-15T09:01:59.667Z</time>
      </trkpt>
      <trkpt lat="47.71126" lon="2.2008">
        <ele>128</ele>
        <time>2017-01-15T09:02:00.631Z</time>
      </trkpt>
      <trkpt lat="47.71126" lon="2.2008">
        <ele>128</ele>
        <time>2017-01-15T09:02:01.668Z</time>
      </trkpt>
      <trkpt lat="47.71125" lon="2.20097">
        <ele>128</ele>
        <time>2017-01-15T09:02:02.630Z</time>
      </trkpt>
      <trkpt lat="47.71125" lon="2.20097">
        <ele>128</ele>
        <time>2017-01-15T09:02:03.636Z</time>
      </trkpt>
      <trkpt lat="47.71126" lon="2.20113">
        <ele>129</ele>
        <time>2017-01-15T09:02:04.630Z</time>
      </trkpt>
      <trkpt lat="47.71127" lon="2.2012">
        <ele>130</ele>
        <time>2017-01-15T09:02:05.667Z</time>
      </trkpt>
      <trkpt lat="47.71127" lon="2.20128">
        <ele>130</ele>
        <time>2017-01-15T09:02:06.631Z</time>
      </trkpt>
      <trkpt lat="47.71127" lon="2.20128">
        <ele>130</ele>
        <time>2017-01-15T09:02:07.667Z</time>
      </trkpt>
      <trkpt lat="47.71127" lon="2.20142">
        <ele>130</ele>
        <time>2017-01-15T09:02:08.630Z</time>
      </trkpt>
      <trkpt lat="47.71127" lon="2.20142">
        <ele>130</ele>
        <time>2017-01-15T09:02:09.628Z</time>
      </trkpt>
      <trkpt lat="47.71127" lon="2.20158">
        <ele>130</ele>
        <time>2017-01-15T09:02:10.667Z</time>
      </trkpt>
      <trkpt lat="47.71127" lon="2.20158">
        <ele>130</ele>
        <time>2017-01-15T09:02:11.668Z</time>
      </trkpt>
      <trkpt lat="47.71127" lon="2.20173">
        <ele>129</ele>
        <time>2017-01-15T09:02:12.631Z</time>
      </trkpt>
      <trkpt lat="47.71127" lon="2.20173">
        <ele>129</ele>
        <time>2017-01-15T09:02:13.668Z</time>
      </trkpt>
      <trkpt lat="47.71131" lon="2.20188">
        <ele>130</ele>
        <time>2017-01-15T09:02:14.642Z</time>
      </trkpt>
      <trkpt lat="47.71131" lon="2.20195">
        <ele>130</ele>
        <time>2017-01-15T09:02:15.650Z</time>
      </trkpt>
      <trkpt lat="47.71131" lon="2.20195">
        <ele>130</ele>
        <time>2017-01-15T09:02:16.638Z</time>
      </trkpt>
      <trkpt lat="47.71133" lon="2.2021">
        <ele>131</ele>
        <time>2017-01-15T09:02:17.630Z</time>
      </trkpt>
      <trkpt lat="47.71133" lon="2.2021">
        <ele>131</ele>
        <time>2017-01-15T09:02:18.629Z</time>
      </trkpt>
      <trkpt lat="47.71134" lon="2.20225">
        <ele>131</ele>
        <time>2017-01-15T09:02:19.636Z</time>
      </trkpt>
      <trkpt lat="47.71135" lon="2.20233">
        <ele>131</ele>
        <time>2017-01-15T09:02:20.631Z</time>
      </trkpt>
      <trkpt lat="47.71135" lon="2.20233">
        <ele>131</ele>
        <time>2017-01-15T09:02:21.628Z</time>
      </trkpt>
      <trkpt lat="47.71138" lon="2.20248">
        <ele>131</ele>
        <time>2017-01-15T09:02:22.628Z</time>
      </trkpt>
      <trkpt lat="47.71138" lon="2.20248">
        <ele>131</ele>
        <time>2017-01-15T09:02:23.628Z</time>
      </trkpt>
      <trkpt lat="47.71141" lon="2.20263">
        <ele>131</ele>
        <time>2017-01-15T09:02:24.630Z</time>
      </trkpt>
      <trkpt lat="47.71141" lon="2.20263">
        <ele>131</ele>
        <time>2017-01-15T09:02:25.661Z</time>
      </trkpt>
      <trkpt lat="47.71143" lon="2.20278">
        <ele>132</ele>
        <time>2017-01-15T09:02:26.666Z</time>
      </trkpt>
      <trkpt lat="47.71145" lon="2.20285">
        <ele>132</ele>
        <time>2017-01-15T09:02:27.630Z</time>
      </trkpt>
      <trkpt lat="47.71146" lon="2.20293">
        <ele>133</ele>
        <time>2017-01-15T09:02:28.632Z</time>
      </trkpt>
      <trkpt lat="47.71146" lon="2.20293">
        <ele>133</ele>
        <time>2017-01-15T09:02:29.628Z</time>
      </trkpt>
      <trkpt lat="47.71147" lon="2.20309">
        <ele>133</ele>
        <time>2017-01-15T09:02:30.631Z</time>
      </trkpt>
      <trkpt lat="47.71147" lon="2.20309">
        <ele>133</ele>
        <time>2017-01-15T09:02:31.668Z</time>
      </trkpt>
      <trkpt lat="47.71148" lon="2.20325">
        <ele>133</ele>
        <time>2017-01-15T09:02:32.632Z</time>
      </trkpt>
      <trkpt lat="47.71148" lon="2.20325">
        <ele>133</ele>
        <time>2017-01-15T09:02:33.633Z</time>
      </trkpt>
      <trkpt lat="47.71149" lon="2.20341">
        <ele>133</ele>
        <time>2017-01-15T09:02:34.629Z</time>
      </trkpt>
      <trkpt lat="47.71149" lon="2.20341">
        <ele>133</ele>
        <time>2017-01-15T09:02:35.668Z</time>
      </trkpt>
      <trkpt lat="47.71147" lon="2.20358">
        <ele>133</ele>
        <time>2017-01-15T09:02:36.630Z</time>
      </trkpt>
      <trkpt lat="47.71147" lon="2.20358">
        <ele>133</ele>
        <time>2017-01-15T09:02:37.668Z</time>
      </trkpt>
      <trkpt lat="47.71147" lon="2.20373">
        <ele>134</ele>
        <time>2017-01-15T09:02:38.646Z</time>
      </trkpt>
      <trkpt lat="47.71149" lon="2.20378">
        <ele>134</ele>
        <time>2017-01-15T09:02:39.647Z</time>
      </trkpt>
      <trkpt lat="47.7115" lon="2.20383">
        <ele>135</ele>
        <time>2017-01-15T09:02:40.636Z</time>
      </trkpt>
      <trkpt lat="47.71151" lon="2.20387">
        <ele>135</ele>
        <time>2017-01-15T09:02:41.630Z</time>
      </trkpt>
      <trkpt lat="47.71151" lon="2.20387">
        <ele>135</ele>
        <time>2017-01-15T09:02:42.629Z</time>
      </trkpt>
      <trkpt lat="47.71153" lon="2.20394">
        <ele>135</ele>
        <time>2017-01-15T09:02:43.630Z</time>
      </trkpt>
      <trkpt lat="47.71154" lon="2.20397">
        <ele>135</ele>
        <time>2017-01-15T09:02:44.630Z</time>
      </trkpt>
      <trkpt lat="47.71154" lon="2.20397">
        <ele>135</ele>
        <time>2017-01-15T09:02:45.660Z</time>
      </trkpt>
      <trkpt lat="47.71156" lon="2.20398">
        <ele>135</ele>
        <time>2017-01-15T09:02:46.630Z</time>
      </trkpt>
      <trkpt lat="47.71156" lon="2.20398">
        <ele>135</ele>
        <time>2017-01-15T09:02:47.628Z</time>
      </trkpt>
      <trkpt lat="47.71157" lon="2.20399">
        <ele>136</ele>
        <time>2017-01-15T09:02:48.629Z</time>
      </trkpt>
      <trkpt lat="47.71157" lon="2.20399">
        <ele>136</ele>
        <time>2017-01-15T09:02:49.668Z</time>
      </trkpt>
      <trkpt lat="47.71157" lon="2.20399">
        <ele>136</ele>
        <time>2017-01-15T09:02:50.638Z</time>
      </trkpt>
      <trkpt lat="47.71157" lon="2.20399">
        <ele>136</ele>
        <time>2017-01-15T09:02:51.634Z</time>
      </trkpt>
      <trkpt lat="47.71154" lon="2.20396">
        <ele>135</ele>
        <time>2017-01-15T09:02:52.630Z</time>
      </trkpt>
      <trkpt lat="47.71154" lon="2.20396">
        <ele>135</ele>
        <time>2017-01-15T09:02:53.628Z</time>
      </trkpt>
      <trkpt lat="47.71151" lon="2.20396">
        <ele>135</ele>
        <time>2017-01-15T09:02:54.628Z</time>
      </trkpt>
      <trkpt lat="47.71151" lon="2.20396">
        <ele>135</ele>
        <time>2017-01-15T09:02:55.662Z</time>
      </trkpt>
      <trkpt lat="47.71149" lon="2.20399">
        <ele>135</ele>
        <time>2017-01-15T09:02:56.665Z</time>
      </trkpt>
      <trkpt lat="47.71149" lon="2.20399">
        <ele>135</ele>
        <time>2017-01-15T09:02:57.663Z</time>
      </trkpt>
      <trkpt lat="47.71148" lon="2.20405">
        <ele>135</ele>
        <time>2017-01-15T09:02:58.666Z</time>
      </trkpt>
      <trkpt lat="47.71148" lon="2.20405">
        <ele>135</ele>
        <time>2017-01-15T09:02:59.663Z</time>
      </trkpt>
      <trkpt lat="47.71148" lon="2.20411">
        <ele>135</ele>
        <time>2017-01-15T09:03:00.665Z</time>
      </trkpt>
      <trkpt lat="47.71148" lon="2.20411">
        <ele>135</ele>
        <time>2017-01-15T09:03:01.663Z</time>
      </trkpt>
      <trkpt lat="47.71148" lon="2.20419">
        <ele>135</ele>
        <time>2017-01-15T09:03:02.665Z</time>
      </trkpt>
      <trkpt lat="47.71148" lon="2.20419">
        <ele>135</ele>
        <time>2017-01-15T09:03:03.663Z</time>
      </trkpt>
      <trkpt lat="47.71147" lon="2.20429">
        <ele>135</ele>
        <time>2017-01-15T09:03:04.664Z</time>
      </trkpt>
      <trkpt lat="47.71147" lon="2.20434">
        <ele>135</ele>
        <time>2017-01-15T09:03:05.665Z</time>
      </trkpt>
      <trkpt lat="47.71148" lon="2.2044">
        <ele>135</ele>
        <time>2017-01-15T09:03:06.666Z</time>
      </trkpt>
      <trkpt lat="47.71148" lon="2.2044">
        <ele>135</ele>
        <time>2017-01-15T09:03:07.663Z</time>
      </trkpt>
      <trkpt lat="47.71149" lon="2.20451">
        <ele>134</ele>
        <time>2017-01-15T09:03:08.665Z</time>
      </trkpt>
      <trkpt lat="47.71149" lon="2.20451">
        <ele>134</ele>
        <time>2017-01-15T09:03:09.663Z</time>
      </trkpt>
      <trkpt lat="47.7115" lon="2.20463">
        <ele>134</ele>
        <time>2017-01-15T09:03:10.664Z</time>
      </trkpt>
      <trkpt lat="47.71151" lon="2.20469">
        <ele>134</ele>
        <time>2017-01-15T09:03:11.665Z</time>
      </trkpt>
      <trkpt lat="47.71151" lon="2.20475">
        <ele>133</ele>
        <time>2017-01-15T09:03:12.663Z</time>
      </trkpt>
      <trkpt lat="47.71151" lon="2.20475">
        <ele>133</ele>
        <time>2017-01-15T09:03:13.663Z</time>
      </trkpt>
      <trkpt lat="47.71152" lon="2.20487">
        <ele>133</ele>
        <time>2017-01-15T09:03:14.661Z</time>
      </trkpt>
      <trkpt lat="47.71152" lon="2.20487">
        <ele>133</ele>
        <time>2017-01-15T09:03:15.630Z</time>
      </trkpt>
      <trkpt lat="47.71154" lon="2.20499">
        <ele>133</ele>
        <time>2017-01-15T09:03:16.636Z</time>
      </trkpt>
      <trkpt lat="47.71154" lon="2.20499">
        <ele>133</ele>
        <time>2017-01-15T09:03:17.642Z</time>
      </trkpt>
      <trkpt lat="47.71155" lon="2.20512">
        <ele>133</ele>
        <time>2017-01-15T09:03:18.633Z</time>
      </trkpt>
      <trkpt lat="47.71155" lon="2.20512">
        <ele>133</ele>
        <time>2017-01-15T09:03:19.630Z</time>
      </trkpt>
      <trkpt lat="47.71155" lon="2.20524">
        <ele>132</ele>
        <time>2017-01-15T09:03:20.666Z</time>
      </trkpt>
      <trkpt lat="47.71155" lon="2.20524">
        <ele>132</ele>
        <time>2017-01-15T09:03:21.663Z</time>
      </trkpt>
      <trkpt lat="47.71156" lon="2.20538">
        <ele>133</ele>
        <time>2017-01-15T09:03:22.665Z</time>
      </trkpt>
      <trkpt lat="47.71156" lon="2.20538">
        <ele>133</ele>
        <time>2017-01-15T09:03:23.663Z</time>
      </trkpt>
      <trkpt lat="47.71157" lon="2.20551">
        <ele>133</ele>
        <time>2017-01-15T09:03:24.629Z</time>
      </trkpt>
      <trkpt lat="47.71157" lon="2.20551">
        <ele>133</ele>
        <time>2017-01-15T09:03:25.663Z</time>
      </trkpt>
      <trkpt lat="47.7116" lon="2.20564">
        <ele>133</ele>
        <time>2017-01-15T09:03:26.665Z</time>
      </trkpt>
      <trkpt lat="47.7116" lon="2.20564">
        <ele>133</ele>
        <time>2017-01-15T09:03:27.663Z</time>
      </trkpt>
      <trkpt lat="47.71162" lon="2.20576">
        <ele>134</ele>
        <time>2017-01-15T09:03:28.665Z</time>
      </trkpt>
      <trkpt lat="47.71163" lon="2.20583">
        <ele>133</ele>
        <time>2017-01-15T09:03:29.665Z</time>
      </trkpt>
      <trkpt lat="47.71164" lon="2.20589">
        <ele>133</ele>
        <time>2017-01-15T09:03:30.666Z</time>
      </trkpt>
      <trkpt lat="47.71164" lon="2.20589">
        <ele>133</ele>
        <time>2017-01-15T09:03:31.663Z</time>
      </trkpt>
      <trkpt lat="47.71167" lon="2.20603">
        <ele>133</ele>
        <time>2017-01-15T09:03:32.664Z</time>
      </trkpt>
      <trkpt lat="47.71167" lon="2.20603">
        <ele>133</ele>
        <time>2017-01-15T09:03:33.663Z</time>
      </trkpt>
      <trkpt lat="47.71168" lon="2.20617">
        <ele>133</ele>
        <time>2017-01-15T09:03:34.666Z</time>
      </trkpt>
      <trkpt lat="47.71168" lon="2.20617">
        <ele>133</ele>
        <time>2017-01-15T09:03:35.663Z</time>
      </trkpt>
      <trkpt lat="47.7117" lon="2.20631">
        <ele>132</ele>
        <time>2017-01-15T09:03:36.666Z</time>
      </trkpt>
      <trkpt lat="47.7117" lon="2.20631">
        <ele>132</ele>
        <time>2017-01-15T09:03:37.664Z</time>
      </trkpt>
      <trkpt lat="47.71172" lon="2.20645">
        <ele>132</ele>
        <time>2017-01-15T09:03:38.648Z</time>
      </trkpt>
      <trkpt lat="47.71172" lon="2.20645">
        <ele>132</ele>
        <time>2017-01-15T09:03:39.664Z</time>
      </trkpt>
      <trkpt lat="47.71173" lon="2.20658">
        <ele>132</ele>
        <time>2017-01-15T09:03:40.663Z</time>
      </trkpt>
      <trkpt lat="47.71173" lon="2.20658">
        <ele>132</ele>
        <time>2017-01-15T09:03:41.663Z</time>
      </trkpt>
      <trkpt lat="47.71175" lon="2.20672">
        <ele>132</ele>
        <time>2017-01-15T09:03:42.666Z</time>
      </trkpt>
      <trkpt lat="47.71175" lon="2.20672">
        <ele>132</ele>
        <time>2017-01-15T09:03:43.664Z</time>
      </trkpt>
      <trkpt lat="47.71177" lon="2.20686">
        <ele>132</ele>
        <time>2017-01-15T09:03:44.664Z</time>
      </trkpt>
      <trkpt lat="47.71178" lon="2.20693">
        <ele>132</ele>
        <time>2017-01-15T09:03:45.666Z</time>
      </trkpt>
      <trkpt lat="47.71178" lon="2.20693">
        <ele>132</ele>
        <time>2017-01-15T09:03:46.663Z</time>
      </trkpt>
      <trkpt lat="47.7118" lon="2.20707">
        <ele>132</ele>
        <time>2017-01-15T09:03:47.666Z</time>
      </trkpt>
      <trkpt lat="47.7118" lon="2.20714">
        <ele>132</ele>
        <time>2017-01-15T09:03:48.666Z</time>
      </trkpt>
      <trkpt lat="47.7118" lon="2.20714">
        <ele>132</ele>
        <time>2017-01-15T09:03:49.663Z</time>
      </trkpt>
      <trkpt lat="47.71183" lon="2.20728">
        <ele>131</ele>
        <time>2017-01-15T09:03:50.666Z</time>
      </trkpt>
      <trkpt lat="47.71183" lon="2.20728">
        <ele>131</ele>
        <time>2017-01-15T09:03:51.663Z</time>
      </trkpt>
      <trkpt lat="47.71185" lon="2.20743">
        <ele>132</ele>
        <time>2017-01-15T09:03:52.665Z</time>
      </trkpt>
      <trkpt lat="47.71185" lon="2.20743">
        <ele>132</ele>
        <time>2017-01-15T09:03:53.663Z</time>
      </trkpt>
      <trkpt lat="47.71188" lon="2.20757">
        <ele>132</ele>
        <time>2017-01-15T09:03:54.643Z</time>
      </trkpt>
      <trkpt lat="47.71189" lon="2.20764">
        <ele>132</ele>
        <time>2017-01-15T09:03:55.640Z</time>
      </trkpt>
      <trkpt lat="47.7119" lon="2.20771">
        <ele>131</ele>
        <time>2017-01-15T09:03:56.631Z</time>
      </trkpt>
      <trkpt lat="47.7119" lon="2.20771">
        <ele>131</ele>
        <time>2017-01-15T09:03:57.663Z</time>
      </trkpt>
      <trkpt lat="47.71192" lon="2.20784">
        <ele>131</ele>
        <time>2017-01-15T09:03:58.665Z</time>
      </trkpt>
      <trkpt lat="47.71192" lon="2.20784">
        <ele>131</ele>
        <time>2017-01-15T09:03:59.663Z</time>
      </trkpt>
      <trkpt lat="47.71194" lon="2.20798">
        <ele>131</ele>
        <time>2017-01-15T09:04:00.666Z</time>
      </trkpt>
      <trkpt lat="47.71194" lon="2.20798">
        <ele>131</ele>
        <time>2017-01-15T09:04:01.663Z</time>
      </trkpt>
      <trkpt lat="47.71196" lon="2.20811">
        <ele>131</ele>
        <time>2017-01-15T09:04:02.666Z</time>
      </trkpt>
      <trkpt lat="47.71196" lon="2.20811">
        <ele>131</ele>
        <time>2017-01-15T09:04:03.663Z</time>
      </trkpt>
      <trkpt lat="47.71198" lon="2.20825">
        <ele>131</ele>
        <time>2017-01-15T09:04:04.629Z</time>
      </trkpt>
      <trkpt lat="47.71199" lon="2.20831">
        <ele>130</ele>
        <time>2017-01-15T09:04:05.665Z</time>
      </trkpt>
      <trkpt lat="47.712" lon="2.20838">
        <ele>130</ele>
        <time>2017-01-15T09:04:06.666Z</time>
      </trkpt>
      <trkpt lat="47.712" lon="2.20838">
        <ele>130</ele>
        <time>2017-01-15T09:04:07.663Z</time>
      </trkpt>
      <trkpt lat="47.71203" lon="2.20852">
        <ele>131</ele>
        <time>2017-01-15T09:04:08.666Z</time>
      </trkpt>
      <trkpt lat="47.71203" lon="2.20852">
        <ele>131</ele>
        <time>2017-01-15T09:04:09.662Z</time>
      </trkpt>
      <trkpt lat="47.71205" lon="2.20866">
        <ele>131</ele>
        <time>2017-01-15T09:04:10.665Z</time>
      </trkpt>
      <trkpt lat="47.71205" lon="2.20866">
        <ele>131</ele>
        <time>2017-01-15T09:04:11.663Z</time>
      </trkpt>
      <trkpt lat="47.71207" lon="2.20879">
        <ele>131</ele>
        <time>2017-01-15T09:04:12.664Z</time>
      </trkpt>
      <trkpt lat="47.71207" lon="2.20879">
        <ele>131</ele>
        <time>2017-01-15T09:04:13.662Z</time>
      </trkpt>
      <trkpt lat="47.71209" lon="2.20893">
        <ele>131</ele>
        <time>2017-01-15T09:04:14.638Z</time>
      </trkpt>
      <trkpt lat="47.7121" lon="2.209">
        <ele>131</ele>
        <time>2017-01-15T09:04:15.657Z</time>
      </trkpt>
      <trkpt lat="47.7121" lon="2.209">
        <ele>131</ele>
        <time>2017-01-15T09:04:16.663Z</time>
      </trkpt>
      <trkpt lat="47.71212" lon="2.20914">
        <ele>130</ele>
        <time>2017-01-15T09:04:17.629Z</time>
      </trkpt>
      <trkpt lat="47.71213" lon="2.20921">
        <ele>130</ele>
        <time>2017-01-15T09:04:18.629Z</time>
      </trkpt>
      <trkpt lat="47.71213" lon="2.20921">
        <ele>130</ele>
        <time>2017-01-15T09:04:19.662Z</time>
      </trkpt>
      <trkpt lat="47.71216" lon="2.20935">
        <ele>130</ele>
        <time>2017-01-15T09:04:20.665Z</time>
      </trkpt>
      <trkpt lat="47.71216" lon="2.20935">
        <ele>130</ele>
        <time>2017-01-15T09:04:21.663Z</time>
      </trkpt>
      <trkpt lat="47.71219" lon="2.20949">
        <ele>130</ele>
        <time>2017-01-15T09:04:22.665Z</time>
      </trkpt>
      <trkpt lat="47.71219" lon="2.20949">
        <ele>130</ele>
        <time>2017-01-15T09:04:23.663Z</time>
      </trkpt>
      <trkpt lat="47.71221" lon="2.20963">
        <ele>130</ele>
        <time>2017-01-15T09:04:24.666Z</time>
      </trkpt>
      <trkpt lat="47.71221" lon="2.20963">
        <ele>130</ele>
        <time>2017-01-15T09:04:25.663Z</time>
      </trkpt>
      <trkpt lat="47.71223" lon="2.20977">
        <ele>130</ele>
        <time>2017-01-15T09:04:26.664Z</time>
      </trkpt>
      <trkpt lat="47.71223" lon="2.20977">
        <ele>130</ele>
        <time>2017-01-15T09:04:27.663Z</time>
      </trkpt>
      <trkpt lat="47.71226" lon="2.20991">
        <ele>130</ele>
        <time>2017-01-15T09:04:28.665Z</time>
      </trkpt>
      <trkpt lat="47.71226" lon="2.20991">
        <ele>130</ele>
        <time>2017-01-15T09:04:29.663Z</time>
      </trkpt>
      <trkpt lat="47.7123" lon="2.21006">
        <ele>130</ele>
        <time>2017-01-15T09:04:30.667Z</time>
      </trkpt>
      <trkpt lat="47.7123" lon="2.21006">
        <ele>130</ele>
        <time>2017-01-15T09:04:31.663Z</time>
      </trkpt>
      <trkpt lat="47.71232" lon="2.2102">
        <ele>129</ele>
        <time>2017-01-15T09:04:32.666Z</time>
      </trkpt>
      <trkpt lat="47.71232" lon="2.2102">
        <ele>129</ele>
        <time>2017-01-15T09:04:33.663Z</time>
      </trkpt>
      <trkpt lat="47.71235" lon="2.21035">
        <ele>129</ele>
        <time>2017-01-15T09:04:34.664Z</time>
      </trkpt>
      <trkpt lat="47.71237" lon="2.21042">
        <ele>130</ele>
        <time>2017-01-15T09:04:35.666Z</time>
      </trkpt>
      <trkpt lat="47.71239" lon="2.2105">
        <ele>130</ele>
        <time>2017-01-15T09:04:36.667Z</time>
      </trkpt>
      <trkpt lat="47.71239" lon="2.2105">
        <ele>130</ele>
        <time>2017-01-15T09:04:37.663Z</time>
      </trkpt>
      <trkpt lat="47.71242" lon="2.21064">
        <ele>130</ele>
        <time>2017-01-15T09:04:38.665Z</time>
      </trkpt>
      <trkpt lat="47.71242" lon="2.21064">
        <ele>130</ele>
        <time>2017-01-15T09:04:39.637Z</time>
      </trkpt>
      <trkpt lat="47.71245" lon="2.21078">
        <ele>130</ele>
        <time>2017-01-15T09:04:40.665Z</time>
      </trkpt>
      <trkpt lat="47.71245" lon="2.21078">
        <ele>130</ele>
        <time>2017-01-15T09:04:41.663Z</time>
      </trkpt>
      <trkpt lat="47.71248" lon="2.21092">
        <ele>130</ele>
        <time>2017-01-15T09:04:42.667Z</time>
      </trkpt>
      <trkpt lat="47.71248" lon="2.21092">
        <ele>130</ele>
        <time>2017-01-15T09:04:43.665Z</time>
      </trkpt>
      <trkpt lat="47.7125" lon="2.21104">
        <ele>129</ele>
        <time>2017-01-15T09:04:44.667Z</time>
      </trkpt>
      <trkpt lat="47.7125" lon="2.21104">
        <ele>129</ele>
        <time>2017-01-15T09:04:45.663Z</time>
      </trkpt>
      <trkpt lat="47.71252" lon="2.21117">
        <ele>129</ele>
        <time>2017-01-15T09:04:46.666Z</time>
      </trkpt>
      <trkpt lat="47.71252" lon="2.21117">
        <ele>129</ele>
        <time>2017-01-15T09:04:47.663Z</time>
      </trkpt>
      <trkpt lat="47.71254" lon="2.2113">
        <ele>129</ele>
        <time>2017-01-15T09:04:48.663Z</time>
      </trkpt>
      <trkpt lat="47.71254" lon="2.2113">
        <ele>129</ele>
        <time>2017-01-15T09:04:49.663Z</time>
      </trkpt>
      <trkpt lat="47.71256" lon="2.21143">
        <ele>128</ele>
        <time>2017-01-15T09:04:50.666Z</time>
      </trkpt>
      <trkpt lat="47.71256" lon="2.21143">
        <ele>128</ele>
        <time>2017-01-15T09:04:51.663Z</time>
      </trkpt>
      <trkpt lat="47.71258" lon="2.21156">
        <ele>129</ele>
        <time>2017-01-15T09:04:52.666Z</time>
      </trkpt>
      <trkpt lat="47.71258" lon="2.21156">
        <ele>129</ele>
        <time>2017-01-15T09:04:53.663Z</time>
      </trkpt>
      <trkpt lat="47.7126" lon="2.21169">
        <ele>129</ele>
        <time>2017-01-15T09:04:54.666Z</time>
      </trkpt>
      <trkpt lat="47.7126" lon="2.21169">
        <ele>129</ele>
        <time>2017-01-15T09:04:55.660Z</time>
      </trkpt>
      <trkpt lat="47.7126" lon="2.21181">
        <ele>129</ele>
        <time>2017-01-15T09:04:56.666Z</time>
      </trkpt>
      <trkpt lat="47.7126" lon="2.21188">
        <ele>129</ele>
        <time>2017-01-15T09:04:57.663Z</time>
      </trkpt>
      <trkpt lat="47.7126" lon="2.21188">
        <ele>129</ele>
        <time>2017-01-15T09:04:58.663Z</time>
      </trkpt>
      <trkpt lat="47.71261" lon="2.21198">
        <ele>128</ele>
        <time>2017-01-15T09:04:59.663Z</time>
      </trkpt>
      <trkpt lat="47.71261" lon="2.21201">
        <ele>128</ele>
        <time>2017-01-15T09:05:00.659Z</time>
      </trkpt>
      <trkpt lat="47.71261" lon="2.21201">
        <ele>128</ele>
        <time>2017-01-15T09:05:01.663Z</time>
      </trkpt>
      <trkpt lat="47.71263" lon="2.21205">
        <ele>129</ele>
        <time>2017-01-15T09:05:02.666Z</time>
      </trkpt>
      <trkpt lat="47.71263" lon="2.21205">
        <ele>129</ele>
        <time>2017-01-15T09:05:03.665Z</time>
      </trkpt>
      <trkpt lat="47.71267" lon="2.21211">
        <ele>132</ele>
        <time>2017-01-15T09:05:04.635Z</time>
      </trkpt>
      <trkpt lat="47.71267" lon="2.21211">
        <ele>132</ele>
        <time>2017-01-15T09:05:05.664Z</time>
      </trkpt>
      <trkpt lat="47.71266" lon="2.21218">
        <ele>132</ele>
        <time>2017-01-15T09:05:06.667Z</time>
      </trkpt>
      <trkpt lat="47.71266" lon="2.21218">
        <ele>132</ele>
        <time>2017-01-15T09:05:07.663Z</time>
      </trkpt>
      <trkpt lat="47.71267" lon="2.21227">
        <ele>132</ele>
        <time>2017-01-15T09:05:08.666Z</time>
      </trkpt>
      <trkpt lat="47.71267" lon="2.21227">
        <ele>132</ele>
        <time>2017-01-15T09:05:09.663Z</time>
      </trkpt>
      <trkpt lat="47.71267" lon="2.21237">
        <ele>132</ele>
        <time>2017-01-15T09:05:10.664Z</time>
      </trkpt>
      <trkpt lat="47.71267" lon="2.21237">
        <ele>132</ele>
        <time>2017-01-15T09:05:11.663Z</time>
      </trkpt>
      <trkpt lat="47.71268" lon="2.21247">
        <ele>132</ele>
        <time>2017-01-15T09:05:12.628Z</time>
      </trkpt>
      <trkpt lat="47.71268" lon="2.21247">
        <ele>132</ele>
        <time>2017-01-15T09:05:13.663Z</time>
      </trkpt>
      <trkpt lat="47.71268" lon="2.21257">
        <ele>132</ele>
        <time>2017-01-15T09:05:14.666Z</time>
      </trkpt>
      <trkpt lat="47.71268" lon="2.21262">
        <ele>132</ele>
        <time>2017-01-15T09:05:15.655Z</time>
      </trkpt>
      <trkpt lat="47.71269" lon="2.21266">
        <ele>132</ele>
        <time>2017-01-15T09:05:16.661Z</time>
      </trkpt>
      <trkpt lat="47.71269" lon="2.21266">
        <ele>132</ele>
        <time>2017-01-15T09:05:17.667Z</time>
      </trkpt>
      <trkpt lat="47.7127" lon="2.21275">
        <ele>132</ele>
        <time>2017-01-15T09:05:18.667Z</time>
      </trkpt>
      <trkpt lat="47.7127" lon="2.21275">
        <ele>132</ele>
        <time>2017-01-15T09:05:19.631Z</time>
      </trkpt>
      <trkpt lat="47.71271" lon="2.21283">
        <ele>132</ele>
        <time>2017-01-15T09:05:20.666Z</time>
      </trkpt>
      <trkpt lat="47.71271" lon="2.21283">
        <ele>132</ele>
        <time>2017-01-15T09:05:21.659Z</time>
      </trkpt>
      <trkpt lat="47.71271" lon="2.21291">
        <ele>131</ele>
        <time>2017-01-15T09:05:22.666Z</time>
      </trkpt>
      <trkpt lat="47.71271" lon="2.21291">
        <ele>131</ele>
        <time>2017-01-15T09:05:23.664Z</time>
      </trkpt>
      <trkpt lat="47.71269" lon="2.21301">
        <ele>131</ele>
        <time>2017-01-15T09:05:24.666Z</time>
      </trkpt>
      <trkpt lat="47.71269" lon="2.21301">
        <ele>131</ele>
        <time>2017-01-15T09:05:25.659Z</time>
      </trkpt>
      <trkpt lat="47.71267" lon="2.2131">
        <ele>131</ele>
        <time>2017-01-15T09:05:26.665Z</time>
      </trkpt>
      <trkpt lat="47.71267" lon="2.2131">
        <ele>131</ele>
        <time>2017-01-15T09:05:27.659Z</time>
      </trkpt>
      <trkpt lat="47.71266" lon="2.21322">
        <ele>131</ele>
        <time>2017-01-15T09:05:28.665Z</time>
      </trkpt>
      <trkpt lat="47.71266" lon="2.21322">
        <ele>131</ele>
        <time>2017-01-15T09:05:29.660Z</time>
      </trkpt>
      <trkpt lat="47.71267" lon="2.21333">
        <ele>131</ele>
        <time>2017-01-15T09:05:30.666Z</time>
      </trkpt>
      <trkpt lat="47.71267" lon="2.21333">
        <ele>131</ele>
        <time>2017-01-15T09:05:31.664Z</time>
      </trkpt>
      <trkpt lat="47.71269" lon="2.21345">
        <ele>131</ele>
        <time>2017-01-15T09:05:32.665Z</time>
      </trkpt>
      <trkpt lat="47.71269" lon="2.21345">
        <ele>131</ele>
        <time>2017-01-15T09:05:33.665Z</time>
      </trkpt>
      <trkpt lat="47.7127" lon="2.21358">
        <ele>130</ele>
        <time>2017-01-15T09:05:34.665Z</time>
      </trkpt>
      <trkpt lat="47.7127" lon="2.21358">
        <ele>130</ele>
        <time>2017-01-15T09:05:35.654Z</time>
      </trkpt>
      <trkpt lat="47.71271" lon="2.21371">
        <ele>130</ele>
        <time>2017-01-15T09:05:36.641Z</time>
      </trkpt>
      <trkpt lat="47.71271" lon="2.21371">
        <ele>130</ele>
        <time>2017-01-15T09:05:37.640Z</time>
      </trkpt>
      <trkpt lat="47.71271" lon="2.21385">
        <ele>130</ele>
        <time>2017-01-15T09:05:38.667Z</time>
      </trkpt>
      <trkpt lat="47.71271" lon="2.21385">
        <ele>130</ele>
        <time>2017-01-15T09:05:39.664Z</time>
      </trkpt>
      <trkpt lat="47.71267" lon="2.21396">
        <ele>130</ele>
        <time>2017-01-15T09:05:40.665Z</time>
      </trkpt>
      <trkpt lat="47.71267" lon="2.21396">
        <ele>130</ele>
        <time>2017-01-15T09:05:41.664Z</time>
      </trkpt>
      <trkpt lat="47.71261" lon="2.21405">
        <ele>130</ele>
        <time>2017-01-15T09:05:42.628Z</time>
      </trkpt>
      <trkpt lat="47.71261" lon="2.21405">
        <ele>130</ele>
        <time>2017-01-15T09:05:43.664Z</time>
      </trkpt>
      <trkpt lat="47.71255" lon="2.21415">
        <ele>130</ele>
        <time>2017-01-15T09:05:44.665Z</time>
      </trkpt>
      <trkpt lat="47.71255" lon="2.21415">
        <ele>130</ele>
        <time>2017-01-15T09:05:45.662Z</time>
      </trkpt>
      <trkpt lat="47.71249" lon="2.21426">
        <ele>130</ele>
        <time>2017-01-15T09:05:46.666Z</time>
      </trkpt>
      <trkpt lat="47.71249" lon="2.21426">
        <ele>130</ele>
        <time>2017-01-15T09:05:47.663Z</time>
      </trkpt>
      <trkpt lat="47.71244" lon="2.21437">
        <ele>130</ele>
        <time>2017-01-15T09:05:48.667Z</time>
      </trkpt>
      <trkpt lat="47.71244" lon="2.21437">
        <ele>130</ele>
        <time>2017-01-15T09:05:49.664Z</time>
      </trkpt>
      <trkpt lat="47.7124" lon="2.21447">
        <ele>130</ele>
        <time>2017-01-15T09:05:50.666Z</time>
      </trkpt>
      <trkpt lat="47.71238" lon="2.21453">
        <ele>130</ele>
        <time>2017-01-15T09:05:51.628Z</time>
      </trkpt>
      <trkpt lat="47.71238" lon="2.21453">
        <ele>130</ele>
        <time>2017-01-15T09:05:52.663Z</time>
      </trkpt>
      <trkpt lat="47.71234" lon="2.21465">
        <ele>129</ele>
        <time>2017-01-15T09:05:53.666Z</time>
      </trkpt>
      <trkpt lat="47.71233" lon="2.21471">
        <ele>129</ele>
        <time>2017-01-15T09:05:54.666Z</time>
      </trkpt>
      <trkpt lat="47.71232" lon="2.21476">
        <ele>129</ele>
        <time>2017-01-15T09:05:55.630Z</time>
      </trkpt>
      <trkpt lat="47.71232" lon="2.21476">
        <ele>129</ele>
        <time>2017-01-15T09:05:56.663Z</time>
      </trkpt>
      <trkpt lat="47.71229" lon="2.21487">
        <ele>129</ele>
        <time>2017-01-15T09:05:57.666Z</time>
      </trkpt>
      <trkpt lat="47.71229" lon="2.21487">
        <ele>129</ele>
        <time>2017-01-15T09:05:58.664Z</time>
      </trkpt>
      <trkpt lat="47.71226" lon="2.21499">
        <ele>129</ele>
        <time>2017-01-15T09:05:59.665Z</time>
      </trkpt>
      <trkpt lat="47.71224" lon="2.21505">
        <ele>129</ele>
        <time>2017-01-15T09:06:00.667Z</time>
      </trkpt>
      <trkpt lat="47.71224" lon="2.21505">
        <ele>129</ele>
        <time>2017-01-15T09:06:01.664Z</time>
      </trkpt>
      <trkpt lat="47.71221" lon="2.21517">
        <ele>129</ele>
        <time>2017-01-15T09:06:02.635Z</time>
      </trkpt>
      <trkpt lat="47.71221" lon="2.21517">
        <ele>129</ele>
        <time>2017-01-15T09:06:03.665Z</time>
      </trkpt>
      <trkpt lat="47.71219" lon="2.21528">
        <ele>129</ele>
        <time>2017-01-15T09:06:04.636Z</time>
      </trkpt>
      <trkpt lat="47.71219" lon="2.21528">
        <ele>129</ele>
        <time>2017-01-15T09:06:05.665Z</time>
      </trkpt>
      <trkpt lat="47.71217" lon="2.21541">
        <ele>129</ele>
        <time>2017-01-15T09:06:06.667Z</time>
      </trkpt>
      <trkpt lat="47.71217" lon="2.21541">
        <ele>129</ele>
        <time>2017-01-15T09:06:07.664Z</time>
      </trkpt>
      <trkpt lat="47.71217" lon="2.21553">
        <ele>129</ele>
        <time>2017-01-15T09:06:08.666Z</time>
      </trkpt>
      <trkpt lat="47.71217" lon="2.21559">
        <ele>129</ele>
        <time>2017-01-15T09:06:09.667Z</time>
      </trkpt>
      <trkpt lat="47.71217" lon="2.21559">
        <ele>129</ele>
        <time>2017-01-15T09:06:10.664Z</time>
      </trkpt>
      <trkpt lat="47.71219" lon="2.21571">
        <ele>129</ele>
        <time>2017-01-15T09:06:11.667Z</time>
      </trkpt>
      <trkpt lat="47.71221" lon="2.21576">
        <ele>130</ele>
        <time>2017-01-15T09:06:12.667Z</time>
      </trkpt>
      <trkpt lat="47.71221" lon="2.21576">
        <ele>130</ele>
        <time>2017-01-15T09:06:13.664Z</time>
      </trkpt>
      <trkpt lat="47.71225" lon="2.21587">
        <ele>130</ele>
        <time>2017-01-15T09:06:14.637Z</time>
      </trkpt>
      <trkpt lat="47.71228" lon="2.21592">
        <ele>130</ele>
        <time>2017-01-15T09:06:15.653Z</time>
      </trkpt>
      <trkpt lat="47.71231" lon="2.21597">
        <ele>130</ele>
        <time>2017-01-15T09:06:16.660Z</time>
      </trkpt>
      <trkpt lat="47.71231" lon="2.21597">
        <ele>130</ele>
        <time>2017-01-15T09:06:17.665Z</time>
      </trkpt>
      <trkpt lat="47.71236" lon="2.21606">
        <ele>130</ele>
        <time>2017-01-15T09:06:18.665Z</time>
      </trkpt>
      <trkpt lat="47.71236" lon="2.21606">
        <ele>130</ele>
        <time>2017-01-15T09:06:19.630Z</time>
      </trkpt>
      <trkpt lat="47.71242" lon="2.21616">
        <ele>130</ele>
        <time>2017-01-15T09:06:20.666Z</time>
      </trkpt>
      <trkpt lat="47.71242" lon="2.21616">
        <ele>130</ele>
        <time>2017-01-15T09:06:21.664Z</time>
      </trkpt>
      <trkpt lat="47.71247" lon="2.21625">
        <ele>129</ele>
        <time>2017-01-15T09:06:22.666Z</time>
      </trkpt>
      <trkpt lat="47.71247" lon="2.21625">
        <ele>129</ele>
        <time>2017-01-15T09:06:23.664Z</time>
      </trkpt>
      <trkpt lat="47.71253" lon="2.21634">
        <ele>129</ele>
        <time>2017-01-15T09:06:24.668Z</time>
      </trkpt>
      <trkpt lat="47.71253" lon="2.21634">
        <ele>129</ele>
        <time>2017-01-15T09:06:25.664Z</time>
      </trkpt>
      <trkpt lat="47.71259" lon="2.21643">
        <ele>129</ele>
        <time>2017-01-15T09:06:26.663Z</time>
      </trkpt>
      <trkpt lat="47.71259" lon="2.21643">
        <ele>129</ele>
        <time>2017-01-15T09:06:27.660Z</time>
      </trkpt>
      <trkpt lat="47.71265" lon="2.21652">
        <ele>129</ele>
        <time>2017-01-15T09:06:28.665Z</time>
      </trkpt>
      <trkpt lat="47.71268" lon="2.21656">
        <ele>129</ele>
        <time>2017-01-15T09:06:29.666Z</time>
      </trkpt>
      <trkpt lat="47.7127" lon="2.2166">
        <ele>129</ele>
        <time>2017-01-15T09:06:30.628Z</time>
      </trkpt>
      <trkpt lat="47.7127" lon="2.2166">
        <ele>129</ele>
        <time>2017-01-15T09:06:31.663Z</time>
      </trkpt>
      <trkpt lat="47.71274" lon="2.21669">
        <ele>129</ele>
        <time>2017-01-15T09:06:32.665Z</time>
      </trkpt>
      <trkpt lat="47.71277" lon="2.21674">
        <ele>129</ele>
        <time>2017-01-15T09:06:33.666Z</time>
      </trkpt>
      <trkpt lat="47.71277" lon="2.21674">
        <ele>129</ele>
        <time>2017-01-15T09:06:34.659Z</time>
      </trkpt>
      <trkpt lat="47.71283" lon="2.21682">
        <ele>130</ele>
        <time>2017-01-15T09:06:35.666Z</time>
      </trkpt>
      <trkpt lat="47.71286" lon="2.21687">
        <ele>130</ele>
        <time>2017-01-15T09:06:36.628Z</time>
      </trkpt>
      <trkpt lat="47.71286" lon="2.21687">
        <ele>130</ele>
        <time>2017-01-15T09:06:37.664Z</time>
      </trkpt>
      <trkpt lat="47.71291" lon="2.21697">
        <ele>131</ele>
        <time>2017-01-15T09:06:38.666Z</time>
      </trkpt>
      <trkpt lat="47.71291" lon="2.21697">
        <ele>131</ele>
        <time>2017-01-15T09:06:39.659Z</time>
      </trkpt>
      <trkpt lat="47.71296" lon="2.21707">
        <ele>131</ele>
        <time>2017-01-15T09:06:40.628Z</time>
      </trkpt>
      <trkpt lat="47.71296" lon="2.21707">
        <ele>131</ele>
        <time>2017-01-15T09:06:41.660Z</time>
      </trkpt>
      <trkpt lat="47.71301" lon="2.21717">
        <ele>131</ele>
        <time>2017-01-15T09:06:42.668Z</time>
      </trkpt>
      <trkpt lat="47.71301" lon="2.21717">
        <ele>131</ele>
        <time>2017-01-15T09:06:43.660Z</time>
      </trkpt>
      <trkpt lat="47.71307" lon="2.21725">
        <ele>131</ele>
        <time>2017-01-15T09:06:44.630Z</time>
      </trkpt>
      <trkpt lat="47.71307" lon="2.21725">
        <ele>131</ele>
        <time>2017-01-15T09:06:45.664Z</time>
      </trkpt>
      <trkpt lat="47.71315" lon="2.21731">
        <ele>132</ele>
        <time>2017-01-15T09:06:46.666Z</time>
      </trkpt>
      <trkpt lat="47.71319" lon="2.21734">
        <ele>132</ele>
        <time>2017-01-15T09:06:47.665Z</time>
      </trkpt>
      <trkpt lat="47.71323" lon="2.21736">
        <ele>132</ele>
        <time>2017-01-15T09:06:48.665Z</time>
      </trkpt>
      <trkpt lat="47.71323" lon="2.21736">
        <ele>132</ele>
        <time>2017-01-15T09:06:49.659Z</time>
      </trkpt>
      <trkpt lat="47.71331" lon="2.21741">
        <ele>133</ele>
        <time>2017-01-15T09:06:50.666Z</time>
      </trkpt>
      <trkpt lat="47.71331" lon="2.21741">
        <ele>133</ele>
        <time>2017-01-15T09:06:51.656Z</time>
      </trkpt>
      <trkpt lat="47.7134" lon="2.21746">
        <ele>133</ele>
        <time>2017-01-15T09:06:52.665Z</time>
      </trkpt>
      <trkpt lat="47.7134" lon="2.21746">
        <ele>133</ele>
        <time>2017-01-15T09:06:53.659Z</time>
      </trkpt>
      <trkpt lat="47.71349" lon="2.21752">
        <ele>134</ele>
        <time>2017-01-15T09:06:54.633Z</time>
      </trkpt>
      <trkpt lat="47.71349" lon="2.21752">
        <ele>134</ele>
        <time>2017-01-15T09:06:55.664Z</time>
      </trkpt>
      <trkpt lat="47.71357" lon="2.21757">
        <ele>135</ele>
        <time>2017-01-15T09:06:56.665Z</time>
      </trkpt>
      <trkpt lat="47.71361" lon="2.2176">
        <ele>135</ele>
        <time>2017-01-15T09:06:57.665Z</time>
      </trkpt>
      <trkpt lat="47.71361" lon="2.2176">
        <ele>135</ele>
        <time>2017-01-15T09:06:58.658Z</time>
      </trkpt>
      <trkpt lat="47.71369" lon="2.21766">
        <ele>135</ele>
        <time>2017-01-15T09:06:59.645Z</time>
      </trkpt>
      <trkpt lat="47.71374" lon="2.21769">
        <ele>135</ele>
        <time>2017-01-15T09:07:00.636Z</time>
      </trkpt>
      <trkpt lat="47.71374" lon="2.21769">
        <ele>135</ele>
        <time>2017-01-15T09:07:01.665Z</time>
      </trkpt>
      <trkpt lat="47.71381" lon="2.21776">
        <ele>136</ele>
        <time>2017-01-15T09:07:02.666Z</time>
      </trkpt>
      <trkpt lat="47.71381" lon="2.21776">
        <ele>136</ele>
        <time>2017-01-15T09:07:03.660Z</time>
      </trkpt>
      <trkpt lat="47.71389" lon="2.21782">
        <ele>136</ele>
        <time>2017-01-15T09:07:04.665Z</time>
      </trkpt>
      <trkpt lat="47.71393" lon="2.21785">
        <ele>136</ele>
        <time>2017-01-15T09:07:05.666Z</time>
      </trkpt>
      <trkpt lat="47.71393" lon="2.21785">
        <ele>136</ele>
        <time>2017-01-15T09:07:06.665Z</time>
      </trkpt>
      <trkpt lat="47.71401" lon="2.2179">
        <ele>137</ele>
        <time>2017-01-15T09:07:07.667Z</time>
      </trkpt>
      <trkpt lat="47.71406" lon="2.21793">
        <ele>137</ele>
        <time>2017-01-15T09:07:08.666Z</time>
      </trkpt>
      <trkpt lat="47.71406" lon="2.21793">
        <ele>137</ele>
        <time>2017-01-15T09:07:09.659Z</time>
      </trkpt>
      <trkpt lat="47.71416" lon="2.218">
        <ele>137</ele>
        <time>2017-01-15T09:07:10.629Z</time>
      </trkpt>
      <trkpt lat="47.71416" lon="2.218">
        <ele>137</ele>
        <time>2017-01-15T09:07:11.660Z</time>
      </trkpt>
      <trkpt lat="47.71426" lon="2.21806">
        <ele>136</ele>
        <time>2017-01-15T09:07:12.628Z</time>
      </trkpt>
      <trkpt lat="47.71426" lon="2.21806">
        <ele>136</ele>
        <time>2017-01-15T09:07:13.660Z</time>
      </trkpt>
      <trkpt lat="47.71435" lon="2.21813">
        <ele>136</ele>
        <time>2017-01-15T09:07:14.640Z</time>
      </trkpt>
      <trkpt lat="47.71435" lon="2.21813">
        <ele>136</ele>
        <time>2017-01-15T09:07:15.667Z</time>
      </trkpt>
      <trkpt lat="47.71445" lon="2.2182">
        <ele>136</ele>
        <time>2017-01-15T09:07:16.665Z</time>
      </trkpt>
      <trkpt lat="47.7145" lon="2.21824">
        <ele>135</ele>
        <time>2017-01-15T09:07:17.664Z</time>
      </trkpt>
      <trkpt lat="47.71455" lon="2.21827">
        <ele>135</ele>
        <time>2017-01-15T09:07:18.628Z</time>
      </trkpt>
      <trkpt lat="47.71455" lon="2.21827">
        <ele>135</ele>
        <time>2017-01-15T09:07:19.664Z</time>
      </trkpt>
      <trkpt lat="47.71466" lon="2.21834">
        <ele>135</ele>
        <time>2017-01-15T09:07:20.667Z</time>
      </trkpt>
      <trkpt lat="47.71471" lon="2.21838">
        <ele>135</ele>
        <time>2017-01-15T09:07:21.667Z</time>
      </trkpt>
      <trkpt lat="47.71471" lon="2.21838">
        <ele>135</ele>
        <time>2017-01-15T09:07:22.660Z</time>
      </trkpt>
      <trkpt lat="47.71481" lon="2.21845">
        <ele>134</ele>
        <time>2017-01-15T09:07:23.663Z</time>
      </trkpt>
      <trkpt lat="47.71486" lon="2.21848">
        <ele>134</ele>
        <time>2017-01-15T09:07:24.628Z</time>
      </trkpt>
      <trkpt lat="47.71486" lon="2.21848">
        <ele>134</ele>
        <time>2017-01-15T09:07:25.660Z</time>
      </trkpt>
      <trkpt lat="47.71496" lon="2.21855">
        <ele>134</ele>
        <time>2017-01-15T09:07:26.665Z</time>
      </trkpt>
      <trkpt lat="47.71501" lon="2.21859">
        <ele>134</ele>
        <time>2017-01-15T09:07:27.666Z</time>
      </trkpt>
      <trkpt lat="47.71501" lon="2.21859">
        <ele>134</ele>
        <time>2017-01-15T09:07:28.660Z</time>
      </trkpt>
      <trkpt lat="47.7151" lon="2.21866">
        <ele>134</ele>
        <time>2017-01-15T09:07:29.666Z</time>
      </trkpt>
      <trkpt lat="47.71515" lon="2.2187">
        <ele>134</ele>
        <time>2017-01-15T09:07:30.668Z</time>
      </trkpt>
      <trkpt lat="47.71515" lon="2.2187">
        <ele>134</ele>
        <time>2017-01-15T09:07:31.660Z</time>
      </trkpt>
      <trkpt lat="47.71524" lon="2.21877">
        <ele>133</ele>
        <time>2017-01-15T09:07:32.666Z</time>
      </trkpt>
      <trkpt lat="47.71524" lon="2.21877">
        <ele>133</ele>
        <time>2017-01-15T09:07:33.657Z</time>
      </trkpt>
      <trkpt lat="47.71533" lon="2.21883">
        <ele>133</ele>
        <time>2017-01-15T09:07:34.645Z</time>
      </trkpt>
      <trkpt lat="47.71533" lon="2.21883">
        <ele>133</ele>
        <time>2017-01-15T09:07:35.633Z</time>
      </trkpt>
      <trkpt lat="47.71542" lon="2.2189">
        <ele>133</ele>
        <time>2017-01-15T09:07:36.664Z</time>
      </trkpt>
      <trkpt lat="47.71547" lon="2.21894">
        <ele>133</ele>
        <time>2017-01-15T09:07:37.664Z</time>
      </trkpt>
      <trkpt lat="47.71552" lon="2.21897">
        <ele>133</ele>
        <time>2017-01-15T09:07:38.629Z</time>
      </trkpt>
      <trkpt lat="47.71552" lon="2.21897">
        <ele>133</ele>
        <time>2017-01-15T09:07:39.660Z</time>
      </trkpt>
      <trkpt lat="47.71562" lon="2.21903">
        <ele>132</ele>
        <time>2017-01-15T09:07:40.668Z</time>
      </trkpt>
      <trkpt lat="47.71562" lon="2.21903">
        <ele>132</ele>
        <time>2017-01-15T09:07:41.660Z</time>
      </trkpt>
      <trkpt lat="47.71571" lon="2.2191">
        <ele>132</ele>
        <time>2017-01-15T09:07:42.628Z</time>
      </trkpt>
      <trkpt lat="47.71571" lon="2.2191">
        <ele>132</ele>
        <time>2017-01-15T09:07:43.660Z</time>
      </trkpt>
      <trkpt lat="47.71581" lon="2.21916">
        <ele>133</ele>
        <time>2017-01-15T09:07:44.666Z</time>
      </trkpt>
      <trkpt lat="47.71585" lon="2.21919">
        <ele>133</ele>
        <time>2017-01-15T09:07:45.629Z</time>
      </trkpt>
      <trkpt lat="47.71585" lon="2.21919">
        <ele>133</ele>
        <time>2017-01-15T09:07:46.663Z</time>
      </trkpt>
      <trkpt lat="47.71595" lon="2.21926">
        <ele>133</ele>
        <time>2017-01-15T09:07:47.665Z</time>
      </trkpt>
      <trkpt lat="47.71599" lon="2.21929">
        <ele>133</ele>
        <time>2017-01-15T09:07:48.628Z</time>
      </trkpt>
      <trkpt lat="47.71604" lon="2.21932">
        <ele>133</ele>
        <time>2017-01-15T09:07:49.667Z</time>
      </trkpt>
      <trkpt lat="47.71604" lon="2.21932">
        <ele>133</ele>
        <time>2017-01-15T09:07:50.664Z</time>
      </trkpt>
      <trkpt lat="47.71613" lon="2.21939">
        <ele>133</ele>
        <time>2017-01-15T09:07:51.666Z</time>
      </trkpt>
      <trkpt lat="47.71613" lon="2.21939">
        <ele>133</ele>
        <time>2017-01-15T09:07:52.659Z</time>
      </trkpt>
      <trkpt lat="47.71623" lon="2.21945">
        <ele>133</ele>
        <time>2017-01-15T09:07:53.667Z</time>
      </trkpt>
      <trkpt lat="47.71623" lon="2.21945">
        <ele>133</ele>
        <time>2017-01-15T09:07:54.665Z</time>
      </trkpt>
      <trkpt lat="47.71633" lon="2.21952">
        <ele>133</ele>
        <time>2017-01-15T09:07:55.665Z</time>
      </trkpt>
      <trkpt lat="47.71638" lon="2.21954">
        <ele>134</ele>
        <time>2017-01-15T09:07:56.666Z</time>
      </trkpt>
      <trkpt lat="47.71638" lon="2.21954">
        <ele>134</ele>
        <time>2017-01-15T09:07:57.659Z</time>
      </trkpt>
      <trkpt lat="47.71646" lon="2.21961">
        <ele>133</ele>
        <time>2017-01-15T09:07:58.667Z</time>
      </trkpt>
      <trkpt lat="47.71646" lon="2.21961">
        <ele>133</ele>
        <time>2017-01-15T09:07:59.659Z</time>
      </trkpt>
      <trkpt lat="47.71655" lon="2.21967">
        <ele>133</ele>
        <time>2017-01-15T09:08:00.667Z</time>
      </trkpt>
      <trkpt lat="47.71655" lon="2.21967">
        <ele>133</ele>
        <time>2017-01-15T09:08:01.665Z</time>
      </trkpt>
      <trkpt lat="47.71663" lon="2.21973">
        <ele>133</ele>
        <time>2017-01-15T09:08:02.666Z</time>
      </trkpt>
      <trkpt lat="47.71663" lon="2.21973">
        <ele>133</ele>
        <time>2017-01-15T09:08:03.660Z</time>
      </trkpt>
      <trkpt lat="47.71673" lon="2.21974">
        <ele>134</ele>
        <time>2017-01-15T09:08:04.667Z</time>
      </trkpt>
      <trkpt lat="47.71673" lon="2.21974">
        <ele>134</ele>
        <time>2017-01-15T09:08:05.660Z</time>
      </trkpt>
      <trkpt lat="47.71682" lon="2.21969">
        <ele>133</ele>
        <time>2017-01-15T09:08:06.667Z</time>
      </trkpt>
      <trkpt lat="47.71682" lon="2.21969">
        <ele>133</ele>
        <time>2017-01-15T09:08:07.660Z</time>
      </trkpt>
      <trkpt lat="47.71689" lon="2.21958">
        <ele>132</ele>
        <time>2017-01-15T09:08:08.667Z</time>
      </trkpt>
      <trkpt lat="47.71689" lon="2.21958">
        <ele>132</ele>
        <time>2017-01-15T09:08:09.660Z</time>
      </trkpt>
      <trkpt lat="47.71695" lon="2.21947">
        <ele>131</ele>
        <time>2017-01-15T09:08:10.628Z</time>
      </trkpt>
      <trkpt lat="47.71695" lon="2.21947">
        <ele>131</ele>
        <time>2017-01-15T09:08:11.659Z</time>
      </trkpt>
      <trkpt lat="47.71702" lon="2.21936">
        <ele>129</ele>
        <time>2017-01-15T09:08:12.629Z</time>
      </trkpt>
      <trkpt lat="47.71702" lon="2.21936">
        <ele>129</ele>
        <time>2017-01-15T09:08:13.660Z</time>
      </trkpt>
      <trkpt lat="47.71709" lon="2.21922">
        <ele>129</ele>
        <time>2017-01-15T09:08:14.639Z</time>
      </trkpt>
      <trkpt lat="47.71709" lon="2.21922">
        <ele>129</ele>
        <time>2017-01-15T09:08:15.660Z</time>
      </trkpt>
      <trkpt lat="47.71718" lon="2.21908">
        <ele>129</ele>
        <time>2017-01-15T09:08:16.667Z</time>
      </trkpt>
      <trkpt lat="47.71718" lon="2.21908">
        <ele>129</ele>
        <time>2017-01-15T09:08:17.660Z</time>
      </trkpt>
      <trkpt lat="47.71726" lon="2.21895">
        <ele>128</ele>
        <time>2017-01-15T09:08:18.628Z</time>
      </trkpt>
      <trkpt lat="47.71726" lon="2.21895">
        <ele>128</ele>
        <time>2017-01-15T09:08:19.660Z</time>
      </trkpt>
      <trkpt lat="47.71736" lon="2.21883">
        <ele>129</ele>
        <time>2017-01-15T09:08:20.628Z</time>
      </trkpt>
      <trkpt lat="47.71736" lon="2.21883">
        <ele>129</ele>
        <time>2017-01-15T09:08:21.660Z</time>
      </trkpt>
      <trkpt lat="47.71746" lon="2.21873">
        <ele>128</ele>
        <time>2017-01-15T09:08:22.667Z</time>
      </trkpt>
      <trkpt lat="47.71751" lon="2.21869">
        <ele>128</ele>
        <time>2017-01-15T09:08:23.638Z</time>
      </trkpt>
      <trkpt lat="47.71751" lon="2.21869">
        <ele>128</ele>
        <time>2017-01-15T09:08:24.628Z</time>
      </trkpt>
      <trkpt lat="47.71762" lon="2.21862">
        <ele>127</ele>
        <time>2017-01-15T09:08:25.666Z</time>
      </trkpt>
      <trkpt lat="47.71767" lon="2.21859">
        <ele>127</ele>
        <time>2017-01-15T09:08:26.666Z</time>
      </trkpt>
      <trkpt lat="47.71767" lon="2.21859">
        <ele>127</ele>
        <time>2017-01-15T09:08:27.659Z</time>
      </trkpt>
      <trkpt lat="47.71775" lon="2.21852">
        <ele>127</ele>
        <time>2017-01-15T09:08:28.635Z</time>
      </trkpt>
      <trkpt lat="47.71775" lon="2.21852">
        <ele>127</ele>
        <time>2017-01-15T09:08:29.665Z</time>
      </trkpt>
      <trkpt lat="47.71784" lon="2.21848">
        <ele>127</ele>
        <time>2017-01-15T09:08:30.628Z</time>
      </trkpt>
      <trkpt lat="47.71784" lon="2.21848">
        <ele>127</ele>
        <time>2017-01-15T09:08:31.657Z</time>
      </trkpt>
      <trkpt lat="47.71792" lon="2.21844">
        <ele>127</ele>
        <time>2017-01-15T09:08:32.666Z</time>
      </trkpt>
      <trkpt lat="47.71792" lon="2.21844">
        <ele>127</ele>
        <time>2017-01-15T09:08:33.660Z</time>
      </trkpt>
      <trkpt lat="47.71802" lon="2.2184">
        <ele>128</ele>
        <time>2017-01-15T09:08:34.666Z</time>
      </trkpt>
      <trkpt lat="47.71802" lon="2.2184">
        <ele>128</ele>
        <time>2017-01-15T09:08:35.660Z</time>
      </trkpt>
      <trkpt lat="47.71811" lon="2.21841">
        <ele>129</ele>
        <time>2017-01-15T09:08:36.628Z</time>
      </trkpt>
      <trkpt lat="47.71811" lon="2.21841">
        <ele>129</ele>
        <time>2017-01-15T09:08:37.660Z</time>
      </trkpt>
      <trkpt lat="47.71819" lon="2.21844">
        <ele>130</ele>
        <time>2017-01-15T09:08:38.667Z</time>
      </trkpt>
      <trkpt lat="47.71819" lon="2.21844">
        <ele>130</ele>
        <time>2017-01-15T09:08:39.665Z</time>
      </trkpt>
      <trkpt lat="47.71827" lon="2.21849">
        <ele>132</ele>
        <time>2017-01-15T09:08:40.628Z</time>
      </trkpt>
      <trkpt lat="47.71827" lon="2.21849">
        <ele>132</ele>
        <time>2017-01-15T09:08:41.660Z</time>
      </trkpt>
      <trkpt lat="47.71834" lon="2.21854">
        <ele>132</ele>
        <time>2017-01-15T09:08:42.666Z</time>
      </trkpt>
      <trkpt lat="47.71834" lon="2.21854">
        <ele>132</ele>
        <time>2017-01-15T09:08:43.660Z</time>
      </trkpt>
      <trkpt lat="47.71841" lon="2.21857">
        <ele>133</ele>
        <time>2017-01-15T09:08:44.667Z</time>
      </trkpt>
      <trkpt lat="47.71841" lon="2.21857">
        <ele>133</ele>
        <time>2017-01-15T09:08:45.660Z</time>
      </trkpt>
      <trkpt lat="47.71848" lon="2.21861">
        <ele>133</ele>
        <time>2017-01-15T09:08:46.666Z</time>
      </trkpt>
      <trkpt lat="47.71852" lon="2.21863">
        <ele>133</ele>
        <time>2017-01-15T09:08:47.667Z</time>
      </trkpt>
      <trkpt lat="47.71852" lon="2.21863">
        <ele>133</ele>
        <time>2017-01-15T09:08:48.666Z</time>
      </trkpt>
      <trkpt lat="47.7186" lon="2.21863">
        <ele>133</ele>
        <time>2017-01-15T09:08:49.666Z</time>
      </trkpt>
      <trkpt lat="47.71863" lon="2.21862">
        <ele>133</ele>
        <time>2017-01-15T09:08:50.668Z</time>
      </trkpt>
      <trkpt lat="47.71863" lon="2.21862">
        <ele>133</ele>
        <time>2017-01-15T09:08:51.660Z</time>
      </trkpt>
      <trkpt lat="47.7187" lon="2.21858">
        <ele>133</ele>
        <time>2017-01-15T09:08:52.667Z</time>
      </trkpt>
      <trkpt lat="47.7187" lon="2.21858">
        <ele>133</ele>
        <time>2017-01-15T09:08:53.665Z</time>
      </trkpt>
      <trkpt lat="47.71879" lon="2.21856">
        <ele>133</ele>
        <time>2017-01-15T09:08:54.667Z</time>
      </trkpt>
      <trkpt lat="47.71879" lon="2.21856">
        <ele>133</ele>
        <time>2017-01-15T09:08:55.660Z</time>
      </trkpt>
      <trkpt lat="47.71887" lon="2.21854">
        <ele>134</ele>
        <time>2017-01-15T09:08:56.667Z</time>
      </trkpt>
      <trkpt lat="47.71887" lon="2.21854">
        <ele>134</ele>
        <time>2017-01-15T09:08:57.660Z</time>
      </trkpt>
      <trkpt lat="47.71896" lon="2.21853">
        <ele>134</ele>
        <time>2017-01-15T09:08:58.667Z</time>
      </trkpt>
      <trkpt lat="47.71896" lon="2.21853">
        <ele>134</ele>
        <time>2017-01-15T09:08:59.660Z</time>
      </trkpt>
      <trkpt lat="47.71905" lon="2.2185">
        <ele>134</ele>
        <time>2017-01-15T09:09:00.667Z</time>
      </trkpt>
      <trkpt lat="47.71905" lon="2.2185">
        <ele>134</ele>
        <time>2017-01-15T09:09:01.660Z</time>
      </trkpt>
      <trkpt lat="47.71913" lon="2.21848">
        <ele>133</ele>
        <time>2017-01-15T09:09:02.666Z</time>
      </trkpt>
      <trkpt lat="47.71913" lon="2.21848">
        <ele>133</ele>
        <time>2017-01-15T09:09:03.661Z</time>
      </trkpt>
      <trkpt lat="47.71922" lon="2.21848">
        <ele>134</ele>
        <time>2017-01-15T09:09:04.644Z</time>
      </trkpt>
      <trkpt lat="47.71922" lon="2.21848">
        <ele>134</ele>
        <time>2017-01-15T09:09:05.633Z</time>
      </trkpt>
      <trkpt lat="47.71931" lon="2.21846">
        <ele>136</ele>
        <time>2017-01-15T09:09:06.666Z</time>
      </trkpt>
      <trkpt lat="47.71931" lon="2.21846">
        <ele>136</ele>
        <time>2017-01-15T09:09:07.659Z</time>
      </trkpt>
      <trkpt lat="47.71941" lon="2.21844">
        <ele>136</ele>
        <time>2017-01-15T09:09:08.667Z</time>
      </trkpt>
      <trkpt lat="47.71941" lon="2.21844">
        <ele>136</ele>
        <time>2017-01-15T09:09:09.660Z</time>
      </trkpt>
      <trkpt lat="47.71948" lon="2.21842">
        <ele>137</ele>
        <time>2017-01-15T09:09:10.628Z</time>
      </trkpt>
      <trkpt lat="47.71953" lon="2.21842">
        <ele>137</ele>
        <time>2017-01-15T09:09:11.668Z</time>
      </trkpt>
      <trkpt lat="47.71953" lon="2.21842">
        <ele>137</ele>
        <time>2017-01-15T09:09:12.667Z</time>
      </trkpt>
      <trkpt lat="47.71962" lon="2.21839">
        <ele>137</ele>
        <time>2017-01-15T09:09:13.667Z</time>
      </trkpt>
      <trkpt lat="47.71967" lon="2.21838">
        <ele>138</ele>
        <time>2017-01-15T09:09:14.640Z</time>
      </trkpt>
      <trkpt lat="47.71967" lon="2.21838">
        <ele>138</ele>
        <time>2017-01-15T09:09:15.657Z</time>
      </trkpt>
      <trkpt lat="47.71976" lon="2.21836">
        <ele>139</ele>
        <time>2017-01-15T09:09:16.664Z</time>
      </trkpt>
      <trkpt lat="47.71976" lon="2.21836">
        <ele>139</ele>
        <time>2017-01-15T09:09:17.630Z</time>
      </trkpt>
      <trkpt lat="47.71986" lon="2.21833">
        <ele>139</ele>
        <time>2017-01-15T09:09:18.636Z</time>
      </trkpt>
      <trkpt lat="47.71986" lon="2.21833">
        <ele>139</ele>
        <time>2017-01-15T09:09:19.666Z</time>
      </trkpt>
      <trkpt lat="47.71995" lon="2.2183">
        <ele>138</ele>
        <time>2017-01-15T09:09:20.667Z</time>
      </trkpt>
      <trkpt lat="47.71995" lon="2.2183">
        <ele>138</ele>
        <time>2017-01-15T09:09:21.657Z</time>
      </trkpt>
      <trkpt lat="47.72003" lon="2.21825">
        <ele>138</ele>
        <time>2017-01-15T09:09:22.666Z</time>
      </trkpt>
      <trkpt lat="47.72003" lon="2.21825">
        <ele>138</ele>
        <time>2017-01-15T09:09:23.629Z</time>
      </trkpt>
      <trkpt lat="47.72012" lon="2.2182">
        <ele>138</ele>
        <time>2017-01-15T09:09:24.630Z</time>
      </trkpt>
      <trkpt lat="47.72012" lon="2.2182">
        <ele>138</ele>
        <time>2017-01-15T09:09:25.660Z</time>
      </trkpt>
      <trkpt lat="47.7202" lon="2.21816">
        <ele>138</ele>
        <time>2017-01-15T09:09:26.667Z</time>
      </trkpt>
      <trkpt lat="47.7202" lon="2.21816">
        <ele>138</ele>
        <time>2017-01-15T09:09:27.658Z</time>
      </trkpt>
      <trkpt lat="47.72029" lon="2.21811">
        <ele>138</ele>
        <time>2017-01-15T09:09:28.666Z</time>
      </trkpt>
      <trkpt lat="47.72029" lon="2.21811">
        <ele>138</ele>
        <time>2017-01-15T09:09:29.660Z</time>
      </trkpt>
      <trkpt lat="47.72038" lon="2.21808">
        <ele>138</ele>
        <time>2017-01-15T09:09:30.628Z</time>
      </trkpt>
      <trkpt lat="47.72038" lon="2.21808">
        <ele>138</ele>
        <time>2017-01-15T09:09:31.660Z</time>
      </trkpt>
      <trkpt lat="47.72047" lon="2.21804">
        <ele>138</ele>
        <time>2017-01-15T09:09:32.667Z</time>
      </trkpt>
      <trkpt lat="47.72047" lon="2.21804">
        <ele>138</ele>
        <time>2017-01-15T09:09:33.658Z</time>
      </trkpt>
      <trkpt lat="47.72057" lon="2.21802">
        <ele>137</ele>
        <time>2017-01-15T09:09:34.667Z</time>
      </trkpt>
      <trkpt lat="47.72062" lon="2.21801">
        <ele>137</ele>
        <time>2017-01-15T09:09:35.628Z</time>
      </trkpt>
      <trkpt lat="47.72062" lon="2.21801">
        <ele>137</ele>
        <time>2017-01-15T09:09:36.667Z</time>
      </trkpt>
      <trkpt lat="47.72071" lon="2.218">
        <ele>137</ele>
        <time>2017-01-15T09:09:37.657Z</time>
      </trkpt>
      <trkpt lat="47.72075" lon="2.218">
        <ele>137</ele>
        <time>2017-01-15T09:09:38.667Z</time>
      </trkpt>
      <trkpt lat="47.72075" lon="2.218">
        <ele>137</ele>
        <time>2017-01-15T09:09:39.635Z</time>
      </trkpt>
      <trkpt lat="47.72084" lon="2.21799">
        <ele>138</ele>
        <time>2017-01-15T09:09:40.644Z</time>
      </trkpt>
      <trkpt lat="47.72084" lon="2.21799">
        <ele>138</ele>
        <time>2017-01-15T09:09:41.632Z</time>
      </trkpt>
      <trkpt lat="47.72094" lon="2.218">
        <ele>140</ele>
        <time>2017-01-15T09:09:42.629Z</time>
      </trkpt>
      <trkpt lat="47.72094" lon="2.218">
        <ele>140</ele>
        <time>2017-01-15T09:09:43.661Z</time>
      </trkpt>
      <trkpt lat="47.72104" lon="2.21803">
        <ele>142</ele>
        <time>2017-01-15T09:09:44.666Z</time>
      </trkpt>
      <trkpt lat="47.72104" lon="2.21803">
        <ele>142</ele>
        <time>2017-01-15T09:09:45.636Z</time>
      </trkpt>
      <trkpt lat="47.72113" lon="2.21806">
        <ele>143</ele>
        <time>2017-01-15T09:09:46.667Z</time>
      </trkpt>
      <trkpt lat="47.72113" lon="2.21806">
        <ele>143</ele>
        <time>2017-01-15T09:09:47.664Z</time>
      </trkpt>
      <trkpt lat="47.72123" lon="2.21809">
        <ele>144</ele>
        <time>2017-01-15T09:09:48.667Z</time>
      </trkpt>
      <trkpt lat="47.72123" lon="2.21809">
        <ele>144</ele>
        <time>2017-01-15T09:09:49.661Z</time>
      </trkpt>
      <trkpt lat="47.72134" lon="2.21811">
        <ele>144</ele>
        <time>2017-01-15T09:09:50.667Z</time>
      </trkpt>
      <trkpt lat="47.72134" lon="2.21811">
        <ele>144</ele>
        <time>2017-01-15T09:09:51.660Z</time>
      </trkpt>
      <trkpt lat="47.72145" lon="2.21815">
        <ele>144</ele>
        <time>2017-01-15T09:09:52.667Z</time>
      </trkpt>
      <trkpt lat="47.7215" lon="2.21817">
        <ele>144</ele>
        <time>2017-01-15T09:09:53.667Z</time>
      </trkpt>
      <trkpt lat="47.72154" lon="2.21818">
        <ele>144</ele>
        <time>2017-01-15T09:09:54.628Z</time>
      </trkpt>
      <trkpt lat="47.72159" lon="2.2182">
        <ele>144</ele>
        <time>2017-01-15T09:09:55.667Z</time>
      </trkpt>
      <trkpt lat="47.72159" lon="2.2182">
        <ele>144</ele>
        <time>2017-01-15T09:09:56.665Z</time>
      </trkpt>
      <trkpt lat="47.72169" lon="2.21822">
        <ele>144</ele>
        <time>2017-01-15T09:09:57.667Z</time>
      </trkpt>
      <trkpt lat="47.72169" lon="2.21822">
        <ele>144</ele>
        <time>2017-01-15T09:09:58.660Z</time>
      </trkpt>
      <trkpt lat="47.72177" lon="2.21821">
        <ele>142</ele>
        <time>2017-01-15T09:09:59.668Z</time>
      </trkpt>
      <trkpt lat="47.72182" lon="2.21821">
        <ele>142</ele>
        <time>2017-01-15T09:10:00.630Z</time>
      </trkpt>
      <trkpt lat="47.72182" lon="2.21821">
        <ele>142</ele>
        <time>2017-01-15T09:10:01.665Z</time>
      </trkpt>
      <trkpt lat="47.72192" lon="2.2182">
        <ele>142</ele>
        <time>2017-01-15T09:10:02.666Z</time>
      </trkpt>
      <trkpt lat="47.72192" lon="2.2182">
        <ele>142</ele>
        <time>2017-01-15T09:10:03.660Z</time>
      </trkpt>
      <trkpt lat="47.72203" lon="2.21819">
        <ele>143</ele>
        <time>2017-01-15T09:10:04.646Z</time>
      </trkpt>
      <trkpt lat="47.72203" lon="2.21819">
        <ele>143</ele>
        <time>2017-01-15T09:10:05.635Z</time>
      </trkpt>
      <trkpt lat="47.72213" lon="2.21818">
        <ele>144</ele>
        <time>2017-01-15T09:10:06.630Z</time>
      </trkpt>
      <trkpt lat="47.72218" lon="2.21817">
        <ele>144</ele>
        <time>2017-01-15T09:10:07.667Z</time>
      </trkpt>
      <trkpt lat="47.72218" lon="2.21817">
        <ele>144</ele>
        <time>2017-01-15T09:10:08.667Z</time>
      </trkpt>
      <trkpt lat="47.72228" lon="2.21815">
        <ele>145</ele>
        <time>2017-01-15T09:10:09.628Z</time>
      </trkpt>
      <trkpt lat="47.72232" lon="2.21814">
        <ele>145</ele>
        <time>2017-01-15T09:10:10.628Z</time>
      </trkpt>
      <trkpt lat="47.72232" lon="2.21814">
        <ele>145</ele>
        <time>2017-01-15T09:10:11.660Z</time>
      </trkpt>
      <trkpt lat="47.72242" lon="2.21812">
        <ele>144</ele>
        <time>2017-01-15T09:10:12.628Z</time>
      </trkpt>
      <trkpt lat="47.72246" lon="2.21812">
        <ele>143</ele>
        <time>2017-01-15T09:10:13.628Z</time>
      </trkpt>
      <trkpt lat="47.72246" lon="2.21812">
        <ele>143</ele>
        <time>2017-01-15T09:10:14.646Z</time>
      </trkpt>
      <trkpt lat="47.72255" lon="2.21813">
        <ele>143</ele>
        <time>2017-01-15T09:10:15.656Z</time>
      </trkpt>
      <trkpt lat="47.72255" lon="2.21813">
        <ele>143</ele>
        <time>2017-01-15T09:10:16.662Z</time>
      </trkpt>
      <trkpt lat="47.72265" lon="2.21815">
        <ele>143</ele>
        <time>2017-01-15T09:10:17.628Z</time>
      </trkpt>
      <trkpt lat="47.7227" lon="2.21817">
        <ele>144</ele>
        <time>2017-01-15T09:10:18.628Z</time>
      </trkpt>
      <trkpt lat="47.7227" lon="2.21817">
        <ele>144</ele>
        <time>2017-01-15T09:10:19.666Z</time>
      </trkpt>
      <trkpt lat="47.7228" lon="2.21818">
        <ele>146</ele>
        <time>2017-01-15T09:10:20.642Z</time>
      </trkpt>
      <trkpt lat="47.7228" lon="2.21818">
        <ele>146</ele>
        <time>2017-01-15T09:10:21.639Z</time>
      </trkpt>
      <trkpt lat="47.72289" lon="2.21817">
        <ele>146</ele>
        <time>2017-01-15T09:10:22.628Z</time>
      </trkpt>
      <trkpt lat="47.72289" lon="2.21817">
        <ele>146</ele>
        <time>2017-01-15T09:10:23.660Z</time>
      </trkpt>
      <trkpt lat="47.72299" lon="2.21815">
        <ele>145</ele>
        <time>2017-01-15T09:10:24.628Z</time>
      </trkpt>
      <trkpt lat="47.72299" lon="2.21815">
        <ele>145</ele>
        <time>2017-01-15T09:10:25.660Z</time>
      </trkpt>
      <trkpt lat="47.72308" lon="2.21811">
        <ele>146</ele>
        <time>2017-01-15T09:10:26.667Z</time>
      </trkpt>
      <trkpt lat="47.72308" lon="2.21811">
        <ele>146</ele>
        <time>2017-01-15T09:10:27.661Z</time>
      </trkpt>
      <trkpt lat="47.72318" lon="2.21806">
        <ele>146</ele>
        <time>2017-01-15T09:10:28.666Z</time>
      </trkpt>
      <trkpt lat="47.72318" lon="2.21806">
        <ele>146</ele>
        <time>2017-01-15T09:10:29.665Z</time>
      </trkpt>
      <trkpt lat="47.72326" lon="2.21802">
        <ele>147</ele>
        <time>2017-01-15T09:10:30.667Z</time>
      </trkpt>
      <trkpt lat="47.7233" lon="2.218">
        <ele>147</ele>
        <time>2017-01-15T09:10:31.628Z</time>
      </trkpt>
      <trkpt lat="47.7233" lon="2.218">
        <ele>147</ele>
        <time>2017-01-15T09:10:32.665Z</time>
      </trkpt>
      <trkpt lat="47.72339" lon="2.21795">
        <ele>148</ele>
        <time>2017-01-15T09:10:33.667Z</time>
      </trkpt>
      <trkpt lat="47.72339" lon="2.21795">
        <ele>148</ele>
        <time>2017-01-15T09:10:34.634Z</time>
      </trkpt>
      <trkpt lat="47.72348" lon="2.21791">
        <ele>147</ele>
        <time>2017-01-15T09:10:35.629Z</time>
      </trkpt>
      <trkpt lat="47.72348" lon="2.21791">
        <ele>147</ele>
        <time>2017-01-15T09:10:36.667Z</time>
      </trkpt>
      <trkpt lat="47.72362" lon="2.21787">
        <ele>146</ele>
        <time>2017-01-15T09:10:37.628Z</time>
      </trkpt>
      <trkpt lat="47.72366" lon="2.21785">
        <ele>146</ele>
        <time>2017-01-15T09:10:38.667Z</time>
      </trkpt>
      <trkpt lat="47.72366" lon="2.21785">
        <ele>146</ele>
        <time>2017-01-15T09:10:39.634Z</time>
      </trkpt>
      <trkpt lat="47.72377" lon="2.21781">
        <ele>147</ele>
        <time>2017-01-15T09:10:40.667Z</time>
      </trkpt>
      <trkpt lat="47.72377" lon="2.21781">
        <ele>147</ele>
        <time>2017-01-15T09:10:41.660Z</time>
      </trkpt>
      <trkpt lat="47.72387" lon="2.21777">
        <ele>147</ele>
        <time>2017-01-15T09:10:42.668Z</time>
      </trkpt>
      <trkpt lat="47.72387" lon="2.21777">
        <ele>147</ele>
        <time>2017-01-15T09:10:43.665Z</time>
      </trkpt>
      <trkpt lat="47.72395" lon="2.21772">
        <ele>146</ele>
        <time>2017-01-15T09:10:44.667Z</time>
      </trkpt>
      <trkpt lat="47.72395" lon="2.21772">
        <ele>146</ele>
        <time>2017-01-15T09:10:45.665Z</time>
      </trkpt>
      <trkpt lat="47.72404" lon="2.21765">
        <ele>147</ele>
        <time>2017-01-15T09:10:46.667Z</time>
      </trkpt>
      <trkpt lat="47.72404" lon="2.21765">
        <ele>147</ele>
        <time>2017-01-15T09:10:47.666Z</time>
      </trkpt>
      <trkpt lat="47.72412" lon="2.21758">
        <ele>146</ele>
        <time>2017-01-15T09:10:48.665Z</time>
      </trkpt>
      <trkpt lat="47.72412" lon="2.21758">
        <ele>146</ele>
        <time>2017-01-15T09:10:49.665Z</time>
      </trkpt>
      <trkpt lat="47.72421" lon="2.21751">
        <ele>146</ele>
        <time>2017-01-15T09:10:50.667Z</time>
      </trkpt>
      <trkpt lat="47.72421" lon="2.21751">
        <ele>146</ele>
        <time>2017-01-15T09:10:51.660Z</time>
      </trkpt>
      <trkpt lat="47.72429" lon="2.21741">
        <ele>146</ele>
        <time>2017-01-15T09:10:52.638Z</time>
      </trkpt>
      <trkpt lat="47.72433" lon="2.21737">
        <ele>147</ele>
        <time>2017-01-15T09:10:53.628Z</time>
      </trkpt>
      <trkpt lat="47.72433" lon="2.21737">
        <ele>147</ele>
        <time>2017-01-15T09:10:54.666Z</time>
      </trkpt>
      <trkpt lat="47.72442" lon="2.21729">
        <ele>147</ele>
        <time>2017-01-15T09:10:55.667Z</time>
      </trkpt>
      <trkpt lat="47.72446" lon="2.21726">
        <ele>147</ele>
        <time>2017-01-15T09:10:56.667Z</time>
      </trkpt>
      <trkpt lat="47.72446" lon="2.21726">
        <ele>147</ele>
        <time>2017-01-15T09:10:57.666Z</time>
      </trkpt>
      <trkpt lat="47.72454" lon="2.2172">
        <ele>146</ele>
        <time>2017-01-15T09:10:58.667Z</time>
      </trkpt>
      <trkpt lat="47.72454" lon="2.2172">
        <ele>146</ele>
        <time>2017-01-15T09:10:59.660Z</time>
      </trkpt>
      <trkpt lat="47.72463" lon="2.21714">
        <ele>145</ele>
        <time>2017-01-15T09:11:00.629Z</time>
      </trkpt>
      <trkpt lat="47.72463" lon="2.21714">
        <ele>145</ele>
        <time>2017-01-15T09:11:01.665Z</time>
      </trkpt>
      <trkpt lat="47.72472" lon="2.2171">
        <ele>145</ele>
        <time>2017-01-15T09:11:02.667Z</time>
      </trkpt>
      <trkpt lat="47.72472" lon="2.2171">
        <ele>145</ele>
        <time>2017-01-15T09:11:03.666Z</time>
      </trkpt>
      <trkpt lat="47.72481" lon="2.21704">
        <ele>144</ele>
        <time>2017-01-15T09:11:04.636Z</time>
      </trkpt>
      <trkpt lat="47.72481" lon="2.21704">
        <ele>144</ele>
        <time>2017-01-15T09:11:05.665Z</time>
      </trkpt>
      <trkpt lat="47.7249" lon="2.217">
        <ele>143</ele>
        <time>2017-01-15T09:11:06.629Z</time>
      </trkpt>
      <trkpt lat="47.72495" lon="2.21696">
        <ele>143</ele>
        <time>2017-01-15T09:11:07.629Z</time>
      </trkpt>
      <trkpt lat="47.72495" lon="2.21696">
        <ele>143</ele>
        <time>2017-01-15T09:11:08.660Z</time>
      </trkpt>
      <trkpt lat="47.72505" lon="2.2169">
        <ele>143</ele>
        <time>2017-01-15T09:11:09.667Z</time>
      </trkpt>
      <trkpt lat="47.72505" lon="2.2169">
        <ele>143</ele>
        <time>2017-01-15T09:11:10.658Z</time>
      </trkpt>
      <trkpt lat="47.72515" lon="2.21684">
        <ele>142</ele>
        <time>2017-01-15T09:11:11.667Z</time>
      </trkpt>
      <trkpt lat="47.72518" lon="2.21681">
        <ele>142</ele>
        <time>2017-01-15T09:11:12.666Z</time>
      </trkpt>
      <trkpt lat="47.72518" lon="2.21681">
        <ele>142</ele>
        <time>2017-01-15T09:11:13.660Z</time>
      </trkpt>
      <trkpt lat="47.72526" lon="2.21675">
        <ele>142</ele>
        <time>2017-01-15T09:11:14.642Z</time>
      </trkpt>
      <trkpt lat="47.72526" lon="2.21675">
        <ele>142</ele>
        <time>2017-01-15T09:11:15.633Z</time>
      </trkpt>
      <trkpt lat="47.72534" lon="2.2167">
        <ele>142</ele>
        <time>2017-01-15T09:11:16.628Z</time>
      </trkpt>
      <trkpt lat="47.72534" lon="2.2167">
        <ele>142</ele>
        <time>2017-01-15T09:11:17.658Z</time>
      </trkpt>
      <trkpt lat="47.72542" lon="2.21665">
        <ele>142</ele>
        <time>2017-01-15T09:11:18.646Z</time>
      </trkpt>
      <trkpt lat="47.72547" lon="2.21662">
        <ele>142</ele>
        <time>2017-01-15T09:11:19.636Z</time>
      </trkpt>
      <trkpt lat="47.72551" lon="2.21659">
        <ele>142</ele>
        <time>2017-01-15T09:11:20.628Z</time>
      </trkpt>
      <trkpt lat="47.72551" lon="2.21659">
        <ele>142</ele>
        <time>2017-01-15T09:11:21.666Z</time>
      </trkpt>
      <trkpt lat="47.72559" lon="2.21654">
        <ele>142</ele>
        <time>2017-01-15T09:11:22.629Z</time>
      </trkpt>
      <trkpt lat="47.72559" lon="2.21654">
        <ele>142</ele>
        <time>2017-01-15T09:11:23.665Z</time>
      </trkpt>
      <trkpt lat="47.72567" lon="2.21648">
        <ele>142</ele>
        <time>2017-01-15T09:11:24.628Z</time>
      </trkpt>
      <trkpt lat="47.72572" lon="2.21645">
        <ele>143</ele>
        <time>2017-01-15T09:11:25.628Z</time>
      </trkpt>
      <trkpt lat="47.72577" lon="2.21642">
        <ele>143</ele>
        <time>2017-01-15T09:11:26.668Z</time>
      </trkpt>
      <trkpt lat="47.72577" lon="2.21642">
        <ele>143</ele>
        <time>2017-01-15T09:11:27.666Z</time>
      </trkpt>
      <trkpt lat="47.72585" lon="2.21634">
        <ele>143</ele>
        <time>2017-01-15T09:11:28.658Z</time>
      </trkpt>
      <trkpt lat="47.72591" lon="2.2163">
        <ele>143</ele>
        <time>2017-01-15T09:11:29.628Z</time>
      </trkpt>
      <trkpt lat="47.72595" lon="2.21626">
        <ele>143</ele>
        <time>2017-01-15T09:11:30.628Z</time>
      </trkpt>
      <trkpt lat="47.72595" lon="2.21626">
        <ele>143</ele>
        <time>2017-01-15T09:11:31.666Z</time>
      </trkpt>
      <trkpt lat="47.72604" lon="2.21619">
        <ele>144</ele>
        <time>2017-01-15T09:11:32.667Z</time>
      </trkpt>
      <trkpt lat="47.72604" lon="2.21619">
        <ele>144</ele>
        <time>2017-01-15T09:11:33.662Z</time>
      </trkpt>
      <trkpt lat="47.72613" lon="2.21612">
        <ele>145</ele>
        <time>2017-01-15T09:11:34.634Z</time>
      </trkpt>
      <trkpt lat="47.72613" lon="2.21612">
        <ele>145</ele>
        <time>2017-01-15T09:11:35.666Z</time>
      </trkpt>
      <trkpt lat="47.72621" lon="2.21603">
        <ele>146</ele>
        <time>2017-01-15T09:11:36.629Z</time>
      </trkpt>
      <trkpt lat="47.72621" lon="2.21603">
        <ele>146</ele>
        <time>2017-01-15T09:11:37.666Z</time>
      </trkpt>
      <trkpt lat="47.72629" lon="2.21595">
        <ele>148</ele>
        <time>2017-01-15T09:11:38.636Z</time>
      </trkpt>
      <trkpt lat="47.72632" lon="2.21592">
        <ele>148</ele>
        <time>2017-01-15T09:11:39.629Z</time>
      </trkpt>
      <trkpt lat="47.72632" lon="2.21592">
        <ele>148</ele>
        <time>2017-01-15T09:11:40.666Z</time>
      </trkpt>
      <trkpt lat="47.72638" lon="2.21585">
        <ele>148</ele>
        <time>2017-01-15T09:11:41.628Z</time>
      </trkpt>
      <trkpt lat="47.72641" lon="2.21581">
        <ele>149</ele>
        <time>2017-01-15T09:11:42.629Z</time>
      </trkpt>
      <trkpt lat="47.72641" lon="2.21581">
        <ele>149</ele>
        <time>2017-01-15T09:11:43.662Z</time>
      </trkpt>
      <trkpt lat="47.72648" lon="2.21575">
        <ele>149</ele>
        <time>2017-01-15T09:11:44.628Z</time>
      </trkpt>
      <trkpt lat="47.72648" lon="2.21575">
        <ele>149</ele>
        <time>2017-01-15T09:11:45.666Z</time>
      </trkpt>
      <trkpt lat="47.72656" lon="2.21569">
        <ele>148</ele>
        <time>2017-01-15T09:11:46.628Z</time>
      </trkpt>
      <trkpt lat="47.72656" lon="2.21569">
        <ele>148</ele>
        <time>2017-01-15T09:11:47.666Z</time>
      </trkpt>
      <trkpt lat="47.72664" lon="2.21562">
        <ele>148</ele>
        <time>2017-01-15T09:11:48.666Z</time>
      </trkpt>
      <trkpt lat="47.72668" lon="2.2156">
        <ele>149</ele>
        <time>2017-01-15T09:11:49.667Z</time>
      </trkpt>
      <trkpt lat="47.72671" lon="2.21557">
        <ele>149</ele>
        <time>2017-01-15T09:11:50.628Z</time>
      </trkpt>
      <trkpt lat="47.72671" lon="2.21557">
        <ele>149</ele>
        <time>2017-01-15T09:11:51.666Z</time>
      </trkpt>
      <trkpt lat="47.72677" lon="2.21552">
        <ele>149</ele>
        <time>2017-01-15T09:11:52.666Z</time>
      </trkpt>
      <trkpt lat="47.72677" lon="2.21552">
        <ele>149</ele>
        <time>2017-01-15T09:11:53.666Z</time>
      </trkpt>
      <trkpt lat="47.72683" lon="2.21546">
        <ele>149</ele>
        <time>2017-01-15T09:11:54.629Z</time>
      </trkpt>
      <trkpt lat="47.72686" lon="2.21543">
        <ele>149</ele>
        <time>2017-01-15T09:11:55.667Z</time>
      </trkpt>
      <trkpt lat="47.72689" lon="2.21541">
        <ele>148</ele>
        <time>2017-01-15T09:11:56.628Z</time>
      </trkpt>
      <trkpt lat="47.72689" lon="2.21541">
        <ele>148</ele>
        <time>2017-01-15T09:11:57.666Z</time>
      </trkpt>
      <trkpt lat="47.72695" lon="2.21535">
        <ele>147</ele>
        <time>2017-01-15T09:11:58.628Z</time>
      </trkpt>
      <trkpt lat="47.72695" lon="2.21535">
        <ele>147</ele>
        <time>2017-01-15T09:11:59.666Z</time>
      </trkpt>
      <trkpt lat="47.72701" lon="2.21531">
        <ele>147</ele>
        <time>2017-01-15T09:12:00.639Z</time>
      </trkpt>
      <trkpt lat="47.72701" lon="2.21531">
        <ele>147</ele>
        <time>2017-01-15T09:12:01.628Z</time>
      </trkpt>
      <trkpt lat="47.72707" lon="2.21527">
        <ele>146</ele>
        <time>2017-01-15T09:12:02.667Z</time>
      </trkpt>
      <trkpt lat="47.7271" lon="2.21525">
        <ele>145</ele>
        <time>2017-01-15T09:12:03.647Z</time>
      </trkpt>
      <trkpt lat="47.7271" lon="2.21525">
        <ele>145</ele>
        <time>2017-01-15T09:12:04.636Z</time>
      </trkpt>
      <trkpt lat="47.72716" lon="2.21521">
        <ele>145</ele>
        <time>2017-01-15T09:12:05.628Z</time>
      </trkpt>
      <trkpt lat="47.72719" lon="2.21519">
        <ele>145</ele>
        <time>2017-01-15T09:12:06.667Z</time>
      </trkpt>
      <trkpt lat="47.72719" lon="2.21519">
        <ele>145</ele>
        <time>2017-01-15T09:12:07.666Z</time>
      </trkpt>
      <trkpt lat="47.72726" lon="2.21515">
        <ele>145</ele>
        <time>2017-01-15T09:12:08.628Z</time>
      </trkpt>
      <trkpt lat="47.72726" lon="2.21515">
        <ele>145</ele>
        <time>2017-01-15T09:12:09.666Z</time>
      </trkpt>
      <trkpt lat="47.72732" lon="2.2151">
        <ele>145</ele>
        <time>2017-01-15T09:12:10.667Z</time>
      </trkpt>
      <trkpt lat="47.72732" lon="2.2151">
        <ele>145</ele>
        <time>2017-01-15T09:12:11.666Z</time>
      </trkpt>
      <trkpt lat="47.72738" lon="2.21504">
        <ele>145</ele>
        <time>2017-01-15T09:12:12.628Z</time>
      </trkpt>
      <trkpt lat="47.72738" lon="2.21504">
        <ele>145</ele>
        <time>2017-01-15T09:12:13.666Z</time>
      </trkpt>
      <trkpt lat="47.72745" lon="2.21499">
        <ele>145</ele>
        <time>2017-01-15T09:12:14.657Z</time>
      </trkpt>
      <trkpt lat="47.72749" lon="2.21496">
        <ele>145</ele>
        <time>2017-01-15T09:12:15.635Z</time>
      </trkpt>
      <trkpt lat="47.72752" lon="2.21493">
        <ele>146</ele>
        <time>2017-01-15T09:12:16.641Z</time>
      </trkpt>
      <trkpt lat="47.72755" lon="2.21491">
        <ele>146</ele>
        <time>2017-01-15T09:12:17.667Z</time>
      </trkpt>
      <trkpt lat="47.72755" lon="2.21491">
        <ele>146</ele>
        <time>2017-01-15T09:12:18.668Z</time>
      </trkpt>
      <trkpt lat="47.72762" lon="2.21486">
        <ele>146</ele>
        <time>2017-01-15T09:12:19.636Z</time>
      </trkpt>
      <trkpt lat="47.72764" lon="2.21484">
        <ele>146</ele>
        <time>2017-01-15T09:12:20.628Z</time>
      </trkpt>
      <trkpt lat="47.72764" lon="2.21484">
        <ele>146</ele>
        <time>2017-01-15T09:12:21.640Z</time>
      </trkpt>
      <trkpt lat="47.7277" lon="2.2148">
        <ele>146</ele>
        <time>2017-01-15T09:12:22.628Z</time>
      </trkpt>
      <trkpt lat="47.7277" lon="2.2148">
        <ele>146</ele>
        <time>2017-01-15T09:12:23.666Z</time>
      </trkpt>
      <trkpt lat="47.72777" lon="2.21475">
        <ele>145</ele>
        <time>2017-01-15T09:12:24.629Z</time>
      </trkpt>
      <trkpt lat="47.72781" lon="2.21472">
        <ele>145</ele>
        <time>2017-01-15T09:12:25.629Z</time>
      </trkpt>
      <trkpt lat="47.72781" lon="2.21472">
        <ele>145</ele>
        <time>2017-01-15T09:12:26.666Z</time>
      </trkpt>
      <trkpt lat="47.72788" lon="2.21467">
        <ele>145</ele>
        <time>2017-01-15T09:12:27.667Z</time>
      </trkpt>
      <trkpt lat="47.72792" lon="2.21465">
        <ele>146</ele>
        <time>2017-01-15T09:12:28.628Z</time>
      </trkpt>
      <trkpt lat="47.72792" lon="2.21465">
        <ele>146</ele>
        <time>2017-01-15T09:12:29.666Z</time>
      </trkpt>
      <trkpt lat="47.72799" lon="2.21458">
        <ele>146</ele>
        <time>2017-01-15T09:12:30.630Z</time>
      </trkpt>
      <trkpt lat="47.72799" lon="2.21458">
        <ele>146</ele>
        <time>2017-01-15T09:12:31.667Z</time>
      </trkpt>
      <trkpt lat="47.72806" lon="2.21453">
        <ele>146</ele>
        <time>2017-01-15T09:12:32.630Z</time>
      </trkpt>
      <trkpt lat="47.72806" lon="2.21453">
        <ele>146</ele>
        <time>2017-01-15T09:12:33.666Z</time>
      </trkpt>
      <trkpt lat="47.72812" lon="2.21447">
        <ele>147</ele>
        <time>2017-01-15T09:12:34.634Z</time>
      </trkpt>
      <trkpt lat="47.72812" lon="2.21447">
        <ele>147</ele>
        <time>2017-01-15T09:12:35.666Z</time>
      </trkpt>
      <trkpt lat="47.72819" lon="2.21441">
        <ele>147</ele>
        <time>2017-01-15T09:12:36.667Z</time>
      </trkpt>
      <trkpt lat="47.72823" lon="2.21439">
        <ele>147</ele>
        <time>2017-01-15T09:12:37.628Z</time>
      </trkpt>
      <trkpt lat="47.72823" lon="2.21439">
        <ele>147</ele>
        <time>2017-01-15T09:12:38.666Z</time>
      </trkpt>
      <trkpt lat="47.72829" lon="2.21433">
        <ele>147</ele>
        <time>2017-01-15T09:12:39.639Z</time>
      </trkpt>
      <trkpt lat="47.72833" lon="2.2143">
        <ele>148</ele>
        <time>2017-01-15T09:12:40.630Z</time>
      </trkpt>
      <trkpt lat="47.72833" lon="2.2143">
        <ele>148</ele>
        <time>2017-01-15T09:12:41.666Z</time>
      </trkpt>
      <trkpt lat="47.72841" lon="2.21425">
        <ele>147</ele>
        <time>2017-01-15T09:12:42.630Z</time>
      </trkpt>
      <trkpt lat="47.72841" lon="2.21425">
        <ele>147</ele>
        <time>2017-01-15T09:12:43.666Z</time>
      </trkpt>
      <trkpt lat="47.72848" lon="2.21421">
        <ele>147</ele>
        <time>2017-01-15T09:12:44.629Z</time>
      </trkpt>
      <trkpt lat="47.72848" lon="2.21421">
        <ele>147</ele>
        <time>2017-01-15T09:12:45.666Z</time>
      </trkpt>
      <trkpt lat="47.72855" lon="2.21415">
        <ele>147</ele>
        <time>2017-01-15T09:12:46.629Z</time>
      </trkpt>
      <trkpt lat="47.72855" lon="2.21415">
        <ele>147</ele>
        <time>2017-01-15T09:12:47.666Z</time>
      </trkpt>
      <trkpt lat="47.72862" lon="2.2141">
        <ele>147</ele>
        <time>2017-01-15T09:12:48.634Z</time>
      </trkpt>
      <trkpt lat="47.72865" lon="2.21407">
        <ele>147</ele>
        <time>2017-01-15T09:12:49.665Z</time>
      </trkpt>
      <trkpt lat="47.72865" lon="2.21407">
        <ele>147</ele>
        <time>2017-01-15T09:12:50.666Z</time>
      </trkpt>
      <trkpt lat="47.72872" lon="2.21402">
        <ele>147</ele>
        <time>2017-01-15T09:12:51.628Z</time>
      </trkpt>
      <trkpt lat="47.72872" lon="2.21402">
        <ele>147</ele>
        <time>2017-01-15T09:12:52.666Z</time>
      </trkpt>
      <trkpt lat="47.72878" lon="2.21396">
        <ele>148</ele>
        <time>2017-01-15T09:12:53.628Z</time>
      </trkpt>
      <trkpt lat="47.72878" lon="2.21396">
        <ele>148</ele>
        <time>2017-01-15T09:12:54.667Z</time>
      </trkpt>
      <trkpt lat="47.72884" lon="2.2139">
        <ele>148</ele>
        <time>2017-01-15T09:12:55.628Z</time>
      </trkpt>
      <trkpt lat="47.72887" lon="2.21387">
        <ele>148</ele>
        <time>2017-01-15T09:12:56.629Z</time>
      </trkpt>
      <trkpt lat="47.72887" lon="2.21387">
        <ele>148</ele>
        <time>2017-01-15T09:12:57.666Z</time>
      </trkpt>
      <trkpt lat="47.72894" lon="2.21382">
        <ele>149</ele>
        <time>2017-01-15T09:12:58.628Z</time>
      </trkpt>
      <trkpt lat="47.72894" lon="2.21382">
        <ele>149</ele>
        <time>2017-01-15T09:12:59.663Z</time>
      </trkpt>
      <trkpt lat="47.729" lon="2.21377">
        <ele>150</ele>
        <time>2017-01-15T09:13:00.628Z</time>
      </trkpt>
      <trkpt lat="47.72903" lon="2.21375">
        <ele>151</ele>
        <time>2017-01-15T09:13:01.629Z</time>
      </trkpt>
      <trkpt lat="47.72903" lon="2.21375">
        <ele>151</ele>
        <time>2017-01-15T09:13:02.666Z</time>
      </trkpt>
      <trkpt lat="47.72909" lon="2.21371">
        <ele>151</ele>
        <time>2017-01-15T09:13:03.628Z</time>
      </trkpt>
      <trkpt lat="47.72909" lon="2.21371">
        <ele>151</ele>
        <time>2017-01-15T09:13:04.660Z</time>
      </trkpt>
      <trkpt lat="47.72916" lon="2.21367">
        <ele>150</ele>
        <time>2017-01-15T09:13:05.667Z</time>
      </trkpt>
      <trkpt lat="47.72916" lon="2.21367">
        <ele>150</ele>
        <time>2017-01-15T09:13:06.629Z</time>
      </trkpt>
      <trkpt lat="47.72922" lon="2.21361">
        <ele>150</ele>
        <time>2017-01-15T09:13:07.667Z</time>
      </trkpt>
      <trkpt lat="47.72925" lon="2.21358">
        <ele>150</ele>
        <time>2017-01-15T09:13:08.665Z</time>
      </trkpt>
      <trkpt lat="47.72925" lon="2.21358">
        <ele>150</ele>
        <time>2017-01-15T09:13:09.662Z</time>
      </trkpt>
      <trkpt lat="47.72932" lon="2.21353">
        <ele>151</ele>
        <time>2017-01-15T09:13:10.639Z</time>
      </trkpt>
      <trkpt lat="47.72932" lon="2.21353">
        <ele>151</ele>
        <time>2017-01-15T09:13:11.667Z</time>
      </trkpt>
      <trkpt lat="47.72939" lon="2.21349">
        <ele>151</ele>
        <time>2017-01-15T09:13:12.629Z</time>
      </trkpt>
      <trkpt lat="47.72939" lon="2.21349">
        <ele>151</ele>
        <time>2017-01-15T09:13:13.666Z</time>
      </trkpt>
      <trkpt lat="47.72944" lon="2.21345">
        <ele>151</ele>
        <time>2017-01-15T09:13:14.642Z</time>
      </trkpt>
      <trkpt lat="47.72944" lon="2.21345">
        <ele>151</ele>
        <time>2017-01-15T09:13:15.650Z</time>
      </trkpt>
      <trkpt lat="47.7295" lon="2.21342">
        <ele>152</ele>
        <time>2017-01-15T09:13:16.638Z</time>
      </trkpt>
      <trkpt lat="47.7295" lon="2.21342">
        <ele>152</ele>
        <time>2017-01-15T09:13:17.668Z</time>
      </trkpt>
      <trkpt lat="47.72957" lon="2.21339">
        <ele>152</ele>
        <time>2017-01-15T09:13:18.629Z</time>
      </trkpt>
      <trkpt lat="47.72957" lon="2.21339">
        <ele>152</ele>
        <time>2017-01-15T09:13:19.662Z</time>
      </trkpt>
      <trkpt lat="47.72962" lon="2.21333">
        <ele>153</ele>
        <time>2017-01-15T09:13:20.628Z</time>
      </trkpt>
      <trkpt lat="47.72962" lon="2.21333">
        <ele>153</ele>
        <time>2017-01-15T09:13:21.666Z</time>
      </trkpt>
      <trkpt lat="47.72969" lon="2.2133">
        <ele>153</ele>
        <time>2017-01-15T09:13:22.628Z</time>
      </trkpt>
      <trkpt lat="47.72972" lon="2.21327">
        <ele>153</ele>
        <time>2017-01-15T09:13:23.628Z</time>
      </trkpt>
      <trkpt lat="47.72972" lon="2.21327">
        <ele>153</ele>
        <time>2017-01-15T09:13:24.628Z</time>
      </trkpt>
      <trkpt lat="47.72978" lon="2.21323">
        <ele>154</ele>
        <time>2017-01-15T09:13:25.628Z</time>
      </trkpt>
      <trkpt lat="47.72981" lon="2.21321">
        <ele>154</ele>
        <time>2017-01-15T09:13:26.665Z</time>
      </trkpt>
      <trkpt lat="47.72981" lon="2.21321">
        <ele>154</ele>
        <time>2017-01-15T09:13:27.666Z</time>
      </trkpt>
      <trkpt lat="47.72987" lon="2.21316">
        <ele>154</ele>
        <time>2017-01-15T09:13:28.628Z</time>
      </trkpt>
      <trkpt lat="47.72987" lon="2.21316">
        <ele>154</ele>
        <time>2017-01-15T09:13:29.628Z</time>
      </trkpt>
      <trkpt lat="47.72993" lon="2.2131">
        <ele>154</ele>
        <time>2017-01-15T09:13:30.630Z</time>
      </trkpt>
      <trkpt lat="47.72993" lon="2.2131">
        <ele>154</ele>
        <time>2017-01-15T09:13:31.666Z</time>
      </trkpt>
      <trkpt lat="47.72999" lon="2.21305">
        <ele>154</ele>
        <time>2017-01-15T09:13:32.628Z</time>
      </trkpt>
      <trkpt lat="47.72999" lon="2.21305">
        <ele>154</ele>
        <time>2017-01-15T09:13:33.666Z</time>
      </trkpt>
      <trkpt lat="47.73005" lon="2.21299">
        <ele>154</ele>
        <time>2017-01-15T09:13:34.667Z</time>
      </trkpt>
      <trkpt lat="47.73008" lon="2.21297">
        <ele>154</ele>
        <time>2017-01-15T09:13:35.666Z</time>
      </trkpt>
      <trkpt lat="47.73008" lon="2.21297">
        <ele>154</ele>
        <time>2017-01-15T09:13:36.668Z</time>
      </trkpt>
      <trkpt lat="47.73014" lon="2.21292">
        <ele>154</ele>
        <time>2017-01-15T09:13:37.628Z</time>
      </trkpt>
      <trkpt lat="47.73014" lon="2.21292">
        <ele>154</ele>
        <time>2017-01-15T09:13:38.666Z</time>
      </trkpt>
      <trkpt lat="47.7302" lon="2.21287">
        <ele>155</ele>
        <time>2017-01-15T09:13:39.648Z</time>
      </trkpt>
      <trkpt lat="47.7302" lon="2.21287">
        <ele>155</ele>
        <time>2017-01-15T09:13:40.638Z</time>
      </trkpt>
      <trkpt lat="47.73025" lon="2.21283">
        <ele>155</ele>
        <time>2017-01-15T09:13:41.628Z</time>
      </trkpt>
      <trkpt lat="47.73025" lon="2.21283">
        <ele>155</ele>
        <time>2017-01-15T09:13:42.628Z</time>
      </trkpt>
      <trkpt lat="47.73032" lon="2.21277">
        <ele>154</ele>
        <time>2017-01-15T09:13:43.628Z</time>
      </trkpt>
      <trkpt lat="47.73035" lon="2.21274">
        <ele>154</ele>
        <time>2017-01-15T09:13:44.628Z</time>
      </trkpt>
      <trkpt lat="47.73035" lon="2.21274">
        <ele>154</ele>
        <time>2017-01-15T09:13:45.666Z</time>
      </trkpt>
      <trkpt lat="47.73039" lon="2.21266">
        <ele>154</ele>
        <time>2017-01-15T09:13:46.628Z</time>
      </trkpt>
      <trkpt lat="47.73039" lon="2.21266">
        <ele>154</ele>
        <time>2017-01-15T09:13:47.667Z</time>
      </trkpt>
      <trkpt lat="47.7304" lon="2.21256">
        <ele>153</ele>
        <time>2017-01-15T09:13:48.630Z</time>
      </trkpt>
      <trkpt lat="47.7304" lon="2.21256">
        <ele>153</ele>
        <time>2017-01-15T09:13:49.667Z</time>
      </trkpt>
      <trkpt lat="47.73041" lon="2.21245">
        <ele>153</ele>
        <time>2017-01-15T09:13:50.629Z</time>
      </trkpt>
      <trkpt lat="47.73041" lon="2.21245">
        <ele>153</ele>
        <time>2017-01-15T09:13:51.667Z</time>
      </trkpt>
      <trkpt lat="47.73041" lon="2.21234">
        <ele>151</ele>
        <time>2017-01-15T09:13:52.666Z</time>
      </trkpt>
      <trkpt lat="47.73041" lon="2.21234">
        <ele>151</ele>
        <time>2017-01-15T09:13:53.663Z</time>
      </trkpt>
      <trkpt lat="47.73039" lon="2.21223">
        <ele>151</ele>
        <time>2017-01-15T09:13:54.635Z</time>
      </trkpt>
      <trkpt lat="47.73039" lon="2.21217">
        <ele>150</ele>
        <time>2017-01-15T09:13:55.667Z</time>
      </trkpt>
      <trkpt lat="47.73038" lon="2.21212">
        <ele>150</ele>
        <time>2017-01-15T09:13:56.666Z</time>
      </trkpt>
      <trkpt lat="47.73038" lon="2.21212">
        <ele>150</ele>
        <time>2017-01-15T09:13:57.667Z</time>
      </trkpt>
      <trkpt lat="47.73037" lon="2.212">
        <ele>150</ele>
        <time>2017-01-15T09:13:58.628Z</time>
      </trkpt>
      <trkpt lat="47.73037" lon="2.212">
        <ele>150</ele>
        <time>2017-01-15T09:13:59.661Z</time>
      </trkpt>
      <trkpt lat="47.73036" lon="2.2119">
        <ele>150</ele>
        <time>2017-01-15T09:14:00.644Z</time>
      </trkpt>
      <trkpt lat="47.73036" lon="2.2119">
        <ele>150</ele>
        <time>2017-01-15T09:14:01.632Z</time>
      </trkpt>
      <trkpt lat="47.73034" lon="2.2118">
        <ele>149</ele>
        <time>2017-01-15T09:14:02.629Z</time>
      </trkpt>
      <trkpt lat="47.73034" lon="2.2118">
        <ele>149</ele>
        <time>2017-01-15T09:14:03.667Z</time>
      </trkpt>
      <trkpt lat="47.73033" lon="2.21171">
        <ele>149</ele>
        <time>2017-01-15T09:14:04.641Z</time>
      </trkpt>
      <trkpt lat="47.73033" lon="2.21171">
        <ele>149</ele>
        <time>2017-01-15T09:14:05.633Z</time>
      </trkpt>
      <trkpt lat="47.73033" lon="2.21162">
        <ele>148</ele>
        <time>2017-01-15T09:14:06.630Z</time>
      </trkpt>
      <trkpt lat="47.73033" lon="2.21162">
        <ele>148</ele>
        <time>2017-01-15T09:14:07.667Z</time>
      </trkpt>
      <trkpt lat="47.73033" lon="2.21153">
        <ele>149</ele>
        <time>2017-01-15T09:14:08.628Z</time>
      </trkpt>
      <trkpt lat="47.73033" lon="2.21153">
        <ele>149</ele>
        <time>2017-01-15T09:14:09.665Z</time>
      </trkpt>
      <trkpt lat="47.73035" lon="2.21148">
        <ele>149</ele>
        <time>2017-01-15T09:14:10.641Z</time>
      </trkpt>
      <trkpt lat="47.73035" lon="2.21148">
        <ele>149</ele>
        <time>2017-01-15T09:14:11.630Z</time>
      </trkpt>
      <trkpt lat="47.73036" lon="2.21146">
        <ele>149</ele>
        <time>2017-01-15T09:14:12.630Z</time>
      </trkpt>
      <trkpt lat="47.73036" lon="2.21146">
        <ele>149</ele>
        <time>2017-01-15T09:14:13.667Z</time>
      </trkpt>
      <trkpt lat="47.73036" lon="2.21145">
        <ele>149</ele>
        <time>2017-01-15T09:14:14.636Z</time>
      </trkpt>
      <trkpt lat="47.73036" lon="2.21145">
        <ele>149</ele>
        <time>2017-01-15T09:14:15.642Z</time>
      </trkpt>
      <trkpt lat="47.73044" lon="2.21144">
        <ele>150</ele>
        <time>2017-01-15T09:14:16.639Z</time>
      </trkpt>
      <trkpt lat="47.73046" lon="2.21143">
        <ele>150</ele>
        <time>2017-01-15T09:14:17.643Z</time>
      </trkpt>
      <trkpt lat="47.7305" lon="2.21143">
        <ele>150</ele>
        <time>2017-01-15T09:14:18.646Z</time>
      </trkpt>
      <trkpt lat="47.73054" lon="2.21143">
        <ele>150</ele>
        <time>2017-01-15T09:14:19.644Z</time>
      </trkpt>
      <trkpt lat="47.73054" lon="2.21143">
        <ele>150</ele>
        <time>2017-01-15T09:14:20.643Z</time>
      </trkpt>
      <trkpt lat="47.7306" lon="2.21143">
        <ele>150</ele>
        <time>2017-01-15T09:14:21.642Z</time>
      </trkpt>
      <trkpt lat="47.73064" lon="2.21143">
        <ele>151</ele>
        <time>2017-01-15T09:14:22.646Z</time>
      </trkpt>
      <trkpt lat="47.73064" lon="2.21143">
        <ele>151</ele>
        <time>2017-01-15T09:14:23.643Z</time>
      </trkpt>
      <trkpt lat="47.73071" lon="2.21142">
        <ele>152</ele>
        <time>2017-01-15T09:14:24.646Z</time>
      </trkpt>
      <trkpt lat="47.73071" lon="2.21142">
        <ele>152</ele>
        <time>2017-01-15T09:14:25.643Z</time>
      </trkpt>
      <trkpt lat="47.73077" lon="2.21141">
        <ele>153</ele>
        <time>2017-01-15T09:14:26.647Z</time>
      </trkpt>
      <trkpt lat="47.73077" lon="2.21141">
        <ele>153</ele>
        <time>2017-01-15T09:14:27.643Z</time>
      </trkpt>
      <trkpt lat="47.73083" lon="2.21141">
        <ele>153</ele>
        <time>2017-01-15T09:14:28.637Z</time>
      </trkpt>
      <trkpt lat="47.73086" lon="2.21141">
        <ele>154</ele>
        <time>2017-01-15T09:14:29.644Z</time>
      </trkpt>
      <trkpt lat="47.73086" lon="2.21141">
        <ele>154</ele>
        <time>2017-01-15T09:14:30.643Z</time>
      </trkpt>
      <trkpt lat="47.73091" lon="2.21139">
        <ele>155</ele>
        <time>2017-01-15T09:14:31.646Z</time>
      </trkpt>
      <trkpt lat="47.73094" lon="2.21139">
        <ele>156</ele>
        <time>2017-01-15T09:14:32.647Z</time>
      </trkpt>
      <trkpt lat="47.73094" lon="2.21139">
        <ele>156</ele>
        <time>2017-01-15T09:14:33.646Z</time>
      </trkpt>
      <trkpt lat="47.731" lon="2.21137">
        <ele>158</ele>
        <time>2017-01-15T09:14:34.646Z</time>
      </trkpt>
      <trkpt lat="47.731" lon="2.21137">
        <ele>158</ele>
        <time>2017-01-15T09:14:35.643Z</time>
      </trkpt>
      <trkpt lat="47.73106" lon="2.21136">
        <ele>159</ele>
        <time>2017-01-15T09:14:36.646Z</time>
      </trkpt>
      <trkpt lat="47.73106" lon="2.21136">
        <ele>159</ele>
        <time>2017-01-15T09:14:37.636Z</time>
      </trkpt>
      <trkpt lat="47.73112" lon="2.21135">
        <ele>160</ele>
        <time>2017-01-15T09:14:38.648Z</time>
      </trkpt>
      <trkpt lat="47.73112" lon="2.21135">
        <ele>160</ele>
        <time>2017-01-15T09:14:39.660Z</time>
      </trkpt>
      <trkpt lat="47.73119" lon="2.21134">
        <ele>160</ele>
        <time>2017-01-15T09:14:40.646Z</time>
      </trkpt>
      <trkpt lat="47.73119" lon="2.21134">
        <ele>160</ele>
        <time>2017-01-15T09:14:41.643Z</time>
      </trkpt>
      <trkpt lat="47.73126" lon="2.21132">
        <ele>159</ele>
        <time>2017-01-15T09:14:42.634Z</time>
      </trkpt>
      <trkpt lat="47.7313" lon="2.21131">
        <ele>159</ele>
        <time>2017-01-15T09:14:43.646Z</time>
      </trkpt>
      <trkpt lat="47.73133" lon="2.2113">
        <ele>159</ele>
        <time>2017-01-15T09:14:44.647Z</time>
      </trkpt>
      <trkpt lat="47.73133" lon="2.2113">
        <ele>159</ele>
        <time>2017-01-15T09:14:45.643Z</time>
      </trkpt>
      <trkpt lat="47.7314" lon="2.21127">
        <ele>160</ele>
        <time>2017-01-15T09:14:46.646Z</time>
      </trkpt>
      <trkpt lat="47.7314" lon="2.21127">
        <ele>160</ele>
        <time>2017-01-15T09:14:47.643Z</time>
      </trkpt>
      <trkpt lat="47.73146" lon="2.21125">
        <ele>161</ele>
        <time>2017-01-15T09:14:48.646Z</time>
      </trkpt>
      <trkpt lat="47.73146" lon="2.21125">
        <ele>161</ele>
        <time>2017-01-15T09:14:49.647Z</time>
      </trkpt>
      <trkpt lat="47.73152" lon="2.21123">
        <ele>161</ele>
        <time>2017-01-15T09:14:50.649Z</time>
      </trkpt>
      <trkpt lat="47.73152" lon="2.21123">
        <ele>161</ele>
        <time>2017-01-15T09:14:51.638Z</time>
      </trkpt>
      <trkpt lat="47.73159" lon="2.2112">
        <ele>161</ele>
        <time>2017-01-15T09:14:52.637Z</time>
      </trkpt>
      <trkpt lat="47.73159" lon="2.2112">
        <ele>161</ele>
        <time>2017-01-15T09:14:53.639Z</time>
      </trkpt>
      <trkpt lat="47.73165" lon="2.21118">
        <ele>160</ele>
        <time>2017-01-15T09:14:54.643Z</time>
      </trkpt>
      <trkpt lat="47.73165" lon="2.21118">
        <ele>160</ele>
        <time>2017-01-15T09:14:55.643Z</time>
      </trkpt>
      <trkpt lat="47.73172" lon="2.21115">
        <ele>160</ele>
        <time>2017-01-15T09:14:56.646Z</time>
      </trkpt>
      <trkpt lat="47.73172" lon="2.21115">
        <ele>160</ele>
        <time>2017-01-15T09:14:57.634Z</time>
      </trkpt>
      <trkpt lat="47.73179" lon="2.21112">
        <ele>160</ele>
        <time>2017-01-15T09:14:58.645Z</time>
      </trkpt>
      <trkpt lat="47.73179" lon="2.21112">
        <ele>160</ele>
        <time>2017-01-15T09:14:59.643Z</time>
      </trkpt>
      <trkpt lat="47.73186" lon="2.21109">
        <ele>160</ele>
        <time>2017-01-15T09:15:00.646Z</time>
      </trkpt>
      <trkpt lat="47.73189" lon="2.21107">
        <ele>161</ele>
        <time>2017-01-15T09:15:01.643Z</time>
      </trkpt>
      <trkpt lat="47.73192" lon="2.21105">
        <ele>161</ele>
        <time>2017-01-15T09:15:02.646Z</time>
      </trkpt>
      <trkpt lat="47.73192" lon="2.21105">
        <ele>161</ele>
        <time>2017-01-15T09:15:03.643Z</time>
      </trkpt>
      <trkpt lat="47.732" lon="2.21102">
        <ele>161</ele>
        <time>2017-01-15T09:15:04.646Z</time>
      </trkpt>
      <trkpt lat="47.732" lon="2.21102">
        <ele>161</ele>
        <time>2017-01-15T09:15:05.646Z</time>
      </trkpt>
      <trkpt lat="47.73207" lon="2.21098">
        <ele>162</ele>
        <time>2017-01-15T09:15:06.645Z</time>
      </trkpt>
      <trkpt lat="47.7321" lon="2.21096">
        <ele>162</ele>
        <time>2017-01-15T09:15:07.644Z</time>
      </trkpt>
      <trkpt lat="47.73214" lon="2.21094">
        <ele>162</ele>
        <time>2017-01-15T09:15:08.647Z</time>
      </trkpt>
      <trkpt lat="47.73214" lon="2.21094">
        <ele>162</ele>
        <time>2017-01-15T09:15:09.639Z</time>
      </trkpt>
      <trkpt lat="47.73222" lon="2.21091">
        <ele>161</ele>
        <time>2017-01-15T09:15:10.628Z</time>
      </trkpt>
      <trkpt lat="47.73222" lon="2.21091">
        <ele>161</ele>
        <time>2017-01-15T09:15:11.666Z</time>
      </trkpt>
      <trkpt lat="47.7323" lon="2.21088">
        <ele>161</ele>
        <time>2017-01-15T09:15:12.654Z</time>
      </trkpt>
      <trkpt lat="47.7323" lon="2.21088">
        <ele>161</ele>
        <time>2017-01-15T09:15:13.643Z</time>
      </trkpt>
      <trkpt lat="47.73239" lon="2.21084">
        <ele>160</ele>
        <time>2017-01-15T09:15:14.630Z</time>
      </trkpt>
      <trkpt lat="47.73239" lon="2.21084">
        <ele>160</ele>
        <time>2017-01-15T09:15:15.646Z</time>
      </trkpt>
      <trkpt lat="47.73247" lon="2.2108">
        <ele>160</ele>
        <time>2017-01-15T09:15:16.648Z</time>
      </trkpt>
      <trkpt lat="47.73247" lon="2.2108">
        <ele>160</ele>
        <time>2017-01-15T09:15:17.639Z</time>
      </trkpt>
      <trkpt lat="47.73255" lon="2.21077">
        <ele>160</ele>
        <time>2017-01-15T09:15:18.647Z</time>
      </trkpt>
      <trkpt lat="47.73255" lon="2.21077">
        <ele>160</ele>
        <time>2017-01-15T09:15:19.644Z</time>
      </trkpt>
      <trkpt lat="47.73263" lon="2.21074">
        <ele>160</ele>
        <time>2017-01-15T09:15:20.648Z</time>
      </trkpt>
      <trkpt lat="47.73263" lon="2.21074">
        <ele>160</ele>
        <time>2017-01-15T09:15:21.639Z</time>
      </trkpt>
      <trkpt lat="47.73271" lon="2.2107">
        <ele>160</ele>
        <time>2017-01-15T09:15:22.646Z</time>
      </trkpt>
      <trkpt lat="47.73271" lon="2.2107">
        <ele>160</ele>
        <time>2017-01-15T09:15:23.644Z</time>
      </trkpt>
      <trkpt lat="47.7328" lon="2.21066">
        <ele>160</ele>
        <time>2017-01-15T09:15:24.646Z</time>
      </trkpt>
      <trkpt lat="47.7328" lon="2.21066">
        <ele>160</ele>
        <time>2017-01-15T09:15:25.643Z</time>
      </trkpt>
      <trkpt lat="47.73289" lon="2.21063">
        <ele>160</ele>
        <time>2017-01-15T09:15:26.644Z</time>
      </trkpt>
      <trkpt lat="47.73289" lon="2.21063">
        <ele>160</ele>
        <time>2017-01-15T09:15:27.632Z</time>
      </trkpt>
      <trkpt lat="47.73298" lon="2.21059">
        <ele>160</ele>
        <time>2017-01-15T09:15:28.662Z</time>
      </trkpt>
      <trkpt lat="47.73298" lon="2.21059">
        <ele>160</ele>
        <time>2017-01-15T09:15:29.650Z</time>
      </trkpt>
      <trkpt lat="47.73307" lon="2.21055">
        <ele>160</ele>
        <time>2017-01-15T09:15:30.644Z</time>
      </trkpt>
      <trkpt lat="47.73307" lon="2.21055">
        <ele>160</ele>
        <time>2017-01-15T09:15:31.638Z</time>
      </trkpt>
      <trkpt lat="47.73317" lon="2.21052">
        <ele>160</ele>
        <time>2017-01-15T09:15:32.647Z</time>
      </trkpt>
      <trkpt lat="47.73317" lon="2.21052">
        <ele>160</ele>
        <time>2017-01-15T09:15:33.646Z</time>
      </trkpt>
      <trkpt lat="47.73327" lon="2.21048">
        <ele>160</ele>
        <time>2017-01-15T09:15:34.646Z</time>
      </trkpt>
      <trkpt lat="47.73327" lon="2.21048">
        <ele>160</ele>
        <time>2017-01-15T09:15:35.640Z</time>
      </trkpt>
      <trkpt lat="47.73337" lon="2.21043">
        <ele>160</ele>
        <time>2017-01-15T09:15:36.643Z</time>
      </trkpt>
      <trkpt lat="47.73337" lon="2.21043">
        <ele>160</ele>
        <time>2017-01-15T09:15:37.644Z</time>
      </trkpt>
      <trkpt lat="47.73347" lon="2.21038">
        <ele>160</ele>
        <time>2017-01-15T09:15:38.647Z</time>
      </trkpt>
      <trkpt lat="47.73347" lon="2.21038">
        <ele>160</ele>
        <time>2017-01-15T09:15:39.644Z</time>
      </trkpt>
      <trkpt lat="47.73356" lon="2.21034">
        <ele>160</ele>
        <time>2017-01-15T09:15:40.667Z</time>
      </trkpt>
      <trkpt lat="47.73356" lon="2.21034">
        <ele>160</ele>
        <time>2017-01-15T09:15:41.628Z</time>
      </trkpt>
      <trkpt lat="47.73366" lon="2.21029">
        <ele>160</ele>
        <time>2017-01-15T09:15:42.656Z</time>
      </trkpt>
      <trkpt lat="47.73366" lon="2.21029">
        <ele>160</ele>
        <time>2017-01-15T09:15:43.644Z</time>
      </trkpt>
      <trkpt lat="47.73376" lon="2.21025">
        <ele>161</ele>
        <time>2017-01-15T09:15:44.647Z</time>
      </trkpt>
      <trkpt lat="47.73381" lon="2.21023">
        <ele>161</ele>
        <time>2017-01-15T09:15:45.643Z</time>
      </trkpt>
      <trkpt lat="47.73381" lon="2.21023">
        <ele>161</ele>
        <time>2017-01-15T09:15:46.644Z</time>
      </trkpt>
      <trkpt lat="47.73391" lon="2.21018">
        <ele>161</ele>
        <time>2017-01-15T09:15:47.647Z</time>
      </trkpt>
      <trkpt lat="47.73396" lon="2.21016">
        <ele>161</ele>
        <time>2017-01-15T09:15:48.646Z</time>
      </trkpt>
      <trkpt lat="47.73396" lon="2.21016">
        <ele>161</ele>
        <time>2017-01-15T09:15:49.647Z</time>
      </trkpt>
      <trkpt lat="47.73406" lon="2.21012">
        <ele>161</ele>
        <time>2017-01-15T09:15:50.646Z</time>
      </trkpt>
      <trkpt lat="47.73406" lon="2.21012">
        <ele>161</ele>
        <time>2017-01-15T09:15:51.638Z</time>
      </trkpt>
      <trkpt lat="47.73416" lon="2.21008">
        <ele>161</ele>
        <time>2017-01-15T09:15:52.646Z</time>
      </trkpt>
      <trkpt lat="47.73416" lon="2.21008">
        <ele>161</ele>
        <time>2017-01-15T09:15:53.644Z</time>
      </trkpt>
      <trkpt lat="47.73427" lon="2.21004">
        <ele>161</ele>
        <time>2017-01-15T09:15:54.646Z</time>
      </trkpt>
      <trkpt lat="47.73432" lon="2.21002">
        <ele>161</ele>
        <time>2017-01-15T09:15:55.644Z</time>
      </trkpt>
      <trkpt lat="47.73432" lon="2.21002">
        <ele>161</ele>
        <time>2017-01-15T09:15:56.646Z</time>
      </trkpt>
      <trkpt lat="47.73441" lon="2.20998">
        <ele>161</ele>
        <time>2017-01-15T09:15:57.646Z</time>
      </trkpt>
      <trkpt lat="47.73447" lon="2.20996">
        <ele>161</ele>
        <time>2017-01-15T09:15:58.644Z</time>
      </trkpt>
      <trkpt lat="47.73447" lon="2.20996">
        <ele>161</ele>
        <time>2017-01-15T09:15:59.635Z</time>
      </trkpt>
      <trkpt lat="47.73459" lon="2.20992">
        <ele>160</ele>
        <time>2017-01-15T09:16:00.646Z</time>
      </trkpt>
      <trkpt lat="47.73459" lon="2.20992">
        <ele>160</ele>
        <time>2017-01-15T09:16:01.644Z</time>
      </trkpt>
      <trkpt lat="47.7347" lon="2.20986">
        <ele>160</ele>
        <time>2017-01-15T09:16:02.648Z</time>
      </trkpt>
      <trkpt lat="47.7347" lon="2.20986">
        <ele>160</ele>
        <time>2017-01-15T09:16:03.639Z</time>
      </trkpt>
      <trkpt lat="47.73481" lon="2.2098">
        <ele>160</ele>
        <time>2017-01-15T09:16:04.646Z</time>
      </trkpt>
      <trkpt lat="47.73481" lon="2.2098">
        <ele>160</ele>
        <time>2017-01-15T09:16:05.639Z</time>
      </trkpt>
      <trkpt lat="47.73492" lon="2.20975">
        <ele>160</ele>
        <time>2017-01-15T09:16:06.646Z</time>
      </trkpt>
      <trkpt lat="47.73492" lon="2.20975">
        <ele>160</ele>
        <time>2017-01-15T09:16:07.644Z</time>
      </trkpt>
      <trkpt lat="47.73502" lon="2.2097">
        <ele>161</ele>
        <time>2017-01-15T09:16:08.646Z</time>
      </trkpt>
      <trkpt lat="47.73502" lon="2.2097">
        <ele>161</ele>
        <time>2017-01-15T09:16:09.644Z</time>
      </trkpt>
      <trkpt lat="47.73513" lon="2.20965">
        <ele>161</ele>
        <time>2017-01-15T09:16:10.646Z</time>
      </trkpt>
      <trkpt lat="47.73513" lon="2.20965">
        <ele>161</ele>
        <time>2017-01-15T09:16:11.632Z</time>
      </trkpt>
      <trkpt lat="47.73523" lon="2.20959">
        <ele>162</ele>
        <time>2017-01-15T09:16:12.660Z</time>
      </trkpt>
      <trkpt lat="47.73523" lon="2.20959">
        <ele>162</ele>
        <time>2017-01-15T09:16:13.647Z</time>
      </trkpt>
      <trkpt lat="47.73532" lon="2.20955">
        <ele>162</ele>
        <time>2017-01-15T09:16:14.667Z</time>
      </trkpt>
      <trkpt lat="47.73532" lon="2.20955">
        <ele>162</ele>
        <time>2017-01-15T09:16:15.646Z</time>
      </trkpt>
      <trkpt lat="47.73541" lon="2.20949">
        <ele>162</ele>
        <time>2017-01-15T09:16:16.646Z</time>
      </trkpt>
      <trkpt lat="47.73541" lon="2.20949">
        <ele>162</ele>
        <time>2017-01-15T09:16:17.635Z</time>
      </trkpt>
      <trkpt lat="47.7355" lon="2.20944">
        <ele>162</ele>
        <time>2017-01-15T09:16:18.646Z</time>
      </trkpt>
      <trkpt lat="47.73553" lon="2.20942">
        <ele>163</ele>
        <time>2017-01-15T09:16:19.646Z</time>
      </trkpt>
      <trkpt lat="47.73558" lon="2.20939">
        <ele>163</ele>
        <time>2017-01-15T09:16:20.647Z</time>
      </trkpt>
      <trkpt lat="47.73558" lon="2.20939">
        <ele>163</ele>
        <time>2017-01-15T09:16:21.639Z</time>
      </trkpt>
      <trkpt lat="47.73568" lon="2.20933">
        <ele>163</ele>
        <time>2017-01-15T09:16:22.646Z</time>
      </trkpt>
      <trkpt lat="47.73568" lon="2.20933">
        <ele>163</ele>
        <time>2017-01-15T09:16:23.646Z</time>
      </trkpt>
      <trkpt lat="47.73578" lon="2.20928">
        <ele>163</ele>
        <time>2017-01-15T09:16:24.644Z</time>
      </trkpt>
      <trkpt lat="47.73584" lon="2.20926">
        <ele>164</ele>
        <time>2017-01-15T09:16:25.643Z</time>
      </trkpt>
      <trkpt lat="47.73589" lon="2.20923">
        <ele>164</ele>
        <time>2017-01-15T09:16:26.645Z</time>
      </trkpt>
      <trkpt lat="47.73589" lon="2.20923">
        <ele>164</ele>
        <time>2017-01-15T09:16:27.644Z</time>
      </trkpt>
      <trkpt lat="47.73599" lon="2.20918">
        <ele>164</ele>
        <time>2017-01-15T09:16:28.647Z</time>
      </trkpt>
      <trkpt lat="47.73599" lon="2.20918">
        <ele>164</ele>
        <time>2017-01-15T09:16:29.644Z</time>
      </trkpt>
      <trkpt lat="47.7361" lon="2.20914">
        <ele>165</ele>
        <time>2017-01-15T09:16:30.635Z</time>
      </trkpt>
      <trkpt lat="47.7361" lon="2.20914">
        <ele>165</ele>
        <time>2017-01-15T09:16:31.655Z</time>
      </trkpt>
      <trkpt lat="47.73622" lon="2.20907">
        <ele>165</ele>
        <time>2017-01-15T09:16:32.649Z</time>
      </trkpt>
      <trkpt lat="47.73622" lon="2.20907">
        <ele>165</ele>
        <time>2017-01-15T09:16:33.644Z</time>
      </trkpt>
      <trkpt lat="47.73634" lon="2.20902">
        <ele>165</ele>
        <time>2017-01-15T09:16:34.654Z</time>
      </trkpt>
      <trkpt lat="47.73634" lon="2.20902">
        <ele>165</ele>
        <time>2017-01-15T09:16:35.641Z</time>
      </trkpt>
      <trkpt lat="47.73646" lon="2.20896">
        <ele>166</ele>
        <time>2017-01-15T09:16:36.654Z</time>
      </trkpt>
      <trkpt lat="47.73646" lon="2.20896">
        <ele>166</ele>
        <time>2017-01-15T09:16:37.644Z</time>
      </trkpt>
      <trkpt lat="47.73657" lon="2.20891">
        <ele>166</ele>
        <time>2017-01-15T09:16:38.644Z</time>
      </trkpt>
      <trkpt lat="47.73657" lon="2.20891">
        <ele>166</ele>
        <time>2017-01-15T09:16:39.632Z</time>
      </trkpt>
      <trkpt lat="47.73669" lon="2.20886">
        <ele>166</ele>
        <time>2017-01-15T09:16:40.647Z</time>
      </trkpt>
      <trkpt lat="47.73669" lon="2.20886">
        <ele>166</ele>
        <time>2017-01-15T09:16:41.656Z</time>
      </trkpt>
      <trkpt lat="47.73681" lon="2.20881">
        <ele>166</ele>
        <time>2017-01-15T09:16:42.646Z</time>
      </trkpt>
      <trkpt lat="47.73687" lon="2.20879">
        <ele>166</ele>
        <time>2017-01-15T09:16:43.642Z</time>
      </trkpt>
      <trkpt lat="47.73693" lon="2.20876">
        <ele>165</ele>
        <time>2017-01-15T09:16:44.648Z</time>
      </trkpt>
      <trkpt lat="47.73693" lon="2.20876">
        <ele>165</ele>
        <time>2017-01-15T09:16:45.636Z</time>
      </trkpt>
      <trkpt lat="47.73705" lon="2.20871">
        <ele>165</ele>
        <time>2017-01-15T09:16:46.647Z</time>
      </trkpt>
      <trkpt lat="47.73705" lon="2.20871">
        <ele>165</ele>
        <time>2017-01-15T09:16:47.644Z</time>
      </trkpt>
      <trkpt lat="47.73717" lon="2.20866">
        <ele>165</ele>
        <time>2017-01-15T09:16:48.646Z</time>
      </trkpt>
      <trkpt lat="47.73724" lon="2.20862">
        <ele>165</ele>
        <time>2017-01-15T09:16:49.649Z</time>
      </trkpt>
      <trkpt lat="47.73731" lon="2.2086">
        <ele>165</ele>
        <time>2017-01-15T09:16:50.649Z</time>
      </trkpt>
      <trkpt lat="47.73731" lon="2.2086">
        <ele>165</ele>
        <time>2017-01-15T09:16:51.649Z</time>
      </trkpt>
      <trkpt lat="47.73743" lon="2.20854">
        <ele>165</ele>
        <time>2017-01-15T09:16:52.644Z</time>
      </trkpt>
      <trkpt lat="47.73749" lon="2.20852">
        <ele>165</ele>
        <time>2017-01-15T09:16:53.644Z</time>
      </trkpt>
      <trkpt lat="47.73749" lon="2.20852">
        <ele>165</ele>
        <time>2017-01-15T09:16:54.644Z</time>
      </trkpt>
      <trkpt lat="47.7376" lon="2.20846">
        <ele>164</ele>
        <time>2017-01-15T09:16:55.644Z</time>
      </trkpt>
      <trkpt lat="47.73766" lon="2.20843">
        <ele>164</ele>
        <time>2017-01-15T09:16:56.646Z</time>
      </trkpt>
      <trkpt lat="47.73766" lon="2.20843">
        <ele>164</ele>
        <time>2017-01-15T09:16:57.633Z</time>
      </trkpt>
      <trkpt lat="47.73777" lon="2.20837">
        <ele>164</ele>
        <time>2017-01-15T09:16:58.661Z</time>
      </trkpt>
      <trkpt lat="47.73777" lon="2.20837">
        <ele>164</ele>
        <time>2017-01-15T09:16:59.648Z</time>
      </trkpt>
      <trkpt lat="47.73788" lon="2.20832">
        <ele>164</ele>
        <time>2017-01-15T09:17:00.646Z</time>
      </trkpt>
      <trkpt lat="47.73788" lon="2.20832">
        <ele>164</ele>
        <time>2017-01-15T09:17:01.644Z</time>
      </trkpt>
      <trkpt lat="47.73799" lon="2.20826">
        <ele>165</ele>
        <time>2017-01-15T09:17:02.647Z</time>
      </trkpt>
      <trkpt lat="47.73799" lon="2.20826">
        <ele>165</ele>
        <time>2017-01-15T09:17:03.646Z</time>
      </trkpt>
      <trkpt lat="47.7381" lon="2.2082">
        <ele>165</ele>
        <time>2017-01-15T09:17:04.646Z</time>
      </trkpt>
      <trkpt lat="47.7381" lon="2.2082">
        <ele>165</ele>
        <time>2017-01-15T09:17:05.666Z</time>
      </trkpt>
      <trkpt lat="47.73821" lon="2.20815">
        <ele>165</ele>
        <time>2017-01-15T09:17:06.656Z</time>
      </trkpt>
      <trkpt lat="47.73827" lon="2.20812">
        <ele>165</ele>
        <time>2017-01-15T09:17:07.644Z</time>
      </trkpt>
      <trkpt lat="47.73833" lon="2.20809">
        <ele>165</ele>
        <time>2017-01-15T09:17:08.649Z</time>
      </trkpt>
      <trkpt lat="47.73833" lon="2.20809">
        <ele>165</ele>
        <time>2017-01-15T09:17:09.643Z</time>
      </trkpt>
      <trkpt lat="47.73845" lon="2.20804">
        <ele>165</ele>
        <time>2017-01-15T09:17:10.644Z</time>
      </trkpt>
      <trkpt lat="47.73851" lon="2.20802">
        <ele>164</ele>
        <time>2017-01-15T09:17:11.644Z</time>
      </trkpt>
      <trkpt lat="47.73851" lon="2.20802">
        <ele>164</ele>
        <time>2017-01-15T09:17:12.644Z</time>
      </trkpt>
      <trkpt lat="47.73863" lon="2.20797">
        <ele>165</ele>
        <time>2017-01-15T09:17:13.646Z</time>
      </trkpt>
      <trkpt lat="47.73868" lon="2.20794">
        <ele>165</ele>
        <time>2017-01-15T09:17:14.667Z</time>
      </trkpt>
      <trkpt lat="47.73868" lon="2.20794">
        <ele>165</ele>
        <time>2017-01-15T09:17:15.647Z</time>
      </trkpt>
      <trkpt lat="47.7388" lon="2.20789">
        <ele>164</ele>
        <time>2017-01-15T09:17:16.647Z</time>
      </trkpt>
      <trkpt lat="47.7388" lon="2.20789">
        <ele>164</ele>
        <time>2017-01-15T09:17:17.644Z</time>
      </trkpt>
      <trkpt lat="47.73892" lon="2.20784">
        <ele>164</ele>
        <time>2017-01-15T09:17:18.643Z</time>
      </trkpt>
      <trkpt lat="47.73892" lon="2.20784">
        <ele>164</ele>
        <time>2017-01-15T09:17:19.644Z</time>
      </trkpt>
      <trkpt lat="47.73904" lon="2.20778">
        <ele>164</ele>
        <time>2017-01-15T09:17:20.649Z</time>
      </trkpt>
      <trkpt lat="47.73904" lon="2.20778">
        <ele>164</ele>
        <time>2017-01-15T09:17:21.643Z</time>
      </trkpt>
      <trkpt lat="47.73915" lon="2.20774">
        <ele>163</ele>
        <time>2017-01-15T09:17:22.647Z</time>
      </trkpt>
      <trkpt lat="47.73915" lon="2.20774">
        <ele>163</ele>
        <time>2017-01-15T09:17:23.655Z</time>
      </trkpt>
      <trkpt lat="47.73927" lon="2.20768">
        <ele>163</ele>
        <time>2017-01-15T09:17:24.656Z</time>
      </trkpt>
      <trkpt lat="47.73927" lon="2.20768">
        <ele>163</ele>
        <time>2017-01-15T09:17:25.644Z</time>
      </trkpt>
      <trkpt lat="47.73939" lon="2.20763">
        <ele>163</ele>
        <time>2017-01-15T09:17:26.646Z</time>
      </trkpt>
      <trkpt lat="47.73939" lon="2.20763">
        <ele>163</ele>
        <time>2017-01-15T09:17:27.639Z</time>
      </trkpt>
      <trkpt lat="47.7395" lon="2.20758">
        <ele>163</ele>
        <time>2017-01-15T09:17:28.640Z</time>
      </trkpt>
      <trkpt lat="47.73955" lon="2.20755">
        <ele>163</ele>
        <time>2017-01-15T09:17:29.646Z</time>
      </trkpt>
      <trkpt lat="47.73961" lon="2.20753">
        <ele>163</ele>
        <time>2017-01-15T09:17:30.636Z</time>
      </trkpt>
      <trkpt lat="47.73966" lon="2.2075">
        <ele>163</ele>
        <time>2017-01-15T09:17:31.645Z</time>
      </trkpt>
      <trkpt lat="47.73972" lon="2.20747">
        <ele>163</ele>
        <time>2017-01-15T09:17:32.648Z</time>
      </trkpt>
      <trkpt lat="47.73972" lon="2.20747">
        <ele>163</ele>
        <time>2017-01-15T09:17:33.645Z</time>
      </trkpt>
      <trkpt lat="47.73984" lon="2.20741">
        <ele>163</ele>
        <time>2017-01-15T09:17:34.640Z</time>
      </trkpt>
      <trkpt lat="47.7399" lon="2.20738">
        <ele>163</ele>
        <time>2017-01-15T09:17:35.644Z</time>
      </trkpt>
      <trkpt lat="47.7399" lon="2.20738">
        <ele>163</ele>
        <time>2017-01-15T09:17:36.644Z</time>
      </trkpt>
      <trkpt lat="47.74001" lon="2.20732">
        <ele>163</ele>
        <time>2017-01-15T09:17:37.643Z</time>
      </trkpt>
      <trkpt lat="47.74007" lon="2.2073">
        <ele>163</ele>
        <time>2017-01-15T09:17:38.648Z</time>
      </trkpt>
      <trkpt lat="47.74007" lon="2.2073">
        <ele>163</ele>
        <time>2017-01-15T09:17:39.644Z</time>
      </trkpt>
      <trkpt lat="47.74018" lon="2.20726">
        <ele>163</ele>
        <time>2017-01-15T09:17:40.646Z</time>
      </trkpt>
      <trkpt lat="47.74018" lon="2.20726">
        <ele>163</ele>
        <time>2017-01-15T09:17:41.645Z</time>
      </trkpt>
      <trkpt lat="47.74029" lon="2.20721">
        <ele>163</ele>
        <time>2017-01-15T09:17:42.636Z</time>
      </trkpt>
      <trkpt lat="47.74029" lon="2.20721">
        <ele>163</ele>
        <time>2017-01-15T09:17:43.644Z</time>
      </trkpt>
      <trkpt lat="47.74037" lon="2.20717">
        <ele>162</ele>
        <time>2017-01-15T09:17:44.650Z</time>
      </trkpt>
      <trkpt lat="47.74037" lon="2.20717">
        <ele>162</ele>
        <time>2017-01-15T09:17:45.640Z</time>
      </trkpt>
      <trkpt lat="47.74042" lon="2.20708">
        <ele>162</ele>
        <time>2017-01-15T09:17:46.644Z</time>
      </trkpt>
      <trkpt lat="47.74043" lon="2.20701">
        <ele>162</ele>
        <time>2017-01-15T09:17:47.653Z</time>
      </trkpt>
      <trkpt lat="47.74043" lon="2.20701">
        <ele>162</ele>
        <time>2017-01-15T09:17:48.646Z</time>
      </trkpt>
      <trkpt lat="47.74044" lon="2.20687">
        <ele>160</ele>
        <time>2017-01-15T09:17:49.649Z</time>
      </trkpt>
      <trkpt lat="47.74044" lon="2.2068">
        <ele>160</ele>
        <time>2017-01-15T09:17:50.646Z</time>
      </trkpt>
      <trkpt lat="47.74044" lon="2.2068">
        <ele>160</ele>
        <time>2017-01-15T09:17:51.645Z</time>
      </trkpt>
      <trkpt lat="47.74043" lon="2.20665">
        <ele>159</ele>
        <time>2017-01-15T09:17:52.647Z</time>
      </trkpt>
      <trkpt lat="47.74043" lon="2.20665">
        <ele>159</ele>
        <time>2017-01-15T09:17:53.646Z</time>
      </trkpt>
      <trkpt lat="47.74043" lon="2.20649">
        <ele>157</ele>
        <time>2017-01-15T09:17:54.657Z</time>
      </trkpt>
      <trkpt lat="47.74043" lon="2.20649">
        <ele>157</ele>
        <time>2017-01-15T09:17:55.645Z</time>
      </trkpt>
      <trkpt lat="47.74044" lon="2.20633">
        <ele>156</ele>
        <time>2017-01-15T09:17:56.647Z</time>
      </trkpt>
      <trkpt lat="47.74044" lon="2.20633">
        <ele>156</ele>
        <time>2017-01-15T09:17:57.636Z</time>
      </trkpt>
      <trkpt lat="47.74046" lon="2.20617">
        <ele>155</ele>
        <time>2017-01-15T09:17:58.643Z</time>
      </trkpt>
      <trkpt lat="47.74046" lon="2.20617">
        <ele>155</ele>
        <time>2017-01-15T09:17:59.644Z</time>
      </trkpt>
      <trkpt lat="47.74047" lon="2.20601">
        <ele>155</ele>
        <time>2017-01-15T09:18:00.646Z</time>
      </trkpt>
      <trkpt lat="47.74048" lon="2.20592">
        <ele>154</ele>
        <time>2017-01-15T09:18:01.647Z</time>
      </trkpt>
      <trkpt lat="47.74048" lon="2.20584">
        <ele>154</ele>
        <time>2017-01-15T09:18:02.647Z</time>
      </trkpt>
      <trkpt lat="47.74048" lon="2.20584">
        <ele>154</ele>
        <time>2017-01-15T09:18:03.644Z</time>
      </trkpt>
      <trkpt lat="47.74048" lon="2.20567">
        <ele>153</ele>
        <time>2017-01-15T09:18:04.644Z</time>
      </trkpt>
      <trkpt lat="47.74048" lon="2.20567">
        <ele>153</ele>
        <time>2017-01-15T09:18:05.656Z</time>
      </trkpt>
      <trkpt lat="47.74048" lon="2.20551">
        <ele>152</ele>
        <time>2017-01-15T09:18:06.647Z</time>
      </trkpt>
      <trkpt lat="47.74048" lon="2.20551">
        <ele>152</ele>
        <time>2017-01-15T09:18:07.645Z</time>
      </trkpt>
      <trkpt lat="47.74048" lon="2.20535">
        <ele>151</ele>
        <time>2017-01-15T09:18:08.648Z</time>
      </trkpt>
      <trkpt lat="47.74048" lon="2.20535">
        <ele>151</ele>
        <time>2017-01-15T09:18:09.645Z</time>
      </trkpt>
      <trkpt lat="47.74048" lon="2.20518">
        <ele>150</ele>
        <time>2017-01-15T09:18:10.659Z</time>
      </trkpt>
      <trkpt lat="47.74048" lon="2.2051">
        <ele>149</ele>
        <time>2017-01-15T09:18:11.649Z</time>
      </trkpt>
      <trkpt lat="47.74048" lon="2.2051">
        <ele>149</ele>
        <time>2017-01-15T09:18:12.644Z</time>
      </trkpt>
      <trkpt lat="47.74049" lon="2.20492">
        <ele>148</ele>
        <time>2017-01-15T09:18:13.648Z</time>
      </trkpt>
      <trkpt lat="47.74049" lon="2.20492">
        <ele>148</ele>
        <time>2017-01-15T09:18:14.634Z</time>
      </trkpt>
      <trkpt lat="47.74048" lon="2.20475">
        <ele>147</ele>
        <time>2017-01-15T09:18:15.644Z</time>
      </trkpt>
      <trkpt lat="47.74048" lon="2.20475">
        <ele>147</ele>
        <time>2017-01-15T09:18:16.650Z</time>
      </trkpt>
      <trkpt lat="47.74048" lon="2.20457">
        <ele>146</ele>
        <time>2017-01-15T09:18:17.656Z</time>
      </trkpt>
      <trkpt lat="47.74048" lon="2.20457">
        <ele>146</ele>
        <time>2017-01-15T09:18:18.661Z</time>
      </trkpt>
      <trkpt lat="47.74048" lon="2.2044">
        <ele>146</ele>
        <time>2017-01-15T09:18:19.651Z</time>
      </trkpt>
      <trkpt lat="47.74048" lon="2.20432">
        <ele>146</ele>
        <time>2017-01-15T09:18:20.646Z</time>
      </trkpt>
      <trkpt lat="47.74048" lon="2.20432">
        <ele>146</ele>
        <time>2017-01-15T09:18:21.654Z</time>
      </trkpt>
      <trkpt lat="47.7405" lon="2.20414">
        <ele>145</ele>
        <time>2017-01-15T09:18:22.652Z</time>
      </trkpt>
      <trkpt lat="47.74051" lon="2.20405">
        <ele>145</ele>
        <time>2017-01-15T09:18:23.646Z</time>
      </trkpt>
      <trkpt lat="47.74051" lon="2.20405">
        <ele>145</ele>
        <time>2017-01-15T09:18:24.645Z</time>
      </trkpt>
      <trkpt lat="47.74052" lon="2.20387">
        <ele>145</ele>
        <time>2017-01-15T09:18:25.636Z</time>
      </trkpt>
      <trkpt lat="47.74052" lon="2.20378">
        <ele>144</ele>
        <time>2017-01-15T09:18:26.648Z</time>
      </trkpt>
      <trkpt lat="47.74052" lon="2.20378">
        <ele>144</ele>
        <time>2017-01-15T09:18:27.646Z</time>
      </trkpt>
      <trkpt lat="47.74052" lon="2.20362">
        <ele>144</ele>
        <time>2017-01-15T09:18:28.646Z</time>
      </trkpt>
      <trkpt lat="47.74052" lon="2.20362">
        <ele>144</ele>
        <time>2017-01-15T09:18:29.634Z</time>
      </trkpt>
      <trkpt lat="47.74053" lon="2.20345">
        <ele>144</ele>
        <time>2017-01-15T09:18:30.647Z</time>
      </trkpt>
      <trkpt lat="47.74053" lon="2.20345">
        <ele>144</ele>
        <time>2017-01-15T09:18:31.648Z</time>
      </trkpt>
      <trkpt lat="47.74054" lon="2.20329">
        <ele>144</ele>
        <time>2017-01-15T09:18:32.647Z</time>
      </trkpt>
      <trkpt lat="47.74054" lon="2.20329">
        <ele>144</ele>
        <time>2017-01-15T09:18:33.646Z</time>
      </trkpt>
      <trkpt lat="47.74054" lon="2.20313">
        <ele>144</ele>
        <time>2017-01-15T09:18:34.646Z</time>
      </trkpt>
      <trkpt lat="47.74055" lon="2.20305">
        <ele>143</ele>
        <time>2017-01-15T09:18:35.647Z</time>
      </trkpt>
      <trkpt lat="47.74055" lon="2.20305">
        <ele>143</ele>
        <time>2017-01-15T09:18:36.646Z</time>
      </trkpt>
      <trkpt lat="47.74055" lon="2.20288">
        <ele>143</ele>
        <time>2017-01-15T09:18:37.644Z</time>
      </trkpt>
      <trkpt lat="47.74055" lon="2.2028">
        <ele>143</ele>
        <time>2017-01-15T09:18:38.647Z</time>
      </trkpt>
      <trkpt lat="47.74055" lon="2.2028">
        <ele>143</ele>
        <time>2017-01-15T09:18:39.656Z</time>
      </trkpt>
      <trkpt lat="47.74056" lon="2.20264">
        <ele>143</ele>
        <time>2017-01-15T09:18:40.648Z</time>
      </trkpt>
      <trkpt lat="47.74056" lon="2.20264">
        <ele>143</ele>
        <time>2017-01-15T09:18:41.639Z</time>
      </trkpt>
      <trkpt lat="47.74055" lon="2.20248">
        <ele>143</ele>
        <time>2017-01-15T09:18:42.646Z</time>
      </trkpt>
      <trkpt lat="47.74055" lon="2.2024">
        <ele>143</ele>
        <time>2017-01-15T09:18:43.650Z</time>
      </trkpt>
      <trkpt lat="47.74055" lon="2.20232">
        <ele>142</ele>
        <time>2017-01-15T09:18:44.663Z</time>
      </trkpt>
      <trkpt lat="47.74055" lon="2.20232">
        <ele>142</ele>
        <time>2017-01-15T09:18:45.666Z</time>
      </trkpt>
      <trkpt lat="47.74056" lon="2.20216">
        <ele>142</ele>
        <time>2017-01-15T09:18:46.656Z</time>
      </trkpt>
      <trkpt lat="47.74056" lon="2.20216">
        <ele>142</ele>
        <time>2017-01-15T09:18:47.646Z</time>
      </trkpt>
      <trkpt lat="47.7406" lon="2.20201">
        <ele>142</ele>
        <time>2017-01-15T09:18:48.647Z</time>
      </trkpt>
      <trkpt lat="47.74063" lon="2.20195">
        <ele>142</ele>
        <time>2017-01-15T09:18:49.663Z</time>
      </trkpt>
      <trkpt lat="47.74066" lon="2.20188">
        <ele>142</ele>
        <time>2017-01-15T09:18:50.651Z</time>
      </trkpt>
      <trkpt lat="47.74066" lon="2.20188">
        <ele>142</ele>
        <time>2017-01-15T09:18:51.646Z</time>
      </trkpt>
      <trkpt lat="47.74073" lon="2.20176">
        <ele>143</ele>
        <time>2017-01-15T09:18:52.652Z</time>
      </trkpt>
      <trkpt lat="47.74073" lon="2.20176">
        <ele>143</ele>
        <time>2017-01-15T09:18:53.646Z</time>
      </trkpt>
      <trkpt lat="47.7408" lon="2.20164">
        <ele>143</ele>
        <time>2017-01-15T09:18:54.645Z</time>
      </trkpt>
      <trkpt lat="47.7408" lon="2.20164">
        <ele>143</ele>
        <time>2017-01-15T09:18:55.646Z</time>
      </trkpt>
      <trkpt lat="47.74089" lon="2.2015">
        <ele>143</ele>
        <time>2017-01-15T09:18:56.648Z</time>
      </trkpt>
      <trkpt lat="47.74089" lon="2.2015">
        <ele>143</ele>
        <time>2017-01-15T09:18:57.638Z</time>
      </trkpt>
      <trkpt lat="47.74095" lon="2.20134">
        <ele>143</ele>
        <time>2017-01-15T09:18:58.662Z</time>
      </trkpt>
      <trkpt lat="47.74095" lon="2.20134">
        <ele>143</ele>
        <time>2017-01-15T09:18:59.649Z</time>
      </trkpt>
      <trkpt lat="47.74099" lon="2.20119">
        <ele>143</ele>
        <time>2017-01-15T09:19:00.656Z</time>
      </trkpt>
      <trkpt lat="47.74099" lon="2.20119">
        <ele>143</ele>
        <time>2017-01-15T09:19:01.646Z</time>
      </trkpt>
      <trkpt lat="47.74099" lon="2.20102">
        <ele>143</ele>
        <time>2017-01-15T09:19:02.650Z</time>
      </trkpt>
      <trkpt lat="47.74099" lon="2.20102">
        <ele>143</ele>
        <time>2017-01-15T09:19:03.651Z</time>
      </trkpt>
      <trkpt lat="47.74097" lon="2.20086">
        <ele>144</ele>
        <time>2017-01-15T09:19:04.646Z</time>
      </trkpt>
      <trkpt lat="47.74097" lon="2.20086">
        <ele>144</ele>
        <time>2017-01-15T09:19:05.637Z</time>
      </trkpt>
      <trkpt lat="47.74095" lon="2.2007">
        <ele>144</ele>
        <time>2017-01-15T09:19:06.644Z</time>
      </trkpt>
      <trkpt lat="47.74095" lon="2.2007">
        <ele>144</ele>
        <time>2017-01-15T09:19:07.646Z</time>
      </trkpt>
      <trkpt lat="47.74094" lon="2.20054">
        <ele>144</ele>
        <time>2017-01-15T09:19:08.648Z</time>
      </trkpt>
      <trkpt lat="47.74094" lon="2.20054">
        <ele>144</ele>
        <time>2017-01-15T09:19:09.646Z</time>
      </trkpt>
      <trkpt lat="47.74094" lon="2.20039">
        <ele>144</ele>
        <time>2017-01-15T09:19:10.646Z</time>
      </trkpt>
      <trkpt lat="47.74094" lon="2.20039">
        <ele>144</ele>
        <time>2017-01-15T09:19:11.646Z</time>
      </trkpt>
      <trkpt lat="47.74094" lon="2.20023">
        <ele>144</ele>
        <time>2017-01-15T09:19:12.653Z</time>
      </trkpt>
      <trkpt lat="47.74094" lon="2.20023">
        <ele>144</ele>
        <time>2017-01-15T09:19:13.646Z</time>
      </trkpt>
      <trkpt lat="47.74094" lon="2.20007">
        <ele>144</ele>
        <time>2017-01-15T09:19:14.639Z</time>
      </trkpt>
      <trkpt lat="47.74094" lon="2.20007">
        <ele>144</ele>
        <time>2017-01-15T09:19:15.647Z</time>
      </trkpt>
      <trkpt lat="47.74094" lon="2.19991">
        <ele>144</ele>
        <time>2017-01-15T09:19:16.644Z</time>
      </trkpt>
      <trkpt lat="47.74094" lon="2.19991">
        <ele>144</ele>
        <time>2017-01-15T09:19:17.646Z</time>
      </trkpt>
      <trkpt lat="47.74093" lon="2.19975">
        <ele>144</ele>
        <time>2017-01-15T09:19:18.646Z</time>
      </trkpt>
      <trkpt lat="47.74093" lon="2.19975">
        <ele>144</ele>
        <time>2017-01-15T09:19:19.646Z</time>
      </trkpt>
      <trkpt lat="47.74093" lon="2.19959">
        <ele>144</ele>
        <time>2017-01-15T09:19:20.649Z</time>
      </trkpt>
      <trkpt lat="47.74093" lon="2.19959">
        <ele>144</ele>
        <time>2017-01-15T09:19:21.639Z</time>
      </trkpt>
      <trkpt lat="47.74093" lon="2.19943">
        <ele>144</ele>
        <time>2017-01-15T09:19:22.650Z</time>
      </trkpt>
      <trkpt lat="47.74093" lon="2.19943">
        <ele>144</ele>
        <time>2017-01-15T09:19:23.646Z</time>
      </trkpt>
      <trkpt lat="47.74092" lon="2.19926">
        <ele>144</ele>
        <time>2017-01-15T09:19:24.647Z</time>
      </trkpt>
      <trkpt lat="47.74092" lon="2.19918">
        <ele>145</ele>
        <time>2017-01-15T09:19:25.647Z</time>
      </trkpt>
      <trkpt lat="47.74091" lon="2.1991">
        <ele>145</ele>
        <time>2017-01-15T09:19:26.648Z</time>
      </trkpt>
      <trkpt lat="47.74091" lon="2.1991">
        <ele>145</ele>
        <time>2017-01-15T09:19:27.646Z</time>
      </trkpt>
      <trkpt lat="47.74091" lon="2.19893">
        <ele>145</ele>
        <time>2017-01-15T09:19:28.645Z</time>
      </trkpt>
      <trkpt lat="47.74091" lon="2.19893">
        <ele>145</ele>
        <time>2017-01-15T09:19:29.646Z</time>
      </trkpt>
      <trkpt lat="47.74091" lon="2.19876">
        <ele>145</ele>
        <time>2017-01-15T09:19:30.644Z</time>
      </trkpt>
      <trkpt lat="47.74091" lon="2.19867">
        <ele>145</ele>
        <time>2017-01-15T09:19:31.646Z</time>
      </trkpt>
      <trkpt lat="47.74091" lon="2.19867">
        <ele>145</ele>
        <time>2017-01-15T09:19:32.649Z</time>
      </trkpt>
      <trkpt lat="47.74091" lon="2.1985">
        <ele>145</ele>
        <time>2017-01-15T09:19:33.651Z</time>
      </trkpt>
      <trkpt lat="47.74091" lon="2.19842">
        <ele>145</ele>
        <time>2017-01-15T09:19:34.647Z</time>
      </trkpt>
      <trkpt lat="47.74091" lon="2.19842">
        <ele>145</ele>
        <time>2017-01-15T09:19:35.637Z</time>
      </trkpt>
      <trkpt lat="47.74089" lon="2.19825">
        <ele>145</ele>
        <time>2017-01-15T09:19:36.646Z</time>
      </trkpt>
      <trkpt lat="47.74089" lon="2.19825">
        <ele>145</ele>
        <time>2017-01-15T09:19:37.646Z</time>
      </trkpt>
      <trkpt lat="47.74087" lon="2.19809">
        <ele>146</ele>
        <time>2017-01-15T09:19:38.648Z</time>
      </trkpt>
      <trkpt lat="47.74087" lon="2.19809">
        <ele>146</ele>
        <time>2017-01-15T09:19:39.639Z</time>
      </trkpt>
      <trkpt lat="47.74086" lon="2.19793">
        <ele>146</ele>
        <time>2017-01-15T09:19:40.655Z</time>
      </trkpt>
      <trkpt lat="47.74086" lon="2.19785">
        <ele>146</ele>
        <time>2017-01-15T09:19:41.646Z</time>
      </trkpt>
      <trkpt lat="47.74086" lon="2.19785">
        <ele>146</ele>
        <time>2017-01-15T09:19:42.649Z</time>
      </trkpt>
      <trkpt lat="47.74085" lon="2.1977">
        <ele>145</ele>
        <time>2017-01-15T09:19:43.646Z</time>
      </trkpt>
      <trkpt lat="47.74085" lon="2.19762">
        <ele>145</ele>
        <time>2017-01-15T09:19:44.649Z</time>
      </trkpt>
      <trkpt lat="47.74085" lon="2.19762">
        <ele>145</ele>
        <time>2017-01-15T09:19:45.639Z</time>
      </trkpt>
      <trkpt lat="47.74084" lon="2.19746">
        <ele>145</ele>
        <time>2017-01-15T09:19:46.646Z</time>
      </trkpt>
      <trkpt lat="47.74084" lon="2.19746">
        <ele>145</ele>
        <time>2017-01-15T09:19:47.646Z</time>
      </trkpt>
      <trkpt lat="47.74085" lon="2.19731">
        <ele>146</ele>
        <time>2017-01-15T09:19:48.640Z</time>
      </trkpt>
      <trkpt lat="47.74085" lon="2.19731">
        <ele>146</ele>
        <time>2017-01-15T09:19:49.646Z</time>
      </trkpt>
      <trkpt lat="47.74084" lon="2.19717">
        <ele>146</ele>
        <time>2017-01-15T09:19:50.648Z</time>
      </trkpt>
      <trkpt lat="47.74084" lon="2.19717">
        <ele>146</ele>
        <time>2017-01-15T09:19:51.646Z</time>
      </trkpt>
      <trkpt lat="47.74084" lon="2.19702">
        <ele>146</ele>
        <time>2017-01-15T09:19:52.645Z</time>
      </trkpt>
      <trkpt lat="47.74084" lon="2.19702">
        <ele>146</ele>
        <time>2017-01-15T09:19:53.646Z</time>
      </trkpt>
      <trkpt lat="47.74084" lon="2.19686">
        <ele>146</ele>
        <time>2017-01-15T09:19:54.646Z</time>
      </trkpt>
      <trkpt lat="47.74084" lon="2.19686">
        <ele>146</ele>
        <time>2017-01-15T09:19:55.646Z</time>
      </trkpt>
      <trkpt lat="47.74086" lon="2.19668">
        <ele>146</ele>
        <time>2017-01-15T09:19:56.648Z</time>
      </trkpt>
      <trkpt lat="47.74086" lon="2.19668">
        <ele>146</ele>
        <time>2017-01-15T09:19:57.646Z</time>
      </trkpt>
      <trkpt lat="47.74086" lon="2.19651">
        <ele>146</ele>
        <time>2017-01-15T09:19:58.648Z</time>
      </trkpt>
      <trkpt lat="47.74086" lon="2.19651">
        <ele>146</ele>
        <time>2017-01-15T09:19:59.641Z</time>
      </trkpt>
      <trkpt lat="47.74087" lon="2.19634">
        <ele>146</ele>
        <time>2017-01-15T09:20:00.646Z</time>
      </trkpt>
      <trkpt lat="47.74087" lon="2.19634">
        <ele>146</ele>
        <time>2017-01-15T09:20:01.646Z</time>
      </trkpt>
      <trkpt lat="47.74087" lon="2.19617">
        <ele>146</ele>
        <time>2017-01-15T09:20:02.654Z</time>
      </trkpt>
      <trkpt lat="47.74087" lon="2.19617">
        <ele>146</ele>
        <time>2017-01-15T09:20:03.646Z</time>
      </trkpt>
      <trkpt lat="47.74086" lon="2.19601">
        <ele>146</ele>
        <time>2017-01-15T09:20:04.648Z</time>
      </trkpt>
      <trkpt lat="47.74086" lon="2.19601">
        <ele>146</ele>
        <time>2017-01-15T09:20:05.646Z</time>
      </trkpt>
      <trkpt lat="47.74086" lon="2.19585">
        <ele>146</ele>
        <time>2017-01-15T09:20:06.639Z</time>
      </trkpt>
      <trkpt lat="47.74086" lon="2.19577">
        <ele>146</ele>
        <time>2017-01-15T09:20:07.647Z</time>
      </trkpt>
      <trkpt lat="47.74086" lon="2.19569">
        <ele>146</ele>
        <time>2017-01-15T09:20:08.648Z</time>
      </trkpt>
      <trkpt lat="47.74086" lon="2.19569">
        <ele>146</ele>
        <time>2017-01-15T09:20:09.666Z</time>
      </trkpt>
      <trkpt lat="47.74085" lon="2.19552">
        <ele>146</ele>
        <time>2017-01-15T09:20:10.654Z</time>
      </trkpt>
      <trkpt lat="47.74084" lon="2.19544">
        <ele>146</ele>
        <time>2017-01-15T09:20:11.650Z</time>
      </trkpt>
      <trkpt lat="47.74084" lon="2.19536">
        <ele>146</ele>
        <time>2017-01-15T09:20:12.646Z</time>
      </trkpt>
      <trkpt lat="47.74084" lon="2.19536">
        <ele>146</ele>
        <time>2017-01-15T09:20:13.645Z</time>
      </trkpt>
      <trkpt lat="47.74083" lon="2.1952">
        <ele>146</ele>
        <time>2017-01-15T09:20:14.639Z</time>
      </trkpt>
      <trkpt lat="47.74083" lon="2.1952">
        <ele>146</ele>
        <time>2017-01-15T09:20:15.646Z</time>
      </trkpt>
      <trkpt lat="47.74083" lon="2.19504">
        <ele>146</ele>
        <time>2017-01-15T09:20:16.649Z</time>
      </trkpt>
      <trkpt lat="47.74083" lon="2.19504">
        <ele>146</ele>
        <time>2017-01-15T09:20:17.646Z</time>
      </trkpt>
      <trkpt lat="47.74083" lon="2.19488">
        <ele>145</ele>
        <time>2017-01-15T09:20:18.648Z</time>
      </trkpt>
      <trkpt lat="47.74083" lon="2.1948">
        <ele>145</ele>
        <time>2017-01-15T09:20:19.648Z</time>
      </trkpt>
      <trkpt lat="47.74083" lon="2.19472">
        <ele>145</ele>
        <time>2017-01-15T09:20:20.649Z</time>
      </trkpt>
      <trkpt lat="47.74083" lon="2.19472">
        <ele>145</ele>
        <time>2017-01-15T09:20:21.646Z</time>
      </trkpt>
      <trkpt lat="47.74083" lon="2.19456">
        <ele>145</ele>
        <time>2017-01-15T09:20:22.655Z</time>
      </trkpt>
      <trkpt lat="47.74083" lon="2.19456">
        <ele>145</ele>
        <time>2017-01-15T09:20:23.642Z</time>
      </trkpt>
      <trkpt lat="47.74082" lon="2.19439">
        <ele>145</ele>
        <time>2017-01-15T09:20:24.646Z</time>
      </trkpt>
      <trkpt lat="47.74083" lon="2.19431">
        <ele>145</ele>
        <time>2017-01-15T09:20:25.647Z</time>
      </trkpt>
      <trkpt lat="47.74082" lon="2.19425">
        <ele>145</ele>
        <time>2017-01-15T09:20:26.646Z</time>
      </trkpt>
      <trkpt lat="47.74082" lon="2.19425">
        <ele>145</ele>
        <time>2017-01-15T09:20:27.646Z</time>
      </trkpt>
      <trkpt lat="47.74079" lon="2.1941">
        <ele>145</ele>
        <time>2017-01-15T09:20:28.648Z</time>
      </trkpt>
      <trkpt lat="47.74079" lon="2.1941">
        <ele>145</ele>
        <time>2017-01-15T09:20:29.641Z</time>
      </trkpt>
      <trkpt lat="47.74078" lon="2.19397">
        <ele>145</ele>
        <time>2017-01-15T09:20:30.646Z</time>
      </trkpt>
      <trkpt lat="47.74078" lon="2.19397">
        <ele>145</ele>
        <time>2017-01-15T09:20:31.646Z</time>
      </trkpt>
      <trkpt lat="47.74076" lon="2.19384">
        <ele>146</ele>
        <time>2017-01-15T09:20:32.646Z</time>
      </trkpt>
      <trkpt lat="47.74076" lon="2.19384">
        <ele>146</ele>
        <time>2017-01-15T09:20:33.631Z</time>
      </trkpt>
      <trkpt lat="47.74077" lon="2.19371">
        <ele>146</ele>
        <time>2017-01-15T09:20:34.658Z</time>
      </trkpt>
      <trkpt lat="47.74077" lon="2.19371">
        <ele>146</ele>
        <time>2017-01-15T09:20:35.647Z</time>
      </trkpt>
      <trkpt lat="47.74079" lon="2.19362">
        <ele>146</ele>
        <time>2017-01-15T09:20:36.647Z</time>
      </trkpt>
      <trkpt lat="47.74081" lon="2.19358">
        <ele>146</ele>
        <time>2017-01-15T09:20:37.646Z</time>
      </trkpt>
      <trkpt lat="47.74085" lon="2.19354">
        <ele>146</ele>
        <time>2017-01-15T09:20:38.648Z</time>
      </trkpt>
      <trkpt lat="47.74085" lon="2.19354">
        <ele>146</ele>
        <time>2017-01-15T09:20:39.635Z</time>
      </trkpt>
      <trkpt lat="47.74092" lon="2.19348">
        <ele>147</ele>
        <time>2017-01-15T09:20:40.646Z</time>
      </trkpt>
      <trkpt lat="47.74092" lon="2.19348">
        <ele>147</ele>
        <time>2017-01-15T09:20:41.646Z</time>
      </trkpt>
      <trkpt lat="47.741" lon="2.19344">
        <ele>147</ele>
        <time>2017-01-15T09:20:42.646Z</time>
      </trkpt>
      <trkpt lat="47.741" lon="2.19344">
        <ele>147</ele>
        <time>2017-01-15T09:20:43.664Z</time>
      </trkpt>
      <trkpt lat="47.74108" lon="2.19339">
        <ele>147</ele>
        <time>2017-01-15T09:20:44.652Z</time>
      </trkpt>
      <trkpt lat="47.74108" lon="2.19339">
        <ele>147</ele>
        <time>2017-01-15T09:20:45.646Z</time>
      </trkpt>
      <trkpt lat="47.74113" lon="2.19333">
        <ele>147</ele>
        <time>2017-01-15T09:20:46.646Z</time>
      </trkpt>
      <trkpt lat="47.74117" lon="2.1933">
        <ele>146</ele>
        <time>2017-01-15T09:20:47.646Z</time>
      </trkpt>
      <trkpt lat="47.74117" lon="2.1933">
        <ele>146</ele>
        <time>2017-01-15T09:20:48.646Z</time>
      </trkpt>
      <trkpt lat="47.74122" lon="2.19321">
        <ele>146</ele>
        <time>2017-01-15T09:20:49.656Z</time>
      </trkpt>
      <trkpt lat="47.74125" lon="2.19317">
        <ele>145</ele>
        <time>2017-01-15T09:20:50.646Z</time>
      </trkpt>
      <trkpt lat="47.74125" lon="2.19317">
        <ele>145</ele>
        <time>2017-01-15T09:20:51.646Z</time>
      </trkpt>
      <trkpt lat="47.74131" lon="2.19306">
        <ele>144</ele>
        <time>2017-01-15T09:20:52.648Z</time>
      </trkpt>
      <trkpt lat="47.74131" lon="2.19306">
        <ele>144</ele>
        <time>2017-01-15T09:20:53.651Z</time>
      </trkpt>
      <trkpt lat="47.74137" lon="2.19297">
        <ele>143</ele>
        <time>2017-01-15T09:20:54.647Z</time>
      </trkpt>
      <trkpt lat="47.74137" lon="2.19297">
        <ele>143</ele>
        <time>2017-01-15T09:20:55.646Z</time>
      </trkpt>
      <trkpt lat="47.7414" lon="2.1929">
        <ele>143</ele>
        <time>2017-01-15T09:20:56.646Z</time>
      </trkpt>
      <trkpt lat="47.7414" lon="2.1929">
        <ele>143</ele>
        <time>2017-01-15T09:20:57.636Z</time>
      </trkpt>
      <trkpt lat="47.74144" lon="2.19284">
        <ele>142</ele>
        <time>2017-01-15T09:20:58.648Z</time>
      </trkpt>
      <trkpt lat="47.74144" lon="2.19284">
        <ele>142</ele>
        <time>2017-01-15T09:20:59.647Z</time>
      </trkpt>
      <trkpt lat="47.74149" lon="2.19281">
        <ele>142</ele>
        <time>2017-01-15T09:21:00.648Z</time>
      </trkpt>
      <trkpt lat="47.74151" lon="2.1928">
        <ele>142</ele>
        <time>2017-01-15T09:21:01.647Z</time>
      </trkpt>
      <trkpt lat="47.74153" lon="2.19278">
        <ele>142</ele>
        <time>2017-01-15T09:21:02.649Z</time>
      </trkpt>
      <trkpt lat="47.74153" lon="2.19278">
        <ele>142</ele>
        <time>2017-01-15T09:21:03.662Z</time>
      </trkpt>
      <trkpt lat="47.74158" lon="2.19273">
        <ele>142</ele>
        <time>2017-01-15T09:21:04.652Z</time>
      </trkpt>
      <trkpt lat="47.74158" lon="2.19273">
        <ele>142</ele>
        <time>2017-01-15T09:21:05.656Z</time>
      </trkpt>
      <trkpt lat="47.74163" lon="2.19266">
        <ele>141</ele>
        <time>2017-01-15T09:21:06.645Z</time>
      </trkpt>
      <trkpt lat="47.74163" lon="2.19266">
        <ele>141</ele>
        <time>2017-01-15T09:21:07.646Z</time>
      </trkpt>
      <trkpt lat="47.74168" lon="2.19259">
        <ele>141</ele>
        <time>2017-01-15T09:21:08.646Z</time>
      </trkpt>
      <trkpt lat="47.74168" lon="2.19259">
        <ele>141</ele>
        <time>2017-01-15T09:21:09.646Z</time>
      </trkpt>
      <trkpt lat="47.74175" lon="2.19254">
        <ele>141</ele>
        <time>2017-01-15T09:21:10.654Z</time>
      </trkpt>
      <trkpt lat="47.74175" lon="2.19254">
        <ele>141</ele>
        <time>2017-01-15T09:21:11.646Z</time>
      </trkpt>
      <trkpt lat="47.74182" lon="2.19249">
        <ele>140</ele>
        <time>2017-01-15T09:21:12.648Z</time>
      </trkpt>
      <trkpt lat="47.74182" lon="2.19249">
        <ele>140</ele>
        <time>2017-01-15T09:21:13.656Z</time>
      </trkpt>
      <trkpt lat="47.74188" lon="2.19249">
        <ele>140</ele>
        <time>2017-01-15T09:21:14.637Z</time>
      </trkpt>
      <trkpt lat="47.74188" lon="2.19249">
        <ele>140</ele>
        <time>2017-01-15T09:21:15.651Z</time>
      </trkpt>
      <trkpt lat="47.74195" lon="2.19248">
        <ele>140</ele>
        <time>2017-01-15T09:21:16.648Z</time>
      </trkpt>
      <trkpt lat="47.74195" lon="2.19248">
        <ele>140</ele>
        <time>2017-01-15T09:21:17.646Z</time>
      </trkpt>
      <trkpt lat="47.742" lon="2.19248">
        <ele>141</ele>
        <time>2017-01-15T09:21:18.647Z</time>
      </trkpt>
      <trkpt lat="47.742" lon="2.19248">
        <ele>141</ele>
        <time>2017-01-15T09:21:19.639Z</time>
      </trkpt>
      <trkpt lat="47.74206" lon="2.19248">
        <ele>142</ele>
        <time>2017-01-15T09:21:20.646Z</time>
      </trkpt>
      <trkpt lat="47.74206" lon="2.19248">
        <ele>142</ele>
        <time>2017-01-15T09:21:21.646Z</time>
      </trkpt>
      <trkpt lat="47.74213" lon="2.19248">
        <ele>144</ele>
        <time>2017-01-15T09:21:22.645Z</time>
      </trkpt>
      <trkpt lat="47.74213" lon="2.19248">
        <ele>144</ele>
        <time>2017-01-15T09:21:23.641Z</time>
      </trkpt>
      <trkpt lat="47.74221" lon="2.19249">
        <ele>146</ele>
        <time>2017-01-15T09:21:24.656Z</time>
      </trkpt>
      <trkpt lat="47.74221" lon="2.19249">
        <ele>146</ele>
        <time>2017-01-15T09:21:25.646Z</time>
      </trkpt>
      <trkpt lat="47.74227" lon="2.19249">
        <ele>147</ele>
        <time>2017-01-15T09:21:26.647Z</time>
      </trkpt>
      <trkpt lat="47.74227" lon="2.19249">
        <ele>147</ele>
        <time>2017-01-15T09:21:27.641Z</time>
      </trkpt>
      <trkpt lat="47.74236" lon="2.1925">
        <ele>149</ele>
        <time>2017-01-15T09:21:28.646Z</time>
      </trkpt>
      <trkpt lat="47.74236" lon="2.1925">
        <ele>149</ele>
        <time>2017-01-15T09:21:29.648Z</time>
      </trkpt>
      <trkpt lat="47.74242" lon="2.19251">
        <ele>148</ele>
        <time>2017-01-15T09:21:30.646Z</time>
      </trkpt>
      <trkpt lat="47.74242" lon="2.19251">
        <ele>148</ele>
        <time>2017-01-15T09:21:31.636Z</time>
      </trkpt>
      <trkpt lat="47.7425" lon="2.1925">
        <ele>149</ele>
        <time>2017-01-15T09:21:32.648Z</time>
      </trkpt>
      <trkpt lat="47.7425" lon="2.1925">
        <ele>149</ele>
        <time>2017-01-15T09:21:33.655Z</time>
      </trkpt>
      <trkpt lat="47.74257" lon="2.19248">
        <ele>149</ele>
        <time>2017-01-15T09:21:34.646Z</time>
      </trkpt>
      <trkpt lat="47.74257" lon="2.19248">
        <ele>149</ele>
        <time>2017-01-15T09:21:35.641Z</time>
      </trkpt>
      <trkpt lat="47.74264" lon="2.19244">
        <ele>150</ele>
        <time>2017-01-15T09:21:36.647Z</time>
      </trkpt>
      <trkpt lat="47.74264" lon="2.19244">
        <ele>150</ele>
        <time>2017-01-15T09:21:37.646Z</time>
      </trkpt>
      <trkpt lat="47.74271" lon="2.19241">
        <ele>151</ele>
        <time>2017-01-15T09:21:38.646Z</time>
      </trkpt>
      <trkpt lat="47.74271" lon="2.19241">
        <ele>151</ele>
        <time>2017-01-15T09:21:39.636Z</time>
      </trkpt>
      <trkpt lat="47.74276" lon="2.19237">
        <ele>151</ele>
        <time>2017-01-15T09:21:40.646Z</time>
      </trkpt>
      <trkpt lat="47.74276" lon="2.19237">
        <ele>151</ele>
        <time>2017-01-15T09:21:41.646Z</time>
      </trkpt>
      <trkpt lat="47.74282" lon="2.19232">
        <ele>151</ele>
        <time>2017-01-15T09:21:42.649Z</time>
      </trkpt>
      <trkpt lat="47.74285" lon="2.19229">
        <ele>152</ele>
        <time>2017-01-15T09:21:43.663Z</time>
      </trkpt>
      <trkpt lat="47.74289" lon="2.19227">
        <ele>152</ele>
        <time>2017-01-15T09:21:44.654Z</time>
      </trkpt>
      <trkpt lat="47.74289" lon="2.19227">
        <ele>152</ele>
        <time>2017-01-15T09:21:45.646Z</time>
      </trkpt>
      <trkpt lat="47.74296" lon="2.19223">
        <ele>153</ele>
        <time>2017-01-15T09:21:46.646Z</time>
      </trkpt>
      <trkpt lat="47.74296" lon="2.19223">
        <ele>153</ele>
        <time>2017-01-15T09:21:47.646Z</time>
      </trkpt>
      <trkpt lat="47.74303" lon="2.19219">
        <ele>153</ele>
        <time>2017-01-15T09:21:48.648Z</time>
      </trkpt>
      <trkpt lat="47.74306" lon="2.19217">
        <ele>153</ele>
        <time>2017-01-15T09:21:49.651Z</time>
      </trkpt>
      <trkpt lat="47.74309" lon="2.19215">
        <ele>154</ele>
        <time>2017-01-15T09:21:50.650Z</time>
      </trkpt>
      <trkpt lat="47.74309" lon="2.19215">
        <ele>154</ele>
        <time>2017-01-15T09:21:51.641Z</time>
      </trkpt>
      <trkpt lat="47.74315" lon="2.19211">
        <ele>154</ele>
        <time>2017-01-15T09:21:52.646Z</time>
      </trkpt>
      <trkpt lat="47.74315" lon="2.19211">
        <ele>154</ele>
        <time>2017-01-15T09:21:53.660Z</time>
      </trkpt>
      <trkpt lat="47.74323" lon="2.19206">
        <ele>155</ele>
        <time>2017-01-15T09:21:54.649Z</time>
      </trkpt>
      <trkpt lat="47.74323" lon="2.19206">
        <ele>155</ele>
        <time>2017-01-15T09:21:55.642Z</time>
      </trkpt>
      <trkpt lat="47.7433" lon="2.19202">
        <ele>155</ele>
        <time>2017-01-15T09:21:56.648Z</time>
      </trkpt>
      <trkpt lat="47.7433" lon="2.19202">
        <ele>155</ele>
        <time>2017-01-15T09:21:57.646Z</time>
      </trkpt>
      <trkpt lat="47.74338" lon="2.19198">
        <ele>154</ele>
        <time>2017-01-15T09:21:58.647Z</time>
      </trkpt>
      <trkpt lat="47.74338" lon="2.19198">
        <ele>154</ele>
        <time>2017-01-15T09:21:59.642Z</time>
      </trkpt>
      <trkpt lat="47.74346" lon="2.19194">
        <ele>155</ele>
        <time>2017-01-15T09:22:00.648Z</time>
      </trkpt>
      <trkpt lat="47.7435" lon="2.19194">
        <ele>155</ele>
        <time>2017-01-15T09:22:01.647Z</time>
      </trkpt>
      <trkpt lat="47.74353" lon="2.19195">
        <ele>155</ele>
        <time>2017-01-15T09:22:02.646Z</time>
      </trkpt>
      <trkpt lat="47.74353" lon="2.19195">
        <ele>155</ele>
        <time>2017-01-15T09:22:03.664Z</time>
      </trkpt>
      <trkpt lat="47.74358" lon="2.19201">
        <ele>154</ele>
        <time>2017-01-15T09:22:04.653Z</time>
      </trkpt>
      <trkpt lat="47.74358" lon="2.19201">
        <ele>154</ele>
        <time>2017-01-15T09:22:05.654Z</time>
      </trkpt>
      <trkpt lat="47.7436" lon="2.19208">
        <ele>154</ele>
        <time>2017-01-15T09:22:06.647Z</time>
      </trkpt>
      <trkpt lat="47.74361" lon="2.19212">
        <ele>154</ele>
        <time>2017-01-15T09:22:07.648Z</time>
      </trkpt>
      <trkpt lat="47.74362" lon="2.19217">
        <ele>154</ele>
        <time>2017-01-15T09:22:08.650Z</time>
      </trkpt>
      <trkpt lat="47.74362" lon="2.19217">
        <ele>154</ele>
        <time>2017-01-15T09:22:09.646Z</time>
      </trkpt>
      <trkpt lat="47.74364" lon="2.19227">
        <ele>155</ele>
        <time>2017-01-15T09:22:10.661Z</time>
      </trkpt>
      <trkpt lat="47.74364" lon="2.19227">
        <ele>155</ele>
        <time>2017-01-15T09:22:11.649Z</time>
      </trkpt>
      <trkpt lat="47.74367" lon="2.19237">
        <ele>155</ele>
        <time>2017-01-15T09:22:12.647Z</time>
      </trkpt>
      <trkpt lat="47.74367" lon="2.19237">
        <ele>155</ele>
        <time>2017-01-15T09:22:13.656Z</time>
      </trkpt>
      <trkpt lat="47.74369" lon="2.19248">
        <ele>155</ele>
        <time>2017-01-15T09:22:14.636Z</time>
      </trkpt>
      <trkpt lat="47.74369" lon="2.19248">
        <ele>155</ele>
        <time>2017-01-15T09:22:15.641Z</time>
      </trkpt>
      <trkpt lat="47.74371" lon="2.19259">
        <ele>156</ele>
        <time>2017-01-15T09:22:16.647Z</time>
      </trkpt>
      <trkpt lat="47.74371" lon="2.19259">
        <ele>156</ele>
        <time>2017-01-15T09:22:17.653Z</time>
      </trkpt>
      <trkpt lat="47.74374" lon="2.19271">
        <ele>156</ele>
        <time>2017-01-15T09:22:18.649Z</time>
      </trkpt>
      <trkpt lat="47.74374" lon="2.19271">
        <ele>156</ele>
        <time>2017-01-15T09:22:19.647Z</time>
      </trkpt>
      <trkpt lat="47.74375" lon="2.1928">
        <ele>156</ele>
        <time>2017-01-15T09:22:20.650Z</time>
      </trkpt>
      <trkpt lat="47.74375" lon="2.1928">
        <ele>156</ele>
        <time>2017-01-15T09:22:21.650Z</time>
      </trkpt>
      <trkpt lat="47.74376" lon="2.19291">
        <ele>156</ele>
        <time>2017-01-15T09:22:22.646Z</time>
      </trkpt>
      <trkpt lat="47.74376" lon="2.19291">
        <ele>156</ele>
        <time>2017-01-15T09:22:23.647Z</time>
      </trkpt>
      <trkpt lat="47.74378" lon="2.19302">
        <ele>157</ele>
        <time>2017-01-15T09:22:24.661Z</time>
      </trkpt>
      <trkpt lat="47.74378" lon="2.19308">
        <ele>157</ele>
        <time>2017-01-15T09:22:25.648Z</time>
      </trkpt>
      <trkpt lat="47.74379" lon="2.19314">
        <ele>157</ele>
        <time>2017-01-15T09:22:26.650Z</time>
      </trkpt>
      <trkpt lat="47.74379" lon="2.19314">
        <ele>157</ele>
        <time>2017-01-15T09:22:27.646Z</time>
      </trkpt>
      <trkpt lat="47.74381" lon="2.19327">
        <ele>157</ele>
        <time>2017-01-15T09:22:28.648Z</time>
      </trkpt>
      <trkpt lat="47.74381" lon="2.19327">
        <ele>157</ele>
        <time>2017-01-15T09:22:29.640Z</time>
      </trkpt>
      <trkpt lat="47.74382" lon="2.1934">
        <ele>157</ele>
        <time>2017-01-15T09:22:30.648Z</time>
      </trkpt>
      <trkpt lat="47.74382" lon="2.1934">
        <ele>157</ele>
        <time>2017-01-15T09:22:31.646Z</time>
      </trkpt>
      <trkpt lat="47.74384" lon="2.19353">
        <ele>157</ele>
        <time>2017-01-15T09:22:32.648Z</time>
      </trkpt>
      <trkpt lat="47.74384" lon="2.19353">
        <ele>157</ele>
        <time>2017-01-15T09:22:33.646Z</time>
      </trkpt>
      <trkpt lat="47.74385" lon="2.19365">
        <ele>158</ele>
        <time>2017-01-15T09:22:34.651Z</time>
      </trkpt>
      <trkpt lat="47.74385" lon="2.19365">
        <ele>158</ele>
        <time>2017-01-15T09:22:35.646Z</time>
      </trkpt>
      <trkpt lat="47.74387" lon="2.19377">
        <ele>158</ele>
        <time>2017-01-15T09:22:36.648Z</time>
      </trkpt>
      <trkpt lat="47.74387" lon="2.19377">
        <ele>158</ele>
        <time>2017-01-15T09:22:37.646Z</time>
      </trkpt>
      <trkpt lat="47.74388" lon="2.1939">
        <ele>159</ele>
        <time>2017-01-15T09:22:38.659Z</time>
      </trkpt>
      <trkpt lat="47.74388" lon="2.1939">
        <ele>159</ele>
        <time>2017-01-15T09:22:39.654Z</time>
      </trkpt>
      <trkpt lat="47.7439" lon="2.19401">
        <ele>159</ele>
        <time>2017-01-15T09:22:40.646Z</time>
      </trkpt>
      <trkpt lat="47.74391" lon="2.19407">
        <ele>160</ele>
        <time>2017-01-15T09:22:41.647Z</time>
      </trkpt>
      <trkpt lat="47.74391" lon="2.19407">
        <ele>160</ele>
        <time>2017-01-15T09:22:42.646Z</time>
      </trkpt>
      <trkpt lat="47.74393" lon="2.1942">
        <ele>160</ele>
        <time>2017-01-15T09:22:43.647Z</time>
      </trkpt>
      <trkpt lat="47.74394" lon="2.19426">
        <ele>160</ele>
        <time>2017-01-15T09:22:44.656Z</time>
      </trkpt>
      <trkpt lat="47.74394" lon="2.19426">
        <ele>160</ele>
        <time>2017-01-15T09:22:45.646Z</time>
      </trkpt>
      <trkpt lat="47.74397" lon="2.19439">
        <ele>161</ele>
        <time>2017-01-15T09:22:46.646Z</time>
      </trkpt>
      <trkpt lat="47.74397" lon="2.19439">
        <ele>161</ele>
        <time>2017-01-15T09:22:47.636Z</time>
      </trkpt>
      <trkpt lat="47.74399" lon="2.19451">
        <ele>161</ele>
        <time>2017-01-15T09:22:48.648Z</time>
      </trkpt>
      <trkpt lat="47.74399" lon="2.19451">
        <ele>161</ele>
        <time>2017-01-15T09:22:49.642Z</time>
      </trkpt>
      <trkpt lat="47.74404" lon="2.19463">
        <ele>162</ele>
        <time>2017-01-15T09:22:50.650Z</time>
      </trkpt>
      <trkpt lat="47.74404" lon="2.19463">
        <ele>162</ele>
        <time>2017-01-15T09:22:51.646Z</time>
      </trkpt>
      <trkpt lat="47.74408" lon="2.19474">
        <ele>163</ele>
        <time>2017-01-15T09:22:52.646Z</time>
      </trkpt>
      <trkpt lat="47.74408" lon="2.19474">
        <ele>163</ele>
        <time>2017-01-15T09:22:53.646Z</time>
      </trkpt>
      <trkpt lat="47.74411" lon="2.19484">
        <ele>163</ele>
        <time>2017-01-15T09:22:54.646Z</time>
      </trkpt>
      <trkpt lat="47.74411" lon="2.19484">
        <ele>163</ele>
        <time>2017-01-15T09:22:55.647Z</time>
      </trkpt>
      <trkpt lat="47.74415" lon="2.19495">
        <ele>164</ele>
        <time>2017-01-15T09:22:56.651Z</time>
      </trkpt>
      <trkpt lat="47.74415" lon="2.19495">
        <ele>164</ele>
        <time>2017-01-15T09:22:57.638Z</time>
      </trkpt>
      <trkpt lat="47.74418" lon="2.19506">
        <ele>164</ele>
        <time>2017-01-15T09:22:58.651Z</time>
      </trkpt>
      <trkpt lat="47.74418" lon="2.19506">
        <ele>164</ele>
        <time>2017-01-15T09:22:59.647Z</time>
      </trkpt>
      <trkpt lat="47.74423" lon="2.19518">
        <ele>163</ele>
        <time>2017-01-15T09:23:00.647Z</time>
      </trkpt>
      <trkpt lat="47.74423" lon="2.19518">
        <ele>163</ele>
        <time>2017-01-15T09:23:01.646Z</time>
      </trkpt>
      <trkpt lat="47.74428" lon="2.19531">
        <ele>163</ele>
        <time>2017-01-15T09:23:02.646Z</time>
      </trkpt>
      <trkpt lat="47.74428" lon="2.19531">
        <ele>163</ele>
        <time>2017-01-15T09:23:03.647Z</time>
      </trkpt>
      <trkpt lat="47.74437" lon="2.19545">
        <ele>162</ele>
        <time>2017-01-15T09:23:04.646Z</time>
      </trkpt>
      <trkpt lat="47.74437" lon="2.19545">
        <ele>162</ele>
        <time>2017-01-15T09:23:05.664Z</time>
      </trkpt>
      <trkpt lat="47.7444" lon="2.19557">
        <ele>163</ele>
        <time>2017-01-15T09:23:06.652Z</time>
      </trkpt>
      <trkpt lat="47.74441" lon="2.19563">
        <ele>163</ele>
        <time>2017-01-15T09:23:07.649Z</time>
      </trkpt>
      <trkpt lat="47.74441" lon="2.19563">
        <ele>163</ele>
        <time>2017-01-15T09:23:08.649Z</time>
      </trkpt>
      <trkpt lat="47.74446" lon="2.19574">
        <ele>164</ele>
        <time>2017-01-15T09:23:09.648Z</time>
      </trkpt>
      <trkpt lat="47.74446" lon="2.19574">
        <ele>164</ele>
        <time>2017-01-15T09:23:10.643Z</time>
      </trkpt>
      <trkpt lat="47.7445" lon="2.19584">
        <ele>165</ele>
        <time>2017-01-15T09:23:11.642Z</time>
      </trkpt>
      <trkpt lat="47.74451" lon="2.19589">
        <ele>166</ele>
        <time>2017-01-15T09:23:12.649Z</time>
      </trkpt>
      <trkpt lat="47.74451" lon="2.19589">
        <ele>166</ele>
        <time>2017-01-15T09:23:13.647Z</time>
      </trkpt>
      <trkpt lat="47.74454" lon="2.196">
        <ele>166</ele>
        <time>2017-01-15T09:23:14.632Z</time>
      </trkpt>
      <trkpt lat="47.74454" lon="2.196">
        <ele>166</ele>
        <time>2017-01-15T09:23:15.666Z</time>
      </trkpt>
      <trkpt lat="47.74458" lon="2.19613">
        <ele>167</ele>
        <time>2017-01-15T09:23:16.637Z</time>
      </trkpt>
      <trkpt lat="47.74458" lon="2.19613">
        <ele>167</ele>
        <time>2017-01-15T09:23:17.642Z</time>
      </trkpt>
      <trkpt lat="47.7446" lon="2.19626">
        <ele>168</ele>
        <time>2017-01-15T09:23:18.648Z</time>
      </trkpt>
      <trkpt lat="47.74462" lon="2.19633">
        <ele>168</ele>
        <time>2017-01-15T09:23:19.647Z</time>
      </trkpt>
      <trkpt lat="47.74465" lon="2.1964">
        <ele>168</ele>
        <time>2017-01-15T09:23:20.647Z</time>
      </trkpt>
      <trkpt lat="47.74465" lon="2.1964">
        <ele>168</ele>
        <time>2017-01-15T09:23:21.656Z</time>
      </trkpt>
      <trkpt lat="47.74469" lon="2.19654">
        <ele>169</ele>
        <time>2017-01-15T09:23:22.648Z</time>
      </trkpt>
      <trkpt lat="47.7447" lon="2.19661">
        <ele>170</ele>
        <time>2017-01-15T09:23:23.646Z</time>
      </trkpt>
      <trkpt lat="47.74472" lon="2.19668">
        <ele>170</ele>
        <time>2017-01-15T09:23:24.649Z</time>
      </trkpt>
      <trkpt lat="47.74472" lon="2.19668">
        <ele>170</ele>
        <time>2017-01-15T09:23:25.647Z</time>
      </trkpt>
      <trkpt lat="47.74476" lon="2.19684">
        <ele>170</ele>
        <time>2017-01-15T09:23:26.647Z</time>
      </trkpt>
      <trkpt lat="47.74476" lon="2.19684">
        <ele>170</ele>
        <time>2017-01-15T09:23:27.646Z</time>
      </trkpt>
      <trkpt lat="47.7448" lon="2.19698">
        <ele>171</ele>
        <time>2017-01-15T09:23:28.642Z</time>
      </trkpt>
      <trkpt lat="47.7448" lon="2.19698">
        <ele>171</ele>
        <time>2017-01-15T09:23:29.647Z</time>
      </trkpt>
      <trkpt lat="47.74484" lon="2.19712">
        <ele>171</ele>
        <time>2017-01-15T09:23:30.648Z</time>
      </trkpt>
      <trkpt lat="47.74487" lon="2.1972">
        <ele>172</ele>
        <time>2017-01-15T09:23:31.646Z</time>
      </trkpt>
      <trkpt lat="47.7449" lon="2.19728">
        <ele>172</ele>
        <time>2017-01-15T09:23:32.642Z</time>
      </trkpt>
      <trkpt lat="47.7449" lon="2.19728">
        <ele>172</ele>
        <time>2017-01-15T09:23:33.646Z</time>
      </trkpt>
      <trkpt lat="47.74496" lon="2.19743">
        <ele>172</ele>
        <time>2017-01-15T09:23:34.648Z</time>
      </trkpt>
      <trkpt lat="47.74496" lon="2.19743">
        <ele>172</ele>
        <time>2017-01-15T09:23:35.647Z</time>
      </trkpt>
      <trkpt lat="47.74502" lon="2.1976">
        <ele>173</ele>
        <time>2017-01-15T09:23:36.649Z</time>
      </trkpt>
      <trkpt lat="47.74505" lon="2.19768">
        <ele>173</ele>
        <time>2017-01-15T09:23:37.646Z</time>
      </trkpt>
      <trkpt lat="47.74508" lon="2.19776">
        <ele>174</ele>
        <time>2017-01-15T09:23:38.648Z</time>
      </trkpt>
      <trkpt lat="47.74508" lon="2.19776">
        <ele>174</ele>
        <time>2017-01-15T09:23:39.647Z</time>
      </trkpt>
      <trkpt lat="47.74522" lon="2.1979">
        <ele>171</ele>
        <time>2017-01-15T09:23:40.650Z</time>
      </trkpt>
      <trkpt lat="47.74522" lon="2.1979">
        <ele>171</ele>
        <time>2017-01-15T09:23:41.642Z</time>
      </trkpt>
      <trkpt lat="47.74528" lon="2.19802">
        <ele>171</ele>
        <time>2017-01-15T09:23:42.648Z</time>
      </trkpt>
      <trkpt lat="47.74528" lon="2.19802">
        <ele>171</ele>
        <time>2017-01-15T09:23:43.647Z</time>
      </trkpt>
      <trkpt lat="47.74534" lon="2.19817">
        <ele>171</ele>
        <time>2017-01-15T09:23:44.650Z</time>
      </trkpt>
      <trkpt lat="47.74538" lon="2.19824">
        <ele>171</ele>
        <time>2017-01-15T09:23:45.649Z</time>
      </trkpt>
      <trkpt lat="47.74538" lon="2.19824">
        <ele>171</ele>
        <time>2017-01-15T09:23:46.647Z</time>
      </trkpt>
      <trkpt lat="47.74544" lon="2.19838">
        <ele>171</ele>
        <time>2017-01-15T09:23:47.649Z</time>
      </trkpt>
      <trkpt lat="47.74544" lon="2.19838">
        <ele>171</ele>
        <time>2017-01-15T09:23:48.647Z</time>
      </trkpt>
      <trkpt lat="47.74551" lon="2.1985">
        <ele>172</ele>
        <time>2017-01-15T09:23:49.654Z</time>
      </trkpt>
      <trkpt lat="47.74554" lon="2.19856">
        <ele>172</ele>
        <time>2017-01-15T09:23:50.648Z</time>
      </trkpt>
      <trkpt lat="47.74554" lon="2.19856">
        <ele>172</ele>
        <time>2017-01-15T09:23:51.636Z</time>
      </trkpt>
      <trkpt lat="47.74562" lon="2.19868">
        <ele>172</ele>
        <time>2017-01-15T09:23:52.664Z</time>
      </trkpt>
      <trkpt lat="47.74562" lon="2.19868">
        <ele>172</ele>
        <time>2017-01-15T09:23:53.653Z</time>
      </trkpt>
      <trkpt lat="47.74573" lon="2.19882">
        <ele>170</ele>
        <time>2017-01-15T09:23:54.654Z</time>
      </trkpt>
      <trkpt lat="47.74573" lon="2.19882">
        <ele>170</ele>
        <time>2017-01-15T09:23:55.641Z</time>
      </trkpt>
      <trkpt lat="47.74582" lon="2.19893">
        <ele>169</ele>
        <time>2017-01-15T09:23:56.647Z</time>
      </trkpt>
      <trkpt lat="47.74582" lon="2.19893">
        <ele>169</ele>
        <time>2017-01-15T09:23:57.647Z</time>
      </trkpt>
      <trkpt lat="47.74586" lon="2.19903">
        <ele>170</ele>
        <time>2017-01-15T09:23:58.650Z</time>
      </trkpt>
      <trkpt lat="47.74586" lon="2.19903">
        <ele>170</ele>
        <time>2017-01-15T09:23:59.642Z</time>
      </trkpt>
      <trkpt lat="47.74591" lon="2.19912">
        <ele>170</ele>
        <time>2017-01-15T09:24:00.648Z</time>
      </trkpt>
      <trkpt lat="47.74591" lon="2.19912">
        <ele>170</ele>
        <time>2017-01-15T09:24:01.647Z</time>
      </trkpt>
      <trkpt lat="47.74597" lon="2.19921">
        <ele>170</ele>
        <time>2017-01-15T09:24:02.649Z</time>
      </trkpt>
      <trkpt lat="47.74597" lon="2.19921">
        <ele>170</ele>
        <time>2017-01-15T09:24:03.649Z</time>
      </trkpt>
      <trkpt lat="47.74603" lon="2.19931">
        <ele>171</ele>
        <time>2017-01-15T09:24:04.648Z</time>
      </trkpt>
      <trkpt lat="47.74603" lon="2.19931">
        <ele>171</ele>
        <time>2017-01-15T09:24:05.647Z</time>
      </trkpt>
      <trkpt lat="47.74617" lon="2.19941">
        <ele>169</ele>
        <time>2017-01-15T09:24:06.649Z</time>
      </trkpt>
      <trkpt lat="47.74617" lon="2.19941">
        <ele>169</ele>
        <time>2017-01-15T09:24:07.647Z</time>
      </trkpt>
      <trkpt lat="47.74626" lon="2.19951">
        <ele>169</ele>
        <time>2017-01-15T09:24:08.658Z</time>
      </trkpt>
      <trkpt lat="47.74626" lon="2.19951">
        <ele>169</ele>
        <time>2017-01-15T09:24:09.647Z</time>
      </trkpt>
      <trkpt lat="47.74633" lon="2.19958">
        <ele>169</ele>
        <time>2017-01-15T09:24:10.648Z</time>
      </trkpt>
      <trkpt lat="47.74633" lon="2.19958">
        <ele>169</ele>
        <time>2017-01-15T09:24:11.647Z</time>
      </trkpt>
      <trkpt lat="47.74639" lon="2.19965">
        <ele>169</ele>
        <time>2017-01-15T09:24:12.649Z</time>
      </trkpt>
      <trkpt lat="47.74643" lon="2.1997">
        <ele>169</ele>
        <time>2017-01-15T09:24:13.648Z</time>
      </trkpt>
      <trkpt lat="47.74643" lon="2.1997">
        <ele>169</ele>
        <time>2017-01-15T09:24:14.645Z</time>
      </trkpt>
      <trkpt lat="47.74649" lon="2.19977">
        <ele>169</ele>
        <time>2017-01-15T09:24:15.655Z</time>
      </trkpt>
      <trkpt lat="47.74654" lon="2.19982">
        <ele>168</ele>
        <time>2017-01-15T09:24:16.661Z</time>
      </trkpt>
      <trkpt lat="47.74657" lon="2.19986">
        <ele>168</ele>
        <time>2017-01-15T09:24:17.667Z</time>
      </trkpt>
      <trkpt lat="47.74657" lon="2.19986">
        <ele>168</ele>
        <time>2017-01-15T09:24:18.656Z</time>
      </trkpt>
      <trkpt lat="47.74664" lon="2.19992">
        <ele>168</ele>
        <time>2017-01-15T09:24:19.649Z</time>
      </trkpt>
      <trkpt lat="47.74667" lon="2.19995">
        <ele>168</ele>
        <time>2017-01-15T09:24:20.651Z</time>
      </trkpt>
      <trkpt lat="47.74667" lon="2.19995">
        <ele>168</ele>
        <time>2017-01-15T09:24:21.642Z</time>
      </trkpt>
      <trkpt lat="47.7467" lon="2.2">
        <ele>168</ele>
        <time>2017-01-15T09:24:22.650Z</time>
      </trkpt>
      <trkpt lat="47.7467" lon="2.2">
        <ele>168</ele>
        <time>2017-01-15T09:24:23.656Z</time>
      </trkpt>
      <trkpt lat="47.74673" lon="2.20007">
        <ele>169</ele>
        <time>2017-01-15T09:24:24.649Z</time>
      </trkpt>
      <trkpt lat="47.74674" lon="2.2001">
        <ele>169</ele>
        <time>2017-01-15T09:24:25.665Z</time>
      </trkpt>
      <trkpt lat="47.74674" lon="2.2001">
        <ele>169</ele>
        <time>2017-01-15T09:24:26.652Z</time>
      </trkpt>
      <trkpt lat="47.74679" lon="2.20018">
        <ele>169</ele>
        <time>2017-01-15T09:24:27.647Z</time>
      </trkpt>
      <trkpt lat="47.74681" lon="2.20022">
        <ele>170</ele>
        <time>2017-01-15T09:24:28.648Z</time>
      </trkpt>
      <trkpt lat="47.74681" lon="2.20022">
        <ele>170</ele>
        <time>2017-01-15T09:24:29.647Z</time>
      </trkpt>
      <trkpt lat="47.74684" lon="2.20032">
        <ele>170</ele>
        <time>2017-01-15T09:24:30.654Z</time>
      </trkpt>
      <trkpt lat="47.74684" lon="2.20032">
        <ele>170</ele>
        <time>2017-01-15T09:24:31.647Z</time>
      </trkpt>
      <trkpt lat="47.74688" lon="2.20043">
        <ele>170</ele>
        <time>2017-01-15T09:24:32.651Z</time>
      </trkpt>
      <trkpt lat="47.74688" lon="2.20043">
        <ele>170</ele>
        <time>2017-01-15T09:24:33.647Z</time>
      </trkpt>
      <trkpt lat="47.74691" lon="2.20054">
        <ele>171</ele>
        <time>2017-01-15T09:24:34.647Z</time>
      </trkpt>
      <trkpt lat="47.74691" lon="2.20054">
        <ele>171</ele>
        <time>2017-01-15T09:24:35.637Z</time>
      </trkpt>
      <trkpt lat="47.74696" lon="2.20065">
        <ele>170</ele>
        <time>2017-01-15T09:24:36.664Z</time>
      </trkpt>
      <trkpt lat="47.74696" lon="2.20065">
        <ele>170</ele>
        <time>2017-01-15T09:24:37.653Z</time>
      </trkpt>
      <trkpt lat="47.74699" lon="2.20073">
        <ele>171</ele>
        <time>2017-01-15T09:24:38.643Z</time>
      </trkpt>
      <trkpt lat="47.74699" lon="2.20073">
        <ele>171</ele>
        <time>2017-01-15T09:24:39.647Z</time>
      </trkpt>
      <trkpt lat="47.74704" lon="2.2008">
        <ele>171</ele>
        <time>2017-01-15T09:24:40.663Z</time>
      </trkpt>
      <trkpt lat="47.74706" lon="2.20084">
        <ele>171</ele>
        <time>2017-01-15T09:24:41.654Z</time>
      </trkpt>
      <trkpt lat="47.74708" lon="2.20089">
        <ele>172</ele>
        <time>2017-01-15T09:24:42.646Z</time>
      </trkpt>
      <trkpt lat="47.74708" lon="2.20089">
        <ele>172</ele>
        <time>2017-01-15T09:24:43.648Z</time>
      </trkpt>
      <trkpt lat="47.74711" lon="2.20099">
        <ele>172</ele>
        <time>2017-01-15T09:24:44.642Z</time>
      </trkpt>
      <trkpt lat="47.74712" lon="2.20104">
        <ele>173</ele>
        <time>2017-01-15T09:24:45.628Z</time>
      </trkpt>
      <trkpt lat="47.74712" lon="2.20104">
        <ele>173</ele>
        <time>2017-01-15T09:24:46.656Z</time>
      </trkpt>
      <trkpt lat="47.74715" lon="2.20114">
        <ele>174</ele>
        <time>2017-01-15T09:24:47.649Z</time>
      </trkpt>
      <trkpt lat="47.74717" lon="2.20119">
        <ele>174</ele>
        <time>2017-01-15T09:24:48.648Z</time>
      </trkpt>
      <trkpt lat="47.74717" lon="2.20119">
        <ele>174</ele>
        <time>2017-01-15T09:24:49.651Z</time>
      </trkpt>
      <trkpt lat="47.74721" lon="2.20129">
        <ele>175</ele>
        <time>2017-01-15T09:24:50.650Z</time>
      </trkpt>
      <trkpt lat="47.74721" lon="2.20129">
        <ele>175</ele>
        <time>2017-01-15T09:24:51.647Z</time>
      </trkpt>
      <trkpt lat="47.74726" lon="2.20137">
        <ele>176</ele>
        <time>2017-01-15T09:24:52.648Z</time>
      </trkpt>
      <trkpt lat="47.74726" lon="2.20137">
        <ele>176</ele>
        <time>2017-01-15T09:24:53.647Z</time>
      </trkpt>
      <trkpt lat="47.74728" lon="2.20146">
        <ele>177</ele>
        <time>2017-01-15T09:24:54.646Z</time>
      </trkpt>
      <trkpt lat="47.7473" lon="2.20151">
        <ele>177</ele>
        <time>2017-01-15T09:24:55.646Z</time>
      </trkpt>
      <trkpt lat="47.7473" lon="2.20151">
        <ele>177</ele>
        <time>2017-01-15T09:24:56.648Z</time>
      </trkpt>
      <trkpt lat="47.74735" lon="2.20162">
        <ele>178</ele>
        <time>2017-01-15T09:24:57.647Z</time>
      </trkpt>
      <trkpt lat="47.74737" lon="2.20167">
        <ele>178</ele>
        <time>2017-01-15T09:24:58.649Z</time>
      </trkpt>
      <trkpt lat="47.74737" lon="2.20167">
        <ele>178</ele>
        <time>2017-01-15T09:24:59.647Z</time>
      </trkpt>
      <trkpt lat="47.74741" lon="2.20178">
        <ele>179</ele>
        <time>2017-01-15T09:25:00.649Z</time>
      </trkpt>
      <trkpt lat="47.74741" lon="2.20178">
        <ele>179</ele>
        <time>2017-01-15T09:25:01.647Z</time>
      </trkpt>
      <trkpt lat="47.74746" lon="2.20188">
        <ele>180</ele>
        <time>2017-01-15T09:25:02.658Z</time>
      </trkpt>
      <trkpt lat="47.74746" lon="2.20188">
        <ele>180</ele>
        <time>2017-01-15T09:25:03.647Z</time>
      </trkpt>
      <trkpt lat="47.7475" lon="2.20197">
        <ele>182</ele>
        <time>2017-01-15T09:25:04.650Z</time>
      </trkpt>
      <trkpt lat="47.74753" lon="2.20202">
        <ele>182</ele>
        <time>2017-01-15T09:25:05.663Z</time>
      </trkpt>
      <trkpt lat="47.74753" lon="2.20202">
        <ele>182</ele>
        <time>2017-01-15T09:25:06.651Z</time>
      </trkpt>
      <trkpt lat="47.74757" lon="2.20212">
        <ele>183</ele>
        <time>2017-01-15T09:25:07.651Z</time>
      </trkpt>
      <trkpt lat="47.74757" lon="2.20212">
        <ele>183</ele>
        <time>2017-01-15T09:25:08.648Z</time>
      </trkpt>
      <trkpt lat="47.7476" lon="2.20222">
        <ele>185</ele>
        <time>2017-01-15T09:25:09.649Z</time>
      </trkpt>
      <trkpt lat="47.74762" lon="2.20226">
        <ele>185</ele>
        <time>2017-01-15T09:25:10.652Z</time>
      </trkpt>
      <trkpt lat="47.74762" lon="2.20226">
        <ele>185</ele>
        <time>2017-01-15T09:25:11.641Z</time>
      </trkpt>
      <trkpt lat="47.74766" lon="2.20236">
        <ele>187</ele>
        <time>2017-01-15T09:25:12.648Z</time>
      </trkpt>
      <trkpt lat="47.74768" lon="2.20241">
        <ele>188</ele>
        <time>2017-01-15T09:25:13.647Z</time>
      </trkpt>
      <trkpt lat="47.74768" lon="2.20241">
        <ele>188</ele>
        <time>2017-01-15T09:25:14.642Z</time>
      </trkpt>
      <trkpt lat="47.74773" lon="2.20252">
        <ele>189</ele>
        <time>2017-01-15T09:25:15.647Z</time>
      </trkpt>
      <trkpt lat="47.74774" lon="2.20258">
        <ele>189</ele>
        <time>2017-01-15T09:25:16.653Z</time>
      </trkpt>
      <trkpt lat="47.74774" lon="2.20258">
        <ele>189</ele>
        <time>2017-01-15T09:25:17.659Z</time>
      </trkpt>
      <trkpt lat="47.74778" lon="2.20268">
        <ele>190</ele>
        <time>2017-01-15T09:25:18.651Z</time>
      </trkpt>
      <trkpt lat="47.74778" lon="2.20268">
        <ele>190</ele>
        <time>2017-01-15T09:25:19.647Z</time>
      </trkpt>
      <trkpt lat="47.74782" lon="2.20277">
        <ele>191</ele>
        <time>2017-01-15T09:25:20.659Z</time>
      </trkpt>
      <trkpt lat="47.74782" lon="2.20277">
        <ele>191</ele>
        <time>2017-01-15T09:25:21.647Z</time>
      </trkpt>
      <trkpt lat="47.74785" lon="2.20288">
        <ele>192</ele>
        <time>2017-01-15T09:25:22.649Z</time>
      </trkpt>
      <trkpt lat="47.74787" lon="2.20293">
        <ele>193</ele>
        <time>2017-01-15T09:25:23.647Z</time>
      </trkpt>
      <trkpt lat="47.74787" lon="2.20293">
        <ele>193</ele>
        <time>2017-01-15T09:25:24.647Z</time>
      </trkpt>
      <trkpt lat="47.7479" lon="2.20303">
        <ele>193</ele>
        <time>2017-01-15T09:25:25.647Z</time>
      </trkpt>
      <trkpt lat="47.74792" lon="2.20309">
        <ele>194</ele>
        <time>2017-01-15T09:25:26.643Z</time>
      </trkpt>
      <trkpt lat="47.74792" lon="2.20309">
        <ele>194</ele>
        <time>2017-01-15T09:25:27.641Z</time>
      </trkpt>
      <trkpt lat="47.74797" lon="2.20321">
        <ele>194</ele>
        <time>2017-01-15T09:25:28.649Z</time>
      </trkpt>
      <trkpt lat="47.748" lon="2.20326">
        <ele>193</ele>
        <time>2017-01-15T09:25:29.650Z</time>
      </trkpt>
      <trkpt lat="47.74802" lon="2.20331">
        <ele>193</ele>
        <time>2017-01-15T09:25:30.647Z</time>
      </trkpt>
      <trkpt lat="47.74802" lon="2.20331">
        <ele>193</ele>
        <time>2017-01-15T09:25:31.643Z</time>
      </trkpt>
      <trkpt lat="47.74806" lon="2.20342">
        <ele>194</ele>
        <time>2017-01-15T09:25:32.650Z</time>
      </trkpt>
      <trkpt lat="47.74806" lon="2.20342">
        <ele>194</ele>
        <time>2017-01-15T09:25:33.649Z</time>
      </trkpt>
      <trkpt lat="47.74811" lon="2.20352">
        <ele>194</ele>
        <time>2017-01-15T09:25:34.649Z</time>
      </trkpt>
      <trkpt lat="47.74813" lon="2.20357">
        <ele>195</ele>
        <time>2017-01-15T09:25:35.651Z</time>
      </trkpt>
      <trkpt lat="47.74813" lon="2.20357">
        <ele>195</ele>
        <time>2017-01-15T09:25:36.648Z</time>
      </trkpt>
      <trkpt lat="47.74818" lon="2.20368">
        <ele>195</ele>
        <time>2017-01-15T09:25:37.649Z</time>
      </trkpt>
      <trkpt lat="47.7482" lon="2.20373">
        <ele>196</ele>
        <time>2017-01-15T09:25:38.648Z</time>
      </trkpt>
      <trkpt lat="47.74821" lon="2.20377">
        <ele>196</ele>
        <time>2017-01-15T09:25:39.656Z</time>
      </trkpt>
      <trkpt lat="47.74822" lon="2.20381">
        <ele>197</ele>
        <time>2017-01-15T09:25:40.648Z</time>
      </trkpt>
      <trkpt lat="47.74822" lon="2.20381">
        <ele>197</ele>
        <time>2017-01-15T09:25:41.648Z</time>
      </trkpt>
      <trkpt lat="47.74825" lon="2.20388">
        <ele>197</ele>
        <time>2017-01-15T09:25:42.650Z</time>
      </trkpt>
      <trkpt lat="47.74827" lon="2.20391">
        <ele>197</ele>
        <time>2017-01-15T09:25:43.655Z</time>
      </trkpt>
      <trkpt lat="47.74829" lon="2.20394">
        <ele>197</ele>
        <time>2017-01-15T09:25:44.651Z</time>
      </trkpt>
      <trkpt lat="47.74829" lon="2.20394">
        <ele>197</ele>
        <time>2017-01-15T09:25:45.642Z</time>
      </trkpt>
      <trkpt lat="47.74832" lon="2.20399">
        <ele>198</ele>
        <time>2017-01-15T09:25:46.650Z</time>
      </trkpt>
      <trkpt lat="47.74832" lon="2.20399">
        <ele>198</ele>
        <time>2017-01-15T09:25:47.647Z</time>
      </trkpt>
      <trkpt lat="47.74834" lon="2.20404">
        <ele>198</ele>
        <time>2017-01-15T09:25:48.650Z</time>
      </trkpt>
      <trkpt lat="47.74834" lon="2.20407">
        <ele>198</ele>
        <time>2017-01-15T09:25:49.647Z</time>
      </trkpt>
      <trkpt lat="47.74835" lon="2.2041">
        <ele>198</ele>
        <time>2017-01-15T09:25:50.651Z</time>
      </trkpt>
      <trkpt lat="47.74835" lon="2.2041">
        <ele>198</ele>
        <time>2017-01-15T09:25:51.648Z</time>
      </trkpt>
      <trkpt lat="47.74836" lon="2.20415">
        <ele>198</ele>
        <time>2017-01-15T09:25:52.648Z</time>
      </trkpt>
      <trkpt lat="47.74836" lon="2.20415">
        <ele>198</ele>
        <time>2017-01-15T09:25:53.655Z</time>
      </trkpt>
      <trkpt lat="47.74838" lon="2.2042">
        <ele>197</ele>
        <time>2017-01-15T09:25:54.657Z</time>
      </trkpt>
      <trkpt lat="47.74838" lon="2.2042">
        <ele>197</ele>
        <time>2017-01-15T09:25:55.648Z</time>
      </trkpt>
      <trkpt lat="47.7484" lon="2.20425">
        <ele>197</ele>
        <time>2017-01-15T09:25:56.642Z</time>
      </trkpt>
      <trkpt lat="47.7484" lon="2.20425">
        <ele>197</ele>
        <time>2017-01-15T09:25:57.648Z</time>
      </trkpt>
      <trkpt lat="47.74841" lon="2.20428">
        <ele>197</ele>
        <time>2017-01-15T09:25:58.643Z</time>
      </trkpt>
      <trkpt lat="47.74841" lon="2.20428">
        <ele>197</ele>
        <time>2017-01-15T09:25:59.647Z</time>
      </trkpt>
      <trkpt lat="47.74841" lon="2.20432">
        <ele>196</ele>
        <time>2017-01-15T09:26:00.648Z</time>
      </trkpt>
      <trkpt lat="47.74842" lon="2.20433">
        <ele>195</ele>
        <time>2017-01-15T09:26:01.641Z</time>
      </trkpt>
      <trkpt lat="47.74842" lon="2.20433">
        <ele>195</ele>
        <time>2017-01-15T09:26:02.648Z</time>
      </trkpt>
      <trkpt lat="47.74842" lon="2.20433">
        <ele>194</ele>
        <time>2017-01-15T09:26:03.655Z</time>
      </trkpt>
      <trkpt lat="47.74842" lon="2.20433">
        <ele>194</ele>
        <time>2017-01-15T09:26:04.640Z</time>
      </trkpt>
      <trkpt lat="47.74842" lon="2.20433">
        <ele>194</ele>
        <time>2017-01-15T09:26:05.630Z</time>
      </trkpt>
      <trkpt lat="47.74864" lon="2.20454">
        <ele>162</ele>
        <time>2017-01-15T09:26:06.629Z</time>
      </trkpt>
      <trkpt lat="47.74864" lon="2.20454">
        <ele>162</ele>
        <time>2017-01-15T09:26:07.644Z</time>
      </trkpt>
      <trkpt lat="47.74869" lon="2.20455">
        <ele>162</ele>
        <time>2017-01-15T09:26:08.640Z</time>
      </trkpt>
      <trkpt lat="47.74869" lon="2.20455">
        <ele>162</ele>
        <time>2017-01-15T09:26:09.634Z</time>
      </trkpt>
      <trkpt lat="47.74876" lon="2.20453">
        <ele>162</ele>
        <time>2017-01-15T09:26:10.638Z</time>
      </trkpt>
      <trkpt lat="47.74876" lon="2.20453">
        <ele>162</ele>
        <time>2017-01-15T09:26:11.668Z</time>
      </trkpt>
      <trkpt lat="47.74882" lon="2.20449">
        <ele>162</ele>
        <time>2017-01-15T09:26:12.636Z</time>
      </trkpt>
      <trkpt lat="47.74882" lon="2.20449">
        <ele>162</ele>
        <time>2017-01-15T09:26:13.634Z</time>
      </trkpt>
      <trkpt lat="47.74889" lon="2.20446">
        <ele>163</ele>
        <time>2017-01-15T09:26:14.655Z</time>
      </trkpt>
      <trkpt lat="47.74889" lon="2.20446">
        <ele>163</ele>
        <time>2017-01-15T09:26:15.656Z</time>
      </trkpt>
      <trkpt lat="47.74895" lon="2.20445">
        <ele>163</ele>
        <time>2017-01-15T09:26:16.664Z</time>
      </trkpt>
      <trkpt lat="47.74895" lon="2.20445">
        <ele>163</ele>
        <time>2017-01-15T09:26:17.651Z</time>
      </trkpt>
      <trkpt lat="47.74902" lon="2.20443">
        <ele>164</ele>
        <time>2017-01-15T09:26:18.642Z</time>
      </trkpt>
      <trkpt lat="47.74902" lon="2.20443">
        <ele>164</ele>
        <time>2017-01-15T09:26:19.628Z</time>
      </trkpt>
      <trkpt lat="47.7491" lon="2.20441">
        <ele>165</ele>
        <time>2017-01-15T09:26:20.640Z</time>
      </trkpt>
      <trkpt lat="47.7491" lon="2.20441">
        <ele>165</ele>
        <time>2017-01-15T09:26:21.634Z</time>
      </trkpt>
      <trkpt lat="47.74917" lon="2.20439">
        <ele>166</ele>
        <time>2017-01-15T09:26:22.630Z</time>
      </trkpt>
      <trkpt lat="47.74917" lon="2.20439">
        <ele>166</ele>
        <time>2017-01-15T09:26:23.629Z</time>
      </trkpt>
      <trkpt lat="47.74924" lon="2.20436">
        <ele>167</ele>
        <time>2017-01-15T09:26:24.637Z</time>
      </trkpt>
      <trkpt lat="47.74928" lon="2.20435">
        <ele>167</ele>
        <time>2017-01-15T09:26:25.629Z</time>
      </trkpt>
      <trkpt lat="47.74928" lon="2.20435">
        <ele>167</ele>
        <time>2017-01-15T09:26:26.629Z</time>
      </trkpt>
      <trkpt lat="47.74935" lon="2.20434">
        <ele>167</ele>
        <time>2017-01-15T09:26:27.637Z</time>
      </trkpt>
      <trkpt lat="47.74935" lon="2.20434">
        <ele>167</ele>
        <time>2017-01-15T09:26:28.665Z</time>
      </trkpt>
      <trkpt lat="47.74941" lon="2.20432">
        <ele>168</ele>
        <time>2017-01-15T09:26:29.654Z</time>
      </trkpt>
      <trkpt lat="47.74941" lon="2.20432">
        <ele>168</ele>
        <time>2017-01-15T09:26:30.642Z</time>
      </trkpt>
      <trkpt lat="47.74948" lon="2.20429">
        <ele>168</ele>
        <time>2017-01-15T09:26:31.649Z</time>
      </trkpt>
      <trkpt lat="47.7495" lon="2.20428">
        <ele>169</ele>
        <time>2017-01-15T09:26:32.639Z</time>
      </trkpt>
      <trkpt lat="47.7495" lon="2.20428">
        <ele>169</ele>
        <time>2017-01-15T09:26:33.667Z</time>
      </trkpt>
      <trkpt lat="47.74956" lon="2.20426">
        <ele>169</ele>
        <time>2017-01-15T09:26:34.628Z</time>
      </trkpt>
      <trkpt lat="47.74956" lon="2.20426">
        <ele>169</ele>
        <time>2017-01-15T09:26:35.634Z</time>
      </trkpt>
      <trkpt lat="47.74962" lon="2.20425">
        <ele>170</ele>
        <time>2017-01-15T09:26:36.636Z</time>
      </trkpt>
      <trkpt lat="47.74962" lon="2.20425">
        <ele>170</ele>
        <time>2017-01-15T09:26:37.634Z</time>
      </trkpt>
      <trkpt lat="47.74966" lon="2.20424">
        <ele>171</ele>
        <time>2017-01-15T09:26:38.638Z</time>
      </trkpt>
      <trkpt lat="47.74966" lon="2.20424">
        <ele>171</ele>
        <time>2017-01-15T09:26:39.637Z</time>
      </trkpt>
      <trkpt lat="47.74973" lon="2.20421">
        <ele>174</ele>
        <time>2017-01-15T09:26:40.650Z</time>
      </trkpt>
      <trkpt lat="47.74973" lon="2.20421">
        <ele>174</ele>
        <time>2017-01-15T09:26:41.659Z</time>
      </trkpt>
      <trkpt lat="47.74982" lon="2.20418">
        <ele>175</ele>
        <time>2017-01-15T09:26:42.647Z</time>
      </trkpt>
      <trkpt lat="47.74982" lon="2.20418">
        <ele>175</ele>
        <time>2017-01-15T09:26:43.635Z</time>
      </trkpt>
      <trkpt lat="47.74989" lon="2.20417">
        <ele>176</ele>
        <time>2017-01-15T09:26:44.636Z</time>
      </trkpt>
      <trkpt lat="47.74989" lon="2.20417">
        <ele>176</ele>
        <time>2017-01-15T09:26:45.634Z</time>
      </trkpt>
      <trkpt lat="47.74997" lon="2.20414">
        <ele>178</ele>
        <time>2017-01-15T09:26:46.639Z</time>
      </trkpt>
      <trkpt lat="47.74997" lon="2.20414">
        <ele>178</ele>
        <time>2017-01-15T09:26:47.632Z</time>
      </trkpt>
      <trkpt lat="47.75006" lon="2.20411">
        <ele>179</ele>
        <time>2017-01-15T09:26:48.629Z</time>
      </trkpt>
      <trkpt lat="47.75006" lon="2.20411">
        <ele>179</ele>
        <time>2017-01-15T09:26:49.667Z</time>
      </trkpt>
      <trkpt lat="47.75015" lon="2.20408">
        <ele>181</ele>
        <time>2017-01-15T09:26:50.638Z</time>
      </trkpt>
      <trkpt lat="47.75015" lon="2.20408">
        <ele>181</ele>
        <time>2017-01-15T09:26:51.629Z</time>
      </trkpt>
      <trkpt lat="47.75025" lon="2.20406">
        <ele>180</ele>
        <time>2017-01-15T09:26:52.635Z</time>
      </trkpt>
      <trkpt lat="47.75025" lon="2.20406">
        <ele>180</ele>
        <time>2017-01-15T09:26:53.629Z</time>
      </trkpt>
      <trkpt lat="47.75034" lon="2.20403">
        <ele>180</ele>
        <time>2017-01-15T09:26:54.637Z</time>
      </trkpt>
      <trkpt lat="47.75034" lon="2.20403">
        <ele>180</ele>
        <time>2017-01-15T09:26:55.634Z</time>
      </trkpt>
      <trkpt lat="47.75045" lon="2.204">
        <ele>180</ele>
        <time>2017-01-15T09:26:56.636Z</time>
      </trkpt>
      <trkpt lat="47.75045" lon="2.204">
        <ele>180</ele>
        <time>2017-01-15T09:26:57.666Z</time>
      </trkpt>
      <trkpt lat="47.75056" lon="2.20398">
        <ele>179</ele>
        <time>2017-01-15T09:26:58.630Z</time>
      </trkpt>
      <trkpt lat="47.75056" lon="2.20398">
        <ele>179</ele>
        <time>2017-01-15T09:26:59.661Z</time>
      </trkpt>
      <trkpt lat="47.75068" lon="2.20396">
        <ele>176</ele>
        <time>2017-01-15T09:27:00.648Z</time>
      </trkpt>
      <trkpt lat="47.75068" lon="2.20396">
        <ele>176</ele>
        <time>2017-01-15T09:27:01.636Z</time>
      </trkpt>
      <trkpt lat="47.7508" lon="2.20394">
        <ele>174</ele>
        <time>2017-01-15T09:27:02.636Z</time>
      </trkpt>
      <trkpt lat="47.75085" lon="2.20393">
        <ele>174</ele>
        <time>2017-01-15T09:27:03.656Z</time>
      </trkpt>
      <trkpt lat="47.75085" lon="2.20393">
        <ele>174</ele>
        <time>2017-01-15T09:27:04.664Z</time>
      </trkpt>
      <trkpt lat="47.75096" lon="2.2039">
        <ele>173</ele>
        <time>2017-01-15T09:27:05.632Z</time>
      </trkpt>
      <trkpt lat="47.75102" lon="2.20388">
        <ele>172</ele>
        <time>2017-01-15T09:27:06.638Z</time>
      </trkpt>
      <trkpt lat="47.75102" lon="2.20388">
        <ele>172</ele>
        <time>2017-01-15T09:27:07.662Z</time>
      </trkpt>
      <trkpt lat="47.75113" lon="2.20386">
        <ele>171</ele>
        <time>2017-01-15T09:27:08.651Z</time>
      </trkpt>
      <trkpt lat="47.75113" lon="2.20386">
        <ele>171</ele>
        <time>2017-01-15T09:27:09.643Z</time>
      </trkpt>
      <trkpt lat="47.75125" lon="2.20383">
        <ele>170</ele>
        <time>2017-01-15T09:27:10.637Z</time>
      </trkpt>
      <trkpt lat="47.75125" lon="2.20383">
        <ele>170</ele>
        <time>2017-01-15T09:27:11.632Z</time>
      </trkpt>
      <trkpt lat="47.75136" lon="2.20381">
        <ele>169</ele>
        <time>2017-01-15T09:27:12.635Z</time>
      </trkpt>
      <trkpt lat="47.75142" lon="2.2038">
        <ele>170</ele>
        <time>2017-01-15T09:27:13.633Z</time>
      </trkpt>
      <trkpt lat="47.75142" lon="2.2038">
        <ele>170</ele>
        <time>2017-01-15T09:27:14.632Z</time>
      </trkpt>
      <trkpt lat="47.75153" lon="2.20377">
        <ele>169</ele>
        <time>2017-01-15T09:27:15.658Z</time>
      </trkpt>
      <trkpt lat="47.75153" lon="2.20377">
        <ele>169</ele>
        <time>2017-01-15T09:27:16.646Z</time>
      </trkpt>
      <trkpt lat="47.75164" lon="2.20375">
        <ele>169</ele>
        <time>2017-01-15T09:27:17.637Z</time>
      </trkpt>
      <trkpt lat="47.75164" lon="2.20375">
        <ele>169</ele>
        <time>2017-01-15T09:27:18.665Z</time>
      </trkpt>
      <trkpt lat="47.75175" lon="2.20373">
        <ele>169</ele>
        <time>2017-01-15T09:27:19.654Z</time>
      </trkpt>
      <trkpt lat="47.75181" lon="2.20372">
        <ele>169</ele>
        <time>2017-01-15T09:27:20.646Z</time>
      </trkpt>
      <trkpt lat="47.75181" lon="2.20372">
        <ele>169</ele>
        <time>2017-01-15T09:27:21.636Z</time>
      </trkpt>
      <trkpt lat="47.75192" lon="2.20369">
        <ele>169</ele>
        <time>2017-01-15T09:27:22.635Z</time>
      </trkpt>
      <trkpt lat="47.75198" lon="2.20367">
        <ele>169</ele>
        <time>2017-01-15T09:27:23.630Z</time>
      </trkpt>
      <trkpt lat="47.75198" lon="2.20367">
        <ele>169</ele>
        <time>2017-01-15T09:27:24.639Z</time>
      </trkpt>
      <trkpt lat="47.7521" lon="2.20364">
        <ele>169</ele>
        <time>2017-01-15T09:27:25.632Z</time>
      </trkpt>
      <trkpt lat="47.75216" lon="2.20363">
        <ele>170</ele>
        <time>2017-01-15T09:27:26.636Z</time>
      </trkpt>
      <trkpt lat="47.75216" lon="2.20363">
        <ele>170</ele>
        <time>2017-01-15T09:27:27.667Z</time>
      </trkpt>
      <trkpt lat="47.75228" lon="2.2036">
        <ele>169</ele>
        <time>2017-01-15T09:27:28.629Z</time>
      </trkpt>
      <trkpt lat="47.75228" lon="2.2036">
        <ele>169</ele>
        <time>2017-01-15T09:27:29.635Z</time>
      </trkpt>
      <trkpt lat="47.75239" lon="2.20356">
        <ele>170</ele>
        <time>2017-01-15T09:27:30.637Z</time>
      </trkpt>
      <trkpt lat="47.75245" lon="2.20355">
        <ele>169</ele>
        <time>2017-01-15T09:27:31.649Z</time>
      </trkpt>
      <trkpt lat="47.75251" lon="2.20353">
        <ele>170</ele>
        <time>2017-01-15T09:27:32.640Z</time>
      </trkpt>
      <trkpt lat="47.75251" lon="2.20353">
        <ele>170</ele>
        <time>2017-01-15T09:27:33.635Z</time>
      </trkpt>
      <trkpt lat="47.75262" lon="2.20351">
        <ele>171</ele>
        <time>2017-01-15T09:27:34.635Z</time>
      </trkpt>
      <trkpt lat="47.75268" lon="2.20349">
        <ele>172</ele>
        <time>2017-01-15T09:27:35.651Z</time>
      </trkpt>
      <trkpt lat="47.75268" lon="2.20349">
        <ele>172</ele>
        <time>2017-01-15T09:27:36.637Z</time>
      </trkpt>
      <trkpt lat="47.7528" lon="2.20346">
        <ele>172</ele>
        <time>2017-01-15T09:27:37.638Z</time>
      </trkpt>
      <trkpt lat="47.75286" lon="2.20344">
        <ele>171</ele>
        <time>2017-01-15T09:27:38.638Z</time>
      </trkpt>
      <trkpt lat="47.75286" lon="2.20344">
        <ele>171</ele>
        <time>2017-01-15T09:27:39.637Z</time>
      </trkpt>
      <trkpt lat="47.75298" lon="2.20341">
        <ele>172</ele>
        <time>2017-01-15T09:27:40.641Z</time>
      </trkpt>
      <trkpt lat="47.75304" lon="2.2034">
        <ele>172</ele>
        <time>2017-01-15T09:27:41.638Z</time>
      </trkpt>
      <trkpt lat="47.75304" lon="2.2034">
        <ele>172</ele>
        <time>2017-01-15T09:27:42.635Z</time>
      </trkpt>
      <trkpt lat="47.75317" lon="2.20336">
        <ele>171</ele>
        <time>2017-01-15T09:27:43.638Z</time>
      </trkpt>
      <trkpt lat="47.75317" lon="2.20336">
        <ele>171</ele>
        <time>2017-01-15T09:27:44.628Z</time>
      </trkpt>
      <trkpt lat="47.7533" lon="2.20334">
        <ele>172</ele>
        <time>2017-01-15T09:27:45.632Z</time>
      </trkpt>
      <trkpt lat="47.75336" lon="2.20333">
        <ele>172</ele>
        <time>2017-01-15T09:27:46.636Z</time>
      </trkpt>
      <trkpt lat="47.75336" lon="2.20333">
        <ele>172</ele>
        <time>2017-01-15T09:27:47.635Z</time>
      </trkpt>
      <trkpt lat="47.75348" lon="2.20329">
        <ele>173</ele>
        <time>2017-01-15T09:27:48.637Z</time>
      </trkpt>
      <trkpt lat="47.75354" lon="2.20327">
        <ele>173</ele>
        <time>2017-01-15T09:27:49.633Z</time>
      </trkpt>
      <trkpt lat="47.75361" lon="2.20326">
        <ele>172</ele>
        <time>2017-01-15T09:27:50.629Z</time>
      </trkpt>
      <trkpt lat="47.75361" lon="2.20326">
        <ele>172</ele>
        <time>2017-01-15T09:27:51.632Z</time>
      </trkpt>
      <trkpt lat="47.75375" lon="2.20323">
        <ele>172</ele>
        <time>2017-01-15T09:27:52.636Z</time>
      </trkpt>
      <trkpt lat="47.75375" lon="2.20323">
        <ele>172</ele>
        <time>2017-01-15T09:27:53.635Z</time>
      </trkpt>
      <trkpt lat="47.75388" lon="2.20319">
        <ele>173</ele>
        <time>2017-01-15T09:27:54.634Z</time>
      </trkpt>
      <trkpt lat="47.75388" lon="2.20319">
        <ele>173</ele>
        <time>2017-01-15T09:27:55.632Z</time>
      </trkpt>
      <trkpt lat="47.75401" lon="2.20316">
        <ele>172</ele>
        <time>2017-01-15T09:27:56.647Z</time>
      </trkpt>
      <trkpt lat="47.75401" lon="2.20316">
        <ele>172</ele>
        <time>2017-01-15T09:27:57.635Z</time>
      </trkpt>
      <trkpt lat="47.75414" lon="2.20314">
        <ele>173</ele>
        <time>2017-01-15T09:27:58.636Z</time>
      </trkpt>
      <trkpt lat="47.75414" lon="2.20314">
        <ele>173</ele>
        <time>2017-01-15T09:27:59.631Z</time>
      </trkpt>
      <trkpt lat="47.75427" lon="2.2031">
        <ele>174</ele>
        <time>2017-01-15T09:28:00.635Z</time>
      </trkpt>
      <trkpt lat="47.75427" lon="2.2031">
        <ele>174</ele>
        <time>2017-01-15T09:28:01.635Z</time>
      </trkpt>
      <trkpt lat="47.7544" lon="2.20305">
        <ele>174</ele>
        <time>2017-01-15T09:28:02.636Z</time>
      </trkpt>
      <trkpt lat="47.7544" lon="2.20305">
        <ele>174</ele>
        <time>2017-01-15T09:28:03.628Z</time>
      </trkpt>
      <trkpt lat="47.75454" lon="2.20302">
        <ele>174</ele>
        <time>2017-01-15T09:28:04.635Z</time>
      </trkpt>
      <trkpt lat="47.75454" lon="2.20302">
        <ele>174</ele>
        <time>2017-01-15T09:28:05.641Z</time>
      </trkpt>
      <trkpt lat="47.75467" lon="2.20298">
        <ele>175</ele>
        <time>2017-01-15T09:28:06.634Z</time>
      </trkpt>
      <trkpt lat="47.75474" lon="2.20296">
        <ele>176</ele>
        <time>2017-01-15T09:28:07.636Z</time>
      </trkpt>
      <trkpt lat="47.75474" lon="2.20296">
        <ele>176</ele>
        <time>2017-01-15T09:28:08.628Z</time>
      </trkpt>
      <trkpt lat="47.75488" lon="2.20293">
        <ele>175</ele>
        <time>2017-01-15T09:28:09.640Z</time>
      </trkpt>
      <trkpt lat="47.75496" lon="2.20291">
        <ele>175</ele>
        <time>2017-01-15T09:28:10.637Z</time>
      </trkpt>
      <trkpt lat="47.75496" lon="2.20291">
        <ele>175</ele>
        <time>2017-01-15T09:28:11.633Z</time>
      </trkpt>
      <trkpt lat="47.75512" lon="2.20289">
        <ele>173</ele>
        <time>2017-01-15T09:28:12.636Z</time>
      </trkpt>
      <trkpt lat="47.75512" lon="2.20289">
        <ele>173</ele>
        <time>2017-01-15T09:28:13.635Z</time>
      </trkpt>
      <trkpt lat="47.75528" lon="2.20285">
        <ele>172</ele>
        <time>2017-01-15T09:28:14.628Z</time>
      </trkpt>
      <trkpt lat="47.75528" lon="2.20285">
        <ele>172</ele>
        <time>2017-01-15T09:28:15.667Z</time>
      </trkpt>
      <trkpt lat="47.75543" lon="2.2028">
        <ele>172</ele>
        <time>2017-01-15T09:28:16.633Z</time>
      </trkpt>
      <trkpt lat="47.75543" lon="2.2028">
        <ele>172</ele>
        <time>2017-01-15T09:28:17.639Z</time>
      </trkpt>
      <trkpt lat="47.7556" lon="2.20276">
        <ele>172</ele>
        <time>2017-01-15T09:28:18.639Z</time>
      </trkpt>
      <trkpt lat="47.7556" lon="2.20276">
        <ele>172</ele>
        <time>2017-01-15T09:28:19.634Z</time>
      </trkpt>
      <trkpt lat="47.75577" lon="2.20273">
        <ele>172</ele>
        <time>2017-01-15T09:28:20.636Z</time>
      </trkpt>
      <trkpt lat="47.75586" lon="2.20272">
        <ele>172</ele>
        <time>2017-01-15T09:28:21.648Z</time>
      </trkpt>
      <trkpt lat="47.75586" lon="2.20272">
        <ele>172</ele>
        <time>2017-01-15T09:28:22.636Z</time>
      </trkpt>
      <trkpt lat="47.75603" lon="2.20268">
        <ele>171</ele>
        <time>2017-01-15T09:28:23.637Z</time>
      </trkpt>
      <trkpt lat="47.75603" lon="2.20268">
        <ele>171</ele>
        <time>2017-01-15T09:28:24.635Z</time>
      </trkpt>
      <trkpt lat="47.75618" lon="2.20264">
        <ele>171</ele>
        <time>2017-01-15T09:28:25.635Z</time>
      </trkpt>
      <trkpt lat="47.75626" lon="2.20262">
        <ele>171</ele>
        <time>2017-01-15T09:28:26.637Z</time>
      </trkpt>
      <trkpt lat="47.75626" lon="2.20262">
        <ele>171</ele>
        <time>2017-01-15T09:28:27.635Z</time>
      </trkpt>
      <trkpt lat="47.75641" lon="2.20258">
        <ele>171</ele>
        <time>2017-01-15T09:28:28.635Z</time>
      </trkpt>
      <trkpt lat="47.75641" lon="2.20258">
        <ele>171</ele>
        <time>2017-01-15T09:28:29.667Z</time>
      </trkpt>
      <trkpt lat="47.75656" lon="2.20255">
        <ele>171</ele>
        <time>2017-01-15T09:28:30.631Z</time>
      </trkpt>
      <trkpt lat="47.75656" lon="2.20255">
        <ele>171</ele>
        <time>2017-01-15T09:28:31.632Z</time>
      </trkpt>
      <trkpt lat="47.75669" lon="2.20251">
        <ele>171</ele>
        <time>2017-01-15T09:28:32.635Z</time>
      </trkpt>
      <trkpt lat="47.75669" lon="2.20251">
        <ele>171</ele>
        <time>2017-01-15T09:28:33.632Z</time>
      </trkpt>
      <trkpt lat="47.75685" lon="2.20247">
        <ele>170</ele>
        <time>2017-01-15T09:28:34.635Z</time>
      </trkpt>
      <trkpt lat="47.75685" lon="2.20247">
        <ele>170</ele>
        <time>2017-01-15T09:28:35.632Z</time>
      </trkpt>
      <trkpt lat="47.75699" lon="2.20243">
        <ele>168</ele>
        <time>2017-01-15T09:28:36.629Z</time>
      </trkpt>
      <trkpt lat="47.75699" lon="2.20243">
        <ele>168</ele>
        <time>2017-01-15T09:28:37.631Z</time>
      </trkpt>
      <trkpt lat="47.75712" lon="2.20241">
        <ele>167</ele>
        <time>2017-01-15T09:28:38.651Z</time>
      </trkpt>
      <trkpt lat="47.75718" lon="2.20239">
        <ele>167</ele>
        <time>2017-01-15T09:28:39.639Z</time>
      </trkpt>
      <trkpt lat="47.75718" lon="2.20239">
        <ele>167</ele>
        <time>2017-01-15T09:28:40.662Z</time>
      </trkpt>
      <trkpt lat="47.7573" lon="2.20236">
        <ele>167</ele>
        <time>2017-01-15T09:28:41.650Z</time>
      </trkpt>
      <trkpt lat="47.75735" lon="2.20234">
        <ele>167</ele>
        <time>2017-01-15T09:28:42.641Z</time>
      </trkpt>
      <trkpt lat="47.75735" lon="2.20234">
        <ele>167</ele>
        <time>2017-01-15T09:28:43.635Z</time>
      </trkpt>
      <trkpt lat="47.75746" lon="2.20232">
        <ele>168</ele>
        <time>2017-01-15T09:28:44.637Z</time>
      </trkpt>
      <trkpt lat="47.75746" lon="2.20232">
        <ele>168</ele>
        <time>2017-01-15T09:28:45.635Z</time>
      </trkpt>
      <trkpt lat="47.75756" lon="2.20229">
        <ele>168</ele>
        <time>2017-01-15T09:28:46.636Z</time>
      </trkpt>
      <trkpt lat="47.75756" lon="2.20229">
        <ele>168</ele>
        <time>2017-01-15T09:28:47.629Z</time>
      </trkpt>
      <trkpt lat="47.75766" lon="2.20226">
        <ele>169</ele>
        <time>2017-01-15T09:28:48.635Z</time>
      </trkpt>
      <trkpt lat="47.75766" lon="2.20226">
        <ele>169</ele>
        <time>2017-01-15T09:28:49.628Z</time>
      </trkpt>
      <trkpt lat="47.75777" lon="2.20224">
        <ele>169</ele>
        <time>2017-01-15T09:28:50.656Z</time>
      </trkpt>
      <trkpt lat="47.75781" lon="2.20222">
        <ele>170</ele>
        <time>2017-01-15T09:28:51.657Z</time>
      </trkpt>
      <trkpt lat="47.75786" lon="2.20221">
        <ele>170</ele>
        <time>2017-01-15T09:28:52.646Z</time>
      </trkpt>
      <trkpt lat="47.75786" lon="2.20221">
        <ele>170</ele>
        <time>2017-01-15T09:28:53.635Z</time>
      </trkpt>
      <trkpt lat="47.75796" lon="2.20218">
        <ele>171</ele>
        <time>2017-01-15T09:28:54.637Z</time>
      </trkpt>
      <trkpt lat="47.75796" lon="2.20218">
        <ele>171</ele>
        <time>2017-01-15T09:28:55.632Z</time>
      </trkpt>
      <trkpt lat="47.75805" lon="2.20215">
        <ele>172</ele>
        <time>2017-01-15T09:28:56.640Z</time>
      </trkpt>
      <trkpt lat="47.75805" lon="2.20215">
        <ele>172</ele>
        <time>2017-01-15T09:28:57.667Z</time>
      </trkpt>
      <trkpt lat="47.75813" lon="2.20213">
        <ele>173</ele>
        <time>2017-01-15T09:28:58.635Z</time>
      </trkpt>
      <trkpt lat="47.75813" lon="2.20213">
        <ele>173</ele>
        <time>2017-01-15T09:28:59.631Z</time>
      </trkpt>
      <trkpt lat="47.75821" lon="2.20211">
        <ele>173</ele>
        <time>2017-01-15T09:29:00.638Z</time>
      </trkpt>
      <trkpt lat="47.75824" lon="2.2021">
        <ele>174</ele>
        <time>2017-01-15T09:29:01.632Z</time>
      </trkpt>
      <trkpt lat="47.75828" lon="2.2021">
        <ele>174</ele>
        <time>2017-01-15T09:29:02.638Z</time>
      </trkpt>
      <trkpt lat="47.75828" lon="2.2021">
        <ele>174</ele>
        <time>2017-01-15T09:29:03.632Z</time>
      </trkpt>
      <trkpt lat="47.75833" lon="2.20208">
        <ele>175</ele>
        <time>2017-01-15T09:29:04.635Z</time>
      </trkpt>
      <trkpt lat="47.75833" lon="2.20208">
        <ele>175</ele>
        <time>2017-01-15T09:29:05.632Z</time>
      </trkpt>
      <trkpt lat="47.7584" lon="2.20207">
        <ele>175</ele>
        <time>2017-01-15T09:29:06.657Z</time>
      </trkpt>
      <trkpt lat="47.7584" lon="2.20207">
        <ele>175</ele>
        <time>2017-01-15T09:29:07.645Z</time>
      </trkpt>
      <trkpt lat="47.75845" lon="2.20205">
        <ele>175</ele>
        <time>2017-01-15T09:29:08.638Z</time>
      </trkpt>
      <trkpt lat="47.75845" lon="2.20205">
        <ele>175</ele>
        <time>2017-01-15T09:29:09.667Z</time>
      </trkpt>
      <trkpt lat="47.75849" lon="2.20198">
        <ele>173</ele>
        <time>2017-01-15T09:29:10.629Z</time>
      </trkpt>
      <trkpt lat="47.75849" lon="2.20198">
        <ele>173</ele>
        <time>2017-01-15T09:29:11.666Z</time>
      </trkpt>
      <trkpt lat="47.75849" lon="2.20188">
        <ele>170</ele>
        <time>2017-01-15T09:29:12.638Z</time>
      </trkpt>
      <trkpt lat="47.75849" lon="2.20188">
        <ele>170</ele>
        <time>2017-01-15T09:29:13.630Z</time>
      </trkpt>
      <trkpt lat="47.75849" lon="2.20176">
        <ele>168</ele>
        <time>2017-01-15T09:29:14.667Z</time>
      </trkpt>
      <trkpt lat="47.75849" lon="2.20176">
        <ele>168</ele>
        <time>2017-01-15T09:29:15.659Z</time>
      </trkpt>
      <trkpt lat="47.75847" lon="2.20163">
        <ele>166</ele>
        <time>2017-01-15T09:29:16.667Z</time>
      </trkpt>
      <trkpt lat="47.75847" lon="2.20157">
        <ele>166</ele>
        <time>2017-01-15T09:29:17.630Z</time>
      </trkpt>
      <trkpt lat="47.75847" lon="2.20157">
        <ele>166</ele>
        <time>2017-01-15T09:29:18.635Z</time>
      </trkpt>
      <trkpt lat="47.75846" lon="2.20143">
        <ele>165</ele>
        <time>2017-01-15T09:29:19.637Z</time>
      </trkpt>
      <trkpt lat="47.75846" lon="2.20143">
        <ele>165</ele>
        <time>2017-01-15T09:29:20.637Z</time>
      </trkpt>
      <trkpt lat="47.75843" lon="2.2013">
        <ele>165</ele>
        <time>2017-01-15T09:29:21.650Z</time>
      </trkpt>
      <trkpt lat="47.75842" lon="2.20123">
        <ele>164</ele>
        <time>2017-01-15T09:29:22.640Z</time>
      </trkpt>
      <trkpt lat="47.75842" lon="2.20123">
        <ele>164</ele>
        <time>2017-01-15T09:29:23.635Z</time>
      </trkpt>
      <trkpt lat="47.75842" lon="2.20109">
        <ele>163</ele>
        <time>2017-01-15T09:29:24.638Z</time>
      </trkpt>
      <trkpt lat="47.75842" lon="2.20109">
        <ele>163</ele>
        <time>2017-01-15T09:29:25.632Z</time>
      </trkpt>
      <trkpt lat="47.75839" lon="2.20095">
        <ele>162</ele>
        <time>2017-01-15T09:29:26.637Z</time>
      </trkpt>
      <trkpt lat="47.75839" lon="2.20095">
        <ele>162</ele>
        <time>2017-01-15T09:29:27.667Z</time>
      </trkpt>
      <trkpt lat="47.75837" lon="2.2008">
        <ele>162</ele>
        <time>2017-01-15T09:29:28.665Z</time>
      </trkpt>
      <trkpt lat="47.75837" lon="2.2008">
        <ele>162</ele>
        <time>2017-01-15T09:29:29.629Z</time>
      </trkpt>
      <trkpt lat="47.75834" lon="2.20065">
        <ele>161</ele>
        <time>2017-01-15T09:29:30.636Z</time>
      </trkpt>
      <trkpt lat="47.75834" lon="2.20057">
        <ele>161</ele>
        <time>2017-01-15T09:29:31.655Z</time>
      </trkpt>
      <trkpt lat="47.75834" lon="2.20048">
        <ele>161</ele>
        <time>2017-01-15T09:29:32.641Z</time>
      </trkpt>
      <trkpt lat="47.75834" lon="2.20048">
        <ele>161</ele>
        <time>2017-01-15T09:29:33.630Z</time>
      </trkpt>
      <trkpt lat="47.75833" lon="2.20032">
        <ele>161</ele>
        <time>2017-01-15T09:29:34.636Z</time>
      </trkpt>
      <trkpt lat="47.75833" lon="2.20032">
        <ele>161</ele>
        <time>2017-01-15T09:29:35.635Z</time>
      </trkpt>
      <trkpt lat="47.7583" lon="2.20016">
        <ele>160</ele>
        <time>2017-01-15T09:29:36.637Z</time>
      </trkpt>
      <trkpt lat="47.7583" lon="2.20016">
        <ele>160</ele>
        <time>2017-01-15T09:29:37.667Z</time>
      </trkpt>
      <trkpt lat="47.75829" lon="2.2">
        <ele>160</ele>
        <time>2017-01-15T09:29:38.658Z</time>
      </trkpt>
      <trkpt lat="47.75829" lon="2.2">
        <ele>160</ele>
        <time>2017-01-15T09:29:39.652Z</time>
      </trkpt>
      <trkpt lat="47.75827" lon="2.19983">
        <ele>160</ele>
        <time>2017-01-15T09:29:40.651Z</time>
      </trkpt>
      <trkpt lat="47.75827" lon="2.19983">
        <ele>160</ele>
        <time>2017-01-15T09:29:41.639Z</time>
      </trkpt>
      <trkpt lat="47.75826" lon="2.19966">
        <ele>160</ele>
        <time>2017-01-15T09:29:42.637Z</time>
      </trkpt>
      <trkpt lat="47.75826" lon="2.19966">
        <ele>160</ele>
        <time>2017-01-15T09:29:43.640Z</time>
      </trkpt>
      <trkpt lat="47.75823" lon="2.19948">
        <ele>160</ele>
        <time>2017-01-15T09:29:44.637Z</time>
      </trkpt>
      <trkpt lat="47.75823" lon="2.19948">
        <ele>160</ele>
        <time>2017-01-15T09:29:45.638Z</time>
      </trkpt>
      <trkpt lat="47.75822" lon="2.1993">
        <ele>159</ele>
        <time>2017-01-15T09:29:46.636Z</time>
      </trkpt>
      <trkpt lat="47.75822" lon="2.1993">
        <ele>159</ele>
        <time>2017-01-15T09:29:47.628Z</time>
      </trkpt>
      <trkpt lat="47.7582" lon="2.19913">
        <ele>158</ele>
        <time>2017-01-15T09:29:48.638Z</time>
      </trkpt>
      <trkpt lat="47.75819" lon="2.19905">
        <ele>158</ele>
        <time>2017-01-15T09:29:49.636Z</time>
      </trkpt>
      <trkpt lat="47.75819" lon="2.19905">
        <ele>158</ele>
        <time>2017-01-15T09:29:50.665Z</time>
      </trkpt>
      <trkpt lat="47.75818" lon="2.19887">
        <ele>158</ele>
        <time>2017-01-15T09:29:51.632Z</time>
      </trkpt>
      <trkpt lat="47.75818" lon="2.19887">
        <ele>158</ele>
        <time>2017-01-15T09:29:52.663Z</time>
      </trkpt>
      <trkpt lat="47.75815" lon="2.19871">
        <ele>157</ele>
        <time>2017-01-15T09:29:53.650Z</time>
      </trkpt>
      <trkpt lat="47.75815" lon="2.19871">
        <ele>157</ele>
        <time>2017-01-15T09:29:54.638Z</time>
      </trkpt>
      <trkpt lat="47.75814" lon="2.19854">
        <ele>157</ele>
        <time>2017-01-15T09:29:55.641Z</time>
      </trkpt>
      <trkpt lat="47.75814" lon="2.19854">
        <ele>157</ele>
        <time>2017-01-15T09:29:56.645Z</time>
      </trkpt>
      <trkpt lat="47.75812" lon="2.19837">
        <ele>156</ele>
        <time>2017-01-15T09:29:57.638Z</time>
      </trkpt>
      <trkpt lat="47.75812" lon="2.19837">
        <ele>156</ele>
        <time>2017-01-15T09:29:58.666Z</time>
      </trkpt>
      <trkpt lat="47.75811" lon="2.1982">
        <ele>156</ele>
        <time>2017-01-15T09:29:59.653Z</time>
      </trkpt>
      <trkpt lat="47.75811" lon="2.1982">
        <ele>156</ele>
        <time>2017-01-15T09:30:00.641Z</time>
      </trkpt>
      <trkpt lat="47.75808" lon="2.19804">
        <ele>156</ele>
        <time>2017-01-15T09:30:01.638Z</time>
      </trkpt>
      <trkpt lat="47.75807" lon="2.19796">
        <ele>156</ele>
        <time>2017-01-15T09:30:02.639Z</time>
      </trkpt>
      <trkpt lat="47.75807" lon="2.19796">
        <ele>156</ele>
        <time>2017-01-15T09:30:03.667Z</time>
      </trkpt>
      <trkpt lat="47.75805" lon="2.1978">
        <ele>156</ele>
        <time>2017-01-15T09:30:04.666Z</time>
      </trkpt>
      <trkpt lat="47.75805" lon="2.1978">
        <ele>156</ele>
        <time>2017-01-15T09:30:05.637Z</time>
      </trkpt>
      <trkpt lat="47.75803" lon="2.19765">
        <ele>156</ele>
        <time>2017-01-15T09:30:06.636Z</time>
      </trkpt>
      <trkpt lat="47.75801" lon="2.19757">
        <ele>156</ele>
        <time>2017-01-15T09:30:07.640Z</time>
      </trkpt>
      <trkpt lat="47.75801" lon="2.19757">
        <ele>156</ele>
        <time>2017-01-15T09:30:08.630Z</time>
      </trkpt>
      <trkpt lat="47.75799" lon="2.19741">
        <ele>156</ele>
        <time>2017-01-15T09:30:09.637Z</time>
      </trkpt>
      <trkpt lat="47.75796" lon="2.19733">
        <ele>157</ele>
        <time>2017-01-15T09:30:10.637Z</time>
      </trkpt>
      <trkpt lat="47.75796" lon="2.19733">
        <ele>157</ele>
        <time>2017-01-15T09:30:11.636Z</time>
      </trkpt>
      <trkpt lat="47.75794" lon="2.19716">
        <ele>157</ele>
        <time>2017-01-15T09:30:12.642Z</time>
      </trkpt>
      <trkpt lat="47.75794" lon="2.19716">
        <ele>157</ele>
        <time>2017-01-15T09:30:13.632Z</time>
      </trkpt>
      <trkpt lat="47.75792" lon="2.197">
        <ele>157</ele>
        <time>2017-01-15T09:30:14.662Z</time>
      </trkpt>
      <trkpt lat="47.75792" lon="2.197">
        <ele>157</ele>
        <time>2017-01-15T09:30:15.660Z</time>
      </trkpt>
      <trkpt lat="47.75791" lon="2.19684">
        <ele>157</ele>
        <time>2017-01-15T09:30:16.628Z</time>
      </trkpt>
      <trkpt lat="47.75791" lon="2.19677">
        <ele>157</ele>
        <time>2017-01-15T09:30:17.640Z</time>
      </trkpt>
      <trkpt lat="47.75791" lon="2.19677">
        <ele>157</ele>
        <time>2017-01-15T09:30:18.636Z</time>
      </trkpt>
      <trkpt lat="47.75792" lon="2.19662">
        <ele>156</ele>
        <time>2017-01-15T09:30:19.638Z</time>
      </trkpt>
      <trkpt lat="47.75793" lon="2.19656">
        <ele>156</ele>
        <time>2017-01-15T09:30:20.629Z</time>
      </trkpt>
      <trkpt lat="47.75793" lon="2.19656">
        <ele>156</ele>
        <time>2017-01-15T09:30:21.649Z</time>
      </trkpt>
      <trkpt lat="47.75792" lon="2.19642">
        <ele>155</ele>
        <time>2017-01-15T09:30:22.639Z</time>
      </trkpt>
      <trkpt lat="47.75791" lon="2.19634">
        <ele>155</ele>
        <time>2017-01-15T09:30:23.638Z</time>
      </trkpt>
      <trkpt lat="47.75791" lon="2.19634">
        <ele>155</ele>
        <time>2017-01-15T09:30:24.632Z</time>
      </trkpt>
      <trkpt lat="47.7579" lon="2.1962">
        <ele>154</ele>
        <time>2017-01-15T09:30:25.630Z</time>
      </trkpt>
      <trkpt lat="47.7579" lon="2.19613">
        <ele>154</ele>
        <time>2017-01-15T09:30:26.637Z</time>
      </trkpt>
      <trkpt lat="47.7579" lon="2.19613">
        <ele>154</ele>
        <time>2017-01-15T09:30:27.667Z</time>
      </trkpt>
      <trkpt lat="47.75793" lon="2.196">
        <ele>153</ele>
        <time>2017-01-15T09:30:28.630Z</time>
      </trkpt>
      <trkpt lat="47.75793" lon="2.196">
        <ele>153</ele>
        <time>2017-01-15T09:30:29.662Z</time>
      </trkpt>
      <trkpt lat="47.758" lon="2.19589">
        <ele>152</ele>
        <time>2017-01-15T09:30:30.650Z</time>
      </trkpt>
      <trkpt lat="47.758" lon="2.19589">
        <ele>152</ele>
        <time>2017-01-15T09:30:31.650Z</time>
      </trkpt>
      <trkpt lat="47.75808" lon="2.1958">
        <ele>151</ele>
        <time>2017-01-15T09:30:32.640Z</time>
      </trkpt>
      <trkpt lat="47.75808" lon="2.1958">
        <ele>151</ele>
        <time>2017-01-15T09:30:33.636Z</time>
      </trkpt>
      <trkpt lat="47.75817" lon="2.19571">
        <ele>151</ele>
        <time>2017-01-15T09:30:34.635Z</time>
      </trkpt>
      <trkpt lat="47.75817" lon="2.19571">
        <ele>151</ele>
        <time>2017-01-15T09:30:35.632Z</time>
      </trkpt>
      <trkpt lat="47.75825" lon="2.1956">
        <ele>150</ele>
        <time>2017-01-15T09:30:36.630Z</time>
      </trkpt>
      <trkpt lat="47.75825" lon="2.1956">
        <ele>150</ele>
        <time>2017-01-15T09:30:37.628Z</time>
      </trkpt>
      <trkpt lat="47.75832" lon="2.19548">
        <ele>149</ele>
        <time>2017-01-15T09:30:38.641Z</time>
      </trkpt>
      <trkpt lat="47.75832" lon="2.19548">
        <ele>149</ele>
        <time>2017-01-15T09:30:39.629Z</time>
      </trkpt>
      <trkpt lat="47.75838" lon="2.19536">
        <ele>148</ele>
        <time>2017-01-15T09:30:40.645Z</time>
      </trkpt>
      <trkpt lat="47.75838" lon="2.19536">
        <ele>148</ele>
        <time>2017-01-15T09:30:41.636Z</time>
      </trkpt>
      <trkpt lat="47.75845" lon="2.19524">
        <ele>148</ele>
        <time>2017-01-15T09:30:42.630Z</time>
      </trkpt>
      <trkpt lat="47.75849" lon="2.19518">
        <ele>148</ele>
        <time>2017-01-15T09:30:43.630Z</time>
      </trkpt>
      <trkpt lat="47.75852" lon="2.19513">
        <ele>147</ele>
        <time>2017-01-15T09:30:44.640Z</time>
      </trkpt>
      <trkpt lat="47.75852" lon="2.19513">
        <ele>147</ele>
        <time>2017-01-15T09:30:45.649Z</time>
      </trkpt>
      <trkpt lat="47.75859" lon="2.19501">
        <ele>147</ele>
        <time>2017-01-15T09:30:46.639Z</time>
      </trkpt>
      <trkpt lat="47.75859" lon="2.19501">
        <ele>147</ele>
        <time>2017-01-15T09:30:47.667Z</time>
      </trkpt>
      <trkpt lat="47.75866" lon="2.19489">
        <ele>146</ele>
        <time>2017-01-15T09:30:48.632Z</time>
      </trkpt>
      <trkpt lat="47.75866" lon="2.19489">
        <ele>146</ele>
        <time>2017-01-15T09:30:49.667Z</time>
      </trkpt>
      <trkpt lat="47.75874" lon="2.19476">
        <ele>145</ele>
        <time>2017-01-15T09:30:50.639Z</time>
      </trkpt>
      <trkpt lat="47.75874" lon="2.19476">
        <ele>145</ele>
        <time>2017-01-15T09:30:51.630Z</time>
      </trkpt>
      <trkpt lat="47.75881" lon="2.19464">
        <ele>145</ele>
        <time>2017-01-15T09:30:52.644Z</time>
      </trkpt>
      <trkpt lat="47.75885" lon="2.19457">
        <ele>144</ele>
        <time>2017-01-15T09:30:53.638Z</time>
      </trkpt>
      <trkpt lat="47.75885" lon="2.19457">
        <ele>144</ele>
        <time>2017-01-15T09:30:54.628Z</time>
      </trkpt>
      <trkpt lat="47.75892" lon="2.19444">
        <ele>143</ele>
        <time>2017-01-15T09:30:55.636Z</time>
      </trkpt>
      <trkpt lat="47.75896" lon="2.19439">
        <ele>143</ele>
        <time>2017-01-15T09:30:56.638Z</time>
      </trkpt>
      <trkpt lat="47.75896" lon="2.19439">
        <ele>143</ele>
        <time>2017-01-15T09:30:57.632Z</time>
      </trkpt>
      <trkpt lat="47.75902" lon="2.19426">
        <ele>143</ele>
        <time>2017-01-15T09:30:58.636Z</time>
      </trkpt>
      <trkpt lat="47.75902" lon="2.19426">
        <ele>143</ele>
        <time>2017-01-15T09:30:59.628Z</time>
      </trkpt>
      <trkpt lat="47.75909" lon="2.19414">
        <ele>142</ele>
        <time>2017-01-15T09:31:00.638Z</time>
      </trkpt>
      <trkpt lat="47.75909" lon="2.19414">
        <ele>142</ele>
        <time>2017-01-15T09:31:01.667Z</time>
      </trkpt>
      <trkpt lat="47.75917" lon="2.194">
        <ele>142</ele>
        <time>2017-01-15T09:31:02.654Z</time>
      </trkpt>
      <trkpt lat="47.75917" lon="2.194">
        <ele>142</ele>
        <time>2017-01-15T09:31:03.643Z</time>
      </trkpt>
      <trkpt lat="47.75924" lon="2.19386">
        <ele>142</ele>
        <time>2017-01-15T09:31:04.630Z</time>
      </trkpt>
      <trkpt lat="47.75928" lon="2.19379">
        <ele>142</ele>
        <time>2017-01-15T09:31:05.632Z</time>
      </trkpt>
      <trkpt lat="47.75932" lon="2.19372">
        <ele>142</ele>
        <time>2017-01-15T09:31:06.659Z</time>
      </trkpt>
      <trkpt lat="47.75932" lon="2.19372">
        <ele>142</ele>
        <time>2017-01-15T09:31:07.648Z</time>
      </trkpt>
      <trkpt lat="47.75941" lon="2.19359">
        <ele>142</ele>
        <time>2017-01-15T09:31:08.642Z</time>
      </trkpt>
      <trkpt lat="47.75941" lon="2.19359">
        <ele>142</ele>
        <time>2017-01-15T09:31:09.630Z</time>
      </trkpt>
      <trkpt lat="47.75949" lon="2.19347">
        <ele>142</ele>
        <time>2017-01-15T09:31:10.639Z</time>
      </trkpt>
      <trkpt lat="47.75949" lon="2.19347">
        <ele>142</ele>
        <time>2017-01-15T09:31:11.643Z</time>
      </trkpt>
      <trkpt lat="47.75957" lon="2.19334">
        <ele>142</ele>
        <time>2017-01-15T09:31:12.632Z</time>
      </trkpt>
      <trkpt lat="47.75957" lon="2.19334">
        <ele>142</ele>
        <time>2017-01-15T09:31:13.628Z</time>
      </trkpt>
      <trkpt lat="47.75965" lon="2.19322">
        <ele>142</ele>
        <time>2017-01-15T09:31:14.665Z</time>
      </trkpt>
      <trkpt lat="47.75965" lon="2.19322">
        <ele>142</ele>
        <time>2017-01-15T09:31:15.629Z</time>
      </trkpt>
      <trkpt lat="47.75972" lon="2.19311">
        <ele>142</ele>
        <time>2017-01-15T09:31:16.635Z</time>
      </trkpt>
      <trkpt lat="47.75975" lon="2.19306">
        <ele>142</ele>
        <time>2017-01-15T09:31:17.636Z</time>
      </trkpt>
      <trkpt lat="47.75975" lon="2.19306">
        <ele>142</ele>
        <time>2017-01-15T09:31:18.665Z</time>
      </trkpt>
      <trkpt lat="47.75983" lon="2.19295">
        <ele>142</ele>
        <time>2017-01-15T09:31:19.657Z</time>
      </trkpt>
      <trkpt lat="47.75988" lon="2.1929">
        <ele>140</ele>
        <time>2017-01-15T09:31:20.646Z</time>
      </trkpt>
      <trkpt lat="47.75994" lon="2.19284">
        <ele>140</ele>
        <time>2017-01-15T09:31:21.656Z</time>
      </trkpt>
      <trkpt lat="47.75994" lon="2.19284">
        <ele>140</ele>
        <time>2017-01-15T09:31:22.632Z</time>
      </trkpt>
      <trkpt lat="47.76004" lon="2.19272">
        <ele>139</ele>
        <time>2017-01-15T09:31:23.638Z</time>
      </trkpt>
      <trkpt lat="47.76004" lon="2.19272">
        <ele>139</ele>
        <time>2017-01-15T09:31:24.644Z</time>
      </trkpt>
      <trkpt lat="47.76011" lon="2.1926">
        <ele>139</ele>
        <time>2017-01-15T09:31:25.651Z</time>
      </trkpt>
      <trkpt lat="47.76015" lon="2.19255">
        <ele>139</ele>
        <time>2017-01-15T09:31:26.641Z</time>
      </trkpt>
      <trkpt lat="47.76015" lon="2.19255">
        <ele>139</ele>
        <time>2017-01-15T09:31:27.636Z</time>
      </trkpt>
      <trkpt lat="47.76021" lon="2.19244">
        <ele>138</ele>
        <time>2017-01-15T09:31:28.638Z</time>
      </trkpt>
      <trkpt lat="47.76021" lon="2.19244">
        <ele>138</ele>
        <time>2017-01-15T09:31:29.629Z</time>
      </trkpt>
      <trkpt lat="47.76028" lon="2.19234">
        <ele>138</ele>
        <time>2017-01-15T09:31:30.650Z</time>
      </trkpt>
      <trkpt lat="47.76032" lon="2.19228">
        <ele>139</ele>
        <time>2017-01-15T09:31:31.654Z</time>
      </trkpt>
      <trkpt lat="47.76032" lon="2.19228">
        <ele>139</ele>
        <time>2017-01-15T09:31:32.641Z</time>
      </trkpt>
      <trkpt lat="47.76039" lon="2.19216">
        <ele>139</ele>
        <time>2017-01-15T09:31:33.638Z</time>
      </trkpt>
      <trkpt lat="47.76042" lon="2.19211">
        <ele>139</ele>
        <time>2017-01-15T09:31:34.637Z</time>
      </trkpt>
      <trkpt lat="47.76042" lon="2.19211">
        <ele>139</ele>
        <time>2017-01-15T09:31:35.636Z</time>
      </trkpt>
      <trkpt lat="47.76049" lon="2.192">
        <ele>139</ele>
        <time>2017-01-15T09:31:36.638Z</time>
      </trkpt>
      <trkpt lat="47.76049" lon="2.192">
        <ele>139</ele>
        <time>2017-01-15T09:31:37.636Z</time>
      </trkpt>
      <trkpt lat="47.76057" lon="2.19189">
        <ele>138</ele>
        <time>2017-01-15T09:31:38.640Z</time>
      </trkpt>
      <trkpt lat="47.76057" lon="2.19189">
        <ele>138</ele>
        <time>2017-01-15T09:31:39.636Z</time>
      </trkpt>
      <trkpt lat="47.76065" lon="2.19176">
        <ele>138</ele>
        <time>2017-01-15T09:31:40.638Z</time>
      </trkpt>
      <trkpt lat="47.76068" lon="2.19169">
        <ele>138</ele>
        <time>2017-01-15T09:31:41.640Z</time>
      </trkpt>
      <trkpt lat="47.76068" lon="2.19169">
        <ele>138</ele>
        <time>2017-01-15T09:31:42.636Z</time>
      </trkpt>
      <trkpt lat="47.76076" lon="2.19155">
        <ele>137</ele>
        <time>2017-01-15T09:31:43.638Z</time>
      </trkpt>
      <trkpt lat="47.76079" lon="2.19149">
        <ele>137</ele>
        <time>2017-01-15T09:31:44.636Z</time>
      </trkpt>
      <trkpt lat="47.76079" lon="2.19149">
        <ele>137</ele>
        <time>2017-01-15T09:31:45.664Z</time>
      </trkpt>
      <trkpt lat="47.76087" lon="2.19136">
        <ele>136</ele>
        <time>2017-01-15T09:31:46.654Z</time>
      </trkpt>
      <trkpt lat="47.76087" lon="2.19136">
        <ele>136</ele>
        <time>2017-01-15T09:31:47.642Z</time>
      </trkpt>
      <trkpt lat="47.76093" lon="2.19123">
        <ele>136</ele>
        <time>2017-01-15T09:31:48.637Z</time>
      </trkpt>
      <trkpt lat="47.76097" lon="2.19117">
        <ele>136</ele>
        <time>2017-01-15T09:31:49.636Z</time>
      </trkpt>
      <trkpt lat="47.76102" lon="2.19112">
        <ele>136</ele>
        <time>2017-01-15T09:31:50.640Z</time>
      </trkpt>
      <trkpt lat="47.76102" lon="2.19112">
        <ele>136</ele>
        <time>2017-01-15T09:31:51.632Z</time>
      </trkpt>
      <trkpt lat="47.76109" lon="2.191">
        <ele>135</ele>
        <time>2017-01-15T09:31:52.639Z</time>
      </trkpt>
      <trkpt lat="47.76109" lon="2.191">
        <ele>135</ele>
        <time>2017-01-15T09:31:53.630Z</time>
      </trkpt>
      <trkpt lat="47.76117" lon="2.19089">
        <ele>134</ele>
        <time>2017-01-15T09:31:54.637Z</time>
      </trkpt>
      <trkpt lat="47.76117" lon="2.19089">
        <ele>134</ele>
        <time>2017-01-15T09:31:55.636Z</time>
      </trkpt>
      <trkpt lat="47.76124" lon="2.19078">
        <ele>133</ele>
        <time>2017-01-15T09:31:56.639Z</time>
      </trkpt>
      <trkpt lat="47.76124" lon="2.19078">
        <ele>133</ele>
        <time>2017-01-15T09:31:57.629Z</time>
      </trkpt>
      <trkpt lat="47.76132" lon="2.19066">
        <ele>134</ele>
        <time>2017-01-15T09:31:58.639Z</time>
      </trkpt>
      <trkpt lat="47.76132" lon="2.19066">
        <ele>134</ele>
        <time>2017-01-15T09:31:59.636Z</time>
      </trkpt>
      <trkpt lat="47.76138" lon="2.19055">
        <ele>134</ele>
        <time>2017-01-15T09:32:00.638Z</time>
      </trkpt>
      <trkpt lat="47.76138" lon="2.19055">
        <ele>134</ele>
        <time>2017-01-15T09:32:01.636Z</time>
      </trkpt>
      <trkpt lat="47.76146" lon="2.19045">
        <ele>134</ele>
        <time>2017-01-15T09:32:02.642Z</time>
      </trkpt>
      <trkpt lat="47.76149" lon="2.1904">
        <ele>134</ele>
        <time>2017-01-15T09:32:03.639Z</time>
      </trkpt>
      <trkpt lat="47.76152" lon="2.19034">
        <ele>134</ele>
        <time>2017-01-15T09:32:04.639Z</time>
      </trkpt>
      <trkpt lat="47.76152" lon="2.19034">
        <ele>134</ele>
        <time>2017-01-15T09:32:05.636Z</time>
      </trkpt>
      <trkpt lat="47.7616" lon="2.19024">
        <ele>135</ele>
        <time>2017-01-15T09:32:06.642Z</time>
      </trkpt>
      <trkpt lat="47.76164" lon="2.19019">
        <ele>136</ele>
        <time>2017-01-15T09:32:07.642Z</time>
      </trkpt>
      <trkpt lat="47.76167" lon="2.19014">
        <ele>136</ele>
        <time>2017-01-15T09:32:08.641Z</time>
      </trkpt>
      <trkpt lat="47.76167" lon="2.19014">
        <ele>136</ele>
        <time>2017-01-15T09:32:09.636Z</time>
      </trkpt>
      <trkpt lat="47.76172" lon="2.19003">
        <ele>136</ele>
        <time>2017-01-15T09:32:10.638Z</time>
      </trkpt>
      <trkpt lat="47.76172" lon="2.19003">
        <ele>136</ele>
        <time>2017-01-15T09:32:11.634Z</time>
      </trkpt>
      <trkpt lat="47.76178" lon="2.18993">
        <ele>136</ele>
        <time>2017-01-15T09:32:12.631Z</time>
      </trkpt>
      <trkpt lat="47.76178" lon="2.18993">
        <ele>136</ele>
        <time>2017-01-15T09:32:13.665Z</time>
      </trkpt>
      <trkpt lat="47.76183" lon="2.18983">
        <ele>137</ele>
        <time>2017-01-15T09:32:14.665Z</time>
      </trkpt>
      <trkpt lat="47.76183" lon="2.18983">
        <ele>137</ele>
        <time>2017-01-15T09:32:15.661Z</time>
      </trkpt>
      <trkpt lat="47.76189" lon="2.18973">
        <ele>137</ele>
        <time>2017-01-15T09:32:16.629Z</time>
      </trkpt>
      <trkpt lat="47.76192" lon="2.18968">
        <ele>137</ele>
        <time>2017-01-15T09:32:17.635Z</time>
      </trkpt>
      <trkpt lat="47.76192" lon="2.18968">
        <ele>137</ele>
        <time>2017-01-15T09:32:18.629Z</time>
      </trkpt>
      <trkpt lat="47.76197" lon="2.18958">
        <ele>137</ele>
        <time>2017-01-15T09:32:19.639Z</time>
      </trkpt>
      <trkpt lat="47.762" lon="2.18953">
        <ele>137</ele>
        <time>2017-01-15T09:32:20.641Z</time>
      </trkpt>
      <trkpt lat="47.762" lon="2.18953">
        <ele>137</ele>
        <time>2017-01-15T09:32:21.632Z</time>
      </trkpt>
      <trkpt lat="47.76207" lon="2.18943">
        <ele>138</ele>
        <time>2017-01-15T09:32:22.635Z</time>
      </trkpt>
      <trkpt lat="47.7621" lon="2.18938">
        <ele>139</ele>
        <time>2017-01-15T09:32:23.637Z</time>
      </trkpt>
      <trkpt lat="47.7621" lon="2.18938">
        <ele>139</ele>
        <time>2017-01-15T09:32:24.635Z</time>
      </trkpt>
      <trkpt lat="47.76217" lon="2.18928">
        <ele>140</ele>
        <time>2017-01-15T09:32:25.640Z</time>
      </trkpt>
      <trkpt lat="47.7622" lon="2.18923">
        <ele>140</ele>
        <time>2017-01-15T09:32:26.641Z</time>
      </trkpt>
      <trkpt lat="47.7622" lon="2.18923">
        <ele>140</ele>
        <time>2017-01-15T09:32:27.629Z</time>
      </trkpt>
      <trkpt lat="47.76226" lon="2.18913">
        <ele>141</ele>
        <time>2017-01-15T09:32:28.639Z</time>
      </trkpt>
      <trkpt lat="47.76229" lon="2.18908">
        <ele>141</ele>
        <time>2017-01-15T09:32:29.637Z</time>
      </trkpt>
      <trkpt lat="47.76229" lon="2.18908">
        <ele>141</ele>
        <time>2017-01-15T09:32:30.638Z</time>
      </trkpt>
      <trkpt lat="47.76236" lon="2.18897">
        <ele>142</ele>
        <time>2017-01-15T09:32:31.647Z</time>
      </trkpt>
      <trkpt lat="47.76239" lon="2.18892">
        <ele>142</ele>
        <time>2017-01-15T09:32:32.644Z</time>
      </trkpt>
      <trkpt lat="47.76239" lon="2.18892">
        <ele>142</ele>
        <time>2017-01-15T09:32:33.636Z</time>
      </trkpt>
      <trkpt lat="47.76245" lon="2.18881">
        <ele>142</ele>
        <time>2017-01-15T09:32:34.632Z</time>
      </trkpt>
      <trkpt lat="47.76248" lon="2.18876">
        <ele>142</ele>
        <time>2017-01-15T09:32:35.637Z</time>
      </trkpt>
      <trkpt lat="47.76248" lon="2.18876">
        <ele>142</ele>
        <time>2017-01-15T09:32:36.630Z</time>
      </trkpt>
      <trkpt lat="47.76255" lon="2.18865">
        <ele>141</ele>
        <time>2017-01-15T09:32:37.637Z</time>
      </trkpt>
      <trkpt lat="47.76258" lon="2.1886">
        <ele>141</ele>
        <time>2017-01-15T09:32:38.636Z</time>
      </trkpt>
      <trkpt lat="47.76258" lon="2.1886">
        <ele>141</ele>
        <time>2017-01-15T09:32:39.665Z</time>
      </trkpt>
      <trkpt lat="47.76265" lon="2.1885">
        <ele>141</ele>
        <time>2017-01-15T09:32:40.656Z</time>
      </trkpt>
      <trkpt lat="47.76268" lon="2.18844">
        <ele>142</ele>
        <time>2017-01-15T09:32:41.644Z</time>
      </trkpt>
      <trkpt lat="47.76268" lon="2.18844">
        <ele>142</ele>
        <time>2017-01-15T09:32:42.634Z</time>
      </trkpt>
      <trkpt lat="47.76275" lon="2.18833">
        <ele>141</ele>
        <time>2017-01-15T09:32:43.667Z</time>
      </trkpt>
      <trkpt lat="47.76279" lon="2.18827">
        <ele>141</ele>
        <time>2017-01-15T09:32:44.640Z</time>
      </trkpt>
      <trkpt lat="47.76279" lon="2.18827">
        <ele>141</ele>
        <time>2017-01-15T09:32:45.632Z</time>
      </trkpt>
      <trkpt lat="47.76285" lon="2.18815">
        <ele>142</ele>
        <time>2017-01-15T09:32:46.640Z</time>
      </trkpt>
      <trkpt lat="47.76285" lon="2.18815">
        <ele>142</ele>
        <time>2017-01-15T09:32:47.630Z</time>
      </trkpt>
      <trkpt lat="47.76292" lon="2.18804">
        <ele>142</ele>
        <time>2017-01-15T09:32:48.637Z</time>
      </trkpt>
      <trkpt lat="47.76292" lon="2.18804">
        <ele>142</ele>
        <time>2017-01-15T09:32:49.637Z</time>
      </trkpt>
      <trkpt lat="47.763" lon="2.18792">
        <ele>141</ele>
        <time>2017-01-15T09:32:50.640Z</time>
      </trkpt>
      <trkpt lat="47.763" lon="2.18792">
        <ele>141</ele>
        <time>2017-01-15T09:32:51.629Z</time>
      </trkpt>
      <trkpt lat="47.76307" lon="2.18781">
        <ele>141</ele>
        <time>2017-01-15T09:32:52.640Z</time>
      </trkpt>
      <trkpt lat="47.76307" lon="2.18781">
        <ele>141</ele>
        <time>2017-01-15T09:32:53.637Z</time>
      </trkpt>
      <trkpt lat="47.76314" lon="2.18769">
        <ele>141</ele>
        <time>2017-01-15T09:32:54.637Z</time>
      </trkpt>
      <trkpt lat="47.76314" lon="2.18769">
        <ele>141</ele>
        <time>2017-01-15T09:32:55.632Z</time>
      </trkpt>
      <trkpt lat="47.7632" lon="2.18757">
        <ele>141</ele>
        <time>2017-01-15T09:32:56.640Z</time>
      </trkpt>
      <trkpt lat="47.7632" lon="2.18757">
        <ele>141</ele>
        <time>2017-01-15T09:32:57.636Z</time>
      </trkpt>
      <trkpt lat="47.76326" lon="2.18745">
        <ele>142</ele>
        <time>2017-01-15T09:32:58.636Z</time>
      </trkpt>
      <trkpt lat="47.7633" lon="2.1874">
        <ele>142</ele>
        <time>2017-01-15T09:32:59.639Z</time>
      </trkpt>
      <trkpt lat="47.7633" lon="2.1874">
        <ele>142</ele>
        <time>2017-01-15T09:33:00.629Z</time>
      </trkpt>
      <trkpt lat="47.76337" lon="2.18729">
        <ele>142</ele>
        <time>2017-01-15T09:33:01.636Z</time>
      </trkpt>
      <trkpt lat="47.76341" lon="2.18723">
        <ele>143</ele>
        <time>2017-01-15T09:33:02.638Z</time>
      </trkpt>
      <trkpt lat="47.76341" lon="2.18723">
        <ele>143</ele>
        <time>2017-01-15T09:33:03.630Z</time>
      </trkpt>
      <trkpt lat="47.76347" lon="2.18713">
        <ele>143</ele>
        <time>2017-01-15T09:33:04.639Z</time>
      </trkpt>
      <trkpt lat="47.76347" lon="2.18713">
        <ele>143</ele>
        <time>2017-01-15T09:33:05.639Z</time>
      </trkpt>
      <trkpt lat="47.76354" lon="2.18702">
        <ele>143</ele>
        <time>2017-01-15T09:33:06.656Z</time>
      </trkpt>
      <trkpt lat="47.76354" lon="2.18702">
        <ele>143</ele>
        <time>2017-01-15T09:33:07.644Z</time>
      </trkpt>
      <trkpt lat="47.76361" lon="2.18691">
        <ele>143</ele>
        <time>2017-01-15T09:33:08.640Z</time>
      </trkpt>
      <trkpt lat="47.76361" lon="2.18691">
        <ele>143</ele>
        <time>2017-01-15T09:33:09.637Z</time>
      </trkpt>
      <trkpt lat="47.76369" lon="2.18681">
        <ele>143</ele>
        <time>2017-01-15T09:33:10.638Z</time>
      </trkpt>
      <trkpt lat="47.76369" lon="2.18681">
        <ele>143</ele>
        <time>2017-01-15T09:33:11.642Z</time>
      </trkpt>
      <trkpt lat="47.76377" lon="2.1867">
        <ele>142</ele>
        <time>2017-01-15T09:33:12.642Z</time>
      </trkpt>
      <trkpt lat="47.76377" lon="2.1867">
        <ele>142</ele>
        <time>2017-01-15T09:33:13.637Z</time>
      </trkpt>
      <trkpt lat="47.76385" lon="2.18659">
        <ele>143</ele>
        <time>2017-01-15T09:33:14.632Z</time>
      </trkpt>
      <trkpt lat="47.76385" lon="2.18659">
        <ele>143</ele>
        <time>2017-01-15T09:33:15.632Z</time>
      </trkpt>
      <trkpt lat="47.76394" lon="2.18647">
        <ele>143</ele>
        <time>2017-01-15T09:33:16.637Z</time>
      </trkpt>
      <trkpt lat="47.76398" lon="2.1864">
        <ele>143</ele>
        <time>2017-01-15T09:33:17.639Z</time>
      </trkpt>
      <trkpt lat="47.76398" lon="2.1864">
        <ele>143</ele>
        <time>2017-01-15T09:33:18.629Z</time>
      </trkpt>
      <trkpt lat="47.76405" lon="2.18627">
        <ele>142</ele>
        <time>2017-01-15T09:33:19.637Z</time>
      </trkpt>
      <trkpt lat="47.7641" lon="2.18622">
        <ele>142</ele>
        <time>2017-01-15T09:33:20.642Z</time>
      </trkpt>
      <trkpt lat="47.7641" lon="2.18622">
        <ele>142</ele>
        <time>2017-01-15T09:33:21.636Z</time>
      </trkpt>
      <trkpt lat="47.76418" lon="2.18609">
        <ele>142</ele>
        <time>2017-01-15T09:33:22.639Z</time>
      </trkpt>
      <trkpt lat="47.76422" lon="2.18603">
        <ele>142</ele>
        <time>2017-01-15T09:33:23.642Z</time>
      </trkpt>
      <trkpt lat="47.76422" lon="2.18603">
        <ele>142</ele>
        <time>2017-01-15T09:33:24.637Z</time>
      </trkpt>
      <trkpt lat="47.76429" lon="2.1859">
        <ele>143</ele>
        <time>2017-01-15T09:33:25.638Z</time>
      </trkpt>
      <trkpt lat="47.76432" lon="2.18583">
        <ele>143</ele>
        <time>2017-01-15T09:33:26.636Z</time>
      </trkpt>
      <trkpt lat="47.76432" lon="2.18583">
        <ele>143</ele>
        <time>2017-01-15T09:33:27.666Z</time>
      </trkpt>
      <trkpt lat="47.76439" lon="2.18571">
        <ele>143</ele>
        <time>2017-01-15T09:33:28.632Z</time>
      </trkpt>
      <trkpt lat="47.76439" lon="2.18571">
        <ele>143</ele>
        <time>2017-01-15T09:33:29.665Z</time>
      </trkpt>
      <trkpt lat="47.76445" lon="2.1856">
        <ele>145</ele>
        <time>2017-01-15T09:33:30.653Z</time>
      </trkpt>
      <trkpt lat="47.76445" lon="2.1856">
        <ele>145</ele>
        <time>2017-01-15T09:33:31.650Z</time>
      </trkpt>
      <trkpt lat="47.76452" lon="2.1855">
        <ele>145</ele>
        <time>2017-01-15T09:33:32.641Z</time>
      </trkpt>
      <trkpt lat="47.76452" lon="2.1855">
        <ele>145</ele>
        <time>2017-01-15T09:33:33.637Z</time>
      </trkpt>
      <trkpt lat="47.76459" lon="2.18539">
        <ele>144</ele>
        <time>2017-01-15T09:33:34.642Z</time>
      </trkpt>
      <trkpt lat="47.76459" lon="2.18539">
        <ele>144</ele>
        <time>2017-01-15T09:33:35.632Z</time>
      </trkpt>
      <trkpt lat="47.76468" lon="2.18527">
        <ele>144</ele>
        <time>2017-01-15T09:33:36.652Z</time>
      </trkpt>
      <trkpt lat="47.76468" lon="2.18527">
        <ele>144</ele>
        <time>2017-01-15T09:33:37.640Z</time>
      </trkpt>
      <trkpt lat="47.76476" lon="2.18514">
        <ele>143</ele>
        <time>2017-01-15T09:33:38.640Z</time>
      </trkpt>
      <trkpt lat="47.76476" lon="2.18514">
        <ele>143</ele>
        <time>2017-01-15T09:33:39.638Z</time>
      </trkpt>
      <trkpt lat="47.76484" lon="2.18503">
        <ele>142</ele>
        <time>2017-01-15T09:33:40.639Z</time>
      </trkpt>
      <trkpt lat="47.76484" lon="2.18503">
        <ele>142</ele>
        <time>2017-01-15T09:33:41.629Z</time>
      </trkpt>
      <trkpt lat="47.76492" lon="2.18492">
        <ele>141</ele>
        <time>2017-01-15T09:33:42.641Z</time>
      </trkpt>
      <trkpt lat="47.76492" lon="2.18492">
        <ele>141</ele>
        <time>2017-01-15T09:33:43.630Z</time>
      </trkpt>
      <trkpt lat="47.76501" lon="2.1848">
        <ele>141</ele>
        <time>2017-01-15T09:33:44.637Z</time>
      </trkpt>
      <trkpt lat="47.76501" lon="2.1848">
        <ele>141</ele>
        <time>2017-01-15T09:33:45.630Z</time>
      </trkpt>
      <trkpt lat="47.76508" lon="2.18467">
        <ele>141</ele>
        <time>2017-01-15T09:33:46.639Z</time>
      </trkpt>
      <trkpt lat="47.76513" lon="2.1846">
        <ele>140</ele>
        <time>2017-01-15T09:33:47.640Z</time>
      </trkpt>
      <trkpt lat="47.76513" lon="2.1846">
        <ele>140</ele>
        <time>2017-01-15T09:33:48.637Z</time>
      </trkpt>
      <trkpt lat="47.76522" lon="2.18447">
        <ele>140</ele>
        <time>2017-01-15T09:33:49.639Z</time>
      </trkpt>
      <trkpt lat="47.76527" lon="2.18441">
        <ele>140</ele>
        <time>2017-01-15T09:33:50.641Z</time>
      </trkpt>
      <trkpt lat="47.76527" lon="2.18441">
        <ele>140</ele>
        <time>2017-01-15T09:33:51.646Z</time>
      </trkpt>
      <trkpt lat="47.76536" lon="2.18427">
        <ele>139</ele>
        <time>2017-01-15T09:33:52.636Z</time>
      </trkpt>
      <trkpt lat="47.76536" lon="2.18427">
        <ele>139</ele>
        <time>2017-01-15T09:33:53.637Z</time>
      </trkpt>
      <trkpt lat="47.76544" lon="2.18415">
        <ele>138</ele>
        <time>2017-01-15T09:33:54.637Z</time>
      </trkpt>
      <trkpt lat="47.76544" lon="2.18415">
        <ele>138</ele>
        <time>2017-01-15T09:33:55.632Z</time>
      </trkpt>
      <trkpt lat="47.76552" lon="2.18403">
        <ele>139</ele>
        <time>2017-01-15T09:33:56.649Z</time>
      </trkpt>
      <trkpt lat="47.76552" lon="2.18403">
        <ele>139</ele>
        <time>2017-01-15T09:33:57.637Z</time>
      </trkpt>
      <trkpt lat="47.76559" lon="2.1839">
        <ele>139</ele>
        <time>2017-01-15T09:33:58.641Z</time>
      </trkpt>
      <trkpt lat="47.76559" lon="2.1839">
        <ele>139</ele>
        <time>2017-01-15T09:33:59.629Z</time>
      </trkpt>
      <trkpt lat="47.76567" lon="2.18378">
        <ele>138</ele>
        <time>2017-01-15T09:34:00.640Z</time>
      </trkpt>
      <trkpt lat="47.76567" lon="2.18378">
        <ele>138</ele>
        <time>2017-01-15T09:34:01.637Z</time>
      </trkpt>
      <trkpt lat="47.76575" lon="2.18367">
        <ele>139</ele>
        <time>2017-01-15T09:34:02.642Z</time>
      </trkpt>
      <trkpt lat="47.76575" lon="2.18367">
        <ele>139</ele>
        <time>2017-01-15T09:34:03.667Z</time>
      </trkpt>
      <trkpt lat="47.76584" lon="2.18355">
        <ele>139</ele>
        <time>2017-01-15T09:34:04.636Z</time>
      </trkpt>
      <trkpt lat="47.76588" lon="2.1835">
        <ele>139</ele>
        <time>2017-01-15T09:34:05.641Z</time>
      </trkpt>
      <trkpt lat="47.76588" lon="2.1835">
        <ele>139</ele>
        <time>2017-01-15T09:34:06.629Z</time>
      </trkpt>
      <trkpt lat="47.76597" lon="2.18337">
        <ele>139</ele>
        <time>2017-01-15T09:34:07.640Z</time>
      </trkpt>
      <trkpt lat="47.76597" lon="2.18337">
        <ele>139</ele>
        <time>2017-01-15T09:34:08.630Z</time>
      </trkpt>
      <trkpt lat="47.76605" lon="2.18324">
        <ele>138</ele>
        <time>2017-01-15T09:34:09.636Z</time>
      </trkpt>
      <trkpt lat="47.76608" lon="2.18316">
        <ele>138</ele>
        <time>2017-01-15T09:34:10.640Z</time>
      </trkpt>
      <trkpt lat="47.76608" lon="2.18316">
        <ele>138</ele>
        <time>2017-01-15T09:34:11.629Z</time>
      </trkpt>
      <trkpt lat="47.76614" lon="2.183">
        <ele>138</ele>
        <time>2017-01-15T09:34:12.641Z</time>
      </trkpt>
      <trkpt lat="47.76614" lon="2.183">
        <ele>138</ele>
        <time>2017-01-15T09:34:13.646Z</time>
      </trkpt>
      <trkpt lat="47.76617" lon="2.18283">
        <ele>138</ele>
        <time>2017-01-15T09:34:14.636Z</time>
      </trkpt>
      <trkpt lat="47.76617" lon="2.18283">
        <ele>138</ele>
        <time>2017-01-15T09:34:15.635Z</time>
      </trkpt>
      <trkpt lat="47.7662" lon="2.18266">
        <ele>137</ele>
        <time>2017-01-15T09:34:16.641Z</time>
      </trkpt>
      <trkpt lat="47.76621" lon="2.18257">
        <ele>137</ele>
        <time>2017-01-15T09:34:17.648Z</time>
      </trkpt>
      <trkpt lat="47.76622" lon="2.18248">
        <ele>137</ele>
        <time>2017-01-15T09:34:18.638Z</time>
      </trkpt>
      <trkpt lat="47.76622" lon="2.18248">
        <ele>137</ele>
        <time>2017-01-15T09:34:19.629Z</time>
      </trkpt>
      <trkpt lat="47.76625" lon="2.18229">
        <ele>137</ele>
        <time>2017-01-15T09:34:20.641Z</time>
      </trkpt>
      <trkpt lat="47.76625" lon="2.18229">
        <ele>137</ele>
        <time>2017-01-15T09:34:21.632Z</time>
      </trkpt>
      <trkpt lat="47.76626" lon="2.18212">
        <ele>138</ele>
        <time>2017-01-15T09:34:22.638Z</time>
      </trkpt>
      <trkpt lat="47.76627" lon="2.18203">
        <ele>138</ele>
        <time>2017-01-15T09:34:23.661Z</time>
      </trkpt>
      <trkpt lat="47.76627" lon="2.18203">
        <ele>138</ele>
        <time>2017-01-15T09:34:24.650Z</time>
      </trkpt>
      <trkpt lat="47.76629" lon="2.18186">
        <ele>138</ele>
        <time>2017-01-15T09:34:25.642Z</time>
      </trkpt>
      <trkpt lat="47.7663" lon="2.18178">
        <ele>138</ele>
        <time>2017-01-15T09:34:26.637Z</time>
      </trkpt>
      <trkpt lat="47.7663" lon="2.18178">
        <ele>138</ele>
        <time>2017-01-15T09:34:27.637Z</time>
      </trkpt>
      <trkpt lat="47.76636" lon="2.18164">
        <ele>138</ele>
        <time>2017-01-15T09:34:28.640Z</time>
      </trkpt>
      <trkpt lat="47.76636" lon="2.18164">
        <ele>138</ele>
        <time>2017-01-15T09:34:29.630Z</time>
      </trkpt>
      <trkpt lat="47.76644" lon="2.1815">
        <ele>138</ele>
        <time>2017-01-15T09:34:30.639Z</time>
      </trkpt>
      <trkpt lat="47.76644" lon="2.1815">
        <ele>138</ele>
        <time>2017-01-15T09:34:31.646Z</time>
      </trkpt>
      <trkpt lat="47.76654" lon="2.18137">
        <ele>138</ele>
        <time>2017-01-15T09:34:32.643Z</time>
      </trkpt>
      <trkpt lat="47.76654" lon="2.18137">
        <ele>138</ele>
        <time>2017-01-15T09:34:33.639Z</time>
      </trkpt>
      <trkpt lat="47.76665" lon="2.18124">
        <ele>139</ele>
        <time>2017-01-15T09:34:34.641Z</time>
      </trkpt>
      <trkpt lat="47.76665" lon="2.18124">
        <ele>139</ele>
        <time>2017-01-15T09:34:35.632Z</time>
      </trkpt>
      <trkpt lat="47.76675" lon="2.18111">
        <ele>140</ele>
        <time>2017-01-15T09:34:36.637Z</time>
      </trkpt>
      <trkpt lat="47.76681" lon="2.18105">
        <ele>139</ele>
        <time>2017-01-15T09:34:37.640Z</time>
      </trkpt>
      <trkpt lat="47.76681" lon="2.18105">
        <ele>139</ele>
        <time>2017-01-15T09:34:38.638Z</time>
      </trkpt>
      <trkpt lat="47.76691" lon="2.18092">
        <ele>139</ele>
        <time>2017-01-15T09:34:39.662Z</time>
      </trkpt>
      <trkpt lat="47.76691" lon="2.18092">
        <ele>139</ele>
        <time>2017-01-15T09:34:40.650Z</time>
      </trkpt>
      <trkpt lat="47.767" lon="2.18079">
        <ele>139</ele>
        <time>2017-01-15T09:34:41.642Z</time>
      </trkpt>
      <trkpt lat="47.76705" lon="2.18073">
        <ele>139</ele>
        <time>2017-01-15T09:34:42.642Z</time>
      </trkpt>
      <trkpt lat="47.76705" lon="2.18073">
        <ele>139</ele>
        <time>2017-01-15T09:34:43.637Z</time>
      </trkpt>
      <trkpt lat="47.76714" lon="2.1806">
        <ele>139</ele>
        <time>2017-01-15T09:34:44.642Z</time>
      </trkpt>
      <trkpt lat="47.76714" lon="2.1806">
        <ele>139</ele>
        <time>2017-01-15T09:34:45.641Z</time>
      </trkpt>
      <trkpt lat="47.76722" lon="2.18048">
        <ele>139</ele>
        <time>2017-01-15T09:34:46.638Z</time>
      </trkpt>
      <trkpt lat="47.76722" lon="2.18048">
        <ele>139</ele>
        <time>2017-01-15T09:34:47.630Z</time>
      </trkpt>
      <trkpt lat="47.76729" lon="2.18037">
        <ele>138</ele>
        <time>2017-01-15T09:34:48.638Z</time>
      </trkpt>
      <trkpt lat="47.76732" lon="2.18031">
        <ele>138</ele>
        <time>2017-01-15T09:34:49.636Z</time>
      </trkpt>
      <trkpt lat="47.76735" lon="2.18025">
        <ele>138</ele>
        <time>2017-01-15T09:34:50.640Z</time>
      </trkpt>
      <trkpt lat="47.76735" lon="2.18025">
        <ele>138</ele>
        <time>2017-01-15T09:34:51.629Z</time>
      </trkpt>
      <trkpt lat="47.76744" lon="2.18015">
        <ele>138</ele>
        <time>2017-01-15T09:34:52.639Z</time>
      </trkpt>
      <trkpt lat="47.76744" lon="2.18015">
        <ele>138</ele>
        <time>2017-01-15T09:34:53.637Z</time>
      </trkpt>
      <trkpt lat="47.76752" lon="2.18005">
        <ele>138</ele>
        <time>2017-01-15T09:34:54.637Z</time>
      </trkpt>
      <trkpt lat="47.76752" lon="2.18005">
        <ele>138</ele>
        <time>2017-01-15T09:34:55.633Z</time>
      </trkpt>
      <trkpt lat="47.76761" lon="2.17995">
        <ele>138</ele>
        <time>2017-01-15T09:34:56.639Z</time>
      </trkpt>
      <trkpt lat="47.76761" lon="2.17995">
        <ele>138</ele>
        <time>2017-01-15T09:34:57.628Z</time>
      </trkpt>
      <trkpt lat="47.76768" lon="2.17985">
        <ele>138</ele>
        <time>2017-01-15T09:34:58.641Z</time>
      </trkpt>
      <trkpt lat="47.76768" lon="2.17985">
        <ele>138</ele>
        <time>2017-01-15T09:34:59.643Z</time>
      </trkpt>
      <trkpt lat="47.76777" lon="2.17976">
        <ele>138</ele>
        <time>2017-01-15T09:35:00.638Z</time>
      </trkpt>
      <trkpt lat="47.76777" lon="2.17976">
        <ele>138</ele>
        <time>2017-01-15T09:35:01.630Z</time>
      </trkpt>
      <trkpt lat="47.76785" lon="2.17968">
        <ele>138</ele>
        <time>2017-01-15T09:35:02.639Z</time>
      </trkpt>
      <trkpt lat="47.76785" lon="2.17968">
        <ele>138</ele>
        <time>2017-01-15T09:35:03.632Z</time>
      </trkpt>
      <trkpt lat="47.76792" lon="2.17961">
        <ele>138</ele>
        <time>2017-01-15T09:35:04.637Z</time>
      </trkpt>
      <trkpt lat="47.76796" lon="2.1796">
        <ele>138</ele>
        <time>2017-01-15T09:35:05.649Z</time>
      </trkpt>
      <trkpt lat="47.76796" lon="2.1796">
        <ele>138</ele>
        <time>2017-01-15T09:35:06.654Z</time>
      </trkpt>
      <trkpt lat="47.76805" lon="2.17955">
        <ele>139</ele>
        <time>2017-01-15T09:35:07.642Z</time>
      </trkpt>
      <trkpt lat="47.7681" lon="2.17953">
        <ele>139</ele>
        <time>2017-01-15T09:35:08.642Z</time>
      </trkpt>
      <trkpt lat="47.7681" lon="2.17953">
        <ele>139</ele>
        <time>2017-01-15T09:35:09.630Z</time>
      </trkpt>
      <trkpt lat="47.76818" lon="2.17948">
        <ele>140</ele>
        <time>2017-01-15T09:35:10.640Z</time>
      </trkpt>
      <trkpt lat="47.76821" lon="2.17946">
        <ele>141</ele>
        <time>2017-01-15T09:35:11.643Z</time>
      </trkpt>
      <trkpt lat="47.76821" lon="2.17946">
        <ele>141</ele>
        <time>2017-01-15T09:35:12.633Z</time>
      </trkpt>
      <trkpt lat="47.7683" lon="2.1794">
        <ele>143</ele>
        <time>2017-01-15T09:35:13.639Z</time>
      </trkpt>
      <trkpt lat="47.76834" lon="2.17937">
        <ele>143</ele>
        <time>2017-01-15T09:35:14.665Z</time>
      </trkpt>
      <trkpt lat="47.76834" lon="2.17937">
        <ele>143</ele>
        <time>2017-01-15T09:35:15.634Z</time>
      </trkpt>
      <trkpt lat="47.76846" lon="2.17932">
        <ele>144</ele>
        <time>2017-01-15T09:35:16.640Z</time>
      </trkpt>
      <trkpt lat="47.76851" lon="2.17929">
        <ele>145</ele>
        <time>2017-01-15T09:35:17.641Z</time>
      </trkpt>
      <trkpt lat="47.76851" lon="2.17929">
        <ele>145</ele>
        <time>2017-01-15T09:35:18.637Z</time>
      </trkpt>
      <trkpt lat="47.76862" lon="2.17921">
        <ele>144</ele>
        <time>2017-01-15T09:35:19.642Z</time>
      </trkpt>
      <trkpt lat="47.76868" lon="2.17918">
        <ele>144</ele>
        <time>2017-01-15T09:35:20.639Z</time>
      </trkpt>
      <trkpt lat="47.76868" lon="2.17918">
        <ele>144</ele>
        <time>2017-01-15T09:35:21.630Z</time>
      </trkpt>
      <trkpt lat="47.76879" lon="2.17909">
        <ele>144</ele>
        <time>2017-01-15T09:35:22.640Z</time>
      </trkpt>
      <trkpt lat="47.76879" lon="2.17909">
        <ele>144</ele>
        <time>2017-01-15T09:35:23.638Z</time>
      </trkpt>
      <trkpt lat="47.76888" lon="2.179">
        <ele>145</ele>
        <time>2017-01-15T09:35:24.637Z</time>
      </trkpt>
      <trkpt lat="47.76888" lon="2.179">
        <ele>145</ele>
        <time>2017-01-15T09:35:25.638Z</time>
      </trkpt>
      <trkpt lat="47.76896" lon="2.1789">
        <ele>146</ele>
        <time>2017-01-15T09:35:26.641Z</time>
      </trkpt>
      <trkpt lat="47.76896" lon="2.1789">
        <ele>146</ele>
        <time>2017-01-15T09:35:27.630Z</time>
      </trkpt>
      <trkpt lat="47.76904" lon="2.17881">
        <ele>147</ele>
        <time>2017-01-15T09:35:28.640Z</time>
      </trkpt>
      <trkpt lat="47.76908" lon="2.17875">
        <ele>147</ele>
        <time>2017-01-15T09:35:29.645Z</time>
      </trkpt>
      <trkpt lat="47.76908" lon="2.17875">
        <ele>147</ele>
        <time>2017-01-15T09:35:30.637Z</time>
      </trkpt>
      <trkpt lat="47.76919" lon="2.17866">
        <ele>147</ele>
        <time>2017-01-15T09:35:31.648Z</time>
      </trkpt>
      <trkpt lat="47.76925" lon="2.1786">
        <ele>147</ele>
        <time>2017-01-15T09:35:32.640Z</time>
      </trkpt>
      <trkpt lat="47.76925" lon="2.1786">
        <ele>147</ele>
        <time>2017-01-15T09:35:33.638Z</time>
      </trkpt>
      <trkpt lat="47.76937" lon="2.17848">
        <ele>147</ele>
        <time>2017-01-15T09:35:34.642Z</time>
      </trkpt>
      <trkpt lat="47.76937" lon="2.17848">
        <ele>147</ele>
        <time>2017-01-15T09:35:35.638Z</time>
      </trkpt>
      <trkpt lat="47.76946" lon="2.17837">
        <ele>148</ele>
        <time>2017-01-15T09:35:36.637Z</time>
      </trkpt>
      <trkpt lat="47.7695" lon="2.17831">
        <ele>148</ele>
        <time>2017-01-15T09:35:37.640Z</time>
      </trkpt>
      <trkpt lat="47.7695" lon="2.17831">
        <ele>148</ele>
        <time>2017-01-15T09:35:38.638Z</time>
      </trkpt>
      <trkpt lat="47.76961" lon="2.17821">
        <ele>148</ele>
        <time>2017-01-15T09:35:39.640Z</time>
      </trkpt>
      <trkpt lat="47.76961" lon="2.17821">
        <ele>148</ele>
        <time>2017-01-15T09:35:40.642Z</time>
      </trkpt>
      <trkpt lat="47.76972" lon="2.17813">
        <ele>148</ele>
        <time>2017-01-15T09:35:41.637Z</time>
      </trkpt>
      <trkpt lat="47.76972" lon="2.17813">
        <ele>148</ele>
        <time>2017-01-15T09:35:42.638Z</time>
      </trkpt>
      <trkpt lat="47.76982" lon="2.17807">
        <ele>148</ele>
        <time>2017-01-15T09:35:43.642Z</time>
      </trkpt>
      <trkpt lat="47.76988" lon="2.17804">
        <ele>148</ele>
        <time>2017-01-15T09:35:44.637Z</time>
      </trkpt>
      <trkpt lat="47.76988" lon="2.17804">
        <ele>148</ele>
        <time>2017-01-15T09:35:45.641Z</time>
      </trkpt>
      <trkpt lat="47.76999" lon="2.17799">
        <ele>148</ele>
        <time>2017-01-15T09:35:46.640Z</time>
      </trkpt>
      <trkpt lat="47.76999" lon="2.17799">
        <ele>148</ele>
        <time>2017-01-15T09:35:47.630Z</time>
      </trkpt>
      <trkpt lat="47.77011" lon="2.17794">
        <ele>149</ele>
        <time>2017-01-15T09:35:48.637Z</time>
      </trkpt>
      <trkpt lat="47.77011" lon="2.17794">
        <ele>149</ele>
        <time>2017-01-15T09:35:49.667Z</time>
      </trkpt>
      <trkpt lat="47.77023" lon="2.17788">
        <ele>149</ele>
        <time>2017-01-15T09:35:50.654Z</time>
      </trkpt>
      <trkpt lat="47.77023" lon="2.17788">
        <ele>149</ele>
        <time>2017-01-15T09:35:51.643Z</time>
      </trkpt>
      <trkpt lat="47.77035" lon="2.17782">
        <ele>151</ele>
        <time>2017-01-15T09:35:52.637Z</time>
      </trkpt>
      <trkpt lat="47.77041" lon="2.17779">
        <ele>151</ele>
        <time>2017-01-15T09:35:53.641Z</time>
      </trkpt>
      <trkpt lat="47.77041" lon="2.17779">
        <ele>151</ele>
        <time>2017-01-15T09:35:54.666Z</time>
      </trkpt>
      <trkpt lat="47.77052" lon="2.17773">
        <ele>152</ele>
        <time>2017-01-15T09:35:55.655Z</time>
      </trkpt>
      <trkpt lat="47.77052" lon="2.17773">
        <ele>152</ele>
        <time>2017-01-15T09:35:56.654Z</time>
      </trkpt>
      <trkpt lat="47.77063" lon="2.17767">
        <ele>153</ele>
        <time>2017-01-15T09:35:57.652Z</time>
      </trkpt>
      <trkpt lat="47.77063" lon="2.17767">
        <ele>153</ele>
        <time>2017-01-15T09:35:58.639Z</time>
      </trkpt>
      <trkpt lat="47.77074" lon="2.17762">
        <ele>154</ele>
        <time>2017-01-15T09:35:59.641Z</time>
      </trkpt>
      <trkpt lat="47.77074" lon="2.17762">
        <ele>154</ele>
        <time>2017-01-15T09:36:00.630Z</time>
      </trkpt>
      <trkpt lat="47.7709" lon="2.17753">
        <ele>152</ele>
        <time>2017-01-15T09:36:01.642Z</time>
      </trkpt>
      <trkpt lat="47.77097" lon="2.1775">
        <ele>152</ele>
        <time>2017-01-15T09:36:02.643Z</time>
      </trkpt>
      <trkpt lat="47.77097" lon="2.1775">
        <ele>152</ele>
        <time>2017-01-15T09:36:03.638Z</time>
      </trkpt>
      <trkpt lat="47.77106" lon="2.17746">
        <ele>151</ele>
        <time>2017-01-15T09:36:04.632Z</time>
      </trkpt>
      <trkpt lat="47.77111" lon="2.17744">
        <ele>150</ele>
        <time>2017-01-15T09:36:05.641Z</time>
      </trkpt>
      <trkpt lat="47.77111" lon="2.17744">
        <ele>150</ele>
        <time>2017-01-15T09:36:06.629Z</time>
      </trkpt>
      <trkpt lat="47.77119" lon="2.17741">
        <ele>149</ele>
        <time>2017-01-15T09:36:07.632Z</time>
      </trkpt>
      <trkpt lat="47.77121" lon="2.1774">
        <ele>148</ele>
        <time>2017-01-15T09:36:08.639Z</time>
      </trkpt>
      <trkpt lat="47.77124" lon="2.17739">
        <ele>147</ele>
        <time>2017-01-15T09:36:09.654Z</time>
      </trkpt>
      <trkpt lat="47.77124" lon="2.17739">
        <ele>147</ele>
        <time>2017-01-15T09:36:10.642Z</time>
      </trkpt>
      <trkpt lat="47.77127" lon="2.17738">
        <ele>146</ele>
        <time>2017-01-15T09:36:11.640Z</time>
      </trkpt>
      <trkpt lat="47.77127" lon="2.17738">
        <ele>146</ele>
        <time>2017-01-15T09:36:12.633Z</time>
      </trkpt>
      <trkpt lat="47.7713" lon="2.17737">
        <ele>145</ele>
        <time>2017-01-15T09:36:13.641Z</time>
      </trkpt>
      <trkpt lat="47.77132" lon="2.17737">
        <ele>144</ele>
        <time>2017-01-15T09:36:14.660Z</time>
      </trkpt>
      <trkpt lat="47.77132" lon="2.17737">
        <ele>144</ele>
        <time>2017-01-15T09:36:15.667Z</time>
      </trkpt>
      <trkpt lat="47.77135" lon="2.17736">
        <ele>143</ele>
        <time>2017-01-15T09:36:16.633Z</time>
      </trkpt>
      <trkpt lat="47.77135" lon="2.17736">
        <ele>143</ele>
        <time>2017-01-15T09:36:17.666Z</time>
      </trkpt>
      <trkpt lat="47.77135" lon="2.17736">
        <ele>143</ele>
        <time>2017-01-15T09:36:18.654Z</time>
      </trkpt>
      <trkpt lat="47.77135" lon="2.17736">
        <ele>143</ele>
        <time>2017-01-15T09:36:19.636Z</time>
      </trkpt>
      <trkpt lat="47.77135" lon="2.17736">
        <ele>143</ele>
        <time>2017-01-15T09:36:20.663Z</time>
      </trkpt>
      <trkpt lat="47.77141" lon="2.17732">
        <ele>136</ele>
        <time>2017-01-15T09:36:21.656Z</time>
      </trkpt>
      <trkpt lat="47.77143" lon="2.17731">
        <ele>136</ele>
        <time>2017-01-15T09:36:22.660Z</time>
      </trkpt>
      <trkpt lat="47.77146" lon="2.1773">
        <ele>136</ele>
        <time>2017-01-15T09:36:23.655Z</time>
      </trkpt>
      <trkpt lat="47.77146" lon="2.1773">
        <ele>136</ele>
        <time>2017-01-15T09:36:24.643Z</time>
      </trkpt>
      <trkpt lat="47.77152" lon="2.17728">
        <ele>136</ele>
        <time>2017-01-15T09:36:25.653Z</time>
      </trkpt>
      <trkpt lat="47.77152" lon="2.17728">
        <ele>136</ele>
        <time>2017-01-15T09:36:26.644Z</time>
      </trkpt>
      <trkpt lat="47.77159" lon="2.17726">
        <ele>136</ele>
        <time>2017-01-15T09:36:27.643Z</time>
      </trkpt>
      <trkpt lat="47.77163" lon="2.17725">
        <ele>136</ele>
        <time>2017-01-15T09:36:28.650Z</time>
      </trkpt>
      <trkpt lat="47.77163" lon="2.17725">
        <ele>136</ele>
        <time>2017-01-15T09:36:29.650Z</time>
      </trkpt>
      <trkpt lat="47.77172" lon="2.17721">
        <ele>136</ele>
        <time>2017-01-15T09:36:30.641Z</time>
      </trkpt>
      <trkpt lat="47.77176" lon="2.1772">
        <ele>136</ele>
        <time>2017-01-15T09:36:31.644Z</time>
      </trkpt>
      <trkpt lat="47.77181" lon="2.17718">
        <ele>136</ele>
        <time>2017-01-15T09:36:32.639Z</time>
      </trkpt>
      <trkpt lat="47.77181" lon="2.17718">
        <ele>136</ele>
        <time>2017-01-15T09:36:33.667Z</time>
      </trkpt>
      <trkpt lat="47.7719" lon="2.17714">
        <ele>137</ele>
        <time>2017-01-15T09:36:34.655Z</time>
      </trkpt>
      <trkpt lat="47.7719" lon="2.17714">
        <ele>137</ele>
        <time>2017-01-15T09:36:35.651Z</time>
      </trkpt>
      <trkpt lat="47.77198" lon="2.1771">
        <ele>139</ele>
        <time>2017-01-15T09:36:36.645Z</time>
      </trkpt>
      <trkpt lat="47.77203" lon="2.17708">
        <ele>140</ele>
        <time>2017-01-15T09:36:37.651Z</time>
      </trkpt>
      <trkpt lat="47.77203" lon="2.17708">
        <ele>140</ele>
        <time>2017-01-15T09:36:38.639Z</time>
      </trkpt>
      <trkpt lat="47.77213" lon="2.17705">
        <ele>140</ele>
        <time>2017-01-15T09:36:39.651Z</time>
      </trkpt>
      <trkpt lat="47.77213" lon="2.17705">
        <ele>140</ele>
        <time>2017-01-15T09:36:40.643Z</time>
      </trkpt>
      <trkpt lat="47.77222" lon="2.17701">
        <ele>140</ele>
        <time>2017-01-15T09:36:41.650Z</time>
      </trkpt>
      <trkpt lat="47.77227" lon="2.17699">
        <ele>141</ele>
        <time>2017-01-15T09:36:42.643Z</time>
      </trkpt>
      <trkpt lat="47.77232" lon="2.17697">
        <ele>141</ele>
        <time>2017-01-15T09:36:43.652Z</time>
      </trkpt>
      <trkpt lat="47.77232" lon="2.17697">
        <ele>141</ele>
        <time>2017-01-15T09:36:44.640Z</time>
      </trkpt>
      <trkpt lat="47.77241" lon="2.17694">
        <ele>141</ele>
        <time>2017-01-15T09:36:45.643Z</time>
      </trkpt>
      <trkpt lat="47.77246" lon="2.17692">
        <ele>142</ele>
        <time>2017-01-15T09:36:46.634Z</time>
      </trkpt>
      <trkpt lat="47.77246" lon="2.17692">
        <ele>142</ele>
        <time>2017-01-15T09:36:47.661Z</time>
      </trkpt>
      <trkpt lat="47.77254" lon="2.17689">
        <ele>142</ele>
        <time>2017-01-15T09:36:48.653Z</time>
      </trkpt>
      <trkpt lat="47.77254" lon="2.17689">
        <ele>142</ele>
        <time>2017-01-15T09:36:49.643Z</time>
      </trkpt>
      <trkpt lat="47.77264" lon="2.17686">
        <ele>142</ele>
        <time>2017-01-15T09:36:50.653Z</time>
      </trkpt>
      <trkpt lat="47.77264" lon="2.17686">
        <ele>142</ele>
        <time>2017-01-15T09:36:51.650Z</time>
      </trkpt>
      <trkpt lat="47.77275" lon="2.17682">
        <ele>141</ele>
        <time>2017-01-15T09:36:52.663Z</time>
      </trkpt>
      <trkpt lat="47.7728" lon="2.1768">
        <ele>141</ele>
        <time>2017-01-15T09:36:53.653Z</time>
      </trkpt>
      <trkpt lat="47.7728" lon="2.1768">
        <ele>141</ele>
        <time>2017-01-15T09:36:54.641Z</time>
      </trkpt>
      <trkpt lat="47.77291" lon="2.17676">
        <ele>140</ele>
        <time>2017-01-15T09:36:55.652Z</time>
      </trkpt>
      <trkpt lat="47.77291" lon="2.17676">
        <ele>140</ele>
        <time>2017-01-15T09:36:56.647Z</time>
      </trkpt>
      <trkpt lat="47.77301" lon="2.17672">
        <ele>140</ele>
        <time>2017-01-15T09:36:57.643Z</time>
      </trkpt>
      <trkpt lat="47.77301" lon="2.17672">
        <ele>140</ele>
        <time>2017-01-15T09:36:58.649Z</time>
      </trkpt>
      <trkpt lat="47.77312" lon="2.17668">
        <ele>140</ele>
        <time>2017-01-15T09:36:59.650Z</time>
      </trkpt>
      <trkpt lat="47.77312" lon="2.17668">
        <ele>140</ele>
        <time>2017-01-15T09:37:00.643Z</time>
      </trkpt>
      <trkpt lat="47.77323" lon="2.17664">
        <ele>140</ele>
        <time>2017-01-15T09:37:01.649Z</time>
      </trkpt>
      <trkpt lat="47.77328" lon="2.17662">
        <ele>140</ele>
        <time>2017-01-15T09:37:02.653Z</time>
      </trkpt>
      <trkpt lat="47.77328" lon="2.17662">
        <ele>140</ele>
        <time>2017-01-15T09:37:03.645Z</time>
      </trkpt>
      <trkpt lat="47.77338" lon="2.17658">
        <ele>140</ele>
        <time>2017-01-15T09:37:04.652Z</time>
      </trkpt>
      <trkpt lat="47.77338" lon="2.17658">
        <ele>140</ele>
        <time>2017-01-15T09:37:05.643Z</time>
      </trkpt>
      <trkpt lat="47.77349" lon="2.17653">
        <ele>140</ele>
        <time>2017-01-15T09:37:06.652Z</time>
      </trkpt>
      <trkpt lat="47.77349" lon="2.17653">
        <ele>140</ele>
        <time>2017-01-15T09:37:07.641Z</time>
      </trkpt>
      <trkpt lat="47.7736" lon="2.17647">
        <ele>140</ele>
        <time>2017-01-15T09:37:08.653Z</time>
      </trkpt>
      <trkpt lat="47.77365" lon="2.17644">
        <ele>139</ele>
        <time>2017-01-15T09:37:09.643Z</time>
      </trkpt>
      <trkpt lat="47.77365" lon="2.17644">
        <ele>139</ele>
        <time>2017-01-15T09:37:10.637Z</time>
      </trkpt>
      <trkpt lat="47.77376" lon="2.17639">
        <ele>139</ele>
        <time>2017-01-15T09:37:11.664Z</time>
      </trkpt>
      <trkpt lat="47.77376" lon="2.17639">
        <ele>139</ele>
        <time>2017-01-15T09:37:12.652Z</time>
      </trkpt>
      <trkpt lat="47.77384" lon="2.17633">
        <ele>140</ele>
        <time>2017-01-15T09:37:13.649Z</time>
      </trkpt>
      <trkpt lat="47.77384" lon="2.17633">
        <ele>140</ele>
        <time>2017-01-15T09:37:14.648Z</time>
      </trkpt>
      <trkpt lat="47.77394" lon="2.17629">
        <ele>140</ele>
        <time>2017-01-15T09:37:15.647Z</time>
      </trkpt>
      <trkpt lat="47.774" lon="2.17627">
        <ele>140</ele>
        <time>2017-01-15T09:37:16.653Z</time>
      </trkpt>
      <trkpt lat="47.774" lon="2.17627">
        <ele>140</ele>
        <time>2017-01-15T09:37:17.658Z</time>
      </trkpt>
      <trkpt lat="47.77409" lon="2.17623">
        <ele>141</ele>
        <time>2017-01-15T09:37:18.651Z</time>
      </trkpt>
      <trkpt lat="47.77409" lon="2.17623">
        <ele>141</ele>
        <time>2017-01-15T09:37:19.649Z</time>
      </trkpt>
      <trkpt lat="47.77419" lon="2.17618">
        <ele>140</ele>
        <time>2017-01-15T09:37:20.652Z</time>
      </trkpt>
      <trkpt lat="47.77419" lon="2.17618">
        <ele>140</ele>
        <time>2017-01-15T09:37:21.649Z</time>
      </trkpt>
      <trkpt lat="47.77428" lon="2.17614">
        <ele>140</ele>
        <time>2017-01-15T09:37:22.647Z</time>
      </trkpt>
      <trkpt lat="47.77428" lon="2.17614">
        <ele>140</ele>
        <time>2017-01-15T09:37:23.651Z</time>
      </trkpt>
      <trkpt lat="47.77437" lon="2.17609">
        <ele>141</ele>
        <time>2017-01-15T09:37:24.651Z</time>
      </trkpt>
      <trkpt lat="47.77437" lon="2.17609">
        <ele>141</ele>
        <time>2017-01-15T09:37:25.643Z</time>
      </trkpt>
      <trkpt lat="47.77445" lon="2.17605">
        <ele>141</ele>
        <time>2017-01-15T09:37:26.652Z</time>
      </trkpt>
      <trkpt lat="47.77445" lon="2.17605">
        <ele>141</ele>
        <time>2017-01-15T09:37:27.640Z</time>
      </trkpt>
      <trkpt lat="47.77453" lon="2.17603">
        <ele>141</ele>
        <time>2017-01-15T09:37:28.651Z</time>
      </trkpt>
      <trkpt lat="47.77453" lon="2.17603">
        <ele>141</ele>
        <time>2017-01-15T09:37:29.651Z</time>
      </trkpt>
      <trkpt lat="47.77461" lon="2.17599">
        <ele>142</ele>
        <time>2017-01-15T09:37:30.650Z</time>
      </trkpt>
      <trkpt lat="47.77461" lon="2.17599">
        <ele>142</ele>
        <time>2017-01-15T09:37:31.638Z</time>
      </trkpt>
      <trkpt lat="47.77469" lon="2.17596">
        <ele>143</ele>
        <time>2017-01-15T09:37:32.667Z</time>
      </trkpt>
      <trkpt lat="47.77469" lon="2.17596">
        <ele>143</ele>
        <time>2017-01-15T09:37:33.654Z</time>
      </trkpt>
      <trkpt lat="47.77477" lon="2.17592">
        <ele>144</ele>
        <time>2017-01-15T09:37:34.650Z</time>
      </trkpt>
      <trkpt lat="47.7748" lon="2.1759">
        <ele>145</ele>
        <time>2017-01-15T09:37:35.645Z</time>
      </trkpt>
      <trkpt lat="47.7748" lon="2.1759">
        <ele>145</ele>
        <time>2017-01-15T09:37:36.647Z</time>
      </trkpt>
      <trkpt lat="47.77489" lon="2.17586">
        <ele>145</ele>
        <time>2017-01-15T09:37:37.653Z</time>
      </trkpt>
      <trkpt lat="47.77493" lon="2.17585">
        <ele>145</ele>
        <time>2017-01-15T09:37:38.653Z</time>
      </trkpt>
      <trkpt lat="47.77493" lon="2.17585">
        <ele>145</ele>
        <time>2017-01-15T09:37:39.649Z</time>
      </trkpt>
      <trkpt lat="47.77501" lon="2.1758">
        <ele>147</ele>
        <time>2017-01-15T09:37:40.650Z</time>
      </trkpt>
      <trkpt lat="47.77507" lon="2.17577">
        <ele>147</ele>
        <time>2017-01-15T09:37:41.640Z</time>
      </trkpt>
      <trkpt lat="47.77507" lon="2.17577">
        <ele>147</ele>
        <time>2017-01-15T09:37:42.634Z</time>
      </trkpt>
      <trkpt lat="47.77518" lon="2.17572">
        <ele>148</ele>
        <time>2017-01-15T09:37:43.663Z</time>
      </trkpt>
      <trkpt lat="47.77518" lon="2.17572">
        <ele>148</ele>
        <time>2017-01-15T09:37:44.651Z</time>
      </trkpt>
      <trkpt lat="47.77529" lon="2.17568">
        <ele>149</ele>
        <time>2017-01-15T09:37:45.646Z</time>
      </trkpt>
      <trkpt lat="47.77533" lon="2.17566">
        <ele>150</ele>
        <time>2017-01-15T09:37:46.650Z</time>
      </trkpt>
      <trkpt lat="47.77533" lon="2.17566">
        <ele>150</ele>
        <time>2017-01-15T09:37:47.643Z</time>
      </trkpt>
      <trkpt lat="47.77544" lon="2.17559">
        <ele>151</ele>
        <time>2017-01-15T09:37:48.651Z</time>
      </trkpt>
      <trkpt lat="47.77544" lon="2.17559">
        <ele>151</ele>
        <time>2017-01-15T09:37:49.649Z</time>
      </trkpt>
      <trkpt lat="47.77553" lon="2.17553">
        <ele>152</ele>
        <time>2017-01-15T09:37:50.653Z</time>
      </trkpt>
      <trkpt lat="47.77553" lon="2.17553">
        <ele>152</ele>
        <time>2017-01-15T09:37:51.642Z</time>
      </trkpt>
      <trkpt lat="47.77563" lon="2.17549">
        <ele>153</ele>
        <time>2017-01-15T09:37:52.649Z</time>
      </trkpt>
      <trkpt lat="47.77568" lon="2.17547">
        <ele>154</ele>
        <time>2017-01-15T09:37:53.650Z</time>
      </trkpt>
      <trkpt lat="47.77568" lon="2.17547">
        <ele>154</ele>
        <time>2017-01-15T09:37:54.640Z</time>
      </trkpt>
      <trkpt lat="47.77578" lon="2.17542">
        <ele>154</ele>
        <time>2017-01-15T09:37:55.667Z</time>
      </trkpt>
      <trkpt lat="47.77582" lon="2.1754">
        <ele>155</ele>
        <time>2017-01-15T09:37:56.654Z</time>
      </trkpt>
      <trkpt lat="47.77587" lon="2.17537">
        <ele>155</ele>
        <time>2017-01-15T09:37:57.652Z</time>
      </trkpt>
      <trkpt lat="47.77592" lon="2.17535">
        <ele>155</ele>
        <time>2017-01-15T09:37:58.649Z</time>
      </trkpt>
      <trkpt lat="47.77596" lon="2.17533">
        <ele>156</ele>
        <time>2017-01-15T09:37:59.651Z</time>
      </trkpt>
      <trkpt lat="47.77596" lon="2.17533">
        <ele>156</ele>
        <time>2017-01-15T09:38:00.650Z</time>
      </trkpt>
      <trkpt lat="47.77606" lon="2.17527">
        <ele>155</ele>
        <time>2017-01-15T09:38:01.650Z</time>
      </trkpt>
      <trkpt lat="47.7761" lon="2.17526">
        <ele>156</ele>
        <time>2017-01-15T09:38:02.656Z</time>
      </trkpt>
      <trkpt lat="47.7761" lon="2.17526">
        <ele>156</ele>
        <time>2017-01-15T09:38:03.645Z</time>
      </trkpt>
      <trkpt lat="47.7762" lon="2.17522">
        <ele>156</ele>
        <time>2017-01-15T09:38:04.650Z</time>
      </trkpt>
      <trkpt lat="47.7762" lon="2.17522">
        <ele>156</ele>
        <time>2017-01-15T09:38:05.650Z</time>
      </trkpt>
      <trkpt lat="47.77628" lon="2.17518">
        <ele>157</ele>
        <time>2017-01-15T09:38:06.653Z</time>
      </trkpt>
      <trkpt lat="47.77628" lon="2.17518">
        <ele>157</ele>
        <time>2017-01-15T09:38:07.654Z</time>
      </trkpt>
      <trkpt lat="47.77638" lon="2.17513">
        <ele>158</ele>
        <time>2017-01-15T09:38:08.649Z</time>
      </trkpt>
      <trkpt lat="47.77642" lon="2.1751">
        <ele>158</ele>
        <time>2017-01-15T09:38:09.663Z</time>
      </trkpt>
      <trkpt lat="47.77642" lon="2.1751">
        <ele>158</ele>
        <time>2017-01-15T09:38:10.651Z</time>
      </trkpt>
      <trkpt lat="47.77652" lon="2.17505">
        <ele>159</ele>
        <time>2017-01-15T09:38:11.650Z</time>
      </trkpt>
      <trkpt lat="47.77658" lon="2.17502">
        <ele>160</ele>
        <time>2017-01-15T09:38:12.651Z</time>
      </trkpt>
      <trkpt lat="47.77658" lon="2.17502">
        <ele>160</ele>
        <time>2017-01-15T09:38:13.649Z</time>
      </trkpt>
      <trkpt lat="47.77668" lon="2.17496">
        <ele>160</ele>
        <time>2017-01-15T09:38:14.649Z</time>
      </trkpt>
      <trkpt lat="47.77668" lon="2.17496">
        <ele>160</ele>
        <time>2017-01-15T09:38:15.653Z</time>
      </trkpt>
      <trkpt lat="47.77678" lon="2.17492">
        <ele>161</ele>
        <time>2017-01-15T09:38:16.659Z</time>
      </trkpt>
      <trkpt lat="47.77678" lon="2.17492">
        <ele>161</ele>
        <time>2017-01-15T09:38:17.665Z</time>
      </trkpt>
      <trkpt lat="47.77687" lon="2.17487">
        <ele>162</ele>
        <time>2017-01-15T09:38:18.654Z</time>
      </trkpt>
      <trkpt lat="47.77691" lon="2.17484">
        <ele>162</ele>
        <time>2017-01-15T09:38:19.654Z</time>
      </trkpt>
      <trkpt lat="47.77696" lon="2.17482">
        <ele>162</ele>
        <time>2017-01-15T09:38:20.654Z</time>
      </trkpt>
      <trkpt lat="47.77696" lon="2.17482">
        <ele>162</ele>
        <time>2017-01-15T09:38:21.650Z</time>
      </trkpt>
      <trkpt lat="47.77705" lon="2.17477">
        <ele>162</ele>
        <time>2017-01-15T09:38:22.651Z</time>
      </trkpt>
      <trkpt lat="47.7771" lon="2.17474">
        <ele>162</ele>
        <time>2017-01-15T09:38:23.630Z</time>
      </trkpt>
      <trkpt lat="47.7771" lon="2.17474">
        <ele>162</ele>
        <time>2017-01-15T09:38:24.659Z</time>
      </trkpt>
      <trkpt lat="47.77719" lon="2.17469">
        <ele>161</ele>
        <time>2017-01-15T09:38:25.653Z</time>
      </trkpt>
      <trkpt lat="47.77724" lon="2.17468">
        <ele>161</ele>
        <time>2017-01-15T09:38:26.651Z</time>
      </trkpt>
      <trkpt lat="47.77724" lon="2.17468">
        <ele>161</ele>
        <time>2017-01-15T09:38:27.651Z</time>
      </trkpt>
      <trkpt lat="47.77733" lon="2.17465">
        <ele>161</ele>
        <time>2017-01-15T09:38:28.653Z</time>
      </trkpt>
      <trkpt lat="47.77733" lon="2.17465">
        <ele>161</ele>
        <time>2017-01-15T09:38:29.651Z</time>
      </trkpt>
      <trkpt lat="47.77742" lon="2.17461">
        <ele>162</ele>
        <time>2017-01-15T09:38:30.653Z</time>
      </trkpt>
      <trkpt lat="47.77746" lon="2.1746">
        <ele>162</ele>
        <time>2017-01-15T09:38:31.650Z</time>
      </trkpt>
      <trkpt lat="47.77746" lon="2.1746">
        <ele>162</ele>
        <time>2017-01-15T09:38:32.650Z</time>
      </trkpt>
      <trkpt lat="47.77756" lon="2.17456">
        <ele>162</ele>
        <time>2017-01-15T09:38:33.653Z</time>
      </trkpt>
      <trkpt lat="47.77756" lon="2.17456">
        <ele>162</ele>
        <time>2017-01-15T09:38:34.651Z</time>
      </trkpt>
      <trkpt lat="47.77764" lon="2.17451">
        <ele>163</ele>
        <time>2017-01-15T09:38:35.646Z</time>
      </trkpt>
      <trkpt lat="47.77764" lon="2.17451">
        <ele>163</ele>
        <time>2017-01-15T09:38:36.650Z</time>
      </trkpt>
      <trkpt lat="47.77772" lon="2.17448">
        <ele>163</ele>
        <time>2017-01-15T09:38:37.643Z</time>
      </trkpt>
      <trkpt lat="47.77776" lon="2.17447">
        <ele>164</ele>
        <time>2017-01-15T09:38:38.653Z</time>
      </trkpt>
      <trkpt lat="47.7778" lon="2.17446">
        <ele>165</ele>
        <time>2017-01-15T09:38:39.650Z</time>
      </trkpt>
      <trkpt lat="47.7778" lon="2.17446">
        <ele>165</ele>
        <time>2017-01-15T09:38:40.663Z</time>
      </trkpt>
      <trkpt lat="47.77788" lon="2.17443">
        <ele>165</ele>
        <time>2017-01-15T09:38:41.656Z</time>
      </trkpt>
      <trkpt lat="47.77788" lon="2.17443">
        <ele>165</ele>
        <time>2017-01-15T09:38:42.651Z</time>
      </trkpt>
      <trkpt lat="47.77798" lon="2.17437">
        <ele>167</ele>
        <time>2017-01-15T09:38:43.653Z</time>
      </trkpt>
      <trkpt lat="47.77803" lon="2.17435">
        <ele>167</ele>
        <time>2017-01-15T09:38:44.649Z</time>
      </trkpt>
      <trkpt lat="47.77803" lon="2.17435">
        <ele>167</ele>
        <time>2017-01-15T09:38:45.651Z</time>
      </trkpt>
      <trkpt lat="47.77814" lon="2.1743">
        <ele>167</ele>
        <time>2017-01-15T09:38:46.652Z</time>
      </trkpt>
      <trkpt lat="47.77814" lon="2.1743">
        <ele>167</ele>
        <time>2017-01-15T09:38:47.651Z</time>
      </trkpt>
      <trkpt lat="47.77823" lon="2.17426">
        <ele>167</ele>
        <time>2017-01-15T09:38:48.646Z</time>
      </trkpt>
      <trkpt lat="47.77823" lon="2.17426">
        <ele>167</ele>
        <time>2017-01-15T09:38:49.643Z</time>
      </trkpt>
      <trkpt lat="47.77831" lon="2.17423">
        <ele>168</ele>
        <time>2017-01-15T09:38:50.653Z</time>
      </trkpt>
      <trkpt lat="47.77831" lon="2.17423">
        <ele>168</ele>
        <time>2017-01-15T09:38:51.650Z</time>
      </trkpt>
      <trkpt lat="47.77842" lon="2.17418">
        <ele>167</ele>
        <time>2017-01-15T09:38:52.653Z</time>
      </trkpt>
      <trkpt lat="47.77842" lon="2.17418">
        <ele>167</ele>
        <time>2017-01-15T09:38:53.643Z</time>
      </trkpt>
      <trkpt lat="47.7785" lon="2.17415">
        <ele>168</ele>
        <time>2017-01-15T09:38:54.650Z</time>
      </trkpt>
      <trkpt lat="47.7785" lon="2.17415">
        <ele>168</ele>
        <time>2017-01-15T09:38:55.650Z</time>
      </trkpt>
      <trkpt lat="47.77858" lon="2.17408">
        <ele>168</ele>
        <time>2017-01-15T09:38:56.651Z</time>
      </trkpt>
      <trkpt lat="47.77858" lon="2.17408">
        <ele>168</ele>
        <time>2017-01-15T09:38:57.651Z</time>
      </trkpt>
      <trkpt lat="47.77865" lon="2.17404">
        <ele>169</ele>
        <time>2017-01-15T09:38:58.654Z</time>
      </trkpt>
      <trkpt lat="47.77865" lon="2.17404">
        <ele>169</ele>
        <time>2017-01-15T09:38:59.651Z</time>
      </trkpt>
      <trkpt lat="47.77871" lon="2.17401">
        <ele>170</ele>
        <time>2017-01-15T09:39:00.652Z</time>
      </trkpt>
      <trkpt lat="47.77871" lon="2.17401">
        <ele>170</ele>
        <time>2017-01-15T09:39:01.641Z</time>
      </trkpt>
      <trkpt lat="47.77878" lon="2.17398">
        <ele>171</ele>
        <time>2017-01-15T09:39:02.650Z</time>
      </trkpt>
      <trkpt lat="47.77881" lon="2.17396">
        <ele>171</ele>
        <time>2017-01-15T09:39:03.650Z</time>
      </trkpt>
      <trkpt lat="47.77885" lon="2.17394">
        <ele>172</ele>
        <time>2017-01-15T09:39:04.650Z</time>
      </trkpt>
      <trkpt lat="47.77885" lon="2.17394">
        <ele>172</ele>
        <time>2017-01-15T09:39:05.643Z</time>
      </trkpt>
      <trkpt lat="47.77892" lon="2.1739">
        <ele>173</ele>
        <time>2017-01-15T09:39:06.650Z</time>
      </trkpt>
      <trkpt lat="47.77892" lon="2.1739">
        <ele>173</ele>
        <time>2017-01-15T09:39:07.647Z</time>
      </trkpt>
      <trkpt lat="47.77902" lon="2.17383">
        <ele>173</ele>
        <time>2017-01-15T09:39:08.650Z</time>
      </trkpt>
      <trkpt lat="47.77906" lon="2.17381">
        <ele>173</ele>
        <time>2017-01-15T09:39:09.650Z</time>
      </trkpt>
      <trkpt lat="47.77906" lon="2.17381">
        <ele>173</ele>
        <time>2017-01-15T09:39:10.649Z</time>
      </trkpt>
      <trkpt lat="47.77915" lon="2.17375">
        <ele>174</ele>
        <time>2017-01-15T09:39:11.653Z</time>
      </trkpt>
      <trkpt lat="47.77918" lon="2.17372">
        <ele>174</ele>
        <time>2017-01-15T09:39:12.651Z</time>
      </trkpt>
      <trkpt lat="47.77918" lon="2.17372">
        <ele>174</ele>
        <time>2017-01-15T09:39:13.650Z</time>
      </trkpt>
      <trkpt lat="47.77927" lon="2.17366">
        <ele>175</ele>
        <time>2017-01-15T09:39:14.647Z</time>
      </trkpt>
      <trkpt lat="47.77927" lon="2.17366">
        <ele>175</ele>
        <time>2017-01-15T09:39:15.656Z</time>
      </trkpt>
      <trkpt lat="47.77937" lon="2.17359">
        <ele>176</ele>
        <time>2017-01-15T09:39:16.662Z</time>
      </trkpt>
      <trkpt lat="47.77942" lon="2.17355">
        <ele>176</ele>
        <time>2017-01-15T09:39:17.655Z</time>
      </trkpt>
      <trkpt lat="47.77942" lon="2.17355">
        <ele>176</ele>
        <time>2017-01-15T09:39:18.641Z</time>
      </trkpt>
      <trkpt lat="47.77949" lon="2.1735">
        <ele>177</ele>
        <time>2017-01-15T09:39:19.661Z</time>
      </trkpt>
      <trkpt lat="47.77952" lon="2.17347">
        <ele>178</ele>
        <time>2017-01-15T09:39:20.653Z</time>
      </trkpt>
      <trkpt lat="47.77956" lon="2.17345">
        <ele>178</ele>
        <time>2017-01-15T09:39:21.634Z</time>
      </trkpt>
      <trkpt lat="47.77956" lon="2.17345">
        <ele>178</ele>
        <time>2017-01-15T09:39:22.663Z</time>
      </trkpt>
      <trkpt lat="47.77964" lon="2.17341">
        <ele>178</ele>
        <time>2017-01-15T09:39:23.654Z</time>
      </trkpt>
      <trkpt lat="47.77968" lon="2.17338">
        <ele>178</ele>
        <time>2017-01-15T09:39:24.650Z</time>
      </trkpt>
      <trkpt lat="47.77972" lon="2.17335">
        <ele>179</ele>
        <time>2017-01-15T09:39:25.653Z</time>
      </trkpt>
      <trkpt lat="47.77972" lon="2.17335">
        <ele>179</ele>
        <time>2017-01-15T09:39:26.655Z</time>
      </trkpt>
      <trkpt lat="47.77978" lon="2.1733">
        <ele>179</ele>
        <time>2017-01-15T09:39:27.653Z</time>
      </trkpt>
      <trkpt lat="47.77978" lon="2.1733">
        <ele>179</ele>
        <time>2017-01-15T09:39:28.652Z</time>
      </trkpt>
      <trkpt lat="47.77983" lon="2.17329">
        <ele>180</ele>
        <time>2017-01-15T09:39:29.647Z</time>
      </trkpt>
      <trkpt lat="47.77986" lon="2.17327">
        <ele>180</ele>
        <time>2017-01-15T09:39:30.653Z</time>
      </trkpt>
      <trkpt lat="47.77986" lon="2.17327">
        <ele>180</ele>
        <time>2017-01-15T09:39:31.641Z</time>
      </trkpt>
      <trkpt lat="47.77992" lon="2.17322">
        <ele>181</ele>
        <time>2017-01-15T09:39:32.650Z</time>
      </trkpt>
      <trkpt lat="47.77992" lon="2.17322">
        <ele>181</ele>
        <time>2017-01-15T09:39:33.642Z</time>
      </trkpt>
      <trkpt lat="47.78002" lon="2.17316">
        <ele>181</ele>
        <time>2017-01-15T09:39:34.644Z</time>
      </trkpt>
      <trkpt lat="47.78007" lon="2.17312">
        <ele>181</ele>
        <time>2017-01-15T09:39:35.653Z</time>
      </trkpt>
      <trkpt lat="47.78007" lon="2.17312">
        <ele>181</ele>
        <time>2017-01-15T09:39:36.652Z</time>
      </trkpt>
      <trkpt lat="47.78014" lon="2.17307">
        <ele>181</ele>
        <time>2017-01-15T09:39:37.653Z</time>
      </trkpt>
      <trkpt lat="47.78018" lon="2.17305">
        <ele>182</ele>
        <time>2017-01-15T09:39:38.653Z</time>
      </trkpt>
      <trkpt lat="47.78018" lon="2.17305">
        <ele>182</ele>
        <time>2017-01-15T09:39:39.650Z</time>
      </trkpt>
      <trkpt lat="47.78027" lon="2.173">
        <ele>182</ele>
        <time>2017-01-15T09:39:40.646Z</time>
      </trkpt>
      <trkpt lat="47.78027" lon="2.173">
        <ele>182</ele>
        <time>2017-01-15T09:39:41.652Z</time>
      </trkpt>
      <trkpt lat="47.78036" lon="2.17295">
        <ele>182</ele>
        <time>2017-01-15T09:39:42.655Z</time>
      </trkpt>
      <trkpt lat="47.78036" lon="2.17295">
        <ele>182</ele>
        <time>2017-01-15T09:39:43.643Z</time>
      </trkpt>
      <trkpt lat="47.78043" lon="2.17291">
        <ele>182</ele>
        <time>2017-01-15T09:39:44.654Z</time>
      </trkpt>
      <trkpt lat="47.78043" lon="2.17291">
        <ele>182</ele>
        <time>2017-01-15T09:39:45.659Z</time>
      </trkpt>
      <trkpt lat="47.78053" lon="2.17284">
        <ele>183</ele>
        <time>2017-01-15T09:39:46.651Z</time>
      </trkpt>
      <trkpt lat="47.78053" lon="2.17284">
        <ele>183</ele>
        <time>2017-01-15T09:39:47.644Z</time>
      </trkpt>
      <trkpt lat="47.78064" lon="2.17277">
        <ele>183</ele>
        <time>2017-01-15T09:39:48.639Z</time>
      </trkpt>
      <trkpt lat="47.78064" lon="2.17277">
        <ele>183</ele>
        <time>2017-01-15T09:39:49.633Z</time>
      </trkpt>
      <trkpt lat="47.78073" lon="2.1727">
        <ele>184</ele>
        <time>2017-01-15T09:39:50.661Z</time>
      </trkpt>
      <trkpt lat="47.78073" lon="2.1727">
        <ele>184</ele>
        <time>2017-01-15T09:39:51.650Z</time>
      </trkpt>
      <trkpt lat="47.78082" lon="2.17265">
        <ele>184</ele>
        <time>2017-01-15T09:39:52.653Z</time>
      </trkpt>
      <trkpt lat="47.78082" lon="2.17265">
        <ele>184</ele>
        <time>2017-01-15T09:39:53.651Z</time>
      </trkpt>
      <trkpt lat="47.78091" lon="2.17259">
        <ele>183</ele>
        <time>2017-01-15T09:39:54.651Z</time>
      </trkpt>
      <trkpt lat="47.78091" lon="2.17259">
        <ele>183</ele>
        <time>2017-01-15T09:39:55.644Z</time>
      </trkpt>
      <trkpt lat="47.78098" lon="2.17253">
        <ele>183</ele>
        <time>2017-01-15T09:39:56.650Z</time>
      </trkpt>
      <trkpt lat="47.78102" lon="2.17249">
        <ele>183</ele>
        <time>2017-01-15T09:39:57.653Z</time>
      </trkpt>
      <trkpt lat="47.78102" lon="2.17249">
        <ele>183</ele>
        <time>2017-01-15T09:39:58.650Z</time>
      </trkpt>
      <trkpt lat="47.78109" lon="2.17243">
        <ele>182</ele>
        <time>2017-01-15T09:39:59.651Z</time>
      </trkpt>
      <trkpt lat="47.78109" lon="2.17243">
        <ele>182</ele>
        <time>2017-01-15T09:40:00.642Z</time>
      </trkpt>
      <trkpt lat="47.78116" lon="2.17238">
        <ele>182</ele>
        <time>2017-01-15T09:40:01.643Z</time>
      </trkpt>
      <trkpt lat="47.7812" lon="2.17235">
        <ele>182</ele>
        <time>2017-01-15T09:40:02.653Z</time>
      </trkpt>
      <trkpt lat="47.7812" lon="2.17235">
        <ele>182</ele>
        <time>2017-01-15T09:40:03.651Z</time>
      </trkpt>
      <trkpt lat="47.78128" lon="2.17229">
        <ele>182</ele>
        <time>2017-01-15T09:40:04.653Z</time>
      </trkpt>
      <trkpt lat="47.78128" lon="2.17229">
        <ele>182</ele>
        <time>2017-01-15T09:40:05.652Z</time>
      </trkpt>
      <trkpt lat="47.78136" lon="2.17224">
        <ele>182</ele>
        <time>2017-01-15T09:40:06.651Z</time>
      </trkpt>
      <trkpt lat="47.7814" lon="2.17222">
        <ele>182</ele>
        <time>2017-01-15T09:40:07.646Z</time>
      </trkpt>
      <trkpt lat="47.7814" lon="2.17222">
        <ele>182</ele>
        <time>2017-01-15T09:40:08.640Z</time>
      </trkpt>
      <trkpt lat="47.78153" lon="2.17215">
        <ele>178</ele>
        <time>2017-01-15T09:40:09.628Z</time>
      </trkpt>
      <trkpt lat="47.78157" lon="2.17212">
        <ele>178</ele>
        <time>2017-01-15T09:40:10.656Z</time>
      </trkpt>
      <trkpt lat="47.78157" lon="2.17212">
        <ele>178</ele>
        <time>2017-01-15T09:40:11.652Z</time>
      </trkpt>
      <trkpt lat="47.78163" lon="2.17207">
        <ele>178</ele>
        <time>2017-01-15T09:40:12.656Z</time>
      </trkpt>
      <trkpt lat="47.78167" lon="2.17205">
        <ele>178</ele>
        <time>2017-01-15T09:40:13.653Z</time>
      </trkpt>
      <trkpt lat="47.78167" lon="2.17205">
        <ele>178</ele>
        <time>2017-01-15T09:40:14.653Z</time>
      </trkpt>
      <trkpt lat="47.78173" lon="2.172">
        <ele>179</ele>
        <time>2017-01-15T09:40:15.650Z</time>
      </trkpt>
      <trkpt lat="47.78173" lon="2.172">
        <ele>179</ele>
        <time>2017-01-15T09:40:16.657Z</time>
      </trkpt>
      <trkpt lat="47.78184" lon="2.17195">
        <ele>178</ele>
        <time>2017-01-15T09:40:17.663Z</time>
      </trkpt>
      <trkpt lat="47.78188" lon="2.17193">
        <ele>178</ele>
        <time>2017-01-15T09:40:18.655Z</time>
      </trkpt>
      <trkpt lat="47.78188" lon="2.17193">
        <ele>178</ele>
        <time>2017-01-15T09:40:19.651Z</time>
      </trkpt>
      <trkpt lat="47.78197" lon="2.17187">
        <ele>177</ele>
        <time>2017-01-15T09:40:20.645Z</time>
      </trkpt>
      <trkpt lat="47.78197" lon="2.17187">
        <ele>177</ele>
        <time>2017-01-15T09:40:21.651Z</time>
      </trkpt>
      <trkpt lat="47.78207" lon="2.1718">
        <ele>177</ele>
        <time>2017-01-15T09:40:22.662Z</time>
      </trkpt>
      <trkpt lat="47.78212" lon="2.17176">
        <ele>177</ele>
        <time>2017-01-15T09:40:23.651Z</time>
      </trkpt>
      <trkpt lat="47.78212" lon="2.17176">
        <ele>177</ele>
        <time>2017-01-15T09:40:24.651Z</time>
      </trkpt>
      <trkpt lat="47.78221" lon="2.17169">
        <ele>176</ele>
        <time>2017-01-15T09:40:25.651Z</time>
      </trkpt>
      <trkpt lat="47.78227" lon="2.17165">
        <ele>175</ele>
        <time>2017-01-15T09:40:26.650Z</time>
      </trkpt>
      <trkpt lat="47.78232" lon="2.17161">
        <ele>174</ele>
        <time>2017-01-15T09:40:27.653Z</time>
      </trkpt>
      <trkpt lat="47.78232" lon="2.17161">
        <ele>174</ele>
        <time>2017-01-15T09:40:28.653Z</time>
      </trkpt>
      <trkpt lat="47.78243" lon="2.17154">
        <ele>173</ele>
        <time>2017-01-15T09:40:29.652Z</time>
      </trkpt>
      <trkpt lat="47.78243" lon="2.17154">
        <ele>173</ele>
        <time>2017-01-15T09:40:30.651Z</time>
      </trkpt>
      <trkpt lat="47.78254" lon="2.17148">
        <ele>171</ele>
        <time>2017-01-15T09:40:31.646Z</time>
      </trkpt>
      <trkpt lat="47.78258" lon="2.17145">
        <ele>172</ele>
        <time>2017-01-15T09:40:32.655Z</time>
      </trkpt>
      <trkpt lat="47.78258" lon="2.17145">
        <ele>172</ele>
        <time>2017-01-15T09:40:33.647Z</time>
      </trkpt>
      <trkpt lat="47.7827" lon="2.17138">
        <ele>171</ele>
        <time>2017-01-15T09:40:34.653Z</time>
      </trkpt>
      <trkpt lat="47.7827" lon="2.17138">
        <ele>171</ele>
        <time>2017-01-15T09:40:35.653Z</time>
      </trkpt>
      <trkpt lat="47.7828" lon="2.17132">
        <ele>171</ele>
        <time>2017-01-15T09:40:36.654Z</time>
      </trkpt>
      <trkpt lat="47.7828" lon="2.17132">
        <ele>171</ele>
        <time>2017-01-15T09:40:37.641Z</time>
      </trkpt>
      <trkpt lat="47.78293" lon="2.17125">
        <ele>167</ele>
        <time>2017-01-15T09:40:38.628Z</time>
      </trkpt>
      <trkpt lat="47.78293" lon="2.17125">
        <ele>167</ele>
        <time>2017-01-15T09:40:39.657Z</time>
      </trkpt>
      <trkpt lat="47.78305" lon="2.17118">
        <ele>163</ele>
        <time>2017-01-15T09:40:40.643Z</time>
      </trkpt>
      <trkpt lat="47.7831" lon="2.17115">
        <ele>162</ele>
        <time>2017-01-15T09:40:41.655Z</time>
      </trkpt>
      <trkpt lat="47.7831" lon="2.17115">
        <ele>162</ele>
        <time>2017-01-15T09:40:42.651Z</time>
      </trkpt>
      <trkpt lat="47.78322" lon="2.17109">
        <ele>156</ele>
        <time>2017-01-15T09:40:43.651Z</time>
      </trkpt>
      <trkpt lat="47.78322" lon="2.17109">
        <ele>156</ele>
        <time>2017-01-15T09:40:44.644Z</time>
      </trkpt>
      <trkpt lat="47.78333" lon="2.17103">
        <ele>153</ele>
        <time>2017-01-15T09:40:45.651Z</time>
      </trkpt>
      <trkpt lat="47.78333" lon="2.17103">
        <ele>153</ele>
        <time>2017-01-15T09:40:46.649Z</time>
      </trkpt>
      <trkpt lat="47.78344" lon="2.17095">
        <ele>150</ele>
        <time>2017-01-15T09:40:47.653Z</time>
      </trkpt>
      <trkpt lat="47.78344" lon="2.17095">
        <ele>150</ele>
        <time>2017-01-15T09:40:48.651Z</time>
      </trkpt>
      <trkpt lat="47.78353" lon="2.1709">
        <ele>149</ele>
        <time>2017-01-15T09:40:49.653Z</time>
      </trkpt>
      <trkpt lat="47.78353" lon="2.1709">
        <ele>149</ele>
        <time>2017-01-15T09:40:50.647Z</time>
      </trkpt>
      <trkpt lat="47.78361" lon="2.17085">
        <ele>148</ele>
        <time>2017-01-15T09:40:51.651Z</time>
      </trkpt>
      <trkpt lat="47.78361" lon="2.17085">
        <ele>148</ele>
        <time>2017-01-15T09:40:52.652Z</time>
      </trkpt>
      <trkpt lat="47.78369" lon="2.17081">
        <ele>146</ele>
        <time>2017-01-15T09:40:53.646Z</time>
      </trkpt>
      <trkpt lat="47.78373" lon="2.17078">
        <ele>145</ele>
        <time>2017-01-15T09:40:54.654Z</time>
      </trkpt>
      <trkpt lat="47.78373" lon="2.17078">
        <ele>145</ele>
        <time>2017-01-15T09:40:55.647Z</time>
      </trkpt>
      <trkpt lat="47.7838" lon="2.17074">
        <ele>144</ele>
        <time>2017-01-15T09:40:56.653Z</time>
      </trkpt>
      <trkpt lat="47.78383" lon="2.17072">
        <ele>143</ele>
        <time>2017-01-15T09:40:57.646Z</time>
      </trkpt>
      <trkpt lat="47.78383" lon="2.17072">
        <ele>143</ele>
        <time>2017-01-15T09:40:58.651Z</time>
      </trkpt>
      <trkpt lat="47.78388" lon="2.17069">
        <ele>142</ele>
        <time>2017-01-15T09:40:59.646Z</time>
      </trkpt>
      <trkpt lat="47.78388" lon="2.17069">
        <ele>142</ele>
        <time>2017-01-15T09:41:00.650Z</time>
      </trkpt>
      <trkpt lat="47.78392" lon="2.17067">
        <ele>141</ele>
        <time>2017-01-15T09:41:01.646Z</time>
      </trkpt>
      <trkpt lat="47.78392" lon="2.17067">
        <ele>141</ele>
        <time>2017-01-15T09:41:02.633Z</time>
      </trkpt>
      <trkpt lat="47.78395" lon="2.17065">
        <ele>141</ele>
        <time>2017-01-15T09:41:03.661Z</time>
      </trkpt>
      <trkpt lat="47.78397" lon="2.17064">
        <ele>141</ele>
        <time>2017-01-15T09:41:04.665Z</time>
      </trkpt>
      <trkpt lat="47.78397" lon="2.17064">
        <ele>141</ele>
        <time>2017-01-15T09:41:05.652Z</time>
      </trkpt>
      <trkpt lat="47.784" lon="2.17061">
        <ele>141</ele>
        <time>2017-01-15T09:41:06.652Z</time>
      </trkpt>
      <trkpt lat="47.784" lon="2.17061">
        <ele>141</ele>
        <time>2017-01-15T09:41:07.641Z</time>
      </trkpt>
      <trkpt lat="47.78404" lon="2.17058">
        <ele>141</ele>
        <time>2017-01-15T09:41:08.629Z</time>
      </trkpt>
      <trkpt lat="47.78404" lon="2.17058">
        <ele>141</ele>
        <time>2017-01-15T09:41:09.650Z</time>
      </trkpt>
      <trkpt lat="47.78407" lon="2.17055">
        <ele>140</ele>
        <time>2017-01-15T09:41:10.655Z</time>
      </trkpt>
      <trkpt lat="47.78407" lon="2.17055">
        <ele>140</ele>
        <time>2017-01-15T09:41:11.653Z</time>
      </trkpt>
      <trkpt lat="47.78408" lon="2.17054">
        <ele>140</ele>
        <time>2017-01-15T09:41:12.650Z</time>
      </trkpt>
      <trkpt lat="47.78408" lon="2.17054">
        <ele>140</ele>
        <time>2017-01-15T09:41:13.658Z</time>
      </trkpt>
      <trkpt lat="47.78421" lon="2.17051">
        <ele>139</ele>
        <time>2017-01-15T09:41:14.637Z</time>
      </trkpt>
      <trkpt lat="47.78424" lon="2.17049">
        <ele>139</ele>
        <time>2017-01-15T09:41:15.635Z</time>
      </trkpt>
      <trkpt lat="47.78424" lon="2.17049">
        <ele>139</ele>
        <time>2017-01-15T09:41:16.641Z</time>
      </trkpt>
      <trkpt lat="47.7843" lon="2.17046">
        <ele>140</ele>
        <time>2017-01-15T09:41:17.645Z</time>
      </trkpt>
      <trkpt lat="47.7843" lon="2.17046">
        <ele>140</ele>
        <time>2017-01-15T09:41:18.642Z</time>
      </trkpt>
      <trkpt lat="47.78434" lon="2.17044">
        <ele>140</ele>
        <time>2017-01-15T09:41:19.642Z</time>
      </trkpt>
      <trkpt lat="47.78436" lon="2.17044">
        <ele>140</ele>
        <time>2017-01-15T09:41:20.644Z</time>
      </trkpt>
      <trkpt lat="47.78439" lon="2.17043">
        <ele>140</ele>
        <time>2017-01-15T09:41:21.641Z</time>
      </trkpt>
      <trkpt lat="47.78439" lon="2.17043">
        <ele>140</ele>
        <time>2017-01-15T09:41:22.640Z</time>
      </trkpt>
      <trkpt lat="47.78445" lon="2.1704">
        <ele>141</ele>
        <time>2017-01-15T09:41:23.648Z</time>
      </trkpt>
      <trkpt lat="47.78448" lon="2.17038">
        <ele>141</ele>
        <time>2017-01-15T09:41:24.640Z</time>
      </trkpt>
      <trkpt lat="47.78448" lon="2.17038">
        <ele>141</ele>
        <time>2017-01-15T09:41:25.634Z</time>
      </trkpt>
      <trkpt lat="47.78454" lon="2.17034">
        <ele>142</ele>
        <time>2017-01-15T09:41:26.641Z</time>
      </trkpt>
      <trkpt lat="47.78457" lon="2.17033">
        <ele>143</ele>
        <time>2017-01-15T09:41:27.641Z</time>
      </trkpt>
      <trkpt lat="47.78457" lon="2.17033">
        <ele>143</ele>
        <time>2017-01-15T09:41:28.636Z</time>
      </trkpt>
      <trkpt lat="47.78462" lon="2.1703">
        <ele>144</ele>
        <time>2017-01-15T09:41:29.642Z</time>
      </trkpt>
      <trkpt lat="47.78465" lon="2.17029">
        <ele>144</ele>
        <time>2017-01-15T09:41:30.653Z</time>
      </trkpt>
      <trkpt lat="47.78465" lon="2.17029">
        <ele>144</ele>
        <time>2017-01-15T09:41:31.641Z</time>
      </trkpt>
      <trkpt lat="47.78471" lon="2.17026">
        <ele>144</ele>
        <time>2017-01-15T09:41:32.636Z</time>
      </trkpt>
      <trkpt lat="47.78474" lon="2.17024">
        <ele>145</ele>
        <time>2017-01-15T09:41:33.631Z</time>
      </trkpt>
      <trkpt lat="47.78474" lon="2.17024">
        <ele>145</ele>
        <time>2017-01-15T09:41:34.658Z</time>
      </trkpt>
      <trkpt lat="47.78481" lon="2.1702">
        <ele>146</ele>
        <time>2017-01-15T09:41:35.651Z</time>
      </trkpt>
      <trkpt lat="47.78481" lon="2.1702">
        <ele>146</ele>
        <time>2017-01-15T09:41:36.641Z</time>
      </trkpt>
      <trkpt lat="47.78487" lon="2.17017">
        <ele>147</ele>
        <time>2017-01-15T09:41:37.641Z</time>
      </trkpt>
      <trkpt lat="47.78487" lon="2.17017">
        <ele>147</ele>
        <time>2017-01-15T09:41:38.641Z</time>
      </trkpt>
      <trkpt lat="47.78494" lon="2.17013">
        <ele>148</ele>
        <time>2017-01-15T09:41:39.629Z</time>
      </trkpt>
      <trkpt lat="47.78494" lon="2.17013">
        <ele>148</ele>
        <time>2017-01-15T09:41:40.657Z</time>
      </trkpt>
      <trkpt lat="47.78502" lon="2.1701">
        <ele>148</ele>
        <time>2017-01-15T09:41:41.658Z</time>
      </trkpt>
      <trkpt lat="47.78507" lon="2.17008">
        <ele>147</ele>
        <time>2017-01-15T09:41:42.648Z</time>
      </trkpt>
      <trkpt lat="47.78507" lon="2.17008">
        <ele>147</ele>
        <time>2017-01-15T09:41:43.642Z</time>
      </trkpt>
      <trkpt lat="47.78519" lon="2.17005">
        <ele>148</ele>
        <time>2017-01-15T09:41:44.660Z</time>
      </trkpt>
      <trkpt lat="47.78519" lon="2.17005">
        <ele>148</ele>
        <time>2017-01-15T09:41:45.647Z</time>
      </trkpt>
      <trkpt lat="47.78526" lon="2.17003">
        <ele>149</ele>
        <time>2017-01-15T09:41:46.644Z</time>
      </trkpt>
      <trkpt lat="47.78526" lon="2.17003">
        <ele>149</ele>
        <time>2017-01-15T09:41:47.643Z</time>
      </trkpt>
      <trkpt lat="47.78535" lon="2.17001">
        <ele>150</ele>
        <time>2017-01-15T09:41:48.641Z</time>
      </trkpt>
      <trkpt lat="47.78535" lon="2.17001">
        <ele>150</ele>
        <time>2017-01-15T09:41:49.641Z</time>
      </trkpt>
      <trkpt lat="47.78543" lon="2.17">
        <ele>150</ele>
        <time>2017-01-15T09:41:50.641Z</time>
      </trkpt>
      <trkpt lat="47.78543" lon="2.17">
        <ele>150</ele>
        <time>2017-01-15T09:41:51.640Z</time>
      </trkpt>
      <trkpt lat="47.78553" lon="2.16997">
        <ele>151</ele>
        <time>2017-01-15T09:41:52.641Z</time>
      </trkpt>
      <trkpt lat="47.78558" lon="2.16995">
        <ele>152</ele>
        <time>2017-01-15T09:41:53.643Z</time>
      </trkpt>
      <trkpt lat="47.78558" lon="2.16995">
        <ele>152</ele>
        <time>2017-01-15T09:41:54.633Z</time>
      </trkpt>
      <trkpt lat="47.78567" lon="2.16992">
        <ele>154</ele>
        <time>2017-01-15T09:41:55.641Z</time>
      </trkpt>
      <trkpt lat="47.78567" lon="2.16992">
        <ele>154</ele>
        <time>2017-01-15T09:41:56.633Z</time>
      </trkpt>
      <trkpt lat="47.78575" lon="2.16989">
        <ele>156</ele>
        <time>2017-01-15T09:41:57.643Z</time>
      </trkpt>
      <trkpt lat="47.7858" lon="2.16988">
        <ele>157</ele>
        <time>2017-01-15T09:41:58.640Z</time>
      </trkpt>
      <trkpt lat="47.7858" lon="2.16988">
        <ele>157</ele>
        <time>2017-01-15T09:41:59.634Z</time>
      </trkpt>
      <trkpt lat="47.7859" lon="2.16986">
        <ele>156</ele>
        <time>2017-01-15T09:42:00.648Z</time>
      </trkpt>
      <trkpt lat="47.78594" lon="2.16986">
        <ele>156</ele>
        <time>2017-01-15T09:42:01.640Z</time>
      </trkpt>
      <trkpt lat="47.78598" lon="2.16985">
        <ele>156</ele>
        <time>2017-01-15T09:42:02.641Z</time>
      </trkpt>
      <trkpt lat="47.78598" lon="2.16985">
        <ele>156</ele>
        <time>2017-01-15T09:42:03.642Z</time>
      </trkpt>
      <trkpt lat="47.78607" lon="2.16982">
        <ele>159</ele>
        <time>2017-01-15T09:42:04.641Z</time>
      </trkpt>
      <trkpt lat="47.78612" lon="2.1698">
        <ele>160</ele>
        <time>2017-01-15T09:42:05.643Z</time>
      </trkpt>
      <trkpt lat="47.78612" lon="2.1698">
        <ele>160</ele>
        <time>2017-01-15T09:42:06.633Z</time>
      </trkpt>
      <trkpt lat="47.78621" lon="2.16976">
        <ele>163</ele>
        <time>2017-01-15T09:42:07.651Z</time>
      </trkpt>
      <trkpt lat="47.78621" lon="2.16976">
        <ele>163</ele>
        <time>2017-01-15T09:42:08.642Z</time>
      </trkpt>
      <trkpt lat="47.78633" lon="2.16972">
        <ele>164</ele>
        <time>2017-01-15T09:42:09.641Z</time>
      </trkpt>
      <trkpt lat="47.78633" lon="2.16972">
        <ele>164</ele>
        <time>2017-01-15T09:42:10.638Z</time>
      </trkpt>
      <trkpt lat="47.78645" lon="2.16969">
        <ele>166</ele>
        <time>2017-01-15T09:42:11.642Z</time>
      </trkpt>
      <trkpt lat="47.78651" lon="2.16966">
        <ele>167</ele>
        <time>2017-01-15T09:42:12.645Z</time>
      </trkpt>
      <trkpt lat="47.78658" lon="2.16965">
        <ele>167</ele>
        <time>2017-01-15T09:42:13.644Z</time>
      </trkpt>
      <trkpt lat="47.78658" lon="2.16965">
        <ele>167</ele>
        <time>2017-01-15T09:42:14.643Z</time>
      </trkpt>
      <trkpt lat="47.78674" lon="2.1696">
        <ele>166</ele>
        <time>2017-01-15T09:42:15.639Z</time>
      </trkpt>
      <trkpt lat="47.78674" lon="2.1696">
        <ele>166</ele>
        <time>2017-01-15T09:42:16.645Z</time>
      </trkpt>
      <trkpt lat="47.78688" lon="2.16955">
        <ele>164</ele>
        <time>2017-01-15T09:42:17.650Z</time>
      </trkpt>
      <trkpt lat="47.78694" lon="2.16954">
        <ele>165</ele>
        <time>2017-01-15T09:42:18.643Z</time>
      </trkpt>
      <trkpt lat="47.78694" lon="2.16954">
        <ele>165</ele>
        <time>2017-01-15T09:42:19.642Z</time>
      </trkpt>
      <trkpt lat="47.78709" lon="2.16951">
        <ele>164</ele>
        <time>2017-01-15T09:42:20.652Z</time>
      </trkpt>
      <trkpt lat="47.78709" lon="2.16951">
        <ele>164</ele>
        <time>2017-01-15T09:42:21.641Z</time>
      </trkpt>
      <trkpt lat="47.78723" lon="2.16946">
        <ele>163</ele>
        <time>2017-01-15T09:42:22.642Z</time>
      </trkpt>
      <trkpt lat="47.7873" lon="2.16943">
        <ele>164</ele>
        <time>2017-01-15T09:42:23.648Z</time>
      </trkpt>
      <trkpt lat="47.7873" lon="2.16943">
        <ele>164</ele>
        <time>2017-01-15T09:42:24.642Z</time>
      </trkpt>
      <trkpt lat="47.78745" lon="2.16939">
        <ele>165</ele>
        <time>2017-01-15T09:42:25.646Z</time>
      </trkpt>
      <trkpt lat="47.78745" lon="2.16939">
        <ele>165</ele>
        <time>2017-01-15T09:42:26.642Z</time>
      </trkpt>
      <trkpt lat="47.7876" lon="2.16935">
        <ele>166</ele>
        <time>2017-01-15T09:42:27.643Z</time>
      </trkpt>
      <trkpt lat="47.78766" lon="2.16933">
        <ele>165</ele>
        <time>2017-01-15T09:42:28.642Z</time>
      </trkpt>
      <trkpt lat="47.78766" lon="2.16933">
        <ele>165</ele>
        <time>2017-01-15T09:42:29.643Z</time>
      </trkpt>
      <trkpt lat="47.78777" lon="2.1693">
        <ele>164</ele>
        <time>2017-01-15T09:42:30.651Z</time>
      </trkpt>
      <trkpt lat="47.78777" lon="2.1693">
        <ele>164</ele>
        <time>2017-01-15T09:42:31.641Z</time>
      </trkpt>
      <trkpt lat="47.78785" lon="2.16933">
        <ele>161</ele>
        <time>2017-01-15T09:42:32.643Z</time>
      </trkpt>
      <trkpt lat="47.78785" lon="2.16933">
        <ele>161</ele>
        <time>2017-01-15T09:42:33.644Z</time>
      </trkpt>
      <trkpt lat="47.7879" lon="2.16945">
        <ele>156</ele>
        <time>2017-01-15T09:42:34.644Z</time>
      </trkpt>
      <trkpt lat="47.7879" lon="2.16945">
        <ele>156</ele>
        <time>2017-01-15T09:42:35.646Z</time>
      </trkpt>
      <trkpt lat="47.78792" lon="2.1696">
        <ele>154</ele>
        <time>2017-01-15T09:42:36.641Z</time>
      </trkpt>
      <trkpt lat="47.78792" lon="2.1696">
        <ele>154</ele>
        <time>2017-01-15T09:42:37.642Z</time>
      </trkpt>
      <trkpt lat="47.78795" lon="2.16974">
        <ele>152</ele>
        <time>2017-01-15T09:42:38.641Z</time>
      </trkpt>
      <trkpt lat="47.78797" lon="2.16982">
        <ele>151</ele>
        <time>2017-01-15T09:42:39.643Z</time>
      </trkpt>
      <trkpt lat="47.78797" lon="2.16982">
        <ele>151</ele>
        <time>2017-01-15T09:42:40.642Z</time>
      </trkpt>
      <trkpt lat="47.78798" lon="2.16998">
        <ele>150</ele>
        <time>2017-01-15T09:42:41.652Z</time>
      </trkpt>
      <trkpt lat="47.78798" lon="2.16998">
        <ele>150</ele>
        <time>2017-01-15T09:42:42.641Z</time>
      </trkpt>
      <trkpt lat="47.788" lon="2.17014">
        <ele>148</ele>
        <time>2017-01-15T09:42:43.649Z</time>
      </trkpt>
      <trkpt lat="47.78801" lon="2.17024">
        <ele>146</ele>
        <time>2017-01-15T09:42:44.643Z</time>
      </trkpt>
      <trkpt lat="47.78801" lon="2.17024">
        <ele>146</ele>
        <time>2017-01-15T09:42:45.653Z</time>
      </trkpt>
      <trkpt lat="47.78802" lon="2.17044">
        <ele>144</ele>
        <time>2017-01-15T09:42:46.652Z</time>
      </trkpt>
      <trkpt lat="47.78802" lon="2.17044">
        <ele>144</ele>
        <time>2017-01-15T09:42:47.643Z</time>
      </trkpt>
      <trkpt lat="47.788" lon="2.17065">
        <ele>142</ele>
        <time>2017-01-15T09:42:48.641Z</time>
      </trkpt>
      <trkpt lat="47.788" lon="2.17065">
        <ele>142</ele>
        <time>2017-01-15T09:42:49.642Z</time>
      </trkpt>
      <trkpt lat="47.78796" lon="2.17084">
        <ele>141</ele>
        <time>2017-01-15T09:42:50.642Z</time>
      </trkpt>
      <trkpt lat="47.78794" lon="2.17092">
        <ele>140</ele>
        <time>2017-01-15T09:42:51.643Z</time>
      </trkpt>
      <trkpt lat="47.78794" lon="2.17092">
        <ele>140</ele>
        <time>2017-01-15T09:42:52.642Z</time>
      </trkpt>
      <trkpt lat="47.7879" lon="2.17107">
        <ele>140</ele>
        <time>2017-01-15T09:42:53.650Z</time>
      </trkpt>
      <trkpt lat="47.78788" lon="2.17115">
        <ele>140</ele>
        <time>2017-01-15T09:42:54.643Z</time>
      </trkpt>
      <trkpt lat="47.78788" lon="2.17115">
        <ele>140</ele>
        <time>2017-01-15T09:42:55.644Z</time>
      </trkpt>
      <trkpt lat="47.78783" lon="2.1713">
        <ele>139</ele>
        <time>2017-01-15T09:42:56.644Z</time>
      </trkpt>
      <trkpt lat="47.78783" lon="2.1713">
        <ele>139</ele>
        <time>2017-01-15T09:42:57.642Z</time>
      </trkpt>
      <trkpt lat="47.78778" lon="2.17145">
        <ele>138</ele>
        <time>2017-01-15T09:42:58.642Z</time>
      </trkpt>
      <trkpt lat="47.78778" lon="2.17145">
        <ele>138</ele>
        <time>2017-01-15T09:42:59.643Z</time>
      </trkpt>
      <trkpt lat="47.78774" lon="2.1716">
        <ele>136</ele>
        <time>2017-01-15T09:43:00.652Z</time>
      </trkpt>
      <trkpt lat="47.78772" lon="2.17167">
        <ele>136</ele>
        <time>2017-01-15T09:43:01.643Z</time>
      </trkpt>
      <trkpt lat="47.78772" lon="2.17167">
        <ele>136</ele>
        <time>2017-01-15T09:43:02.642Z</time>
      </trkpt>
      <trkpt lat="47.78768" lon="2.17182">
        <ele>135</ele>
        <time>2017-01-15T09:43:03.645Z</time>
      </trkpt>
      <trkpt lat="47.78768" lon="2.17182">
        <ele>135</ele>
        <time>2017-01-15T09:43:04.642Z</time>
      </trkpt>
      <trkpt lat="47.78764" lon="2.17196">
        <ele>134</ele>
        <time>2017-01-15T09:43:05.635Z</time>
      </trkpt>
      <trkpt lat="47.78762" lon="2.17203">
        <ele>134</ele>
        <time>2017-01-15T09:43:06.641Z</time>
      </trkpt>
      <trkpt lat="47.78762" lon="2.17203">
        <ele>134</ele>
        <time>2017-01-15T09:43:07.643Z</time>
      </trkpt>
      <trkpt lat="47.78758" lon="2.17217">
        <ele>133</ele>
        <time>2017-01-15T09:43:08.643Z</time>
      </trkpt>
      <trkpt lat="47.78756" lon="2.17224">
        <ele>133</ele>
        <time>2017-01-15T09:43:09.643Z</time>
      </trkpt>
      <trkpt lat="47.78754" lon="2.1723">
        <ele>132</ele>
        <time>2017-01-15T09:43:10.649Z</time>
      </trkpt>
      <trkpt lat="47.78754" lon="2.1723">
        <ele>132</ele>
        <time>2017-01-15T09:43:11.644Z</time>
      </trkpt>
      <trkpt lat="47.7875" lon="2.17243">
        <ele>132</ele>
        <time>2017-01-15T09:43:12.643Z</time>
      </trkpt>
      <trkpt lat="47.78748" lon="2.1725">
        <ele>131</ele>
        <time>2017-01-15T09:43:13.646Z</time>
      </trkpt>
      <trkpt lat="47.78748" lon="2.1725">
        <ele>131</ele>
        <time>2017-01-15T09:43:14.648Z</time>
      </trkpt>
      <trkpt lat="47.78744" lon="2.17263">
        <ele>131</ele>
        <time>2017-01-15T09:43:15.645Z</time>
      </trkpt>
      <trkpt lat="47.78743" lon="2.17269">
        <ele>130</ele>
        <time>2017-01-15T09:43:16.651Z</time>
      </trkpt>
      <trkpt lat="47.78741" lon="2.17276">
        <ele>130</ele>
        <time>2017-01-15T09:43:17.630Z</time>
      </trkpt>
      <trkpt lat="47.78739" lon="2.17283">
        <ele>129</ele>
        <time>2017-01-15T09:43:18.662Z</time>
      </trkpt>
      <trkpt lat="47.78739" lon="2.17283">
        <ele>129</ele>
        <time>2017-01-15T09:43:19.644Z</time>
      </trkpt>
      <trkpt lat="47.78735" lon="2.17298">
        <ele>129</ele>
        <time>2017-01-15T09:43:20.666Z</time>
      </trkpt>
      <trkpt lat="47.78733" lon="2.17306">
        <ele>128</ele>
        <time>2017-01-15T09:43:21.647Z</time>
      </trkpt>
      <trkpt lat="47.78733" lon="2.17306">
        <ele>128</ele>
        <time>2017-01-15T09:43:22.629Z</time>
      </trkpt>
      <trkpt lat="47.78729" lon="2.17321">
        <ele>128</ele>
        <time>2017-01-15T09:43:23.650Z</time>
      </trkpt>
      <trkpt lat="47.78729" lon="2.17321">
        <ele>128</ele>
        <time>2017-01-15T09:43:24.644Z</time>
      </trkpt>
      <trkpt lat="47.78723" lon="2.17334">
        <ele>128</ele>
        <time>2017-01-15T09:43:25.628Z</time>
      </trkpt>
      <trkpt lat="47.78723" lon="2.17334">
        <ele>128</ele>
        <time>2017-01-15T09:43:26.649Z</time>
      </trkpt>
      <trkpt lat="47.78716" lon="2.17349">
        <ele>127</ele>
        <time>2017-01-15T09:43:27.630Z</time>
      </trkpt>
      <trkpt lat="47.78716" lon="2.17349">
        <ele>127</ele>
        <time>2017-01-15T09:43:28.651Z</time>
      </trkpt>
      <trkpt lat="47.78708" lon="2.17364">
        <ele>126</ele>
        <time>2017-01-15T09:43:29.657Z</time>
      </trkpt>
      <trkpt lat="47.78708" lon="2.17364">
        <ele>126</ele>
        <time>2017-01-15T09:43:30.663Z</time>
      </trkpt>
      <trkpt lat="47.78702" lon="2.17376">
        <ele>126</ele>
        <time>2017-01-15T09:43:31.632Z</time>
      </trkpt>
      <trkpt lat="47.78702" lon="2.17376">
        <ele>126</ele>
        <time>2017-01-15T09:43:32.637Z</time>
      </trkpt>
      <trkpt lat="47.78694" lon="2.17387">
        <ele>125</ele>
        <time>2017-01-15T09:43:33.644Z</time>
      </trkpt>
      <trkpt lat="47.78694" lon="2.17387">
        <ele>125</ele>
        <time>2017-01-15T09:43:34.636Z</time>
      </trkpt>
      <trkpt lat="47.78686" lon="2.17397">
        <ele>125</ele>
        <time>2017-01-15T09:43:35.644Z</time>
      </trkpt>
      <trkpt lat="47.78681" lon="2.17402">
        <ele>125</ele>
        <time>2017-01-15T09:43:36.658Z</time>
      </trkpt>
      <trkpt lat="47.78681" lon="2.17402">
        <ele>125</ele>
        <time>2017-01-15T09:43:37.645Z</time>
      </trkpt>
      <trkpt lat="47.78672" lon="2.17411">
        <ele>125</ele>
        <time>2017-01-15T09:43:38.643Z</time>
      </trkpt>
      <trkpt lat="47.78667" lon="2.17415">
        <ele>125</ele>
        <time>2017-01-15T09:43:39.643Z</time>
      </trkpt>
      <trkpt lat="47.78667" lon="2.17415">
        <ele>125</ele>
        <time>2017-01-15T09:43:40.659Z</time>
      </trkpt>
      <trkpt lat="47.78658" lon="2.17423">
        <ele>125</ele>
        <time>2017-01-15T09:43:41.647Z</time>
      </trkpt>
      <trkpt lat="47.78658" lon="2.17423">
        <ele>125</ele>
        <time>2017-01-15T09:43:42.636Z</time>
      </trkpt>
      <trkpt lat="47.78649" lon="2.17432">
        <ele>125</ele>
        <time>2017-01-15T09:43:43.643Z</time>
      </trkpt>
      <trkpt lat="47.78649" lon="2.17432">
        <ele>125</ele>
        <time>2017-01-15T09:43:44.636Z</time>
      </trkpt>
      <trkpt lat="47.78643" lon="2.17442">
        <ele>126</ele>
        <time>2017-01-15T09:43:45.631Z</time>
      </trkpt>
      <trkpt lat="47.78641" lon="2.17447">
        <ele>125</ele>
        <time>2017-01-15T09:43:46.644Z</time>
      </trkpt>
      <trkpt lat="47.78639" lon="2.17452">
        <ele>126</ele>
        <time>2017-01-15T09:43:47.645Z</time>
      </trkpt>
      <trkpt lat="47.78639" lon="2.17452">
        <ele>126</ele>
        <time>2017-01-15T09:43:48.643Z</time>
      </trkpt>
      <trkpt lat="47.78636" lon="2.17462">
        <ele>127</ele>
        <time>2017-01-15T09:43:49.644Z</time>
      </trkpt>
      <trkpt lat="47.78636" lon="2.17462">
        <ele>127</ele>
        <time>2017-01-15T09:43:50.643Z</time>
      </trkpt>
      <trkpt lat="47.78633" lon="2.17474">
        <ele>125</ele>
        <time>2017-01-15T09:43:51.643Z</time>
      </trkpt>
      <trkpt lat="47.78633" lon="2.17474">
        <ele>125</ele>
        <time>2017-01-15T09:43:52.643Z</time>
      </trkpt>
      <trkpt lat="47.78631" lon="2.17484">
        <ele>125</ele>
        <time>2017-01-15T09:43:53.643Z</time>
      </trkpt>
      <trkpt lat="47.78631" lon="2.17484">
        <ele>125</ele>
        <time>2017-01-15T09:43:54.641Z</time>
      </trkpt>
      <trkpt lat="47.78629" lon="2.17494">
        <ele>125</ele>
        <time>2017-01-15T09:43:55.644Z</time>
      </trkpt>
      <trkpt lat="47.78629" lon="2.17494">
        <ele>125</ele>
        <time>2017-01-15T09:43:56.641Z</time>
      </trkpt>
      <trkpt lat="47.78627" lon="2.17504">
        <ele>126</ele>
        <time>2017-01-15T09:43:57.641Z</time>
      </trkpt>
      <trkpt lat="47.78627" lon="2.17504">
        <ele>126</ele>
        <time>2017-01-15T09:43:58.633Z</time>
      </trkpt>
      <trkpt lat="47.78625" lon="2.17514">
        <ele>126</ele>
        <time>2017-01-15T09:43:59.645Z</time>
      </trkpt>
      <trkpt lat="47.78625" lon="2.17514">
        <ele>126</ele>
        <time>2017-01-15T09:44:00.642Z</time>
      </trkpt>
      <trkpt lat="47.78624" lon="2.17524">
        <ele>127</ele>
        <time>2017-01-15T09:44:01.644Z</time>
      </trkpt>
      <trkpt lat="47.78624" lon="2.17524">
        <ele>127</ele>
        <time>2017-01-15T09:44:02.632Z</time>
      </trkpt>
      <trkpt lat="47.78621" lon="2.17534">
        <ele>126</ele>
        <time>2017-01-15T09:44:03.643Z</time>
      </trkpt>
      <trkpt lat="47.78621" lon="2.17534">
        <ele>126</ele>
        <time>2017-01-15T09:44:04.636Z</time>
      </trkpt>
      <trkpt lat="47.78618" lon="2.17542">
        <ele>127</ele>
        <time>2017-01-15T09:44:05.646Z</time>
      </trkpt>
      <trkpt lat="47.78615" lon="2.17546">
        <ele>127</ele>
        <time>2017-01-15T09:44:06.649Z</time>
      </trkpt>
      <trkpt lat="47.78615" lon="2.17546">
        <ele>127</ele>
        <time>2017-01-15T09:44:07.637Z</time>
      </trkpt>
      <trkpt lat="47.78611" lon="2.17554">
        <ele>127</ele>
        <time>2017-01-15T09:44:08.664Z</time>
      </trkpt>
      <trkpt lat="47.7861" lon="2.17558">
        <ele>128</ele>
        <time>2017-01-15T09:44:09.654Z</time>
      </trkpt>
      <trkpt lat="47.7861" lon="2.17558">
        <ele>128</ele>
        <time>2017-01-15T09:44:10.643Z</time>
      </trkpt>
      <trkpt lat="47.78608" lon="2.17569">
        <ele>128</ele>
        <time>2017-01-15T09:44:11.653Z</time>
      </trkpt>
      <trkpt lat="47.78608" lon="2.17569">
        <ele>128</ele>
        <time>2017-01-15T09:44:12.643Z</time>
      </trkpt>
      <trkpt lat="47.78607" lon="2.1758">
        <ele>129</ele>
        <time>2017-01-15T09:44:13.643Z</time>
      </trkpt>
      <trkpt lat="47.78607" lon="2.17585">
        <ele>129</ele>
        <time>2017-01-15T09:44:14.642Z</time>
      </trkpt>
      <trkpt lat="47.78607" lon="2.17585">
        <ele>129</ele>
        <time>2017-01-15T09:44:15.640Z</time>
      </trkpt>
      <trkpt lat="47.78605" lon="2.17596">
        <ele>129</ele>
        <time>2017-01-15T09:44:16.646Z</time>
      </trkpt>
      <trkpt lat="47.78604" lon="2.17602">
        <ele>129</ele>
        <time>2017-01-15T09:44:17.655Z</time>
      </trkpt>
      <trkpt lat="47.78604" lon="2.17602">
        <ele>129</ele>
        <time>2017-01-15T09:44:18.644Z</time>
      </trkpt>
      <trkpt lat="47.78604" lon="2.17613">
        <ele>129</ele>
        <time>2017-01-15T09:44:19.643Z</time>
      </trkpt>
      <trkpt lat="47.78604" lon="2.17613">
        <ele>129</ele>
        <time>2017-01-15T09:44:20.644Z</time>
      </trkpt>
      <trkpt lat="47.78602" lon="2.17626">
        <ele>130</ele>
        <time>2017-01-15T09:44:21.643Z</time>
      </trkpt>
      <trkpt lat="47.78602" lon="2.17626">
        <ele>130</ele>
        <time>2017-01-15T09:44:22.633Z</time>
      </trkpt>
      <trkpt lat="47.786" lon="2.17638">
        <ele>130</ele>
        <time>2017-01-15T09:44:23.645Z</time>
      </trkpt>
      <trkpt lat="47.786" lon="2.17638">
        <ele>130</ele>
        <time>2017-01-15T09:44:24.643Z</time>
      </trkpt>
      <trkpt lat="47.78599" lon="2.1765">
        <ele>131</ele>
        <time>2017-01-15T09:44:25.646Z</time>
      </trkpt>
      <trkpt lat="47.78599" lon="2.1765">
        <ele>131</ele>
        <time>2017-01-15T09:44:26.635Z</time>
      </trkpt>
      <trkpt lat="47.78598" lon="2.1766">
        <ele>130</ele>
        <time>2017-01-15T09:44:27.643Z</time>
      </trkpt>
      <trkpt lat="47.78598" lon="2.1766">
        <ele>130</ele>
        <time>2017-01-15T09:44:28.644Z</time>
      </trkpt>
      <trkpt lat="47.78597" lon="2.17669">
        <ele>130</ele>
        <time>2017-01-15T09:44:29.645Z</time>
      </trkpt>
      <trkpt lat="47.78597" lon="2.17669">
        <ele>130</ele>
        <time>2017-01-15T09:44:30.643Z</time>
      </trkpt>
      <trkpt lat="47.78597" lon="2.17678">
        <ele>131</ele>
        <time>2017-01-15T09:44:31.644Z</time>
      </trkpt>
      <trkpt lat="47.78597" lon="2.17678">
        <ele>131</ele>
        <time>2017-01-15T09:44:32.638Z</time>
      </trkpt>
      <trkpt lat="47.78595" lon="2.17689">
        <ele>131</ele>
        <time>2017-01-15T09:44:33.635Z</time>
      </trkpt>
      <trkpt lat="47.78595" lon="2.17694">
        <ele>130</ele>
        <time>2017-01-15T09:44:34.649Z</time>
      </trkpt>
      <trkpt lat="47.78595" lon="2.17694">
        <ele>130</ele>
        <time>2017-01-15T09:44:35.637Z</time>
      </trkpt>
      <trkpt lat="47.78594" lon="2.17703">
        <ele>131</ele>
        <time>2017-01-15T09:44:36.643Z</time>
      </trkpt>
      <trkpt lat="47.78594" lon="2.17703">
        <ele>131</ele>
        <time>2017-01-15T09:44:37.643Z</time>
      </trkpt>
      <trkpt lat="47.78593" lon="2.17712">
        <ele>131</ele>
        <time>2017-01-15T09:44:38.644Z</time>
      </trkpt>
      <trkpt lat="47.78593" lon="2.17712">
        <ele>131</ele>
        <time>2017-01-15T09:44:39.636Z</time>
      </trkpt>
      <trkpt lat="47.78592" lon="2.17722">
        <ele>131</ele>
        <time>2017-01-15T09:44:40.647Z</time>
      </trkpt>
      <trkpt lat="47.78592" lon="2.17722">
        <ele>131</ele>
        <time>2017-01-15T09:44:41.653Z</time>
      </trkpt>
      <trkpt lat="47.7859" lon="2.17732">
        <ele>132</ele>
        <time>2017-01-15T09:44:42.643Z</time>
      </trkpt>
      <trkpt lat="47.7859" lon="2.17737">
        <ele>131</ele>
        <time>2017-01-15T09:44:43.644Z</time>
      </trkpt>
      <trkpt lat="47.7859" lon="2.17737">
        <ele>131</ele>
        <time>2017-01-15T09:44:44.641Z</time>
      </trkpt>
      <trkpt lat="47.78588" lon="2.17748">
        <ele>132</ele>
        <time>2017-01-15T09:44:45.644Z</time>
      </trkpt>
      <trkpt lat="47.78588" lon="2.17748">
        <ele>132</ele>
        <time>2017-01-15T09:44:46.644Z</time>
      </trkpt>
      <trkpt lat="47.78588" lon="2.17759">
        <ele>132</ele>
        <time>2017-01-15T09:44:47.643Z</time>
      </trkpt>
      <trkpt lat="47.78588" lon="2.17759">
        <ele>132</ele>
        <time>2017-01-15T09:44:48.636Z</time>
      </trkpt>
      <trkpt lat="47.78587" lon="2.17771">
        <ele>131</ele>
        <time>2017-01-15T09:44:49.644Z</time>
      </trkpt>
      <trkpt lat="47.78587" lon="2.17771">
        <ele>131</ele>
        <time>2017-01-15T09:44:50.644Z</time>
      </trkpt>
      <trkpt lat="47.78586" lon="2.17784">
        <ele>131</ele>
        <time>2017-01-15T09:44:51.644Z</time>
      </trkpt>
      <trkpt lat="47.78586" lon="2.17784">
        <ele>131</ele>
        <time>2017-01-15T09:44:52.644Z</time>
      </trkpt>
      <trkpt lat="47.78584" lon="2.17798">
        <ele>130</ele>
        <time>2017-01-15T09:44:53.645Z</time>
      </trkpt>
      <trkpt lat="47.78584" lon="2.17798">
        <ele>130</ele>
        <time>2017-01-15T09:44:54.644Z</time>
      </trkpt>
      <trkpt lat="47.78583" lon="2.17811">
        <ele>130</ele>
        <time>2017-01-15T09:44:55.644Z</time>
      </trkpt>
      <trkpt lat="47.78583" lon="2.17811">
        <ele>130</ele>
        <time>2017-01-15T09:44:56.643Z</time>
      </trkpt>
      <trkpt lat="47.78582" lon="2.17823">
        <ele>130</ele>
        <time>2017-01-15T09:44:57.644Z</time>
      </trkpt>
      <trkpt lat="47.78581" lon="2.17829">
        <ele>130</ele>
        <time>2017-01-15T09:44:58.644Z</time>
      </trkpt>
      <trkpt lat="47.78581" lon="2.17835">
        <ele>130</ele>
        <time>2017-01-15T09:44:59.644Z</time>
      </trkpt>
      <trkpt lat="47.78581" lon="2.17835">
        <ele>130</ele>
        <time>2017-01-15T09:45:00.652Z</time>
      </trkpt>
      <trkpt lat="47.7858" lon="2.17847">
        <ele>129</ele>
        <time>2017-01-15T09:45:01.645Z</time>
      </trkpt>
      <trkpt lat="47.7858" lon="2.17847">
        <ele>129</ele>
        <time>2017-01-15T09:45:02.634Z</time>
      </trkpt>
      <trkpt lat="47.78579" lon="2.17859">
        <ele>129</ele>
        <time>2017-01-15T09:45:03.644Z</time>
      </trkpt>
      <trkpt lat="47.78579" lon="2.17859">
        <ele>129</ele>
        <time>2017-01-15T09:45:04.649Z</time>
      </trkpt>
      <trkpt lat="47.78578" lon="2.17872">
        <ele>128</ele>
        <time>2017-01-15T09:45:05.644Z</time>
      </trkpt>
      <trkpt lat="47.78578" lon="2.17878">
        <ele>127</ele>
        <time>2017-01-15T09:45:06.642Z</time>
      </trkpt>
      <trkpt lat="47.78578" lon="2.17878">
        <ele>127</ele>
        <time>2017-01-15T09:45:07.643Z</time>
      </trkpt>
      <trkpt lat="47.78576" lon="2.17894">
        <ele>126</ele>
        <time>2017-01-15T09:45:08.639Z</time>
      </trkpt>
      <trkpt lat="47.78575" lon="2.17901">
        <ele>126</ele>
        <time>2017-01-15T09:45:09.645Z</time>
      </trkpt>
      <trkpt lat="47.78575" lon="2.17901">
        <ele>126</ele>
        <time>2017-01-15T09:45:10.636Z</time>
      </trkpt>
      <trkpt lat="47.78574" lon="2.17917">
        <ele>125</ele>
        <time>2017-01-15T09:45:11.645Z</time>
      </trkpt>
      <trkpt lat="47.78573" lon="2.17925">
        <ele>125</ele>
        <time>2017-01-15T09:45:12.667Z</time>
      </trkpt>
      <trkpt lat="47.78573" lon="2.17925">
        <ele>125</ele>
        <time>2017-01-15T09:45:13.663Z</time>
      </trkpt>
      <trkpt lat="47.78571" lon="2.17941">
        <ele>125</ele>
        <time>2017-01-15T09:45:14.632Z</time>
      </trkpt>
      <trkpt lat="47.78571" lon="2.17941">
        <ele>125</ele>
        <time>2017-01-15T09:45:15.639Z</time>
      </trkpt>
      <trkpt lat="47.78569" lon="2.17955">
        <ele>125</ele>
        <time>2017-01-15T09:45:16.645Z</time>
      </trkpt>
      <trkpt lat="47.78569" lon="2.17955">
        <ele>125</ele>
        <time>2017-01-15T09:45:17.651Z</time>
      </trkpt>
      <trkpt lat="47.78568" lon="2.17965">
        <ele>125</ele>
        <time>2017-01-15T09:45:18.633Z</time>
      </trkpt>
      <trkpt lat="47.78568" lon="2.1797">
        <ele>125</ele>
        <time>2017-01-15T09:45:19.665Z</time>
      </trkpt>
      <trkpt lat="47.78568" lon="2.1797">
        <ele>125</ele>
        <time>2017-01-15T09:45:20.658Z</time>
      </trkpt>
      <trkpt lat="47.78566" lon="2.17978">
        <ele>125</ele>
        <time>2017-01-15T09:45:21.652Z</time>
      </trkpt>
      <trkpt lat="47.78566" lon="2.17978">
        <ele>125</ele>
        <time>2017-01-15T09:45:22.644Z</time>
      </trkpt>
      <trkpt lat="47.78566" lon="2.17984">
        <ele>125</ele>
        <time>2017-01-15T09:45:23.644Z</time>
      </trkpt>
      <trkpt lat="47.78566" lon="2.17984">
        <ele>125</ele>
        <time>2017-01-15T09:45:24.643Z</time>
      </trkpt>
      <trkpt lat="47.78567" lon="2.17989">
        <ele>125</ele>
        <time>2017-01-15T09:45:25.663Z</time>
      </trkpt>
      <trkpt lat="47.78567" lon="2.17991">
        <ele>125</ele>
        <time>2017-01-15T09:45:26.650Z</time>
      </trkpt>
      <trkpt lat="47.78567" lon="2.17994">
        <ele>125</ele>
        <time>2017-01-15T09:45:27.646Z</time>
      </trkpt>
      <trkpt lat="47.78567" lon="2.17994">
        <ele>125</ele>
        <time>2017-01-15T09:45:28.642Z</time>
      </trkpt>
      <trkpt lat="47.78566" lon="2.18001">
        <ele>125</ele>
        <time>2017-01-15T09:45:29.647Z</time>
      </trkpt>
      <trkpt lat="47.78566" lon="2.18001">
        <ele>125</ele>
        <time>2017-01-15T09:45:30.644Z</time>
      </trkpt>
      <trkpt lat="47.78566" lon="2.18002">
        <ele>125</ele>
        <time>2017-01-15T09:45:31.643Z</time>
      </trkpt>
      <trkpt lat="47.78566" lon="2.18002">
        <ele>125</ele>
        <time>2017-01-15T09:45:32.643Z</time>
      </trkpt>
      <trkpt lat="47.78565" lon="2.18002">
        <ele>125</ele>
        <time>2017-01-15T09:45:33.649Z</time>
      </trkpt>
      <trkpt lat="47.78569" lon="2.18006">
        <ele>130</ele>
        <time>2017-01-15T09:45:34.647Z</time>
      </trkpt>
      <trkpt lat="47.78569" lon="2.18006">
        <ele>130</ele>
        <time>2017-01-15T09:45:35.641Z</time>
      </trkpt>
      <trkpt lat="47.78575" lon="2.18011">
        <ele>130</ele>
        <time>2017-01-15T09:45:36.651Z</time>
      </trkpt>
      <trkpt lat="47.78575" lon="2.18011">
        <ele>130</ele>
        <time>2017-01-15T09:45:37.644Z</time>
      </trkpt>
      <trkpt lat="47.78583" lon="2.18015">
        <ele>130</ele>
        <time>2017-01-15T09:45:38.636Z</time>
      </trkpt>
      <trkpt lat="47.78583" lon="2.18015">
        <ele>130</ele>
        <time>2017-01-15T09:45:39.632Z</time>
      </trkpt>
      <trkpt lat="47.78591" lon="2.18022">
        <ele>129</ele>
        <time>2017-01-15T09:45:40.663Z</time>
      </trkpt>
      <trkpt lat="47.78595" lon="2.18025">
        <ele>129</ele>
        <time>2017-01-15T09:45:41.661Z</time>
      </trkpt>
      <trkpt lat="47.78595" lon="2.18025">
        <ele>129</ele>
        <time>2017-01-15T09:45:42.650Z</time>
      </trkpt>
      <trkpt lat="47.78605" lon="2.18031">
        <ele>129</ele>
        <time>2017-01-15T09:45:43.637Z</time>
      </trkpt>
      <trkpt lat="47.7861" lon="2.18035">
        <ele>129</ele>
        <time>2017-01-15T09:45:44.633Z</time>
      </trkpt>
      <trkpt lat="47.7861" lon="2.18035">
        <ele>129</ele>
        <time>2017-01-15T09:45:45.632Z</time>
      </trkpt>
      <trkpt lat="47.78619" lon="2.18043">
        <ele>129</ele>
        <time>2017-01-15T09:45:46.640Z</time>
      </trkpt>
      <trkpt lat="47.78619" lon="2.18043">
        <ele>129</ele>
        <time>2017-01-15T09:45:47.641Z</time>
      </trkpt>
      <trkpt lat="47.7863" lon="2.18054">
        <ele>128</ele>
        <time>2017-01-15T09:45:48.650Z</time>
      </trkpt>
      <trkpt lat="47.78635" lon="2.18063">
        <ele>127</ele>
        <time>2017-01-15T09:45:49.639Z</time>
      </trkpt>
      <trkpt lat="47.78639" lon="2.18072">
        <ele>126</ele>
        <time>2017-01-15T09:45:50.634Z</time>
      </trkpt>
      <trkpt lat="47.78639" lon="2.18072">
        <ele>126</ele>
        <time>2017-01-15T09:45:51.665Z</time>
      </trkpt>
      <trkpt lat="47.78648" lon="2.18089">
        <ele>125</ele>
        <time>2017-01-15T09:45:52.659Z</time>
      </trkpt>
      <trkpt lat="47.78654" lon="2.18099">
        <ele>125</ele>
        <time>2017-01-15T09:45:53.647Z</time>
      </trkpt>
      <trkpt lat="47.78654" lon="2.18099">
        <ele>125</ele>
        <time>2017-01-15T09:45:54.635Z</time>
      </trkpt>
      <trkpt lat="47.78665" lon="2.18119">
        <ele>123</ele>
        <time>2017-01-15T09:45:55.634Z</time>
      </trkpt>
      <trkpt lat="47.78671" lon="2.1813">
        <ele>122</ele>
        <time>2017-01-15T09:45:56.630Z</time>
      </trkpt>
      <trkpt lat="47.78671" lon="2.1813">
        <ele>122</ele>
        <time>2017-01-15T09:45:57.632Z</time>
      </trkpt>
      <trkpt lat="47.78683" lon="2.18152">
        <ele>121</ele>
        <time>2017-01-15T09:45:58.632Z</time>
      </trkpt>
      <trkpt lat="47.78683" lon="2.18152">
        <ele>121</ele>
        <time>2017-01-15T09:45:59.632Z</time>
      </trkpt>
      <trkpt lat="47.78696" lon="2.18174">
        <ele>120</ele>
        <time>2017-01-15T09:46:00.636Z</time>
      </trkpt>
      <trkpt lat="47.78696" lon="2.18174">
        <ele>120</ele>
        <time>2017-01-15T09:46:01.643Z</time>
      </trkpt>
      <trkpt lat="47.78709" lon="2.18198">
        <ele>119</ele>
        <time>2017-01-15T09:46:02.635Z</time>
      </trkpt>
      <trkpt lat="47.78709" lon="2.18198">
        <ele>119</ele>
        <time>2017-01-15T09:46:03.662Z</time>
      </trkpt>
      <trkpt lat="47.78723" lon="2.18223">
        <ele>118</ele>
        <time>2017-01-15T09:46:04.654Z</time>
      </trkpt>
      <trkpt lat="47.78723" lon="2.18223">
        <ele>118</ele>
        <time>2017-01-15T09:46:05.642Z</time>
      </trkpt>
      <trkpt lat="47.78737" lon="2.18249">
        <ele>116</ele>
        <time>2017-01-15T09:46:06.633Z</time>
      </trkpt>
      <trkpt lat="47.78745" lon="2.18262">
        <ele>116</ele>
        <time>2017-01-15T09:46:07.667Z</time>
      </trkpt>
      <trkpt lat="47.78752" lon="2.18276">
        <ele>115</ele>
        <time>2017-01-15T09:46:08.654Z</time>
      </trkpt>
      <trkpt lat="47.7876" lon="2.18289">
        <ele>114</ele>
        <time>2017-01-15T09:46:09.656Z</time>
      </trkpt>
      <trkpt lat="47.78767" lon="2.18303">
        <ele>114</ele>
        <time>2017-01-15T09:46:10.664Z</time>
      </trkpt>
      <trkpt lat="47.78767" lon="2.18303">
        <ele>114</ele>
        <time>2017-01-15T09:46:11.656Z</time>
      </trkpt>
      <trkpt lat="47.78782" lon="2.18331">
        <ele>113</ele>
        <time>2017-01-15T09:46:12.645Z</time>
      </trkpt>
      <trkpt lat="47.78782" lon="2.18331">
        <ele>113</ele>
        <time>2017-01-15T09:46:13.634Z</time>
      </trkpt>
      <trkpt lat="47.78797" lon="2.1836">
        <ele>112</ele>
        <time>2017-01-15T09:46:14.645Z</time>
      </trkpt>
      <trkpt lat="47.78797" lon="2.1836">
        <ele>112</ele>
        <time>2017-01-15T09:46:15.667Z</time>
      </trkpt>
      <trkpt lat="47.78812" lon="2.18388">
        <ele>111</ele>
        <time>2017-01-15T09:46:16.633Z</time>
      </trkpt>
      <trkpt lat="47.7882" lon="2.18402">
        <ele>111</ele>
        <time>2017-01-15T09:46:17.639Z</time>
      </trkpt>
      <trkpt lat="47.78827" lon="2.18415">
        <ele>111</ele>
        <time>2017-01-15T09:46:18.634Z</time>
      </trkpt>
      <trkpt lat="47.78827" lon="2.18415">
        <ele>111</ele>
        <time>2017-01-15T09:46:19.633Z</time>
      </trkpt>
      <trkpt lat="47.78841" lon="2.18441">
        <ele>110</ele>
        <time>2017-01-15T09:46:20.628Z</time>
      </trkpt>
      <trkpt lat="47.78848" lon="2.18454">
        <ele>110</ele>
        <time>2017-01-15T09:46:21.664Z</time>
      </trkpt>
      <trkpt lat="47.78848" lon="2.18454">
        <ele>110</ele>
        <time>2017-01-15T09:46:22.654Z</time>
      </trkpt>
      <trkpt lat="47.78862" lon="2.18479">
        <ele>109</ele>
        <time>2017-01-15T09:46:23.657Z</time>
      </trkpt>
      <trkpt lat="47.78869" lon="2.18491">
        <ele>109</ele>
        <time>2017-01-15T09:46:24.645Z</time>
      </trkpt>
      <trkpt lat="47.78869" lon="2.18491">
        <ele>109</ele>
        <time>2017-01-15T09:46:25.634Z</time>
      </trkpt>
      <trkpt lat="47.78882" lon="2.18514">
        <ele>109</ele>
        <time>2017-01-15T09:46:26.634Z</time>
      </trkpt>
      <trkpt lat="47.78888" lon="2.18526">
        <ele>109</ele>
        <time>2017-01-15T09:46:27.643Z</time>
      </trkpt>
      <trkpt lat="47.78888" lon="2.18526">
        <ele>109</ele>
        <time>2017-01-15T09:46:28.632Z</time>
      </trkpt>
      <trkpt lat="47.789" lon="2.18547">
        <ele>108</ele>
        <time>2017-01-15T09:46:29.635Z</time>
      </trkpt>
      <trkpt lat="47.789" lon="2.18547">
        <ele>108</ele>
        <time>2017-01-15T09:46:30.632Z</time>
      </trkpt>
      <trkpt lat="47.78911" lon="2.18568">
        <ele>108</ele>
        <time>2017-01-15T09:46:31.633Z</time>
      </trkpt>
      <trkpt lat="47.78917" lon="2.18578">
        <ele>108</ele>
        <time>2017-01-15T09:46:32.632Z</time>
      </trkpt>
      <trkpt lat="47.78917" lon="2.18578">
        <ele>108</ele>
        <time>2017-01-15T09:46:33.667Z</time>
      </trkpt>
      <trkpt lat="47.78928" lon="2.18597">
        <ele>108</ele>
        <time>2017-01-15T09:46:34.658Z</time>
      </trkpt>
      <trkpt lat="47.78933" lon="2.18606">
        <ele>108</ele>
        <time>2017-01-15T09:46:35.646Z</time>
      </trkpt>
      <trkpt lat="47.78933" lon="2.18606">
        <ele>108</ele>
        <time>2017-01-15T09:46:36.634Z</time>
      </trkpt>
      <trkpt lat="47.78944" lon="2.18622">
        <ele>108</ele>
        <time>2017-01-15T09:46:37.640Z</time>
      </trkpt>
      <trkpt lat="47.7895" lon="2.18629">
        <ele>108</ele>
        <time>2017-01-15T09:46:38.633Z</time>
      </trkpt>
      <trkpt lat="47.7895" lon="2.18629">
        <ele>108</ele>
        <time>2017-01-15T09:46:39.632Z</time>
      </trkpt>
      <trkpt lat="47.78962" lon="2.18641">
        <ele>107</ele>
        <time>2017-01-15T09:46:40.652Z</time>
      </trkpt>
      <trkpt lat="47.78962" lon="2.18641">
        <ele>107</ele>
        <time>2017-01-15T09:46:41.640Z</time>
      </trkpt>
      <trkpt lat="47.78973" lon="2.18652">
        <ele>107</ele>
        <time>2017-01-15T09:46:42.636Z</time>
      </trkpt>
      <trkpt lat="47.78973" lon="2.18652">
        <ele>107</ele>
        <time>2017-01-15T09:46:43.634Z</time>
      </trkpt>
      <trkpt lat="47.78984" lon="2.18662">
        <ele>107</ele>
        <time>2017-01-15T09:46:44.637Z</time>
      </trkpt>
      <trkpt lat="47.78984" lon="2.18662">
        <ele>107</ele>
        <time>2017-01-15T09:46:45.642Z</time>
      </trkpt>
      <trkpt lat="47.78995" lon="2.18671">
        <ele>106</ele>
        <time>2017-01-15T09:46:46.633Z</time>
      </trkpt>
      <trkpt lat="47.78995" lon="2.18671">
        <ele>106</ele>
        <time>2017-01-15T09:46:47.632Z</time>
      </trkpt>
      <trkpt lat="47.79005" lon="2.1868">
        <ele>106</ele>
        <time>2017-01-15T09:46:48.632Z</time>
      </trkpt>
      <trkpt lat="47.79005" lon="2.1868">
        <ele>106</ele>
        <time>2017-01-15T09:46:49.662Z</time>
      </trkpt>
      <trkpt lat="47.79014" lon="2.18689">
        <ele>106</ele>
        <time>2017-01-15T09:46:50.658Z</time>
      </trkpt>
      <trkpt lat="47.79014" lon="2.18689">
        <ele>106</ele>
        <time>2017-01-15T09:46:51.652Z</time>
      </trkpt>
      <trkpt lat="47.79023" lon="2.18696">
        <ele>106</ele>
        <time>2017-01-15T09:46:52.641Z</time>
      </trkpt>
      <trkpt lat="47.79023" lon="2.18696">
        <ele>106</ele>
        <time>2017-01-15T09:46:53.628Z</time>
      </trkpt>
      <trkpt lat="47.79032" lon="2.18704">
        <ele>105</ele>
        <time>2017-01-15T09:46:54.635Z</time>
      </trkpt>
      <trkpt lat="47.79032" lon="2.18704">
        <ele>105</ele>
        <time>2017-01-15T09:46:55.637Z</time>
      </trkpt>
      <trkpt lat="47.79041" lon="2.18712">
        <ele>105</ele>
        <time>2017-01-15T09:46:56.633Z</time>
      </trkpt>
      <trkpt lat="47.79041" lon="2.18712">
        <ele>105</ele>
        <time>2017-01-15T09:46:57.628Z</time>
      </trkpt>
      <trkpt lat="47.79049" lon="2.18719">
        <ele>105</ele>
        <time>2017-01-15T09:46:58.634Z</time>
      </trkpt>
      <trkpt lat="47.79049" lon="2.18719">
        <ele>105</ele>
        <time>2017-01-15T09:46:59.632Z</time>
      </trkpt>
      <trkpt lat="47.79057" lon="2.18727">
        <ele>105</ele>
        <time>2017-01-15T09:47:00.633Z</time>
      </trkpt>
      <trkpt lat="47.79057" lon="2.18727">
        <ele>105</ele>
        <time>2017-01-15T09:47:01.633Z</time>
      </trkpt>
      <trkpt lat="47.79064" lon="2.18733">
        <ele>105</ele>
        <time>2017-01-15T09:47:02.634Z</time>
      </trkpt>
      <trkpt lat="47.79064" lon="2.18733">
        <ele>105</ele>
        <time>2017-01-15T09:47:03.630Z</time>
      </trkpt>
      <trkpt lat="47.79071" lon="2.1874">
        <ele>105</ele>
        <time>2017-01-15T09:47:04.633Z</time>
      </trkpt>
      <trkpt lat="47.79071" lon="2.1874">
        <ele>105</ele>
        <time>2017-01-15T09:47:05.632Z</time>
      </trkpt>
      <trkpt lat="47.79078" lon="2.18746">
        <ele>105</ele>
        <time>2017-01-15T09:47:06.632Z</time>
      </trkpt>
      <trkpt lat="47.79078" lon="2.18746">
        <ele>105</ele>
        <time>2017-01-15T09:47:07.633Z</time>
      </trkpt>
      <trkpt lat="47.79084" lon="2.18753">
        <ele>105</ele>
        <time>2017-01-15T09:47:08.651Z</time>
      </trkpt>
      <trkpt lat="47.79084" lon="2.18753">
        <ele>105</ele>
        <time>2017-01-15T09:47:09.639Z</time>
      </trkpt>
      <trkpt lat="47.79091" lon="2.18759">
        <ele>105</ele>
        <time>2017-01-15T09:47:10.636Z</time>
      </trkpt>
      <trkpt lat="47.79091" lon="2.18759">
        <ele>105</ele>
        <time>2017-01-15T09:47:11.665Z</time>
      </trkpt>
      <trkpt lat="47.79098" lon="2.18765">
        <ele>105</ele>
        <time>2017-01-15T09:47:12.653Z</time>
      </trkpt>
      <trkpt lat="47.79102" lon="2.18768">
        <ele>105</ele>
        <time>2017-01-15T09:47:13.645Z</time>
      </trkpt>
      <trkpt lat="47.79102" lon="2.18768">
        <ele>105</ele>
        <time>2017-01-15T09:47:14.637Z</time>
      </trkpt>
      <trkpt lat="47.79109" lon="2.18774">
        <ele>105</ele>
        <time>2017-01-15T09:47:15.629Z</time>
      </trkpt>
      <trkpt lat="47.79109" lon="2.18774">
        <ele>105</ele>
        <time>2017-01-15T09:47:16.635Z</time>
      </trkpt>
      <trkpt lat="47.79116" lon="2.18781">
        <ele>105</ele>
        <time>2017-01-15T09:47:17.641Z</time>
      </trkpt>
      <trkpt lat="47.79119" lon="2.18784">
        <ele>105</ele>
        <time>2017-01-15T09:47:18.634Z</time>
      </trkpt>
      <trkpt lat="47.79119" lon="2.18784">
        <ele>105</ele>
        <time>2017-01-15T09:47:19.635Z</time>
      </trkpt>
      <trkpt lat="47.79127" lon="2.18791">
        <ele>105</ele>
        <time>2017-01-15T09:47:20.628Z</time>
      </trkpt>
      <trkpt lat="47.79127" lon="2.18791">
        <ele>105</ele>
        <time>2017-01-15T09:47:21.633Z</time>
      </trkpt>
      <trkpt lat="47.79134" lon="2.18797">
        <ele>105</ele>
        <time>2017-01-15T09:47:22.647Z</time>
      </trkpt>
      <trkpt lat="47.79134" lon="2.18797">
        <ele>105</ele>
        <time>2017-01-15T09:47:23.636Z</time>
      </trkpt>
      <trkpt lat="47.79142" lon="2.18804">
        <ele>105</ele>
        <time>2017-01-15T09:47:24.634Z</time>
      </trkpt>
      <trkpt lat="47.79142" lon="2.18804">
        <ele>105</ele>
        <time>2017-01-15T09:47:25.634Z</time>
      </trkpt>
      <trkpt lat="47.79149" lon="2.18811">
        <ele>104</ele>
        <time>2017-01-15T09:47:26.632Z</time>
      </trkpt>
      <trkpt lat="47.79149" lon="2.18811">
        <ele>104</ele>
        <time>2017-01-15T09:47:27.631Z</time>
      </trkpt>
      <trkpt lat="47.79157" lon="2.18818">
        <ele>104</ele>
        <time>2017-01-15T09:47:28.667Z</time>
      </trkpt>
      <trkpt lat="47.79157" lon="2.18818">
        <ele>104</ele>
        <time>2017-01-15T09:47:29.655Z</time>
      </trkpt>
      <trkpt lat="47.79165" lon="2.18826">
        <ele>104</ele>
        <time>2017-01-15T09:47:30.643Z</time>
      </trkpt>
      <trkpt lat="47.79165" lon="2.18826">
        <ele>104</ele>
        <time>2017-01-15T09:47:31.634Z</time>
      </trkpt>
      <trkpt lat="47.79172" lon="2.18833">
        <ele>104</ele>
        <time>2017-01-15T09:47:32.636Z</time>
      </trkpt>
      <trkpt lat="47.79172" lon="2.18833">
        <ele>104</ele>
        <time>2017-01-15T09:47:33.663Z</time>
      </trkpt>
      <trkpt lat="47.79178" lon="2.18841">
        <ele>104</ele>
        <time>2017-01-15T09:47:34.635Z</time>
      </trkpt>
      <trkpt lat="47.79178" lon="2.18841">
        <ele>104</ele>
        <time>2017-01-15T09:47:35.632Z</time>
      </trkpt>
      <trkpt lat="47.79185" lon="2.1885">
        <ele>104</ele>
        <time>2017-01-15T09:47:36.634Z</time>
      </trkpt>
      <trkpt lat="47.79185" lon="2.1885">
        <ele>104</ele>
        <time>2017-01-15T09:47:37.642Z</time>
      </trkpt>
      <trkpt lat="47.79192" lon="2.18859">
        <ele>104</ele>
        <time>2017-01-15T09:47:38.634Z</time>
      </trkpt>
      <trkpt lat="47.79192" lon="2.18859">
        <ele>104</ele>
        <time>2017-01-15T09:47:39.628Z</time>
      </trkpt>
      <trkpt lat="47.79199" lon="2.18868">
        <ele>104</ele>
        <time>2017-01-15T09:47:40.660Z</time>
      </trkpt>
      <trkpt lat="47.79199" lon="2.18868">
        <ele>104</ele>
        <time>2017-01-15T09:47:41.649Z</time>
      </trkpt>
      <trkpt lat="47.79206" lon="2.18877">
        <ele>104</ele>
        <time>2017-01-15T09:47:42.641Z</time>
      </trkpt>
      <trkpt lat="47.79209" lon="2.18881">
        <ele>104</ele>
        <time>2017-01-15T09:47:43.636Z</time>
      </trkpt>
      <trkpt lat="47.79209" lon="2.18881">
        <ele>104</ele>
        <time>2017-01-15T09:47:44.632Z</time>
      </trkpt>
      <trkpt lat="47.79215" lon="2.18891">
        <ele>104</ele>
        <time>2017-01-15T09:47:45.640Z</time>
      </trkpt>
      <trkpt lat="47.79218" lon="2.18896">
        <ele>104</ele>
        <time>2017-01-15T09:47:46.635Z</time>
      </trkpt>
      <trkpt lat="47.79218" lon="2.18896">
        <ele>104</ele>
        <time>2017-01-15T09:47:47.664Z</time>
      </trkpt>
      <trkpt lat="47.79225" lon="2.18906">
        <ele>104</ele>
        <time>2017-01-15T09:47:48.653Z</time>
      </trkpt>
      <trkpt lat="47.79227" lon="2.1891">
        <ele>104</ele>
        <time>2017-01-15T09:47:49.644Z</time>
      </trkpt>
      <trkpt lat="47.79229" lon="2.18915">
        <ele>104</ele>
        <time>2017-01-15T09:47:50.634Z</time>
      </trkpt>
      <trkpt lat="47.79229" lon="2.18915">
        <ele>104</ele>
        <time>2017-01-15T09:47:51.628Z</time>
      </trkpt>
      <trkpt lat="47.79233" lon="2.18923">
        <ele>104</ele>
        <time>2017-01-15T09:47:52.634Z</time>
      </trkpt>
      <trkpt lat="47.79233" lon="2.18923">
        <ele>104</ele>
        <time>2017-01-15T09:47:53.629Z</time>
      </trkpt>
      <trkpt lat="47.79239" lon="2.18928">
        <ele>104</ele>
        <time>2017-01-15T09:47:54.633Z</time>
      </trkpt>
      <trkpt lat="47.79239" lon="2.18928">
        <ele>104</ele>
        <time>2017-01-15T09:47:55.634Z</time>
      </trkpt>
      <trkpt lat="47.79245" lon="2.18932">
        <ele>103</ele>
        <time>2017-01-15T09:47:56.638Z</time>
      </trkpt>
      <trkpt lat="47.79245" lon="2.18932">
        <ele>103</ele>
        <time>2017-01-15T09:47:57.633Z</time>
      </trkpt>
      <trkpt lat="47.7925" lon="2.18937">
        <ele>103</ele>
        <time>2017-01-15T09:47:58.634Z</time>
      </trkpt>
      <trkpt lat="47.7925" lon="2.18937">
        <ele>103</ele>
        <time>2017-01-15T09:47:59.632Z</time>
      </trkpt>
      <trkpt lat="47.79255" lon="2.18943">
        <ele>103</ele>
        <time>2017-01-15T09:48:00.635Z</time>
      </trkpt>
      <trkpt lat="47.79255" lon="2.18943">
        <ele>103</ele>
        <time>2017-01-15T09:48:01.642Z</time>
      </trkpt>
      <trkpt lat="47.79261" lon="2.18951">
        <ele>103</ele>
        <time>2017-01-15T09:48:02.635Z</time>
      </trkpt>
      <trkpt lat="47.79261" lon="2.18951">
        <ele>103</ele>
        <time>2017-01-15T09:48:03.628Z</time>
      </trkpt>
      <trkpt lat="47.79266" lon="2.18959">
        <ele>103</ele>
        <time>2017-01-15T09:48:04.634Z</time>
      </trkpt>
      <trkpt lat="47.79269" lon="2.18963">
        <ele>103</ele>
        <time>2017-01-15T09:48:05.644Z</time>
      </trkpt>
      <trkpt lat="47.79269" lon="2.18963">
        <ele>103</ele>
        <time>2017-01-15T09:48:06.632Z</time>
      </trkpt>
      <trkpt lat="47.79275" lon="2.18972">
        <ele>103</ele>
        <time>2017-01-15T09:48:07.632Z</time>
      </trkpt>
      <trkpt lat="47.79278" lon="2.18976">
        <ele>103</ele>
        <time>2017-01-15T09:48:08.629Z</time>
      </trkpt>
      <trkpt lat="47.79278" lon="2.18976">
        <ele>103</ele>
        <time>2017-01-15T09:48:09.633Z</time>
      </trkpt>
      <trkpt lat="47.79284" lon="2.18985">
        <ele>103</ele>
        <time>2017-01-15T09:48:10.633Z</time>
      </trkpt>
      <trkpt lat="47.79287" lon="2.1899">
        <ele>103</ele>
        <time>2017-01-15T09:48:11.634Z</time>
      </trkpt>
      <trkpt lat="47.79287" lon="2.1899">
        <ele>103</ele>
        <time>2017-01-15T09:48:12.632Z</time>
      </trkpt>
      <trkpt lat="47.79294" lon="2.18998">
        <ele>103</ele>
        <time>2017-01-15T09:48:13.633Z</time>
      </trkpt>
      <trkpt lat="47.79298" lon="2.19003">
        <ele>103</ele>
        <time>2017-01-15T09:48:14.667Z</time>
      </trkpt>
      <trkpt lat="47.79298" lon="2.19003">
        <ele>103</ele>
        <time>2017-01-15T09:48:15.664Z</time>
      </trkpt>
      <trkpt lat="47.79305" lon="2.19011">
        <ele>103</ele>
        <time>2017-01-15T09:48:16.630Z</time>
      </trkpt>
      <trkpt lat="47.79305" lon="2.19011">
        <ele>103</ele>
        <time>2017-01-15T09:48:17.640Z</time>
      </trkpt>
      <trkpt lat="47.79312" lon="2.1902">
        <ele>104</ele>
        <time>2017-01-15T09:48:18.633Z</time>
      </trkpt>
      <trkpt lat="47.79312" lon="2.1902">
        <ele>104</ele>
        <time>2017-01-15T09:48:19.629Z</time>
      </trkpt>
      <trkpt lat="47.79319" lon="2.19029">
        <ele>103</ele>
        <time>2017-01-15T09:48:20.633Z</time>
      </trkpt>
      <trkpt lat="47.79319" lon="2.19029">
        <ele>103</ele>
        <time>2017-01-15T09:48:21.641Z</time>
      </trkpt>
      <trkpt lat="47.79327" lon="2.19035">
        <ele>104</ele>
        <time>2017-01-15T09:48:22.634Z</time>
      </trkpt>
      <trkpt lat="47.79327" lon="2.19035">
        <ele>104</ele>
        <time>2017-01-15T09:48:23.629Z</time>
      </trkpt>
      <trkpt lat="47.79335" lon="2.19042">
        <ele>103</ele>
        <time>2017-01-15T09:48:24.633Z</time>
      </trkpt>
      <trkpt lat="47.79335" lon="2.19042">
        <ele>103</ele>
        <time>2017-01-15T09:48:25.628Z</time>
      </trkpt>
      <trkpt lat="47.79343" lon="2.19047">
        <ele>103</ele>
        <time>2017-01-15T09:48:26.636Z</time>
      </trkpt>
      <trkpt lat="47.79343" lon="2.19047">
        <ele>103</ele>
        <time>2017-01-15T09:48:27.629Z</time>
      </trkpt>
      <trkpt lat="47.7935" lon="2.19052">
        <ele>102</ele>
        <time>2017-01-15T09:48:28.657Z</time>
      </trkpt>
      <trkpt lat="47.7935" lon="2.19052">
        <ele>102</ele>
        <time>2017-01-15T09:48:29.645Z</time>
      </trkpt>
      <trkpt lat="47.79357" lon="2.19057">
        <ele>102</ele>
        <time>2017-01-15T09:48:30.635Z</time>
      </trkpt>
      <trkpt lat="47.7936" lon="2.19059">
        <ele>102</ele>
        <time>2017-01-15T09:48:31.637Z</time>
      </trkpt>
      <trkpt lat="47.79363" lon="2.19061">
        <ele>102</ele>
        <time>2017-01-15T09:48:32.634Z</time>
      </trkpt>
      <trkpt lat="47.79363" lon="2.19061">
        <ele>102</ele>
        <time>2017-01-15T09:48:33.632Z</time>
      </trkpt>
      <trkpt lat="47.79368" lon="2.19065">
        <ele>101</ele>
        <time>2017-01-15T09:48:34.635Z</time>
      </trkpt>
      <trkpt lat="47.79371" lon="2.19067">
        <ele>101</ele>
        <time>2017-01-15T09:48:35.633Z</time>
      </trkpt>
      <trkpt lat="47.79371" lon="2.19067">
        <ele>101</ele>
        <time>2017-01-15T09:48:36.636Z</time>
      </trkpt>
      <trkpt lat="47.79376" lon="2.1907">
        <ele>102</ele>
        <time>2017-01-15T09:48:37.637Z</time>
      </trkpt>
      <trkpt lat="47.79378" lon="2.19072">
        <ele>102</ele>
        <time>2017-01-15T09:48:38.637Z</time>
      </trkpt>
      <trkpt lat="47.79378" lon="2.19072">
        <ele>102</ele>
        <time>2017-01-15T09:48:39.632Z</time>
      </trkpt>
      <trkpt lat="47.79382" lon="2.19076">
        <ele>101</ele>
        <time>2017-01-15T09:48:40.661Z</time>
      </trkpt>
      <trkpt lat="47.79382" lon="2.19076">
        <ele>101</ele>
        <time>2017-01-15T09:48:41.648Z</time>
      </trkpt>
      <trkpt lat="47.79386" lon="2.19079">
        <ele>101</ele>
        <time>2017-01-15T09:48:42.636Z</time>
      </trkpt>
      <trkpt lat="47.79386" lon="2.19078">
        <ele>101</ele>
        <time>2017-01-15T09:48:43.636Z</time>
      </trkpt>
      <trkpt lat="47.79387" lon="2.19078">
        <ele>102</ele>
        <time>2017-01-15T09:48:44.629Z</time>
      </trkpt>
      <trkpt lat="47.79387" lon="2.19078">
        <ele>102</ele>
        <time>2017-01-15T09:48:45.635Z</time>
      </trkpt>
      <trkpt lat="47.79387" lon="2.19078">
        <ele>102</ele>
        <time>2017-01-15T09:48:46.667Z</time>
      </trkpt>
      <trkpt lat="47.7939" lon="2.19086">
        <ele>103</ele>
        <time>2017-01-15T09:48:47.630Z</time>
      </trkpt>
      <trkpt lat="47.7939" lon="2.19086">
        <ele>103</ele>
        <time>2017-01-15T09:48:48.661Z</time>
      </trkpt>
      <trkpt lat="47.79391" lon="2.19097">
        <ele>104</ele>
        <time>2017-01-15T09:48:49.651Z</time>
      </trkpt>
      <trkpt lat="47.79391" lon="2.19103">
        <ele>104</ele>
        <time>2017-01-15T09:48:50.639Z</time>
      </trkpt>
      <trkpt lat="47.79391" lon="2.19103">
        <ele>104</ele>
        <time>2017-01-15T09:48:51.628Z</time>
      </trkpt>
      <trkpt lat="47.7939" lon="2.19115">
        <ele>104</ele>
        <time>2017-01-15T09:48:52.640Z</time>
      </trkpt>
      <trkpt lat="47.7939" lon="2.19122">
        <ele>104</ele>
        <time>2017-01-15T09:48:53.633Z</time>
      </trkpt>
      <trkpt lat="47.7939" lon="2.19122">
        <ele>104</ele>
        <time>2017-01-15T09:48:54.661Z</time>
      </trkpt>
      <trkpt lat="47.79392" lon="2.19135">
        <ele>104</ele>
        <time>2017-01-15T09:48:55.652Z</time>
      </trkpt>
      <trkpt lat="47.79392" lon="2.19135">
        <ele>104</ele>
        <time>2017-01-15T09:48:56.640Z</time>
      </trkpt>
      <trkpt lat="47.79393" lon="2.19148">
        <ele>104</ele>
        <time>2017-01-15T09:48:57.629Z</time>
      </trkpt>
      <trkpt lat="47.79394" lon="2.19155">
        <ele>103</ele>
        <time>2017-01-15T09:48:58.666Z</time>
      </trkpt>
      <trkpt lat="47.79395" lon="2.19162">
        <ele>103</ele>
        <time>2017-01-15T09:48:59.656Z</time>
      </trkpt>
      <trkpt lat="47.79395" lon="2.19162">
        <ele>103</ele>
        <time>2017-01-15T09:49:00.639Z</time>
      </trkpt>
      <trkpt lat="47.79397" lon="2.19176">
        <ele>103</ele>
        <time>2017-01-15T09:49:01.648Z</time>
      </trkpt>
      <trkpt lat="47.79397" lon="2.19176">
        <ele>103</ele>
        <time>2017-01-15T09:49:02.638Z</time>
      </trkpt>
      <trkpt lat="47.794" lon="2.1919">
        <ele>103</ele>
        <time>2017-01-15T09:49:03.629Z</time>
      </trkpt>
      <trkpt lat="47.79401" lon="2.19197">
        <ele>103</ele>
        <time>2017-01-15T09:49:04.628Z</time>
      </trkpt>
      <trkpt lat="47.79402" lon="2.19203">
        <ele>103</ele>
        <time>2017-01-15T09:49:05.634Z</time>
      </trkpt>
      <trkpt lat="47.79402" lon="2.19203">
        <ele>103</ele>
        <time>2017-01-15T09:49:06.630Z</time>
      </trkpt>
      <trkpt lat="47.79405" lon="2.19215">
        <ele>102</ele>
        <time>2017-01-15T09:49:07.666Z</time>
      </trkpt>
      <trkpt lat="47.79406" lon="2.19221">
        <ele>102</ele>
        <time>2017-01-15T09:49:08.628Z</time>
      </trkpt>
      <trkpt lat="47.79406" lon="2.19221">
        <ele>102</ele>
        <time>2017-01-15T09:49:09.666Z</time>
      </trkpt>
      <trkpt lat="47.79408" lon="2.19231">
        <ele>102</ele>
        <time>2017-01-15T09:49:10.667Z</time>
      </trkpt>
      <trkpt lat="47.79408" lon="2.19236">
        <ele>102</ele>
        <time>2017-01-15T09:49:11.661Z</time>
      </trkpt>
      <trkpt lat="47.79408" lon="2.1924">
        <ele>102</ele>
        <time>2017-01-15T09:49:12.648Z</time>
      </trkpt>
      <trkpt lat="47.79408" lon="2.1924">
        <ele>102</ele>
        <time>2017-01-15T09:49:13.643Z</time>
      </trkpt>
      <trkpt lat="47.7941" lon="2.19247">
        <ele>101</ele>
        <time>2017-01-15T09:49:14.658Z</time>
      </trkpt>
      <trkpt lat="47.7941" lon="2.19247">
        <ele>101</ele>
        <time>2017-01-15T09:49:15.632Z</time>
      </trkpt>
      <trkpt lat="47.79411" lon="2.19253">
        <ele>102</ele>
        <time>2017-01-15T09:49:16.638Z</time>
      </trkpt>
      <trkpt lat="47.79411" lon="2.19253">
        <ele>102</ele>
        <time>2017-01-15T09:49:17.644Z</time>
      </trkpt>
      <trkpt lat="47.79413" lon="2.19259">
        <ele>102</ele>
        <time>2017-01-15T09:49:18.633Z</time>
      </trkpt>
      <trkpt lat="47.79413" lon="2.19259">
        <ele>102</ele>
        <time>2017-01-15T09:49:19.661Z</time>
      </trkpt>
      <trkpt lat="47.79417" lon="2.19265">
        <ele>102</ele>
        <time>2017-01-15T09:49:20.665Z</time>
      </trkpt>
      <trkpt lat="47.7942" lon="2.19266">
        <ele>102</ele>
        <time>2017-01-15T09:49:21.654Z</time>
      </trkpt>
      <trkpt lat="47.7942" lon="2.19266">
        <ele>102</ele>
        <time>2017-01-15T09:49:22.652Z</time>
      </trkpt>
      <trkpt lat="47.79428" lon="2.19266">
        <ele>102</ele>
        <time>2017-01-15T09:49:23.643Z</time>
      </trkpt>
      <trkpt lat="47.79428" lon="2.19266">
        <ele>102</ele>
        <time>2017-01-15T09:49:24.630Z</time>
      </trkpt>
      <trkpt lat="47.79435" lon="2.19266">
        <ele>102</ele>
        <time>2017-01-15T09:49:25.628Z</time>
      </trkpt>
      <trkpt lat="47.79435" lon="2.19266">
        <ele>102</ele>
        <time>2017-01-15T09:49:26.633Z</time>
      </trkpt>
      <trkpt lat="47.79442" lon="2.19266">
        <ele>101</ele>
        <time>2017-01-15T09:49:27.667Z</time>
      </trkpt>
      <trkpt lat="47.79442" lon="2.19266">
        <ele>101</ele>
        <time>2017-01-15T09:49:28.655Z</time>
      </trkpt>
      <trkpt lat="47.7945" lon="2.19267">
        <ele>101</ele>
        <time>2017-01-15T09:49:29.644Z</time>
      </trkpt>
      <trkpt lat="47.7945" lon="2.19267">
        <ele>101</ele>
        <time>2017-01-15T09:49:30.631Z</time>
      </trkpt>
      <trkpt lat="47.79458" lon="2.19269">
        <ele>102</ele>
        <time>2017-01-15T09:49:31.660Z</time>
      </trkpt>
      <trkpt lat="47.79458" lon="2.19269">
        <ele>102</ele>
        <time>2017-01-15T09:49:32.649Z</time>
      </trkpt>
      <trkpt lat="47.79466" lon="2.1927">
        <ele>103</ele>
        <time>2017-01-15T09:49:33.639Z</time>
      </trkpt>
      <trkpt lat="47.7947" lon="2.19271">
        <ele>103</ele>
        <time>2017-01-15T09:49:34.629Z</time>
      </trkpt>
      <trkpt lat="47.7947" lon="2.19271">
        <ele>103</ele>
        <time>2017-01-15T09:49:35.661Z</time>
      </trkpt>
      <trkpt lat="47.79479" lon="2.19273">
        <ele>103</ele>
        <time>2017-01-15T09:49:36.633Z</time>
      </trkpt>
      <trkpt lat="47.79479" lon="2.19273">
        <ele>103</ele>
        <time>2017-01-15T09:49:37.660Z</time>
      </trkpt>
      <trkpt lat="47.79487" lon="2.19275">
        <ele>103</ele>
        <time>2017-01-15T09:49:38.648Z</time>
      </trkpt>
      <trkpt lat="47.79492" lon="2.19276">
        <ele>103</ele>
        <time>2017-01-15T09:49:39.636Z</time>
      </trkpt>
      <trkpt lat="47.79492" lon="2.19276">
        <ele>103</ele>
        <time>2017-01-15T09:49:40.666Z</time>
      </trkpt>
      <trkpt lat="47.795" lon="2.19277">
        <ele>104</ele>
        <time>2017-01-15T09:49:41.635Z</time>
      </trkpt>
      <trkpt lat="47.795" lon="2.19277">
        <ele>104</ele>
        <time>2017-01-15T09:49:42.665Z</time>
      </trkpt>
      <trkpt lat="47.79507" lon="2.19279">
        <ele>104</ele>
        <time>2017-01-15T09:49:43.638Z</time>
      </trkpt>
      <trkpt lat="47.79507" lon="2.19279">
        <ele>104</ele>
        <time>2017-01-15T09:49:44.658Z</time>
      </trkpt>
      <trkpt lat="47.79515" lon="2.1928">
        <ele>104</ele>
        <time>2017-01-15T09:49:45.650Z</time>
      </trkpt>
      <trkpt lat="47.79515" lon="2.1928">
        <ele>104</ele>
        <time>2017-01-15T09:49:46.641Z</time>
      </trkpt>
      <trkpt lat="47.79522" lon="2.19281">
        <ele>106</ele>
        <time>2017-01-15T09:49:47.638Z</time>
      </trkpt>
      <trkpt lat="47.79522" lon="2.19281">
        <ele>106</ele>
        <time>2017-01-15T09:49:48.665Z</time>
      </trkpt>
      <trkpt lat="47.79529" lon="2.19283">
        <ele>106</ele>
        <time>2017-01-15T09:49:49.661Z</time>
      </trkpt>
      <trkpt lat="47.79532" lon="2.19285">
        <ele>106</ele>
        <time>2017-01-15T09:49:50.650Z</time>
      </trkpt>
      <trkpt lat="47.79532" lon="2.19285">
        <ele>106</ele>
        <time>2017-01-15T09:49:51.641Z</time>
      </trkpt>
      <trkpt lat="47.79539" lon="2.19286">
        <ele>108</ele>
        <time>2017-01-15T09:49:52.629Z</time>
      </trkpt>
      <trkpt lat="47.79543" lon="2.19286">
        <ele>108</ele>
        <time>2017-01-15T09:49:53.633Z</time>
      </trkpt>
      <trkpt lat="47.79543" lon="2.19286">
        <ele>108</ele>
        <time>2017-01-15T09:49:54.653Z</time>
      </trkpt>
      <trkpt lat="47.79548" lon="2.1928">
        <ele>110</ele>
        <time>2017-01-15T09:49:55.641Z</time>
      </trkpt>
      <trkpt lat="47.79548" lon="2.1928">
        <ele>110</ele>
        <time>2017-01-15T09:49:56.630Z</time>
      </trkpt>
      <trkpt lat="47.79553" lon="2.19271">
        <ele>111</ele>
        <time>2017-01-15T09:49:57.667Z</time>
      </trkpt>
      <trkpt lat="47.79553" lon="2.19271">
        <ele>111</ele>
        <time>2017-01-15T09:49:58.656Z</time>
      </trkpt>
      <trkpt lat="47.79557" lon="2.19259">
        <ele>111</ele>
        <time>2017-01-15T09:49:59.650Z</time>
      </trkpt>
      <trkpt lat="47.79557" lon="2.19259">
        <ele>111</ele>
        <time>2017-01-15T09:50:00.638Z</time>
      </trkpt>
      <trkpt lat="47.79559" lon="2.19248">
        <ele>111</ele>
        <time>2017-01-15T09:50:01.628Z</time>
      </trkpt>
      <trkpt lat="47.79559" lon="2.19248">
        <ele>111</ele>
        <time>2017-01-15T09:50:02.660Z</time>
      </trkpt>
      <trkpt lat="47.79561" lon="2.19236">
        <ele>111</ele>
        <time>2017-01-15T09:50:03.654Z</time>
      </trkpt>
      <trkpt lat="47.79561" lon="2.19236">
        <ele>111</ele>
        <time>2017-01-15T09:50:04.665Z</time>
      </trkpt>
      <trkpt lat="47.79564" lon="2.19224">
        <ele>111</ele>
        <time>2017-01-15T09:50:05.666Z</time>
      </trkpt>
      <trkpt lat="47.79566" lon="2.19218">
        <ele>111</ele>
        <time>2017-01-15T09:50:06.667Z</time>
      </trkpt>
      <trkpt lat="47.79566" lon="2.19218">
        <ele>111</ele>
        <time>2017-01-15T09:50:07.654Z</time>
      </trkpt>
      <trkpt lat="47.79568" lon="2.19205">
        <ele>110</ele>
        <time>2017-01-15T09:50:08.646Z</time>
      </trkpt>
      <trkpt lat="47.79568" lon="2.19205">
        <ele>110</ele>
        <time>2017-01-15T09:50:09.654Z</time>
      </trkpt>
      <trkpt lat="47.79572" lon="2.19192">
        <ele>109</ele>
        <time>2017-01-15T09:50:10.642Z</time>
      </trkpt>
      <trkpt lat="47.79573" lon="2.19185">
        <ele>109</ele>
        <time>2017-01-15T09:50:11.631Z</time>
      </trkpt>
      <trkpt lat="47.79573" lon="2.19185">
        <ele>109</ele>
        <time>2017-01-15T09:50:12.661Z</time>
      </trkpt>
      <trkpt lat="47.79577" lon="2.19171">
        <ele>108</ele>
        <time>2017-01-15T09:50:13.654Z</time>
      </trkpt>
      <trkpt lat="47.79579" lon="2.19165">
        <ele>108</ele>
        <time>2017-01-15T09:50:14.661Z</time>
      </trkpt>
      <trkpt lat="47.79579" lon="2.19165">
        <ele>108</ele>
        <time>2017-01-15T09:50:15.642Z</time>
      </trkpt>
      <trkpt lat="47.79583" lon="2.19151">
        <ele>108</ele>
        <time>2017-01-15T09:50:16.657Z</time>
      </trkpt>
      <trkpt lat="47.79586" lon="2.19145">
        <ele>107</ele>
        <time>2017-01-15T09:50:17.662Z</time>
      </trkpt>
      <trkpt lat="47.79586" lon="2.19145">
        <ele>107</ele>
        <time>2017-01-15T09:50:18.655Z</time>
      </trkpt>
      <trkpt lat="47.7959" lon="2.19131">
        <ele>107</ele>
        <time>2017-01-15T09:50:19.643Z</time>
      </trkpt>
      <trkpt lat="47.79593" lon="2.19124">
        <ele>107</ele>
        <time>2017-01-15T09:50:20.631Z</time>
      </trkpt>
      <trkpt lat="47.79595" lon="2.19117">
        <ele>107</ele>
        <time>2017-01-15T09:50:21.665Z</time>
      </trkpt>
      <trkpt lat="47.79595" lon="2.19117">
        <ele>107</ele>
        <time>2017-01-15T09:50:22.655Z</time>
      </trkpt>
      <trkpt lat="47.796" lon="2.19103">
        <ele>107</ele>
        <time>2017-01-15T09:50:23.641Z</time>
      </trkpt>
      <trkpt lat="47.796" lon="2.19103">
        <ele>107</ele>
        <time>2017-01-15T09:50:24.629Z</time>
      </trkpt>
      <trkpt lat="47.79604" lon="2.19088">
        <ele>106</ele>
        <time>2017-01-15T09:50:25.667Z</time>
      </trkpt>
      <trkpt lat="47.79606" lon="2.1908">
        <ele>106</ele>
        <time>2017-01-15T09:50:26.663Z</time>
      </trkpt>
      <trkpt lat="47.79606" lon="2.1908">
        <ele>106</ele>
        <time>2017-01-15T09:50:27.651Z</time>
      </trkpt>
      <trkpt lat="47.79611" lon="2.19065">
        <ele>106</ele>
        <time>2017-01-15T09:50:28.639Z</time>
      </trkpt>
      <trkpt lat="47.79611" lon="2.19065">
        <ele>106</ele>
        <time>2017-01-15T09:50:29.666Z</time>
      </trkpt>
      <trkpt lat="47.79616" lon="2.1905">
        <ele>105</ele>
        <time>2017-01-15T09:50:30.666Z</time>
      </trkpt>
      <trkpt lat="47.79616" lon="2.1905">
        <ele>105</ele>
        <time>2017-01-15T09:50:31.654Z</time>
      </trkpt>
      <trkpt lat="47.7962" lon="2.19035">
        <ele>105</ele>
        <time>2017-01-15T09:50:32.628Z</time>
      </trkpt>
      <trkpt lat="47.7962" lon="2.19035">
        <ele>105</ele>
        <time>2017-01-15T09:50:33.660Z</time>
      </trkpt>
      <trkpt lat="47.79625" lon="2.19021">
        <ele>105</ele>
        <time>2017-01-15T09:50:34.658Z</time>
      </trkpt>
      <trkpt lat="47.79627" lon="2.19013">
        <ele>105</ele>
        <time>2017-01-15T09:50:35.651Z</time>
      </trkpt>
      <trkpt lat="47.79627" lon="2.19013">
        <ele>105</ele>
        <time>2017-01-15T09:50:36.638Z</time>
      </trkpt>
      <trkpt lat="47.79631" lon="2.18999">
        <ele>106</ele>
        <time>2017-01-15T09:50:37.667Z</time>
      </trkpt>
      <trkpt lat="47.79631" lon="2.18999">
        <ele>106</ele>
        <time>2017-01-15T09:50:38.655Z</time>
      </trkpt>
      <trkpt lat="47.79635" lon="2.18985">
        <ele>106</ele>
        <time>2017-01-15T09:50:39.642Z</time>
      </trkpt>
      <trkpt lat="47.79635" lon="2.18985">
        <ele>106</ele>
        <time>2017-01-15T09:50:40.629Z</time>
      </trkpt>
      <trkpt lat="47.79639" lon="2.18972">
        <ele>106</ele>
        <time>2017-01-15T09:50:41.629Z</time>
      </trkpt>
      <trkpt lat="47.79639" lon="2.18972">
        <ele>106</ele>
        <time>2017-01-15T09:50:42.642Z</time>
      </trkpt>
      <trkpt lat="47.79643" lon="2.18959">
        <ele>106</ele>
        <time>2017-01-15T09:50:43.631Z</time>
      </trkpt>
      <trkpt lat="47.79644" lon="2.18953">
        <ele>106</ele>
        <time>2017-01-15T09:50:44.667Z</time>
      </trkpt>
      <trkpt lat="47.79644" lon="2.18953">
        <ele>106</ele>
        <time>2017-01-15T09:50:45.656Z</time>
      </trkpt>
      <trkpt lat="47.79648" lon="2.18941">
        <ele>107</ele>
        <time>2017-01-15T09:50:46.648Z</time>
      </trkpt>
      <trkpt lat="47.79649" lon="2.18935">
        <ele>107</ele>
        <time>2017-01-15T09:50:47.638Z</time>
      </trkpt>
      <trkpt lat="47.79649" lon="2.18935">
        <ele>107</ele>
        <time>2017-01-15T09:50:48.633Z</time>
      </trkpt>
      <trkpt lat="47.79653" lon="2.18923">
        <ele>107</ele>
        <time>2017-01-15T09:50:49.662Z</time>
      </trkpt>
      <trkpt lat="47.79656" lon="2.18916">
        <ele>107</ele>
        <time>2017-01-15T09:50:50.650Z</time>
      </trkpt>
      <trkpt lat="47.79658" lon="2.1891">
        <ele>106</ele>
        <time>2017-01-15T09:50:51.639Z</time>
      </trkpt>
      <trkpt lat="47.79658" lon="2.1891">
        <ele>106</ele>
        <time>2017-01-15T09:50:52.668Z</time>
      </trkpt>
      <trkpt lat="47.79663" lon="2.18895">
        <ele>105</ele>
        <time>2017-01-15T09:50:53.658Z</time>
      </trkpt>
      <trkpt lat="47.79663" lon="2.18895">
        <ele>105</ele>
        <time>2017-01-15T09:50:54.666Z</time>
      </trkpt>
      <trkpt lat="47.79668" lon="2.18879">
        <ele>105</ele>
        <time>2017-01-15T09:50:55.666Z</time>
      </trkpt>
      <trkpt lat="47.79668" lon="2.18879">
        <ele>105</ele>
        <time>2017-01-15T09:50:56.664Z</time>
      </trkpt>
      <trkpt lat="47.79674" lon="2.18863">
        <ele>104</ele>
        <time>2017-01-15T09:50:57.630Z</time>
      </trkpt>
      <trkpt lat="47.79674" lon="2.18863">
        <ele>104</ele>
        <time>2017-01-15T09:50:58.661Z</time>
      </trkpt>
      <trkpt lat="47.79682" lon="2.18848">
        <ele>104</ele>
        <time>2017-01-15T09:50:59.649Z</time>
      </trkpt>
      <trkpt lat="47.79682" lon="2.18848">
        <ele>104</ele>
        <time>2017-01-15T09:51:00.637Z</time>
      </trkpt>
      <trkpt lat="47.79693" lon="2.18834">
        <ele>103</ele>
        <time>2017-01-15T09:51:01.628Z</time>
      </trkpt>
      <trkpt lat="47.79699" lon="2.18828">
        <ele>102</ele>
        <time>2017-01-15T09:51:02.628Z</time>
      </trkpt>
      <trkpt lat="47.79705" lon="2.18823">
        <ele>101</ele>
        <time>2017-01-15T09:51:03.660Z</time>
      </trkpt>
      <trkpt lat="47.79705" lon="2.18823">
        <ele>101</ele>
        <time>2017-01-15T09:51:04.647Z</time>
      </trkpt>
      <trkpt lat="47.79717" lon="2.18815">
        <ele>101</ele>
        <time>2017-01-15T09:51:05.638Z</time>
      </trkpt>
      <trkpt lat="47.79717" lon="2.18815">
        <ele>101</ele>
        <time>2017-01-15T09:51:06.666Z</time>
      </trkpt>
      <trkpt lat="47.7973" lon="2.18811">
        <ele>100</ele>
        <time>2017-01-15T09:51:07.661Z</time>
      </trkpt>
      <trkpt lat="47.79735" lon="2.18809">
        <ele>100</ele>
        <time>2017-01-15T09:51:08.648Z</time>
      </trkpt>
      <trkpt lat="47.79741" lon="2.18806">
        <ele>100</ele>
        <time>2017-01-15T09:51:09.644Z</time>
      </trkpt>
      <trkpt lat="47.79741" lon="2.18806">
        <ele>100</ele>
        <time>2017-01-15T09:51:10.632Z</time>
      </trkpt>
      <trkpt lat="47.7975" lon="2.18794">
        <ele>99</ele>
        <time>2017-01-15T09:51:11.661Z</time>
      </trkpt>
      <trkpt lat="47.7975" lon="2.18794">
        <ele>99</ele>
        <time>2017-01-15T09:51:12.649Z</time>
      </trkpt>
      <trkpt lat="47.79757" lon="2.18779">
        <ele>99</ele>
        <time>2017-01-15T09:51:13.637Z</time>
      </trkpt>
      <trkpt lat="47.79757" lon="2.18779">
        <ele>99</ele>
        <time>2017-01-15T09:51:14.661Z</time>
      </trkpt>
      <trkpt lat="47.79763" lon="2.18764">
        <ele>99</ele>
        <time>2017-01-15T09:51:15.651Z</time>
      </trkpt>
      <trkpt lat="47.79766" lon="2.18756">
        <ele>99</ele>
        <time>2017-01-15T09:51:16.657Z</time>
      </trkpt>
      <trkpt lat="47.79769" lon="2.18748">
        <ele>99</ele>
        <time>2017-01-15T09:51:17.649Z</time>
      </trkpt>
      <trkpt lat="47.79769" lon="2.18748">
        <ele>99</ele>
        <time>2017-01-15T09:51:18.644Z</time>
      </trkpt>
      <trkpt lat="47.79776" lon="2.18733">
        <ele>100</ele>
        <time>2017-01-15T09:51:19.634Z</time>
      </trkpt>
      <trkpt lat="47.79776" lon="2.18733">
        <ele>100</ele>
        <time>2017-01-15T09:51:20.662Z</time>
      </trkpt>
      <trkpt lat="47.79781" lon="2.18717">
        <ele>100</ele>
        <time>2017-01-15T09:51:21.650Z</time>
      </trkpt>
      <trkpt lat="47.79784" lon="2.18709">
        <ele>100</ele>
        <time>2017-01-15T09:51:22.647Z</time>
      </trkpt>
      <trkpt lat="47.79788" lon="2.18701">
        <ele>100</ele>
        <time>2017-01-15T09:51:23.634Z</time>
      </trkpt>
      <trkpt lat="47.79788" lon="2.18701">
        <ele>100</ele>
        <time>2017-01-15T09:51:24.667Z</time>
      </trkpt>
      <trkpt lat="47.79794" lon="2.18683">
        <ele>100</ele>
        <time>2017-01-15T09:51:25.656Z</time>
      </trkpt>
      <trkpt lat="47.79794" lon="2.18683">
        <ele>100</ele>
        <time>2017-01-15T09:51:26.644Z</time>
      </trkpt>
      <trkpt lat="47.79801" lon="2.18666">
        <ele>100</ele>
        <time>2017-01-15T09:51:27.632Z</time>
      </trkpt>
      <trkpt lat="47.79804" lon="2.18658">
        <ele>100</ele>
        <time>2017-01-15T09:51:28.629Z</time>
      </trkpt>
      <trkpt lat="47.79804" lon="2.18658">
        <ele>100</ele>
        <time>2017-01-15T09:51:29.659Z</time>
      </trkpt>
      <trkpt lat="47.79811" lon="2.18642">
        <ele>100</ele>
        <time>2017-01-15T09:51:30.650Z</time>
      </trkpt>
      <trkpt lat="47.79811" lon="2.18642">
        <ele>100</ele>
        <time>2017-01-15T09:51:31.637Z</time>
      </trkpt>
      <trkpt lat="47.79817" lon="2.18627">
        <ele>100</ele>
        <time>2017-01-15T09:51:32.628Z</time>
      </trkpt>
      <trkpt lat="47.7982" lon="2.1862">
        <ele>100</ele>
        <time>2017-01-15T09:51:33.666Z</time>
      </trkpt>
      <trkpt lat="47.79822" lon="2.18614">
        <ele>100</ele>
        <time>2017-01-15T09:51:34.667Z</time>
      </trkpt>
      <trkpt lat="47.79822" lon="2.18614">
        <ele>100</ele>
        <time>2017-01-15T09:51:35.652Z</time>
      </trkpt>
      <trkpt lat="47.79828" lon="2.18601">
        <ele>101</ele>
        <time>2017-01-15T09:51:36.640Z</time>
      </trkpt>
      <trkpt lat="47.79828" lon="2.18601">
        <ele>101</ele>
        <time>2017-01-15T09:51:37.667Z</time>
      </trkpt>
      <trkpt lat="47.79836" lon="2.18589">
        <ele>101</ele>
        <time>2017-01-15T09:51:38.654Z</time>
      </trkpt>
      <trkpt lat="47.79836" lon="2.18589">
        <ele>101</ele>
        <time>2017-01-15T09:51:39.641Z</time>
      </trkpt>
      <trkpt lat="47.79843" lon="2.18575">
        <ele>101</ele>
        <time>2017-01-15T09:51:40.653Z</time>
      </trkpt>
      <trkpt lat="47.79846" lon="2.18569">
        <ele>102</ele>
        <time>2017-01-15T09:51:41.641Z</time>
      </trkpt>
      <trkpt lat="47.79846" lon="2.18569">
        <ele>102</ele>
        <time>2017-01-15T09:51:42.629Z</time>
      </trkpt>
      <trkpt lat="47.79852" lon="2.18554">
        <ele>103</ele>
        <time>2017-01-15T09:51:43.628Z</time>
      </trkpt>
      <trkpt lat="47.79852" lon="2.18554">
        <ele>103</ele>
        <time>2017-01-15T09:51:44.667Z</time>
      </trkpt>
      <trkpt lat="47.79859" lon="2.18539">
        <ele>103</ele>
        <time>2017-01-15T09:51:45.649Z</time>
      </trkpt>
      <trkpt lat="47.79859" lon="2.18539">
        <ele>103</ele>
        <time>2017-01-15T09:51:46.639Z</time>
      </trkpt>
      <trkpt lat="47.79865" lon="2.18522">
        <ele>103</ele>
        <time>2017-01-15T09:51:47.630Z</time>
      </trkpt>
      <trkpt lat="47.79865" lon="2.18522">
        <ele>103</ele>
        <time>2017-01-15T09:51:48.662Z</time>
      </trkpt>
      <trkpt lat="47.79873" lon="2.18507">
        <ele>103</ele>
        <time>2017-01-15T09:51:49.651Z</time>
      </trkpt>
      <trkpt lat="47.79876" lon="2.18499">
        <ele>103</ele>
        <time>2017-01-15T09:51:50.639Z</time>
      </trkpt>
      <trkpt lat="47.79876" lon="2.18499">
        <ele>103</ele>
        <time>2017-01-15T09:51:51.667Z</time>
      </trkpt>
      <trkpt lat="47.79883" lon="2.18482">
        <ele>103</ele>
        <time>2017-01-15T09:51:52.666Z</time>
      </trkpt>
      <trkpt lat="47.79886" lon="2.18473">
        <ele>103</ele>
        <time>2017-01-15T09:51:53.666Z</time>
      </trkpt>
      <trkpt lat="47.79889" lon="2.18465">
        <ele>103</ele>
        <time>2017-01-15T09:51:54.656Z</time>
      </trkpt>
      <trkpt lat="47.79889" lon="2.18465">
        <ele>103</ele>
        <time>2017-01-15T09:51:55.636Z</time>
      </trkpt>
      <trkpt lat="47.79893" lon="2.18446">
        <ele>103</ele>
        <time>2017-01-15T09:51:56.667Z</time>
      </trkpt>
      <trkpt lat="47.79893" lon="2.18446">
        <ele>103</ele>
        <time>2017-01-15T09:51:57.655Z</time>
      </trkpt>
      <trkpt lat="47.79897" lon="2.18428">
        <ele>104</ele>
        <time>2017-01-15T09:51:58.642Z</time>
      </trkpt>
      <trkpt lat="47.79899" lon="2.18419">
        <ele>104</ele>
        <time>2017-01-15T09:51:59.629Z</time>
      </trkpt>
      <trkpt lat="47.79899" lon="2.18419">
        <ele>104</ele>
        <time>2017-01-15T09:52:00.667Z</time>
      </trkpt>
      <trkpt lat="47.79903" lon="2.18402">
        <ele>106</ele>
        <time>2017-01-15T09:52:01.636Z</time>
      </trkpt>
      <trkpt lat="47.79905" lon="2.18393">
        <ele>106</ele>
        <time>2017-01-15T09:52:02.628Z</time>
      </trkpt>
      <trkpt lat="47.79905" lon="2.18393">
        <ele>106</ele>
        <time>2017-01-15T09:52:03.661Z</time>
      </trkpt>
      <trkpt lat="47.79909" lon="2.18375">
        <ele>106</ele>
        <time>2017-01-15T09:52:04.651Z</time>
      </trkpt>
      <trkpt lat="47.79909" lon="2.18375">
        <ele>106</ele>
        <time>2017-01-15T09:52:05.664Z</time>
      </trkpt>
      <trkpt lat="47.79913" lon="2.18356">
        <ele>105</ele>
        <time>2017-01-15T09:52:06.666Z</time>
      </trkpt>
      <trkpt lat="47.79915" lon="2.18346">
        <ele>106</ele>
        <time>2017-01-15T09:52:07.635Z</time>
      </trkpt>
      <trkpt lat="47.79915" lon="2.18346">
        <ele>106</ele>
        <time>2017-01-15T09:52:08.667Z</time>
      </trkpt>
      <trkpt lat="47.79919" lon="2.18327">
        <ele>106</ele>
        <time>2017-01-15T09:52:09.659Z</time>
      </trkpt>
      <trkpt lat="47.79921" lon="2.18319">
        <ele>106</ele>
        <time>2017-01-15T09:52:10.648Z</time>
      </trkpt>
      <trkpt lat="47.79921" lon="2.18319">
        <ele>106</ele>
        <time>2017-01-15T09:52:11.636Z</time>
      </trkpt>
      <trkpt lat="47.79925" lon="2.183">
        <ele>106</ele>
        <time>2017-01-15T09:52:12.634Z</time>
      </trkpt>
      <trkpt lat="47.79927" lon="2.18291">
        <ele>106</ele>
        <time>2017-01-15T09:52:13.667Z</time>
      </trkpt>
      <trkpt lat="47.79927" lon="2.18291">
        <ele>106</ele>
        <time>2017-01-15T09:52:14.635Z</time>
      </trkpt>
      <trkpt lat="47.7993" lon="2.18273">
        <ele>106</ele>
        <time>2017-01-15T09:52:15.640Z</time>
      </trkpt>
      <trkpt lat="47.79932" lon="2.18264">
        <ele>107</ele>
        <time>2017-01-15T09:52:16.646Z</time>
      </trkpt>
      <trkpt lat="47.79932" lon="2.18264">
        <ele>107</ele>
        <time>2017-01-15T09:52:17.653Z</time>
      </trkpt>
      <trkpt lat="47.79937" lon="2.18246">
        <ele>107</ele>
        <time>2017-01-15T09:52:18.645Z</time>
      </trkpt>
      <trkpt lat="47.79937" lon="2.18246">
        <ele>107</ele>
        <time>2017-01-15T09:52:19.633Z</time>
      </trkpt>
      <trkpt lat="47.79941" lon="2.18227">
        <ele>108</ele>
        <time>2017-01-15T09:52:20.663Z</time>
      </trkpt>
      <trkpt lat="47.79944" lon="2.18218">
        <ele>108</ele>
        <time>2017-01-15T09:52:21.651Z</time>
      </trkpt>
      <trkpt lat="47.79944" lon="2.18218">
        <ele>108</ele>
        <time>2017-01-15T09:52:22.643Z</time>
      </trkpt>
      <trkpt lat="47.79948" lon="2.18199">
        <ele>108</ele>
        <time>2017-01-15T09:52:23.631Z</time>
      </trkpt>
      <trkpt lat="47.79948" lon="2.18199">
        <ele>108</ele>
        <time>2017-01-15T09:52:24.667Z</time>
      </trkpt>
      <trkpt lat="47.79952" lon="2.1818">
        <ele>108</ele>
        <time>2017-01-15T09:52:25.631Z</time>
      </trkpt>
      <trkpt lat="47.79952" lon="2.1818">
        <ele>108</ele>
        <time>2017-01-15T09:52:26.664Z</time>
      </trkpt>
      <trkpt lat="47.79956" lon="2.18161">
        <ele>108</ele>
        <time>2017-01-15T09:52:27.653Z</time>
      </trkpt>
      <trkpt lat="47.79956" lon="2.18161">
        <ele>108</ele>
        <time>2017-01-15T09:52:28.640Z</time>
      </trkpt>
      <trkpt lat="47.7996" lon="2.18143">
        <ele>108</ele>
        <time>2017-01-15T09:52:29.631Z</time>
      </trkpt>
      <trkpt lat="47.7996" lon="2.18143">
        <ele>108</ele>
        <time>2017-01-15T09:52:30.661Z</time>
      </trkpt>
      <trkpt lat="47.79965" lon="2.18122">
        <ele>108</ele>
        <time>2017-01-15T09:52:31.649Z</time>
      </trkpt>
      <trkpt lat="47.79965" lon="2.18122">
        <ele>108</ele>
        <time>2017-01-15T09:52:32.637Z</time>
      </trkpt>
      <trkpt lat="47.79968" lon="2.18101">
        <ele>108</ele>
        <time>2017-01-15T09:52:33.634Z</time>
      </trkpt>
      <trkpt lat="47.79971" lon="2.1809">
        <ele>108</ele>
        <time>2017-01-15T09:52:34.629Z</time>
      </trkpt>
      <trkpt lat="47.79972" lon="2.18079">
        <ele>108</ele>
        <time>2017-01-15T09:52:35.629Z</time>
      </trkpt>
      <trkpt lat="47.79972" lon="2.18079">
        <ele>108</ele>
        <time>2017-01-15T09:52:36.661Z</time>
      </trkpt>
      <trkpt lat="47.79977" lon="2.18059">
        <ele>107</ele>
        <time>2017-01-15T09:52:37.652Z</time>
      </trkpt>
      <trkpt lat="47.79977" lon="2.18059">
        <ele>107</ele>
        <time>2017-01-15T09:52:38.638Z</time>
      </trkpt>
      <trkpt lat="47.79983" lon="2.18039">
        <ele>107</ele>
        <time>2017-01-15T09:52:39.628Z</time>
      </trkpt>
      <trkpt lat="47.79983" lon="2.18039">
        <ele>107</ele>
        <time>2017-01-15T09:52:40.652Z</time>
      </trkpt>
      <trkpt lat="47.79989" lon="2.18019">
        <ele>107</ele>
        <time>2017-01-15T09:52:41.640Z</time>
      </trkpt>
      <trkpt lat="47.79989" lon="2.18019">
        <ele>107</ele>
        <time>2017-01-15T09:52:42.628Z</time>
      </trkpt>
      <trkpt lat="47.79993" lon="2.17999">
        <ele>107</ele>
        <time>2017-01-15T09:52:43.629Z</time>
      </trkpt>
      <trkpt lat="47.79993" lon="2.17999">
        <ele>107</ele>
        <time>2017-01-15T09:52:44.661Z</time>
      </trkpt>
      <trkpt lat="47.79998" lon="2.1798">
        <ele>108</ele>
        <time>2017-01-15T09:52:45.651Z</time>
      </trkpt>
      <trkpt lat="47.79998" lon="2.1798">
        <ele>108</ele>
        <time>2017-01-15T09:52:46.639Z</time>
      </trkpt>
      <trkpt lat="47.80003" lon="2.17961">
        <ele>109</ele>
        <time>2017-01-15T09:52:47.632Z</time>
      </trkpt>
      <trkpt lat="47.80003" lon="2.17961">
        <ele>109</ele>
        <time>2017-01-15T09:52:48.660Z</time>
      </trkpt>
      <trkpt lat="47.80006" lon="2.17942">
        <ele>110</ele>
        <time>2017-01-15T09:52:49.649Z</time>
      </trkpt>
      <trkpt lat="47.80006" lon="2.17942">
        <ele>110</ele>
        <time>2017-01-15T09:52:50.637Z</time>
      </trkpt>
      <trkpt lat="47.8001" lon="2.17922">
        <ele>111</ele>
        <time>2017-01-15T09:52:51.628Z</time>
      </trkpt>
      <trkpt lat="47.80013" lon="2.17914">
        <ele>111</ele>
        <time>2017-01-15T09:52:52.662Z</time>
      </trkpt>
      <trkpt lat="47.80015" lon="2.17905">
        <ele>111</ele>
        <time>2017-01-15T09:52:53.650Z</time>
      </trkpt>
      <trkpt lat="47.80015" lon="2.17905">
        <ele>111</ele>
        <time>2017-01-15T09:52:54.644Z</time>
      </trkpt>
      <trkpt lat="47.80018" lon="2.17887">
        <ele>112</ele>
        <time>2017-01-15T09:52:55.632Z</time>
      </trkpt>
      <trkpt lat="47.80018" lon="2.17887">
        <ele>112</ele>
        <time>2017-01-15T09:52:56.665Z</time>
      </trkpt>
      <trkpt lat="47.80022" lon="2.1787">
        <ele>113</ele>
        <time>2017-01-15T09:52:57.667Z</time>
      </trkpt>
      <trkpt lat="47.80025" lon="2.17862">
        <ele>114</ele>
        <time>2017-01-15T09:52:58.667Z</time>
      </trkpt>
      <trkpt lat="47.80027" lon="2.17854">
        <ele>114</ele>
        <time>2017-01-15T09:52:59.656Z</time>
      </trkpt>
      <trkpt lat="47.80027" lon="2.17854">
        <ele>114</ele>
        <time>2017-01-15T09:53:00.667Z</time>
      </trkpt>
      <trkpt lat="47.80032" lon="2.17837">
        <ele>115</ele>
        <time>2017-01-15T09:53:01.630Z</time>
      </trkpt>
      <trkpt lat="47.80032" lon="2.17837">
        <ele>115</ele>
        <time>2017-01-15T09:53:02.661Z</time>
      </trkpt>
      <trkpt lat="47.80036" lon="2.17821">
        <ele>115</ele>
        <time>2017-01-15T09:53:03.652Z</time>
      </trkpt>
      <trkpt lat="47.80036" lon="2.17821">
        <ele>115</ele>
        <time>2017-01-15T09:53:04.638Z</time>
      </trkpt>
      <trkpt lat="47.8004" lon="2.17803">
        <ele>116</ele>
        <time>2017-01-15T09:53:05.630Z</time>
      </trkpt>
      <trkpt lat="47.8004" lon="2.17803">
        <ele>116</ele>
        <time>2017-01-15T09:53:06.661Z</time>
      </trkpt>
      <trkpt lat="47.80044" lon="2.17785">
        <ele>116</ele>
        <time>2017-01-15T09:53:07.648Z</time>
      </trkpt>
      <trkpt lat="47.80044" lon="2.17785">
        <ele>116</ele>
        <time>2017-01-15T09:53:08.638Z</time>
      </trkpt>
      <trkpt lat="47.80052" lon="2.17768">
        <ele>116</ele>
        <time>2017-01-15T09:53:09.628Z</time>
      </trkpt>
      <trkpt lat="47.80052" lon="2.17768">
        <ele>116</ele>
        <time>2017-01-15T09:53:10.660Z</time>
      </trkpt>
      <trkpt lat="47.8006" lon="2.1775">
        <ele>116</ele>
        <time>2017-01-15T09:53:11.653Z</time>
      </trkpt>
      <trkpt lat="47.8006" lon="2.1775">
        <ele>116</ele>
        <time>2017-01-15T09:53:12.644Z</time>
      </trkpt>
      <trkpt lat="47.80067" lon="2.17735">
        <ele>115</ele>
        <time>2017-01-15T09:53:13.634Z</time>
      </trkpt>
      <trkpt lat="47.80067" lon="2.17735">
        <ele>115</ele>
        <time>2017-01-15T09:53:14.629Z</time>
      </trkpt>
      <trkpt lat="47.80074" lon="2.17721">
        <ele>115</ele>
        <time>2017-01-15T09:53:15.638Z</time>
      </trkpt>
      <trkpt lat="47.80074" lon="2.17721">
        <ele>115</ele>
        <time>2017-01-15T09:53:16.644Z</time>
      </trkpt>
      <trkpt lat="47.80082" lon="2.17708">
        <ele>115</ele>
        <time>2017-01-15T09:53:17.634Z</time>
      </trkpt>
      <trkpt lat="47.80082" lon="2.17708">
        <ele>115</ele>
        <time>2017-01-15T09:53:18.661Z</time>
      </trkpt>
      <trkpt lat="47.80088" lon="2.17693">
        <ele>115</ele>
        <time>2017-01-15T09:53:19.650Z</time>
      </trkpt>
      <trkpt lat="47.80088" lon="2.17693">
        <ele>115</ele>
        <time>2017-01-15T09:53:20.638Z</time>
      </trkpt>
      <trkpt lat="47.80092" lon="2.17678">
        <ele>115</ele>
        <time>2017-01-15T09:53:21.628Z</time>
      </trkpt>
      <trkpt lat="47.80094" lon="2.1767">
        <ele>115</ele>
        <time>2017-01-15T09:53:22.632Z</time>
      </trkpt>
      <trkpt lat="47.80096" lon="2.17663">
        <ele>115</ele>
        <time>2017-01-15T09:53:23.666Z</time>
      </trkpt>
      <trkpt lat="47.80096" lon="2.17663">
        <ele>115</ele>
        <time>2017-01-15T09:53:24.655Z</time>
      </trkpt>
      <trkpt lat="47.801" lon="2.17648">
        <ele>115</ele>
        <time>2017-01-15T09:53:25.643Z</time>
      </trkpt>
      <trkpt lat="47.801" lon="2.17648">
        <ele>115</ele>
        <time>2017-01-15T09:53:26.666Z</time>
      </trkpt>
      <trkpt lat="47.80104" lon="2.17634">
        <ele>116</ele>
        <time>2017-01-15T09:53:27.667Z</time>
      </trkpt>
      <trkpt lat="47.80106" lon="2.17628">
        <ele>116</ele>
        <time>2017-01-15T09:53:28.658Z</time>
      </trkpt>
      <trkpt lat="47.80108" lon="2.17621">
        <ele>116</ele>
        <time>2017-01-15T09:53:29.646Z</time>
      </trkpt>
      <trkpt lat="47.80108" lon="2.17621">
        <ele>116</ele>
        <time>2017-01-15T09:53:30.638Z</time>
      </trkpt>
      <trkpt lat="47.80111" lon="2.17606">
        <ele>116</ele>
        <time>2017-01-15T09:53:31.628Z</time>
      </trkpt>
      <trkpt lat="47.80112" lon="2.17597">
        <ele>116</ele>
        <time>2017-01-15T09:53:32.628Z</time>
      </trkpt>
      <trkpt lat="47.80112" lon="2.17597">
        <ele>116</ele>
        <time>2017-01-15T09:53:33.659Z</time>
      </trkpt>
      <trkpt lat="47.80115" lon="2.17582">
        <ele>117</ele>
        <time>2017-01-15T09:53:34.660Z</time>
      </trkpt>
      <trkpt lat="47.80116" lon="2.17575">
        <ele>117</ele>
        <time>2017-01-15T09:53:35.651Z</time>
      </trkpt>
      <trkpt lat="47.80116" lon="2.17575">
        <ele>117</ele>
        <time>2017-01-15T09:53:36.634Z</time>
      </trkpt>
      <trkpt lat="47.80119" lon="2.1756">
        <ele>117</ele>
        <time>2017-01-15T09:53:37.628Z</time>
      </trkpt>
      <trkpt lat="47.80121" lon="2.17553">
        <ele>118</ele>
        <time>2017-01-15T09:53:38.661Z</time>
      </trkpt>
      <trkpt lat="47.80122" lon="2.17545">
        <ele>118</ele>
        <time>2017-01-15T09:53:39.650Z</time>
      </trkpt>
      <trkpt lat="47.80122" lon="2.17545">
        <ele>118</ele>
        <time>2017-01-15T09:53:40.637Z</time>
      </trkpt>
      <trkpt lat="47.80125" lon="2.17527">
        <ele>119</ele>
        <time>2017-01-15T09:53:41.666Z</time>
      </trkpt>
      <trkpt lat="47.80125" lon="2.17527">
        <ele>119</ele>
        <time>2017-01-15T09:53:42.655Z</time>
      </trkpt>
      <trkpt lat="47.80125" lon="2.17508">
        <ele>120</ele>
        <time>2017-01-15T09:53:43.643Z</time>
      </trkpt>
      <trkpt lat="47.80125" lon="2.17508">
        <ele>120</ele>
        <time>2017-01-15T09:53:44.630Z</time>
      </trkpt>
      <trkpt lat="47.80127" lon="2.17491">
        <ele>120</ele>
        <time>2017-01-15T09:53:45.664Z</time>
      </trkpt>
      <trkpt lat="47.80128" lon="2.17482">
        <ele>120</ele>
        <time>2017-01-15T09:53:46.641Z</time>
      </trkpt>
      <trkpt lat="47.80128" lon="2.17482">
        <ele>120</ele>
        <time>2017-01-15T09:53:47.630Z</time>
      </trkpt>
      <trkpt lat="47.80128" lon="2.17466">
        <ele>120</ele>
        <time>2017-01-15T09:53:48.663Z</time>
      </trkpt>
      <trkpt lat="47.80129" lon="2.17457">
        <ele>120</ele>
        <time>2017-01-15T09:53:49.652Z</time>
      </trkpt>
      <trkpt lat="47.80129" lon="2.17457">
        <ele>120</ele>
        <time>2017-01-15T09:53:50.640Z</time>
      </trkpt>
      <trkpt lat="47.8013" lon="2.17441">
        <ele>121</ele>
        <time>2017-01-15T09:53:51.630Z</time>
      </trkpt>
      <trkpt lat="47.8013" lon="2.17441">
        <ele>121</ele>
        <time>2017-01-15T09:53:52.658Z</time>
      </trkpt>
      <trkpt lat="47.80132" lon="2.17424">
        <ele>121</ele>
        <time>2017-01-15T09:53:53.646Z</time>
      </trkpt>
      <trkpt lat="47.80132" lon="2.17424">
        <ele>121</ele>
        <time>2017-01-15T09:53:54.633Z</time>
      </trkpt>
      <trkpt lat="47.80133" lon="2.17408">
        <ele>121</ele>
        <time>2017-01-15T09:53:55.628Z</time>
      </trkpt>
      <trkpt lat="47.80133" lon="2.17408">
        <ele>121</ele>
        <time>2017-01-15T09:53:56.630Z</time>
      </trkpt>
      <trkpt lat="47.80135" lon="2.17393">
        <ele>122</ele>
        <time>2017-01-15T09:53:57.630Z</time>
      </trkpt>
      <trkpt lat="47.80136" lon="2.17385">
        <ele>122</ele>
        <time>2017-01-15T09:53:58.662Z</time>
      </trkpt>
      <trkpt lat="47.80136" lon="2.17385">
        <ele>122</ele>
        <time>2017-01-15T09:53:59.649Z</time>
      </trkpt>
      <trkpt lat="47.80138" lon="2.17371">
        <ele>122</ele>
        <time>2017-01-15T09:54:00.637Z</time>
      </trkpt>
      <trkpt lat="47.80138" lon="2.17371">
        <ele>122</ele>
        <time>2017-01-15T09:54:01.628Z</time>
      </trkpt>
      <trkpt lat="47.80141" lon="2.17355">
        <ele>123</ele>
        <time>2017-01-15T09:54:02.629Z</time>
      </trkpt>
      <trkpt lat="47.80141" lon="2.17355">
        <ele>123</ele>
        <time>2017-01-15T09:54:03.658Z</time>
      </trkpt>
      <trkpt lat="47.80143" lon="2.17339">
        <ele>124</ele>
        <time>2017-01-15T09:54:04.645Z</time>
      </trkpt>
      <trkpt lat="47.80146" lon="2.17332">
        <ele>124</ele>
        <time>2017-01-15T09:54:05.633Z</time>
      </trkpt>
      <trkpt lat="47.80146" lon="2.17332">
        <ele>124</ele>
        <time>2017-01-15T09:54:06.663Z</time>
      </trkpt>
      <trkpt lat="47.80149" lon="2.17317">
        <ele>124</ele>
        <time>2017-01-15T09:54:07.655Z</time>
      </trkpt>
      <trkpt lat="47.8015" lon="2.17309">
        <ele>124</ele>
        <time>2017-01-15T09:54:08.642Z</time>
      </trkpt>
      <trkpt lat="47.8015" lon="2.17309">
        <ele>124</ele>
        <time>2017-01-15T09:54:09.652Z</time>
      </trkpt>
      <trkpt lat="47.80154" lon="2.17293">
        <ele>123</ele>
        <time>2017-01-15T09:54:10.639Z</time>
      </trkpt>
      <trkpt lat="47.80156" lon="2.17285">
        <ele>124</ele>
        <time>2017-01-15T09:54:11.629Z</time>
      </trkpt>
      <trkpt lat="47.80156" lon="2.17285">
        <ele>124</ele>
        <time>2017-01-15T09:54:12.660Z</time>
      </trkpt>
      <trkpt lat="47.80158" lon="2.17262">
        <ele>124</ele>
        <time>2017-01-15T09:54:13.659Z</time>
      </trkpt>
      <trkpt lat="47.80158" lon="2.17253">
        <ele>124</ele>
        <time>2017-01-15T09:54:14.658Z</time>
      </trkpt>
      <trkpt lat="47.80158" lon="2.17253">
        <ele>124</ele>
        <time>2017-01-15T09:54:15.645Z</time>
      </trkpt>
      <trkpt lat="47.8016" lon="2.17237">
        <ele>124</ele>
        <time>2017-01-15T09:54:16.651Z</time>
      </trkpt>
      <trkpt lat="47.80161" lon="2.17229">
        <ele>124</ele>
        <time>2017-01-15T09:54:17.661Z</time>
      </trkpt>
      <trkpt lat="47.80163" lon="2.1722">
        <ele>123</ele>
        <time>2017-01-15T09:54:18.649Z</time>
      </trkpt>
      <trkpt lat="47.80163" lon="2.1722">
        <ele>123</ele>
        <time>2017-01-15T09:54:19.638Z</time>
      </trkpt>
      <trkpt lat="47.80165" lon="2.17205">
        <ele>123</ele>
        <time>2017-01-15T09:54:20.629Z</time>
      </trkpt>
      <trkpt lat="47.80166" lon="2.17198">
        <ele>123</ele>
        <time>2017-01-15T09:54:21.628Z</time>
      </trkpt>
      <trkpt lat="47.80166" lon="2.17198">
        <ele>123</ele>
        <time>2017-01-15T09:54:22.630Z</time>
      </trkpt>
      <trkpt lat="47.80168" lon="2.17184">
        <ele>123</ele>
        <time>2017-01-15T09:54:23.628Z</time>
      </trkpt>
      <trkpt lat="47.80168" lon="2.17184">
        <ele>123</ele>
        <time>2017-01-15T09:54:24.659Z</time>
      </trkpt>
      <trkpt lat="47.80171" lon="2.17169">
        <ele>123</ele>
        <time>2017-01-15T09:54:25.653Z</time>
      </trkpt>
      <trkpt lat="47.80171" lon="2.17169">
        <ele>123</ele>
        <time>2017-01-15T09:54:26.641Z</time>
      </trkpt>
      <trkpt lat="47.80174" lon="2.17154">
        <ele>123</ele>
        <time>2017-01-15T09:54:27.630Z</time>
      </trkpt>
      <trkpt lat="47.80174" lon="2.17154">
        <ele>123</ele>
        <time>2017-01-15T09:54:28.661Z</time>
      </trkpt>
      <trkpt lat="47.80178" lon="2.17139">
        <ele>122</ele>
        <time>2017-01-15T09:54:29.654Z</time>
      </trkpt>
      <trkpt lat="47.80178" lon="2.17139">
        <ele>122</ele>
        <time>2017-01-15T09:54:30.644Z</time>
      </trkpt>
      <trkpt lat="47.80181" lon="2.17125">
        <ele>121</ele>
        <time>2017-01-15T09:54:31.633Z</time>
      </trkpt>
      <trkpt lat="47.80181" lon="2.17125">
        <ele>121</ele>
        <time>2017-01-15T09:54:32.661Z</time>
      </trkpt>
      <trkpt lat="47.80185" lon="2.1711">
        <ele>121</ele>
        <time>2017-01-15T09:54:33.650Z</time>
      </trkpt>
      <trkpt lat="47.80185" lon="2.1711">
        <ele>121</ele>
        <time>2017-01-15T09:54:34.637Z</time>
      </trkpt>
      <trkpt lat="47.80189" lon="2.17097">
        <ele>120</ele>
        <time>2017-01-15T09:54:35.667Z</time>
      </trkpt>
      <trkpt lat="47.80189" lon="2.17097">
        <ele>120</ele>
        <time>2017-01-15T09:54:36.658Z</time>
      </trkpt>
      <trkpt lat="47.80192" lon="2.17084">
        <ele>120</ele>
        <time>2017-01-15T09:54:37.648Z</time>
      </trkpt>
      <trkpt lat="47.80193" lon="2.17077">
        <ele>119</ele>
        <time>2017-01-15T09:54:38.637Z</time>
      </trkpt>
      <trkpt lat="47.80193" lon="2.17077">
        <ele>119</ele>
        <time>2017-01-15T09:54:39.667Z</time>
      </trkpt>
      <trkpt lat="47.80197" lon="2.17062">
        <ele>119</ele>
        <time>2017-01-15T09:54:40.631Z</time>
      </trkpt>
      <trkpt lat="47.80198" lon="2.17055">
        <ele>119</ele>
        <time>2017-01-15T09:54:41.649Z</time>
      </trkpt>
      <trkpt lat="47.80198" lon="2.17055">
        <ele>119</ele>
        <time>2017-01-15T09:54:42.637Z</time>
      </trkpt>
      <trkpt lat="47.80202" lon="2.1704">
        <ele>119</ele>
        <time>2017-01-15T09:54:43.667Z</time>
      </trkpt>
      <trkpt lat="47.80204" lon="2.17033">
        <ele>118</ele>
        <time>2017-01-15T09:54:44.632Z</time>
      </trkpt>
      <trkpt lat="47.80204" lon="2.17033">
        <ele>118</ele>
        <time>2017-01-15T09:54:45.660Z</time>
      </trkpt>
      <trkpt lat="47.80206" lon="2.17021">
        <ele>118</ele>
        <time>2017-01-15T09:54:46.656Z</time>
      </trkpt>
      <trkpt lat="47.80207" lon="2.17015">
        <ele>118</ele>
        <time>2017-01-15T09:54:47.644Z</time>
      </trkpt>
      <trkpt lat="47.80207" lon="2.17015">
        <ele>118</ele>
        <time>2017-01-15T09:54:48.634Z</time>
      </trkpt>
      <trkpt lat="47.80208" lon="2.17004">
        <ele>119</ele>
        <time>2017-01-15T09:54:49.663Z</time>
      </trkpt>
      <trkpt lat="47.80208" lon="2.16998">
        <ele>119</ele>
        <time>2017-01-15T09:54:50.652Z</time>
      </trkpt>
      <trkpt lat="47.80208" lon="2.16998">
        <ele>119</ele>
        <time>2017-01-15T09:54:51.640Z</time>
      </trkpt>
      <trkpt lat="47.80208" lon="2.16986">
        <ele>119</ele>
        <time>2017-01-15T09:54:52.631Z</time>
      </trkpt>
      <trkpt lat="47.80208" lon="2.1698">
        <ele>119</ele>
        <time>2017-01-15T09:54:53.659Z</time>
      </trkpt>
      <trkpt lat="47.80208" lon="2.1698">
        <ele>119</ele>
        <time>2017-01-15T09:54:54.650Z</time>
      </trkpt>
      <trkpt lat="47.80209" lon="2.16968">
        <ele>119</ele>
        <time>2017-01-15T09:54:55.638Z</time>
      </trkpt>
      <trkpt lat="47.80209" lon="2.16968">
        <ele>119</ele>
        <time>2017-01-15T09:54:56.628Z</time>
      </trkpt>
      <trkpt lat="47.80209" lon="2.16956">
        <ele>119</ele>
        <time>2017-01-15T09:54:57.662Z</time>
      </trkpt>
      <trkpt lat="47.80209" lon="2.16949">
        <ele>119</ele>
        <time>2017-01-15T09:54:58.650Z</time>
      </trkpt>
      <trkpt lat="47.80209" lon="2.16949">
        <ele>119</ele>
        <time>2017-01-15T09:54:59.637Z</time>
      </trkpt>
      <trkpt lat="47.80209" lon="2.16937">
        <ele>119</ele>
        <time>2017-01-15T09:55:00.630Z</time>
      </trkpt>
      <trkpt lat="47.8021" lon="2.1693">
        <ele>119</ele>
        <time>2017-01-15T09:55:01.629Z</time>
      </trkpt>
      <trkpt lat="47.8021" lon="2.1693">
        <ele>119</ele>
        <time>2017-01-15T09:55:02.664Z</time>
      </trkpt>
      <trkpt lat="47.80215" lon="2.16916">
        <ele>118</ele>
        <time>2017-01-15T09:55:03.652Z</time>
      </trkpt>
      <trkpt lat="47.80215" lon="2.16916">
        <ele>118</ele>
        <time>2017-01-15T09:55:04.639Z</time>
      </trkpt>
      <trkpt lat="47.8022" lon="2.16904">
        <ele>116</ele>
        <time>2017-01-15T09:55:05.629Z</time>
      </trkpt>
      <trkpt lat="47.8022" lon="2.16904">
        <ele>116</ele>
        <time>2017-01-15T09:55:06.664Z</time>
      </trkpt>
      <trkpt lat="47.80225" lon="2.16893">
        <ele>116</ele>
        <time>2017-01-15T09:55:07.654Z</time>
      </trkpt>
      <trkpt lat="47.80225" lon="2.16893">
        <ele>116</ele>
        <time>2017-01-15T09:55:08.641Z</time>
      </trkpt>
      <trkpt lat="47.80229" lon="2.1688">
        <ele>116</ele>
        <time>2017-01-15T09:55:09.656Z</time>
      </trkpt>
      <trkpt lat="47.80229" lon="2.1688">
        <ele>116</ele>
        <time>2017-01-15T09:55:10.644Z</time>
      </trkpt>
      <trkpt lat="47.80234" lon="2.16866">
        <ele>114</ele>
        <time>2017-01-15T09:55:11.632Z</time>
      </trkpt>
      <trkpt lat="47.80234" lon="2.16866">
        <ele>114</ele>
        <time>2017-01-15T09:55:12.664Z</time>
      </trkpt>
      <trkpt lat="47.80237" lon="2.16853">
        <ele>114</ele>
        <time>2017-01-15T09:55:13.653Z</time>
      </trkpt>
      <trkpt lat="47.80237" lon="2.16853">
        <ele>114</ele>
        <time>2017-01-15T09:55:14.643Z</time>
      </trkpt>
      <trkpt lat="47.8024" lon="2.1684">
        <ele>114</ele>
        <time>2017-01-15T09:55:15.661Z</time>
      </trkpt>
      <trkpt lat="47.80241" lon="2.16834">
        <ele>114</ele>
        <time>2017-01-15T09:55:16.668Z</time>
      </trkpt>
      <trkpt lat="47.80242" lon="2.16829">
        <ele>114</ele>
        <time>2017-01-15T09:55:17.633Z</time>
      </trkpt>
      <trkpt lat="47.80242" lon="2.16829">
        <ele>114</ele>
        <time>2017-01-15T09:55:18.663Z</time>
      </trkpt>
      <trkpt lat="47.80243" lon="2.16818">
        <ele>114</ele>
        <time>2017-01-15T09:55:19.661Z</time>
      </trkpt>
      <trkpt lat="47.80244" lon="2.16813">
        <ele>113</ele>
        <time>2017-01-15T09:55:20.667Z</time>
      </trkpt>
      <trkpt lat="47.80244" lon="2.16813">
        <ele>113</ele>
        <time>2017-01-15T09:55:21.656Z</time>
      </trkpt>
      <trkpt lat="47.80246" lon="2.16802">
        <ele>112</ele>
        <time>2017-01-15T09:55:22.657Z</time>
      </trkpt>
      <trkpt lat="47.80246" lon="2.16802">
        <ele>112</ele>
        <time>2017-01-15T09:55:23.645Z</time>
      </trkpt>
      <trkpt lat="47.80249" lon="2.16792">
        <ele>110</ele>
        <time>2017-01-15T09:55:24.643Z</time>
      </trkpt>
      <trkpt lat="47.80251" lon="2.16787">
        <ele>109</ele>
        <time>2017-01-15T09:55:25.632Z</time>
      </trkpt>
      <trkpt lat="47.80251" lon="2.16787">
        <ele>109</ele>
        <time>2017-01-15T09:55:26.632Z</time>
      </trkpt>
      <trkpt lat="47.80253" lon="2.16776">
        <ele>108</ele>
        <time>2017-01-15T09:55:27.629Z</time>
      </trkpt>
      <trkpt lat="47.80253" lon="2.16776">
        <ele>108</ele>
        <time>2017-01-15T09:55:28.663Z</time>
      </trkpt>
      <trkpt lat="47.80256" lon="2.16767">
        <ele>108</ele>
        <time>2017-01-15T09:55:29.664Z</time>
      </trkpt>
      <trkpt lat="47.80256" lon="2.16767">
        <ele>108</ele>
        <time>2017-01-15T09:55:30.652Z</time>
      </trkpt>
      <trkpt lat="47.8026" lon="2.16757">
        <ele>107</ele>
        <time>2017-01-15T09:55:31.640Z</time>
      </trkpt>
      <trkpt lat="47.8026" lon="2.16757">
        <ele>107</ele>
        <time>2017-01-15T09:55:32.628Z</time>
      </trkpt>
      <trkpt lat="47.80264" lon="2.16747">
        <ele>107</ele>
        <time>2017-01-15T09:55:33.662Z</time>
      </trkpt>
      <trkpt lat="47.80265" lon="2.16741">
        <ele>106</ele>
        <time>2017-01-15T09:55:34.650Z</time>
      </trkpt>
      <trkpt lat="47.80265" lon="2.16741">
        <ele>106</ele>
        <time>2017-01-15T09:55:35.637Z</time>
      </trkpt>
      <trkpt lat="47.80267" lon="2.16729">
        <ele>106</ele>
        <time>2017-01-15T09:55:36.642Z</time>
      </trkpt>
      <trkpt lat="47.80267" lon="2.16729">
        <ele>106</ele>
        <time>2017-01-15T09:55:37.662Z</time>
      </trkpt>
      <trkpt lat="47.80269" lon="2.16716">
        <ele>106</ele>
        <time>2017-01-15T09:55:38.650Z</time>
      </trkpt>
      <trkpt lat="47.80269" lon="2.16716">
        <ele>106</ele>
        <time>2017-01-15T09:55:39.637Z</time>
      </trkpt>
      <trkpt lat="47.80271" lon="2.16702">
        <ele>106</ele>
        <time>2017-01-15T09:55:40.630Z</time>
      </trkpt>
      <trkpt lat="47.80273" lon="2.16697">
        <ele>105</ele>
        <time>2017-01-15T09:55:41.656Z</time>
      </trkpt>
      <trkpt lat="47.80275" lon="2.16691">
        <ele>106</ele>
        <time>2017-01-15T09:55:42.644Z</time>
      </trkpt>
      <trkpt lat="47.80275" lon="2.16691">
        <ele>106</ele>
        <time>2017-01-15T09:55:43.632Z</time>
      </trkpt>
      <trkpt lat="47.80276" lon="2.16679">
        <ele>106</ele>
        <time>2017-01-15T09:55:44.662Z</time>
      </trkpt>
      <trkpt lat="47.80277" lon="2.1667">
        <ele>106</ele>
        <time>2017-01-15T09:55:45.652Z</time>
      </trkpt>
      <trkpt lat="47.80277" lon="2.1667">
        <ele>106</ele>
        <time>2017-01-15T09:55:46.655Z</time>
      </trkpt>
      <trkpt lat="47.80281" lon="2.16655">
        <ele>106</ele>
        <time>2017-01-15T09:55:47.629Z</time>
      </trkpt>
      <trkpt lat="47.80281" lon="2.16655">
        <ele>106</ele>
        <time>2017-01-15T09:55:48.660Z</time>
      </trkpt>
      <trkpt lat="47.80283" lon="2.16643">
        <ele>106</ele>
        <time>2017-01-15T09:55:49.650Z</time>
      </trkpt>
      <trkpt lat="47.80283" lon="2.16643">
        <ele>106</ele>
        <time>2017-01-15T09:55:50.638Z</time>
      </trkpt>
      <trkpt lat="47.80285" lon="2.16632">
        <ele>107</ele>
        <time>2017-01-15T09:55:51.629Z</time>
      </trkpt>
      <trkpt lat="47.80286" lon="2.16625">
        <ele>107</ele>
        <time>2017-01-15T09:55:52.651Z</time>
      </trkpt>
      <trkpt lat="47.80286" lon="2.16625">
        <ele>107</ele>
        <time>2017-01-15T09:55:53.638Z</time>
      </trkpt>
      <trkpt lat="47.80288" lon="2.1661">
        <ele>108</ele>
        <time>2017-01-15T09:55:54.630Z</time>
      </trkpt>
      <trkpt lat="47.80289" lon="2.16603">
        <ele>109</ele>
        <time>2017-01-15T09:55:55.628Z</time>
      </trkpt>
      <trkpt lat="47.80289" lon="2.16603">
        <ele>109</ele>
        <time>2017-01-15T09:55:56.633Z</time>
      </trkpt>
      <trkpt lat="47.80292" lon="2.1659">
        <ele>110</ele>
        <time>2017-01-15T09:55:57.644Z</time>
      </trkpt>
      <trkpt lat="47.80292" lon="2.16582">
        <ele>110</ele>
        <time>2017-01-15T09:55:58.634Z</time>
      </trkpt>
      <trkpt lat="47.80292" lon="2.16582">
        <ele>110</ele>
        <time>2017-01-15T09:55:59.661Z</time>
      </trkpt>
      <trkpt lat="47.80295" lon="2.16569">
        <ele>110</ele>
        <time>2017-01-15T09:56:00.633Z</time>
      </trkpt>
      <trkpt lat="47.80295" lon="2.16569">
        <ele>110</ele>
        <time>2017-01-15T09:56:01.662Z</time>
      </trkpt>
      <trkpt lat="47.80296" lon="2.16557">
        <ele>111</ele>
        <time>2017-01-15T09:56:02.661Z</time>
      </trkpt>
      <trkpt lat="47.80297" lon="2.16551">
        <ele>111</ele>
        <time>2017-01-15T09:56:03.655Z</time>
      </trkpt>
      <trkpt lat="47.80297" lon="2.16551">
        <ele>111</ele>
        <time>2017-01-15T09:56:04.642Z</time>
      </trkpt>
      <trkpt lat="47.80298" lon="2.16542">
        <ele>112</ele>
        <time>2017-01-15T09:56:05.632Z</time>
      </trkpt>
      <trkpt lat="47.80298" lon="2.16542">
        <ele>112</ele>
        <time>2017-01-15T09:56:06.628Z</time>
      </trkpt>
      <trkpt lat="47.80301" lon="2.16533">
        <ele>113</ele>
        <time>2017-01-15T09:56:07.633Z</time>
      </trkpt>
      <trkpt lat="47.80303" lon="2.16529">
        <ele>114</ele>
        <time>2017-01-15T09:56:08.628Z</time>
      </trkpt>
      <trkpt lat="47.80303" lon="2.16529">
        <ele>114</ele>
        <time>2017-01-15T09:56:09.657Z</time>
      </trkpt>
      <trkpt lat="47.80306" lon="2.1652">
        <ele>115</ele>
        <time>2017-01-15T09:56:10.645Z</time>
      </trkpt>
      <trkpt lat="47.80308" lon="2.16515">
        <ele>115</ele>
        <time>2017-01-15T09:56:11.635Z</time>
      </trkpt>
      <trkpt lat="47.80308" lon="2.16515">
        <ele>115</ele>
        <time>2017-01-15T09:56:12.628Z</time>
      </trkpt>
      <trkpt lat="47.80309" lon="2.16502">
        <ele>116</ele>
        <time>2017-01-15T09:56:13.630Z</time>
      </trkpt>
      <trkpt lat="47.80309" lon="2.16502">
        <ele>116</ele>
        <time>2017-01-15T09:56:14.664Z</time>
      </trkpt>
      <trkpt lat="47.80312" lon="2.1649">
        <ele>116</ele>
        <time>2017-01-15T09:56:15.659Z</time>
      </trkpt>
      <trkpt lat="47.80313" lon="2.1648">
        <ele>115</ele>
        <time>2017-01-15T09:56:16.666Z</time>
      </trkpt>
      <trkpt lat="47.80313" lon="2.1648">
        <ele>115</ele>
        <time>2017-01-15T09:56:17.631Z</time>
      </trkpt>
      <trkpt lat="47.80316" lon="2.16464">
        <ele>116</ele>
        <time>2017-01-15T09:56:18.659Z</time>
      </trkpt>
      <trkpt lat="47.80316" lon="2.16464">
        <ele>116</ele>
        <time>2017-01-15T09:56:19.654Z</time>
      </trkpt>
      <trkpt lat="47.80318" lon="2.16448">
        <ele>116</ele>
        <time>2017-01-15T09:56:20.643Z</time>
      </trkpt>
      <trkpt lat="47.80318" lon="2.16448">
        <ele>116</ele>
        <time>2017-01-15T09:56:21.631Z</time>
      </trkpt>
      <trkpt lat="47.8032" lon="2.16436">
        <ele>116</ele>
        <time>2017-01-15T09:56:22.638Z</time>
      </trkpt>
      <trkpt lat="47.80321" lon="2.16431">
        <ele>116</ele>
        <time>2017-01-15T09:56:23.628Z</time>
      </trkpt>
      <trkpt lat="47.80321" lon="2.16431">
        <ele>116</ele>
        <time>2017-01-15T09:56:24.660Z</time>
      </trkpt>
      <trkpt lat="47.80323" lon="2.1642">
        <ele>115</ele>
        <time>2017-01-15T09:56:25.657Z</time>
      </trkpt>
      <trkpt lat="47.80323" lon="2.1642">
        <ele>115</ele>
        <time>2017-01-15T09:56:26.665Z</time>
      </trkpt>
      <trkpt lat="47.80325" lon="2.1641">
        <ele>115</ele>
        <time>2017-01-15T09:56:27.652Z</time>
      </trkpt>
      <trkpt lat="47.80325" lon="2.1641">
        <ele>115</ele>
        <time>2017-01-15T09:56:28.640Z</time>
      </trkpt>
      <trkpt lat="47.80326" lon="2.16401">
        <ele>115</ele>
        <time>2017-01-15T09:56:29.630Z</time>
      </trkpt>
      <trkpt lat="47.80326" lon="2.16401">
        <ele>115</ele>
        <time>2017-01-15T09:56:30.660Z</time>
      </trkpt>
      <trkpt lat="47.80328" lon="2.16392">
        <ele>115</ele>
        <time>2017-01-15T09:56:31.653Z</time>
      </trkpt>
      <trkpt lat="47.80328" lon="2.16392">
        <ele>115</ele>
        <time>2017-01-15T09:56:32.643Z</time>
      </trkpt>
      <trkpt lat="47.80332" lon="2.16381">
        <ele>114</ele>
        <time>2017-01-15T09:56:33.631Z</time>
      </trkpt>
      <trkpt lat="47.80332" lon="2.16381">
        <ele>114</ele>
        <time>2017-01-15T09:56:34.660Z</time>
      </trkpt>
      <trkpt lat="47.80334" lon="2.16369">
        <ele>113</ele>
        <time>2017-01-15T09:56:35.654Z</time>
      </trkpt>
      <trkpt lat="47.80335" lon="2.16363">
        <ele>114</ele>
        <time>2017-01-15T09:56:36.641Z</time>
      </trkpt>
      <trkpt lat="47.80335" lon="2.16363">
        <ele>114</ele>
        <time>2017-01-15T09:56:37.630Z</time>
      </trkpt>
      <trkpt lat="47.80338" lon="2.16349">
        <ele>114</ele>
        <time>2017-01-15T09:56:38.668Z</time>
      </trkpt>
      <trkpt lat="47.80339" lon="2.16344">
        <ele>114</ele>
        <time>2017-01-15T09:56:39.654Z</time>
      </trkpt>
      <trkpt lat="47.80339" lon="2.16344">
        <ele>114</ele>
        <time>2017-01-15T09:56:40.641Z</time>
      </trkpt>
      <trkpt lat="47.80341" lon="2.16335">
        <ele>114</ele>
        <time>2017-01-15T09:56:41.635Z</time>
      </trkpt>
      <trkpt lat="47.80341" lon="2.16335">
        <ele>114</ele>
        <time>2017-01-15T09:56:42.664Z</time>
      </trkpt>
      <trkpt lat="47.80344" lon="2.16327">
        <ele>114</ele>
        <time>2017-01-15T09:56:43.664Z</time>
      </trkpt>
      <trkpt lat="47.80344" lon="2.16327">
        <ele>114</ele>
        <time>2017-01-15T09:56:44.652Z</time>
      </trkpt>
      <trkpt lat="47.80349" lon="2.16317">
        <ele>113</ele>
        <time>2017-01-15T09:56:45.640Z</time>
      </trkpt>
      <trkpt lat="47.80351" lon="2.16312">
        <ele>112</ele>
        <time>2017-01-15T09:56:46.630Z</time>
      </trkpt>
      <trkpt lat="47.80354" lon="2.16305">
        <ele>112</ele>
        <time>2017-01-15T09:56:47.661Z</time>
      </trkpt>
      <trkpt lat="47.80354" lon="2.163">
        <ele>111</ele>
        <time>2017-01-15T09:56:48.653Z</time>
      </trkpt>
      <trkpt lat="47.80354" lon="2.163">
        <ele>111</ele>
        <time>2017-01-15T09:56:49.640Z</time>
      </trkpt>
      <trkpt lat="47.80356" lon="2.16293">
        <ele>111</ele>
        <time>2017-01-15T09:56:50.643Z</time>
      </trkpt>
      <trkpt lat="47.80356" lon="2.16293">
        <ele>111</ele>
        <time>2017-01-15T09:56:51.631Z</time>
      </trkpt>
      <trkpt lat="47.80356" lon="2.16287">
        <ele>111</ele>
        <time>2017-01-15T09:56:52.664Z</time>
      </trkpt>
      <trkpt lat="47.80357" lon="2.16283">
        <ele>111</ele>
        <time>2017-01-15T09:56:53.654Z</time>
      </trkpt>
      <trkpt lat="47.80357" lon="2.16283">
        <ele>111</ele>
        <time>2017-01-15T09:56:54.641Z</time>
      </trkpt>
      <trkpt lat="47.80357" lon="2.16276">
        <ele>111</ele>
        <time>2017-01-15T09:56:55.633Z</time>
      </trkpt>
      <trkpt lat="47.80357" lon="2.16276">
        <ele>111</ele>
        <time>2017-01-15T09:56:56.664Z</time>
      </trkpt>
      <trkpt lat="47.80358" lon="2.16266">
        <ele>112</ele>
        <time>2017-01-15T09:56:57.653Z</time>
      </trkpt>
      <trkpt lat="47.80358" lon="2.16266">
        <ele>112</ele>
        <time>2017-01-15T09:56:58.641Z</time>
      </trkpt>
      <trkpt lat="47.8036" lon="2.16255">
        <ele>113</ele>
        <time>2017-01-15T09:56:59.633Z</time>
      </trkpt>
      <trkpt lat="47.8036" lon="2.16255">
        <ele>113</ele>
        <time>2017-01-15T09:57:00.660Z</time>
      </trkpt>
      <trkpt lat="47.80363" lon="2.16244">
        <ele>113</ele>
        <time>2017-01-15T09:57:01.653Z</time>
      </trkpt>
      <trkpt lat="47.80363" lon="2.16244">
        <ele>113</ele>
        <time>2017-01-15T09:57:02.644Z</time>
      </trkpt>
      <trkpt lat="47.80367" lon="2.16234">
        <ele>113</ele>
        <time>2017-01-15T09:57:03.632Z</time>
      </trkpt>
      <trkpt lat="47.80367" lon="2.16234">
        <ele>113</ele>
        <time>2017-01-15T09:57:04.660Z</time>
      </trkpt>
      <trkpt lat="47.80371" lon="2.16224">
        <ele>113</ele>
        <time>2017-01-15T09:57:05.647Z</time>
      </trkpt>
      <trkpt lat="47.80371" lon="2.16224">
        <ele>113</ele>
        <time>2017-01-15T09:57:06.636Z</time>
      </trkpt>
      <trkpt lat="47.80374" lon="2.16212">
        <ele>114</ele>
        <time>2017-01-15T09:57:07.636Z</time>
      </trkpt>
      <trkpt lat="47.80374" lon="2.16206">
        <ele>114</ele>
        <time>2017-01-15T09:57:08.629Z</time>
      </trkpt>
      <trkpt lat="47.80374" lon="2.16206">
        <ele>114</ele>
        <time>2017-01-15T09:57:09.636Z</time>
      </trkpt>
      <trkpt lat="47.80378" lon="2.16195">
        <ele>114</ele>
        <time>2017-01-15T09:57:10.631Z</time>
      </trkpt>
      <trkpt lat="47.8038" lon="2.1619">
        <ele>114</ele>
        <time>2017-01-15T09:57:11.629Z</time>
      </trkpt>
      <trkpt lat="47.8038" lon="2.1619">
        <ele>114</ele>
        <time>2017-01-15T09:57:12.661Z</time>
      </trkpt>
      <trkpt lat="47.80382" lon="2.16177">
        <ele>113</ele>
        <time>2017-01-15T09:57:13.649Z</time>
      </trkpt>
      <trkpt lat="47.80384" lon="2.16172">
        <ele>114</ele>
        <time>2017-01-15T09:57:14.665Z</time>
      </trkpt>
      <trkpt lat="47.80384" lon="2.16172">
        <ele>114</ele>
        <time>2017-01-15T09:57:15.648Z</time>
      </trkpt>
      <trkpt lat="47.80386" lon="2.16161">
        <ele>113</ele>
        <time>2017-01-15T09:57:16.658Z</time>
      </trkpt>
      <trkpt lat="47.80387" lon="2.16156">
        <ele>113</ele>
        <time>2017-01-15T09:57:17.638Z</time>
      </trkpt>
      <trkpt lat="47.80387" lon="2.16156">
        <ele>113</ele>
        <time>2017-01-15T09:57:18.628Z</time>
      </trkpt>
      <trkpt lat="47.80388" lon="2.16142">
        <ele>113</ele>
        <time>2017-01-15T09:57:19.659Z</time>
      </trkpt>
      <trkpt lat="47.80389" lon="2.16134">
        <ele>113</ele>
        <time>2017-01-15T09:57:20.653Z</time>
      </trkpt>
      <trkpt lat="47.80389" lon="2.16134">
        <ele>113</ele>
        <time>2017-01-15T09:57:21.648Z</time>
      </trkpt>
      <trkpt lat="47.80389" lon="2.16121">
        <ele>112</ele>
        <time>2017-01-15T09:57:22.645Z</time>
      </trkpt>
      <trkpt lat="47.80391" lon="2.16115">
        <ele>112</ele>
        <time>2017-01-15T09:57:23.633Z</time>
      </trkpt>
      <trkpt lat="47.80391" lon="2.16115">
        <ele>112</ele>
        <time>2017-01-15T09:57:24.664Z</time>
      </trkpt>
      <trkpt lat="47.80392" lon="2.16102">
        <ele>111</ele>
        <time>2017-01-15T09:57:25.654Z</time>
      </trkpt>
      <trkpt lat="47.80392" lon="2.16102">
        <ele>111</ele>
        <time>2017-01-15T09:57:26.642Z</time>
      </trkpt>
      <trkpt lat="47.80394" lon="2.16089">
        <ele>111</ele>
        <time>2017-01-15T09:57:27.652Z</time>
      </trkpt>
      <trkpt lat="47.80394" lon="2.16089">
        <ele>111</ele>
        <time>2017-01-15T09:57:28.632Z</time>
      </trkpt>
      <trkpt lat="47.80397" lon="2.16078">
        <ele>110</ele>
        <time>2017-01-15T09:57:29.630Z</time>
      </trkpt>
      <trkpt lat="47.80397" lon="2.16078">
        <ele>110</ele>
        <time>2017-01-15T09:57:30.659Z</time>
      </trkpt>
      <trkpt lat="47.80397" lon="2.16064">
        <ele>110</ele>
        <time>2017-01-15T09:57:31.654Z</time>
      </trkpt>
      <trkpt lat="47.80397" lon="2.16064">
        <ele>110</ele>
        <time>2017-01-15T09:57:32.641Z</time>
      </trkpt>
      <trkpt lat="47.80399" lon="2.1605">
        <ele>109</ele>
        <time>2017-01-15T09:57:33.632Z</time>
      </trkpt>
      <trkpt lat="47.80399" lon="2.1605">
        <ele>109</ele>
        <time>2017-01-15T09:57:34.660Z</time>
      </trkpt>
      <trkpt lat="47.80401" lon="2.16038">
        <ele>108</ele>
        <time>2017-01-15T09:57:35.654Z</time>
      </trkpt>
      <trkpt lat="47.80401" lon="2.16038">
        <ele>108</ele>
        <time>2017-01-15T09:57:36.665Z</time>
      </trkpt>
      <trkpt lat="47.80404" lon="2.16028">
        <ele>108</ele>
        <time>2017-01-15T09:57:37.662Z</time>
      </trkpt>
      <trkpt lat="47.80404" lon="2.16028">
        <ele>108</ele>
        <time>2017-01-15T09:57:38.629Z</time>
      </trkpt>
      <trkpt lat="47.80406" lon="2.16017">
        <ele>108</ele>
        <time>2017-01-15T09:57:39.629Z</time>
      </trkpt>
      <trkpt lat="47.80406" lon="2.16017">
        <ele>108</ele>
        <time>2017-01-15T09:57:40.658Z</time>
      </trkpt>
      <trkpt lat="47.80409" lon="2.16006">
        <ele>107</ele>
        <time>2017-01-15T09:57:41.645Z</time>
      </trkpt>
      <trkpt lat="47.8041" lon="2.15999">
        <ele>107</ele>
        <time>2017-01-15T09:57:42.633Z</time>
      </trkpt>
      <trkpt lat="47.8041" lon="2.15999">
        <ele>107</ele>
        <time>2017-01-15T09:57:43.662Z</time>
      </trkpt>
      <trkpt lat="47.80413" lon="2.15987">
        <ele>107</ele>
        <time>2017-01-15T09:57:44.651Z</time>
      </trkpt>
      <trkpt lat="47.80413" lon="2.15987">
        <ele>107</ele>
        <time>2017-01-15T09:57:45.640Z</time>
      </trkpt>
      <trkpt lat="47.80416" lon="2.15975">
        <ele>107</ele>
        <time>2017-01-15T09:57:46.637Z</time>
      </trkpt>
      <trkpt lat="47.80417" lon="2.1597">
        <ele>107</ele>
        <time>2017-01-15T09:57:47.628Z</time>
      </trkpt>
      <trkpt lat="47.80417" lon="2.1597">
        <ele>107</ele>
        <time>2017-01-15T09:57:48.667Z</time>
      </trkpt>
      <trkpt lat="47.80422" lon="2.15957">
        <ele>106</ele>
        <time>2017-01-15T09:57:49.656Z</time>
      </trkpt>
      <trkpt lat="47.80422" lon="2.15957">
        <ele>106</ele>
        <time>2017-01-15T09:57:50.644Z</time>
      </trkpt>
      <trkpt lat="47.80426" lon="2.15943">
        <ele>106</ele>
        <time>2017-01-15T09:57:51.632Z</time>
      </trkpt>
      <trkpt lat="47.80426" lon="2.15943">
        <ele>106</ele>
        <time>2017-01-15T09:57:52.664Z</time>
      </trkpt>
      <trkpt lat="47.80429" lon="2.15929">
        <ele>105</ele>
        <time>2017-01-15T09:57:53.653Z</time>
      </trkpt>
      <trkpt lat="47.80432" lon="2.15922">
        <ele>104</ele>
        <time>2017-01-15T09:57:54.647Z</time>
      </trkpt>
      <trkpt lat="47.80432" lon="2.15922">
        <ele>104</ele>
        <time>2017-01-15T09:57:55.634Z</time>
      </trkpt>
      <trkpt lat="47.80436" lon="2.15909">
        <ele>103</ele>
        <time>2017-01-15T09:57:56.664Z</time>
      </trkpt>
      <trkpt lat="47.80436" lon="2.15909">
        <ele>103</ele>
        <time>2017-01-15T09:57:57.651Z</time>
      </trkpt>
      <trkpt lat="47.80441" lon="2.15894">
        <ele>103</ele>
        <time>2017-01-15T09:57:58.642Z</time>
      </trkpt>
      <trkpt lat="47.80442" lon="2.15885">
        <ele>102</ele>
        <time>2017-01-15T09:57:59.631Z</time>
      </trkpt>
      <trkpt lat="47.80442" lon="2.15885">
        <ele>102</ele>
        <time>2017-01-15T09:58:00.660Z</time>
      </trkpt>
      <trkpt lat="47.80445" lon="2.15868">
        <ele>102</ele>
        <time>2017-01-15T09:58:01.631Z</time>
      </trkpt>
      <trkpt lat="47.80445" lon="2.15868">
        <ele>102</ele>
        <time>2017-01-15T09:58:02.658Z</time>
      </trkpt>
      <trkpt lat="47.80449" lon="2.1585">
        <ele>102</ele>
        <time>2017-01-15T09:58:03.645Z</time>
      </trkpt>
      <trkpt lat="47.80449" lon="2.1585">
        <ele>102</ele>
        <time>2017-01-15T09:58:04.632Z</time>
      </trkpt>
      <trkpt lat="47.80453" lon="2.15834">
        <ele>101</ele>
        <time>2017-01-15T09:58:05.633Z</time>
      </trkpt>
      <trkpt lat="47.80453" lon="2.15834">
        <ele>101</ele>
        <time>2017-01-15T09:58:06.664Z</time>
      </trkpt>
      <trkpt lat="47.80459" lon="2.1582">
        <ele>101</ele>
        <time>2017-01-15T09:58:07.651Z</time>
      </trkpt>
      <trkpt lat="47.80459" lon="2.1582">
        <ele>101</ele>
        <time>2017-01-15T09:58:08.644Z</time>
      </trkpt>
      <trkpt lat="47.80466" lon="2.1581">
        <ele>101</ele>
        <time>2017-01-15T09:58:09.631Z</time>
      </trkpt>
      <trkpt lat="47.80466" lon="2.1581">
        <ele>101</ele>
        <time>2017-01-15T09:58:10.634Z</time>
      </trkpt>
      <trkpt lat="47.80473" lon="2.15801">
        <ele>101</ele>
        <time>2017-01-15T09:58:11.635Z</time>
      </trkpt>
      <trkpt lat="47.80473" lon="2.15801">
        <ele>101</ele>
        <time>2017-01-15T09:58:12.664Z</time>
      </trkpt>
      <trkpt lat="47.80481" lon="2.15793">
        <ele>101</ele>
        <time>2017-01-15T09:58:13.654Z</time>
      </trkpt>
      <trkpt lat="47.80481" lon="2.15793">
        <ele>101</ele>
        <time>2017-01-15T09:58:14.633Z</time>
      </trkpt>
      <trkpt lat="47.80488" lon="2.15783">
        <ele>101</ele>
        <time>2017-01-15T09:58:15.656Z</time>
      </trkpt>
      <trkpt lat="47.80491" lon="2.15777">
        <ele>101</ele>
        <time>2017-01-15T09:58:16.645Z</time>
      </trkpt>
      <trkpt lat="47.80493" lon="2.15772">
        <ele>101</ele>
        <time>2017-01-15T09:58:17.634Z</time>
      </trkpt>
      <trkpt lat="47.80493" lon="2.15772">
        <ele>101</ele>
        <time>2017-01-15T09:58:18.638Z</time>
      </trkpt>
      <trkpt lat="47.80496" lon="2.1576">
        <ele>101</ele>
        <time>2017-01-15T09:58:19.631Z</time>
      </trkpt>
      <trkpt lat="47.80496" lon="2.1576">
        <ele>101</ele>
        <time>2017-01-15T09:58:20.660Z</time>
      </trkpt>
      <trkpt lat="47.80498" lon="2.15747">
        <ele>101</ele>
        <time>2017-01-15T09:58:21.651Z</time>
      </trkpt>
      <trkpt lat="47.80498" lon="2.15747">
        <ele>101</ele>
        <time>2017-01-15T09:58:22.641Z</time>
      </trkpt>
      <trkpt lat="47.805" lon="2.15736">
        <ele>101</ele>
        <time>2017-01-15T09:58:23.630Z</time>
      </trkpt>
      <trkpt lat="47.805" lon="2.15736">
        <ele>101</ele>
        <time>2017-01-15T09:58:24.659Z</time>
      </trkpt>
      <trkpt lat="47.805" lon="2.15726">
        <ele>100</ele>
        <time>2017-01-15T09:58:25.634Z</time>
      </trkpt>
      <trkpt lat="47.805" lon="2.15726">
        <ele>100</ele>
        <time>2017-01-15T09:58:26.664Z</time>
      </trkpt>
      <trkpt lat="47.80501" lon="2.15722">
        <ele>100</ele>
        <time>2017-01-15T09:58:27.652Z</time>
      </trkpt>
      <trkpt lat="47.80501" lon="2.15722">
        <ele>100</ele>
        <time>2017-01-15T09:58:28.644Z</time>
      </trkpt>
      <trkpt lat="47.80501" lon="2.15721">
        <ele>99</ele>
        <time>2017-01-15T09:58:29.637Z</time>
      </trkpt>
      <trkpt lat="47.80501" lon="2.15721">
        <ele>99</ele>
        <time>2017-01-15T09:58:30.665Z</time>
      </trkpt>
      <trkpt lat="47.80502" lon="2.15721">
        <ele>99</ele>
        <time>2017-01-15T09:58:31.667Z</time>
      </trkpt>
      <trkpt lat="47.80504" lon="2.15714">
        <ele>100</ele>
        <time>2017-01-15T09:58:32.655Z</time>
      </trkpt>
      <trkpt lat="47.80504" lon="2.15714">
        <ele>100</ele>
        <time>2017-01-15T09:58:33.649Z</time>
      </trkpt>
      <trkpt lat="47.80505" lon="2.15706">
        <ele>100</ele>
        <time>2017-01-15T09:58:34.650Z</time>
      </trkpt>
      <trkpt lat="47.80505" lon="2.15706">
        <ele>100</ele>
        <time>2017-01-15T09:58:35.647Z</time>
      </trkpt>
      <trkpt lat="47.80507" lon="2.15698">
        <ele>100</ele>
        <time>2017-01-15T09:58:36.656Z</time>
      </trkpt>
      <trkpt lat="47.80507" lon="2.15698">
        <ele>100</ele>
        <time>2017-01-15T09:58:37.655Z</time>
      </trkpt>
      <trkpt lat="47.80512" lon="2.15689">
        <ele>100</ele>
        <time>2017-01-15T09:58:38.651Z</time>
      </trkpt>
      <trkpt lat="47.80512" lon="2.15689">
        <ele>100</ele>
        <time>2017-01-15T09:58:39.641Z</time>
      </trkpt>
      <trkpt lat="47.8052" lon="2.15682">
        <ele>100</ele>
        <time>2017-01-15T09:58:40.641Z</time>
      </trkpt>
      <trkpt lat="47.8052" lon="2.15682">
        <ele>100</ele>
        <time>2017-01-15T09:58:41.641Z</time>
      </trkpt>
      <trkpt lat="47.80521" lon="2.15672">
        <ele>99</ele>
        <time>2017-01-15T09:58:42.643Z</time>
      </trkpt>
      <trkpt lat="47.80521" lon="2.15672">
        <ele>99</ele>
        <time>2017-01-15T09:58:43.640Z</time>
      </trkpt>
      <trkpt lat="47.80519" lon="2.1566">
        <ele>99</ele>
        <time>2017-01-15T09:58:44.642Z</time>
      </trkpt>
      <trkpt lat="47.80519" lon="2.1566">
        <ele>99</ele>
        <time>2017-01-15T09:58:45.640Z</time>
      </trkpt>
      <trkpt lat="47.80516" lon="2.15646">
        <ele>99</ele>
        <time>2017-01-15T09:58:46.642Z</time>
      </trkpt>
      <trkpt lat="47.80516" lon="2.15646">
        <ele>99</ele>
        <time>2017-01-15T09:58:47.641Z</time>
      </trkpt>
      <trkpt lat="47.80514" lon="2.15632">
        <ele>99</ele>
        <time>2017-01-15T09:58:48.643Z</time>
      </trkpt>
      <trkpt lat="47.80514" lon="2.15632">
        <ele>99</ele>
        <time>2017-01-15T09:58:49.639Z</time>
      </trkpt>
      <trkpt lat="47.80512" lon="2.15618">
        <ele>98</ele>
        <time>2017-01-15T09:58:50.642Z</time>
      </trkpt>
      <trkpt lat="47.80512" lon="2.15618">
        <ele>98</ele>
        <time>2017-01-15T09:58:51.640Z</time>
      </trkpt>
      <trkpt lat="47.8051" lon="2.15604">
        <ele>98</ele>
        <time>2017-01-15T09:58:52.643Z</time>
      </trkpt>
      <trkpt lat="47.8051" lon="2.15604">
        <ele>98</ele>
        <time>2017-01-15T09:58:53.641Z</time>
      </trkpt>
      <trkpt lat="47.80508" lon="2.1559">
        <ele>99</ele>
        <time>2017-01-15T09:58:54.642Z</time>
      </trkpt>
      <trkpt lat="47.80508" lon="2.1559">
        <ele>99</ele>
        <time>2017-01-15T09:58:55.640Z</time>
      </trkpt>
      <trkpt lat="47.80506" lon="2.15576">
        <ele>98</ele>
        <time>2017-01-15T09:58:56.643Z</time>
      </trkpt>
      <trkpt lat="47.80506" lon="2.15576">
        <ele>98</ele>
        <time>2017-01-15T09:58:57.640Z</time>
      </trkpt>
      <trkpt lat="47.80503" lon="2.15563">
        <ele>98</ele>
        <time>2017-01-15T09:58:58.642Z</time>
      </trkpt>
      <trkpt lat="47.80503" lon="2.15563">
        <ele>98</ele>
        <time>2017-01-15T09:58:59.641Z</time>
      </trkpt>
      <trkpt lat="47.80501" lon="2.15549">
        <ele>97</ele>
        <time>2017-01-15T09:59:00.643Z</time>
      </trkpt>
      <trkpt lat="47.80501" lon="2.15549">
        <ele>97</ele>
        <time>2017-01-15T09:59:01.637Z</time>
      </trkpt>
      <trkpt lat="47.80499" lon="2.15535">
        <ele>97</ele>
        <time>2017-01-15T09:59:02.641Z</time>
      </trkpt>
      <trkpt lat="47.80499" lon="2.15535">
        <ele>97</ele>
        <time>2017-01-15T09:59:03.640Z</time>
      </trkpt>
      <trkpt lat="47.80497" lon="2.15521">
        <ele>97</ele>
        <time>2017-01-15T09:59:04.654Z</time>
      </trkpt>
      <trkpt lat="47.80497" lon="2.15521">
        <ele>97</ele>
        <time>2017-01-15T09:59:05.645Z</time>
      </trkpt>
      <trkpt lat="47.80495" lon="2.15506">
        <ele>96</ele>
        <time>2017-01-15T09:59:06.648Z</time>
      </trkpt>
      <trkpt lat="47.80495" lon="2.15506">
        <ele>96</ele>
        <time>2017-01-15T09:59:07.639Z</time>
      </trkpt>
      <trkpt lat="47.80493" lon="2.15491">
        <ele>96</ele>
        <time>2017-01-15T09:59:08.642Z</time>
      </trkpt>
      <trkpt lat="47.80493" lon="2.15491">
        <ele>96</ele>
        <time>2017-01-15T09:59:09.645Z</time>
      </trkpt>
      <trkpt lat="47.8049" lon="2.15476">
        <ele>96</ele>
        <time>2017-01-15T09:59:10.643Z</time>
      </trkpt>
      <trkpt lat="47.8049" lon="2.15476">
        <ele>96</ele>
        <time>2017-01-15T09:59:11.641Z</time>
      </trkpt>
      <trkpt lat="47.80488" lon="2.15459">
        <ele>96</ele>
        <time>2017-01-15T09:59:12.643Z</time>
      </trkpt>
      <trkpt lat="47.80488" lon="2.15459">
        <ele>96</ele>
        <time>2017-01-15T09:59:13.640Z</time>
      </trkpt>
      <trkpt lat="47.80485" lon="2.15444">
        <ele>96</ele>
        <time>2017-01-15T09:59:14.668Z</time>
      </trkpt>
      <trkpt lat="47.80484" lon="2.15437">
        <ele>96</ele>
        <time>2017-01-15T09:59:15.641Z</time>
      </trkpt>
      <trkpt lat="47.80484" lon="2.15437">
        <ele>96</ele>
        <time>2017-01-15T09:59:16.647Z</time>
      </trkpt>
      <trkpt lat="47.80483" lon="2.15422">
        <ele>96</ele>
        <time>2017-01-15T09:59:17.641Z</time>
      </trkpt>
      <trkpt lat="47.80483" lon="2.15422">
        <ele>96</ele>
        <time>2017-01-15T09:59:18.635Z</time>
      </trkpt>
      <trkpt lat="47.80483" lon="2.15407">
        <ele>96</ele>
        <time>2017-01-15T09:59:19.657Z</time>
      </trkpt>
      <trkpt lat="47.80484" lon="2.15399">
        <ele>96</ele>
        <time>2017-01-15T09:59:20.648Z</time>
      </trkpt>
      <trkpt lat="47.80484" lon="2.15399">
        <ele>96</ele>
        <time>2017-01-15T09:59:21.640Z</time>
      </trkpt>
      <trkpt lat="47.80483" lon="2.15385">
        <ele>96</ele>
        <time>2017-01-15T09:59:22.642Z</time>
      </trkpt>
      <trkpt lat="47.80483" lon="2.15385">
        <ele>96</ele>
        <time>2017-01-15T09:59:23.641Z</time>
      </trkpt>
      <trkpt lat="47.80484" lon="2.15369">
        <ele>97</ele>
        <time>2017-01-15T09:59:24.643Z</time>
      </trkpt>
      <trkpt lat="47.80484" lon="2.15369">
        <ele>97</ele>
        <time>2017-01-15T09:59:25.640Z</time>
      </trkpt>
      <trkpt lat="47.80484" lon="2.15355">
        <ele>97</ele>
        <time>2017-01-15T09:59:26.641Z</time>
      </trkpt>
      <trkpt lat="47.80484" lon="2.15355">
        <ele>97</ele>
        <time>2017-01-15T09:59:27.640Z</time>
      </trkpt>
      <trkpt lat="47.80485" lon="2.15339">
        <ele>97</ele>
        <time>2017-01-15T09:59:28.667Z</time>
      </trkpt>
      <trkpt lat="47.80486" lon="2.15331">
        <ele>97</ele>
        <time>2017-01-15T09:59:29.656Z</time>
      </trkpt>
      <trkpt lat="47.80486" lon="2.15322">
        <ele>97</ele>
        <time>2017-01-15T09:59:30.648Z</time>
      </trkpt>
      <trkpt lat="47.80486" lon="2.15322">
        <ele>97</ele>
        <time>2017-01-15T09:59:31.640Z</time>
      </trkpt>
      <trkpt lat="47.80486" lon="2.15306">
        <ele>97</ele>
        <time>2017-01-15T09:59:32.643Z</time>
      </trkpt>
      <trkpt lat="47.80486" lon="2.15306">
        <ele>97</ele>
        <time>2017-01-15T09:59:33.640Z</time>
      </trkpt>
      <trkpt lat="47.80486" lon="2.1529">
        <ele>97</ele>
        <time>2017-01-15T09:59:34.642Z</time>
      </trkpt>
      <trkpt lat="47.80486" lon="2.15282">
        <ele>97</ele>
        <time>2017-01-15T09:59:35.652Z</time>
      </trkpt>
      <trkpt lat="47.80486" lon="2.15275">
        <ele>97</ele>
        <time>2017-01-15T09:59:36.644Z</time>
      </trkpt>
      <trkpt lat="47.80486" lon="2.15275">
        <ele>97</ele>
        <time>2017-01-15T09:59:37.640Z</time>
      </trkpt>
      <trkpt lat="47.80486" lon="2.15259">
        <ele>97</ele>
        <time>2017-01-15T09:59:38.647Z</time>
      </trkpt>
      <trkpt lat="47.80486" lon="2.15259">
        <ele>97</ele>
        <time>2017-01-15T09:59:39.640Z</time>
      </trkpt>
      <trkpt lat="47.80488" lon="2.15244">
        <ele>97</ele>
        <time>2017-01-15T09:59:40.643Z</time>
      </trkpt>
      <trkpt lat="47.80488" lon="2.15244">
        <ele>97</ele>
        <time>2017-01-15T09:59:41.646Z</time>
      </trkpt>
      <trkpt lat="47.80488" lon="2.15229">
        <ele>97</ele>
        <time>2017-01-15T09:59:42.644Z</time>
      </trkpt>
      <trkpt lat="47.80488" lon="2.1522">
        <ele>97</ele>
        <time>2017-01-15T09:59:43.634Z</time>
      </trkpt>
      <trkpt lat="47.80488" lon="2.1522">
        <ele>97</ele>
        <time>2017-01-15T09:59:44.629Z</time>
      </trkpt>
      <trkpt lat="47.80488" lon="2.15203">
        <ele>97</ele>
        <time>2017-01-15T09:59:45.635Z</time>
      </trkpt>
      <trkpt lat="47.80488" lon="2.15203">
        <ele>97</ele>
        <time>2017-01-15T09:59:46.641Z</time>
      </trkpt>
      <trkpt lat="47.80489" lon="2.15187">
        <ele>97</ele>
        <time>2017-01-15T09:59:47.649Z</time>
      </trkpt>
      <trkpt lat="47.80489" lon="2.15187">
        <ele>97</ele>
        <time>2017-01-15T09:59:48.665Z</time>
      </trkpt>
      <trkpt lat="47.80489" lon="2.15172">
        <ele>98</ele>
        <time>2017-01-15T09:59:49.654Z</time>
      </trkpt>
      <trkpt lat="47.8049" lon="2.15164">
        <ele>97</ele>
        <time>2017-01-15T09:59:50.644Z</time>
      </trkpt>
      <trkpt lat="47.8049" lon="2.15164">
        <ele>97</ele>
        <time>2017-01-15T09:59:51.640Z</time>
      </trkpt>
      <trkpt lat="47.8049" lon="2.15148">
        <ele>97</ele>
        <time>2017-01-15T09:59:52.644Z</time>
      </trkpt>
      <trkpt lat="47.8049" lon="2.15148">
        <ele>97</ele>
        <time>2017-01-15T09:59:53.641Z</time>
      </trkpt>
      <trkpt lat="47.80491" lon="2.15133">
        <ele>96</ele>
        <time>2017-01-15T09:59:54.644Z</time>
      </trkpt>
      <trkpt lat="47.80491" lon="2.15133">
        <ele>96</ele>
        <time>2017-01-15T09:59:55.641Z</time>
      </trkpt>
      <trkpt lat="47.80491" lon="2.15117">
        <ele>96</ele>
        <time>2017-01-15T09:59:56.643Z</time>
      </trkpt>
      <trkpt lat="47.80491" lon="2.15117">
        <ele>96</ele>
        <time>2017-01-15T09:59:57.640Z</time>
      </trkpt>
      <trkpt lat="47.80492" lon="2.15102">
        <ele>96</ele>
        <time>2017-01-15T09:59:58.646Z</time>
      </trkpt>
      <trkpt lat="47.80492" lon="2.15102">
        <ele>96</ele>
        <time>2017-01-15T09:59:59.641Z</time>
      </trkpt>
      <trkpt lat="47.80493" lon="2.15086">
        <ele>95</ele>
        <time>2017-01-15T10:00:00.643Z</time>
      </trkpt>
      <trkpt lat="47.80493" lon="2.15086">
        <ele>95</ele>
        <time>2017-01-15T10:00:01.640Z</time>
      </trkpt>
      <trkpt lat="47.80493" lon="2.15071">
        <ele>95</ele>
        <time>2017-01-15T10:00:02.640Z</time>
      </trkpt>
      <trkpt lat="47.80493" lon="2.15071">
        <ele>95</ele>
        <time>2017-01-15T10:00:03.640Z</time>
      </trkpt>
      <trkpt lat="47.80494" lon="2.15055">
        <ele>95</ele>
        <time>2017-01-15T10:00:04.642Z</time>
      </trkpt>
      <trkpt lat="47.80494" lon="2.15047">
        <ele>95</ele>
        <time>2017-01-15T10:00:05.643Z</time>
      </trkpt>
      <trkpt lat="47.80494" lon="2.15039">
        <ele>95</ele>
        <time>2017-01-15T10:00:06.641Z</time>
      </trkpt>
      <trkpt lat="47.80494" lon="2.15039">
        <ele>95</ele>
        <time>2017-01-15T10:00:07.640Z</time>
      </trkpt>
      <trkpt lat="47.80494" lon="2.15023">
        <ele>95</ele>
        <time>2017-01-15T10:00:08.644Z</time>
      </trkpt>
      <trkpt lat="47.80494" lon="2.15023">
        <ele>95</ele>
        <time>2017-01-15T10:00:09.657Z</time>
      </trkpt>
      <trkpt lat="47.80494" lon="2.15007">
        <ele>94</ele>
        <time>2017-01-15T10:00:10.648Z</time>
      </trkpt>
      <trkpt lat="47.80494" lon="2.15007">
        <ele>94</ele>
        <time>2017-01-15T10:00:11.641Z</time>
      </trkpt>
      <trkpt lat="47.80495" lon="2.14991">
        <ele>95</ele>
        <time>2017-01-15T10:00:12.643Z</time>
      </trkpt>
      <trkpt lat="47.80495" lon="2.14991">
        <ele>95</ele>
        <time>2017-01-15T10:00:13.640Z</time>
      </trkpt>
      <trkpt lat="47.80496" lon="2.14976">
        <ele>95</ele>
        <time>2017-01-15T10:00:14.637Z</time>
      </trkpt>
      <trkpt lat="47.80497" lon="2.14969">
        <ele>94</ele>
        <time>2017-01-15T10:00:15.644Z</time>
      </trkpt>
      <trkpt lat="47.80498" lon="2.14961">
        <ele>94</ele>
        <time>2017-01-15T10:00:16.651Z</time>
      </trkpt>
      <trkpt lat="47.80498" lon="2.14961">
        <ele>94</ele>
        <time>2017-01-15T10:00:17.657Z</time>
      </trkpt>
      <trkpt lat="47.80499" lon="2.14947">
        <ele>94</ele>
        <time>2017-01-15T10:00:18.648Z</time>
      </trkpt>
      <trkpt lat="47.80499" lon="2.14939">
        <ele>93</ele>
        <time>2017-01-15T10:00:19.643Z</time>
      </trkpt>
      <trkpt lat="47.80499" lon="2.14939">
        <ele>93</ele>
        <time>2017-01-15T10:00:20.640Z</time>
      </trkpt>
      <trkpt lat="47.80499" lon="2.14927">
        <ele>93</ele>
        <time>2017-01-15T10:00:21.643Z</time>
      </trkpt>
      <trkpt lat="47.80499" lon="2.14927">
        <ele>93</ele>
        <time>2017-01-15T10:00:22.640Z</time>
      </trkpt>
      <trkpt lat="47.80499" lon="2.14914">
        <ele>93</ele>
        <time>2017-01-15T10:00:23.642Z</time>
      </trkpt>
      <trkpt lat="47.80499" lon="2.14906">
        <ele>93</ele>
        <time>2017-01-15T10:00:24.645Z</time>
      </trkpt>
      <trkpt lat="47.80499" lon="2.14906">
        <ele>93</ele>
        <time>2017-01-15T10:00:25.640Z</time>
      </trkpt>
      <trkpt lat="47.805" lon="2.14891">
        <ele>92</ele>
        <time>2017-01-15T10:00:26.642Z</time>
      </trkpt>
      <trkpt lat="47.80501" lon="2.14883">
        <ele>92</ele>
        <time>2017-01-15T10:00:27.641Z</time>
      </trkpt>
      <trkpt lat="47.80501" lon="2.14883">
        <ele>92</ele>
        <time>2017-01-15T10:00:28.641Z</time>
      </trkpt>
      <trkpt lat="47.80502" lon="2.14866">
        <ele>93</ele>
        <time>2017-01-15T10:00:29.642Z</time>
      </trkpt>
      <trkpt lat="47.80503" lon="2.14858">
        <ele>93</ele>
        <time>2017-01-15T10:00:30.651Z</time>
      </trkpt>
      <trkpt lat="47.80503" lon="2.14858">
        <ele>93</ele>
        <time>2017-01-15T10:00:31.641Z</time>
      </trkpt>
      <trkpt lat="47.80503" lon="2.14843">
        <ele>94</ele>
        <time>2017-01-15T10:00:32.643Z</time>
      </trkpt>
      <trkpt lat="47.80503" lon="2.14843">
        <ele>94</ele>
        <time>2017-01-15T10:00:33.641Z</time>
      </trkpt>
      <trkpt lat="47.80504" lon="2.14826">
        <ele>94</ele>
        <time>2017-01-15T10:00:34.642Z</time>
      </trkpt>
      <trkpt lat="47.80504" lon="2.14826">
        <ele>94</ele>
        <time>2017-01-15T10:00:35.641Z</time>
      </trkpt>
      <trkpt lat="47.80505" lon="2.14811">
        <ele>95</ele>
        <time>2017-01-15T10:00:36.646Z</time>
      </trkpt>
      <trkpt lat="47.80505" lon="2.14811">
        <ele>95</ele>
        <time>2017-01-15T10:00:37.641Z</time>
      </trkpt>
      <trkpt lat="47.80506" lon="2.14796">
        <ele>95</ele>
        <time>2017-01-15T10:00:38.643Z</time>
      </trkpt>
      <trkpt lat="47.80506" lon="2.14796">
        <ele>95</ele>
        <time>2017-01-15T10:00:39.644Z</time>
      </trkpt>
      <trkpt lat="47.80507" lon="2.14781">
        <ele>96</ele>
        <time>2017-01-15T10:00:40.659Z</time>
      </trkpt>
      <trkpt lat="47.80507" lon="2.14773">
        <ele>97</ele>
        <time>2017-01-15T10:00:41.651Z</time>
      </trkpt>
      <trkpt lat="47.80507" lon="2.14773">
        <ele>97</ele>
        <time>2017-01-15T10:00:42.641Z</time>
      </trkpt>
      <trkpt lat="47.80509" lon="2.14758">
        <ele>97</ele>
        <time>2017-01-15T10:00:43.642Z</time>
      </trkpt>
      <trkpt lat="47.80509" lon="2.14758">
        <ele>97</ele>
        <time>2017-01-15T10:00:44.641Z</time>
      </trkpt>
      <trkpt lat="47.8051" lon="2.14744">
        <ele>97</ele>
        <time>2017-01-15T10:00:45.645Z</time>
      </trkpt>
      <trkpt lat="47.8051" lon="2.14744">
        <ele>97</ele>
        <time>2017-01-15T10:00:46.658Z</time>
      </trkpt>
      <trkpt lat="47.8051" lon="2.1473">
        <ele>97</ele>
        <time>2017-01-15T10:00:47.650Z</time>
      </trkpt>
      <trkpt lat="47.8051" lon="2.1473">
        <ele>97</ele>
        <time>2017-01-15T10:00:48.642Z</time>
      </trkpt>
      <trkpt lat="47.80511" lon="2.14714">
        <ele>98</ele>
        <time>2017-01-15T10:00:49.644Z</time>
      </trkpt>
      <trkpt lat="47.80511" lon="2.14707">
        <ele>98</ele>
        <time>2017-01-15T10:00:50.644Z</time>
      </trkpt>
      <trkpt lat="47.80512" lon="2.14699">
        <ele>98</ele>
        <time>2017-01-15T10:00:51.642Z</time>
      </trkpt>
      <trkpt lat="47.80512" lon="2.14699">
        <ele>98</ele>
        <time>2017-01-15T10:00:52.640Z</time>
      </trkpt>
      <trkpt lat="47.80514" lon="2.14684">
        <ele>98</ele>
        <time>2017-01-15T10:00:53.642Z</time>
      </trkpt>
      <trkpt lat="47.80514" lon="2.14684">
        <ele>98</ele>
        <time>2017-01-15T10:00:54.641Z</time>
      </trkpt>
      <trkpt lat="47.80515" lon="2.14669">
        <ele>98</ele>
        <time>2017-01-15T10:00:55.642Z</time>
      </trkpt>
      <trkpt lat="47.80515" lon="2.14669">
        <ele>98</ele>
        <time>2017-01-15T10:00:56.641Z</time>
      </trkpt>
      <trkpt lat="47.80517" lon="2.14653">
        <ele>98</ele>
        <time>2017-01-15T10:00:57.643Z</time>
      </trkpt>
      <trkpt lat="47.80518" lon="2.14646">
        <ele>98</ele>
        <time>2017-01-15T10:00:58.640Z</time>
      </trkpt>
      <trkpt lat="47.80518" lon="2.14646">
        <ele>98</ele>
        <time>2017-01-15T10:00:59.633Z</time>
      </trkpt>
      <trkpt lat="47.8052" lon="2.14631">
        <ele>96</ele>
        <time>2017-01-15T10:01:00.644Z</time>
      </trkpt>
      <trkpt lat="47.8052" lon="2.14631">
        <ele>96</ele>
        <time>2017-01-15T10:01:01.641Z</time>
      </trkpt>
      <trkpt lat="47.80521" lon="2.14616">
        <ele>96</ele>
        <time>2017-01-15T10:01:02.640Z</time>
      </trkpt>
      <trkpt lat="47.80521" lon="2.14616">
        <ele>96</ele>
        <time>2017-01-15T10:01:03.641Z</time>
      </trkpt>
      <trkpt lat="47.80523" lon="2.146">
        <ele>95</ele>
        <time>2017-01-15T10:01:04.642Z</time>
      </trkpt>
      <trkpt lat="47.80523" lon="2.146">
        <ele>95</ele>
        <time>2017-01-15T10:01:05.642Z</time>
      </trkpt>
      <trkpt lat="47.80525" lon="2.14585">
        <ele>96</ele>
        <time>2017-01-15T10:01:06.644Z</time>
      </trkpt>
      <trkpt lat="47.80525" lon="2.14585">
        <ele>96</ele>
        <time>2017-01-15T10:01:07.641Z</time>
      </trkpt>
      <trkpt lat="47.80526" lon="2.1457">
        <ele>96</ele>
        <time>2017-01-15T10:01:08.642Z</time>
      </trkpt>
      <trkpt lat="47.80526" lon="2.1457">
        <ele>96</ele>
        <time>2017-01-15T10:01:09.633Z</time>
      </trkpt>
      <trkpt lat="47.80528" lon="2.14555">
        <ele>96</ele>
        <time>2017-01-15T10:01:10.644Z</time>
      </trkpt>
      <trkpt lat="47.80528" lon="2.14555">
        <ele>96</ele>
        <time>2017-01-15T10:01:11.642Z</time>
      </trkpt>
      <trkpt lat="47.80529" lon="2.1454">
        <ele>96</ele>
        <time>2017-01-15T10:01:12.645Z</time>
      </trkpt>
      <trkpt lat="47.80529" lon="2.1454">
        <ele>96</ele>
        <time>2017-01-15T10:01:13.641Z</time>
      </trkpt>
      <trkpt lat="47.80531" lon="2.14526">
        <ele>96</ele>
        <time>2017-01-15T10:01:14.630Z</time>
      </trkpt>
      <trkpt lat="47.80532" lon="2.14519">
        <ele>96</ele>
        <time>2017-01-15T10:01:15.643Z</time>
      </trkpt>
      <trkpt lat="47.80533" lon="2.14512">
        <ele>96</ele>
        <time>2017-01-15T10:01:16.641Z</time>
      </trkpt>
      <trkpt lat="47.80533" lon="2.14512">
        <ele>96</ele>
        <time>2017-01-15T10:01:17.642Z</time>
      </trkpt>
      <trkpt lat="47.80535" lon="2.14497">
        <ele>97</ele>
        <time>2017-01-15T10:01:18.643Z</time>
      </trkpt>
      <trkpt lat="47.80535" lon="2.14497">
        <ele>97</ele>
        <time>2017-01-15T10:01:19.640Z</time>
      </trkpt>
      <trkpt lat="47.80536" lon="2.14482">
        <ele>97</ele>
        <time>2017-01-15T10:01:20.643Z</time>
      </trkpt>
      <trkpt lat="47.80536" lon="2.14482">
        <ele>97</ele>
        <time>2017-01-15T10:01:21.641Z</time>
      </trkpt>
      <trkpt lat="47.80538" lon="2.14467">
        <ele>97</ele>
        <time>2017-01-15T10:01:22.643Z</time>
      </trkpt>
      <trkpt lat="47.80538" lon="2.14467">
        <ele>97</ele>
        <time>2017-01-15T10:01:23.642Z</time>
      </trkpt>
      <trkpt lat="47.8054" lon="2.14453">
        <ele>98</ele>
        <time>2017-01-15T10:01:24.644Z</time>
      </trkpt>
      <trkpt lat="47.8054" lon="2.14453">
        <ele>98</ele>
        <time>2017-01-15T10:01:25.641Z</time>
      </trkpt>
      <trkpt lat="47.80541" lon="2.14439">
        <ele>98</ele>
        <time>2017-01-15T10:01:26.643Z</time>
      </trkpt>
      <trkpt lat="47.80541" lon="2.14439">
        <ele>98</ele>
        <time>2017-01-15T10:01:27.641Z</time>
      </trkpt>
      <trkpt lat="47.80543" lon="2.14427">
        <ele>98</ele>
        <time>2017-01-15T10:01:28.643Z</time>
      </trkpt>
      <trkpt lat="47.80543" lon="2.14427">
        <ele>98</ele>
        <time>2017-01-15T10:01:29.642Z</time>
      </trkpt>
      <trkpt lat="47.80544" lon="2.14414">
        <ele>98</ele>
        <time>2017-01-15T10:01:30.644Z</time>
      </trkpt>
      <trkpt lat="47.80544" lon="2.14407">
        <ele>98</ele>
        <time>2017-01-15T10:01:31.641Z</time>
      </trkpt>
      <trkpt lat="47.80544" lon="2.14407">
        <ele>98</ele>
        <time>2017-01-15T10:01:32.641Z</time>
      </trkpt>
      <trkpt lat="47.80545" lon="2.14394">
        <ele>98</ele>
        <time>2017-01-15T10:01:33.643Z</time>
      </trkpt>
      <trkpt lat="47.80546" lon="2.14387">
        <ele>99</ele>
        <time>2017-01-15T10:01:34.643Z</time>
      </trkpt>
      <trkpt lat="47.80546" lon="2.14387">
        <ele>99</ele>
        <time>2017-01-15T10:01:35.642Z</time>
      </trkpt>
      <trkpt lat="47.80547" lon="2.14374">
        <ele>98</ele>
        <time>2017-01-15T10:01:36.643Z</time>
      </trkpt>
      <trkpt lat="47.80547" lon="2.14374">
        <ele>98</ele>
        <time>2017-01-15T10:01:37.641Z</time>
      </trkpt>
      <trkpt lat="47.80548" lon="2.14362">
        <ele>98</ele>
        <time>2017-01-15T10:01:38.643Z</time>
      </trkpt>
      <trkpt lat="47.80549" lon="2.14357">
        <ele>98</ele>
        <time>2017-01-15T10:01:39.644Z</time>
      </trkpt>
      <trkpt lat="47.80549" lon="2.14357">
        <ele>98</ele>
        <time>2017-01-15T10:01:40.641Z</time>
      </trkpt>
      <trkpt lat="47.8055" lon="2.14348">
        <ele>98</ele>
        <time>2017-01-15T10:01:41.641Z</time>
      </trkpt>
      <trkpt lat="47.8055" lon="2.14343">
        <ele>98</ele>
        <time>2017-01-15T10:01:42.644Z</time>
      </trkpt>
      <trkpt lat="47.8055" lon="2.14343">
        <ele>98</ele>
        <time>2017-01-15T10:01:43.641Z</time>
      </trkpt>
      <trkpt lat="47.8055" lon="2.14335">
        <ele>98</ele>
        <time>2017-01-15T10:01:44.641Z</time>
      </trkpt>
      <trkpt lat="47.8055" lon="2.14335">
        <ele>98</ele>
        <time>2017-01-15T10:01:45.641Z</time>
      </trkpt>
      <trkpt lat="47.80551" lon="2.14327">
        <ele>98</ele>
        <time>2017-01-15T10:01:46.644Z</time>
      </trkpt>
      <trkpt lat="47.80551" lon="2.14327">
        <ele>98</ele>
        <time>2017-01-15T10:01:47.642Z</time>
      </trkpt>
      <trkpt lat="47.80552" lon="2.14319">
        <ele>98</ele>
        <time>2017-01-15T10:01:48.645Z</time>
      </trkpt>
      <trkpt lat="47.80552" lon="2.14319">
        <ele>98</ele>
        <time>2017-01-15T10:01:49.644Z</time>
      </trkpt>
      <trkpt lat="47.80552" lon="2.14311">
        <ele>98</ele>
        <time>2017-01-15T10:01:50.643Z</time>
      </trkpt>
      <trkpt lat="47.80552" lon="2.14311">
        <ele>98</ele>
        <time>2017-01-15T10:01:51.641Z</time>
      </trkpt>
      <trkpt lat="47.80549" lon="2.14305">
        <ele>97</ele>
        <time>2017-01-15T10:01:52.643Z</time>
      </trkpt>
      <trkpt lat="47.80547" lon="2.14303">
        <ele>97</ele>
        <time>2017-01-15T10:01:53.643Z</time>
      </trkpt>
      <trkpt lat="47.80547" lon="2.14303">
        <ele>97</ele>
        <time>2017-01-15T10:01:54.641Z</time>
      </trkpt>
      <trkpt lat="47.80542" lon="2.143">
        <ele>97</ele>
        <time>2017-01-15T10:01:55.643Z</time>
      </trkpt>
      <trkpt lat="47.80542" lon="2.143">
        <ele>97</ele>
        <time>2017-01-15T10:01:56.653Z</time>
      </trkpt>
      <trkpt lat="47.80537" lon="2.14295">
        <ele>97</ele>
        <time>2017-01-15T10:01:57.643Z</time>
      </trkpt>
      <trkpt lat="47.80537" lon="2.14295">
        <ele>97</ele>
        <time>2017-01-15T10:01:58.641Z</time>
      </trkpt>
      <trkpt lat="47.80532" lon="2.1429">
        <ele>96</ele>
        <time>2017-01-15T10:01:59.660Z</time>
      </trkpt>
      <trkpt lat="47.80529" lon="2.14287">
        <ele>96</ele>
        <time>2017-01-15T10:02:00.649Z</time>
      </trkpt>
      <trkpt lat="47.80527" lon="2.14284">
        <ele>97</ele>
        <time>2017-01-15T10:02:01.641Z</time>
      </trkpt>
      <trkpt lat="47.80527" lon="2.14284">
        <ele>97</ele>
        <time>2017-01-15T10:02:02.641Z</time>
      </trkpt>
      <trkpt lat="47.80521" lon="2.14278">
        <ele>97</ele>
        <time>2017-01-15T10:02:03.643Z</time>
      </trkpt>
      <trkpt lat="47.80521" lon="2.14278">
        <ele>97</ele>
        <time>2017-01-15T10:02:04.645Z</time>
      </trkpt>
      <trkpt lat="47.80515" lon="2.14273">
        <ele>97</ele>
        <time>2017-01-15T10:02:05.642Z</time>
      </trkpt>
      <trkpt lat="47.80515" lon="2.14273">
        <ele>97</ele>
        <time>2017-01-15T10:02:06.642Z</time>
      </trkpt>
      <trkpt lat="47.80509" lon="2.14267">
        <ele>97</ele>
        <time>2017-01-15T10:02:07.643Z</time>
      </trkpt>
      <trkpt lat="47.80509" lon="2.14267">
        <ele>97</ele>
        <time>2017-01-15T10:02:08.641Z</time>
      </trkpt>
      <trkpt lat="47.80503" lon="2.14261">
        <ele>97</ele>
        <time>2017-01-15T10:02:09.644Z</time>
      </trkpt>
      <trkpt lat="47.80503" lon="2.14261">
        <ele>97</ele>
        <time>2017-01-15T10:02:10.649Z</time>
      </trkpt>
      <trkpt lat="47.80496" lon="2.14255">
        <ele>96</ele>
        <time>2017-01-15T10:02:11.643Z</time>
      </trkpt>
      <trkpt lat="47.80493" lon="2.14252">
        <ele>97</ele>
        <time>2017-01-15T10:02:12.655Z</time>
      </trkpt>
      <trkpt lat="47.80493" lon="2.14252">
        <ele>97</ele>
        <time>2017-01-15T10:02:13.644Z</time>
      </trkpt>
      <trkpt lat="47.80487" lon="2.14245">
        <ele>96</ele>
        <time>2017-01-15T10:02:14.658Z</time>
      </trkpt>
      <trkpt lat="47.80487" lon="2.14245">
        <ele>96</ele>
        <time>2017-01-15T10:02:15.653Z</time>
      </trkpt>
      <trkpt lat="47.8048" lon="2.14237">
        <ele>96</ele>
        <time>2017-01-15T10:02:16.659Z</time>
      </trkpt>
      <trkpt lat="47.80478" lon="2.14233">
        <ele>96</ele>
        <time>2017-01-15T10:02:17.644Z</time>
      </trkpt>
      <trkpt lat="47.80475" lon="2.14229">
        <ele>96</ele>
        <time>2017-01-15T10:02:18.644Z</time>
      </trkpt>
      <trkpt lat="47.80471" lon="2.14226">
        <ele>96</ele>
        <time>2017-01-15T10:02:19.642Z</time>
      </trkpt>
      <trkpt lat="47.80471" lon="2.14226">
        <ele>96</ele>
        <time>2017-01-15T10:02:20.641Z</time>
      </trkpt>
      <trkpt lat="47.80464" lon="2.14219">
        <ele>97</ele>
        <time>2017-01-15T10:02:21.643Z</time>
      </trkpt>
      <trkpt lat="47.80464" lon="2.14219">
        <ele>97</ele>
        <time>2017-01-15T10:02:22.641Z</time>
      </trkpt>
      <trkpt lat="47.80456" lon="2.14212">
        <ele>96</ele>
        <time>2017-01-15T10:02:23.645Z</time>
      </trkpt>
      <trkpt lat="47.80456" lon="2.14212">
        <ele>96</ele>
        <time>2017-01-15T10:02:24.642Z</time>
      </trkpt>
      <trkpt lat="47.80449" lon="2.14204">
        <ele>96</ele>
        <time>2017-01-15T10:02:25.644Z</time>
      </trkpt>
      <trkpt lat="47.80449" lon="2.14204">
        <ele>96</ele>
        <time>2017-01-15T10:02:26.641Z</time>
      </trkpt>
      <trkpt lat="47.80441" lon="2.14197">
        <ele>95</ele>
        <time>2017-01-15T10:02:27.643Z</time>
      </trkpt>
      <trkpt lat="47.80441" lon="2.14197">
        <ele>95</ele>
        <time>2017-01-15T10:02:28.646Z</time>
      </trkpt>
      <trkpt lat="47.80434" lon="2.14189">
        <ele>95</ele>
        <time>2017-01-15T10:02:29.643Z</time>
      </trkpt>
      <trkpt lat="47.80431" lon="2.14186">
        <ele>95</ele>
        <time>2017-01-15T10:02:30.644Z</time>
      </trkpt>
      <trkpt lat="47.80431" lon="2.14186">
        <ele>95</ele>
        <time>2017-01-15T10:02:31.641Z</time>
      </trkpt>
      <trkpt lat="47.80424" lon="2.14179">
        <ele>96</ele>
        <time>2017-01-15T10:02:32.643Z</time>
      </trkpt>
      <trkpt lat="47.80424" lon="2.14179">
        <ele>96</ele>
        <time>2017-01-15T10:02:33.641Z</time>
      </trkpt>
      <trkpt lat="47.80416" lon="2.14171">
        <ele>97</ele>
        <time>2017-01-15T10:02:34.643Z</time>
      </trkpt>
      <trkpt lat="47.80416" lon="2.14171">
        <ele>97</ele>
        <time>2017-01-15T10:02:35.642Z</time>
      </trkpt>
      <trkpt lat="47.80408" lon="2.14165">
        <ele>97</ele>
        <time>2017-01-15T10:02:36.643Z</time>
      </trkpt>
      <trkpt lat="47.80404" lon="2.14162">
        <ele>98</ele>
        <time>2017-01-15T10:02:37.643Z</time>
      </trkpt>
      <trkpt lat="47.80401" lon="2.14158">
        <ele>98</ele>
        <time>2017-01-15T10:02:38.643Z</time>
      </trkpt>
      <trkpt lat="47.80397" lon="2.14155">
        <ele>98</ele>
        <time>2017-01-15T10:02:39.644Z</time>
      </trkpt>
      <trkpt lat="47.80397" lon="2.14155">
        <ele>98</ele>
        <time>2017-01-15T10:02:40.641Z</time>
      </trkpt>
      <trkpt lat="47.8039" lon="2.14148">
        <ele>99</ele>
        <time>2017-01-15T10:02:41.659Z</time>
      </trkpt>
      <trkpt lat="47.80386" lon="2.14146">
        <ele>100</ele>
        <time>2017-01-15T10:02:42.650Z</time>
      </trkpt>
      <trkpt lat="47.80383" lon="2.14143">
        <ele>100</ele>
        <time>2017-01-15T10:02:43.644Z</time>
      </trkpt>
      <trkpt lat="47.80383" lon="2.14143">
        <ele>100</ele>
        <time>2017-01-15T10:02:44.641Z</time>
      </trkpt>
      <trkpt lat="47.80376" lon="2.14138">
        <ele>100</ele>
        <time>2017-01-15T10:02:45.648Z</time>
      </trkpt>
      <trkpt lat="47.80373" lon="2.14136">
        <ele>101</ele>
        <time>2017-01-15T10:02:46.640Z</time>
      </trkpt>
      <trkpt lat="47.80373" lon="2.14136">
        <ele>101</ele>
        <time>2017-01-15T10:02:47.642Z</time>
      </trkpt>
      <trkpt lat="47.80367" lon="2.14131">
        <ele>101</ele>
        <time>2017-01-15T10:02:48.644Z</time>
      </trkpt>
      <trkpt lat="47.80367" lon="2.14131">
        <ele>101</ele>
        <time>2017-01-15T10:02:49.641Z</time>
      </trkpt>
      <trkpt lat="47.80361" lon="2.14127">
        <ele>101</ele>
        <time>2017-01-15T10:02:50.642Z</time>
      </trkpt>
      <trkpt lat="47.80358" lon="2.14125">
        <ele>101</ele>
        <time>2017-01-15T10:02:51.645Z</time>
      </trkpt>
      <trkpt lat="47.80358" lon="2.14125">
        <ele>101</ele>
        <time>2017-01-15T10:02:52.641Z</time>
      </trkpt>
      <trkpt lat="47.80354" lon="2.14123">
        <ele>102</ele>
        <time>2017-01-15T10:02:53.643Z</time>
      </trkpt>
      <trkpt lat="47.80351" lon="2.14122">
        <ele>102</ele>
        <time>2017-01-15T10:02:54.642Z</time>
      </trkpt>
      <trkpt lat="47.8035" lon="2.14121">
        <ele>102</ele>
        <time>2017-01-15T10:02:55.642Z</time>
      </trkpt>
      <trkpt lat="47.8035" lon="2.14121">
        <ele>102</ele>
        <time>2017-01-15T10:02:56.641Z</time>
      </trkpt>
      <trkpt lat="47.80346" lon="2.14121">
        <ele>102</ele>
        <time>2017-01-15T10:02:57.644Z</time>
      </trkpt>
      <trkpt lat="47.80346" lon="2.14121">
        <ele>102</ele>
        <time>2017-01-15T10:02:58.641Z</time>
      </trkpt>
      <trkpt lat="47.80343" lon="2.14119">
        <ele>102</ele>
        <time>2017-01-15T10:02:59.643Z</time>
      </trkpt>
      <trkpt lat="47.80343" lon="2.14119">
        <ele>102</ele>
        <time>2017-01-15T10:03:00.635Z</time>
      </trkpt>
      <trkpt lat="47.8034" lon="2.14117">
        <ele>102</ele>
        <time>2017-01-15T10:03:01.663Z</time>
      </trkpt>
      <trkpt lat="47.8034" lon="2.14117">
        <ele>102</ele>
        <time>2017-01-15T10:03:02.652Z</time>
      </trkpt>
      <trkpt lat="47.80337" lon="2.14115">
        <ele>102</ele>
        <time>2017-01-15T10:03:03.643Z</time>
      </trkpt>
      <trkpt lat="47.80337" lon="2.14115">
        <ele>102</ele>
        <time>2017-01-15T10:03:04.641Z</time>
      </trkpt>
      <trkpt lat="47.80334" lon="2.14112">
        <ele>103</ele>
        <time>2017-01-15T10:03:05.643Z</time>
      </trkpt>
      <trkpt lat="47.80332" lon="2.14111">
        <ele>103</ele>
        <time>2017-01-15T10:03:06.652Z</time>
      </trkpt>
      <trkpt lat="47.80332" lon="2.14111">
        <ele>103</ele>
        <time>2017-01-15T10:03:07.641Z</time>
      </trkpt>
      <trkpt lat="47.80327" lon="2.14107">
        <ele>103</ele>
        <time>2017-01-15T10:03:08.645Z</time>
      </trkpt>
      <trkpt lat="47.80327" lon="2.14107">
        <ele>103</ele>
        <time>2017-01-15T10:03:09.641Z</time>
      </trkpt>
      <trkpt lat="47.80322" lon="2.14103">
        <ele>103</ele>
        <time>2017-01-15T10:03:10.637Z</time>
      </trkpt>
      <trkpt lat="47.80319" lon="2.14101">
        <ele>103</ele>
        <time>2017-01-15T10:03:11.644Z</time>
      </trkpt>
      <trkpt lat="47.80317" lon="2.14099">
        <ele>103</ele>
        <time>2017-01-15T10:03:12.647Z</time>
      </trkpt>
      <trkpt lat="47.80317" lon="2.14099">
        <ele>103</ele>
        <time>2017-01-15T10:03:13.642Z</time>
      </trkpt>
      <trkpt lat="47.80311" lon="2.14095">
        <ele>103</ele>
        <time>2017-01-15T10:03:14.637Z</time>
      </trkpt>
      <trkpt lat="47.80309" lon="2.14094">
        <ele>104</ele>
        <time>2017-01-15T10:03:15.648Z</time>
      </trkpt>
      <trkpt lat="47.80309" lon="2.14094">
        <ele>104</ele>
        <time>2017-01-15T10:03:16.655Z</time>
      </trkpt>
      <trkpt lat="47.80304" lon="2.14093">
        <ele>104</ele>
        <time>2017-01-15T10:03:17.643Z</time>
      </trkpt>
      <trkpt lat="47.80302" lon="2.14091">
        <ele>104</ele>
        <time>2017-01-15T10:03:18.643Z</time>
      </trkpt>
      <trkpt lat="47.80302" lon="2.14091">
        <ele>104</ele>
        <time>2017-01-15T10:03:19.642Z</time>
      </trkpt>
      <trkpt lat="47.80299" lon="2.14087">
        <ele>104</ele>
        <time>2017-01-15T10:03:20.660Z</time>
      </trkpt>
      <trkpt lat="47.80297" lon="2.14086">
        <ele>104</ele>
        <time>2017-01-15T10:03:21.652Z</time>
      </trkpt>
      <trkpt lat="47.80297" lon="2.14086">
        <ele>104</ele>
        <time>2017-01-15T10:03:22.642Z</time>
      </trkpt>
      <trkpt lat="47.80292" lon="2.14084">
        <ele>103</ele>
        <time>2017-01-15T10:03:23.643Z</time>
      </trkpt>
      <trkpt lat="47.80289" lon="2.14082">
        <ele>104</ele>
        <time>2017-01-15T10:03:24.644Z</time>
      </trkpt>
      <trkpt lat="47.80286" lon="2.1408">
        <ele>104</ele>
        <time>2017-01-15T10:03:25.645Z</time>
      </trkpt>
      <trkpt lat="47.80286" lon="2.1408">
        <ele>104</ele>
        <time>2017-01-15T10:03:26.644Z</time>
      </trkpt>
      <trkpt lat="47.8028" lon="2.14076">
        <ele>104</ele>
        <time>2017-01-15T10:03:27.642Z</time>
      </trkpt>
      <trkpt lat="47.8028" lon="2.14076">
        <ele>104</ele>
        <time>2017-01-15T10:03:28.641Z</time>
      </trkpt>
      <trkpt lat="47.80273" lon="2.14072">
        <ele>103</ele>
        <time>2017-01-15T10:03:29.643Z</time>
      </trkpt>
      <trkpt lat="47.80269" lon="2.14072">
        <ele>103</ele>
        <time>2017-01-15T10:03:30.646Z</time>
      </trkpt>
      <trkpt lat="47.80269" lon="2.14072">
        <ele>103</ele>
        <time>2017-01-15T10:03:31.641Z</time>
      </trkpt>
      <trkpt lat="47.80263" lon="2.14079">
        <ele>102</ele>
        <time>2017-01-15T10:03:32.643Z</time>
      </trkpt>
      <trkpt lat="47.80263" lon="2.14079">
        <ele>102</ele>
        <time>2017-01-15T10:03:33.642Z</time>
      </trkpt>
      <trkpt lat="47.8026" lon="2.14091">
        <ele>103</ele>
        <time>2017-01-15T10:03:34.641Z</time>
      </trkpt>
      <trkpt lat="47.8026" lon="2.14091">
        <ele>103</ele>
        <time>2017-01-15T10:03:35.642Z</time>
      </trkpt>
      <trkpt lat="47.80257" lon="2.14103">
        <ele>103</ele>
        <time>2017-01-15T10:03:36.644Z</time>
      </trkpt>
      <trkpt lat="47.80257" lon="2.14103">
        <ele>103</ele>
        <time>2017-01-15T10:03:37.642Z</time>
      </trkpt>
      <trkpt lat="47.80254" lon="2.14115">
        <ele>103</ele>
        <time>2017-01-15T10:03:38.643Z</time>
      </trkpt>
      <trkpt lat="47.80252" lon="2.1412">
        <ele>104</ele>
        <time>2017-01-15T10:03:39.645Z</time>
      </trkpt>
      <trkpt lat="47.80252" lon="2.1412">
        <ele>104</ele>
        <time>2017-01-15T10:03:40.647Z</time>
      </trkpt>
      <trkpt lat="47.80248" lon="2.14133">
        <ele>104</ele>
        <time>2017-01-15T10:03:41.657Z</time>
      </trkpt>
      <trkpt lat="47.80248" lon="2.14133">
        <ele>104</ele>
        <time>2017-01-15T10:03:42.647Z</time>
      </trkpt>
      <trkpt lat="47.80244" lon="2.14146">
        <ele>104</ele>
        <time>2017-01-15T10:03:43.644Z</time>
      </trkpt>
      <trkpt lat="47.80243" lon="2.14153">
        <ele>104</ele>
        <time>2017-01-15T10:03:44.643Z</time>
      </trkpt>
      <trkpt lat="47.80243" lon="2.14153">
        <ele>104</ele>
        <time>2017-01-15T10:03:45.642Z</time>
      </trkpt>
      <trkpt lat="47.80242" lon="2.14168">
        <ele>103</ele>
        <time>2017-01-15T10:03:46.643Z</time>
      </trkpt>
      <trkpt lat="47.80242" lon="2.14168">
        <ele>103</ele>
        <time>2017-01-15T10:03:47.643Z</time>
      </trkpt>
      <trkpt lat="47.80243" lon="2.14183">
        <ele>102</ele>
        <time>2017-01-15T10:03:48.645Z</time>
      </trkpt>
      <trkpt lat="47.80244" lon="2.1419">
        <ele>102</ele>
        <time>2017-01-15T10:03:49.645Z</time>
      </trkpt>
      <trkpt lat="47.80244" lon="2.1419">
        <ele>102</ele>
        <time>2017-01-15T10:03:50.642Z</time>
      </trkpt>
      <trkpt lat="47.80245" lon="2.14203">
        <ele>101</ele>
        <time>2017-01-15T10:03:51.649Z</time>
      </trkpt>
      <trkpt lat="47.80245" lon="2.14203">
        <ele>101</ele>
        <time>2017-01-15T10:03:52.642Z</time>
      </trkpt>
      <trkpt lat="47.80247" lon="2.14216">
        <ele>101</ele>
        <time>2017-01-15T10:03:53.643Z</time>
      </trkpt>
      <trkpt lat="47.80247" lon="2.14223">
        <ele>100</ele>
        <time>2017-01-15T10:03:54.644Z</time>
      </trkpt>
      <trkpt lat="47.80247" lon="2.14223">
        <ele>100</ele>
        <time>2017-01-15T10:03:55.645Z</time>
      </trkpt>
      <trkpt lat="47.80244" lon="2.14236">
        <ele>100</ele>
        <time>2017-01-15T10:03:56.644Z</time>
      </trkpt>
      <trkpt lat="47.80241" lon="2.14241">
        <ele>100</ele>
        <time>2017-01-15T10:03:57.642Z</time>
      </trkpt>
      <trkpt lat="47.80241" lon="2.14241">
        <ele>100</ele>
        <time>2017-01-15T10:03:58.642Z</time>
      </trkpt>
      <trkpt lat="47.80232" lon="2.14246">
        <ele>99</ele>
        <time>2017-01-15T10:03:59.644Z</time>
      </trkpt>
      <trkpt lat="47.80228" lon="2.14247">
        <ele>99</ele>
        <time>2017-01-15T10:04:00.646Z</time>
      </trkpt>
      <trkpt lat="47.80228" lon="2.14247">
        <ele>99</ele>
        <time>2017-01-15T10:04:01.642Z</time>
      </trkpt>
      <trkpt lat="47.80218" lon="2.14246">
        <ele>99</ele>
        <time>2017-01-15T10:04:02.644Z</time>
      </trkpt>
      <trkpt lat="47.80218" lon="2.14246">
        <ele>99</ele>
        <time>2017-01-15T10:04:03.642Z</time>
      </trkpt>
      <trkpt lat="47.8021" lon="2.14245">
        <ele>99</ele>
        <time>2017-01-15T10:04:04.644Z</time>
      </trkpt>
      <trkpt lat="47.80206" lon="2.14245">
        <ele>99</ele>
        <time>2017-01-15T10:04:05.644Z</time>
      </trkpt>
      <trkpt lat="47.80202" lon="2.14245">
        <ele>100</ele>
        <time>2017-01-15T10:04:06.644Z</time>
      </trkpt>
      <trkpt lat="47.80202" lon="2.14245">
        <ele>100</ele>
        <time>2017-01-15T10:04:07.642Z</time>
      </trkpt>
      <trkpt lat="47.80197" lon="2.14245">
        <ele>100</ele>
        <time>2017-01-15T10:04:08.661Z</time>
      </trkpt>
      <trkpt lat="47.80197" lon="2.14245">
        <ele>100</ele>
        <time>2017-01-15T10:04:09.652Z</time>
      </trkpt>
      <trkpt lat="47.80194" lon="2.14245">
        <ele>100</ele>
        <time>2017-01-15T10:04:10.644Z</time>
      </trkpt>
      <trkpt lat="47.80194" lon="2.14245">
        <ele>100</ele>
        <time>2017-01-15T10:04:11.651Z</time>
      </trkpt>
      <trkpt lat="47.8019" lon="2.14242">
        <ele>100</ele>
        <time>2017-01-15T10:04:12.647Z</time>
      </trkpt>
      <trkpt lat="47.8019" lon="2.14242">
        <ele>100</ele>
        <time>2017-01-15T10:04:13.654Z</time>
      </trkpt>
      <trkpt lat="47.80186" lon="2.14235">
        <ele>100</ele>
        <time>2017-01-15T10:04:14.629Z</time>
      </trkpt>
      <trkpt lat="47.80183" lon="2.14232">
        <ele>100</ele>
        <time>2017-01-15T10:04:15.637Z</time>
      </trkpt>
      <trkpt lat="47.80183" lon="2.14232">
        <ele>100</ele>
        <time>2017-01-15T10:04:16.643Z</time>
      </trkpt>
      <trkpt lat="47.80175" lon="2.14231">
        <ele>100</ele>
        <time>2017-01-15T10:04:17.650Z</time>
      </trkpt>
      <trkpt lat="47.80175" lon="2.14231">
        <ele>100</ele>
        <time>2017-01-15T10:04:18.642Z</time>
      </trkpt>
      <trkpt lat="47.80166" lon="2.14233">
        <ele>100</ele>
        <time>2017-01-15T10:04:19.644Z</time>
      </trkpt>
      <trkpt lat="47.80166" lon="2.14233">
        <ele>100</ele>
        <time>2017-01-15T10:04:20.642Z</time>
      </trkpt>
      <trkpt lat="47.80156" lon="2.14235">
        <ele>100</ele>
        <time>2017-01-15T10:04:21.643Z</time>
      </trkpt>
      <trkpt lat="47.80156" lon="2.14235">
        <ele>100</ele>
        <time>2017-01-15T10:04:22.642Z</time>
      </trkpt>
      <trkpt lat="47.80147" lon="2.14237">
        <ele>100</ele>
        <time>2017-01-15T10:04:23.644Z</time>
      </trkpt>
      <trkpt lat="47.80147" lon="2.14237">
        <ele>100</ele>
        <time>2017-01-15T10:04:24.642Z</time>
      </trkpt>
      <trkpt lat="47.80137" lon="2.14239">
        <ele>100</ele>
        <time>2017-01-15T10:04:25.644Z</time>
      </trkpt>
      <trkpt lat="47.80137" lon="2.14239">
        <ele>100</ele>
        <time>2017-01-15T10:04:26.642Z</time>
      </trkpt>
      <trkpt lat="47.80127" lon="2.14242">
        <ele>100</ele>
        <time>2017-01-15T10:04:27.643Z</time>
      </trkpt>
      <trkpt lat="47.80122" lon="2.14243">
        <ele>100</ele>
        <time>2017-01-15T10:04:28.642Z</time>
      </trkpt>
      <trkpt lat="47.80122" lon="2.14243">
        <ele>100</ele>
        <time>2017-01-15T10:04:29.643Z</time>
      </trkpt>
      <trkpt lat="47.80112" lon="2.14245">
        <ele>101</ele>
        <time>2017-01-15T10:04:30.645Z</time>
      </trkpt>
      <trkpt lat="47.80108" lon="2.14246">
        <ele>101</ele>
        <time>2017-01-15T10:04:31.644Z</time>
      </trkpt>
      <trkpt lat="47.80108" lon="2.14246">
        <ele>101</ele>
        <time>2017-01-15T10:04:32.642Z</time>
      </trkpt>
      <trkpt lat="47.80098" lon="2.14247">
        <ele>101</ele>
        <time>2017-01-15T10:04:33.644Z</time>
      </trkpt>
      <trkpt lat="47.80098" lon="2.14247">
        <ele>101</ele>
        <time>2017-01-15T10:04:34.642Z</time>
      </trkpt>
      <trkpt lat="47.8009" lon="2.14249">
        <ele>101</ele>
        <time>2017-01-15T10:04:35.644Z</time>
      </trkpt>
      <trkpt lat="47.80086" lon="2.1425">
        <ele>101</ele>
        <time>2017-01-15T10:04:36.645Z</time>
      </trkpt>
      <trkpt lat="47.80083" lon="2.14251">
        <ele>101</ele>
        <time>2017-01-15T10:04:37.642Z</time>
      </trkpt>
      <trkpt lat="47.80083" lon="2.14251">
        <ele>101</ele>
        <time>2017-01-15T10:04:38.642Z</time>
      </trkpt>
      <trkpt lat="47.80077" lon="2.14253">
        <ele>102</ele>
        <time>2017-01-15T10:04:39.642Z</time>
      </trkpt>
      <trkpt lat="47.80074" lon="2.14251">
        <ele>102</ele>
        <time>2017-01-15T10:04:40.635Z</time>
      </trkpt>
      <trkpt lat="47.80073" lon="2.14249">
        <ele>103</ele>
        <time>2017-01-15T10:04:41.649Z</time>
      </trkpt>
      <trkpt lat="47.80073" lon="2.14249">
        <ele>103</ele>
        <time>2017-01-15T10:04:42.643Z</time>
      </trkpt>
      <trkpt lat="47.80072" lon="2.14249">
        <ele>103</ele>
        <time>2017-01-15T10:04:43.644Z</time>
      </trkpt>
      <trkpt lat="47.80072" lon="2.14249">
        <ele>103</ele>
        <time>2017-01-15T10:04:44.642Z</time>
      </trkpt>
      <trkpt lat="47.80072" lon="2.14249">
        <ele>103</ele>
        <time>2017-01-15T10:04:45.644Z</time>
      </trkpt>
    </trkseg>
  </trk>
</gpx>